<?xml version='1.0' encoding='UTF-8'?><gpx version="1.1" creator="JPX - https://github.com/jenetics/jpx" xmlns="http://www.topografix.com/GPX/1/1"><trk><trkseg><trkpt lat="43.466904661682285" lon="11.434299395432083"><ele>351.0</ele><time>2026-04-25T08:25:08.999Z</time></trkpt><trkpt lat="43.46683717207801" lon="11.434327018802259"><ele>351.0</ele><time>2026-04-25T08:25:10Z</time></trkpt><trkpt lat="43.466760010261794" lon="11.4343476736274"><ele>351.0</ele><time>2026-04-25T08:25:11Z</time></trkpt><trkpt lat="43.466678647869365" lon="11.434353481751018"><ele>351.0</ele><time>2026-04-25T08:25:12Z</time></trkpt><trkpt lat="43.466594687956416" lon="11.434350513807825"><ele>351.0</ele><time>2026-04-25T08:25:13Z</time></trkpt><trkpt lat="43.46651066477923" lon="11.434345327207945"><ele>351.0</ele><time>2026-04-25T08:25:14Z</time></trkpt><trkpt lat="43.46642342650963" lon="11.43433861894592"><ele>351.0</ele><time>2026-04-25T08:25:15Z</time></trkpt><trkpt lat="43.46633677534929" lon="11.434338515027651"><ele>351.0</ele><time>2026-04-25T08:25:16Z</time></trkpt><trkpt lat="43.46625187159268" lon="11.434337182416337"><ele>351.0</ele><time>2026-04-25T08:25:17Z</time></trkpt><trkpt lat="43.46617027647817" lon="11.434320945974411"><ele>351.0</ele><time>2026-04-25T08:25:18Z</time></trkpt><trkpt lat="43.46609282572548" lon="11.434299230701965"><ele>351.0</ele><time>2026-04-25T08:25:19Z</time></trkpt><trkpt lat="43.46601784978976" lon="11.43427163140384"><ele>351.0</ele><time>2026-04-25T08:25:20Z</time></trkpt><trkpt lat="43.46594083510655" lon="11.434242245434405"><ele>350.4</ele><time>2026-04-25T08:25:21Z</time></trkpt><trkpt lat="43.465857056395556" lon="11.43421149602525"><ele>349.8</ele><time>2026-04-25T08:25:22Z</time></trkpt><trkpt lat="43.465767035524884" lon="11.434178518578568"><ele>349.2</ele><time>2026-04-25T08:25:23Z</time></trkpt><trkpt lat="43.4656753185093" lon="11.434139641148446"><ele>348.59999999999997</ele><time>2026-04-25T08:25:24Z</time></trkpt><trkpt lat="43.4655992218384" lon="11.434053873374538"><ele>348.0</ele><time>2026-04-25T08:25:25Z</time></trkpt><trkpt lat="43.46551691794984" lon="11.433981250174844"><ele>348.0</ele><time>2026-04-25T08:25:26Z</time></trkpt><trkpt lat="43.46543524322995" lon="11.43391621182062"><ele>348.0</ele><time>2026-04-25T08:25:27Z</time></trkpt><trkpt lat="43.46536651681246" lon="11.43382114116272"><ele>348.0</ele><time>2026-04-25T08:25:28Z</time></trkpt><trkpt lat="43.46529771793357" lon="11.433719778032504"><ele>348.0</ele><time>2026-04-25T08:25:29Z</time></trkpt><trkpt lat="43.465239471945594" lon="11.433597560394022"><ele>348.0</ele><time>2026-04-25T08:25:30Z</time></trkpt><trkpt lat="43.46515373808406" lon="11.433506074908282"><ele>348.0</ele><time>2026-04-25T08:25:31Z</time></trkpt><trkpt lat="43.46507834897758" lon="11.433402559592285"><ele>348.0</ele><time>2026-04-25T08:25:32Z</time></trkpt><trkpt lat="43.4650039291844" lon="11.433292680291244"><ele>348.0</ele><time>2026-04-25T08:25:33Z</time></trkpt><trkpt lat="43.464909450719226" lon="11.433219266698087"><ele>348.0</ele><time>2026-04-25T08:25:34Z</time></trkpt><trkpt lat="43.464812695122575" lon="11.433168560273131"><ele>348.0</ele><time>2026-04-25T08:25:35Z</time></trkpt><trkpt lat="43.46472349157635" lon="11.43310027958326"><ele>348.0</ele><time>2026-04-25T08:25:36Z</time></trkpt><trkpt lat="43.46463835518766" lon="11.433034984750483"><ele>348.0</ele><time>2026-04-25T08:25:37Z</time></trkpt><trkpt lat="43.46455679317579" lon="11.43296526282783"><ele>348.0</ele><time>2026-04-25T08:25:38Z</time></trkpt><trkpt lat="43.46447734730011" lon="11.432887090101376"><ele>348.0</ele><time>2026-04-25T08:25:39Z</time></trkpt><trkpt lat="43.464399685968885" lon="11.43280143574711"><ele>348.0</ele><time>2026-04-25T08:25:40Z</time></trkpt><trkpt lat="43.46432325124291" lon="11.432706333802761"><ele>348.2</ele><time>2026-04-25T08:25:41Z</time></trkpt><trkpt lat="43.46425337355456" lon="11.432596689838661"><ele>348.4</ele><time>2026-04-25T08:25:42Z</time></trkpt><trkpt lat="43.46418945372813" lon="11.432471350235696"><ele>348.59999999999997</ele><time>2026-04-25T08:25:43Z</time></trkpt><trkpt lat="43.46412948745348" lon="11.432338403475674"><ele>348.79999999999995</ele><time>2026-04-25T08:25:44Z</time></trkpt><trkpt lat="43.46406951055002" lon="11.432200907052982"><ele>349.0</ele><time>2026-04-25T08:25:45Z</time></trkpt><trkpt lat="43.46401254503344" lon="11.432055471521242"><ele>348.0</ele><time>2026-04-25T08:25:46Z</time></trkpt><trkpt lat="43.46395656317157" lon="11.431899250098013"><ele>347.0</ele><time>2026-04-25T08:25:47Z</time></trkpt><trkpt lat="43.46389673293786" lon="11.431732682290232"><ele>346.0</ele><time>2026-04-25T08:25:48Z</time></trkpt><trkpt lat="43.46383048654616" lon="11.431563115762506"><ele>345.0</ele><time>2026-04-25T08:25:49Z</time></trkpt><trkpt lat="43.46376102905996" lon="11.431393509021184"><ele>345.5</ele><time>2026-04-25T08:25:50Z</time></trkpt><trkpt lat="43.46369095881534" lon="11.431219619579378"><ele>346.0</ele><time>2026-04-25T08:25:51Z</time></trkpt><trkpt lat="43.463614507833725" lon="11.431051117190531"><ele>346.5</ele><time>2026-04-25T08:25:52Z</time></trkpt><trkpt lat="43.463529932254126" lon="11.430883740315195"><ele>347.0</ele><time>2026-04-25T08:25:53Z</time></trkpt><trkpt lat="43.46343288582231" lon="11.430723855677677"><ele>347.0</ele><time>2026-04-25T08:25:54Z</time></trkpt><trkpt lat="43.46332782672854" lon="11.430571375216969"><ele>347.0</ele><time>2026-04-25T08:25:55Z</time></trkpt><trkpt lat="43.4632243316006" lon="11.430416083876764"><ele>347.0</ele><time>2026-04-25T08:25:56Z</time></trkpt><trkpt lat="43.463126437626904" lon="11.4302522245278"><ele>346.6666666666667</ele><time>2026-04-25T08:25:57Z</time></trkpt><trkpt lat="43.463037356949854" lon="11.430075417005527"><ele>346.3333333333333</ele><time>2026-04-25T08:25:58Z</time></trkpt><trkpt lat="43.46295053854058" lon="11.429906163163022"><ele>346.0</ele><time>2026-04-25T08:25:59Z</time></trkpt><trkpt lat="43.46285349900321" lon="11.429753167284487"><ele>346.0</ele><time>2026-04-25T08:26:00Z</time></trkpt><trkpt lat="43.46274366607312" lon="11.429607069953171"><ele>346.0</ele><time>2026-04-25T08:26:01Z</time></trkpt><trkpt lat="43.46263106268297" lon="11.429460857006895"><ele>346.0</ele><time>2026-04-25T08:26:02Z</time></trkpt><trkpt lat="43.46251680940881" lon="11.429320021675682"><ele>346.0</ele><time>2026-04-25T08:26:03Z</time></trkpt><trkpt lat="43.462401694922846" lon="11.429178349507636"><ele>346.0</ele><time>2026-04-25T08:26:04Z</time></trkpt><trkpt lat="43.46228719544954" lon="11.429038700412724"><ele>346.0</ele><time>2026-04-25T08:26:05Z</time></trkpt><trkpt lat="43.46217244312073" lon="11.428894078489904"><ele>344.66666666666663</ele><time>2026-04-25T08:26:06Z</time></trkpt><trkpt lat="43.46205744875035" lon="11.428749929199178"><ele>343.3333333333333</ele><time>2026-04-25T08:26:07Z</time></trkpt><trkpt lat="43.46194274463916" lon="11.428607631104452"><ele>342.0</ele><time>2026-04-25T08:26:08Z</time></trkpt><trkpt lat="43.46182411422849" lon="11.428466274006116"><ele>342.0</ele><time>2026-04-25T08:26:09Z</time></trkpt><trkpt lat="43.46170254803878" lon="11.428331308378636"><ele>342.0</ele><time>2026-04-25T08:26:10Z</time></trkpt><trkpt lat="43.46158435608276" lon="11.428207788580535"><ele>342.0</ele><time>2026-04-25T08:26:11Z</time></trkpt><trkpt lat="43.46147106136611" lon="11.42809039712902"><ele>342.0</ele><time>2026-04-25T08:26:12Z</time></trkpt><trkpt lat="43.46136176840951" lon="11.427971372444402"><ele>341.5</ele><time>2026-04-25T08:26:13Z</time></trkpt><trkpt lat="43.461252336566005" lon="11.42785290465624"><ele>341.0</ele><time>2026-04-25T08:26:14Z</time></trkpt><trkpt lat="43.46114252336514" lon="11.427736814163229"><ele>340.5</ele><time>2026-04-25T08:26:15Z</time></trkpt><trkpt lat="43.461034718482935" lon="11.427616703869013"><ele>340.0</ele><time>2026-04-25T08:26:16Z</time></trkpt><trkpt lat="43.46092565449863" lon="11.427498002206523"><ele>340.0</ele><time>2026-04-25T08:26:17Z</time></trkpt><trkpt lat="43.46081563831116" lon="11.427381842425172"><ele>340.0</ele><time>2026-04-25T08:26:18Z</time></trkpt><trkpt lat="43.46070104350955" lon="11.427273243704683"><ele>340.0</ele><time>2026-04-25T08:26:19Z</time></trkpt><trkpt lat="43.460578289543385" lon="11.427157530561246"><ele>340.0</ele><time>2026-04-25T08:26:20Z</time></trkpt><trkpt lat="43.46042555209497" lon="11.4270991717066"><ele>341.0</ele><time>2026-04-25T08:26:21Z</time></trkpt><trkpt lat="43.46026097030228" lon="11.427002446474793"><ele>342.0</ele><time>2026-04-25T08:26:22Z</time></trkpt><trkpt lat="43.46006582335698" lon="11.426916102411928"><ele>343.0</ele><time>2026-04-25T08:26:23Z</time></trkpt><trkpt lat="43.45985639930096" lon="11.426823147174787"><ele>343.0</ele><time>2026-04-25T08:26:24Z</time></trkpt><trkpt lat="43.45963616605859" lon="11.42672499575792"><ele>343.0</ele><time>2026-04-25T08:26:25Z</time></trkpt><trkpt lat="43.45940683842427" lon="11.426642775888707"><ele>341.0</ele><time>2026-04-25T08:26:26Z</time></trkpt><trkpt lat="43.45917899315395" lon="11.426533826273618"><ele>339.0</ele><time>2026-04-25T08:26:27Z</time></trkpt><trkpt lat="43.45895226320671" lon="11.426431672430025"><ele>338.0</ele><time>2026-04-25T08:26:28Z</time></trkpt><trkpt lat="43.45872649387542" lon="11.426336029374982"><ele>337.0</ele><time>2026-04-25T08:26:29Z</time></trkpt><trkpt lat="43.458504323864034" lon="11.426238816150658"><ele>336.66666666666663</ele><time>2026-04-25T08:26:30Z</time></trkpt><trkpt lat="43.45828817171411" lon="11.426142457201438"><ele>336.3333333333333</ele><time>2026-04-25T08:26:31Z</time></trkpt><trkpt lat="43.45807841092034" lon="11.426048642804028"><ele>336.0</ele><time>2026-04-25T08:26:32Z</time></trkpt><trkpt lat="43.45787150356138" lon="11.425958767229499"><ele>336.0</ele><time>2026-04-25T08:26:33Z</time></trkpt><trkpt lat="43.45766857249842" lon="11.425871209267575"><ele>336.0</ele><time>2026-04-25T08:26:34Z</time></trkpt><trkpt lat="43.457472358680185" lon="11.425782948977517"><ele>336.0</ele><time>2026-04-25T08:26:35Z</time></trkpt><trkpt lat="43.457280095336095" lon="11.425701923388724"><ele>338.0</ele><time>2026-04-25T08:26:36Z</time></trkpt><trkpt lat="43.4570957985787" lon="11.425607752679504"><ele>340.0</ele><time>2026-04-25T08:26:37Z</time></trkpt><trkpt lat="43.45691209288855" lon="11.425554202144854"><ele>342.0</ele><time>2026-04-25T08:26:38Z</time></trkpt><trkpt lat="43.45673322810558" lon="11.425513472966713"><ele>342.0</ele><time>2026-04-25T08:26:38.999Z</time></trkpt><trkpt lat="43.456567030402375" lon="11.425493225509008"><ele>342.0</ele><time>2026-04-25T08:26:39.999Z</time></trkpt><trkpt lat="43.45642580019048" lon="11.425488301259588"><ele>342.0</ele><time>2026-04-25T08:26:40.999Z</time></trkpt><trkpt lat="43.45630315468869" lon="11.425488708258257"><ele>342.0</ele><time>2026-04-25T08:26:41.999Z</time></trkpt><trkpt lat="43.45618712073495" lon="11.425430109216743"><ele>340.75</ele><time>2026-04-25T08:26:42.999Z</time></trkpt><trkpt lat="43.45608021687384" lon="11.425345768904357"><ele>339.5</ele><time>2026-04-25T08:26:43.999Z</time></trkpt><trkpt lat="43.45597493824771" lon="11.425252337440687"><ele>338.25</ele><time>2026-04-25T08:26:44.999Z</time></trkpt><trkpt lat="43.455877565268594" lon="11.425120214952617"><ele>337.0</ele><time>2026-04-25T08:26:45.999Z</time></trkpt><trkpt lat="43.455763232073586" lon="11.424999776775156"><ele>337.0</ele><time>2026-04-25T08:26:46.999Z</time></trkpt><trkpt lat="43.45563540103624" lon="11.424889735527628"><ele>337.0</ele><time>2026-04-25T08:26:47.999Z</time></trkpt><trkpt lat="43.45551512801966" lon="11.424755853712695"><ele>337.0</ele><time>2026-04-25T08:26:48.999Z</time></trkpt><trkpt lat="43.455388720705784" lon="11.424623874164144"><ele>335.66666666666663</ele><time>2026-04-25T08:26:49.999Z</time></trkpt><trkpt lat="43.45526042048504" lon="11.424491159840807"><ele>334.3333333333333</ele><time>2026-04-25T08:26:50.999Z</time></trkpt><trkpt lat="43.455132280416855" lon="11.424360058544098"><ele>333.0</ele><time>2026-04-25T08:26:51.999Z</time></trkpt><trkpt lat="43.45500706135116" lon="11.424226476160333"><ele>333.0</ele><time>2026-04-25T08:26:52.999Z</time></trkpt><trkpt lat="43.45488452231942" lon="11.424096515980597"><ele>333.0</ele><time>2026-04-25T08:26:53.999Z</time></trkpt><trkpt lat="43.45476140412446" lon="11.423969492587146"><ele>333.0</ele><time>2026-04-25T08:26:54.999Z</time></trkpt><trkpt lat="43.454640754015394" lon="11.423847907988948"><ele>332.3333333333333</ele><time>2026-04-25T08:26:55.999Z</time></trkpt><trkpt lat="43.4545205547902" lon="11.423730513693506"><ele>331.66666666666663</ele><time>2026-04-25T08:26:56.999Z</time></trkpt><trkpt lat="43.454397657452034" lon="11.423599249113021"><ele>331.0</ele><time>2026-04-25T08:26:57.999Z</time></trkpt><trkpt lat="43.45427708497964" lon="11.42344193510757"><ele>331.0</ele><time>2026-04-25T08:26:58.999Z</time></trkpt><trkpt lat="43.45416078501331" lon="11.423256970850426"><ele>331.0</ele><time>2026-04-25T08:26:59.999Z</time></trkpt><trkpt lat="43.45404036624832" lon="11.423061405228571"><ele>331.0</ele><time>2026-04-25T08:27:00.999Z</time></trkpt><trkpt lat="43.45391513089586" lon="11.422863486393565"><ele>329.0</ele><time>2026-04-25T08:27:01.999Z</time></trkpt><trkpt lat="43.453782193039146" lon="11.422666060517686"><ele>327.0</ele><time>2026-04-25T08:27:02.999Z</time></trkpt><trkpt lat="43.453649251226835" lon="11.422464452007029"><ele>325.0</ele><time>2026-04-25T08:27:03.999Z</time></trkpt><trkpt lat="43.45351962686328" lon="11.422258926620849"><ele>327.3333333333333</ele><time>2026-04-25T08:27:04.999Z</time></trkpt><trkpt lat="43.45339504409311" lon="11.422060384461359"><ele>329.6666666666667</ele><time>2026-04-25T08:27:05.999Z</time></trkpt><trkpt lat="43.453276377923956" lon="11.421876615192073"><ele>332.0</ele><time>2026-04-25T08:27:06.999Z</time></trkpt><trkpt lat="43.453159942367094" lon="11.421705682083116"><ele>332.0</ele><time>2026-04-25T08:27:07.999Z</time></trkpt><trkpt lat="43.453036553044605" lon="11.42155218073757"><ele>332.0</ele><time>2026-04-25T08:27:08.999Z</time></trkpt><trkpt lat="43.452894987061825" lon="11.421410027694835"><ele>332.0</ele><time>2026-04-25T08:27:09.999Z</time></trkpt><trkpt lat="43.45274585919289" lon="11.421299938957697"><ele>333.0</ele><time>2026-04-25T08:27:10.999Z</time></trkpt><trkpt lat="43.45260355812357" lon="11.421196135626557"><ele>334.0</ele><time>2026-04-25T08:27:11.999Z</time></trkpt><trkpt lat="43.45247134596602" lon="11.421053481473244"><ele>335.0</ele><time>2026-04-25T08:27:12.999Z</time></trkpt><trkpt lat="43.452352296220774" lon="11.42088393435171"><ele>335.0</ele><time>2026-04-25T08:27:13.999Z</time></trkpt><trkpt lat="43.45223068119468" lon="11.420706687836429"><ele>335.0</ele><time>2026-04-25T08:27:14.999Z</time></trkpt><trkpt lat="43.45211038939925" lon="11.420520733318012"><ele>335.0</ele><time>2026-04-25T08:27:15.999Z</time></trkpt><trkpt lat="43.45198731201854" lon="11.420338042737132"><ele>333.6666666666667</ele><time>2026-04-25T08:27:16.999Z</time></trkpt><trkpt lat="43.45187059387314" lon="11.420158238606032"><ele>332.3333333333333</ele><time>2026-04-25T08:27:17.999Z</time></trkpt><trkpt lat="43.45176947003334" lon="11.419985363536304"><ele>331.0</ele><time>2026-04-25T08:27:18.999Z</time></trkpt><trkpt lat="43.45167319835067" lon="11.419820395565248"><ele>331.0</ele><time>2026-04-25T08:27:19.999Z</time></trkpt><trkpt lat="43.45156450394442" lon="11.41966621439588"><ele>331.0</ele><time>2026-04-25T08:27:20.999Z</time></trkpt><trkpt lat="43.45143899051516" lon="11.419531983867024"><ele>331.0</ele><time>2026-04-25T08:27:21.999Z</time></trkpt><trkpt lat="43.4513070715912" lon="11.41940930770608"><ele>329.75</ele><time>2026-04-25T08:27:22.999Z</time></trkpt><trkpt lat="43.451178692885435" lon="11.419293451543982"><ele>328.5</ele><time>2026-04-25T08:27:23.999Z</time></trkpt><trkpt lat="43.45105523759093" lon="11.419199655781723"><ele>327.25</ele><time>2026-04-25T08:27:24.999Z</time></trkpt><trkpt lat="43.450916797578486" lon="11.419123801941646"><ele>326.0</ele><time>2026-04-25T08:27:25.999Z</time></trkpt><trkpt lat="43.45076611856276" lon="11.419077664773797"><ele>326.0</ele><time>2026-04-25T08:27:26.999Z</time></trkpt><trkpt lat="43.45061930123889" lon="11.419040285427505"><ele>326.0</ele><time>2026-04-25T08:27:27.999Z</time></trkpt><trkpt lat="43.45047790708526" lon="11.419005008403198"><ele>326.0</ele><time>2026-04-25T08:27:28.999Z</time></trkpt><trkpt lat="43.450335213603516" lon="11.418958139807659"><ele>326.0</ele><time>2026-04-25T08:27:29.999Z</time></trkpt><trkpt lat="43.450191182149645" lon="11.418966605072034"><ele>325.6</ele><time>2026-04-25T08:27:30.999Z</time></trkpt><trkpt lat="43.45006189828512" lon="11.418934897549075"><ele>325.20000000000005</ele><time>2026-04-25T08:27:31.999Z</time></trkpt><trkpt lat="43.449952044361545" lon="11.41889635374588"><ele>324.79999999999995</ele><time>2026-04-25T08:27:32.999Z</time></trkpt><trkpt lat="43.44986071593652" lon="11.418854335351243"><ele>324.4</ele><time>2026-04-25T08:27:33.999Z</time></trkpt><trkpt lat="43.44977905237256" lon="11.41881797860475"><ele>324.0</ele><time>2026-04-25T08:27:34.999Z</time></trkpt><trkpt lat="43.44970769016486" lon="11.4187617275901"><ele>324.79999999999995</ele><time>2026-04-25T08:27:35.999Z</time></trkpt><trkpt lat="43.44962605038836" lon="11.418723522949696"><ele>325.59999999999997</ele><time>2026-04-25T08:27:36.999Z</time></trkpt><trkpt lat="43.44953703954143" lon="11.418704093311346"><ele>326.4</ele><time>2026-04-25T08:27:37.999Z</time></trkpt><trkpt lat="43.4494593562655" lon="11.4186442373152"><ele>327.2</ele><time>2026-04-25T08:27:38.999Z</time></trkpt><trkpt lat="43.44935410941603" lon="11.418631430438742"><ele>328.0</ele><time>2026-04-25T08:27:39.999Z</time></trkpt><trkpt lat="43.449241635964896" lon="11.418580961098902"><ele>328.75</ele><time>2026-04-25T08:27:40.999Z</time></trkpt><trkpt lat="43.44911465112559" lon="11.418557919805199"><ele>329.5</ele><time>2026-04-25T08:27:41.999Z</time></trkpt><trkpt lat="43.448981556886444" lon="11.418542957670246"><ele>330.25</ele><time>2026-04-25T08:27:42.999Z</time></trkpt><trkpt lat="43.448840247830724" lon="11.418549936438788"><ele>331.0</ele><time>2026-04-25T08:27:43.999Z</time></trkpt><trkpt lat="43.44869517279202" lon="11.418529311313895"><ele>331.0</ele><time>2026-04-25T08:27:44.999Z</time></trkpt><trkpt lat="43.44854567373785" lon="11.418510475070834"><ele>331.0</ele><time>2026-04-25T08:27:45.999Z</time></trkpt><trkpt lat="43.44839434236571" lon="11.418469248161607"><ele>331.0</ele><time>2026-04-25T08:27:46.999Z</time></trkpt><trkpt lat="43.448247543496244" lon="11.418383896650843"><ele>331.0</ele><time>2026-04-25T08:27:47.999Z</time></trkpt><trkpt lat="43.448104123886964" lon="11.418268542244567"><ele>331.0</ele><time>2026-04-25T08:27:48.999Z</time></trkpt><trkpt lat="43.4479695611755" lon="11.418139342093184"><ele>331.0</ele><time>2026-04-25T08:27:49.999Z</time></trkpt><trkpt lat="43.44784956320991" lon="11.417992439820043"><ele>332.75</ele><time>2026-04-25T08:27:50.999Z</time></trkpt><trkpt lat="43.44772423882578" lon="11.417881464304378"><ele>334.5</ele><time>2026-04-25T08:27:51.999Z</time></trkpt><trkpt lat="43.44759509213019" lon="11.41779360185374"><ele>336.25</ele><time>2026-04-25T08:27:52.999Z</time></trkpt><trkpt lat="43.44744868334842" lon="11.417755756057327"><ele>338.0</ele><time>2026-04-25T08:27:53.999Z</time></trkpt><trkpt lat="43.4472941823899" lon="11.417713187201615"><ele>338.0</ele><time>2026-04-25T08:27:54.999Z</time></trkpt><trkpt lat="43.447131968956164" lon="11.417673724935852"><ele>338.0</ele><time>2026-04-25T08:27:55.999Z</time></trkpt><trkpt lat="43.44696702825013" lon="11.417630143504498"><ele>338.0</ele><time>2026-04-25T08:27:56.999Z</time></trkpt><trkpt lat="43.44680180276365" lon="11.41758684666531"><ele>338.6666666666667</ele><time>2026-04-25T08:27:57.999Z</time></trkpt><trkpt lat="43.44663938145724" lon="11.417546939312269"><ele>339.3333333333333</ele><time>2026-04-25T08:27:58.999Z</time></trkpt><trkpt lat="43.44648370682815" lon="11.417508272282687"><ele>340.0</ele><time>2026-04-25T08:27:59.999Z</time></trkpt><trkpt lat="43.4463397028109" lon="11.41747810321512"><ele>343.0</ele><time>2026-04-25T08:28:00.999Z</time></trkpt><trkpt lat="43.44620770036825" lon="11.417479054985144"><ele>346.0</ele><time>2026-04-25T08:28:01.999Z</time></trkpt><trkpt lat="43.446082062053335" lon="11.417520361844813"><ele>349.0</ele><time>2026-04-25T08:28:02.999Z</time></trkpt><trkpt lat="43.445971968079334" lon="11.417609949628032"><ele>352.0</ele><time>2026-04-25T08:28:03.999Z</time></trkpt><trkpt lat="43.44588262522638" lon="11.417737510722239"><ele>352.0</ele><time>2026-04-25T08:28:04.999Z</time></trkpt><trkpt lat="43.445816392429336" lon="11.417905298037407"><ele>352.0</ele><time>2026-04-25T08:28:05.999Z</time></trkpt><trkpt lat="43.445766004008725" lon="11.418080579327137"><ele>352.0</ele><time>2026-04-25T08:28:06.999Z</time></trkpt><trkpt lat="43.44572485275092" lon="11.418236862880006"><ele>352.0</ele><time>2026-04-25T08:28:07.999Z</time></trkpt><trkpt lat="43.44569012223857" lon="11.418387503312402"><ele>349.5</ele><time>2026-04-25T08:28:08.999Z</time></trkpt><trkpt lat="43.44566682916036" lon="11.41854451861011"><ele>347.0</ele><time>2026-04-25T08:28:09.999Z</time></trkpt><trkpt lat="43.445649061146135" lon="11.41869851544644"><ele>344.5</ele><time>2026-04-25T08:28:10.999Z</time></trkpt><trkpt lat="43.44563211138794" lon="11.418857489344452"><ele>342.0</ele><time>2026-04-25T08:28:11.999Z</time></trkpt><trkpt lat="43.445624109434036" lon="11.419028804127032"><ele>340.0</ele><time>2026-04-25T08:28:12.999Z</time></trkpt><trkpt lat="43.4456292696343" lon="11.419199786719954"><ele>338.0</ele><time>2026-04-25T08:28:13.999Z</time></trkpt><trkpt lat="43.44562881978012" lon="11.419364829310087"><ele>336.0</ele><time>2026-04-25T08:28:14.999Z</time></trkpt><trkpt lat="43.44560355784583" lon="11.419518836533689"><ele>334.0</ele><time>2026-04-25T08:28:15.999Z</time></trkpt><trkpt lat="43.445547035616045" lon="11.419645702186793"><ele>335.25</ele><time>2026-04-25T08:28:16.999Z</time></trkpt><trkpt lat="43.445459633517565" lon="11.41973904119228"><ele>336.5</ele><time>2026-04-25T08:28:17.999Z</time></trkpt><trkpt lat="43.44533873877073" lon="11.41978694017681"><ele>337.75</ele><time>2026-04-25T08:28:18.999Z</time></trkpt><trkpt lat="43.44521620417504" lon="11.419874491620236"><ele>339.0</ele><time>2026-04-25T08:28:19.999Z</time></trkpt><trkpt lat="43.44508111645793" lon="11.419944405491735"><ele>339.0</ele><time>2026-04-25T08:28:20.999Z</time></trkpt><trkpt lat="43.4449425114852" lon="11.420024551757702"><ele>339.0</ele><time>2026-04-25T08:28:21.999Z</time></trkpt><trkpt lat="43.44479988489745" lon="11.420107437045868"><ele>339.0</ele><time>2026-04-25T08:28:22.999Z</time></trkpt><trkpt lat="43.444662276304406" lon="11.420200490380314"><ele>338.3333333333333</ele><time>2026-04-25T08:28:23.999Z</time></trkpt><trkpt lat="43.44454117341463" lon="11.42032854999367"><ele>337.66666666666663</ele><time>2026-04-25T08:28:24.999Z</time></trkpt><trkpt lat="43.44443589469906" lon="11.420483205304674"><ele>337.0</ele><time>2026-04-25T08:28:25.999Z</time></trkpt><trkpt lat="43.44434060479476" lon="11.420644151438829"><ele>337.0</ele><time>2026-04-25T08:28:26.999Z</time></trkpt><trkpt lat="43.44424379401111" lon="11.420795097621198"><ele>337.0</ele><time>2026-04-25T08:28:27.999Z</time></trkpt><trkpt lat="43.444125026282485" lon="11.420924784818233"><ele>337.0</ele><time>2026-04-25T08:28:28.999Z</time></trkpt><trkpt lat="43.443986653452086" lon="11.421027959000426"><ele>337.0</ele><time>2026-04-25T08:28:29.999Z</time></trkpt><trkpt lat="43.443843030886356" lon="11.421118977636562"><ele>337.0</ele><time>2026-04-25T08:28:30.999Z</time></trkpt><trkpt lat="43.44370035562908" lon="11.421216404832405"><ele>337.0</ele><time>2026-04-25T08:28:31.999Z</time></trkpt><trkpt lat="43.44356128770549" lon="11.421320267173362"><ele>334.0</ele><time>2026-04-25T08:28:32.999Z</time></trkpt><trkpt lat="43.44342235908163" lon="11.421425254373025"><ele>331.0</ele><time>2026-04-25T08:28:33.999Z</time></trkpt><trkpt lat="43.443279928547184" lon="11.42151003628786"><ele>328.0</ele><time>2026-04-25T08:28:34.999Z</time></trkpt><trkpt lat="43.4431340561696" lon="11.421557561572216"><ele>328.0</ele><time>2026-04-25T08:28:35.999Z</time></trkpt><trkpt lat="43.44298412363844" lon="11.421575492067353"><ele>328.0</ele><time>2026-04-25T08:28:36.999Z</time></trkpt><trkpt lat="43.442828401361915" lon="11.421576818092802"><ele>328.0</ele><time>2026-04-25T08:28:37.999Z</time></trkpt><trkpt lat="43.44267062832678" lon="11.421572766452364"><ele>328.0</ele><time>2026-04-25T08:28:38.999Z</time></trkpt><trkpt lat="43.44250656124769" lon="11.421561644615386"><ele>328.0</ele><time>2026-04-25T08:28:39.999Z</time></trkpt><trkpt lat="43.44234000896283" lon="11.4215359116229"><ele>328.0</ele><time>2026-04-25T08:28:40.999Z</time></trkpt><trkpt lat="43.442168136841865" lon="11.421510195989308"><ele>326.3333333333333</ele><time>2026-04-25T08:28:41.999Z</time></trkpt><trkpt lat="43.441992481085855" lon="11.421487998963547"><ele>324.6666666666667</ele><time>2026-04-25T08:28:42.999Z</time></trkpt><trkpt lat="43.441818768082655" lon="11.42146097080016"><ele>323.0</ele><time>2026-04-25T08:28:43.999Z</time></trkpt><trkpt lat="43.441642986382035" lon="11.421433400885233"><ele>323.0</ele><time>2026-04-25T08:28:44.999Z</time></trkpt><trkpt lat="43.441466512362716" lon="11.421409874800023"><ele>323.0</ele><time>2026-04-25T08:28:45.999Z</time></trkpt><trkpt lat="43.44128958399535" lon="11.421379368077705"><ele>323.0</ele><time>2026-04-25T08:28:46.999Z</time></trkpt><trkpt lat="43.44112628027652" lon="11.421321480038255"><ele>325.33333333333337</ele><time>2026-04-25T08:28:47.999Z</time></trkpt><trkpt lat="43.44097364080632" lon="11.421228581349483"><ele>327.6666666666667</ele><time>2026-04-25T08:28:48.999Z</time></trkpt><trkpt lat="43.4408273797713" lon="11.42111257759285"><ele>330.0</ele><time>2026-04-25T08:28:49.999Z</time></trkpt><trkpt lat="43.44068358242407" lon="11.420988825180014"><ele>330.0</ele><time>2026-04-25T08:28:50.999Z</time></trkpt><trkpt lat="43.44053811319269" lon="11.420863702178485"><ele>330.0</ele><time>2026-04-25T08:28:51.999Z</time></trkpt><trkpt lat="43.44038766363754" lon="11.420739186419455"><ele>330.0</ele><time>2026-04-25T08:28:52.999Z</time></trkpt><trkpt lat="43.44023445670279" lon="11.420608905910292"><ele>329.6666666666667</ele><time>2026-04-25T08:28:53.999Z</time></trkpt><trkpt lat="43.44007769651201" lon="11.420475248393418"><ele>329.33333333333337</ele><time>2026-04-25T08:28:54.999Z</time></trkpt><trkpt lat="43.439919716902956" lon="11.420337766691244"><ele>329.0</ele><time>2026-04-25T08:28:55.999Z</time></trkpt><trkpt lat="43.4397581445102" lon="11.420201179742094"><ele>325.33333333333337</ele><time>2026-04-25T08:28:56.999Z</time></trkpt><trkpt lat="43.43959315878553" lon="11.42006705254857"><ele>321.6666666666667</ele><time>2026-04-25T08:28:57.999Z</time></trkpt><trkpt lat="43.43942310946209" lon="11.419932526003416"><ele>318.0</ele><time>2026-04-25T08:28:58.999Z</time></trkpt><trkpt lat="43.43924541749472" lon="11.419813290940379"><ele>318.0</ele><time>2026-04-25T08:28:59.999Z</time></trkpt><trkpt lat="43.43905798040362" lon="11.419721523187798"><ele>318.0</ele><time>2026-04-25T08:29:00.999Z</time></trkpt><trkpt lat="43.4388621703925" lon="11.419663292802547"><ele>318.0</ele><time>2026-04-25T08:29:01.999Z</time></trkpt><trkpt lat="43.43866340801341" lon="11.41963417827801"><ele>321.3333333333333</ele><time>2026-04-25T08:29:02.999Z</time></trkpt><trkpt lat="43.43846187693936" lon="11.419616714974428"><ele>324.66666666666663</ele><time>2026-04-25T08:29:03.999Z</time></trkpt><trkpt lat="43.43826156687189" lon="11.419597014463644"><ele>328.0</ele><time>2026-04-25T08:29:04.999Z</time></trkpt><trkpt lat="43.438063949409944" lon="11.419565277658714"><ele>326.3333333333333</ele><time>2026-04-25T08:29:05.999Z</time></trkpt><trkpt lat="43.43786840735467" lon="11.41952986565484"><ele>324.6666666666667</ele><time>2026-04-25T08:29:06.999Z</time></trkpt><trkpt lat="43.437673580460086" lon="11.419493294770014"><ele>323.0</ele><time>2026-04-25T08:29:07.999Z</time></trkpt><trkpt lat="43.4374796235539" lon="11.41946177398629"><ele>323.0</ele><time>2026-04-25T08:29:08.999Z</time></trkpt><trkpt lat="43.43728540766746" lon="11.419428767860907"><ele>323.0</ele><time>2026-04-25T08:29:09.999Z</time></trkpt><trkpt lat="43.43708906715278" lon="11.419391687554073"><ele>323.0</ele><time>2026-04-25T08:29:10.999Z</time></trkpt><trkpt lat="43.436892408123434" lon="11.419349955505774"><ele>322.0</ele><time>2026-04-25T08:29:11.999Z</time></trkpt><trkpt lat="43.436694005417536" lon="11.419311138801458"><ele>321.0</ele><time>2026-04-25T08:29:12.999Z</time></trkpt><trkpt lat="43.43649259346169" lon="11.419277047343524"><ele>320.0</ele><time>2026-04-25T08:29:13.999Z</time></trkpt><trkpt lat="43.436288493134015" lon="11.419244375545423"><ele>318.6666666666667</ele><time>2026-04-25T08:29:14.999Z</time></trkpt><trkpt lat="43.43608726224105" lon="11.419208585054786"><ele>317.3333333333333</ele><time>2026-04-25T08:29:15.999Z</time></trkpt><trkpt lat="43.435890766071104" lon="11.419171209487617"><ele>316.0</ele><time>2026-04-25T08:29:16.999Z</time></trkpt><trkpt lat="43.435706020757024" lon="11.419134245594108"><ele>316.0</ele><time>2026-04-25T08:29:17.999Z</time></trkpt><trkpt lat="43.435540626221965" lon="11.419101358659926"><ele>316.0</ele><time>2026-04-25T08:29:18.999Z</time></trkpt><trkpt lat="43.43539027817473" lon="11.419087131792342"><ele>316.0</ele><time>2026-04-25T08:29:19.999Z</time></trkpt><trkpt lat="43.43524710425415" lon="11.419113156229356"><ele>317.0</ele><time>2026-04-25T08:29:20.999Z</time></trkpt><trkpt lat="43.43510506880894" lon="11.419184556339744"><ele>318.0</ele><time>2026-04-25T08:29:21.999Z</time></trkpt><trkpt lat="43.43496877925905" lon="11.41928979346085"><ele>319.0</ele><time>2026-04-25T08:29:22.999Z</time></trkpt><trkpt lat="43.43482936162689" lon="11.419409448565272"><ele>319.0</ele><time>2026-04-25T08:29:23.999Z</time></trkpt><trkpt lat="43.43468345371792" lon="11.419542132314703"><ele>319.0</ele><time>2026-04-25T08:29:24.999Z</time></trkpt><trkpt lat="43.43454372743161" lon="11.419689514918742"><ele>319.0</ele><time>2026-04-25T08:29:25.999Z</time></trkpt><trkpt lat="43.434403460849296" lon="11.41984941261577"><ele>318.0</ele><time>2026-04-25T08:29:26.999Z</time></trkpt><trkpt lat="43.43426397813519" lon="11.42000928288538"><ele>317.0</ele><time>2026-04-25T08:29:27.999Z</time></trkpt><trkpt lat="43.434124721042444" lon="11.4201710090155"><ele>316.0</ele><time>2026-04-25T08:29:28.999Z</time></trkpt><trkpt lat="43.433993353269294" lon="11.420326189719837"><ele>316.0</ele><time>2026-04-25T08:29:29.999Z</time></trkpt><trkpt lat="43.43387004807435" lon="11.420480018788748"><ele>316.0</ele><time>2026-04-25T08:29:30.999Z</time></trkpt><trkpt lat="43.433754627883765" lon="11.420625101510083"><ele>316.0</ele><time>2026-04-25T08:29:31.999Z</time></trkpt><trkpt lat="43.433655372444264" lon="11.420742886379607"><ele>313.40000000000003</ele><time>2026-04-25T08:29:32.999Z</time></trkpt><trkpt lat="43.433565412326814" lon="11.420831360645407"><ele>310.8</ele><time>2026-04-25T08:29:33.999Z</time></trkpt><trkpt lat="43.433471143929154" lon="11.420883207155223"><ele>308.20000000000005</ele><time>2026-04-25T08:29:34.999Z</time></trkpt><trkpt lat="43.43337404967536" lon="11.420890126534847"><ele>305.6</ele><time>2026-04-25T08:29:35.999Z</time></trkpt><trkpt lat="43.43328351908857" lon="11.420814008783621"><ele>303.0</ele><time>2026-04-25T08:29:36.999Z</time></trkpt><trkpt lat="43.43320368623094" lon="11.420734116305766"><ele>303.0</ele><time>2026-04-25T08:29:37.999Z</time></trkpt><trkpt lat="43.43313767358449" lon="11.420614983430902"><ele>303.0</ele><time>2026-04-25T08:29:38.999Z</time></trkpt><trkpt lat="43.43306608066375" lon="11.420458638497097"><ele>303.0</ele><time>2026-04-25T08:29:39.999Z</time></trkpt><trkpt lat="43.43299558959134" lon="11.420289269056994"><ele>303.0</ele><time>2026-04-25T08:29:40.999Z</time></trkpt><trkpt lat="43.43292203201348" lon="11.420108795942355"><ele>303.3333333333333</ele><time>2026-04-25T08:29:41.999Z</time></trkpt><trkpt lat="43.43283756514848" lon="11.419932157974984"><ele>303.66666666666663</ele><time>2026-04-25T08:29:42.999Z</time></trkpt><trkpt lat="43.432761851655854" lon="11.419737209037335"><ele>304.0</ele><time>2026-04-25T08:29:43.999Z</time></trkpt><trkpt lat="43.43266998038002" lon="11.41954539799977"><ele>304.0</ele><time>2026-04-25T08:29:44.999Z</time></trkpt><trkpt lat="43.432562132246886" lon="11.419359834281517"><ele>304.0</ele><time>2026-04-25T08:29:45.999Z</time></trkpt><trkpt lat="43.43243942133901" lon="11.419183715698884"><ele>304.0</ele><time>2026-04-25T08:29:46.999Z</time></trkpt><trkpt lat="43.432313133152036" lon="11.419003051843596"><ele>304.0</ele><time>2026-04-25T08:29:47.999Z</time></trkpt><trkpt lat="43.43218455331853" lon="11.418819335163393"><ele>304.0</ele><time>2026-04-25T08:29:48.999Z</time></trkpt><trkpt lat="43.4320516179267" lon="11.41862812779478"><ele>304.0</ele><time>2026-04-25T08:29:49.999Z</time></trkpt><trkpt lat="43.43191861629466" lon="11.418440443027894"><ele>302.3333333333333</ele><time>2026-04-25T08:29:50.999Z</time></trkpt><trkpt lat="43.43178955364955" lon="11.41824976734556"><ele>300.6666666666667</ele><time>2026-04-25T08:29:51.999Z</time></trkpt><trkpt lat="43.431657129574944" lon="11.418058566528154"><ele>299.0</ele><time>2026-04-25T08:29:52.999Z</time></trkpt><trkpt lat="43.43154039447145" lon="11.417882885810364"><ele>299.5</ele><time>2026-04-25T08:29:54Z</time></trkpt><trkpt lat="43.43143491999571" lon="11.4177270506242"><ele>300.0</ele><time>2026-04-25T08:29:55Z</time></trkpt><trkpt lat="43.43133660202914" lon="11.417585325897035"><ele>300.5</ele><time>2026-04-25T08:29:56Z</time></trkpt><trkpt lat="43.431244591075064" lon="11.417442576655299"><ele>301.0</ele><time>2026-04-25T08:29:57Z</time></trkpt><trkpt lat="43.43114243808367" lon="11.41728844145525"><ele>305.66666666666663</ele><time>2026-04-25T08:29:58Z</time></trkpt><trkpt lat="43.43103753876021" lon="11.417130461639365"><ele>310.3333333333333</ele><time>2026-04-25T08:29:59Z</time></trkpt><trkpt lat="43.43090775964662" lon="11.416997716361607"><ele>315.0</ele><time>2026-04-25T08:30:00Z</time></trkpt><trkpt lat="43.43075152738885" lon="11.416899008519723"><ele>315.0</ele><time>2026-04-25T08:30:01Z</time></trkpt><trkpt lat="43.43055888881322" lon="11.416860700779583"><ele>315.0</ele><time>2026-04-25T08:30:02Z</time></trkpt><trkpt lat="43.43037479805695" lon="11.416819671387003"><ele>315.0</ele><time>2026-04-25T08:30:03Z</time></trkpt><trkpt lat="43.430199885592344" lon="11.416807339219048"><ele>313.75</ele><time>2026-04-25T08:30:04Z</time></trkpt><trkpt lat="43.43004247652637" lon="11.416809304413531"><ele>312.5</ele><time>2026-04-25T08:30:05Z</time></trkpt><trkpt lat="43.429901947751425" lon="11.416787905403615"><ele>311.25</ele><time>2026-04-25T08:30:06Z</time></trkpt><trkpt lat="43.429798427448496" lon="11.416682943594765"><ele>310.0</ele><time>2026-04-25T08:30:07Z</time></trkpt><trkpt lat="43.4297082467345" lon="11.416569235654617"><ele>307.25</ele><time>2026-04-25T08:30:08Z</time></trkpt><trkpt lat="43.429628240519854" lon="11.416421685505105"><ele>304.5</ele><time>2026-04-25T08:30:09Z</time></trkpt><trkpt lat="43.42955492964186" lon="11.416254420509315"><ele>301.75</ele><time>2026-04-25T08:30:10Z</time></trkpt><trkpt lat="43.42949554000646" lon="11.41607697926539"><ele>299.0</ele><time>2026-04-25T08:30:11Z</time></trkpt><trkpt lat="43.42951993775194" lon="11.415896938248238"><ele>298.75</ele><time>2026-04-25T08:30:12Z</time></trkpt><trkpt lat="43.42955358393468" lon="11.415733241762803"><ele>298.5</ele><time>2026-04-25T08:30:13Z</time></trkpt><trkpt lat="43.42964148141325" lon="11.415632663426342"><ele>298.25</ele><time>2026-04-25T08:30:14Z</time></trkpt><trkpt lat="43.4297424818113" lon="11.41553124735569"><ele>298.0</ele><time>2026-04-25T08:30:15Z</time></trkpt><trkpt lat="43.42985955880618" lon="11.415407311331787"><ele>299.0</ele><time>2026-04-25T08:30:16Z</time></trkpt><trkpt lat="43.4300012291571" lon="11.415302920257844"><ele>300.0</ele><time>2026-04-25T08:30:17Z</time></trkpt><trkpt lat="43.43014437972005" lon="11.415180708214182"><ele>301.0</ele><time>2026-04-25T08:30:18Z</time></trkpt><trkpt lat="43.4302826971308" lon="11.415038015696561"><ele>301.0</ele><time>2026-04-25T08:30:19Z</time></trkpt><trkpt lat="43.43040898641422" lon="11.414864534563177"><ele>301.0</ele><time>2026-04-25T08:30:20Z</time></trkpt><trkpt lat="43.430517849599035" lon="11.414682148137837"><ele>301.0</ele><time>2026-04-25T08:30:21Z</time></trkpt><trkpt lat="43.43061798214251" lon="11.414521491315725"><ele>301.66666666666663</ele><time>2026-04-25T08:30:22Z</time></trkpt><trkpt lat="43.430730439187855" lon="11.414391409024196"><ele>302.3333333333333</ele><time>2026-04-25T08:30:23Z</time></trkpt><trkpt lat="43.43087617980494" lon="11.414331345210218"><ele>303.0</ele><time>2026-04-25T08:30:24Z</time></trkpt><trkpt lat="43.43103597265142" lon="11.414263645923988"><ele>303.0</ele><time>2026-04-25T08:30:25Z</time></trkpt><trkpt lat="43.431197676120966" lon="11.41419874606523"><ele>303.0</ele><time>2026-04-25T08:30:26Z</time></trkpt><trkpt lat="43.43134663366193" lon="11.414152866562231"><ele>303.0</ele><time>2026-04-25T08:30:27Z</time></trkpt><trkpt lat="43.43147788670413" lon="11.414099825196988"><ele>302.75</ele><time>2026-04-25T08:30:28Z</time></trkpt><trkpt lat="43.43158877734199" lon="11.41403026582027"><ele>302.5</ele><time>2026-04-25T08:30:29Z</time></trkpt><trkpt lat="43.43168005880493" lon="11.413914379574912"><ele>302.25</ele><time>2026-04-25T08:30:30Z</time></trkpt><trkpt lat="43.43175380397259" lon="11.413755471071456"><ele>302.0</ele><time>2026-04-25T08:30:31Z</time></trkpt><trkpt lat="43.43181261033933" lon="11.413586016462165"><ele>302.0</ele><time>2026-04-25T08:30:32Z</time></trkpt><trkpt lat="43.431858995531385" lon="11.413423600394106"><ele>302.0</ele><time>2026-04-25T08:30:33Z</time></trkpt><trkpt lat="43.43188797709597" lon="11.413263968491618"><ele>302.0</ele><time>2026-04-25T08:30:34Z</time></trkpt><trkpt lat="43.43189172378545" lon="11.41310936282247"><ele>302.0</ele><time>2026-04-25T08:30:35Z</time></trkpt><trkpt lat="43.43186540708248" lon="11.412964975556326"><ele>302.4</ele><time>2026-04-25T08:30:36Z</time></trkpt><trkpt lat="43.43181230955893" lon="11.412834347952744"><ele>302.79999999999995</ele><time>2026-04-25T08:30:37Z</time></trkpt><trkpt lat="43.43173804825775" lon="11.412727674359054"><ele>303.2</ele><time>2026-04-25T08:30:38Z</time></trkpt><trkpt lat="43.431644997270546" lon="11.412643146046673"><ele>303.59999999999997</ele><time>2026-04-25T08:30:39Z</time></trkpt><trkpt lat="43.43153577962199" lon="11.412579446733364"><ele>304.0</ele><time>2026-04-25T08:30:40Z</time></trkpt><trkpt lat="43.4314406288927" lon="11.412490622788871"><ele>304.0</ele><time>2026-04-25T08:30:41Z</time></trkpt><trkpt lat="43.43136359048456" lon="11.41236813030972"><ele>304.0</ele><time>2026-04-25T08:30:42Z</time></trkpt><trkpt lat="43.4312738202565" lon="11.412224408865013"><ele>304.0</ele><time>2026-04-25T08:30:43Z</time></trkpt><trkpt lat="43.4311676845808" lon="11.412085962724207"><ele>304.0</ele><time>2026-04-25T08:30:44Z</time></trkpt><trkpt lat="43.43106213107986" lon="11.4119394696504"><ele>304.75</ele><time>2026-04-25T08:30:45Z</time></trkpt><trkpt lat="43.430960277419324" lon="11.411806232400076"><ele>305.5</ele><time>2026-04-25T08:30:46Z</time></trkpt><trkpt lat="43.43089655763515" lon="11.411654440555878"><ele>306.25</ele><time>2026-04-25T08:30:47Z</time></trkpt><trkpt lat="43.4308678979697" lon="11.41149646609731"><ele>307.0</ele><time>2026-04-25T08:30:48Z</time></trkpt><trkpt lat="43.430826269220745" lon="11.411321710322172"><ele>307.0</ele><time>2026-04-25T08:30:49Z</time></trkpt><trkpt lat="43.43075847866136" lon="11.411137372708824"><ele>307.0</ele><time>2026-04-25T08:30:50Z</time></trkpt><trkpt lat="43.43068702113351" lon="11.410941779963755"><ele>307.0</ele><time>2026-04-25T08:30:51Z</time></trkpt><trkpt lat="43.43059550115478" lon="11.410749921753787"><ele>307.0</ele><time>2026-04-25T08:30:52Z</time></trkpt><trkpt lat="43.43049362149555" lon="11.410563947754804"><ele>307.0</ele><time>2026-04-25T08:30:53Z</time></trkpt><trkpt lat="43.430386905574586" lon="11.410403382815993"><ele>307.0</ele><time>2026-04-25T08:30:54Z</time></trkpt><trkpt lat="43.430273581487434" lon="11.410272097976792"><ele>304.66666666666663</ele><time>2026-04-25T08:30:55Z</time></trkpt><trkpt lat="43.43013772189603" lon="11.41016756823838"><ele>302.3333333333333</ele><time>2026-04-25T08:30:56Z</time></trkpt><trkpt lat="43.4299791930951" lon="11.410082292509996"><ele>300.0</ele><time>2026-04-25T08:30:57Z</time></trkpt><trkpt lat="43.42981401206822" lon="11.410004213259528"><ele>300.0</ele><time>2026-04-25T08:30:58Z</time></trkpt><trkpt lat="43.429665503744175" lon="11.409888147777446"><ele>300.0</ele><time>2026-04-25T08:30:59Z</time></trkpt><trkpt lat="43.429529422512424" lon="11.409768672758675"><ele>300.0</ele><time>2026-04-25T08:31:00Z</time></trkpt><trkpt lat="43.429408417514765" lon="11.409624931621849"><ele>299.3333333333333</ele><time>2026-04-25T08:31:01Z</time></trkpt><trkpt lat="43.429303677661466" lon="11.409459653125259"><ele>298.66666666666663</ele><time>2026-04-25T08:31:02Z</time></trkpt><trkpt lat="43.429206602958644" lon="11.40927944620648"><ele>298.0</ele><time>2026-04-25T08:31:02.999Z</time></trkpt><trkpt lat="43.42909804122084" lon="11.409106269110893"><ele>298.0</ele><time>2026-04-25T08:31:03.999Z</time></trkpt><trkpt lat="43.42901301742439" lon="11.408924296132371"><ele>298.0</ele><time>2026-04-25T08:31:04.999Z</time></trkpt><trkpt lat="43.428916622420466" lon="11.40875929818677"><ele>298.0</ele><time>2026-04-25T08:31:05.999Z</time></trkpt><trkpt lat="43.42883313880444" lon="11.408612475827786"><ele>298.0</ele><time>2026-04-25T08:31:06.999Z</time></trkpt><trkpt lat="43.428746093337416" lon="11.408483551930606"><ele>297.75</ele><time>2026-04-25T08:31:07.999Z</time></trkpt><trkpt lat="43.42863819679509" lon="11.408393244029977"><ele>297.5</ele><time>2026-04-25T08:31:08.999Z</time></trkpt><trkpt lat="43.42850464759136" lon="11.408354383641052"><ele>297.25</ele><time>2026-04-25T08:31:09.999Z</time></trkpt><trkpt lat="43.42835961656377" lon="11.408355976725215"><ele>297.0</ele><time>2026-04-25T08:31:10.999Z</time></trkpt><trkpt lat="43.428211335299764" lon="11.40837045502353"><ele>297.0</ele><time>2026-04-25T08:31:11.999Z</time></trkpt><trkpt lat="43.42806478864919" lon="11.408377810909904"><ele>297.0</ele><time>2026-04-25T08:31:12.999Z</time></trkpt><trkpt lat="43.42792390553302" lon="11.408358577434969"><ele>297.0</ele><time>2026-04-25T08:31:13.999Z</time></trkpt><trkpt lat="43.42778974372936" lon="11.40829975109009"><ele>297.0</ele><time>2026-04-25T08:31:14.999Z</time></trkpt><trkpt lat="43.427660057391165" lon="11.408220042364919"><ele>297.3333333333333</ele><time>2026-04-25T08:31:15.999Z</time></trkpt><trkpt lat="43.42753790825668" lon="11.408110582688677"><ele>297.66666666666663</ele><time>2026-04-25T08:31:16.999Z</time></trkpt><trkpt lat="43.42742588331309" lon="11.407966519852906"><ele>298.0</ele><time>2026-04-25T08:31:17.999Z</time></trkpt><trkpt lat="43.42731518795155" lon="11.407806735508073"><ele>298.0</ele><time>2026-04-25T08:31:18.999Z</time></trkpt><trkpt lat="43.42719269313179" lon="11.407652292580604"><ele>298.0</ele><time>2026-04-25T08:31:19.999Z</time></trkpt><trkpt lat="43.42705581478362" lon="11.407520988814648"><ele>298.0</ele><time>2026-04-25T08:31:20.999Z</time></trkpt><trkpt lat="43.42691904702032" lon="11.407418155749173"><ele>295.25</ele><time>2026-04-25T08:31:21.999Z</time></trkpt><trkpt lat="43.426796193722495" lon="11.407320895913912"><ele>292.5</ele><time>2026-04-25T08:31:22.999Z</time></trkpt><trkpt lat="43.426702416432605" lon="11.407209697777693"><ele>289.75</ele><time>2026-04-25T08:31:23.999Z</time></trkpt><trkpt lat="43.42665491088853" lon="11.407085879310385"><ele>287.0</ele><time>2026-04-25T08:31:24.999Z</time></trkpt><trkpt lat="43.42668772761791" lon="11.406951740510012"><ele>287.0</ele><time>2026-04-25T08:31:25.999Z</time></trkpt><trkpt lat="43.42668749038189" lon="11.406796506921127"><ele>287.0</ele><time>2026-04-25T08:31:26.999Z</time></trkpt><trkpt lat="43.42672429866071" lon="11.406613325806898"><ele>287.0</ele><time>2026-04-25T08:31:27.999Z</time></trkpt><trkpt lat="43.42674687926023" lon="11.406404257267525"><ele>287.0</ele><time>2026-04-25T08:31:28.999Z</time></trkpt><trkpt lat="43.42676097729211" lon="11.406178248607803"><ele>287.6666666666667</ele><time>2026-04-25T08:31:29.999Z</time></trkpt><trkpt lat="43.426767993196876" lon="11.40595258488883"><ele>288.3333333333333</ele><time>2026-04-25T08:31:30.999Z</time></trkpt><trkpt lat="43.42676399058541" lon="11.405738324052777"><ele>289.0</ele><time>2026-04-25T08:31:31.999Z</time></trkpt><trkpt lat="43.426731430929046" lon="11.405543777836135"><ele>292.3333333333333</ele><time>2026-04-25T08:31:32.999Z</time></trkpt><trkpt lat="43.426661544372635" lon="11.405348083317994"><ele>295.6666666666667</ele><time>2026-04-25T08:31:33.999Z</time></trkpt><trkpt lat="43.42656128886297" lon="11.405159092403455"><ele>299.0</ele><time>2026-04-25T08:31:34.999Z</time></trkpt><trkpt lat="43.426463307118986" lon="11.404985820687836"><ele>299.0</ele><time>2026-04-25T08:31:35.999Z</time></trkpt><trkpt lat="43.42637730392498" lon="11.404840931574226"><ele>299.0</ele><time>2026-04-25T08:31:36.999Z</time></trkpt><trkpt lat="43.426267955475595" lon="11.404723227609695"><ele>299.0</ele><time>2026-04-25T08:31:37.999Z</time></trkpt><trkpt lat="43.42612630904672" lon="11.404646729208375"><ele>299.0</ele><time>2026-04-25T08:31:38.999Z</time></trkpt><trkpt lat="43.42596050658105" lon="11.404600171243983"><ele>298.33333333333337</ele><time>2026-04-25T08:31:39.999Z</time></trkpt><trkpt lat="43.42580057994012" lon="11.40451928974368"><ele>297.6666666666667</ele><time>2026-04-25T08:31:40.999Z</time></trkpt><trkpt lat="43.42563920487606" lon="11.404444691909438"><ele>297.0</ele><time>2026-04-25T08:31:41.999Z</time></trkpt><trkpt lat="43.42548639931958" lon="11.404391913478118"><ele>294.25</ele><time>2026-04-25T08:31:42.999Z</time></trkpt><trkpt lat="43.42535555173103" lon="11.40431246320519"><ele>291.5</ele><time>2026-04-25T08:31:43.999Z</time></trkpt><trkpt lat="43.42524705261443" lon="11.404196966011492"><ele>288.75</ele><time>2026-04-25T08:31:44.999Z</time></trkpt><trkpt lat="43.425131239460136" lon="11.404128078316624"><ele>286.0</ele><time>2026-04-25T08:31:45.999Z</time></trkpt><trkpt lat="43.425011491550706" lon="11.404073868344415"><ele>286.0</ele><time>2026-04-25T08:31:46.999Z</time></trkpt><trkpt lat="43.42487261184939" lon="11.404060463619873"><ele>286.0</ele><time>2026-04-25T08:31:47.999Z</time></trkpt><trkpt lat="43.42472131547495" lon="11.404083369915739"><ele>286.0</ele><time>2026-04-25T08:31:48.999Z</time></trkpt><trkpt lat="43.42457063162012" lon="11.404122149982404"><ele>286.0</ele><time>2026-04-25T08:31:49.999Z</time></trkpt><trkpt lat="43.424419739959184" lon="11.404125292121575"><ele>285.5</ele><time>2026-04-25T08:31:50.999Z</time></trkpt><trkpt lat="43.42427745403722" lon="11.404139184997483"><ele>285.0</ele><time>2026-04-25T08:31:51.999Z</time></trkpt><trkpt lat="43.42414302048976" lon="11.404139304773501"><ele>284.5</ele><time>2026-04-25T08:31:52.999Z</time></trkpt><trkpt lat="43.424018398459594" lon="11.404116248787325"><ele>284.0</ele><time>2026-04-25T08:31:53.999Z</time></trkpt><trkpt lat="43.42390066231161" lon="11.404102584780691"><ele>285.5</ele><time>2026-04-25T08:31:55Z</time></trkpt><trkpt lat="43.42379222859624" lon="11.404082557508866"><ele>287.0</ele><time>2026-04-25T08:31:56Z</time></trkpt><trkpt lat="43.42367506850216" lon="11.404106805208961"><ele>288.5</ele><time>2026-04-25T08:31:57Z</time></trkpt><trkpt lat="43.423553414339786" lon="11.404173242991225"><ele>290.0</ele><time>2026-04-25T08:31:58Z</time></trkpt><trkpt lat="43.42343064734176" lon="11.404248346452478"><ele>290.0</ele><time>2026-04-25T08:31:59Z</time></trkpt><trkpt lat="43.4233173888986" lon="11.404323884495563"><ele>290.0</ele><time>2026-04-25T08:32:00Z</time></trkpt><trkpt lat="43.42321104236885" lon="11.404431152122022"><ele>290.0</ele><time>2026-04-25T08:32:01Z</time></trkpt><trkpt lat="43.42312350364102" lon="11.404568345210567"><ele>290.0</ele><time>2026-04-25T08:32:02Z</time></trkpt><trkpt lat="43.42304817272742" lon="11.404707534991125"><ele>289.2</ele><time>2026-04-25T08:32:03Z</time></trkpt><trkpt lat="43.422988711728166" lon="11.404831850435215"><ele>288.4</ele><time>2026-04-25T08:32:04Z</time></trkpt><trkpt lat="43.42293936636804" lon="11.404941051226752"><ele>287.6</ele><time>2026-04-25T08:32:05Z</time></trkpt><trkpt lat="43.42286687711233" lon="11.405020778466165"><ele>286.8</ele><time>2026-04-25T08:32:06Z</time></trkpt><trkpt lat="43.422773793858966" lon="11.405062267492315"><ele>286.0</ele><time>2026-04-25T08:32:07Z</time></trkpt><trkpt lat="43.422667935478515" lon="11.405020797110138"><ele>286.0</ele><time>2026-04-25T08:32:08Z</time></trkpt><trkpt lat="43.422552254727556" lon="11.404986257851991"><ele>286.0</ele><time>2026-04-25T08:32:09Z</time></trkpt><trkpt lat="43.422419967473296" lon="11.404953587259506"><ele>286.0</ele><time>2026-04-25T08:32:10Z</time></trkpt><trkpt lat="43.422284813845536" lon="11.404883318311725"><ele>286.0</ele><time>2026-04-25T08:32:11Z</time></trkpt><trkpt lat="43.422147489084914" lon="11.404782103351776"><ele>286.66666666666663</ele><time>2026-04-25T08:32:12Z</time></trkpt><trkpt lat="43.42202394605303" lon="11.404633073910299"><ele>287.3333333333333</ele><time>2026-04-25T08:32:13Z</time></trkpt><trkpt lat="43.421914286596326" lon="11.40445567318899"><ele>288.0</ele><time>2026-04-25T08:32:14Z</time></trkpt><trkpt lat="43.421812559860456" lon="11.40425411354847"><ele>288.0</ele><time>2026-04-25T08:32:15Z</time></trkpt><trkpt lat="43.42167712912191" lon="11.404083064149757"><ele>288.0</ele><time>2026-04-25T08:32:16Z</time></trkpt><trkpt lat="43.42154175485962" lon="11.403903577048952"><ele>288.0</ele><time>2026-04-25T08:32:17Z</time></trkpt><trkpt lat="43.42139523642788" lon="11.403739574489006"><ele>287.3333333333333</ele><time>2026-04-25T08:32:18Z</time></trkpt><trkpt lat="43.42125112274536" lon="11.403582175273657"><ele>286.66666666666663</ele><time>2026-04-25T08:32:19Z</time></trkpt><trkpt lat="43.42111053720005" lon="11.403422544925476"><ele>286.0</ele><time>2026-04-25T08:32:20Z</time></trkpt><trkpt lat="43.42097238330359" lon="11.403263383318487"><ele>286.0</ele><time>2026-04-25T08:32:21Z</time></trkpt><trkpt lat="43.420832118465306" lon="11.403107949558322"><ele>286.0</ele><time>2026-04-25T08:32:22Z</time></trkpt><trkpt lat="43.420689173229015" lon="11.402960623524503"><ele>286.0</ele><time>2026-04-25T08:32:23Z</time></trkpt><trkpt lat="43.420531719306844" lon="11.402835064672288"><ele>285.0</ele><time>2026-04-25T08:32:24Z</time></trkpt><trkpt lat="43.420363335179296" lon="11.40273937229444"><ele>284.0</ele><time>2026-04-25T08:32:25Z</time></trkpt><trkpt lat="43.4201961516667" lon="11.402655520831406"><ele>283.0</ele><time>2026-04-25T08:32:26Z</time></trkpt><trkpt lat="43.420044115564075" lon="11.402549463703572"><ele>283.0</ele><time>2026-04-25T08:32:27Z</time></trkpt><trkpt lat="43.41990722740371" lon="11.402424706529589"><ele>283.0</ele><time>2026-04-25T08:32:28Z</time></trkpt><trkpt lat="43.419788058325366" lon="11.402286918900298"><ele>283.0</ele><time>2026-04-25T08:32:29Z</time></trkpt><trkpt lat="43.419689228562426" lon="11.402128846596689"><ele>280.66666666666663</ele><time>2026-04-25T08:32:30Z</time></trkpt><trkpt lat="43.41961029600676" lon="11.401941368816512"><ele>278.3333333333333</ele><time>2026-04-25T08:32:31Z</time></trkpt><trkpt lat="43.41953388118855" lon="11.401749042163608"><ele>276.0</ele><time>2026-04-25T08:32:32Z</time></trkpt><trkpt lat="43.4194655406026" lon="11.401546350067324"><ele>276.0</ele><time>2026-04-25T08:32:33Z</time></trkpt><trkpt lat="43.419393407234296" lon="11.401337531742808"><ele>276.0</ele><time>2026-04-25T08:32:34Z</time></trkpt><trkpt lat="43.41931835036353" lon="11.401125537043841"><ele>276.0</ele><time>2026-04-25T08:32:35Z</time></trkpt><trkpt lat="43.419235886572" lon="11.400918255793313"><ele>276.0</ele><time>2026-04-25T08:32:36Z</time></trkpt><trkpt lat="43.41913866197368" lon="11.400723343131194"><ele>276.0</ele><time>2026-04-25T08:32:37Z</time></trkpt><trkpt lat="43.41903094061955" lon="11.400542075205632"><ele>276.0</ele><time>2026-04-25T08:32:38Z</time></trkpt><trkpt lat="43.41891883389595" lon="11.400373818154055"><ele>275.3333333333333</ele><time>2026-04-25T08:32:39Z</time></trkpt><trkpt lat="43.41879931535867" lon="11.400222396966084"><ele>274.66666666666663</ele><time>2026-04-25T08:32:40Z</time></trkpt><trkpt lat="43.418691680768035" lon="11.400058528675189"><ele>274.0</ele><time>2026-04-25T08:32:41Z</time></trkpt><trkpt lat="43.418573748589374" lon="11.399910597660517"><ele>274.0</ele><time>2026-04-25T08:32:42Z</time></trkpt><trkpt lat="43.41846334907291" lon="11.399771494489334"><ele>274.0</ele><time>2026-04-25T08:32:43Z</time></trkpt><trkpt lat="43.41835615553241" lon="11.39964354931278"><ele>274.0</ele><time>2026-04-25T08:32:44Z</time></trkpt><trkpt lat="43.41825543506871" lon="11.399512003241998"><ele>274.0</ele><time>2026-04-25T08:32:45Z</time></trkpt><trkpt lat="43.418153278642116" lon="11.399388028538453"><ele>274.0</ele><time>2026-04-25T08:32:46Z</time></trkpt><trkpt lat="43.41806989747954" lon="11.399240485365093"><ele>274.0</ele><time>2026-04-25T08:32:47Z</time></trkpt><trkpt lat="43.41798902922688" lon="11.399101161213757"><ele>274.0</ele><time>2026-04-25T08:32:48Z</time></trkpt><trkpt lat="43.41790369778876" lon="11.398975157008918"><ele>274.0</ele><time>2026-04-25T08:32:49Z</time></trkpt><trkpt lat="43.417827873040444" lon="11.398839149488547"><ele>279.25</ele><time>2026-04-25T08:32:50Z</time></trkpt><trkpt lat="43.41774079350444" lon="11.398708101555684"><ele>284.5</ele><time>2026-04-25T08:32:51Z</time></trkpt><trkpt lat="43.41762929298014" lon="11.398601222521057"><ele>289.75</ele><time>2026-04-25T08:32:52Z</time></trkpt><trkpt lat="43.41749850145943" lon="11.39851722483553"><ele>295.0</ele><time>2026-04-25T08:32:53Z</time></trkpt><trkpt lat="43.41735655728145" lon="11.398445174451044"><ele>295.0</ele><time>2026-04-25T08:32:54Z</time></trkpt><trkpt lat="43.417219506482226" lon="11.398375880016498"><ele>295.0</ele><time>2026-04-25T08:32:55Z</time></trkpt><trkpt lat="43.41707859866479" lon="11.398325028157714"><ele>295.0</ele><time>2026-04-25T08:32:56Z</time></trkpt><trkpt lat="43.416932310003176" lon="11.398317180396353"><ele>295.0</ele><time>2026-04-25T08:32:57Z</time></trkpt><trkpt lat="43.41679038186909" lon="11.398336812766047"><ele>295.0</ele><time>2026-04-25T08:32:58Z</time></trkpt><trkpt lat="43.41663500907615" lon="11.398396344980604"><ele>295.0</ele><time>2026-04-25T08:32:59Z</time></trkpt><trkpt lat="43.41648053046102" lon="11.398473052497518"><ele>295.0</ele><time>2026-04-25T08:33:00Z</time></trkpt><trkpt lat="43.41631168485383" lon="11.398550336411223"><ele>295.0</ele><time>2026-04-25T08:33:01Z</time></trkpt><trkpt lat="43.416141573787364" lon="11.39861851047699"><ele>295.0</ele><time>2026-04-25T08:33:02Z</time></trkpt><trkpt lat="43.415966739762986" lon="11.398695464917568"><ele>295.0</ele><time>2026-04-25T08:33:03Z</time></trkpt><trkpt lat="43.415801286599844" lon="11.398780518694878"><ele>289.75</ele><time>2026-04-25T08:33:04Z</time></trkpt><trkpt lat="43.41566177490991" lon="11.398857909989873"><ele>284.5</ele><time>2026-04-25T08:33:05Z</time></trkpt><trkpt lat="43.415525496312256" lon="11.398925698168469"><ele>279.25</ele><time>2026-04-25T08:33:06Z</time></trkpt><trkpt lat="43.41539269571501" lon="11.398984959460648"><ele>274.0</ele><time>2026-04-25T08:33:07Z</time></trkpt><trkpt lat="43.415269026031616" lon="11.399046045180603"><ele>274.0</ele><time>2026-04-25T08:33:08Z</time></trkpt><trkpt lat="43.41515378233657" lon="11.399099859584565"><ele>274.0</ele><time>2026-04-25T08:33:08.999Z</time></trkpt><trkpt lat="43.41503967437221" lon="11.399143274009948"><ele>274.0</ele><time>2026-04-25T08:33:09.999Z</time></trkpt><trkpt lat="43.41492075260225" lon="11.399167861561773"><ele>274.0</ele><time>2026-04-25T08:33:10.999Z</time></trkpt><trkpt lat="43.414790331705845" lon="11.39917256619741"><ele>272.66666666666663</ele><time>2026-04-25T08:33:11.999Z</time></trkpt><trkpt lat="43.41464908648095" lon="11.399161920233535"><ele>271.3333333333333</ele><time>2026-04-25T08:33:12.999Z</time></trkpt><trkpt lat="43.41449668864005" lon="11.399143540615787"><ele>270.0</ele><time>2026-04-25T08:33:13.999Z</time></trkpt><trkpt lat="43.41434088581883" lon="11.399127872696774"><ele>270.0</ele><time>2026-04-25T08:33:14.999Z</time></trkpt><trkpt lat="43.4141765645522" lon="11.39910732238561"><ele>270.0</ele><time>2026-04-25T08:33:15.999Z</time></trkpt><trkpt lat="43.4140118739612" lon="11.399085714382474"><ele>270.0</ele><time>2026-04-25T08:33:16.999Z</time></trkpt><trkpt lat="43.41384867232518" lon="11.399068964070537"><ele>269.3333333333333</ele><time>2026-04-25T08:33:17.999Z</time></trkpt><trkpt lat="43.41368849771285" lon="11.399052164070234"><ele>268.66666666666663</ele><time>2026-04-25T08:33:18.999Z</time></trkpt><trkpt lat="43.41353510387153" lon="11.399032652279587"><ele>268.0</ele><time>2026-04-25T08:33:19.999Z</time></trkpt><trkpt lat="43.41338137711791" lon="11.399012755972947"><ele>268.0</ele><time>2026-04-25T08:33:20.999Z</time></trkpt><trkpt lat="43.41322176371376" lon="11.398991030561929"><ele>268.0</ele><time>2026-04-25T08:33:21.999Z</time></trkpt><trkpt lat="43.41305726589048" lon="11.39896777878801"><ele>268.0</ele><time>2026-04-25T08:33:22.999Z</time></trkpt><trkpt lat="43.412895296378814" lon="11.398947198587859"><ele>267.66666666666663</ele><time>2026-04-25T08:33:23.999Z</time></trkpt><trkpt lat="43.41273958422675" lon="11.398928148104702"><ele>267.3333333333333</ele><time>2026-04-25T08:33:24.999Z</time></trkpt><trkpt lat="43.41259167189355" lon="11.398912503301046"><ele>267.0</ele><time>2026-04-25T08:33:25.999Z</time></trkpt><trkpt lat="43.412445409354085" lon="11.39891840462268"><ele>267.0</ele><time>2026-04-25T08:33:26.999Z</time></trkpt><trkpt lat="43.412294769632695" lon="11.39895246425709"><ele>267.0</ele><time>2026-04-25T08:33:27.999Z</time></trkpt><trkpt lat="43.41214446521368" lon="11.399017789713676"><ele>267.0</ele><time>2026-04-25T08:33:28.999Z</time></trkpt><trkpt lat="43.41199684828435" lon="11.399109635790412"><ele>267.0</ele><time>2026-04-25T08:33:29.999Z</time></trkpt><trkpt lat="43.41186241683909" lon="11.399231226941161"><ele>267.0</ele><time>2026-04-25T08:33:30.999Z</time></trkpt><trkpt lat="43.411739511248825" lon="11.399364513747201"><ele>267.0</ele><time>2026-04-25T08:33:31.999Z</time></trkpt><trkpt lat="43.411624089237996" lon="11.399515388914736"><ele>266.6666666666667</ele><time>2026-04-25T08:33:32.999Z</time></trkpt><trkpt lat="43.411516820333844" lon="11.39967197730073"><ele>266.33333333333337</ele><time>2026-04-25T08:33:33.999Z</time></trkpt><trkpt lat="43.41140150607114" lon="11.399833755425158"><ele>266.0</ele><time>2026-04-25T08:33:34.999Z</time></trkpt><trkpt lat="43.41128303988685" lon="11.40000680588273"><ele>266.0</ele><time>2026-04-25T08:33:35.999Z</time></trkpt><trkpt lat="43.411159521899215" lon="11.400201497475082"><ele>266.0</ele><time>2026-04-25T08:33:36.999Z</time></trkpt><trkpt lat="43.411027144711504" lon="11.400412222186493"><ele>266.0</ele><time>2026-04-25T08:33:37.999Z</time></trkpt><trkpt lat="43.41088303658595" lon="11.400625224316821"><ele>264.6666666666667</ele><time>2026-04-25T08:33:38.999Z</time></trkpt><trkpt lat="43.41072697255694" lon="11.40083796574414"><ele>263.3333333333333</ele><time>2026-04-25T08:33:39.999Z</time></trkpt><trkpt lat="43.41057252270709" lon="11.401047208484547"><ele>262.0</ele><time>2026-04-25T08:33:40.999Z</time></trkpt><trkpt lat="43.410410123417364" lon="11.401258519360228"><ele>264.5</ele><time>2026-04-25T08:33:41.999Z</time></trkpt><trkpt lat="43.41025238080397" lon="11.401477071736482"><ele>267.0</ele><time>2026-04-25T08:33:42.999Z</time></trkpt><trkpt lat="43.41009448214779" lon="11.40169978423349"><ele>267.0</ele><time>2026-04-25T08:33:43.999Z</time></trkpt><trkpt lat="43.409936657708236" lon="11.401925418723783"><ele>267.0</ele><time>2026-04-25T08:33:44.999Z</time></trkpt><trkpt lat="43.40977498926414" lon="11.402149349029969"><ele>266.6666666666667</ele><time>2026-04-25T08:33:45.999Z</time></trkpt><trkpt lat="43.409615335174244" lon="11.402373799514132"><ele>266.33333333333337</ele><time>2026-04-25T08:33:46.999Z</time></trkpt><trkpt lat="43.40946411580753" lon="11.402590478234616"><ele>266.0</ele><time>2026-04-25T08:33:47.999Z</time></trkpt><trkpt lat="43.4093199704224" lon="11.402792432998357"><ele>266.0</ele><time>2026-04-25T08:33:48.999Z</time></trkpt><trkpt lat="43.40918430596528" lon="11.402986877735106"><ele>266.0</ele><time>2026-04-25T08:33:49.999Z</time></trkpt><trkpt lat="43.409059997736286" lon="11.403169681408862"><ele>266.0</ele><time>2026-04-25T08:33:50.999Z</time></trkpt><trkpt lat="43.40895084446542" lon="11.403336590678737"><ele>265.75</ele><time>2026-04-25T08:33:51.999Z</time></trkpt><trkpt lat="43.40885566319944" lon="11.403483259031825"><ele>265.5</ele><time>2026-04-25T08:33:52.999Z</time></trkpt><trkpt lat="43.40876404213895" lon="11.40361752931184"><ele>265.25</ele><time>2026-04-25T08:33:53.999Z</time></trkpt><trkpt lat="43.40866779109065" lon="11.403734035351677"><ele>265.0</ele><time>2026-04-25T08:33:54.999Z</time></trkpt><trkpt lat="43.4085658779462" lon="11.403817488629073"><ele>269.5</ele><time>2026-04-25T08:33:55.999Z</time></trkpt><trkpt lat="43.408451227191335" lon="11.403862337472393"><ele>274.0</ele><time>2026-04-25T08:33:56.999Z</time></trkpt><trkpt lat="43.4083127783858" lon="11.403866642862841"><ele>278.5</ele><time>2026-04-25T08:33:57.999Z</time></trkpt><trkpt lat="43.408167401458265" lon="11.403858633412534"><ele>283.0</ele><time>2026-04-25T08:33:58.999Z</time></trkpt><trkpt lat="43.40801062130006" lon="11.40387045358354"><ele>281.66666666666663</ele><time>2026-04-25T08:33:59.999Z</time></trkpt><trkpt lat="43.40784452883636" lon="11.40390981309139"><ele>280.3333333333333</ele><time>2026-04-25T08:34:00.999Z</time></trkpt><trkpt lat="43.40767850260122" lon="11.403973436812665"><ele>279.0</ele><time>2026-04-25T08:34:01.999Z</time></trkpt><trkpt lat="43.4075095177505" lon="11.404044860758756"><ele>279.0</ele><time>2026-04-25T08:34:02.999Z</time></trkpt><trkpt lat="43.40733288526523" lon="11.404117444416016"><ele>279.0</ele><time>2026-04-25T08:34:03.999Z</time></trkpt><trkpt lat="43.40715141821619" lon="11.404196128318988"><ele>279.0</ele><time>2026-04-25T08:34:04.999Z</time></trkpt><trkpt lat="43.406965913194" lon="11.404280688588655"><ele>275.3333333333333</ele><time>2026-04-25T08:34:05.999Z</time></trkpt><trkpt lat="43.40678275642618" lon="11.404380533456012"><ele>271.66666666666663</ele><time>2026-04-25T08:34:06.999Z</time></trkpt><trkpt lat="43.406601533634536" lon="11.404488927906456"><ele>268.0</ele><time>2026-04-25T08:34:07.999Z</time></trkpt><trkpt lat="43.406420300923344" lon="11.404593993769533"><ele>270.0</ele><time>2026-04-25T08:34:08.999Z</time></trkpt><trkpt lat="43.40623122564438" lon="11.404682471669837"><ele>272.0</ele><time>2026-04-25T08:34:09.999Z</time></trkpt><trkpt lat="43.40603182666817" lon="11.404754698918532"><ele>274.0</ele><time>2026-04-25T08:34:10.999Z</time></trkpt><trkpt lat="43.4058281704922" lon="11.40480878404485"><ele>274.0</ele><time>2026-04-25T08:34:11.999Z</time></trkpt><trkpt lat="43.405627872988916" lon="11.40484790599238"><ele>274.0</ele><time>2026-04-25T08:34:13Z</time></trkpt><trkpt lat="43.405429673217824" lon="11.4048696427407"><ele>274.0</ele><time>2026-04-25T08:34:14Z</time></trkpt><trkpt lat="43.405229960841574" lon="11.404875074803478"><ele>273.0</ele><time>2026-04-25T08:34:15Z</time></trkpt><trkpt lat="43.40503922089399" lon="11.404855776031727"><ele>272.0</ele><time>2026-04-25T08:34:16Z</time></trkpt><trkpt lat="43.4048738412944" lon="11.404832114292539"><ele>271.0</ele><time>2026-04-25T08:34:17Z</time></trkpt><trkpt lat="43.40473773741472" lon="11.40482950274631"><ele>269.3333333333333</ele><time>2026-04-25T08:34:18Z</time></trkpt><trkpt lat="43.40460399546075" lon="11.40487970462867"><ele>267.6666666666667</ele><time>2026-04-25T08:34:19Z</time></trkpt><trkpt lat="43.40445882378343" lon="11.404988105806689"><ele>266.0</ele><time>2026-04-25T08:34:20Z</time></trkpt><trkpt lat="43.404312358210916" lon="11.40512670670746"><ele>266.0</ele><time>2026-04-25T08:34:21Z</time></trkpt><trkpt lat="43.404164651299" lon="11.40525106652557"><ele>266.0</ele><time>2026-04-25T08:34:22Z</time></trkpt><trkpt lat="43.404009660834724" lon="11.405339323769768"><ele>266.0</ele><time>2026-04-25T08:34:23Z</time></trkpt><trkpt lat="43.40384321394808" lon="11.40540894062763"><ele>263.6666666666667</ele><time>2026-04-25T08:34:24Z</time></trkpt><trkpt lat="43.40367221350615" lon="11.405479846174593"><ele>261.3333333333333</ele><time>2026-04-25T08:34:25Z</time></trkpt><trkpt lat="43.40349833641101" lon="11.405543725357855"><ele>259.0</ele><time>2026-04-25T08:34:26Z</time></trkpt><trkpt lat="43.403315885255324" lon="11.405601619760493"><ele>260.66666666666663</ele><time>2026-04-25T08:34:27Z</time></trkpt><trkpt lat="43.403135903615095" lon="11.405666296505842"><ele>262.3333333333333</ele><time>2026-04-25T08:34:28Z</time></trkpt><trkpt lat="43.40296409864299" lon="11.405738724161935"><ele>264.0</ele><time>2026-04-25T08:34:29Z</time></trkpt><trkpt lat="43.40281039115005" lon="11.405819724136022"><ele>264.0</ele><time>2026-04-25T08:34:30Z</time></trkpt><trkpt lat="43.402674104879374" lon="11.405921735239389"><ele>264.0</ele><time>2026-04-25T08:34:31Z</time></trkpt><trkpt lat="43.402549099284975" lon="11.406035712200943"><ele>264.0</ele><time>2026-04-25T08:34:32Z</time></trkpt><trkpt lat="43.40242592224621" lon="11.406153926340183"><ele>264.0</ele><time>2026-04-25T08:34:33Z</time></trkpt><trkpt lat="43.40229874822399" lon="11.406238368155943"><ele>264.0</ele><time>2026-04-25T08:34:34Z</time></trkpt><trkpt lat="43.402161023101534" lon="11.40627564890491"><ele>264.0</ele><time>2026-04-25T08:34:35Z</time></trkpt><trkpt lat="43.40202363371879" lon="11.406254766374419"><ele>264.0</ele><time>2026-04-25T08:34:36Z</time></trkpt><trkpt lat="43.4018935580494" lon="11.406184761303649"><ele>263.0</ele><time>2026-04-25T08:34:37Z</time></trkpt><trkpt lat="43.4017543451584" lon="11.406080654772845"><ele>262.0</ele><time>2026-04-25T08:34:38Z</time></trkpt><trkpt lat="43.401608790528506" lon="11.40595686339225"><ele>261.0</ele><time>2026-04-25T08:34:39Z</time></trkpt><trkpt lat="43.401462760999394" lon="11.405833322031317"><ele>261.3333333333333</ele><time>2026-04-25T08:34:40Z</time></trkpt><trkpt lat="43.40131778282363" lon="11.40571966238732"><ele>261.66666666666663</ele><time>2026-04-25T08:34:41Z</time></trkpt><trkpt lat="43.40117056519791" lon="11.405602144726938"><ele>262.0</ele><time>2026-04-25T08:34:42Z</time></trkpt><trkpt lat="43.4010181044554" lon="11.405486810328918"><ele>262.0</ele><time>2026-04-25T08:34:43Z</time></trkpt><trkpt lat="43.400857933664305" lon="11.405372663992775"><ele>262.0</ele><time>2026-04-25T08:34:44Z</time></trkpt><trkpt lat="43.40069938509526" lon="11.405249783848467"><ele>262.0</ele><time>2026-04-25T08:34:45Z</time></trkpt><trkpt lat="43.4005403225" lon="11.40512694990576"><ele>267.0</ele><time>2026-04-25T08:34:46Z</time></trkpt><trkpt lat="43.40038468290306" lon="11.405012040726698"><ele>272.0</ele><time>2026-04-25T08:34:47Z</time></trkpt><trkpt lat="43.40024667345677" lon="11.404905593558315"><ele>277.0</ele><time>2026-04-25T08:34:48Z</time></trkpt><trkpt lat="43.40012533892644" lon="11.404785956092667"><ele>272.3333333333333</ele><time>2026-04-25T08:34:49Z</time></trkpt><trkpt lat="43.40001680384579" lon="11.404638384278758"><ele>267.6666666666667</ele><time>2026-04-25T08:34:50Z</time></trkpt><trkpt lat="43.39991303887926" lon="11.404462206587537"><ele>263.0</ele><time>2026-04-25T08:34:51Z</time></trkpt><trkpt lat="43.399813685599824" lon="11.404261878069347"><ele>263.0</ele><time>2026-04-25T08:34:52Z</time></trkpt><trkpt lat="43.399719184577094" lon="11.404057817817616"><ele>263.0</ele><time>2026-04-25T08:34:53Z</time></trkpt><trkpt lat="43.399626353552456" lon="11.403862094925339"><ele>263.0</ele><time>2026-04-25T08:34:54Z</time></trkpt><trkpt lat="43.39951708463984" lon="11.403693579955013"><ele>263.33333333333337</ele><time>2026-04-25T08:34:55Z</time></trkpt><trkpt lat="43.39938061944933" lon="11.403552592899553"><ele>263.6666666666667</ele><time>2026-04-25T08:34:56Z</time></trkpt><trkpt lat="43.39922148393378" lon="11.40342702134844"><ele>264.0</ele><time>2026-04-25T08:34:57Z</time></trkpt><trkpt lat="43.399048139028764" lon="11.403324677118196"><ele>264.0</ele><time>2026-04-25T08:34:58Z</time></trkpt><trkpt lat="43.398864744032565" lon="11.403243230047988"><ele>264.0</ele><time>2026-04-25T08:34:59Z</time></trkpt><trkpt lat="43.398684391098804" lon="11.40318351101074"><ele>264.0</ele><time>2026-04-25T08:35:00Z</time></trkpt><trkpt lat="43.39851973446227" lon="11.403126392113156"><ele>264.0</ele><time>2026-04-25T08:35:01Z</time></trkpt><trkpt lat="43.39836952792507" lon="11.40308711480898"><ele>264.0</ele><time>2026-04-25T08:35:02Z</time></trkpt><trkpt lat="43.3982277006675" lon="11.40309147294145"><ele>264.0</ele><time>2026-04-25T08:35:03Z</time></trkpt><trkpt lat="43.39808432495012" lon="11.403144895662347"><ele>264.0</ele><time>2026-04-25T08:35:04Z</time></trkpt><trkpt lat="43.3979440385079" lon="11.403253336685255"><ele>261.6666666666667</ele><time>2026-04-25T08:35:05Z</time></trkpt><trkpt lat="43.397815722414684" lon="11.403407121153617"><ele>259.33333333333337</ele><time>2026-04-25T08:35:06Z</time></trkpt><trkpt lat="43.39769410574216" lon="11.403584672665335"><ele>257.0</ele><time>2026-04-25T08:35:07Z</time></trkpt><trkpt lat="43.3975503993392" lon="11.403730916753336"><ele>257.0</ele><time>2026-04-25T08:35:08Z</time></trkpt><trkpt lat="43.39741376711879" lon="11.403889800960808"><ele>257.0</ele><time>2026-04-25T08:35:09Z</time></trkpt><trkpt lat="43.39728694788801" lon="11.404063464273547"><ele>257.0</ele><time>2026-04-25T08:35:10Z</time></trkpt><trkpt lat="43.39715582457013" lon="11.40423315956837"><ele>257.0</ele><time>2026-04-25T08:35:11Z</time></trkpt><trkpt lat="43.39702532826287" lon="11.404408164310224"><ele>257.0</ele><time>2026-04-25T08:35:12Z</time></trkpt><trkpt lat="43.396894005431044" lon="11.404593453008074"><ele>257.0</ele><time>2026-04-25T08:35:13Z</time></trkpt><trkpt lat="43.39675294023179" lon="11.404781418898672"><ele>254.66666666666669</ele><time>2026-04-25T08:35:14Z</time></trkpt><trkpt lat="43.39660243463267" lon="11.40496108241393"><ele>252.33333333333331</ele><time>2026-04-25T08:35:14.999Z</time></trkpt><trkpt lat="43.39644282984529" lon="11.40513581158885"><ele>250.0</ele><time>2026-04-25T08:35:15.999Z</time></trkpt><trkpt lat="43.396284890542056" lon="11.405309475407456"><ele>250.0</ele><time>2026-04-25T08:35:16.999Z</time></trkpt><trkpt lat="43.39612212987306" lon="11.405487227953492"><ele>250.0</ele><time>2026-04-25T08:35:17.999Z</time></trkpt><trkpt lat="43.39595862813659" lon="11.405673576673127"><ele>250.0</ele><time>2026-04-25T08:35:18.999Z</time></trkpt><trkpt lat="43.3957999265484" lon="11.40585612203918"><ele>250.0</ele><time>2026-04-25T08:35:19.999Z</time></trkpt><trkpt lat="43.39563871841198" lon="11.406034002832278"><ele>250.0</ele><time>2026-04-25T08:35:20.999Z</time></trkpt><trkpt lat="43.3954802280232" lon="11.406207033814352"><ele>250.0</ele><time>2026-04-25T08:35:21.999Z</time></trkpt><trkpt lat="43.39532830736674" lon="11.406393198023435"><ele>252.33333333333331</ele><time>2026-04-25T08:35:22.999Z</time></trkpt><trkpt lat="43.39518393394555" lon="11.406591060694444"><ele>254.66666666666669</ele><time>2026-04-25T08:35:23.999Z</time></trkpt><trkpt lat="43.39504336289946" lon="11.406796761151332"><ele>257.0</ele><time>2026-04-25T08:35:24.999Z</time></trkpt><trkpt lat="43.39490595556913" lon="11.407007483242763"><ele>258.0</ele><time>2026-04-25T08:35:25.999Z</time></trkpt><trkpt lat="43.39478115672289" lon="11.407229980121642"><ele>259.0</ele><time>2026-04-25T08:35:26.999Z</time></trkpt><trkpt lat="43.394672975026836" lon="11.407464702714043"><ele>260.0</ele><time>2026-04-25T08:35:27.999Z</time></trkpt><trkpt lat="43.39457411945543" lon="11.407700271570071"><ele>258.33333333333337</ele><time>2026-04-25T08:35:28.999Z</time></trkpt><trkpt lat="43.39447411197855" lon="11.407924592584756"><ele>256.6666666666667</ele><time>2026-04-25T08:35:29.999Z</time></trkpt><trkpt lat="43.39437388376024" lon="11.408143362260494"><ele>255.0</ele><time>2026-04-25T08:35:30.999Z</time></trkpt><trkpt lat="43.39427474419134" lon="11.408358412378577"><ele>255.0</ele><time>2026-04-25T08:35:31.999Z</time></trkpt><trkpt lat="43.39417998187036" lon="11.40857324164117"><ele>255.0</ele><time>2026-04-25T08:35:32.999Z</time></trkpt><trkpt lat="43.39408312611287" lon="11.40879059797873"><ele>255.0</ele><time>2026-04-25T08:35:33.999Z</time></trkpt><trkpt lat="43.393985993187" lon="11.409009210391329"><ele>253.66666666666669</ele><time>2026-04-25T08:35:34.999Z</time></trkpt><trkpt lat="43.39389964031452" lon="11.409239405868945"><ele>252.33333333333334</ele><time>2026-04-25T08:35:35.999Z</time></trkpt><trkpt lat="43.39382876686431" lon="11.409481817831217"><ele>251.0</ele><time>2026-04-25T08:35:36.999Z</time></trkpt><trkpt lat="43.393759462488084" lon="11.40972831371406"><ele>251.0</ele><time>2026-04-25T08:35:37.999Z</time></trkpt><trkpt lat="43.39369005348409" lon="11.409975790656896"><ele>251.0</ele><time>2026-04-25T08:35:38.999Z</time></trkpt><trkpt lat="43.39362646657092" lon="11.410224627368825"><ele>251.0</ele><time>2026-04-25T08:35:39.999Z</time></trkpt><trkpt lat="43.393563699208805" lon="11.41046684383632"><ele>252.33333333333334</ele><time>2026-04-25T08:35:40.999Z</time></trkpt><trkpt lat="43.39348206527912" lon="11.410698976125841"><ele>253.66666666666669</ele><time>2026-04-25T08:35:41.999Z</time></trkpt><trkpt lat="43.39337673238693" lon="11.410920337774497"><ele>255.0</ele><time>2026-04-25T08:35:42.999Z</time></trkpt><trkpt lat="43.39326515594244" lon="11.411136043104118"><ele>256.0</ele><time>2026-04-25T08:35:43.999Z</time></trkpt><trkpt lat="43.39315520563868" lon="11.411353944721492"><ele>257.0</ele><time>2026-04-25T08:35:44.999Z</time></trkpt><trkpt lat="43.39304608819453" lon="11.411574103617985"><ele>258.0</ele><time>2026-04-25T08:35:45.999Z</time></trkpt><trkpt lat="43.392940909677236" lon="11.411795344356698"><ele>256.3333333333333</ele><time>2026-04-25T08:35:46.999Z</time></trkpt><trkpt lat="43.39283935981664" lon="11.412011312192396"><ele>254.66666666666666</ele><time>2026-04-25T08:35:47.999Z</time></trkpt><trkpt lat="43.39274452769752" lon="11.412217111104189"><ele>253.0</ele><time>2026-04-25T08:35:48.999Z</time></trkpt><trkpt lat="43.39265767395853" lon="11.41241435915432"><ele>253.0</ele><time>2026-04-25T08:35:49.999Z</time></trkpt><trkpt lat="43.39257532999399" lon="11.412599968591783"><ele>253.0</ele><time>2026-04-25T08:35:50.999Z</time></trkpt><trkpt lat="43.39249610433554" lon="11.412779030232986"><ele>253.0</ele><time>2026-04-25T08:35:51.999Z</time></trkpt><trkpt lat="43.39242305296951" lon="11.412952283164588"><ele>253.5</ele><time>2026-04-25T08:35:52.999Z</time></trkpt><trkpt lat="43.39235068904946" lon="11.413110487719322"><ele>254.0</ele><time>2026-04-25T08:35:53.999Z</time></trkpt><trkpt lat="43.3922650586295" lon="11.41325626250259"><ele>254.5</ele><time>2026-04-25T08:35:54.999Z</time></trkpt><trkpt lat="43.39216136996601" lon="11.413393033323434"><ele>255.0</ele><time>2026-04-25T08:35:55.999Z</time></trkpt><trkpt lat="43.39204526997632" lon="11.41352762896101"><ele>255.33333333333331</ele><time>2026-04-25T08:35:57Z</time></trkpt><trkpt lat="43.39191586518706" lon="11.413655032729071"><ele>255.66666666666666</ele><time>2026-04-25T08:35:58Z</time></trkpt><trkpt lat="43.391778350169965" lon="11.413767222056798"><ele>256.0</ele><time>2026-04-25T08:35:59Z</time></trkpt><trkpt lat="43.39163516131161" lon="11.41387318145822"><ele>256.3333333333333</ele><time>2026-04-25T08:36:00Z</time></trkpt><trkpt lat="43.39148521889337" lon="11.413971771779684"><ele>256.6666666666667</ele><time>2026-04-25T08:36:01Z</time></trkpt><trkpt lat="43.39132977666406" lon="11.414053824175566"><ele>257.0</ele><time>2026-04-25T08:36:02Z</time></trkpt><trkpt lat="43.39117543369198" lon="11.414104712037133"><ele>257.0</ele><time>2026-04-25T08:36:03Z</time></trkpt><trkpt lat="43.39103081937409" lon="11.414134574138949"><ele>257.0</ele><time>2026-04-25T08:36:04Z</time></trkpt><trkpt lat="43.390897329613765" lon="11.414151281250406"><ele>257.0</ele><time>2026-04-25T08:36:05Z</time></trkpt><trkpt lat="43.390789623588184" lon="11.414160718223854"><ele>257.0</ele><time>2026-04-25T08:36:06Z</time></trkpt><trkpt lat="43.390722483442154" lon="11.41416386053607"><ele>257.0</ele><time>2026-04-25T08:36:07Z</time></trkpt><trkpt lat="43.390720347173655" lon="11.414318732097234"><ele>257.0</ele><time>2026-04-25T08:36:12Z</time></trkpt><trkpt lat="43.39084439250766" lon="11.41433563696448"><ele>257.0</ele><time>2026-04-25T08:36:14Z</time></trkpt><trkpt lat="43.3909241898049" lon="11.41435958036413"><ele>257.0</ele><time>2026-04-25T08:36:15Z</time></trkpt><trkpt lat="43.391003068090725" lon="11.414388186959"><ele>257.0</ele><time>2026-04-25T08:36:16Z</time></trkpt><trkpt lat="43.39109544314085" lon="11.414425160094197"><ele>257.0</ele><time>2026-04-25T08:36:17Z</time></trkpt><trkpt lat="43.39119499766989" lon="11.414467848920264"><ele>257.0</ele><time>2026-04-25T08:36:18Z</time></trkpt><trkpt lat="43.391305086359935" lon="11.414517841241759"><ele>257.0</ele><time>2026-04-25T08:36:19Z</time></trkpt><trkpt lat="43.3914210009643" lon="11.414569787427917"><ele>257.0</ele><time>2026-04-25T08:36:20Z</time></trkpt><trkpt lat="43.39152942288739" lon="11.414624791220595"><ele>260.8</ele><time>2026-04-25T08:36:21Z</time></trkpt><trkpt lat="43.391629679315116" lon="11.414686777436739"><ele>264.6</ele><time>2026-04-25T08:36:22Z</time></trkpt><trkpt lat="43.39171936826032" lon="11.41474595148469"><ele>268.40000000000003</ele><time>2026-04-25T08:36:23Z</time></trkpt><trkpt lat="43.39180199323629" lon="11.414792144439895"><ele>272.2</ele><time>2026-04-25T08:36:24Z</time></trkpt><trkpt lat="43.391878497406594" lon="11.414818074995114"><ele>276.0</ele><time>2026-04-25T08:36:25Z</time></trkpt><trkpt lat="43.39196199734122" lon="11.414826578363039"><ele>276.0</ele><time>2026-04-25T08:36:26Z</time></trkpt><trkpt lat="43.39205218014406" lon="11.41482463765572"><ele>276.0</ele><time>2026-04-25T08:36:27Z</time></trkpt><trkpt lat="43.392151160560104" lon="11.414823656115926"><ele>276.0</ele><time>2026-04-25T08:36:28Z</time></trkpt><trkpt lat="43.39225828948817" lon="11.414836123156059"><ele>276.0</ele><time>2026-04-25T08:36:29Z</time></trkpt><trkpt lat="43.392351213671176" lon="11.41487594994772"><ele>276.0</ele><time>2026-04-25T08:36:30Z</time></trkpt><trkpt lat="43.39243313319089" lon="11.41495589978964"><ele>275.5</ele><time>2026-04-25T08:36:31Z</time></trkpt><trkpt lat="43.39251238062658" lon="11.41506679717118"><ele>275.0</ele><time>2026-04-25T08:36:32Z</time></trkpt><trkpt lat="43.39258060816053" lon="11.415204764066116"><ele>274.5</ele><time>2026-04-25T08:36:33Z</time></trkpt><trkpt lat="43.392642074483305" lon="11.415368595487752"><ele>274.0</ele><time>2026-04-25T08:36:34Z</time></trkpt><trkpt lat="43.392706803046316" lon="11.415532563104874"><ele>281.0</ele><time>2026-04-25T08:36:35Z</time></trkpt><trkpt lat="43.39278116481653" lon="11.415711028715894"><ele>288.0</ele><time>2026-04-25T08:36:36Z</time></trkpt><trkpt lat="43.39286446811483" lon="11.415892246127282"><ele>295.0</ele><time>2026-04-25T08:36:37Z</time></trkpt><trkpt lat="43.39295907850393" lon="11.416072417138201"><ele>296.0</ele><time>2026-04-25T08:36:38Z</time></trkpt><trkpt lat="43.39306145515118" lon="11.41625962859899"><ele>297.0</ele><time>2026-04-25T08:36:39Z</time></trkpt><trkpt lat="43.39316782579212" lon="11.416428425449357"><ele>298.0</ele><time>2026-04-25T08:36:40Z</time></trkpt><trkpt lat="43.39329695597947" lon="11.416571058451485"><ele>298.0</ele><time>2026-04-25T08:36:41Z</time></trkpt><trkpt lat="43.39344557657844" lon="11.416706696349689"><ele>298.0</ele><time>2026-04-25T08:36:42Z</time></trkpt><trkpt lat="43.39359246331384" lon="11.416836198294368"><ele>298.0</ele><time>2026-04-25T08:36:43Z</time></trkpt><trkpt lat="43.393737883510866" lon="11.416980275153788"><ele>299.3333333333333</ele><time>2026-04-25T08:36:44Z</time></trkpt><trkpt lat="43.39388345459181" lon="11.41712350855856"><ele>300.6666666666667</ele><time>2026-04-25T08:36:45Z</time></trkpt><trkpt lat="43.394031076974976" lon="11.417269164237858"><ele>302.0</ele><time>2026-04-25T08:36:46Z</time></trkpt><trkpt lat="43.39417663107073" lon="11.417413689652285"><ele>302.0</ele><time>2026-04-25T08:36:47Z</time></trkpt><trkpt lat="43.39430762961691" lon="11.41755385847659"><ele>302.0</ele><time>2026-04-25T08:36:48Z</time></trkpt><trkpt lat="43.394429091882614" lon="11.417702907937693"><ele>302.0</ele><time>2026-04-25T08:36:49Z</time></trkpt><trkpt lat="43.39451860251837" lon="11.417889365702187"><ele>302.0</ele><time>2026-04-25T08:36:50Z</time></trkpt><trkpt lat="43.39460437218108" lon="11.418078665610933"><ele>302.0</ele><time>2026-04-25T08:36:51Z</time></trkpt><trkpt lat="43.394686097256304" lon="11.418282607545397"><ele>302.0</ele><time>2026-04-25T08:36:52Z</time></trkpt><trkpt lat="43.39488988430437" lon="11.418589645307703"><ele>302.0</ele><time>2026-04-25T08:36:54Z</time></trkpt><trkpt lat="43.39502369261735" lon="11.418707953005066"><ele>302.0</ele><time>2026-04-25T08:36:55Z</time></trkpt><trkpt lat="43.395175168815356" lon="11.418817515300729"><ele>302.0</ele><time>2026-04-25T08:36:56Z</time></trkpt><trkpt lat="43.395325617189876" lon="11.418922278560089"><ele>304.6666666666667</ele><time>2026-04-25T08:36:57Z</time></trkpt><trkpt lat="43.39547076630915" lon="11.419024253432529"><ele>307.3333333333333</ele><time>2026-04-25T08:36:58Z</time></trkpt><trkpt lat="43.395605305879904" lon="11.419116793862445"><ele>310.0</ele><time>2026-04-25T08:36:59Z</time></trkpt><trkpt lat="43.39573123496724" lon="11.419205750390402"><ele>310.0</ele><time>2026-04-25T08:37:00Z</time></trkpt><trkpt lat="43.39585159319457" lon="11.41931491888613"><ele>310.0</ele><time>2026-04-25T08:37:01Z</time></trkpt><trkpt lat="43.39596958917489" lon="11.419431191141644"><ele>310.0</ele><time>2026-04-25T08:37:02Z</time></trkpt><trkpt lat="43.3960944739033" lon="11.419548477530583"><ele>310.0</ele><time>2026-04-25T08:37:03Z</time></trkpt><trkpt lat="43.39622783594497" lon="11.419657376825498"><ele>313.25</ele><time>2026-04-25T08:37:04Z</time></trkpt><trkpt lat="43.39636060571654" lon="11.419750857730238"><ele>316.5</ele><time>2026-04-25T08:37:05Z</time></trkpt><trkpt lat="43.396480406365946" lon="11.419837154444158"><ele>319.75</ele><time>2026-04-25T08:37:06Z</time></trkpt><trkpt lat="43.396583858746524" lon="11.419911439000247"><ele>323.0</ele><time>2026-04-25T08:37:07Z</time></trkpt><trkpt lat="43.396668314052924" lon="11.419968983536455"><ele>323.0</ele><time>2026-04-25T08:37:08Z</time></trkpt><trkpt lat="43.39673576023649" lon="11.42001054333216"><ele>323.0</ele><time>2026-04-25T08:37:09Z</time></trkpt><trkpt lat="43.39679793953506" lon="11.420062540169091"><ele>323.0</ele><time>2026-04-25T08:37:11Z</time></trkpt><trkpt lat="43.3967605630529" lon="11.420166593457992"><ele>323.0</ele><time>2026-04-25T08:37:14Z</time></trkpt><trkpt lat="43.39664070095427" lon="11.420098035055162"><ele>323.0</ele><time>2026-04-25T08:37:16Z</time></trkpt><trkpt lat="43.396555750196605" lon="11.42005634658344"><ele>323.0</ele><time>2026-04-25T08:37:17Z</time></trkpt><trkpt lat="43.396466190522865" lon="11.419989019324092"><ele>323.0</ele><time>2026-04-25T08:37:18Z</time></trkpt><trkpt lat="43.39635884680089" lon="11.419916068959775"><ele>323.0</ele><time>2026-04-25T08:37:19Z</time></trkpt><trkpt lat="43.396253986255104" lon="11.419823697929251"><ele>323.0</ele><time>2026-04-25T08:37:20Z</time></trkpt><trkpt lat="43.39613988358126" lon="11.419750647671457"><ele>322.79999999999995</ele><time>2026-04-25T08:37:21Z</time></trkpt><trkpt lat="43.3960307911798" lon="11.419674285308558"><ele>322.6</ele><time>2026-04-25T08:37:22Z</time></trkpt><trkpt lat="43.3959354324466" lon="11.419593449823882"><ele>322.4</ele><time>2026-04-25T08:37:23Z</time></trkpt><trkpt lat="43.395849373508405" lon="11.419515524258356"><ele>322.20000000000005</ele><time>2026-04-25T08:37:24Z</time></trkpt><trkpt lat="43.39576725508456" lon="11.419456595583199"><ele>322.0</ele><time>2026-04-25T08:37:25Z</time></trkpt><trkpt lat="43.395704152111335" lon="11.41939869887987"><ele>320.8</ele><time>2026-04-25T08:37:26Z</time></trkpt><trkpt lat="43.39561003847122" lon="11.419325591978184"><ele>319.6</ele><time>2026-04-25T08:37:28Z</time></trkpt><trkpt lat="43.39553963149707" lon="11.419293906416321"><ele>318.40000000000003</ele><time>2026-04-25T08:37:40Z</time></trkpt><trkpt lat="43.39543680073463" lon="11.419236361244801"><ele>317.20000000000005</ele><time>2026-04-25T08:37:42Z</time></trkpt><trkpt lat="43.39531735815163" lon="11.419240989137668"><ele>316.0</ele><time>2026-04-25T08:37:44Z</time></trkpt><trkpt lat="43.39522902140139" lon="11.419332734274501"><ele>316.0</ele><time>2026-04-25T08:37:46Z</time></trkpt><trkpt lat="43.39512958333447" lon="11.419458192490039"><ele>316.0</ele><time>2026-04-25T08:37:48Z</time></trkpt><trkpt lat="43.39507667952446" lon="11.419539503219982"><ele>316.0</ele><time>2026-04-25T08:37:49Z</time></trkpt><trkpt lat="43.39501066465016" lon="11.419613724168226"><ele>316.0</ele><time>2026-04-25T08:37:50Z</time></trkpt><trkpt lat="43.39495311519015" lon="11.419709458671395"><ele>316.0</ele><time>2026-04-25T08:37:51Z</time></trkpt><trkpt lat="43.394895367324835" lon="11.419806949696772"><ele>317.0</ele><time>2026-04-25T08:37:52Z</time></trkpt><trkpt lat="43.39484443644299" lon="11.419896129553674"><ele>318.0</ele><time>2026-04-25T08:37:53Z</time></trkpt><trkpt lat="43.39479771460677" lon="11.419972705905215"><ele>319.0</ele><time>2026-04-25T08:37:54Z</time></trkpt><trkpt lat="43.394697119292225" lon="11.420081969764587"><ele>320.0</ele><time>2026-04-25T08:37:56Z</time></trkpt><trkpt lat="43.394611587951864" lon="11.42007916777591"><ele>321.0</ele><time>2026-04-25T08:37:57Z</time></trkpt><trkpt lat="43.39452209723905" lon="11.420097932175125"><ele>321.6</ele><time>2026-04-25T08:37:58Z</time></trkpt><trkpt lat="43.39442441883364" lon="11.420117859316267"><ele>322.20000000000005</ele><time>2026-04-25T08:37:59Z</time></trkpt><trkpt lat="43.39432635183692" lon="11.420164691145809"><ele>322.79999999999995</ele><time>2026-04-25T08:38:00Z</time></trkpt><trkpt lat="43.394224673478845" lon="11.420194643261668"><ele>323.4</ele><time>2026-04-25T08:38:01Z</time></trkpt><trkpt lat="43.39412589625417" lon="11.420222164768113"><ele>324.0</ele><time>2026-04-25T08:38:02Z</time></trkpt><trkpt lat="43.39402376862359" lon="11.420249100184169"><ele>324.0</ele><time>2026-04-25T08:38:03Z</time></trkpt><trkpt lat="43.3939431079287" lon="11.420296225066318"><ele>324.0</ele><time>2026-04-25T08:38:04Z</time></trkpt><trkpt lat="43.39388133567758" lon="11.420333090576024"><ele>324.0</ele><time>2026-04-25T08:38:05Z</time></trkpt><trkpt lat="43.39378153502893" lon="11.420427730884915"><ele>324.0</ele><time>2026-04-25T08:38:07Z</time></trkpt><trkpt lat="43.393739088868195" lon="11.420492593232321"><ele>324.0</ele><time>2026-04-25T08:38:08Z</time></trkpt><trkpt lat="43.393681193613276" lon="11.420645258413444"><ele>324.2</ele><time>2026-04-25T08:38:10Z</time></trkpt><trkpt lat="43.39366513578676" lon="11.420735696688398"><ele>324.4</ele><time>2026-04-25T08:38:11Z</time></trkpt><trkpt lat="43.3936515209402" lon="11.420843981832535"><ele>324.6</ele><time>2026-04-25T08:38:12Z</time></trkpt><trkpt lat="43.393640395147855" lon="11.420967273583164"><ele>324.8</ele><time>2026-04-25T08:38:13Z</time></trkpt><trkpt lat="43.393630716838906" lon="11.421113143225332"><ele>325.0</ele><time>2026-04-25T08:38:14Z</time></trkpt><trkpt lat="43.39361531501957" lon="11.42128084011881"><ele>325.0</ele><time>2026-04-25T08:38:15Z</time></trkpt><trkpt lat="43.393599530175536" lon="11.421449214954993"><ele>325.0</ele><time>2026-04-25T08:38:16Z</time></trkpt><trkpt lat="43.39357946633918" lon="11.421606826176413"><ele>325.0</ele><time>2026-04-25T08:38:17Z</time></trkpt><trkpt lat="43.39355997447438" lon="11.421756191013543"><ele>325.0</ele><time>2026-04-25T08:38:18Z</time></trkpt><trkpt lat="43.393545543227056" lon="11.42189227746342"><ele>325.0</ele><time>2026-04-25T08:38:19Z</time></trkpt><trkpt lat="43.393526402497315" lon="11.422019588256452"><ele>325.0</ele><time>2026-04-25T08:38:20Z</time></trkpt><trkpt lat="43.393497099263286" lon="11.422137929371498"><ele>325.0</ele><time>2026-04-25T08:38:21Z</time></trkpt><trkpt lat="43.393461272706986" lon="11.422247598233277"><ele>325.0</ele><time>2026-04-25T08:38:22Z</time></trkpt><trkpt lat="43.393417986669874" lon="11.422352049768097"><ele>325.0</ele><time>2026-04-25T08:38:23Z</time></trkpt><trkpt lat="43.3933682063017" lon="11.422455664343515"><ele>325.8</ele><time>2026-04-25T08:38:24Z</time></trkpt><trkpt lat="43.39330760978865" lon="11.422548601498645"><ele>326.6</ele><time>2026-04-25T08:38:25Z</time></trkpt><trkpt lat="43.39323535327616" lon="11.422629600761926"><ele>327.4</ele><time>2026-04-25T08:38:26Z</time></trkpt><trkpt lat="43.39314937667416" lon="11.422677976744156"><ele>328.2</ele><time>2026-04-25T08:38:27Z</time></trkpt><trkpt lat="43.393063279165446" lon="11.422713095346914"><ele>329.0</ele><time>2026-04-25T08:38:28Z</time></trkpt><trkpt lat="43.3929705199403" lon="11.422726565603007"><ele>329.0</ele><time>2026-04-25T08:38:29Z</time></trkpt><trkpt lat="43.39287265478478" lon="11.422726069542703"><ele>329.0</ele><time>2026-04-25T08:38:30Z</time></trkpt><trkpt lat="43.39276761472204" lon="11.422720822698501"><ele>329.0</ele><time>2026-04-25T08:38:31Z</time></trkpt><trkpt lat="43.39267960687659" lon="11.42272510290289"><ele>329.0</ele><time>2026-04-25T08:38:32Z</time></trkpt><trkpt lat="43.392606481733324" lon="11.422733491783605"><ele>329.0</ele><time>2026-04-25T08:38:33Z</time></trkpt><trkpt lat="43.39253708820096" lon="11.422743093689064"><ele>329.0</ele><time>2026-04-25T08:38:34Z</time></trkpt><trkpt lat="43.39246381487375" lon="11.422746700041802"><ele>329.0</ele><time>2026-04-25T08:38:35Z</time></trkpt><trkpt lat="43.39240266639546" lon="11.422810824407279"><ele>329.0</ele><time>2026-04-25T08:38:36Z</time></trkpt><trkpt lat="43.39233751960715" lon="11.422867697797777"><ele>329.0</ele><time>2026-04-25T08:38:37Z</time></trkpt><trkpt lat="43.39228117956412" lon="11.422927287467138"><ele>329.0</ele><time>2026-04-25T08:38:38Z</time></trkpt><trkpt lat="43.392215064514744" lon="11.42297346790734"><ele>329.0</ele><time>2026-04-25T08:38:39Z</time></trkpt><trkpt lat="43.39214813937748" lon="11.423052133325324"><ele>329.0</ele><time>2026-04-25T08:38:40Z</time></trkpt><trkpt lat="43.39208546955959" lon="11.423138364088024"><ele>329.6</ele><time>2026-04-25T08:38:41Z</time></trkpt><trkpt lat="43.39203888840941" lon="11.423241496606138"><ele>330.2</ele><time>2026-04-25T08:38:42Z</time></trkpt><trkpt lat="43.391980579085754" lon="11.423316757749317"><ele>330.8</ele><time>2026-04-25T08:38:43Z</time></trkpt><trkpt lat="43.39193782673924" lon="11.42342764892792"><ele>331.40000000000003</ele><time>2026-04-25T08:38:44Z</time></trkpt><trkpt lat="43.39192457003052" lon="11.423560446721009"><ele>332.0</ele><time>2026-04-25T08:38:45Z</time></trkpt><trkpt lat="43.39190095186235" lon="11.423688582583408"><ele>331.6</ele><time>2026-04-25T08:38:46Z</time></trkpt><trkpt lat="43.39188074413343" lon="11.423824180775123"><ele>331.20000000000005</ele><time>2026-04-25T08:38:47Z</time></trkpt><trkpt lat="43.39185664433251" lon="11.423948926202575"><ele>330.8</ele><time>2026-04-25T08:38:48Z</time></trkpt><trkpt lat="43.39183920323028" lon="11.424074138516616"><ele>330.4</ele><time>2026-04-25T08:38:49Z</time></trkpt><trkpt lat="43.3918222352304" lon="11.424196103886453"><ele>330.0</ele><time>2026-04-25T08:38:50Z</time></trkpt><trkpt lat="43.39180094706521" lon="11.42430986922148"><ele>330.0</ele><time>2026-04-25T08:38:51Z</time></trkpt><trkpt lat="43.39177009638803" lon="11.424410898045334"><ele>330.0</ele><time>2026-04-25T08:38:52Z</time></trkpt><trkpt lat="43.39175414017065" lon="11.424509851810903"><ele>330.0</ele><time>2026-04-25T08:38:53Z</time></trkpt><trkpt lat="43.391737310852776" lon="11.424601349415344"><ele>330.0</ele><time>2026-04-25T08:38:54Z</time></trkpt><trkpt lat="43.391728884714276" lon="11.4246970340217"><ele>330.0</ele><time>2026-04-25T08:38:55Z</time></trkpt><trkpt lat="43.391689441783036" lon="11.42478791364472"><ele>330.0</ele><time>2026-04-25T08:38:56Z</time></trkpt><trkpt lat="43.391635406899155" lon="11.424877067860459"><ele>330.0</ele><time>2026-04-25T08:38:57Z</time></trkpt><trkpt lat="43.391570332799574" lon="11.4249476323458"><ele>330.0</ele><time>2026-04-25T08:38:58Z</time></trkpt><trkpt lat="43.39149127967089" lon="11.425003842249472"><ele>330.0</ele><time>2026-04-25T08:38:59Z</time></trkpt><trkpt lat="43.39139529403313" lon="11.425009285609333"><ele>330.0</ele><time>2026-04-25T08:39:00Z</time></trkpt><trkpt lat="43.39130842042243" lon="11.425046370803907"><ele>330.0</ele><time>2026-04-25T08:39:01Z</time></trkpt><trkpt lat="43.391238210924335" lon="11.425076342298224"><ele>330.0</ele><time>2026-04-25T08:39:02Z</time></trkpt><trkpt lat="43.39117344935488" lon="11.425112087847452"><ele>328.6666666666667</ele><time>2026-04-25T08:39:03Z</time></trkpt><trkpt lat="43.391122216280095" lon="11.425175846066635"><ele>327.3333333333333</ele><time>2026-04-25T08:39:04Z</time></trkpt><trkpt lat="43.391047338425984" lon="11.425293558478668"><ele>326.0</ele><time>2026-04-25T08:39:06Z</time></trkpt><trkpt lat="43.39101253475585" lon="11.425379154042021"><ele>324.66666666666663</ele><time>2026-04-25T08:39:07Z</time></trkpt><trkpt lat="43.390987437726686" lon="11.42548160278376"><ele>323.3333333333333</ele><time>2026-04-25T08:39:08Z</time></trkpt><trkpt lat="43.390960775491436" lon="11.425593376994804"><ele>322.0</ele><time>2026-04-25T08:39:09Z</time></trkpt><trkpt lat="43.39093189315709" lon="11.425708810292495"><ele>322.0</ele><time>2026-04-25T08:39:10.001Z</time></trkpt><trkpt lat="43.39089256278148" lon="11.425817477221955"><ele>322.0</ele><time>2026-04-25T08:39:11.001Z</time></trkpt><trkpt lat="43.39084409060006" lon="11.425919687833465"><ele>322.0</ele><time>2026-04-25T08:39:12.001Z</time></trkpt><trkpt lat="43.39079420807972" lon="11.426010197722745"><ele>322.0</ele><time>2026-04-25T08:39:13.001Z</time></trkpt><trkpt lat="43.39075378876742" lon="11.426087149910948"><ele>322.0</ele><time>2026-04-25T08:39:14.001Z</time></trkpt><trkpt lat="43.390701719526675" lon="11.426228684114355"><ele>322.0</ele><time>2026-04-25T08:39:16.001Z</time></trkpt><trkpt lat="43.39069452491053" lon="11.426385424852374"><ele>320.8</ele><time>2026-04-25T08:39:18.001Z</time></trkpt><trkpt lat="43.390746605867065" lon="11.426530677213206"><ele>319.6</ele><time>2026-04-25T08:39:20.001Z</time></trkpt><trkpt lat="43.39085524374776" lon="11.42663781396008"><ele>318.40000000000003</ele><time>2026-04-25T08:39:22.001Z</time></trkpt><trkpt lat="43.39092203899416" lon="11.426684203361658"><ele>317.20000000000005</ele><time>2026-04-25T08:39:23.001Z</time></trkpt><trkpt lat="43.390986951820224" lon="11.426726303977853"><ele>316.0</ele><time>2026-04-25T08:39:24.001Z</time></trkpt><trkpt lat="43.39106974305358" lon="11.426777453708926"><ele>316.0</ele><time>2026-04-25T08:39:26.001Z</time></trkpt><trkpt lat="43.39111914428819" lon="11.426875205408777"><ele>316.0</ele><time>2026-04-25T08:39:33Z</time></trkpt><trkpt lat="43.39114336876131" lon="11.427016369993108"><ele>316.0</ele><time>2026-04-25T08:39:35Z</time></trkpt><trkpt lat="43.39112848194607" lon="11.427100682837967"><ele>316.0</ele><time>2026-04-25T08:39:36Z</time></trkpt><trkpt lat="43.39109625811098" lon="11.427182666181363"><ele>316.0</ele><time>2026-04-25T08:39:37Z</time></trkpt><trkpt lat="43.39104769182672" lon="11.42724433787417"><ele>316.0</ele><time>2026-04-25T08:39:38Z</time></trkpt><trkpt lat="43.39099009476126" lon="11.427293647024873"><ele>315.00000000000006</ele><time>2026-04-25T08:39:39Z</time></trkpt><trkpt lat="43.39093186604411" lon="11.427343874987276"><ele>314.0</ele><time>2026-04-25T08:39:40Z</time></trkpt><trkpt lat="43.39088400540902" lon="11.427403796925367"><ele>313.0</ele><time>2026-04-25T08:39:41Z</time></trkpt><trkpt lat="43.3908430926613" lon="11.42747428872777"><ele>312.0</ele><time>2026-04-25T08:39:42Z</time></trkpt><trkpt lat="43.39081085036051" lon="11.427561401853993"><ele>311.0</ele><time>2026-04-25T08:39:43Z</time></trkpt><trkpt lat="43.39078898909675" lon="11.427653642245252"><ele>310.00000000000006</ele><time>2026-04-25T08:39:44Z</time></trkpt><trkpt lat="43.390781394310736" lon="11.427748040413132"><ele>309.0</ele><time>2026-04-25T08:39:45Z</time></trkpt><trkpt lat="43.39078483452288" lon="11.427838283081003"><ele>309.00000000000006</ele><time>2026-04-25T08:39:46Z</time></trkpt><trkpt lat="43.390797062653476" lon="11.42793039679167"><ele>309.0</ele><time>2026-04-25T08:39:47Z</time></trkpt><trkpt lat="43.39081335338503" lon="11.428026966168161"><ele>309.0</ele><time>2026-04-25T08:39:48Z</time></trkpt><trkpt lat="43.39083415786394" lon="11.428129234306043"><ele>309.0</ele><time>2026-04-25T08:39:49Z</time></trkpt><trkpt lat="43.3908615364392" lon="11.428229547551329"><ele>309.0</ele><time>2026-04-25T08:39:50Z</time></trkpt><trkpt lat="43.39089262721725" lon="11.428327167900669"><ele>309.00000000000006</ele><time>2026-04-25T08:39:51Z</time></trkpt><trkpt lat="43.39092375848031" lon="11.42842154204797"><ele>309.0</ele><time>2026-04-25T08:39:52Z</time></trkpt><trkpt lat="43.39095609530418" lon="11.428516296136499"><ele>307.8571428571429</ele><time>2026-04-25T08:39:53Z</time></trkpt><trkpt lat="43.390989302073635" lon="11.428610686235597"><ele>306.7142857142857</ele><time>2026-04-25T08:39:54Z</time></trkpt><trkpt lat="43.39102796743976" lon="11.428700139270171"><ele>305.57142857142856</ele><time>2026-04-25T08:39:55Z</time></trkpt><trkpt lat="43.39106912409316" lon="11.428779179768561"><ele>304.42857142857144</ele><time>2026-04-25T08:39:56Z</time></trkpt><trkpt lat="43.39111350640709" lon="11.428856897266519"><ele>303.2857142857143</ele><time>2026-04-25T08:39:57Z</time></trkpt><trkpt lat="43.3911649812724" lon="11.428924090058551"><ele>302.14285714285717</ele><time>2026-04-25T08:39:58Z</time></trkpt><trkpt lat="43.39121934407861" lon="11.42898640233371"><ele>301.0</ele><time>2026-04-25T08:39:59Z</time></trkpt><trkpt lat="43.39127933254565" lon="11.429041048866122"><ele>301.0</ele><time>2026-04-25T08:40:00Z</time></trkpt><trkpt lat="43.39134179183222" lon="11.42909550348204"><ele>301.0</ele><time>2026-04-25T08:40:01Z</time></trkpt><trkpt lat="43.39140370457526" lon="11.429146980283159"><ele>301.0</ele><time>2026-04-25T08:40:02Z</time></trkpt><trkpt lat="43.39150236127155" lon="11.429237523218676"><ele>301.0</ele><time>2026-04-25T08:40:04Z</time></trkpt><trkpt lat="43.39156611193738" lon="11.429372805334697"><ele>301.0</ele><time>2026-04-25T08:40:06Z</time></trkpt><trkpt lat="43.39157215217646" lon="11.429551230743387"><ele>300.16666666666663</ele><time>2026-04-25T08:40:08Z</time></trkpt><trkpt lat="43.391563392011" lon="11.429654813533302"><ele>299.3333333333333</ele><time>2026-04-25T08:40:09Z</time></trkpt><trkpt lat="43.39154328207574" lon="11.429751200770188"><ele>298.5</ele><time>2026-04-25T08:40:10Z</time></trkpt><trkpt lat="43.39150978978478" lon="11.429846526276584"><ele>297.6666666666667</ele><time>2026-04-25T08:40:11Z</time></trkpt><trkpt lat="43.39145965036372" lon="11.429944134327664"><ele>296.83333333333337</ele><time>2026-04-25T08:40:12Z</time></trkpt><trkpt lat="43.39139869502194" lon="11.430036855350435"><ele>296.0</ele><time>2026-04-25T08:40:13Z</time></trkpt><trkpt lat="43.39132137223267" lon="11.430105128818484"><ele>296.0</ele><time>2026-04-25T08:40:14Z</time></trkpt><trkpt lat="43.391236972248834" lon="11.430155122708461"><ele>296.0</ele><time>2026-04-25T08:40:15Z</time></trkpt><trkpt lat="43.39114308374359" lon="11.43015406363876"><ele>296.0</ele><time>2026-04-25T08:40:16Z</time></trkpt><trkpt lat="43.39104604021325" lon="11.430157930159474"><ele>296.0</ele><time>2026-04-25T08:40:17Z</time></trkpt><trkpt lat="43.390941907775755" lon="11.430153719991585"><ele>296.0</ele><time>2026-04-25T08:40:18Z</time></trkpt><trkpt lat="43.390838621105615" lon="11.430144622820858"><ele>296.0</ele><time>2026-04-25T08:40:19Z</time></trkpt><trkpt lat="43.39073949002576" lon="11.430128853912104"><ele>296.0</ele><time>2026-04-25T08:40:20Z</time></trkpt><trkpt lat="43.39064895460607" lon="11.430102678573185"><ele>296.0</ele><time>2026-04-25T08:40:21Z</time></trkpt><trkpt lat="43.39055243294485" lon="11.430064951872074"><ele>296.0</ele><time>2026-04-25T08:40:22Z</time></trkpt><trkpt lat="43.390454057389675" lon="11.430007386614022"><ele>296.0</ele><time>2026-04-25T08:40:23Z</time></trkpt><trkpt lat="43.39034767645498" lon="11.429926623633635"><ele>295.5</ele><time>2026-04-25T08:40:24Z</time></trkpt><trkpt lat="43.390243415335426" lon="11.42984214128449"><ele>295.0</ele><time>2026-04-25T08:40:25Z</time></trkpt><trkpt lat="43.390129828426744" lon="11.429753838955719"><ele>294.5</ele><time>2026-04-25T08:40:26Z</time></trkpt><trkpt lat="43.39001497053018" lon="11.429665465117195"><ele>294.0</ele><time>2026-04-25T08:40:27Z</time></trkpt><trkpt lat="43.389908200456865" lon="11.429575592973123"><ele>294.0</ele><time>2026-04-25T08:40:28Z</time></trkpt><trkpt lat="43.38980093403723" lon="11.429499368497373"><ele>294.0</ele><time>2026-04-25T08:40:29Z</time></trkpt><trkpt lat="43.3897086785452" lon="11.429382640023189"><ele>294.0</ele><time>2026-04-25T08:40:30Z</time></trkpt><trkpt lat="43.38961643103031" lon="11.429254844764715"><ele>294.0</ele><time>2026-04-25T08:40:31Z</time></trkpt><trkpt lat="43.38953020574679" lon="11.429123328734457"><ele>294.0</ele><time>2026-04-25T08:40:32Z</time></trkpt><trkpt lat="43.389460937449336" lon="11.4289848686382"><ele>294.0</ele><time>2026-04-25T08:40:33Z</time></trkpt><trkpt lat="43.38938397025802" lon="11.428866660019546"><ele>294.0</ele><time>2026-04-25T08:40:34Z</time></trkpt><trkpt lat="43.38931302077697" lon="11.428771460637565"><ele>294.0</ele><time>2026-04-25T08:40:35Z</time></trkpt><trkpt lat="43.38924956811495" lon="11.428701033345455"><ele>294.0</ele><time>2026-04-25T08:40:36Z</time></trkpt><trkpt lat="43.389181570440456" lon="11.428646984458421"><ele>294.0</ele><time>2026-04-25T08:40:37Z</time></trkpt><trkpt lat="43.38910188647556" lon="11.42861038854746"><ele>294.0</ele><time>2026-04-25T08:40:38Z</time></trkpt><trkpt lat="43.389011869983456" lon="11.42859239488236"><ele>294.0</ele><time>2026-04-25T08:40:39Z</time></trkpt><trkpt lat="43.38891441008272" lon="11.428593868619608"><ele>294.0</ele><time>2026-04-25T08:40:40Z</time></trkpt><trkpt lat="43.388812810273244" lon="11.428595371448713"><ele>294.0</ele><time>2026-04-25T08:40:41Z</time></trkpt><trkpt lat="43.388707432630824" lon="11.42860002708461"><ele>295.4</ele><time>2026-04-25T08:40:42Z</time></trkpt><trkpt lat="43.38861045446508" lon="11.428598652321105"><ele>296.79999999999995</ele><time>2026-04-25T08:40:43Z</time></trkpt><trkpt lat="43.38852528600217" lon="11.428584469001306"><ele>298.20000000000005</ele><time>2026-04-25T08:40:44Z</time></trkpt><trkpt lat="43.388432179261414" lon="11.428553344305723"><ele>299.6</ele><time>2026-04-25T08:40:45Z</time></trkpt><trkpt lat="43.388317661007555" lon="11.42852277913124"><ele>301.0</ele><time>2026-04-25T08:40:46Z</time></trkpt><trkpt lat="43.38821604051813" lon="11.428455352645473"><ele>301.0</ele><time>2026-04-25T08:40:47Z</time></trkpt><trkpt lat="43.3881216363137" lon="11.428408259694892"><ele>301.0</ele><time>2026-04-25T08:40:48Z</time></trkpt><trkpt lat="43.38803459213444" lon="11.428375708350128"><ele>301.0</ele><time>2026-04-25T08:40:49Z</time></trkpt><trkpt lat="43.38795836363917" lon="11.428362223008191"><ele>301.0</ele><time>2026-04-25T08:40:50Z</time></trkpt><trkpt lat="43.38788767868991" lon="11.428356644060251"><ele>301.0</ele><time>2026-04-25T08:40:51.001Z</time></trkpt><trkpt lat="43.38781056348017" lon="11.428363414283483"><ele>301.0</ele><time>2026-04-25T08:40:52.001Z</time></trkpt><trkpt lat="43.38772520025523" lon="11.428388428713317"><ele>301.6</ele><time>2026-04-25T08:40:53.001Z</time></trkpt><trkpt lat="43.3876259341574" lon="11.428399101116733"><ele>302.20000000000005</ele><time>2026-04-25T08:40:54.001Z</time></trkpt><trkpt lat="43.387523665492346" lon="11.428456625230387"><ele>302.79999999999995</ele><time>2026-04-25T08:40:55.001Z</time></trkpt><trkpt lat="43.38741719958272" lon="11.428492366302361"><ele>303.4</ele><time>2026-04-25T08:40:56.001Z</time></trkpt><trkpt lat="43.38731775603314" lon="11.428527209379217"><ele>304.0</ele><time>2026-04-25T08:40:57.001Z</time></trkpt><trkpt lat="43.387220295454085" lon="11.428535306493613"><ele>302.59999999999997</ele><time>2026-04-25T08:40:58.001Z</time></trkpt><trkpt lat="43.38712999423825" lon="11.428563768705999"><ele>301.2</ele><time>2026-04-25T08:40:59.001Z</time></trkpt><trkpt lat="43.38704215128761" lon="11.42860386993924"><ele>299.79999999999995</ele><time>2026-04-25T08:41:00.001Z</time></trkpt><trkpt lat="43.386953693136064" lon="11.42863203587653"><ele>298.4</ele><time>2026-04-25T08:41:01.001Z</time></trkpt><trkpt lat="43.38686059617803" lon="11.428664848983752"><ele>297.0</ele><time>2026-04-25T08:41:02.001Z</time></trkpt><trkpt lat="43.38676336028052" lon="11.428699011688641"><ele>297.0</ele><time>2026-04-25T08:41:03.001Z</time></trkpt><trkpt lat="43.38666220176131" lon="11.4287343561048"><ele>297.0</ele><time>2026-04-25T08:41:04.001Z</time></trkpt><trkpt lat="43.386564214860286" lon="11.428764512186957"><ele>297.0</ele><time>2026-04-25T08:41:05.001Z</time></trkpt><trkpt lat="43.386469648292504" lon="11.428795645292713"><ele>297.0</ele><time>2026-04-25T08:41:06.001Z</time></trkpt><trkpt lat="43.38637483756927" lon="11.428823005531711"><ele>297.0</ele><time>2026-04-25T08:41:07.001Z</time></trkpt><trkpt lat="43.38627879367866" lon="11.428835590841231"><ele>296.0</ele><time>2026-04-25T08:41:08.001Z</time></trkpt><trkpt lat="43.38618887332854" lon="11.428863026425821"><ele>295.0</ele><time>2026-04-25T08:41:09.001Z</time></trkpt><trkpt lat="43.38609947379526" lon="11.428890303130549"><ele>294.0</ele><time>2026-04-25T08:41:10.001Z</time></trkpt><trkpt lat="43.38600740141402" lon="11.428918126340603"><ele>293.0</ele><time>2026-04-25T08:41:11.001Z</time></trkpt><trkpt lat="43.3859170254205" lon="11.428944857875587"><ele>292.0</ele><time>2026-04-25T08:41:12.001Z</time></trkpt><trkpt lat="43.38582787153097" lon="11.428971227936545"><ele>292.0</ele><time>2026-04-25T08:41:13.001Z</time></trkpt><trkpt lat="43.38574008513813" lon="11.42899719351238"><ele>292.0</ele><time>2026-04-25T08:41:14.001Z</time></trkpt><trkpt lat="43.385652040226844" lon="11.429023235559924"><ele>292.0</ele><time>2026-04-25T08:41:15.001Z</time></trkpt><trkpt lat="43.38556711004897" lon="11.429047940962796"><ele>292.0</ele><time>2026-04-25T08:41:16.001Z</time></trkpt><trkpt lat="43.38547660063359" lon="11.429073989359566"><ele>292.0</ele><time>2026-04-25T08:41:17.001Z</time></trkpt><trkpt lat="43.38538850168721" lon="11.4290993440046"><ele>292.0</ele><time>2026-04-25T08:41:18.001Z</time></trkpt><trkpt lat="43.385303608869435" lon="11.429123775949243"><ele>290.2</ele><time>2026-04-25T08:41:19.001Z</time></trkpt><trkpt lat="43.38522171052563" lon="11.42914734608596"><ele>288.4</ele><time>2026-04-25T08:41:20.001Z</time></trkpt><trkpt lat="43.38514343314021" lon="11.429169874107522"><ele>286.6</ele><time>2026-04-25T08:41:21.001Z</time></trkpt><trkpt lat="43.38507072314435" lon="11.429190799860864"><ele>284.8</ele><time>2026-04-25T08:41:22.001Z</time></trkpt><trkpt lat="43.38495816015239" lon="11.429228953734416"><ele>283.0</ele><time>2026-04-25T08:41:24.001Z</time></trkpt><trkpt lat="43.384878778406794" lon="11.42932670660601"><ele>283.0</ele><time>2026-04-25T08:41:26.001Z</time></trkpt><trkpt lat="43.38482829970554" lon="11.429481734227506"><ele>283.0</ele><time>2026-04-25T08:41:28.001Z</time></trkpt><trkpt lat="43.384820611212554" lon="11.429582681328498"><ele>283.0</ele><time>2026-04-25T08:41:29.001Z</time></trkpt><trkpt lat="43.38482350673625" lon="11.429686260308932"><ele>283.0</ele><time>2026-04-25T08:41:30.001Z</time></trkpt><trkpt lat="43.38482800988506" lon="11.429791753354964"><ele>283.0</ele><time>2026-04-25T08:41:31.001Z</time></trkpt><trkpt lat="43.384816538273924" lon="11.429898383136626"><ele>283.0</ele><time>2026-04-25T08:41:32.001Z</time></trkpt><trkpt lat="43.384798613336095" lon="11.430011730084841"><ele>283.14285714285717</ele><time>2026-04-25T08:41:33.001Z</time></trkpt><trkpt lat="43.38476912590451" lon="11.430109748422414"><ele>283.28571428571433</ele><time>2026-04-25T08:41:34.001Z</time></trkpt><trkpt lat="43.384743472968" lon="11.430209804727056"><ele>283.42857142857144</ele><time>2026-04-25T08:41:35.001Z</time></trkpt><trkpt lat="43.384719902926" lon="11.430310767816561"><ele>283.57142857142856</ele><time>2026-04-25T08:41:36.001Z</time></trkpt><trkpt lat="43.38469672952308" lon="11.430399275639989"><ele>283.71428571428567</ele><time>2026-04-25T08:41:37.001Z</time></trkpt><trkpt lat="43.384692793638706" lon="11.430503005432621"><ele>283.85714285714283</ele><time>2026-04-25T08:41:38.001Z</time></trkpt><trkpt lat="43.38469284904362" lon="11.430603364009638"><ele>284.0</ele><time>2026-04-25T08:41:39.001Z</time></trkpt><trkpt lat="43.38469981867071" lon="11.430700778819517"><ele>284.0</ele><time>2026-04-25T08:41:40.001Z</time></trkpt><trkpt lat="43.384711578450265" lon="11.430797520877622"><ele>284.0</ele><time>2026-04-25T08:41:41.001Z</time></trkpt><trkpt lat="43.38472757994413" lon="11.430897555915218"><ele>284.0</ele><time>2026-04-25T08:41:42.001Z</time></trkpt><trkpt lat="43.384750050618536" lon="11.430997967669493"><ele>284.0</ele><time>2026-04-25T08:41:43.001Z</time></trkpt><trkpt lat="43.38476384718084" lon="11.43110339618587"><ele>284.0</ele><time>2026-04-25T08:41:44.001Z</time></trkpt><trkpt lat="43.3847579968767" lon="11.43120907044445"><ele>284.0</ele><time>2026-04-25T08:41:45.001Z</time></trkpt><trkpt lat="43.384733638537995" lon="11.431313671260991"><ele>283.1428571428571</ele><time>2026-04-25T08:41:46.001Z</time></trkpt><trkpt lat="43.38467300896826" lon="11.43138757584898"><ele>282.2857142857143</ele><time>2026-04-25T08:41:47.001Z</time></trkpt><trkpt lat="43.3846075169294" lon="11.431439541578667"><ele>281.42857142857144</ele><time>2026-04-25T08:41:48Z</time></trkpt><trkpt lat="43.38453853857598" lon="11.431443884298169"><ele>280.57142857142856</ele><time>2026-04-25T08:41:49Z</time></trkpt><trkpt lat="43.38447520577341" lon="11.431427599838395"><ele>279.7142857142857</ele><time>2026-04-25T08:41:50Z</time></trkpt><trkpt lat="43.38441162739826" lon="11.431384814807092"><ele>278.85714285714283</ele><time>2026-04-25T08:41:51Z</time></trkpt><trkpt lat="43.384346589480984" lon="11.43130826304984"><ele>278.0</ele><time>2026-04-25T08:41:52Z</time></trkpt><trkpt lat="43.38425996474425" lon="11.431198481120699"><ele>278.0</ele><time>2026-04-25T08:41:53Z</time></trkpt><trkpt lat="43.38414902623413" lon="11.431089759202198"><ele>278.0</ele><time>2026-04-25T08:41:54Z</time></trkpt><trkpt lat="43.38404816448519" lon="11.430967965034483"><ele>278.0</ele><time>2026-04-25T08:41:55Z</time></trkpt><trkpt lat="43.383939948138114" lon="11.430846981922935"><ele>278.0</ele><time>2026-04-25T08:41:56Z</time></trkpt><trkpt lat="43.38383948746124" lon="11.430729282596161"><ele>277.4</ele><time>2026-04-25T08:41:57Z</time></trkpt><trkpt lat="43.383755706307696" lon="11.430605063066666"><ele>276.8</ele><time>2026-04-25T08:41:58Z</time></trkpt><trkpt lat="43.383686828712904" lon="11.430481223120605"><ele>276.2</ele><time>2026-04-25T08:41:59Z</time></trkpt><trkpt lat="43.38362506319151" lon="11.43037843991047"><ele>275.6</ele><time>2026-04-25T08:42:00Z</time></trkpt><trkpt lat="43.38356987948724" lon="11.43030429435033"><ele>275.0</ele><time>2026-04-25T08:42:01Z</time></trkpt><trkpt lat="43.383479281735084" lon="11.430233263810665"><ele>275.0</ele><time>2026-04-25T08:42:03Z</time></trkpt><trkpt lat="43.3833668738077" lon="11.430225175198935"><ele>275.0</ele><time>2026-04-25T08:42:05Z</time></trkpt><trkpt lat="43.38330110184283" lon="11.430240120026818"><ele>275.0</ele><time>2026-04-25T08:42:06Z</time></trkpt><trkpt lat="43.38318734033454" lon="11.430307257119555"><ele>275.0</ele><time>2026-04-25T08:42:08Z</time></trkpt><trkpt lat="43.383136063760944" lon="11.430358061540243"><ele>275.0</ele><time>2026-04-25T08:42:09Z</time></trkpt><trkpt lat="43.38305550569041" lon="11.430480388315775"><ele>277.0</ele><time>2026-04-25T08:42:11Z</time></trkpt><trkpt lat="43.38299394604623" lon="11.430623956300476"><ele>279.0</ele><time>2026-04-25T08:42:13Z</time></trkpt><trkpt lat="43.38298674912196" lon="11.430757379545833"><ele>281.0</ele><time>2026-04-25T08:42:15Z</time></trkpt><trkpt lat="43.38302951452716" lon="11.430822798994873"><ele>283.0</ele><time>2026-04-25T08:42:16Z</time></trkpt><trkpt lat="43.38312789467315" lon="11.430912443988898"><ele>285.0</ele><time>2026-04-25T08:42:18Z</time></trkpt><trkpt lat="43.383198044880615" lon="11.430926721341491"><ele>285.4</ele><time>2026-04-25T08:42:19Z</time></trkpt><trkpt lat="43.38327348927567" lon="11.430923478144878"><ele>285.8</ele><time>2026-04-25T08:42:20Z</time></trkpt><trkpt lat="43.38334431408903" lon="11.430920331549512"><ele>286.2</ele><time>2026-04-25T08:42:21Z</time></trkpt><trkpt lat="43.383458512066404" lon="11.430983590699618"><ele>286.6</ele><time>2026-04-25T08:42:23Z</time></trkpt><trkpt lat="43.38349928430163" lon="11.431137607318806"><ele>287.0</ele><time>2026-04-25T08:42:25Z</time></trkpt><trkpt lat="43.38348542726098" lon="11.431224093691347"><ele>288.83333333333337</ele><time>2026-04-25T08:42:26Z</time></trkpt><trkpt lat="43.383453058551645" lon="11.4313121602027"><ele>290.6666666666667</ele><time>2026-04-25T08:42:27Z</time></trkpt><trkpt lat="43.38340942798744" lon="11.43139583330148"><ele>292.5</ele><time>2026-04-25T08:42:28Z</time></trkpt><trkpt lat="43.38334638295016" lon="11.431450473122222"><ele>294.3333333333333</ele><time>2026-04-25T08:42:29Z</time></trkpt><trkpt lat="43.38328621010638" lon="11.431521357807373"><ele>296.16666666666663</ele><time>2026-04-25T08:42:30Z</time></trkpt><trkpt lat="43.38321705299099" lon="11.431583255309715"><ele>298.0</ele><time>2026-04-25T08:42:31Z</time></trkpt><trkpt lat="43.383136748112705" lon="11.43163525425519"><ele>298.0</ele><time>2026-04-25T08:42:32Z</time></trkpt><trkpt lat="43.383047801214325" lon="11.431662431548723"><ele>298.0</ele><time>2026-04-25T08:42:33Z</time></trkpt><trkpt lat="43.38293615267269" lon="11.431696780436212"><ele>298.0</ele><time>2026-04-25T08:42:34Z</time></trkpt><trkpt lat="43.38281672828248" lon="11.431735065570106"><ele>298.0</ele><time>2026-04-25T08:42:35Z</time></trkpt><trkpt lat="43.38268945191092" lon="11.431776821346068"><ele>298.5</ele><time>2026-04-25T08:42:36Z</time></trkpt><trkpt lat="43.38255421367812" lon="11.431844065856165"><ele>299.0</ele><time>2026-04-25T08:42:37Z</time></trkpt><trkpt lat="43.38241093768896" lon="11.431886536552435"><ele>299.5</ele><time>2026-04-25T08:42:38Z</time></trkpt><trkpt lat="43.38226800727319" lon="11.431929197321672"><ele>300.0</ele><time>2026-04-25T08:42:39Z</time></trkpt><trkpt lat="43.38213021892676" lon="11.431954286562515"><ele>300.0</ele><time>2026-04-25T08:42:40Z</time></trkpt><trkpt lat="43.38201584256433" lon="11.431996789573292"><ele>300.0</ele><time>2026-04-25T08:42:41Z</time></trkpt><trkpt lat="43.381901405585126" lon="11.432030081776476"><ele>300.0</ele><time>2026-04-25T08:42:42Z</time></trkpt><trkpt lat="43.381802260918214" lon="11.432065942658344"><ele>300.0</ele><time>2026-04-25T08:42:43Z</time></trkpt><trkpt lat="43.3817195743579" lon="11.432101979786355"><ele>300.0</ele><time>2026-04-25T08:42:44Z</time></trkpt><trkpt lat="43.38163806423717" lon="11.432088422415239"><ele>300.0</ele><time>2026-04-25T08:42:45Z</time></trkpt><trkpt lat="43.38156896319425" lon="11.432029620319112"><ele>300.0</ele><time>2026-04-25T08:42:46Z</time></trkpt><trkpt lat="43.381505859632256" lon="11.431967342517867"><ele>300.0</ele><time>2026-04-25T08:42:47Z</time></trkpt><trkpt lat="43.38146002117419" lon="11.431890258232531"><ele>300.0</ele><time>2026-04-25T08:42:48Z</time></trkpt><trkpt lat="43.38142463161211" lon="11.431795010451658"><ele>300.0</ele><time>2026-04-25T08:42:49Z</time></trkpt><trkpt lat="43.38138683760999" lon="11.431671535718808"><ele>300.0</ele><time>2026-04-25T08:42:50Z</time></trkpt><trkpt lat="43.38133434905295" lon="11.43154082480363"><ele>303.5</ele><time>2026-04-25T08:42:51Z</time></trkpt><trkpt lat="43.38128279771553" lon="11.431386891797391"><ele>307.0</ele><time>2026-04-25T08:42:52Z</time></trkpt><trkpt lat="43.381234040956386" lon="11.431222316263131"><ele>310.5</ele><time>2026-04-25T08:42:53Z</time></trkpt><trkpt lat="43.38117875488241" lon="11.431059422327214"><ele>314.0</ele><time>2026-04-25T08:42:54Z</time></trkpt><trkpt lat="43.38112578341899" lon="11.430907522092404"><ele>314.0</ele><time>2026-04-25T08:42:55Z</time></trkpt><trkpt lat="43.381079955762964" lon="11.43077808300129"><ele>314.0</ele><time>2026-04-25T08:42:56Z</time></trkpt><trkpt lat="43.381043590366566" lon="11.430671279514671"><ele>314.0</ele><time>2026-04-25T08:42:57Z</time></trkpt><trkpt lat="43.38101411091576" lon="11.430582673537355"><ele>314.0</ele><time>2026-04-25T08:42:58Z</time></trkpt><trkpt lat="43.380955789727864" lon="11.430495590621737"><ele>314.0</ele><time>2026-04-25T08:43:00.001Z</time></trkpt><trkpt lat="43.38087623748811" lon="11.4304559260368"><ele>314.0</ele><time>2026-04-25T08:43:03.002Z</time></trkpt><trkpt lat="43.380802535569075" lon="11.430400859897277"><ele>314.0</ele><time>2026-04-25T08:43:05.002Z</time></trkpt><trkpt lat="43.380711161450684" lon="11.430548926421675"><ele>314.0</ele><time>2026-04-25T08:43:07.002Z</time></trkpt><trkpt lat="43.38067363566712" lon="11.430652449547058"><ele>314.0</ele><time>2026-04-25T08:43:08.002Z</time></trkpt><trkpt lat="43.38062818605742" lon="11.430746591054364"><ele>314.0</ele><time>2026-04-25T08:43:09.002Z</time></trkpt><trkpt lat="43.38057004842027" lon="11.430858783114983"><ele>314.0</ele><time>2026-04-25T08:43:10.002Z</time></trkpt><trkpt lat="43.38049669184321" lon="11.430970124126079"><ele>313.25</ele><time>2026-04-25T08:43:11.002Z</time></trkpt><trkpt lat="43.38041828046727" lon="11.43108496596779"><ele>312.5</ele><time>2026-04-25T08:43:12.002Z</time></trkpt><trkpt lat="43.38033574701215" lon="11.431210370785301"><ele>311.75</ele><time>2026-04-25T08:43:13.002Z</time></trkpt><trkpt lat="43.38023677218875" lon="11.431320613121262"><ele>311.0</ele><time>2026-04-25T08:43:14.002Z</time></trkpt><trkpt lat="43.380163277124744" lon="11.431459604009444"><ele>313.20000000000005</ele><time>2026-04-25T08:43:15.002Z</time></trkpt><trkpt lat="43.38007366542944" lon="11.431558775541449"><ele>315.40000000000003</ele><time>2026-04-25T08:43:16.002Z</time></trkpt><trkpt lat="43.38002926362417" lon="11.431689334936625"><ele>317.6</ele><time>2026-04-25T08:43:17.002Z</time></trkpt><trkpt lat="43.37999245471959" lon="11.431819478035441"><ele>319.8</ele><time>2026-04-25T08:43:18.002Z</time></trkpt><trkpt lat="43.37998744623818" lon="11.431958942378667"><ele>322.0</ele><time>2026-04-25T08:43:19.002Z</time></trkpt><trkpt lat="43.38000852420377" lon="11.432110266764054"><ele>321.8</ele><time>2026-04-25T08:43:20.002Z</time></trkpt><trkpt lat="43.38004622637138" lon="11.432245725277259"><ele>321.6</ele><time>2026-04-25T08:43:21.002Z</time></trkpt><trkpt lat="43.38007265723216" lon="11.432362960004014"><ele>321.40000000000003</ele><time>2026-04-25T08:43:22.002Z</time></trkpt><trkpt lat="43.38008265172774" lon="11.432456818134845"><ele>321.20000000000005</ele><time>2026-04-25T08:43:23.002Z</time></trkpt><trkpt lat="43.380084560206605" lon="11.432571441999226"><ele>321.0</ele><time>2026-04-25T08:43:25.002Z</time></trkpt><trkpt lat="43.379971773036985" lon="11.432594744383298"><ele>321.0</ele><time>2026-04-25T08:43:27.002Z</time></trkpt><trkpt lat="43.379900663804946" lon="11.432585560623933"><ele>321.0</ele><time>2026-04-25T08:43:28.002Z</time></trkpt><trkpt lat="43.37981814950383" lon="11.432574520189727"><ele>321.0</ele><time>2026-04-25T08:43:29.002Z</time></trkpt><trkpt lat="43.37972016174895" lon="11.432563669412975"><ele>321.0</ele><time>2026-04-25T08:43:30.002Z</time></trkpt><trkpt lat="43.37961033558303" lon="11.432522891380133"><ele>321.0</ele><time>2026-04-25T08:43:31.002Z</time></trkpt><trkpt lat="43.37949872993643" lon="11.43247740233401"><ele>320.25</ele><time>2026-04-25T08:43:32.002Z</time></trkpt><trkpt lat="43.379380923117466" lon="11.432420114518312"><ele>319.5</ele><time>2026-04-25T08:43:33.002Z</time></trkpt><trkpt lat="43.379249962653496" lon="11.432357860214788"><ele>318.75</ele><time>2026-04-25T08:43:34.002Z</time></trkpt><trkpt lat="43.379107763341935" lon="11.432294680552562"><ele>318.0</ele><time>2026-04-25T08:43:35.002Z</time></trkpt><trkpt lat="43.37895799343188" lon="11.432229920407469"><ele>317.6666666666667</ele><time>2026-04-25T08:43:36.002Z</time></trkpt><trkpt lat="43.37881222072067" lon="11.432136368124779"><ele>317.33333333333337</ele><time>2026-04-25T08:43:37.002Z</time></trkpt><trkpt lat="43.37866127917051" lon="11.432061297242123"><ele>317.0</ele><time>2026-04-25T08:43:38.002Z</time></trkpt><trkpt lat="43.378511507501635" lon="11.431984922161728"><ele>317.0</ele><time>2026-04-25T08:43:39.002Z</time></trkpt><trkpt lat="43.378357668853816" lon="11.431931768466217"><ele>317.0</ele><time>2026-04-25T08:43:40.002Z</time></trkpt><trkpt lat="43.3782124759681" lon="11.431851777523313"><ele>317.0</ele><time>2026-04-25T08:43:41.002Z</time></trkpt><trkpt lat="43.378067592442925" lon="11.431775890868256"><ele>317.6666666666667</ele><time>2026-04-25T08:43:42.002Z</time></trkpt><trkpt lat="43.37792318794852" lon="11.431702286998133"><ele>318.3333333333333</ele><time>2026-04-25T08:43:43.002Z</time></trkpt><trkpt lat="43.37777943744616" lon="11.431628625316113"><ele>319.0</ele><time>2026-04-25T08:43:44.002Z</time></trkpt><trkpt lat="43.3776399971652" lon="11.431558032776822"><ele>319.0</ele><time>2026-04-25T08:43:45.002Z</time></trkpt><trkpt lat="43.377507098931666" lon="11.431489824260657"><ele>319.0</ele><time>2026-04-25T08:43:46.002Z</time></trkpt><trkpt lat="43.377376385634946" lon="11.431436557345531"><ele>319.0</ele><time>2026-04-25T08:43:47.002Z</time></trkpt><trkpt lat="43.37724027718022" lon="11.431375806731701"><ele>319.0</ele><time>2026-04-25T08:43:48.002Z</time></trkpt><trkpt lat="43.377088779420916" lon="11.43134674649774"><ele>318.0</ele><time>2026-04-25T08:43:49.002Z</time></trkpt><trkpt lat="43.376931356450164" lon="11.43132562336029"><ele>317.0</ele><time>2026-04-25T08:43:50.002Z</time></trkpt><trkpt lat="43.376770155964095" lon="11.431322287497506"><ele>316.0</ele><time>2026-04-25T08:43:51.002Z</time></trkpt><trkpt lat="43.376610740593335" lon="11.43130411766658"><ele>315.0</ele><time>2026-04-25T08:43:52.002Z</time></trkpt><trkpt lat="43.37645403205082" lon="11.43128976767487"><ele>314.0</ele><time>2026-04-25T08:43:53.002Z</time></trkpt><trkpt lat="43.37630686099953" lon="11.43124693366854"><ele>313.0</ele><time>2026-04-25T08:43:54.001Z</time></trkpt><trkpt lat="43.37615874783193" lon="11.431222023469601"><ele>313.0</ele><time>2026-04-25T08:43:55.001Z</time></trkpt><trkpt lat="43.376009310242374" lon="11.431194138710003"><ele>313.0</ele><time>2026-04-25T08:43:56.001Z</time></trkpt><trkpt lat="43.375857802182495" lon="11.431155911562252"><ele>313.0</ele><time>2026-04-25T08:43:57.001Z</time></trkpt><trkpt lat="43.37570588059535" lon="11.431108255270734"><ele>313.0</ele><time>2026-04-25T08:43:58.001Z</time></trkpt><trkpt lat="43.37555360694812" lon="11.431006859867805"><ele>313.0</ele><time>2026-04-25T08:43:59.001Z</time></trkpt><trkpt lat="43.37540733400805" lon="11.430889938251024"><ele>313.0</ele><time>2026-04-25T08:44:00.001Z</time></trkpt><trkpt lat="43.37526329855986" lon="11.43075219363663"><ele>310.0</ele><time>2026-04-25T08:44:01.001Z</time></trkpt><trkpt lat="43.37510605958295" lon="11.430638062234303"><ele>307.0</ele><time>2026-04-25T08:44:02.001Z</time></trkpt><trkpt lat="43.37493469061042" lon="11.430566638149859"><ele>304.0</ele><time>2026-04-25T08:44:03.001Z</time></trkpt><trkpt lat="43.37477879955149" lon="11.430469668392384"><ele>304.3333333333333</ele><time>2026-04-25T08:44:04.001Z</time></trkpt><trkpt lat="43.374616311463" lon="11.430408166983893"><ele>304.6666666666667</ele><time>2026-04-25T08:44:05.001Z</time></trkpt><trkpt lat="43.374449644592836" lon="11.430377960562225"><ele>305.0</ele><time>2026-04-25T08:44:06.001Z</time></trkpt><trkpt lat="43.37428572827123" lon="11.430325250763017"><ele>305.0</ele><time>2026-04-25T08:44:07.001Z</time></trkpt><trkpt lat="43.374119502472546" lon="11.430273350840412"><ele>305.0</ele><time>2026-04-25T08:44:08.001Z</time></trkpt><trkpt lat="43.373954073533454" lon="11.4302150450297"><ele>305.0</ele><time>2026-04-25T08:44:09.001Z</time></trkpt><trkpt lat="43.373790308254186" lon="11.430153722397694"><ele>304.6666666666667</ele><time>2026-04-25T08:44:10.001Z</time></trkpt><trkpt lat="43.37362567278845" lon="11.430081304138056"><ele>304.3333333333333</ele><time>2026-04-25T08:44:11.001Z</time></trkpt><trkpt lat="43.373457088731335" lon="11.42999465348019"><ele>304.0</ele><time>2026-04-25T08:44:12.001Z</time></trkpt><trkpt lat="43.37328441867341" lon="11.429899098059819"><ele>304.0</ele><time>2026-04-25T08:44:13.001Z</time></trkpt><trkpt lat="43.37311282529622" lon="11.429773721232529"><ele>304.0</ele><time>2026-04-25T08:44:14.001Z</time></trkpt><trkpt lat="43.37292945549187" lon="11.42966311448906"><ele>304.0</ele><time>2026-04-25T08:44:15.001Z</time></trkpt><trkpt lat="43.3727334794943" lon="11.429572424430589"><ele>301.66666666666663</ele><time>2026-04-25T08:44:16.001Z</time></trkpt><trkpt lat="43.37254364161518" lon="11.429439042539693"><ele>299.3333333333333</ele><time>2026-04-25T08:44:17.001Z</time></trkpt><trkpt lat="43.372347916986236" lon="11.42932635798597"><ele>297.0</ele><time>2026-04-25T08:44:18.001Z</time></trkpt><trkpt lat="43.37215737542757" lon="11.429218891802059"><ele>295.6666666666667</ele><time>2026-04-25T08:44:19.001Z</time></trkpt><trkpt lat="43.37197349370221" lon="11.42911609179044"><ele>294.33333333333337</ele><time>2026-04-25T08:44:20.001Z</time></trkpt><trkpt lat="43.371799733648515" lon="11.429020429756765"><ele>293.0</ele><time>2026-04-25T08:44:21.001Z</time></trkpt><trkpt lat="43.371634039938996" lon="11.428949397347274"><ele>293.0</ele><time>2026-04-25T08:44:22.001Z</time></trkpt><trkpt lat="43.371486195157814" lon="11.42887014541853"><ele>293.0</ele><time>2026-04-25T08:44:23.001Z</time></trkpt><trkpt lat="43.37133184692376" lon="11.428807781739904"><ele>293.0</ele><time>2026-04-25T08:44:24.001Z</time></trkpt><trkpt lat="43.37116909839308" lon="11.428740355949158"><ele>293.33333333333337</ele><time>2026-04-25T08:44:25.001Z</time></trkpt><trkpt lat="43.37099464764721" lon="11.428693939179155"><ele>293.6666666666667</ele><time>2026-04-25T08:44:26.001Z</time></trkpt><trkpt lat="43.37082048226753" lon="11.428656878988148"><ele>294.0</ele><time>2026-04-25T08:44:27.001Z</time></trkpt><trkpt lat="43.37064973000538" lon="11.428647796845745"><ele>292.25</ele><time>2026-04-25T08:44:28.001Z</time></trkpt><trkpt lat="43.37048974909258" lon="11.428624192054835"><ele>290.5</ele><time>2026-04-25T08:44:29.001Z</time></trkpt><trkpt lat="43.37034479923434" lon="11.428581680095748"><ele>288.75</ele><time>2026-04-25T08:44:30.001Z</time></trkpt><trkpt lat="43.37021600071858" lon="11.428564327455438"><ele>287.0</ele><time>2026-04-25T08:44:31.001Z</time></trkpt><trkpt lat="43.370112205116506" lon="11.428551059576424"><ele>287.0</ele><time>2026-04-25T08:44:32.001Z</time></trkpt><trkpt lat="43.3700354669322" lon="11.428557914149325"><ele>287.0</ele><time>2026-04-25T08:44:33.001Z</time></trkpt><trkpt lat="43.36996737674295" lon="11.428539782967835"><ele>287.0</ele><time>2026-04-25T08:44:35.001Z</time></trkpt><trkpt lat="43.36988858881534" lon="11.428523891131576"><ele>287.0</ele><time>2026-04-25T08:46:04.001Z</time></trkpt><trkpt lat="43.3697458020359" lon="11.428509443659241"><ele>287.0</ele><time>2026-04-25T08:46:06.001Z</time></trkpt><trkpt lat="43.36964973998649" lon="11.428500348018227"><ele>285.75</ele><time>2026-04-25T08:46:07.001Z</time></trkpt><trkpt lat="43.36953685514454" lon="11.428510176049157"><ele>284.5</ele><time>2026-04-25T08:46:08.001Z</time></trkpt><trkpt lat="43.36941188584664" lon="11.428503114214543"><ele>283.25</ele><time>2026-04-25T08:46:09.001Z</time></trkpt><trkpt lat="43.369279792881876" lon="11.42849634276912"><ele>282.0</ele><time>2026-04-25T08:46:10.001Z</time></trkpt><trkpt lat="43.3691393823503" lon="11.428495780272767"><ele>282.0</ele><time>2026-04-25T08:46:11.001Z</time></trkpt><trkpt lat="43.36899301360744" lon="11.428466825964607"><ele>282.0</ele><time>2026-04-25T08:46:12.001Z</time></trkpt><trkpt lat="43.36884894183595" lon="11.428452643550925"><ele>282.0</ele><time>2026-04-25T08:46:13.001Z</time></trkpt><trkpt lat="43.36870280908829" lon="11.428427822588901"><ele>282.0</ele><time>2026-04-25T08:46:14.001Z</time></trkpt><trkpt lat="43.368563580942556" lon="11.428346479719885"><ele>282.5</ele><time>2026-04-25T08:46:15.001Z</time></trkpt><trkpt lat="43.36843647239465" lon="11.42824629774186"><ele>283.0</ele><time>2026-04-25T08:46:16.001Z</time></trkpt><trkpt lat="43.36832800654416" lon="11.428138724281478"><ele>283.5</ele><time>2026-04-25T08:46:17.001Z</time></trkpt><trkpt lat="43.368234088021026" lon="11.428016094292266"><ele>284.0</ele><time>2026-04-25T08:46:18.001Z</time></trkpt><trkpt lat="43.368145830519836" lon="11.427864649878952"><ele>284.0</ele><time>2026-04-25T08:46:19.001Z</time></trkpt><trkpt lat="43.36807763675384" lon="11.427683837869443"><ele>284.0</ele><time>2026-04-25T08:46:20.001Z</time></trkpt><trkpt lat="43.36802478824459" lon="11.427481022779807"><ele>284.0</ele><time>2026-04-25T08:46:21.001Z</time></trkpt><trkpt lat="43.36797945839838" lon="11.427295583007904"><ele>284.0</ele><time>2026-04-25T08:46:22.001Z</time></trkpt><trkpt lat="43.36791825745462" lon="11.427117242620708"><ele>284.0</ele><time>2026-04-25T08:46:23.001Z</time></trkpt><trkpt lat="43.36783591708553" lon="11.42695814054552"><ele>284.0</ele><time>2026-04-25T08:46:24.001Z</time></trkpt><trkpt lat="43.36773128440305" lon="11.426840357542838"><ele>284.0</ele><time>2026-04-25T08:46:25.001Z</time></trkpt><trkpt lat="43.36759972150017" lon="11.42675686141716"><ele>284.0</ele><time>2026-04-25T08:46:26.001Z</time></trkpt><trkpt lat="43.367449371535336" lon="11.426692360639672"><ele>284.0</ele><time>2026-04-25T08:46:27.001Z</time></trkpt><trkpt lat="43.36728287076853" lon="11.426631362824327"><ele>284.0</ele><time>2026-04-25T08:46:28.001Z</time></trkpt><trkpt lat="43.36711895750998" lon="11.426566507332826"><ele>284.0</ele><time>2026-04-25T08:46:29.001Z</time></trkpt><trkpt lat="43.366965412274226" lon="11.426495868468182"><ele>285.6666666666667</ele><time>2026-04-25T08:46:30.001Z</time></trkpt><trkpt lat="43.36682015216507" lon="11.42642669881056"><ele>287.3333333333333</ele><time>2026-04-25T08:46:31.001Z</time></trkpt><trkpt lat="43.36667093924374" lon="11.426368799968305"><ele>289.0</ele><time>2026-04-25T08:46:32.001Z</time></trkpt><trkpt lat="43.366512301116686" lon="11.42633849953785"><ele>288.5</ele><time>2026-04-25T08:46:33.001Z</time></trkpt><trkpt lat="43.36635390537312" lon="11.426345094997965"><ele>288.0</ele><time>2026-04-25T08:46:34.001Z</time></trkpt><trkpt lat="43.36621087863888" lon="11.426383415115943"><ele>287.5</ele><time>2026-04-25T08:46:35.001Z</time></trkpt><trkpt lat="43.366075160552306" lon="11.426403962006368"><ele>287.0</ele><time>2026-04-25T08:46:36.001Z</time></trkpt><trkpt lat="43.36595155103184" lon="11.426391870585832"><ele>287.0</ele><time>2026-04-25T08:46:37.001Z</time></trkpt><trkpt lat="43.36584116670087" lon="11.426334941105946"><ele>287.0</ele><time>2026-04-25T08:46:38.001Z</time></trkpt><trkpt lat="43.365752949748995" lon="11.426238453605116"><ele>287.0</ele><time>2026-04-25T08:46:39.001Z</time></trkpt><trkpt lat="43.36568398825658" lon="11.42612082064516"><ele>287.0</ele><time>2026-04-25T08:46:40.001Z</time></trkpt><trkpt lat="43.36562864359658" lon="11.426032175964536"><ele>287.0</ele><time>2026-04-25T08:46:41.001Z</time></trkpt><trkpt lat="43.365561133672465" lon="11.42591507241935"><ele>286.0</ele><time>2026-04-25T08:46:43.001Z</time></trkpt><trkpt lat="43.365510937656886" lon="11.425831448554376"><ele>285.0</ele><time>2026-04-25T08:46:44.001Z</time></trkpt><trkpt lat="43.365444367178995" lon="11.42573000731985"><ele>284.0</ele><time>2026-04-25T08:46:45.001Z</time></trkpt><trkpt lat="43.36536577394365" lon="11.425608518731543"><ele>283.0</ele><time>2026-04-25T08:46:46.001Z</time></trkpt><trkpt lat="43.36527963755267" lon="11.425468775586186"><ele>282.0</ele><time>2026-04-25T08:46:47.001Z</time></trkpt><trkpt lat="43.36518650960442" lon="11.425315258227387"><ele>281.6666666666667</ele><time>2026-04-25T08:46:48.001Z</time></trkpt><trkpt lat="43.36508646007997" lon="11.425154534057068"><ele>281.33333333333337</ele><time>2026-04-25T08:46:49.001Z</time></trkpt><trkpt lat="43.36498622392375" lon="11.424995028347963"><ele>281.0</ele><time>2026-04-25T08:46:50.001Z</time></trkpt><trkpt lat="43.36489125255036" lon="11.42483611710905"><ele>281.0</ele><time>2026-04-25T08:46:51.001Z</time></trkpt><trkpt lat="43.36480542980274" lon="11.424674256529233"><ele>281.0</ele><time>2026-04-25T08:46:52.001Z</time></trkpt><trkpt lat="43.3647349040095" lon="11.424508934875165"><ele>281.0</ele><time>2026-04-25T08:46:53.001Z</time></trkpt><trkpt lat="43.36467933559599" lon="11.424338367126493"><ele>281.0</ele><time>2026-04-25T08:46:54.001Z</time></trkpt><trkpt lat="43.364642861801485" lon="11.424158905747833"><ele>280.25</ele><time>2026-04-25T08:46:55.001Z</time></trkpt><trkpt lat="43.364617367070004" lon="11.423994210749507"><ele>279.5</ele><time>2026-04-25T08:46:56.001Z</time></trkpt><trkpt lat="43.36458572478742" lon="11.42384959474475"><ele>278.75</ele><time>2026-04-25T08:46:57.001Z</time></trkpt><trkpt lat="43.36455893332898" lon="11.42370394314717"><ele>278.0</ele><time>2026-04-25T08:46:58.001Z</time></trkpt><trkpt lat="43.36454537756022" lon="11.423528269927287"><ele>276.25</ele><time>2026-04-25T08:46:59.001Z</time></trkpt><trkpt lat="43.36453686094421" lon="11.42333832679688"><ele>274.5</ele><time>2026-04-25T08:47:00.001Z</time></trkpt><trkpt lat="43.36452712656204" lon="11.423133771982908"><ele>272.75</ele><time>2026-04-25T08:47:01.001Z</time></trkpt><trkpt lat="43.3645109607358" lon="11.422916591573646"><ele>271.0</ele><time>2026-04-25T08:47:02.001Z</time></trkpt><trkpt lat="43.36449570432263" lon="11.422689743451846"><ele>268.66666666666663</ele><time>2026-04-25T08:47:03.001Z</time></trkpt><trkpt lat="43.36448543697812" lon="11.422459287309213"><ele>266.3333333333333</ele><time>2026-04-25T08:47:04.001Z</time></trkpt><trkpt lat="43.36447417582444" lon="11.422230349665343"><ele>264.0</ele><time>2026-04-25T08:47:05.001Z</time></trkpt><trkpt lat="43.36446327402438" lon="11.42200525561169"><ele>261.6666666666667</ele><time>2026-04-25T08:47:06.001Z</time></trkpt><trkpt lat="43.36444969659848" lon="11.421791506071047"><ele>259.33333333333337</ele><time>2026-04-25T08:47:07.001Z</time></trkpt><trkpt lat="43.364435386395236" lon="11.421587053225533"><ele>257.0</ele><time>2026-04-25T08:47:08.001Z</time></trkpt><trkpt lat="43.36440217073994" lon="11.421386380457486"><ele>256.75</ele><time>2026-04-25T08:47:09.001Z</time></trkpt><trkpt lat="43.36434891540822" lon="11.421194832265211"><ele>256.5</ele><time>2026-04-25T08:47:10.001Z</time></trkpt><trkpt lat="43.36429192167761" lon="11.421007359501983"><ele>256.25</ele><time>2026-04-25T08:47:11.001Z</time></trkpt><trkpt lat="43.364233438455166" lon="11.420825102720858"><ele>256.0</ele><time>2026-04-25T08:47:12.001Z</time></trkpt><trkpt lat="43.36418082556902" lon="11.4206530941984"><ele>255.5</ele><time>2026-04-25T08:47:13.001Z</time></trkpt><trkpt lat="43.36413975155776" lon="11.420472283642626"><ele>255.0</ele><time>2026-04-25T08:47:14.001Z</time></trkpt><trkpt lat="43.36411224516595" lon="11.42027604869615"><ele>254.5</ele><time>2026-04-25T08:47:15.001Z</time></trkpt><trkpt lat="43.364089714430676" lon="11.42007879903867"><ele>254.0</ele><time>2026-04-25T08:47:16.001Z</time></trkpt><trkpt lat="43.36406404612823" lon="11.419875708892675"><ele>254.0</ele><time>2026-04-25T08:47:17.001Z</time></trkpt><trkpt lat="43.36404232827499" lon="11.419670809464295"><ele>254.0</ele><time>2026-04-25T08:47:18.001Z</time></trkpt><trkpt lat="43.36403012471273" lon="11.419468064465402"><ele>254.0</ele><time>2026-04-25T08:47:19.001Z</time></trkpt><trkpt lat="43.36402196679211" lon="11.419284080319217"><ele>254.0</ele><time>2026-04-25T08:47:20.001Z</time></trkpt><trkpt lat="43.36401474334279" lon="11.419123129313581"><ele>253.2</ele><time>2026-04-25T08:47:21.001Z</time></trkpt><trkpt lat="43.3640130409021" lon="11.418983563816374"><ele>252.39999999999998</ele><time>2026-04-25T08:47:22.001Z</time></trkpt><trkpt lat="43.36401433202488" lon="11.418866989580836"><ele>251.6</ele><time>2026-04-25T08:47:23.001Z</time></trkpt><trkpt lat="43.36403345709772" lon="11.418738108712587"><ele>250.8</ele><time>2026-04-25T08:47:25.001Z</time></trkpt><trkpt lat="43.36393451511255" lon="11.418668014355886"><ele>250.0</ele><time>2026-04-25T08:47:26.001Z</time></trkpt><trkpt lat="43.36386084029056" lon="11.418626687695797"><ele>248.0</ele><time>2026-04-25T08:47:27.001Z</time></trkpt><trkpt lat="43.36378654459607" lon="11.418587586465055"><ele>246.0</ele><time>2026-04-25T08:47:28.001Z</time></trkpt><trkpt lat="43.36368122228995" lon="11.418530790311456"><ele>244.0</ele><time>2026-04-25T08:47:30.001Z</time></trkpt><trkpt lat="43.36361063682441" lon="11.418448897607332"><ele>242.0</ele><time>2026-04-25T08:47:31.001Z</time></trkpt><trkpt lat="43.36351705577258" lon="11.418450490475387"><ele>240.0</ele><time>2026-04-25T08:47:32.001Z</time></trkpt><trkpt lat="43.363407679152026" lon="11.418449742270104"><ele>240.0</ele><time>2026-04-25T08:47:33.001Z</time></trkpt><trkpt lat="43.36327933019687" lon="11.418446891047164"><ele>240.0</ele><time>2026-04-25T08:47:34.001Z</time></trkpt><trkpt lat="43.363138358617604" lon="11.41843797425899"><ele>240.0</ele><time>2026-04-25T08:47:35.001Z</time></trkpt><trkpt lat="43.36298632984272" lon="11.41841158611389"><ele>240.0</ele><time>2026-04-25T08:47:36.001Z</time></trkpt><trkpt lat="43.36282285124512" lon="11.418385908739785"><ele>239.25</ele><time>2026-04-25T08:47:37.001Z</time></trkpt><trkpt lat="43.36266760496278" lon="11.418327030450428"><ele>238.5</ele><time>2026-04-25T08:47:38.001Z</time></trkpt><trkpt lat="43.36253111606845" lon="11.418280033102883"><ele>237.75</ele><time>2026-04-25T08:47:39.001Z</time></trkpt><trkpt lat="43.36241055718425" lon="11.41824529616077"><ele>237.0</ele><time>2026-04-25T08:47:40.001Z</time></trkpt><trkpt lat="43.362289746867695" lon="11.418246208740415"><ele>235.5</ele><time>2026-04-25T08:47:41.001Z</time></trkpt><trkpt lat="43.36216668889198" lon="11.418302431950996"><ele>234.0</ele><time>2026-04-25T08:47:42.001Z</time></trkpt><trkpt lat="43.36204523195191" lon="11.4184094329559"><ele>232.5</ele><time>2026-04-25T08:47:43.001Z</time></trkpt><trkpt lat="43.36192990068762" lon="11.418570433730705"><ele>231.0</ele><time>2026-04-25T08:47:44.001Z</time></trkpt><trkpt lat="43.361832562494236" lon="11.41874568377181"><ele>232.75</ele><time>2026-04-25T08:47:45.001Z</time></trkpt><trkpt lat="43.36173938962846" lon="11.418897744427872"><ele>234.5</ele><time>2026-04-25T08:47:46.001Z</time></trkpt><trkpt lat="43.36164159923973" lon="11.419032609760851"><ele>236.25</ele><time>2026-04-25T08:47:47.001Z</time></trkpt><trkpt lat="43.361517074168674" lon="11.419130794688808"><ele>238.0</ele><time>2026-04-25T08:47:48.001Z</time></trkpt><trkpt lat="43.36137073032897" lon="11.419197151177043"><ele>236.0</ele><time>2026-04-25T08:47:49.001Z</time></trkpt><trkpt lat="43.36120655967751" lon="11.419251297975501"><ele>234.0</ele><time>2026-04-25T08:47:50.001Z</time></trkpt><trkpt lat="43.36103673032312" lon="11.419309104698371"><ele>232.0</ele><time>2026-04-25T08:47:51Z</time></trkpt><trkpt lat="43.360856085322546" lon="11.419372180078872"><ele>232.0</ele><time>2026-04-25T08:47:52Z</time></trkpt><trkpt lat="43.36066851770174" lon="11.419439288687"><ele>232.0</ele><time>2026-04-25T08:47:53Z</time></trkpt><trkpt lat="43.3604737238106" lon="11.419512315010811"><ele>232.0</ele><time>2026-04-25T08:47:54Z</time></trkpt><trkpt lat="43.36027293005725" lon="11.41958724205204"><ele>232.0</ele><time>2026-04-25T08:47:55Z</time></trkpt><trkpt lat="43.36007166772594" lon="11.419661522129456"><ele>232.0</ele><time>2026-04-25T08:47:56Z</time></trkpt><trkpt lat="43.35987372655294" lon="11.419735658130268"><ele>232.0</ele><time>2026-04-25T08:47:57Z</time></trkpt><trkpt lat="43.3596861237913" lon="11.419805050929822"><ele>230.66666666666666</ele><time>2026-04-25T08:47:58Z</time></trkpt><trkpt lat="43.35951328769466" lon="11.419869460103238"><ele>229.33333333333331</ele><time>2026-04-25T08:47:59Z</time></trkpt><trkpt lat="43.35937314940826" lon="11.419924317314507"><ele>228.0</ele><time>2026-04-25T08:48:00Z</time></trkpt><trkpt lat="43.3592505174687" lon="11.419960797539893"><ele>228.0</ele><time>2026-04-25T08:48:01Z</time></trkpt><trkpt lat="43.35913070904085" lon="11.419955169288405"><ele>228.0</ele><time>2026-04-25T08:48:02Z</time></trkpt><trkpt lat="43.359020463860546" lon="11.41990061371483"><ele>228.0</ele><time>2026-04-25T08:48:03Z</time></trkpt><trkpt lat="43.35892323619947" lon="11.419802786447036"><ele>228.0</ele><time>2026-04-25T08:48:04Z</time></trkpt><trkpt lat="43.35883780806263" lon="11.419673183970493"><ele>226.5</ele><time>2026-04-25T08:48:05Z</time></trkpt><trkpt lat="43.358752821061465" lon="11.419532812102581"><ele>225.0</ele><time>2026-04-25T08:48:06Z</time></trkpt><trkpt lat="43.35866034821268" lon="11.419391977324192"><ele>223.5</ele><time>2026-04-25T08:48:07Z</time></trkpt><trkpt lat="43.35856813732725" lon="11.419251357853405"><ele>222.0</ele><time>2026-04-25T08:48:08Z</time></trkpt><trkpt lat="43.35847247942507" lon="11.419107740634047"><ele>222.0</ele><time>2026-04-25T08:48:09Z</time></trkpt><trkpt lat="43.3583747581459" lon="11.41896052619596"><ele>222.0</ele><time>2026-04-25T08:48:10Z</time></trkpt><trkpt lat="43.35827527608155" lon="11.41880597831288"><ele>222.0</ele><time>2026-04-25T08:48:11Z</time></trkpt><trkpt lat="43.3581746777045" lon="11.4186479219125"><ele>222.0</ele><time>2026-04-25T08:48:12Z</time></trkpt><trkpt lat="43.35807260242308" lon="11.418489877086534"><ele>221.0</ele><time>2026-04-25T08:48:13Z</time></trkpt><trkpt lat="43.35796602757179" lon="11.418334643727835"><ele>220.0</ele><time>2026-04-25T08:48:14Z</time></trkpt><trkpt lat="43.357860509609054" lon="11.418177177894659"><ele>219.0</ele><time>2026-04-25T08:48:15Z</time></trkpt><trkpt lat="43.35775558978555" lon="11.418018492276145"><ele>219.33333333333331</ele><time>2026-04-25T08:48:16Z</time></trkpt><trkpt lat="43.35765084473969" lon="11.41786074006415"><ele>219.66666666666666</ele><time>2026-04-25T08:48:17Z</time></trkpt><trkpt lat="43.357547531549514" lon="11.417702401760826"><ele>220.0</ele><time>2026-04-25T08:48:18Z</time></trkpt><trkpt lat="43.357450009938226" lon="11.41755016515423"><ele>220.0</ele><time>2026-04-25T08:48:19Z</time></trkpt><trkpt lat="43.35735944157224" lon="11.417409723354387"><ele>220.0</ele><time>2026-04-25T08:48:20Z</time></trkpt><trkpt lat="43.35727224976778" lon="11.417277173992252"><ele>220.0</ele><time>2026-04-25T08:48:21Z</time></trkpt><trkpt lat="43.35719134633902" lon="11.417153952734239"><ele>220.0</ele><time>2026-04-25T08:48:22Z</time></trkpt><trkpt lat="43.35711482041539" lon="11.417037112087028"><ele>219.8</ele><time>2026-04-25T08:48:23Z</time></trkpt><trkpt lat="43.35704564623742" lon="11.416929065880547"><ele>219.6</ele><time>2026-04-25T08:48:24Z</time></trkpt><trkpt lat="43.356976392427924" lon="11.41682527729454"><ele>219.39999999999998</ele><time>2026-04-25T08:48:25Z</time></trkpt><trkpt lat="43.35690492578437" lon="11.416718010797311"><ele>219.2</ele><time>2026-04-25T08:48:26Z</time></trkpt><trkpt lat="43.35683059730753" lon="11.41660641293317"><ele>219.0</ele><time>2026-04-25T08:48:27Z</time></trkpt><trkpt lat="43.35675601402049" lon="11.416483982823793"><ele>219.0</ele><time>2026-04-25T08:48:28Z</time></trkpt><trkpt lat="43.35668069178868" lon="11.41635237832316"><ele>219.0</ele><time>2026-04-25T08:48:29Z</time></trkpt><trkpt lat="43.35660514873157" lon="11.416216224173132"><ele>219.0</ele><time>2026-04-25T08:48:30Z</time></trkpt><trkpt lat="43.35653013298372" lon="11.41608861196167"><ele>219.0</ele><time>2026-04-25T08:48:31Z</time></trkpt><trkpt lat="43.35645412541539" lon="11.415977815911981"><ele>219.39999999999998</ele><time>2026-04-25T08:48:32Z</time></trkpt><trkpt lat="43.356371831925124" lon="11.415898665833227"><ele>219.79999999999998</ele><time>2026-04-25T08:48:33Z</time></trkpt><trkpt lat="43.356281772950986" lon="11.41585858451513"><ele>220.20000000000002</ele><time>2026-04-25T08:48:34Z</time></trkpt><trkpt lat="43.356182017183095" lon="11.41585043070523"><ele>220.60000000000002</ele><time>2026-04-25T08:48:35Z</time></trkpt><trkpt lat="43.35607640487037" lon="11.41586894365248"><ele>221.0</ele><time>2026-04-25T08:48:36Z</time></trkpt><trkpt lat="43.35597446874722" lon="11.415909485763281"><ele>221.25</ele><time>2026-04-25T08:48:37Z</time></trkpt><trkpt lat="43.35586986086867" lon="11.415972778537133"><ele>221.5</ele><time>2026-04-25T08:48:38Z</time></trkpt><trkpt lat="43.35576388549345" lon="11.416042411527979"><ele>221.75</ele><time>2026-04-25T08:48:39Z</time></trkpt><trkpt lat="43.35565712969513" lon="11.416121971734194"><ele>222.0</ele><time>2026-04-25T08:48:40Z</time></trkpt><trkpt lat="43.35555401428682" lon="11.416194035185072"><ele>223.0</ele><time>2026-04-25T08:48:41Z</time></trkpt><trkpt lat="43.35544994375752" lon="11.416241643515985"><ele>224.0</ele><time>2026-04-25T08:48:42Z</time></trkpt><trkpt lat="43.35534133268263" lon="11.416259913322298"><ele>225.0</ele><time>2026-04-25T08:48:43Z</time></trkpt><trkpt lat="43.355231166552855" lon="11.41625195481819"><ele>226.0</ele><time>2026-04-25T08:48:44Z</time></trkpt><trkpt lat="43.35511830694486" lon="11.416233505546549"><ele>227.0</ele><time>2026-04-25T08:48:45Z</time></trkpt><trkpt lat="43.3550023022691" lon="11.41621627882327"><ele>227.0</ele><time>2026-04-25T08:48:46Z</time></trkpt><trkpt lat="43.35488647713356" lon="11.4162037737333"><ele>227.0</ele><time>2026-04-25T08:48:47Z</time></trkpt><trkpt lat="43.35476896624676" lon="11.416192472779342"><ele>227.0</ele><time>2026-04-25T08:48:48Z</time></trkpt><trkpt lat="43.35465288996276" lon="11.416176927950398"><ele>227.0</ele><time>2026-04-25T08:48:49Z</time></trkpt><trkpt lat="43.35453749783336" lon="11.416159756382676"><ele>226.5</ele><time>2026-04-25T08:48:50Z</time></trkpt><trkpt lat="43.35441965159461" lon="11.4161425422789"><ele>226.0</ele><time>2026-04-25T08:48:51Z</time></trkpt><trkpt lat="43.35430251697826" lon="11.416130792667033"><ele>225.5</ele><time>2026-04-25T08:48:52Z</time></trkpt><trkpt lat="43.354184807288476" lon="11.416118789399187"><ele>225.0</ele><time>2026-04-25T08:48:53Z</time></trkpt><trkpt lat="43.35406794994001" lon="11.416104608803126"><ele>225.0</ele><time>2026-04-25T08:48:54Z</time></trkpt><trkpt lat="43.35395167580299" lon="11.416090145756037"><ele>225.0</ele><time>2026-04-25T08:48:55Z</time></trkpt><trkpt lat="43.35383619706511" lon="11.416074327472263"><ele>225.0</ele><time>2026-04-25T08:48:56Z</time></trkpt><trkpt lat="43.35371997948223" lon="11.416059301925687"><ele>225.0</ele><time>2026-04-25T08:48:57Z</time></trkpt><trkpt lat="43.35360487164411" lon="11.416038280975116"><ele>224.5</ele><time>2026-04-25T08:48:58Z</time></trkpt><trkpt lat="43.35349272430558" lon="11.416001389570331"><ele>224.0</ele><time>2026-04-25T08:48:59Z</time></trkpt><trkpt lat="43.35337927525948" lon="11.415962140691128"><ele>223.5</ele><time>2026-04-25T08:49:00Z</time></trkpt><trkpt lat="43.35326483031266" lon="11.41592967380885"><ele>223.0</ele><time>2026-04-25T08:49:01Z</time></trkpt><trkpt lat="43.353150164057226" lon="11.415901450059762"><ele>223.0</ele><time>2026-04-25T08:49:02Z</time></trkpt><trkpt lat="43.35303607060305" lon="11.415869581609932"><ele>223.0</ele><time>2026-04-25T08:49:03Z</time></trkpt><trkpt lat="43.35292360319268" lon="11.4158344062108"><ele>223.0</ele><time>2026-04-25T08:49:04Z</time></trkpt><trkpt lat="43.352810985153965" lon="11.415800169446785"><ele>223.0</ele><time>2026-04-25T08:49:05Z</time></trkpt><trkpt lat="43.35269898777217" lon="11.415769448411345"><ele>223.0</ele><time>2026-04-25T08:49:06Z</time></trkpt><trkpt lat="43.35258747021555" lon="11.415739017632122"><ele>223.0</ele><time>2026-04-25T08:49:07.001Z</time></trkpt><trkpt lat="43.35247775386752" lon="11.415706821549428"><ele>223.0</ele><time>2026-04-25T08:49:08.001Z</time></trkpt><trkpt lat="43.352368709074085" lon="11.415676208094546"><ele>223.0</ele><time>2026-04-25T08:49:09.001Z</time></trkpt><trkpt lat="43.35226015322155" lon="11.415645268344587"><ele>223.0</ele><time>2026-04-25T08:49:10.001Z</time></trkpt><trkpt lat="43.352155885593454" lon="11.415613381827033"><ele>222.60000000000002</ele><time>2026-04-25T08:49:11.001Z</time></trkpt><trkpt lat="43.35205698572934" lon="11.41558893190461"><ele>222.20000000000002</ele><time>2026-04-25T08:49:12.001Z</time></trkpt><trkpt lat="43.3519571094663" lon="11.415563444421075"><ele>221.8</ele><time>2026-04-25T08:49:13.001Z</time></trkpt><trkpt lat="43.351854163811765" lon="11.415530286992809"><ele>221.4</ele><time>2026-04-25T08:49:14.001Z</time></trkpt><trkpt lat="43.351747787381974" lon="11.415493356526879"><ele>221.0</ele><time>2026-04-25T08:49:15.001Z</time></trkpt><trkpt lat="43.35163621801741" lon="11.415460105868796"><ele>221.0</ele><time>2026-04-25T08:49:16.001Z</time></trkpt><trkpt lat="43.35151925106259" lon="11.415428844862625"><ele>221.0</ele><time>2026-04-25T08:49:17.001Z</time></trkpt><trkpt lat="43.35139691223563" lon="11.415397316021252"><ele>221.0</ele><time>2026-04-25T08:49:18.001Z</time></trkpt><trkpt lat="43.35126975126533" lon="11.415361535083996"><ele>221.0</ele><time>2026-04-25T08:49:19.001Z</time></trkpt><trkpt lat="43.35113066450099" lon="11.415322253189872"><ele>220.66666666666669</ele><time>2026-04-25T08:49:20.001Z</time></trkpt><trkpt lat="43.35097425543996" lon="11.415280478917074"><ele>220.33333333333331</ele><time>2026-04-25T08:49:21.001Z</time></trkpt><trkpt lat="43.35081006249759" lon="11.415233784171592"><ele>220.0</ele><time>2026-04-25T08:49:22.001Z</time></trkpt><trkpt lat="43.35064925230919" lon="11.415165369765852"><ele>222.0</ele><time>2026-04-25T08:49:23.001Z</time></trkpt><trkpt lat="43.35048763965607" lon="11.415141593547366"><ele>224.0</ele><time>2026-04-25T08:49:24.001Z</time></trkpt><trkpt lat="43.35034323151466" lon="11.415094178180029"><ele>226.0</ele><time>2026-04-25T08:49:25.001Z</time></trkpt><trkpt lat="43.3502093112551" lon="11.415032588398272"><ele>226.0</ele><time>2026-04-25T08:49:26.001Z</time></trkpt><trkpt lat="43.35008898514536" lon="11.414935908393193"><ele>226.0</ele><time>2026-04-25T08:49:27.001Z</time></trkpt><trkpt lat="43.349999684336" lon="11.414779283221351"><ele>226.0</ele><time>2026-04-25T08:49:28.001Z</time></trkpt><trkpt lat="43.34990834310393" lon="11.414616700718156"><ele>226.0</ele><time>2026-04-25T08:49:29.001Z</time></trkpt><trkpt lat="43.34979550430274" lon="11.414447960030019"><ele>226.33333333333331</ele><time>2026-04-25T08:49:30.001Z</time></trkpt><trkpt lat="43.34969274940262" lon="11.414258145315454"><ele>226.66666666666669</ele><time>2026-04-25T08:49:31.001Z</time></trkpt><trkpt lat="43.34960628010639" lon="11.414051894763894"><ele>227.0</ele><time>2026-04-25T08:49:32.001Z</time></trkpt><trkpt lat="43.34951663035762" lon="11.413837615293147"><ele>227.0</ele><time>2026-04-25T08:49:33.001Z</time></trkpt><trkpt lat="43.34942615389424" lon="11.413615458453869"><ele>227.0</ele><time>2026-04-25T08:49:34.001Z</time></trkpt><trkpt lat="43.34934359230157" lon="11.413383971552788"><ele>227.0</ele><time>2026-04-25T08:49:35.001Z</time></trkpt><trkpt lat="43.349240479326475" lon="11.413169621737559"><ele>226.33333333333334</ele><time>2026-04-25T08:49:36.001Z</time></trkpt><trkpt lat="43.34911665867483" lon="11.412976675793892"><ele>225.66666666666669</ele><time>2026-04-25T08:49:37.001Z</time></trkpt><trkpt lat="43.34898555713672" lon="11.41281741381726"><ele>225.0</ele><time>2026-04-25T08:49:38.001Z</time></trkpt><trkpt lat="43.34888865067255" lon="11.41264050390652"><ele>226.75</ele><time>2026-04-25T08:49:39.001Z</time></trkpt><trkpt lat="43.3488011898507" lon="11.41247874105665"><ele>228.5</ele><time>2026-04-25T08:49:40.001Z</time></trkpt><trkpt lat="43.34873281332682" lon="11.412323402028838"><ele>230.25</ele><time>2026-04-25T08:49:41.001Z</time></trkpt><trkpt lat="43.34867790178453" lon="11.412173733206178"><ele>232.0</ele><time>2026-04-25T08:49:42.001Z</time></trkpt><trkpt lat="43.34863207879938" lon="11.412023958211677"><ele>232.0</ele><time>2026-04-25T08:49:43.001Z</time></trkpt><trkpt lat="43.348576983241976" lon="11.411868135832938"><ele>232.0</ele><time>2026-04-25T08:49:44.001Z</time></trkpt><trkpt lat="43.348548291641826" lon="11.411675319592613"><ele>232.0</ele><time>2026-04-25T08:49:45.001Z</time></trkpt><trkpt lat="43.34852914767687" lon="11.411464632143336"><ele>232.0</ele><time>2026-04-25T08:49:46.001Z</time></trkpt><trkpt lat="43.34851546937548" lon="11.411238965319463"><ele>234.0</ele><time>2026-04-25T08:49:47.001Z</time></trkpt><trkpt lat="43.34849619489562" lon="11.411009360983758"><ele>236.0</ele><time>2026-04-25T08:49:48.001Z</time></trkpt><trkpt lat="43.348464199256114" lon="11.410767621529896"><ele>238.0</ele><time>2026-04-25T08:49:49.001Z</time></trkpt><trkpt lat="43.34843252383934" lon="11.410506818860613"><ele>238.66666666666666</ele><time>2026-04-25T08:49:50.001Z</time></trkpt><trkpt lat="43.34837048790442" lon="11.410243995378005"><ele>239.33333333333331</ele><time>2026-04-25T08:49:51.001Z</time></trkpt><trkpt lat="43.3483020504012" lon="11.409972448788197"><ele>240.0</ele><time>2026-04-25T08:49:52.001Z</time></trkpt><trkpt lat="43.34823263483601" lon="11.40970116740721"><ele>240.0</ele><time>2026-04-25T08:49:53.001Z</time></trkpt><trkpt lat="43.34815192099183" lon="11.409449244825602"><ele>240.0</ele><time>2026-04-25T08:49:54.001Z</time></trkpt><trkpt lat="43.34810949092083" lon="11.409202681060266"><ele>240.0</ele><time>2026-04-25T08:49:55.001Z</time></trkpt><trkpt lat="43.3480496018091" lon="11.40896663555404"><ele>248.0</ele><time>2026-04-25T08:49:56Z</time></trkpt><trkpt lat="43.34802950858175" lon="11.408709407767132"><ele>256.0</ele><time>2026-04-25T08:49:57Z</time></trkpt><trkpt lat="43.348022974695084" lon="11.408447262612075"><ele>264.0</ele><time>2026-04-25T08:49:58Z</time></trkpt><trkpt lat="43.34801918558541" lon="11.408179850168445"><ele>266.0</ele><time>2026-04-25T08:49:59Z</time></trkpt><trkpt lat="43.348019224512676" lon="11.407909449615351"><ele>268.0</ele><time>2026-04-25T08:50:00Z</time></trkpt><trkpt lat="43.348026046160875" lon="11.407633479991961"><ele>270.0</ele><time>2026-04-25T08:50:01Z</time></trkpt><trkpt lat="43.34803709136978" lon="11.40736226618995"><ele>263.0</ele><time>2026-04-25T08:50:02Z</time></trkpt><trkpt lat="43.34805070283083" lon="11.40711273663112"><ele>256.0</ele><time>2026-04-25T08:50:03Z</time></trkpt><trkpt lat="43.34806889065089" lon="11.406880618510781"><ele>249.0</ele><time>2026-04-25T08:50:04Z</time></trkpt><trkpt lat="43.34809011732515" lon="11.406649879074678"><ele>249.0</ele><time>2026-04-25T08:50:05Z</time></trkpt><trkpt lat="43.34812715716334" lon="11.406415383452615"><ele>249.0</ele><time>2026-04-25T08:50:06Z</time></trkpt><trkpt lat="43.34818533452893" lon="11.406184734605478"><ele>249.0</ele><time>2026-04-25T08:50:07Z</time></trkpt><trkpt lat="43.348264415143525" lon="11.405955999089928"><ele>251.33333333333331</ele><time>2026-04-25T08:50:08Z</time></trkpt><trkpt lat="43.348340815009685" lon="11.405719826560638"><ele>253.66666666666666</ele><time>2026-04-25T08:50:09Z</time></trkpt><trkpt lat="43.348398021496266" lon="11.40547683652577"><ele>256.0</ele><time>2026-04-25T08:50:10Z</time></trkpt><trkpt lat="43.348430130799805" lon="11.405225682540726"><ele>259.66666666666663</ele><time>2026-04-25T08:50:11Z</time></trkpt><trkpt lat="43.3484486395322" lon="11.404974766631529"><ele>263.3333333333333</ele><time>2026-04-25T08:50:12Z</time></trkpt><trkpt lat="43.34847378868518" lon="11.404744937201684"><ele>267.0</ele><time>2026-04-25T08:50:13Z</time></trkpt><trkpt lat="43.34852086086523" lon="11.404539195064709"><ele>267.5</ele><time>2026-04-25T08:50:14Z</time></trkpt><trkpt lat="43.348591207994446" lon="11.404353993289991"><ele>268.0</ele><time>2026-04-25T08:50:15Z</time></trkpt><trkpt lat="43.348672949860266" lon="11.404191016468701"><ele>268.5</ele><time>2026-04-25T08:50:16Z</time></trkpt><trkpt lat="43.348753920208516" lon="11.404056776256647"><ele>269.0</ele><time>2026-04-25T08:50:17Z</time></trkpt><trkpt lat="43.348842344932436" lon="11.403927579225375"><ele>269.75</ele><time>2026-04-25T08:50:18Z</time></trkpt><trkpt lat="43.34894021717865" lon="11.403793817773632"><ele>270.5</ele><time>2026-04-25T08:50:19Z</time></trkpt><trkpt lat="43.34902676815462" lon="11.40364254242655"><ele>271.25</ele><time>2026-04-25T08:50:20Z</time></trkpt><trkpt lat="43.34908363037225" lon="11.403472075647091"><ele>272.0</ele><time>2026-04-25T08:50:21Z</time></trkpt><trkpt lat="43.349118851921844" lon="11.403273939650223"><ele>272.0</ele><time>2026-04-25T08:50:22Z</time></trkpt><trkpt lat="43.3491363838435" lon="11.403056779591967"><ele>272.0</ele><time>2026-04-25T08:50:23Z</time></trkpt><trkpt lat="43.34915259934621" lon="11.402822858437064"><ele>272.0</ele><time>2026-04-25T08:50:24Z</time></trkpt><trkpt lat="43.34917112374887" lon="11.402585248002485"><ele>273.75</ele><time>2026-04-25T08:50:25Z</time></trkpt><trkpt lat="43.34918613998738" lon="11.402366992536285"><ele>275.5</ele><time>2026-04-25T08:50:26Z</time></trkpt><trkpt lat="43.34920402780814" lon="11.402166140344033"><ele>277.25</ele><time>2026-04-25T08:50:27Z</time></trkpt><trkpt lat="43.34923421367649" lon="11.401980533028414"><ele>279.0</ele><time>2026-04-25T08:50:28Z</time></trkpt><trkpt lat="43.34927851769938" lon="11.4018174436028"><ele>279.59999999999997</ele><time>2026-04-25T08:50:29Z</time></trkpt><trkpt lat="43.34933996536251" lon="11.40168804619278"><ele>280.2</ele><time>2026-04-25T08:50:30Z</time></trkpt><trkpt lat="43.34942027143664" lon="11.401589986508224"><ele>280.79999999999995</ele><time>2026-04-25T08:50:31Z</time></trkpt><trkpt lat="43.349518224442605" lon="11.401532504503844"><ele>281.4</ele><time>2026-04-25T08:50:32Z</time></trkpt><trkpt lat="43.34963245067037" lon="11.4015221700402"><ele>282.0</ele><time>2026-04-25T08:50:33Z</time></trkpt><trkpt lat="43.34976193403209" lon="11.401560527466232"><ele>282.0</ele><time>2026-04-25T08:50:34Z</time></trkpt><trkpt lat="43.34988185161159" lon="11.401622406065453"><ele>282.0</ele><time>2026-04-25T08:50:35Z</time></trkpt><trkpt lat="43.34998469999296" lon="11.401665218511816"><ele>282.0</ele><time>2026-04-25T08:50:36Z</time></trkpt><trkpt lat="43.35007853266208" lon="11.401662289278446"><ele>282.0</ele><time>2026-04-25T08:50:37Z</time></trkpt><trkpt lat="43.3501601493852" lon="11.401610106694081"><ele>282.0</ele><time>2026-04-25T08:50:38Z</time></trkpt><trkpt lat="43.35022344500861" lon="11.401516062994132"><ele>282.0</ele><time>2026-04-25T08:50:39Z</time></trkpt><trkpt lat="43.35025068977724" lon="11.401393032574987"><ele>282.0</ele><time>2026-04-25T08:50:40Z</time></trkpt><trkpt lat="43.35023108465147" lon="11.401262488694059"><ele>282.0</ele><time>2026-04-25T08:50:41Z</time></trkpt><trkpt lat="43.350168842186854" lon="11.401139342173112"><ele>282.0</ele><time>2026-04-25T08:50:42Z</time></trkpt><trkpt lat="43.350079478792395" lon="11.40101597537859"><ele>282.0</ele><time>2026-04-25T08:50:43Z</time></trkpt><trkpt lat="43.34998203199265" lon="11.400884289622411"><ele>284.5</ele><time>2026-04-25T08:50:44Z</time></trkpt><trkpt lat="43.34987142726405" lon="11.400752392680289"><ele>287.0</ele><time>2026-04-25T08:50:45Z</time></trkpt><trkpt lat="43.34975288667492" lon="11.400659691725231"><ele>289.5</ele><time>2026-04-25T08:50:46Z</time></trkpt><trkpt lat="43.34962496776417" lon="11.400621122218027"><ele>292.0</ele><time>2026-04-25T08:50:47Z</time></trkpt><trkpt lat="43.349484975698914" lon="11.4006342008573"><ele>292.66666666666663</ele><time>2026-04-25T08:50:48Z</time></trkpt><trkpt lat="43.3493415397462" lon="11.400696664479408"><ele>293.3333333333333</ele><time>2026-04-25T08:50:49Z</time></trkpt><trkpt lat="43.349196217121104" lon="11.400785869756854"><ele>294.0</ele><time>2026-04-25T08:50:50Z</time></trkpt><trkpt lat="43.349049291376204" lon="11.400870542675458"><ele>296.0</ele><time>2026-04-25T08:50:51Z</time></trkpt><trkpt lat="43.34880516717094" lon="11.401033545208668"><ele>298.0</ele><time>2026-04-25T08:50:53Z</time></trkpt><trkpt lat="43.34870383011343" lon="11.401076022816435"><ele>300.0</ele><time>2026-04-25T08:50:54Z</time></trkpt><trkpt lat="43.34861300690169" lon="11.401033664372479"><ele>300.0</ele><time>2026-04-25T08:50:55Z</time></trkpt><trkpt lat="43.348531267644084" lon="11.400974676883836"><ele>300.0</ele><time>2026-04-25T08:50:56Z</time></trkpt><trkpt lat="43.3484336332845" lon="11.400894035521413"><ele>300.0</ele><time>2026-04-25T08:50:57Z</time></trkpt><trkpt lat="43.348340226582145" lon="11.400773852445138"><ele>300.0</ele><time>2026-04-25T08:50:58Z</time></trkpt><trkpt lat="43.34823649501638" lon="11.400649632558524"><ele>300.0</ele><time>2026-04-25T08:50:59Z</time></trkpt><trkpt lat="43.348121106476114" lon="11.400526966493791"><ele>300.0</ele><time>2026-04-25T08:51:00Z</time></trkpt><trkpt lat="43.34799634716414" lon="11.400417824104201"><ele>300.0</ele><time>2026-04-25T08:51:01Z</time></trkpt><trkpt lat="43.34787442713132" lon="11.400341667265792"><ele>300.0</ele><time>2026-04-25T08:51:02Z</time></trkpt><trkpt lat="43.34776352826678" lon="11.400276909002782"><ele>301.4</ele><time>2026-04-25T08:51:03Z</time></trkpt><trkpt lat="43.34766502798703" lon="11.400217430213615"><ele>302.8</ele><time>2026-04-25T08:51:04Z</time></trkpt><trkpt lat="43.34757589656895" lon="11.400157839283176"><ele>304.2</ele><time>2026-04-25T08:51:05Z</time></trkpt><trkpt lat="43.34749840839848" lon="11.400075232487987"><ele>305.6</ele><time>2026-04-25T08:51:06Z</time></trkpt><trkpt lat="43.34745906428014" lon="11.399958946437533"><ele>307.0</ele><time>2026-04-25T08:51:07Z</time></trkpt><trkpt lat="43.34741184337469" lon="11.399857147362871"><ele>307.0</ele><time>2026-04-25T08:51:08Z</time></trkpt><trkpt lat="43.34740654677769" lon="11.399737440747534"><ele>307.0</ele><time>2026-04-25T08:51:09Z</time></trkpt><trkpt lat="43.347429026848886" lon="11.399616263583424"><ele>307.0</ele><time>2026-04-25T08:51:10Z</time></trkpt><trkpt lat="43.347470527862434" lon="11.39951586094155"><ele>307.0</ele><time>2026-04-25T08:51:11Z</time></trkpt><trkpt lat="43.34753125655184" lon="11.399424047995899"><ele>307.0</ele><time>2026-04-25T08:51:12Z</time></trkpt><trkpt lat="43.3476051239905" lon="11.399343390665466"><ele>307.0</ele><time>2026-04-25T08:51:13Z</time></trkpt><trkpt lat="43.347702296954694" lon="11.399267122413768"><ele>307.25</ele><time>2026-04-25T08:51:14Z</time></trkpt><trkpt lat="43.34781377564348" lon="11.399187584055179"><ele>307.5</ele><time>2026-04-25T08:51:15Z</time></trkpt><trkpt lat="43.34793268622564" lon="11.399117060184736"><ele>307.75</ele><time>2026-04-25T08:51:16Z</time></trkpt><trkpt lat="43.348056099737725" lon="11.399070197315066"><ele>308.0</ele><time>2026-04-25T08:51:17Z</time></trkpt><trkpt lat="43.3481710897667" lon="11.399037871439242"><ele>308.4</ele><time>2026-04-25T08:51:18Z</time></trkpt><trkpt lat="43.34826491354081" lon="11.399014266324627"><ele>308.8</ele><time>2026-04-25T08:51:19Z</time></trkpt><trkpt lat="43.34833531203101" lon="11.399002757737456"><ele>309.2</ele><time>2026-04-25T08:51:20Z</time></trkpt><trkpt lat="43.34841067283799" lon="11.398979013008956"><ele>309.6</ele><time>2026-04-25T08:51:22Z</time></trkpt><trkpt lat="43.34837011389885" lon="11.398766301319501"><ele>310.0</ele><time>2026-04-25T08:51:26Z</time></trkpt><trkpt lat="43.348336425937106" lon="11.398667129440764"><ele>309.16666666666663</ele><time>2026-04-25T08:51:27Z</time></trkpt><trkpt lat="43.348286556223165" lon="11.39857561214494"><ele>308.3333333333333</ele><time>2026-04-25T08:51:28Z</time></trkpt><trkpt lat="43.3482221759104" lon="11.398498365478565"><ele>307.5</ele><time>2026-04-25T08:51:29Z</time></trkpt><trkpt lat="43.348143426154465" lon="11.398477878004636"><ele>306.6666666666667</ele><time>2026-04-25T08:51:30Z</time></trkpt><trkpt lat="43.348073697042885" lon="11.398474440907806"><ele>305.83333333333337</ele><time>2026-04-25T08:51:31Z</time></trkpt><trkpt lat="43.347998237541326" lon="11.398504318073492"><ele>305.0</ele><time>2026-04-25T08:51:32Z</time></trkpt><trkpt lat="43.347903451834966" lon="11.39853853227208"><ele>303.5</ele><time>2026-04-25T08:51:33Z</time></trkpt><trkpt lat="43.34779900087182" lon="11.39859183666824"><ele>302.0</ele><time>2026-04-25T08:51:34Z</time></trkpt><trkpt lat="43.34768208421607" lon="11.398629210418923"><ele>300.5</ele><time>2026-04-25T08:51:35Z</time></trkpt><trkpt lat="43.347549176061285" lon="11.398652829708386"><ele>299.0</ele><time>2026-04-25T08:51:36Z</time></trkpt><trkpt lat="43.34740632526541" lon="11.398675352755756"><ele>299.0</ele><time>2026-04-25T08:51:37Z</time></trkpt><trkpt lat="43.34726462632397" lon="11.398699629829002"><ele>299.0</ele><time>2026-04-25T08:51:38Z</time></trkpt><trkpt lat="43.347128445842905" lon="11.398721603848923"><ele>299.0</ele><time>2026-04-25T08:51:39Z</time></trkpt><trkpt lat="43.34700525627362" lon="11.398768421898843"><ele>299.0</ele><time>2026-04-25T08:51:40Z</time></trkpt><trkpt lat="43.34689130234699" lon="11.398808499354718"><ele>299.75</ele><time>2026-04-25T08:51:41Z</time></trkpt><trkpt lat="43.34679127177587" lon="11.398870956949144"><ele>300.5</ele><time>2026-04-25T08:51:42Z</time></trkpt><trkpt lat="43.34670295608096" lon="11.398965317858156"><ele>301.25</ele><time>2026-04-25T08:51:43Z</time></trkpt><trkpt lat="43.34659371281914" lon="11.399141545388083"><ele>302.0</ele><time>2026-04-25T08:51:44Z</time></trkpt><trkpt lat="43.34649898627799" lon="11.399309332250393"><ele>302.0</ele><time>2026-04-25T08:51:45Z</time></trkpt><trkpt lat="43.34639611225981" lon="11.39948659582494"><ele>302.0</ele><time>2026-04-25T08:51:46Z</time></trkpt><trkpt lat="43.3462885365124" lon="11.399664524698084"><ele>302.0</ele><time>2026-04-25T08:51:47Z</time></trkpt><trkpt lat="43.34618327871737" lon="11.399837781773574"><ele>301.0</ele><time>2026-04-25T08:51:48Z</time></trkpt><trkpt lat="43.346078880426674" lon="11.400002132715029"><ele>300.0</ele><time>2026-04-25T08:51:49Z</time></trkpt><trkpt lat="43.34597894269325" lon="11.400158175491626"><ele>299.0</ele><time>2026-04-25T08:51:50Z</time></trkpt><trkpt lat="43.34587958716783" lon="11.400309437114105"><ele>299.0</ele><time>2026-04-25T08:51:51Z</time></trkpt><trkpt lat="43.34578526269964" lon="11.400455846186265"><ele>299.0</ele><time>2026-04-25T08:51:52Z</time></trkpt><trkpt lat="43.34568364846952" lon="11.40058835528779"><ele>299.0</ele><time>2026-04-25T08:51:53Z</time></trkpt><trkpt lat="43.34560160624946" lon="11.400712132788618"><ele>299.0</ele><time>2026-04-25T08:51:54Z</time></trkpt><trkpt lat="43.34552830275208" lon="11.40082955757589"><ele>299.0</ele><time>2026-04-25T08:51:55Z</time></trkpt><trkpt lat="43.34545911625502" lon="11.400940894703966"><ele>299.0</ele><time>2026-04-25T08:51:56Z</time></trkpt><trkpt lat="43.34538637892632" lon="11.401005212455626"><ele>299.0</ele><time>2026-04-25T08:51:57Z</time></trkpt><trkpt lat="43.34531552622398" lon="11.401065572534291"><ele>299.0</ele><time>2026-04-25T08:51:58Z</time></trkpt><trkpt lat="43.345234801591474" lon="11.40112564238314"><ele>299.0</ele><time>2026-04-25T08:51:59Z</time></trkpt><trkpt lat="43.345137212789545" lon="11.401160015550722"><ele>299.0</ele><time>2026-04-25T08:52:00Z</time></trkpt><trkpt lat="43.34501842127507" lon="11.401208708276119"><ele>299.0</ele><time>2026-04-25T08:52:01Z</time></trkpt><trkpt lat="43.344889381678605" lon="11.4012576686111"><ele>299.0</ele><time>2026-04-25T08:52:02Z</time></trkpt><trkpt lat="43.34475962190484" lon="11.401297770941866"><ele>299.0</ele><time>2026-04-25T08:52:03Z</time></trkpt><trkpt lat="43.34463481514628" lon="11.401309185413272"><ele>298.5</ele><time>2026-04-25T08:52:04Z</time></trkpt><trkpt lat="43.344509074896706" lon="11.40130540494936"><ele>298.0</ele><time>2026-04-25T08:52:05Z</time></trkpt><trkpt lat="43.34439345292806" lon="11.401313342114285"><ele>297.5</ele><time>2026-04-25T08:52:06Z</time></trkpt><trkpt lat="43.34428733519279" lon="11.401346788379438"><ele>297.0</ele><time>2026-04-25T08:52:07Z</time></trkpt><trkpt lat="43.34418593086565" lon="11.401354859363467"><ele>296.0</ele><time>2026-04-25T08:52:08Z</time></trkpt><trkpt lat="43.344081369884435" lon="11.401380357524294"><ele>295.0</ele><time>2026-04-25T08:52:09Z</time></trkpt><trkpt lat="43.343980888978315" lon="11.401420931695284"><ele>294.0</ele><time>2026-04-25T08:52:10Z</time></trkpt><trkpt lat="43.34387246886835" lon="11.401478269408019"><ele>293.0</ele><time>2026-04-25T08:52:11Z</time></trkpt><trkpt lat="43.34375671003152" lon="11.401541195221341"><ele>292.8</ele><time>2026-04-25T08:52:12Z</time></trkpt><trkpt lat="43.34364631211849" lon="11.401608105698966"><ele>292.6</ele><time>2026-04-25T08:52:13Z</time></trkpt><trkpt lat="43.343545282599024" lon="11.401662594125403"><ele>292.4</ele><time>2026-04-25T08:52:14Z</time></trkpt><trkpt lat="43.34345483766831" lon="11.401711100114538"><ele>292.2</ele><time>2026-04-25T08:52:15Z</time></trkpt><trkpt lat="43.34337997668244" lon="11.401776658730293"><ele>292.0</ele><time>2026-04-25T08:52:16Z</time></trkpt><trkpt lat="43.34330694517558" lon="11.401850137145443"><ele>292.0</ele><time>2026-04-25T08:52:17Z</time></trkpt><trkpt lat="43.343239567468984" lon="11.401941752478875"><ele>292.0</ele><time>2026-04-25T08:52:18Z</time></trkpt><trkpt lat="43.343179570330015" lon="11.402049837663789"><ele>292.0</ele><time>2026-04-25T08:52:19Z</time></trkpt><trkpt lat="43.343126857059126" lon="11.402182436343072"><ele>292.0</ele><time>2026-04-25T08:52:20Z</time></trkpt><trkpt lat="43.3430898729127" lon="11.40232973633084"><ele>292.0</ele><time>2026-04-25T08:52:21Z</time></trkpt><trkpt lat="43.343065311881055" lon="11.402481631602937"><ele>291.4</ele><time>2026-04-25T08:52:22Z</time></trkpt><trkpt lat="43.343053904852816" lon="11.402632880313092"><ele>290.79999999999995</ele><time>2026-04-25T08:52:23Z</time></trkpt><trkpt lat="43.34305346142324" lon="11.402776597231902"><ele>290.2</ele><time>2026-04-25T08:52:24Z</time></trkpt><trkpt lat="43.34304609003067" lon="11.40292195060533"><ele>289.59999999999997</ele><time>2026-04-25T08:52:25Z</time></trkpt><trkpt lat="43.34301173070415" lon="11.403069582241567"><ele>289.0</ele><time>2026-04-25T08:52:26Z</time></trkpt><trkpt lat="43.342952803958156" lon="11.403195967844892"><ele>289.0</ele><time>2026-04-25T08:52:27Z</time></trkpt><trkpt lat="43.34285450690346" lon="11.403264929087339"><ele>289.0</ele><time>2026-04-25T08:52:28Z</time></trkpt><trkpt lat="43.342778852565885" lon="11.403304834245354"><ele>289.0</ele><time>2026-04-25T08:52:29Z</time></trkpt><trkpt lat="43.34267715041394" lon="11.403297803908302"><ele>289.0</ele><time>2026-04-25T08:52:30Z</time></trkpt><trkpt lat="43.34255942730229" lon="11.403338854143247"><ele>289.0</ele><time>2026-04-25T08:52:31Z</time></trkpt><trkpt lat="43.3424348078991" lon="11.40336879255713"><ele>289.0</ele><time>2026-04-25T08:52:32Z</time></trkpt><trkpt lat="43.34232019311959" lon="11.403443140120507"><ele>289.0</ele><time>2026-04-25T08:52:33Z</time></trkpt><trkpt lat="43.34219490934053" lon="11.403544186483762"><ele>289.0</ele><time>2026-04-25T08:52:34Z</time></trkpt><trkpt lat="43.342078302273016" lon="11.403715712432648"><ele>289.0</ele><time>2026-04-25T08:52:35Z</time></trkpt><trkpt lat="43.34194574552268" lon="11.403871120374085"><ele>287.3333333333333</ele><time>2026-04-25T08:52:36Z</time></trkpt><trkpt lat="43.34180527911762" lon="11.404001465437082"><ele>285.6666666666667</ele><time>2026-04-25T08:52:37Z</time></trkpt><trkpt lat="43.34168955222828" lon="11.404131767748131"><ele>284.0</ele><time>2026-04-25T08:52:38Z</time></trkpt><trkpt lat="43.341580191320354" lon="11.404255378048203"><ele>284.0</ele><time>2026-04-25T08:52:39Z</time></trkpt><trkpt lat="43.341488001380036" lon="11.404384365030463"><ele>284.0</ele><time>2026-04-25T08:52:40Z</time></trkpt><trkpt lat="43.341389825978155" lon="11.404499120654352"><ele>284.0</ele><time>2026-04-25T08:52:41Z</time></trkpt><trkpt lat="43.34129284978803" lon="11.404643016937419"><ele>284.0</ele><time>2026-04-25T08:52:42Z</time></trkpt><trkpt lat="43.3412038479856" lon="11.404795841792646"><ele>285.5</ele><time>2026-04-25T08:52:43Z</time></trkpt><trkpt lat="43.341122923964704" lon="11.404946363037876"><ele>287.0</ele><time>2026-04-25T08:52:44Z</time></trkpt><trkpt lat="43.34101926945039" lon="11.405073982009712"><ele>288.5</ele><time>2026-04-25T08:52:45Z</time></trkpt><trkpt lat="43.34092137033744" lon="11.4051942262989"><ele>290.0</ele><time>2026-04-25T08:52:46Z</time></trkpt><trkpt lat="43.34081597878709" lon="11.405284506238592"><ele>290.0</ele><time>2026-04-25T08:52:47Z</time></trkpt><trkpt lat="43.34070694901543" lon="11.405366522887348"><ele>290.0</ele><time>2026-04-25T08:52:48Z</time></trkpt><trkpt lat="43.34058486377724" lon="11.405448063981876"><ele>290.0</ele><time>2026-04-25T08:52:49Z</time></trkpt><trkpt lat="43.340443827108274" lon="11.405533892337958"><ele>290.0</ele><time>2026-04-25T08:52:50Z</time></trkpt><trkpt lat="43.34030002232135" lon="11.405645793157595"><ele>290.0</ele><time>2026-04-25T08:52:51Z</time></trkpt><trkpt lat="43.340150958587046" lon="11.405731172398042"><ele>290.0</ele><time>2026-04-25T08:52:52Z</time></trkpt><trkpt lat="43.34001250548654" lon="11.405817387718539"><ele>290.0</ele><time>2026-04-25T08:52:53Z</time></trkpt><trkpt lat="43.339884385469844" lon="11.405896702855873"><ele>290.0</ele><time>2026-04-25T08:52:54Z</time></trkpt><trkpt lat="43.33977334896558" lon="11.405966823402306"><ele>290.0</ele><time>2026-04-25T08:52:55Z</time></trkpt><trkpt lat="43.33969147796696" lon="11.406023140963864"><ele>290.0</ele><time>2026-04-25T08:52:56Z</time></trkpt><trkpt lat="43.339634867571725" lon="11.406073548544324"><ele>290.0</ele><time>2026-04-25T08:52:57Z</time></trkpt><trkpt lat="43.33958585134789" lon="11.40614073330764"><ele>290.0</ele><time>2026-04-25T08:52:58Z</time></trkpt><trkpt lat="43.33953311005871" lon="11.406230122956066"><ele>290.0</ele><time>2026-04-25T08:52:59Z</time></trkpt><trkpt lat="43.33948620085598" lon="11.406342709587916"><ele>289.5</ele><time>2026-04-25T08:53:00Z</time></trkpt><trkpt lat="43.339445990576706" lon="11.406461007462878"><ele>289.0</ele><time>2026-04-25T08:53:01Z</time></trkpt><trkpt lat="43.33940734618881" lon="11.406567633831358"><ele>288.5</ele><time>2026-04-25T08:53:02Z</time></trkpt><trkpt lat="43.33933921192073" lon="11.406642643966359"><ele>288.0</ele><time>2026-04-25T08:53:03Z</time></trkpt><trkpt lat="43.339276990273525" lon="11.406728944189988"><ele>287.5</ele><time>2026-04-25T08:53:04Z</time></trkpt><trkpt lat="43.339214297833244" lon="11.406803304797442"><ele>287.0</ele><time>2026-04-25T08:53:05Z</time></trkpt><trkpt lat="43.339158758281435" lon="11.406870431029322"><ele>287.0</ele><time>2026-04-25T08:53:06Z</time></trkpt><trkpt lat="43.339106986412254" lon="11.406933003454535"><ele>287.0</ele><time>2026-04-25T08:53:07Z</time></trkpt><trkpt lat="43.33905845234287" lon="11.407014823604941"><ele>287.0</ele><time>2026-04-25T08:53:08Z</time></trkpt><trkpt lat="43.33898710097857" lon="11.407085959225153"><ele>287.0</ele><time>2026-04-25T08:53:09Z</time></trkpt><trkpt lat="43.338909747979436" lon="11.407180831877694"><ele>287.0</ele><time>2026-04-25T08:53:10Z</time></trkpt><trkpt lat="43.33881367302669" lon="11.407305757172617"><ele>287.5</ele><time>2026-04-25T08:53:11Z</time></trkpt><trkpt lat="43.33869494342996" lon="11.407418128597643"><ele>288.0</ele><time>2026-04-25T08:53:12Z</time></trkpt><trkpt lat="43.338581504002015" lon="11.40752894053526"><ele>288.5</ele><time>2026-04-25T08:53:13Z</time></trkpt><trkpt lat="43.33846853934123" lon="11.407623808586536"><ele>289.0</ele><time>2026-04-25T08:53:14Z</time></trkpt><trkpt lat="43.338373038962764" lon="11.40772023303968"><ele>289.0</ele><time>2026-04-25T08:53:15Z</time></trkpt><trkpt lat="43.33827572984177" lon="11.407785936908246"><ele>289.0</ele><time>2026-04-25T08:53:16Z</time></trkpt><trkpt lat="43.33818016109351" lon="11.40780244072583"><ele>289.0</ele><time>2026-04-25T08:53:17Z</time></trkpt><trkpt lat="43.33809833196677" lon="11.407810798346613"><ele>289.0</ele><time>2026-04-25T08:53:18Z</time></trkpt><trkpt lat="43.33802126153743" lon="11.407817889249099"><ele>289.0</ele><time>2026-04-25T08:53:19Z</time></trkpt><trkpt lat="43.33795463445412" lon="11.407713657601777"><ele>289.5</ele><time>2026-04-25T08:53:20Z</time></trkpt><trkpt lat="43.337855898457356" lon="11.407615481606669"><ele>290.0</ele><time>2026-04-25T08:53:21Z</time></trkpt><trkpt lat="43.33774119633672" lon="11.407500896397897"><ele>290.5</ele><time>2026-04-25T08:53:22Z</time></trkpt><trkpt lat="43.33761985235828" lon="11.407409457032578"><ele>291.0</ele><time>2026-04-25T08:53:23Z</time></trkpt><trkpt lat="43.33752778709602" lon="11.407292776857801"><ele>291.0</ele><time>2026-04-25T08:53:24Z</time></trkpt><trkpt lat="43.337432384272645" lon="11.407205469500637"><ele>291.0</ele><time>2026-04-25T08:53:25Z</time></trkpt><trkpt lat="43.33733710603805" lon="11.407123477894814"><ele>291.0</ele><time>2026-04-25T08:53:26Z</time></trkpt><trkpt lat="43.337240532161026" lon="11.407066922743601"><ele>291.0</ele><time>2026-04-25T08:53:27Z</time></trkpt><trkpt lat="43.33714031650156" lon="11.406974981805433"><ele>291.25</ele><time>2026-04-25T08:53:28Z</time></trkpt><trkpt lat="43.33700500191098" lon="11.406905970788758"><ele>291.5</ele><time>2026-04-25T08:53:29Z</time></trkpt><trkpt lat="43.3368709095352" lon="11.406844707313864"><ele>291.75</ele><time>2026-04-25T08:53:30Z</time></trkpt><trkpt lat="43.33674824308771" lon="11.406788664098894"><ele>292.0</ele><time>2026-04-25T08:53:31Z</time></trkpt><trkpt lat="43.3366286742274" lon="11.40673672447223"><ele>292.0</ele><time>2026-04-25T08:53:32Z</time></trkpt><trkpt lat="43.33650965050149" lon="11.406691408927125"><ele>292.0</ele><time>2026-04-25T08:53:33Z</time></trkpt><trkpt lat="43.33639355878607" lon="11.406675380259617"><ele>292.0</ele><time>2026-04-25T08:53:34Z</time></trkpt><trkpt lat="43.33630260694523" lon="11.406651452918002"><ele>292.0</ele><time>2026-04-25T08:53:35Z</time></trkpt><trkpt lat="43.33621405366106" lon="11.406631987605445"><ele>292.0</ele><time>2026-04-25T08:53:36Z</time></trkpt><trkpt lat="43.3360371921787" lon="11.406738339471344"><ele>293.75</ele><time>2026-04-25T08:53:38Z</time></trkpt><trkpt lat="43.33593426092259" lon="11.406791598744462"><ele>295.5</ele><time>2026-04-25T08:53:39Z</time></trkpt><trkpt lat="43.335832889127296" lon="11.40690083520599"><ele>297.25</ele><time>2026-04-25T08:53:40Z</time></trkpt><trkpt lat="43.33572844260903" lon="11.407024373369115"><ele>299.0</ele><time>2026-04-25T08:53:41Z</time></trkpt><trkpt lat="43.335629373662606" lon="11.407146096603247"><ele>298.59999999999997</ele><time>2026-04-25T08:53:42Z</time></trkpt><trkpt lat="43.335529222688606" lon="11.407263975268291"><ele>298.2</ele><time>2026-04-25T08:53:43Z</time></trkpt><trkpt lat="43.335436489304655" lon="11.407341375280705"><ele>297.79999999999995</ele><time>2026-04-25T08:53:44Z</time></trkpt><trkpt lat="43.33534452556659" lon="11.407376899774732"><ele>297.4</ele><time>2026-04-25T08:53:45Z</time></trkpt><trkpt lat="43.33525302384781" lon="11.407377006459235"><ele>297.0</ele><time>2026-04-25T08:53:46Z</time></trkpt><trkpt lat="43.33514757805212" lon="11.407370938498662"><ele>297.0</ele><time>2026-04-25T08:53:47Z</time></trkpt><trkpt lat="43.33503799729573" lon="11.407428582556074"><ele>297.0</ele><time>2026-04-25T08:53:48Z</time></trkpt><trkpt lat="43.33491360954045" lon="11.407439522243203"><ele>297.0</ele><time>2026-04-25T08:53:49Z</time></trkpt><trkpt lat="43.334784939416444" lon="11.407455523214518"><ele>297.0</ele><time>2026-04-25T08:53:50Z</time></trkpt><trkpt lat="43.33465798275519" lon="11.40746164876147"><ele>295.6</ele><time>2026-04-25T08:53:51Z</time></trkpt><trkpt lat="43.33453831371319" lon="11.407461353953027"><ele>294.2</ele><time>2026-04-25T08:53:52Z</time></trkpt><trkpt lat="43.33443790977949" lon="11.407456842545344"><ele>292.8</ele><time>2026-04-25T08:53:53Z</time></trkpt><trkpt lat="43.33437512424549" lon="11.407448921207088"><ele>291.4</ele><time>2026-04-25T08:53:54Z</time></trkpt><trkpt lat="43.33429220782771" lon="11.40739601388901"><ele>290.0</ele><time>2026-04-25T08:53:56Z</time></trkpt><trkpt lat="43.33423655767805" lon="11.40721822049603"><ele>289.75</ele><time>2026-04-25T08:53:58Z</time></trkpt><trkpt lat="43.334221361809156" lon="11.407072915559862"><ele>289.5</ele><time>2026-04-25T08:53:59Z</time></trkpt><trkpt lat="43.33420981486699" lon="11.406905809036036"><ele>289.25</ele><time>2026-04-25T08:54:00Z</time></trkpt><trkpt lat="43.33418692309535" lon="11.406726188630175"><ele>289.0</ele><time>2026-04-25T08:54:01Z</time></trkpt><trkpt lat="43.334160815937736" lon="11.406547705397161"><ele>289.0</ele><time>2026-04-25T08:54:02Z</time></trkpt><trkpt lat="43.33413905236285" lon="11.406372005741813"><ele>289.0</ele><time>2026-04-25T08:54:03Z</time></trkpt><trkpt lat="43.334115490809204" lon="11.406204634662577"><ele>289.0</ele><time>2026-04-25T08:54:04Z</time></trkpt><trkpt lat="43.334089113320196" lon="11.406051292139342"><ele>289.0</ele><time>2026-04-25T08:54:05Z</time></trkpt><trkpt lat="43.33407537921142" lon="11.40590635216697"><ele>288.0</ele><time>2026-04-25T08:54:06Z</time></trkpt><trkpt lat="43.334100349503004" lon="11.405584730936273"><ele>287.0</ele><time>2026-04-25T08:54:08Z</time></trkpt><trkpt lat="43.334122738850915" lon="11.405379543308204"><ele>286.0</ele><time>2026-04-25T08:54:09Z</time></trkpt><trkpt lat="43.334142995621555" lon="11.40516527487697"><ele>285.0</ele><time>2026-04-25T08:54:10Z</time></trkpt><trkpt lat="43.33415854195483" lon="11.4049619853828"><ele>284.0</ele><time>2026-04-25T08:54:11Z</time></trkpt><trkpt lat="43.334172320042974" lon="11.404779626687743"><ele>283.0</ele><time>2026-04-25T08:54:12Z</time></trkpt><trkpt lat="43.33418581340259" lon="11.40462140479463"><ele>282.0</ele><time>2026-04-25T08:54:13Z</time></trkpt><trkpt lat="43.3341963764199" lon="11.404478220173633"><ele>282.0</ele><time>2026-04-25T08:54:14Z</time></trkpt><trkpt lat="43.33420659171605" lon="11.404351918337634"><ele>282.0</ele><time>2026-04-25T08:54:15Z</time></trkpt><trkpt lat="43.33421208376357" lon="11.404244828120422"><ele>282.0</ele><time>2026-04-25T08:54:16Z</time></trkpt><trkpt lat="43.3342056315596" lon="11.404145178753627"><ele>282.0</ele><time>2026-04-25T08:54:17Z</time></trkpt><trkpt lat="43.33417652974676" lon="11.40406743476556"><ele>282.0</ele><time>2026-04-25T08:54:18Z</time></trkpt><trkpt lat="43.33408847921402" lon="11.40397344523581"><ele>282.0</ele><time>2026-04-25T08:54:20Z</time></trkpt><trkpt lat="43.334025264733015" lon="11.403984211548545"><ele>282.0</ele><time>2026-04-25T08:54:21Z</time></trkpt><trkpt lat="43.33395580431541" lon="11.4040635711785"><ele>282.0</ele><time>2026-04-25T08:54:22Z</time></trkpt><trkpt lat="43.33387146282786" lon="11.404090926410774"><ele>282.0</ele><time>2026-04-25T08:54:23Z</time></trkpt><trkpt lat="43.333774723767036" lon="11.404142587034636"><ele>282.0</ele><time>2026-04-25T08:54:24Z</time></trkpt><trkpt lat="43.33366853242749" lon="11.404195947486594"><ele>282.0</ele><time>2026-04-25T08:54:25Z</time></trkpt><trkpt lat="43.333560889458724" lon="11.404250755467222"><ele>281.5</ele><time>2026-04-25T08:54:26Z</time></trkpt><trkpt lat="43.33345148387657" lon="11.404307108770526"><ele>281.0</ele><time>2026-04-25T08:54:27Z</time></trkpt><trkpt lat="43.33334065135777" lon="11.404361510808958"><ele>280.5</ele><time>2026-04-25T08:54:28Z</time></trkpt><trkpt lat="43.33323686661637" lon="11.404412453340514"><ele>280.0</ele><time>2026-04-25T08:54:29Z</time></trkpt><trkpt lat="43.33313711062068" lon="11.404462494337809"><ele>280.2</ele><time>2026-04-25T08:54:30Z</time></trkpt><trkpt lat="43.33303906486253" lon="11.404513452936943"><ele>280.4</ele><time>2026-04-25T08:54:31Z</time></trkpt><trkpt lat="43.3329389748509" lon="11.40456548492515"><ele>280.6</ele><time>2026-04-25T08:54:32Z</time></trkpt><trkpt lat="43.33283599355869" lon="11.404621895287503"><ele>280.8</ele><time>2026-04-25T08:54:33Z</time></trkpt><trkpt lat="43.33272756786955" lon="11.40468191409936"><ele>281.0</ele><time>2026-04-25T08:54:34Z</time></trkpt><trkpt lat="43.332611461950115" lon="11.404746183969753"><ele>280.25</ele><time>2026-04-25T08:54:35Z</time></trkpt><trkpt lat="43.332498851821825" lon="11.404807855020323"><ele>279.5</ele><time>2026-04-25T08:54:36Z</time></trkpt><trkpt lat="43.3323903641562" lon="11.404866513546162"><ele>278.75</ele><time>2026-04-25T08:54:37Z</time></trkpt><trkpt lat="43.332292363689" lon="11.404943988744083"><ele>278.0</ele><time>2026-04-25T08:54:38Z</time></trkpt><trkpt lat="43.33219314103712" lon="11.404990560216689"><ele>278.0</ele><time>2026-04-25T08:54:39Z</time></trkpt><trkpt lat="43.33210450789356" lon="11.405043974072532"><ele>278.0</ele><time>2026-04-25T08:54:40Z</time></trkpt><trkpt lat="43.33201955843209" lon="11.405065020218078"><ele>278.0</ele><time>2026-04-25T08:54:41Z</time></trkpt><trkpt lat="43.33194760264547" lon="11.40510338844874"><ele>278.0</ele><time>2026-04-25T08:54:42Z</time></trkpt><trkpt lat="43.331882029950435" lon="11.405135091377309"><ele>278.0</ele><time>2026-04-25T08:54:43Z</time></trkpt><trkpt lat="43.33181990012386" lon="11.40516427292855"><ele>278.0</ele><time>2026-04-25T08:54:44Z</time></trkpt><trkpt lat="43.33169462313341" lon="11.405204441843692"><ele>278.0</ele><time>2026-04-25T08:54:46Z</time></trkpt><trkpt lat="43.33161158976641" lon="11.405227585405756"><ele>278.0</ele><time>2026-04-25T08:54:47Z</time></trkpt><trkpt lat="43.33151290807679" lon="11.405266148472686"><ele>278.0</ele><time>2026-04-25T08:54:48Z</time></trkpt><trkpt lat="43.331399383592185" lon="11.405291780334524"><ele>278.0</ele><time>2026-04-25T08:54:49Z</time></trkpt><trkpt lat="43.33127755959476" lon="11.405316702478446"><ele>278.0</ele><time>2026-04-25T08:54:50Z</time></trkpt><trkpt lat="43.33114675298042" lon="11.405358456038984"><ele>276.5</ele><time>2026-04-25T08:54:51Z</time></trkpt><trkpt lat="43.331009770374465" lon="11.405394383734818"><ele>275.0</ele><time>2026-04-25T08:54:52Z</time></trkpt><trkpt lat="43.33087590779829" lon="11.405435621981434"><ele>273.5</ele><time>2026-04-25T08:54:53Z</time></trkpt><trkpt lat="43.33074447377267" lon="11.405450624442718"><ele>272.0</ele><time>2026-04-25T08:54:54Z</time></trkpt><trkpt lat="43.33062024222625" lon="11.405488219998519"><ele>270.0</ele><time>2026-04-25T08:54:55Z</time></trkpt><trkpt lat="43.33049525712955" lon="11.405530586429842"><ele>268.0</ele><time>2026-04-25T08:54:56Z</time></trkpt><trkpt lat="43.33036500408098" lon="11.405578914881875"><ele>266.0</ele><time>2026-04-25T08:54:57Z</time></trkpt><trkpt lat="43.33023894235989" lon="11.405635267646328"><ele>264.0</ele><time>2026-04-25T08:54:58Z</time></trkpt><trkpt lat="43.33011299839618" lon="11.405700670265935"><ele>264.0</ele><time>2026-04-25T08:54:59Z</time></trkpt><trkpt lat="43.32999550520114" lon="11.405793961443862"><ele>264.0</ele><time>2026-04-25T08:55:00Z</time></trkpt><trkpt lat="43.32988108758336" lon="11.40587059389357"><ele>264.0</ele><time>2026-04-25T08:55:01Z</time></trkpt><trkpt lat="43.32976332397073" lon="11.4059435016966"><ele>264.0</ele><time>2026-04-25T08:55:02Z</time></trkpt><trkpt lat="43.32965350009446" lon="11.406031666254897"><ele>262.75</ele><time>2026-04-25T08:55:03Z</time></trkpt><trkpt lat="43.32954659671273" lon="11.406127435011177"><ele>261.5</ele><time>2026-04-25T08:55:04Z</time></trkpt><trkpt lat="43.32944374138022" lon="11.406230821119598"><ele>260.25</ele><time>2026-04-25T08:55:05Z</time></trkpt><trkpt lat="43.32935059340035" lon="11.406355430071285"><ele>259.0</ele><time>2026-04-25T08:55:06Z</time></trkpt><trkpt lat="43.329253750877946" lon="11.406480354447693"><ele>258.75</ele><time>2026-04-25T08:55:07Z</time></trkpt><trkpt lat="43.329154458946036" lon="11.406607008446823"><ele>258.5</ele><time>2026-04-25T08:55:08Z</time></trkpt><trkpt lat="43.329053082961536" lon="11.406726277372098"><ele>258.25</ele><time>2026-04-25T08:55:09Z</time></trkpt><trkpt lat="43.32894950442866" lon="11.406843359326263"><ele>258.0</ele><time>2026-04-25T08:55:10Z</time></trkpt><trkpt lat="43.32884602005297" lon="11.406961572753248"><ele>257.75</ele><time>2026-04-25T08:55:11Z</time></trkpt><trkpt lat="43.32874936586273" lon="11.407084010296522"><ele>257.5</ele><time>2026-04-25T08:55:12Z</time></trkpt><trkpt lat="43.328653458455676" lon="11.407195652001565"><ele>257.25</ele><time>2026-04-25T08:55:13Z</time></trkpt><trkpt lat="43.32856060898098" lon="11.407302482695266"><ele>257.0</ele><time>2026-04-25T08:55:14Z</time></trkpt><trkpt lat="43.32847280548575" lon="11.407408754032941"><ele>256.0</ele><time>2026-04-25T08:55:15Z</time></trkpt><trkpt lat="43.32838621382423" lon="11.407512244264213"><ele>255.0</ele><time>2026-04-25T08:55:16Z</time></trkpt><trkpt lat="43.3283023803022" lon="11.407613454539048"><ele>254.0</ele><time>2026-04-25T08:55:17Z</time></trkpt><trkpt lat="43.32821711848347" lon="11.407716429856206"><ele>253.0</ele><time>2026-04-25T08:55:18Z</time></trkpt><trkpt lat="43.32812733918728" lon="11.407821490419126"><ele>253.0</ele><time>2026-04-25T08:55:19Z</time></trkpt><trkpt lat="43.32803534624383" lon="11.407930953806249"><ele>253.0</ele><time>2026-04-25T08:55:20Z</time></trkpt><trkpt lat="43.32794231786153" lon="11.408042882258083"><ele>253.0</ele><time>2026-04-25T08:55:21Z</time></trkpt><trkpt lat="43.32784923428988" lon="11.408157909130965"><ele>253.0</ele><time>2026-04-25T08:55:22Z</time></trkpt><trkpt lat="43.327754517739514" lon="11.408272498970048"><ele>253.0</ele><time>2026-04-25T08:55:23Z</time></trkpt><trkpt lat="43.32764358375715" lon="11.408373925988315"><ele>253.0</ele><time>2026-04-25T08:55:24Z</time></trkpt><trkpt lat="43.32753876754379" lon="11.40849222441091"><ele>253.0</ele><time>2026-04-25T08:55:25Z</time></trkpt><trkpt lat="43.32744896067305" lon="11.408622397812604"><ele>253.0</ele><time>2026-04-25T08:55:26Z</time></trkpt><trkpt lat="43.3273517346896" lon="11.408729737154514"><ele>251.8</ele><time>2026-04-25T08:55:27Z</time></trkpt><trkpt lat="43.327255284044114" lon="11.40883544366965"><ele>250.60000000000002</ele><time>2026-04-25T08:55:28Z</time></trkpt><trkpt lat="43.32716932378159" lon="11.40893363640289"><ele>249.39999999999998</ele><time>2026-04-25T08:55:29Z</time></trkpt><trkpt lat="43.327092654586906" lon="11.409017847400856"><ele>248.2</ele><time>2026-04-25T08:55:30Z</time></trkpt><trkpt lat="43.32703155029097" lon="11.4090869541984"><ele>247.0</ele><time>2026-04-25T08:55:31Z</time></trkpt><trkpt lat="43.32698544964964" lon="11.409145963700603"><ele>246.83333333333331</ele><time>2026-04-25T08:55:32Z</time></trkpt><trkpt lat="43.32694182852869" lon="11.409220222388809"><ele>246.66666666666666</ele><time>2026-04-25T08:55:33Z</time></trkpt><trkpt lat="43.32689947826723" lon="11.409302528666636"><ele>246.5</ele><time>2026-04-25T08:55:34Z</time></trkpt><trkpt lat="43.32685423938883" lon="11.40940311932362"><ele>246.33333333333331</ele><time>2026-04-25T08:55:35Z</time></trkpt><trkpt lat="43.32680264983369" lon="11.40949858533143"><ele>246.16666666666666</ele><time>2026-04-25T08:55:36Z</time></trkpt><trkpt lat="43.32673946517101" lon="11.409591330600348"><ele>246.0</ele><time>2026-04-25T08:55:37Z</time></trkpt><trkpt lat="43.32666513957565" lon="11.409680033090428"><ele>245.4</ele><time>2026-04-25T08:55:38Z</time></trkpt><trkpt lat="43.3265746587214" lon="11.409770722807005"><ele>244.8</ele><time>2026-04-25T08:55:39.001Z</time></trkpt><trkpt lat="43.32648324782694" lon="11.40987070017078"><ele>244.20000000000002</ele><time>2026-04-25T08:55:40Z</time></trkpt><trkpt lat="43.326391014296256" lon="11.409950200685024"><ele>243.60000000000002</ele><time>2026-04-25T08:55:41Z</time></trkpt><trkpt lat="43.326310474135596" lon="11.410039379052709"><ele>243.0</ele><time>2026-04-25T08:55:42Z</time></trkpt><trkpt lat="43.32623778348138" lon="11.41012136862064"><ele>243.0</ele><time>2026-04-25T08:55:43Z</time></trkpt><trkpt lat="43.32616131398579" lon="11.410209246990108"><ele>243.0</ele><time>2026-04-25T08:55:44Z</time></trkpt><trkpt lat="43.32606545920969" lon="11.41032185391581"><ele>243.0</ele><time>2026-04-25T08:55:46Z</time></trkpt><trkpt lat="43.32600454482941" lon="11.410403685783006"><ele>243.0</ele><time>2026-04-25T08:55:48Z</time></trkpt><trkpt lat="43.32595133287339" lon="11.410255338742761"><ele>243.0</ele><time>2026-04-25T08:55:50Z</time></trkpt><trkpt lat="43.32588875284029" lon="11.410157399338438"><ele>243.0</ele><time>2026-04-25T08:55:51Z</time></trkpt><trkpt lat="43.32584201417907" lon="11.410019556010965"><ele>243.0</ele><time>2026-04-25T08:55:52Z</time></trkpt><trkpt lat="43.32580253115726" lon="11.409882426465352"><ele>243.0</ele><time>2026-04-25T08:55:53Z</time></trkpt><trkpt lat="43.32581220255024" lon="11.409738456317195"><ele>243.0</ele><time>2026-04-25T08:55:54Z</time></trkpt><trkpt lat="43.325823329846266" lon="11.409583981154531"><ele>243.0</ele><time>2026-04-25T08:55:55Z</time></trkpt><trkpt lat="43.32583019735049" lon="11.409405822643462"><ele>240.33333333333331</ele><time>2026-04-25T08:55:56Z</time></trkpt><trkpt lat="43.3258431227647" lon="11.409207211543993"><ele>237.66666666666666</ele><time>2026-04-25T08:55:57Z</time></trkpt><trkpt lat="43.325833232177686" lon="11.409000232424782"><ele>235.0</ele><time>2026-04-25T08:55:58Z</time></trkpt><trkpt lat="43.32580911503323" lon="11.408774170582635"><ele>233.66666666666666</ele><time>2026-04-25T08:55:59Z</time></trkpt><trkpt lat="43.325782829064565" lon="11.408518680259245"><ele>232.33333333333331</ele><time>2026-04-25T08:56:00Z</time></trkpt><trkpt lat="43.325750741221185" lon="11.408249614087136"><ele>231.0</ele><time>2026-04-25T08:56:01Z</time></trkpt><trkpt lat="43.32572141098128" lon="11.407980936312654"><ele>229.66666666666669</ele><time>2026-04-25T08:56:02Z</time></trkpt><trkpt lat="43.32569194847112" lon="11.407712061837284"><ele>228.33333333333334</ele><time>2026-04-25T08:56:03Z</time></trkpt><trkpt lat="43.32566191854788" lon="11.407452011780029"><ele>227.0</ele><time>2026-04-25T08:56:04Z</time></trkpt><trkpt lat="43.32563956581356" lon="11.407204157595938"><ele>225.66666666666669</ele><time>2026-04-25T08:56:05Z</time></trkpt><trkpt lat="43.325613590879485" lon="11.406978230356382"><ele>224.33333333333331</ele><time>2026-04-25T08:56:06Z</time></trkpt><trkpt lat="43.32557644095684" lon="11.4067629327605"><ele>223.0</ele><time>2026-04-25T08:56:07Z</time></trkpt><trkpt lat="43.32547188006689" lon="11.40654708154791"><ele>221.0</ele><time>2026-04-25T08:56:08Z</time></trkpt><trkpt lat="43.32538006462452" lon="11.40632016730832"><ele>219.0</ele><time>2026-04-25T08:56:09Z</time></trkpt><trkpt lat="43.32528072806205" lon="11.406126204838259"><ele>217.0</ele><time>2026-04-25T08:56:10Z</time></trkpt><trkpt lat="43.32520378913741" lon="11.405932837115653"><ele>217.0</ele><time>2026-04-25T08:56:11Z</time></trkpt><trkpt lat="43.32512827465605" lon="11.405744661575369"><ele>217.0</ele><time>2026-04-25T08:56:12Z</time></trkpt><trkpt lat="43.32508699780274" lon="11.405538638063524"><ele>217.0</ele><time>2026-04-25T08:56:13Z</time></trkpt><trkpt lat="43.325041709226205" lon="11.405350193185319"><ele>216.33333333333331</ele><time>2026-04-25T08:56:14Z</time></trkpt><trkpt lat="43.324984839921726" lon="11.40515168514822"><ele>215.66666666666669</ele><time>2026-04-25T08:56:15Z</time></trkpt><trkpt lat="43.32496233498239" lon="11.404929904088743"><ele>215.0</ele><time>2026-04-25T08:56:16Z</time></trkpt><trkpt lat="43.32495204554785" lon="11.404701424398178"><ele>214.66666666666669</ele><time>2026-04-25T08:56:17Z</time></trkpt><trkpt lat="43.324944299865415" lon="11.40448062677157"><ele>214.33333333333331</ele><time>2026-04-25T08:56:18Z</time></trkpt><trkpt lat="43.32494379431454" lon="11.404279383389767"><ele>214.0</ele><time>2026-04-25T08:56:19Z</time></trkpt><trkpt lat="43.32494373919342" lon="11.404079512805776"><ele>214.0</ele><time>2026-04-25T08:56:20Z</time></trkpt><trkpt lat="43.3249395230135" lon="11.403869186714417"><ele>214.0</ele><time>2026-04-25T08:56:21Z</time></trkpt><trkpt lat="43.324962368908274" lon="11.403629504270057"><ele>214.0</ele><time>2026-04-25T08:56:22Z</time></trkpt><trkpt lat="43.32497959502659" lon="11.403361727139261"><ele>213.0</ele><time>2026-04-25T08:56:23Z</time></trkpt><trkpt lat="43.32498973357845" lon="11.403053664779858"><ele>212.0</ele><time>2026-04-25T08:56:24Z</time></trkpt><trkpt lat="43.32502508803233" lon="11.402726368210814"><ele>214.0</ele><time>2026-04-25T08:56:25Z</time></trkpt><trkpt lat="43.325058285930815" lon="11.402398157578359"><ele>216.0</ele><time>2026-04-25T08:56:26Z</time></trkpt><trkpt lat="43.32508306373725" lon="11.402090853951817"><ele>219.33333333333331</ele><time>2026-04-25T08:56:27Z</time></trkpt><trkpt lat="43.32509447723767" lon="11.401814429089889"><ele>222.66666666666666</ele><time>2026-04-25T08:56:28Z</time></trkpt><trkpt lat="43.325095408551924" lon="11.401558369406672"><ele>226.0</ele><time>2026-04-25T08:56:29Z</time></trkpt><trkpt lat="43.325090428904495" lon="11.401326648885227"><ele>227.25</ele><time>2026-04-25T08:56:30Z</time></trkpt><trkpt lat="43.325083598864666" lon="11.401126151837259"><ele>228.5</ele><time>2026-04-25T08:56:31Z</time></trkpt><trkpt lat="43.325078522528926" lon="11.400952266332583"><ele>229.75</ele><time>2026-04-25T08:56:32Z</time></trkpt><trkpt lat="43.32507731863282" lon="11.400785870064972"><ele>231.0</ele><time>2026-04-25T08:56:33Z</time></trkpt><trkpt lat="43.325095364991505" lon="11.400597572227712"><ele>232.66666666666669</ele><time>2026-04-25T08:56:34Z</time></trkpt><trkpt lat="43.325129755426545" lon="11.400393368652802"><ele>234.33333333333334</ele><time>2026-04-25T08:56:35Z</time></trkpt><trkpt lat="43.32516230209198" lon="11.400191275560323"><ele>236.0</ele><time>2026-04-25T08:56:36Z</time></trkpt><trkpt lat="43.32517588605864" lon="11.399980630727434"><ele>236.0</ele><time>2026-04-25T08:56:37Z</time></trkpt><trkpt lat="43.32516747910255" lon="11.399755858229641"><ele>236.0</ele><time>2026-04-25T08:56:38Z</time></trkpt><trkpt lat="43.32514874377438" lon="11.399510410123947"><ele>236.0</ele><time>2026-04-25T08:56:39Z</time></trkpt><trkpt lat="43.32512972419468" lon="11.399264605938125"><ele>237.66666666666669</ele><time>2026-04-25T08:56:40Z</time></trkpt><trkpt lat="43.325114622087256" lon="11.399035315764257"><ele>239.33333333333331</ele><time>2026-04-25T08:56:41Z</time></trkpt><trkpt lat="43.32510411738138" lon="11.398829434982673"><ele>241.0</ele><time>2026-04-25T08:56:42Z</time></trkpt><trkpt lat="43.325091895817025" lon="11.398643298591134"><ele>242.20000000000002</ele><time>2026-04-25T08:56:43Z</time></trkpt><trkpt lat="43.32508009042662" lon="11.398474160096164"><ele>243.40000000000003</ele><time>2026-04-25T08:56:44Z</time></trkpt><trkpt lat="43.325073831508455" lon="11.398315187205947"><ele>244.6</ele><time>2026-04-25T08:56:45Z</time></trkpt><trkpt lat="43.325071840520515" lon="11.398179357661004"><ele>245.8</ele><time>2026-04-25T08:56:46Z</time></trkpt><trkpt lat="43.32507011749719" lon="11.398064846304875"><ele>247.0</ele><time>2026-04-25T08:56:47Z</time></trkpt><trkpt lat="43.32507589321751" lon="11.397955429329418"><ele>247.33333333333331</ele><time>2026-04-25T08:56:48Z</time></trkpt><trkpt lat="43.32508355621858" lon="11.397841781806731"><ele>247.66666666666666</ele><time>2026-04-25T08:56:49Z</time></trkpt><trkpt lat="43.32511829097748" lon="11.397734521211678"><ele>248.0</ele><time>2026-04-25T08:56:50Z</time></trkpt><trkpt lat="43.32515446616771" lon="11.397626955532386"><ele>248.33333333333331</ele><time>2026-04-25T08:56:51Z</time></trkpt><trkpt lat="43.325188275582086" lon="11.397509629718465"><ele>248.66666666666666</ele><time>2026-04-25T08:56:52Z</time></trkpt><trkpt lat="43.32524034913304" lon="11.397404843042212"><ele>249.0</ele><time>2026-04-25T08:56:53Z</time></trkpt><trkpt lat="43.32528152479807" lon="11.397299459899067"><ele>249.0</ele><time>2026-04-25T08:56:54Z</time></trkpt><trkpt lat="43.32531090318096" lon="11.397182177381437"><ele>248.99999999999997</ele><time>2026-04-25T08:56:55Z</time></trkpt><trkpt lat="43.32534507281509" lon="11.397056147881322"><ele>248.99999999999997</ele><time>2026-04-25T08:56:56Z</time></trkpt><trkpt lat="43.32538869402691" lon="11.396915895257882"><ele>249.0</ele><time>2026-04-25T08:56:57Z</time></trkpt><trkpt lat="43.32543908037533" lon="11.396752854371638"><ele>249.0</ele><time>2026-04-25T08:56:58Z</time></trkpt><trkpt lat="43.32549124363343" lon="11.39657012703126"><ele>249.25</ele><time>2026-04-25T08:56:59Z</time></trkpt><trkpt lat="43.32554910824646" lon="11.396381035555082"><ele>249.5</ele><time>2026-04-25T08:57:00Z</time></trkpt><trkpt lat="43.32560686136487" lon="11.396192170157416"><ele>249.75</ele><time>2026-04-25T08:57:01Z</time></trkpt><trkpt lat="43.32565913789765" lon="11.396003425175952"><ele>250.0</ele><time>2026-04-25T08:57:02Z</time></trkpt><trkpt lat="43.325691154251345" lon="11.39580279941383"><ele>250.0</ele><time>2026-04-25T08:57:03Z</time></trkpt><trkpt lat="43.32569945756777" lon="11.39556972035264"><ele>250.0</ele><time>2026-04-25T08:57:04Z</time></trkpt><trkpt lat="43.32568949831496" lon="11.39531500286315"><ele>250.0</ele><time>2026-04-25T08:57:05Z</time></trkpt><trkpt lat="43.32568778543977" lon="11.395082520116278"><ele>250.66666666666666</ele><time>2026-04-25T08:57:06Z</time></trkpt><trkpt lat="43.32568737200236" lon="11.394863298009913"><ele>251.33333333333331</ele><time>2026-04-25T08:57:07Z</time></trkpt><trkpt lat="43.32568125463687" lon="11.394643500132602"><ele>252.0</ele><time>2026-04-25T08:57:08Z</time></trkpt><trkpt lat="43.32564988694863" lon="11.39441126460669"><ele>253.0</ele><time>2026-04-25T08:57:09Z</time></trkpt><trkpt lat="43.325585736968804" lon="11.394165990183957"><ele>254.0</ele><time>2026-04-25T08:57:10Z</time></trkpt><trkpt lat="43.325509623242155" lon="11.39391647045298"><ele>255.0</ele><time>2026-04-25T08:57:11Z</time></trkpt><trkpt lat="43.32542607243326" lon="11.393664986668226"><ele>256.6666666666667</ele><time>2026-04-25T08:57:12Z</time></trkpt><trkpt lat="43.32534571131458" lon="11.393413239688739"><ele>258.33333333333337</ele><time>2026-04-25T08:57:13Z</time></trkpt><trkpt lat="43.32527066706037" lon="11.393174907851634"><ele>260.0</ele><time>2026-04-25T08:57:14Z</time></trkpt><trkpt lat="43.32520029830854" lon="11.3929615943575"><ele>260.8</ele><time>2026-04-25T08:57:15Z</time></trkpt><trkpt lat="43.325141033810816" lon="11.392780775326992"><ele>261.6</ele><time>2026-04-25T08:57:16Z</time></trkpt><trkpt lat="43.325089605388115" lon="11.392637190072163"><ele>262.4</ele><time>2026-04-25T08:57:17Z</time></trkpt><trkpt lat="43.3250312092951" lon="11.392534106241216"><ele>263.2</ele><time>2026-04-25T08:57:18Z</time></trkpt><trkpt lat="43.324957038881784" lon="11.392487556202568"><ele>264.0</ele><time>2026-04-25T08:57:19Z</time></trkpt><trkpt lat="43.3248718051309" lon="11.392474870518633"><ele>264.0</ele><time>2026-04-25T08:57:20Z</time></trkpt><trkpt lat="43.32476719935898" lon="11.39253633506825"><ele>264.0</ele><time>2026-04-25T08:57:21Z</time></trkpt><trkpt lat="43.32465295090171" lon="11.392543251809"><ele>264.0</ele><time>2026-04-25T08:57:22Z</time></trkpt><trkpt lat="43.32453685598953" lon="11.392547292590761"><ele>264.0</ele><time>2026-04-25T08:57:23Z</time></trkpt><trkpt lat="43.32442056595978" lon="11.392535855945484"><ele>264.0</ele><time>2026-04-25T08:57:24Z</time></trkpt><trkpt lat="43.324311557039394" lon="11.392455830665794"><ele>264.0</ele><time>2026-04-25T08:57:25Z</time></trkpt><trkpt lat="43.324175678165965" lon="11.392391847230057"><ele>264.0</ele><time>2026-04-25T08:57:26Z</time></trkpt><trkpt lat="43.324030609230405" lon="11.3923563561907"><ele>264.0</ele><time>2026-04-25T08:57:27Z</time></trkpt><trkpt lat="43.32388161988164" lon="11.392321273625884"><ele>264.0</ele><time>2026-04-25T08:57:28Z</time></trkpt><trkpt lat="43.3237310370285" lon="11.392260797578334"><ele>264.0</ele><time>2026-04-25T08:57:29Z</time></trkpt><trkpt lat="43.32357568468626" lon="11.392216701336825"><ele>264.0</ele><time>2026-04-25T08:57:30Z</time></trkpt><trkpt lat="43.3234192087201" lon="11.39217718030417"><ele>262.25</ele><time>2026-04-25T08:57:31Z</time></trkpt><trkpt lat="43.32326718365005" lon="11.392143911650876"><ele>260.5</ele><time>2026-04-25T08:57:32Z</time></trkpt><trkpt lat="43.32312060450116" lon="11.39211162471454"><ele>258.75</ele><time>2026-04-25T08:57:33Z</time></trkpt><trkpt lat="43.32298068395982" lon="11.392076488714697"><ele>257.0</ele><time>2026-04-25T08:57:34Z</time></trkpt><trkpt lat="43.322839443797946" lon="11.392034968726186"><ele>257.0</ele><time>2026-04-25T08:57:35Z</time></trkpt><trkpt lat="43.32269527087507" lon="11.39199169971624"><ele>257.0</ele><time>2026-04-25T08:57:36Z</time></trkpt><trkpt lat="43.32255025553158" lon="11.391948367128606"><ele>257.0</ele><time>2026-04-25T08:57:37Z</time></trkpt><trkpt lat="43.322396261553266" lon="11.3919036713136"><ele>257.0</ele><time>2026-04-25T08:57:38Z</time></trkpt><trkpt lat="43.32224164147734" lon="11.39186528875043"><ele>257.0</ele><time>2026-04-25T08:57:39Z</time></trkpt><trkpt lat="43.32208503985398" lon="11.39184871095993"><ele>257.0</ele><time>2026-04-25T08:57:40Z</time></trkpt><trkpt lat="43.32193416279364" lon="11.391780282290574"><ele>255.66666666666669</ele><time>2026-04-25T08:57:41Z</time></trkpt><trkpt lat="43.32178150635927" lon="11.391733857864288"><ele>254.33333333333331</ele><time>2026-04-25T08:57:42Z</time></trkpt><trkpt lat="43.32163030885767" lon="11.391685127038572"><ele>253.0</ele><time>2026-04-25T08:57:43Z</time></trkpt><trkpt lat="43.32148998511635" lon="11.391609722255287"><ele>251.66666666666666</ele><time>2026-04-25T08:57:44Z</time></trkpt><trkpt lat="43.3213403205212" lon="11.391508638415326"><ele>250.33333333333331</ele><time>2026-04-25T08:57:45Z</time></trkpt><trkpt lat="43.32118687717253" lon="11.391396367342637"><ele>249.0</ele><time>2026-04-25T08:57:46Z</time></trkpt><trkpt lat="43.32102567486068" lon="11.39128314549438"><ele>248.33333333333331</ele><time>2026-04-25T08:57:47Z</time></trkpt><trkpt lat="43.320872009721406" lon="11.391178538480611"><ele>247.66666666666666</ele><time>2026-04-25T08:57:48Z</time></trkpt><trkpt lat="43.32071984216385" lon="11.391076608545731"><ele>247.0</ele><time>2026-04-25T08:57:49Z</time></trkpt><trkpt lat="43.32057730437039" lon="11.390996947987219"><ele>247.39999999999998</ele><time>2026-04-25T08:57:50Z</time></trkpt><trkpt lat="43.32044157433495" lon="11.390942793429144"><ele>247.79999999999998</ele><time>2026-04-25T08:57:51Z</time></trkpt><trkpt lat="43.320321436702734" lon="11.390945105302867"><ele>248.2</ele><time>2026-04-25T08:57:52Z</time></trkpt><trkpt lat="43.320228693199546" lon="11.390909978350551"><ele>248.6</ele><time>2026-04-25T08:57:53Z</time></trkpt><trkpt lat="43.320151293900715" lon="11.390884250350954"><ele>249.0</ele><time>2026-04-25T08:57:54Z</time></trkpt><trkpt lat="43.32010255652428" lon="11.39077236693032"><ele>249.0</ele><time>2026-04-25T08:57:55Z</time></trkpt><trkpt lat="43.32009332376976" lon="11.390655527765386"><ele>248.99999999999997</ele><time>2026-04-25T08:57:56Z</time></trkpt><trkpt lat="43.320073541959594" lon="11.390527305825191"><ele>248.99999999999997</ele><time>2026-04-25T08:57:57Z</time></trkpt><trkpt lat="43.32004230866258" lon="11.390372441204761"><ele>249.0</ele><time>2026-04-25T08:57:58Z</time></trkpt><trkpt lat="43.32001478654991" lon="11.390193120910551"><ele>249.0</ele><time>2026-04-25T08:57:59Z</time></trkpt><trkpt lat="43.31997849423016" lon="11.389998558460254"><ele>248.33333333333331</ele><time>2026-04-25T08:58:00Z</time></trkpt><trkpt lat="43.31993748143585" lon="11.38979066230475"><ele>247.66666666666666</ele><time>2026-04-25T08:58:01Z</time></trkpt><trkpt lat="43.319879228977605" lon="11.389579440900418"><ele>247.0</ele><time>2026-04-25T08:58:02Z</time></trkpt><trkpt lat="43.3198039148193" lon="11.38936504255194"><ele>245.66666666666666</ele><time>2026-04-25T08:58:03Z</time></trkpt><trkpt lat="43.3197381825656" lon="11.389133718541581"><ele>244.33333333333331</ele><time>2026-04-25T08:58:04Z</time></trkpt><trkpt lat="43.31970280131705" lon="11.388889568203142"><ele>243.0</ele><time>2026-04-25T08:58:05Z</time></trkpt><trkpt lat="43.319641745063926" lon="11.388669220552453"><ele>239.5</ele><time>2026-04-25T08:58:06Z</time></trkpt><trkpt lat="43.31959687476528" lon="11.388458908626916"><ele>236.0</ele><time>2026-04-25T08:58:07Z</time></trkpt><trkpt lat="43.31956004673203" lon="11.388265721208004"><ele>232.5</ele><time>2026-04-25T08:58:08Z</time></trkpt><trkpt lat="43.31952732837704" lon="11.388085825354327"><ele>229.0</ele><time>2026-04-25T08:58:09Z</time></trkpt><trkpt lat="43.319497435448476" lon="11.387926456045749"><ele>229.0</ele><time>2026-04-25T08:58:10Z</time></trkpt><trkpt lat="43.31947028702871" lon="11.387786305543694"><ele>228.99999999999997</ele><time>2026-04-25T08:58:11Z</time></trkpt><trkpt lat="43.31944690637611" lon="11.387667898610262"><ele>228.99999999999997</ele><time>2026-04-25T08:58:12Z</time></trkpt><trkpt lat="43.319419525509495" lon="11.387574872567056"><ele>229.0</ele><time>2026-04-25T08:58:13Z</time></trkpt><trkpt lat="43.31936250919312" lon="11.387483002622629"><ele>229.0</ele><time>2026-04-25T08:58:14Z</time></trkpt><trkpt lat="43.31926717363171" lon="11.387406581699672"><ele>229.0</ele><time>2026-04-25T08:58:15Z</time></trkpt><trkpt lat="43.319158552898315" lon="11.387362297062644"><ele>228.99999999999997</ele><time>2026-04-25T08:58:16Z</time></trkpt><trkpt lat="43.319075303280904" lon="11.38730795776024"><ele>228.99999999999997</ele><time>2026-04-25T08:58:17Z</time></trkpt><trkpt lat="43.319041907338914" lon="11.387189486985752"><ele>229.0</ele><time>2026-04-25T08:58:18Z</time></trkpt><trkpt lat="43.319018118729815" lon="11.387070335867705"><ele>229.0</ele><time>2026-04-25T08:58:19Z</time></trkpt><trkpt lat="43.31904077568631" lon="11.386925902163775"><ele>228.5</ele><time>2026-04-25T08:58:20Z</time></trkpt><trkpt lat="43.31908097252224" lon="11.386771769572023"><ele>228.0</ele><time>2026-04-25T08:58:21Z</time></trkpt><trkpt lat="43.31914003573332" lon="11.38664168461513"><ele>227.5</ele><time>2026-04-25T08:58:22Z</time></trkpt><trkpt lat="43.31922111923709" lon="11.386538653701592"><ele>227.0</ele><time>2026-04-25T08:58:23Z</time></trkpt><trkpt lat="43.3193271049604" lon="11.386452592466952"><ele>227.0</ele><time>2026-04-25T08:58:24Z</time></trkpt><trkpt lat="43.319449268194" lon="11.386381959223908"><ele>227.0</ele><time>2026-04-25T08:58:25Z</time></trkpt><trkpt lat="43.31957324512704" lon="11.386307089714148"><ele>227.0</ele><time>2026-04-25T08:58:26Z</time></trkpt><trkpt lat="43.31968787439761" lon="11.386235604549201"><ele>227.0</ele><time>2026-04-25T08:58:27Z</time></trkpt><trkpt lat="43.319799371461905" lon="11.386178538717349"><ele>226.0</ele><time>2026-04-25T08:58:28Z</time></trkpt><trkpt lat="43.31990215626648" lon="11.386118513837225"><ele>225.0</ele><time>2026-04-25T08:58:29Z</time></trkpt><trkpt lat="43.31999175311428" lon="11.386025084558913"><ele>224.0</ele><time>2026-04-25T08:58:30Z</time></trkpt><trkpt lat="43.3200653533331" lon="11.38590438578077"><ele>223.0</ele><time>2026-04-25T08:58:31Z</time></trkpt><trkpt lat="43.32010715003845" lon="11.385771151618577"><ele>222.0</ele><time>2026-04-25T08:58:32Z</time></trkpt><trkpt lat="43.32011359259128" lon="11.38562430888332"><ele>221.0</ele><time>2026-04-25T08:58:33Z</time></trkpt><trkpt lat="43.32012273125557" lon="11.385476074993248"><ele>220.0</ele><time>2026-04-25T08:58:34Z</time></trkpt><trkpt lat="43.320102711038246" lon="11.385337507697473"><ele>219.0</ele><time>2026-04-25T08:58:35Z</time></trkpt><trkpt lat="43.320106493613636" lon="11.385201645091819"><ele>218.0</ele><time>2026-04-25T08:58:36Z</time></trkpt><trkpt lat="43.32013113219573" lon="11.385064568961301"><ele>217.0</ele><time>2026-04-25T08:58:37Z</time></trkpt><trkpt lat="43.320186383322046" lon="11.384933778371819"><ele>217.0</ele><time>2026-04-25T08:58:38Z</time></trkpt><trkpt lat="43.32025725625033" lon="11.38480042378895"><ele>217.0</ele><time>2026-04-25T08:58:39Z</time></trkpt><trkpt lat="43.32034290866133" lon="11.384664584574184"><ele>217.0</ele><time>2026-04-25T08:58:40Z</time></trkpt><trkpt lat="43.320452013038235" lon="11.384528196674001"><ele>217.0</ele><time>2026-04-25T08:58:41Z</time></trkpt><trkpt lat="43.32056789864107" lon="11.384407871279969"><ele>215.25</ele><time>2026-04-25T08:58:42Z</time></trkpt><trkpt lat="43.32066760126839" lon="11.384286363299282"><ele>213.5</ele><time>2026-04-25T08:58:43Z</time></trkpt><trkpt lat="43.32073566247062" lon="11.38414253567572"><ele>211.75</ele><time>2026-04-25T08:58:44Z</time></trkpt><trkpt lat="43.32076280383259" lon="11.384005002570914"><ele>210.0</ele><time>2026-04-25T08:58:45Z</time></trkpt><trkpt lat="43.320757939013475" lon="11.383857372071168"><ele>208.0</ele><time>2026-04-25T08:58:46Z</time></trkpt><trkpt lat="43.3207447543927" lon="11.383693150125131"><ele>206.0</ele><time>2026-04-25T08:58:47Z</time></trkpt><trkpt lat="43.320682597101545" lon="11.383527239433658"><ele>204.0</ele><time>2026-04-25T08:58:48Z</time></trkpt><trkpt lat="43.32063790150473" lon="11.383341263322803"><ele>202.0</ele><time>2026-04-25T08:58:49Z</time></trkpt><trkpt lat="43.32061480639784" lon="11.383140488298356"><ele>201.0</ele><time>2026-04-25T08:58:50Z</time></trkpt><trkpt lat="43.320597939426094" lon="11.382928142770297"><ele>200.0</ele><time>2026-04-25T08:58:51Z</time></trkpt><trkpt lat="43.32057420925152" lon="11.382697169986107"><ele>199.0</ele><time>2026-04-25T08:58:52Z</time></trkpt><trkpt lat="43.32054123296668" lon="11.382456702722035"><ele>199.0</ele><time>2026-04-25T08:58:53Z</time></trkpt><trkpt lat="43.32050102433947" lon="11.382214749980959"><ele>199.0</ele><time>2026-04-25T08:58:54Z</time></trkpt><trkpt lat="43.32046438136325" lon="11.381979272645154"><ele>199.0</ele><time>2026-04-25T08:58:55Z</time></trkpt><trkpt lat="43.3204274808931" lon="11.381760520464367"><ele>198.75</ele><time>2026-04-25T08:58:56Z</time></trkpt><trkpt lat="43.320389327235674" lon="11.381554943563064"><ele>198.5</ele><time>2026-04-25T08:58:57Z</time></trkpt><trkpt lat="43.320356216158245" lon="11.381367950887828"><ele>198.25</ele><time>2026-04-25T08:58:58Z</time></trkpt><trkpt lat="43.32033299353727" lon="11.381189163044366"><ele>198.0</ele><time>2026-04-25T08:58:59Z</time></trkpt><trkpt lat="43.32031790121727" lon="11.381014401873236"><ele>197.75</ele><time>2026-04-25T08:59:00Z</time></trkpt><trkpt lat="43.320317957556604" lon="11.380839814955868"><ele>197.5</ele><time>2026-04-25T08:59:01Z</time></trkpt><trkpt lat="43.32033524860065" lon="11.380656310017272"><ele>197.25</ele><time>2026-04-25T08:59:02Z</time></trkpt><trkpt lat="43.320362425129616" lon="11.3804623639974"><ele>197.0</ele><time>2026-04-25T08:59:03Z</time></trkpt><trkpt lat="43.320392530419454" lon="11.380258600785808"><ele>197.0</ele><time>2026-04-25T08:59:04Z</time></trkpt><trkpt lat="43.320418188640275" lon="11.38005131241274"><ele>197.0</ele><time>2026-04-25T08:59:05Z</time></trkpt><trkpt lat="43.32044369177693" lon="11.379840623634532"><ele>197.0</ele><time>2026-04-25T08:59:06Z</time></trkpt><trkpt lat="43.32048361357594" lon="11.379634686579319"><ele>198.0</ele><time>2026-04-25T08:59:07Z</time></trkpt><trkpt lat="43.32050156117993" lon="11.379415627925544"><ele>199.0</ele><time>2026-04-25T08:59:08Z</time></trkpt><trkpt lat="43.320534187567596" lon="11.379193125740091"><ele>200.0</ele><time>2026-04-25T08:59:09Z</time></trkpt><trkpt lat="43.32056175241081" lon="11.378971119520594"><ele>202.0</ele><time>2026-04-25T08:59:10Z</time></trkpt><trkpt lat="43.32058550740722" lon="11.378750536548605"><ele>204.0</ele><time>2026-04-25T08:59:11Z</time></trkpt><trkpt lat="43.32059760655214" lon="11.378522163566558"><ele>206.0</ele><time>2026-04-25T08:59:12Z</time></trkpt><trkpt lat="43.320584122599975" lon="11.378272600894915"><ele>208.66666666666669</ele><time>2026-04-25T08:59:13Z</time></trkpt><trkpt lat="43.32055344238461" lon="11.378009160231146"><ele>211.33333333333331</ele><time>2026-04-25T08:59:14Z</time></trkpt><trkpt lat="43.32051878088061" lon="11.377748487681304"><ele>214.0</ele><time>2026-04-25T08:59:15Z</time></trkpt><trkpt lat="43.320503287085664" lon="11.377498406945442"><ele>214.0</ele><time>2026-04-25T08:59:16Z</time></trkpt><trkpt lat="43.32045511020685" lon="11.377274567939084"><ele>214.0</ele><time>2026-04-25T08:59:17Z</time></trkpt><trkpt lat="43.32043515507744" lon="11.377050198760644"><ele>214.0</ele><time>2026-04-25T08:59:18Z</time></trkpt><trkpt lat="43.320429065924344" lon="11.376820520552789"><ele>215.39999999999998</ele><time>2026-04-25T08:59:19Z</time></trkpt><trkpt lat="43.32043590150501" lon="11.376624309760231"><ele>216.79999999999998</ele><time>2026-04-25T08:59:20Z</time></trkpt><trkpt lat="43.32045124217643" lon="11.376465019548371"><ele>218.20000000000002</ele><time>2026-04-25T08:59:21Z</time></trkpt><trkpt lat="43.32046406464637" lon="11.376345671914034"><ele>219.60000000000002</ele><time>2026-04-25T08:59:22Z</time></trkpt><trkpt lat="43.32046948580842" lon="11.376229696935162"><ele>221.0</ele><time>2026-04-25T08:59:24Z</time></trkpt><trkpt lat="43.320467735984145" lon="11.37613890886101"><ele>221.00000000000003</ele><time>2026-04-25T08:59:31Z</time></trkpt><trkpt lat="43.32050577587425" lon="11.376024929947507"><ele>221.0</ele><time>2026-04-25T09:01:04Z</time></trkpt><trkpt lat="43.32050991459461" lon="11.37593038052686"><ele>221.0</ele><time>2026-04-25T09:01:05Z</time></trkpt><trkpt lat="43.320506212270274" lon="11.375817874109497"><ele>221.0</ele><time>2026-04-25T09:01:06Z</time></trkpt><trkpt lat="43.320502076516775" lon="11.375703690169836"><ele>221.00000000000003</ele><time>2026-04-25T09:01:07Z</time></trkpt><trkpt lat="43.32049254880131" lon="11.37558732144046"><ele>221.0</ele><time>2026-04-25T09:01:08Z</time></trkpt><trkpt lat="43.320452711465585" lon="11.37547614051833"><ele>220.60000000000002</ele><time>2026-04-25T09:01:09Z</time></trkpt><trkpt lat="43.32038743794308" lon="11.375357684953972"><ele>220.20000000000002</ele><time>2026-04-25T09:01:10Z</time></trkpt><trkpt lat="43.32031466637223" lon="11.375253259758276"><ele>219.79999999999998</ele><time>2026-04-25T09:01:11Z</time></trkpt><trkpt lat="43.32025549768953" lon="11.37514599728606"><ele>219.39999999999998</ele><time>2026-04-25T09:01:12Z</time></trkpt><trkpt lat="43.32022568488172" lon="11.375039878911407"><ele>219.0</ele><time>2026-04-25T09:01:13Z</time></trkpt><trkpt lat="43.32022336108232" lon="11.37491390598503"><ele>219.0</ele><time>2026-04-25T09:01:14Z</time></trkpt><trkpt lat="43.32024466157793" lon="11.374782645626455"><ele>219.0</ele><time>2026-04-25T09:01:15Z</time></trkpt><trkpt lat="43.32028191813813" lon="11.374638971750207"><ele>219.0</ele><time>2026-04-25T09:01:16Z</time></trkpt><trkpt lat="43.320323317105526" lon="11.374476924304826"><ele>219.0</ele><time>2026-04-25T09:01:17Z</time></trkpt><trkpt lat="43.320368242548604" lon="11.374314058438744"><ele>219.5</ele><time>2026-04-25T09:01:18Z</time></trkpt><trkpt lat="43.32041360006418" lon="11.374139531317217"><ele>220.0</ele><time>2026-04-25T09:01:19Z</time></trkpt><trkpt lat="43.32046036670365" lon="11.373952718192937"><ele>220.5</ele><time>2026-04-25T09:01:20Z</time></trkpt><trkpt lat="43.32052196368128" lon="11.373766235756909"><ele>221.0</ele><time>2026-04-25T09:01:21Z</time></trkpt><trkpt lat="43.3205971227146" lon="11.37358275469111"><ele>223.0</ele><time>2026-04-25T09:01:22Z</time></trkpt><trkpt lat="43.3206772555836" lon="11.373410887364628"><ele>225.0</ele><time>2026-04-25T09:01:23Z</time></trkpt><trkpt lat="43.32074972386577" lon="11.373270353060034"><ele>227.0</ele><time>2026-04-25T09:01:24Z</time></trkpt><trkpt lat="43.32081230030876" lon="11.373149606251918"><ele>229.0</ele><time>2026-04-25T09:01:25Z</time></trkpt><trkpt lat="43.320863128309924" lon="11.37304818771243"><ele>230.79999999999998</ele><time>2026-04-25T09:01:26Z</time></trkpt><trkpt lat="43.32094531129213" lon="11.372895459811286"><ele>232.59999999999997</ele><time>2026-04-25T09:01:28Z</time></trkpt><trkpt lat="43.32097710748315" lon="11.372817775485661"><ele>234.4</ele><time>2026-04-25T09:01:29Z</time></trkpt><trkpt lat="43.32100275453184" lon="11.372707624234765"><ele>236.2</ele><time>2026-04-25T09:01:30Z</time></trkpt><trkpt lat="43.32102385895627" lon="11.372578466366635"><ele>238.0</ele><time>2026-04-25T09:01:31Z</time></trkpt><trkpt lat="43.32104884516585" lon="11.372431034627512"><ele>238.0</ele><time>2026-04-25T09:01:32Z</time></trkpt><trkpt lat="43.32107640315822" lon="11.372270137374215"><ele>238.0</ele><time>2026-04-25T09:01:33Z</time></trkpt><trkpt lat="43.32110368590404" lon="11.372092459229785"><ele>238.0</ele><time>2026-04-25T09:01:34Z</time></trkpt><trkpt lat="43.321134081060016" lon="11.37189978063737"><ele>238.0</ele><time>2026-04-25T09:01:35Z</time></trkpt><trkpt lat="43.32116420507867" lon="11.371701216891095"><ele>241.0</ele><time>2026-04-25T09:01:36Z</time></trkpt><trkpt lat="43.3211903713862" lon="11.371497562443013"><ele>244.0</ele><time>2026-04-25T09:01:37Z</time></trkpt><trkpt lat="43.32120099121019" lon="11.371284975055634"><ele>247.0</ele><time>2026-04-25T09:01:38Z</time></trkpt><trkpt lat="43.321234823344184" lon="11.371080974265636"><ele>248.66666666666666</ele><time>2026-04-25T09:01:39Z</time></trkpt><trkpt lat="43.32128407717468" lon="11.370884555454737"><ele>250.33333333333331</ele><time>2026-04-25T09:01:40Z</time></trkpt><trkpt lat="43.32135437939385" lon="11.370691043850382"><ele>252.0</ele><time>2026-04-25T09:01:41Z</time></trkpt><trkpt lat="43.321441388578236" lon="11.370501668564149"><ele>252.0</ele><time>2026-04-25T09:01:42Z</time></trkpt><trkpt lat="43.3215374384166" lon="11.370309481330777"><ele>252.0</ele><time>2026-04-25T09:01:43Z</time></trkpt><trkpt lat="43.32163571324676" lon="11.370122344479665"><ele>252.0</ele><time>2026-04-25T09:01:44Z</time></trkpt><trkpt lat="43.32172837365476" lon="11.369942056135912"><ele>252.0</ele><time>2026-04-25T09:01:45Z</time></trkpt><trkpt lat="43.321812866878275" lon="11.369772001352244"><ele>252.0</ele><time>2026-04-25T09:01:46Z</time></trkpt><trkpt lat="43.32189061168221" lon="11.369617654686282"><ele>252.0</ele><time>2026-04-25T09:01:47Z</time></trkpt><trkpt lat="43.32195494707199" lon="11.369489312418558"><ele>252.0</ele><time>2026-04-25T09:01:48Z</time></trkpt><trkpt lat="43.32200501101432" lon="11.369385865637417"><ele>253.8</ele><time>2026-04-25T09:01:49Z</time></trkpt><trkpt lat="43.322031594621286" lon="11.36929603748752"><ele>255.6</ele><time>2026-04-25T09:01:50Z</time></trkpt><trkpt lat="43.32198687277322" lon="11.369158437115427"><ele>257.40000000000003</ele><time>2026-04-25T09:01:52Z</time></trkpt><trkpt lat="43.321857841712344" lon="11.369161385925825"><ele>259.2</ele><time>2026-04-25T09:01:54Z</time></trkpt><trkpt lat="43.321781417602914" lon="11.369219907869228"><ele>261.0</ele><time>2026-04-25T09:01:55Z</time></trkpt><trkpt lat="43.32170401652963" lon="11.36929866990233"><ele>261.0</ele><time>2026-04-25T09:01:56Z</time></trkpt><trkpt lat="43.32162610882963" lon="11.369385939928328"><ele>261.0</ele><time>2026-04-25T09:01:57Z</time></trkpt><trkpt lat="43.321541674004216" lon="11.3694394819302"><ele>261.0</ele><time>2026-04-25T09:01:58Z</time></trkpt><trkpt lat="43.321458426992464" lon="11.369430871188262"><ele>261.0</ele><time>2026-04-25T09:01:59Z</time></trkpt><trkpt lat="43.32138545886251" lon="11.369380719911904"><ele>261.0</ele><time>2026-04-25T09:02:00Z</time></trkpt><trkpt lat="43.32131086955015" lon="11.369300994096006"><ele>261.40000000000003</ele><time>2026-04-25T09:02:01Z</time></trkpt><trkpt lat="43.32123237854178" lon="11.36920593386828"><ele>261.8</ele><time>2026-04-25T09:02:02Z</time></trkpt><trkpt lat="43.321145793881506" lon="11.369109795596492"><ele>262.20000000000005</ele><time>2026-04-25T09:02:03Z</time></trkpt><trkpt lat="43.32105972340294" lon="11.369025155502111"><ele>262.6</ele><time>2026-04-25T09:02:04Z</time></trkpt><trkpt lat="43.32099075806613" lon="11.368951810547978"><ele>263.0</ele><time>2026-04-25T09:02:05Z</time></trkpt><trkpt lat="43.32093162782419" lon="11.368826020821896"><ele>263.0</ele><time>2026-04-25T09:02:07Z</time></trkpt><trkpt lat="43.320953757439106" lon="11.368685834395407"><ele>263.0</ele><time>2026-04-25T09:02:09Z</time></trkpt><trkpt lat="43.32098586937204" lon="11.368592569171385"><ele>263.0</ele><time>2026-04-25T09:02:10Z</time></trkpt><trkpt lat="43.32101818286205" lon="11.36848302875775"><ele>263.0</ele><time>2026-04-25T09:02:11Z</time></trkpt><trkpt lat="43.321051798726536" lon="11.368355065690391"><ele>263.0</ele><time>2026-04-25T09:02:12Z</time></trkpt><trkpt lat="43.32107785741815" lon="11.368210864387057"><ele>263.0</ele><time>2026-04-25T09:02:13Z</time></trkpt><trkpt lat="43.32109120501864" lon="11.36804268804675"><ele>263.0</ele><time>2026-04-25T09:02:14Z</time></trkpt><trkpt lat="43.32109522869639" lon="11.367863828003225"><ele>263.0</ele><time>2026-04-25T09:02:15Z</time></trkpt><trkpt lat="43.32109790634386" lon="11.367676451794885"><ele>263.0</ele><time>2026-04-25T09:02:16Z</time></trkpt><trkpt lat="43.321102808114595" lon="11.367483333591473"><ele>264.0</ele><time>2026-04-25T09:02:17Z</time></trkpt><trkpt lat="43.3211087680079" lon="11.367282905811525"><ele>265.0</ele><time>2026-04-25T09:02:18Z</time></trkpt><trkpt lat="43.32111494725976" lon="11.36708220676374"><ele>266.0</ele><time>2026-04-25T09:02:19Z</time></trkpt><trkpt lat="43.3211276532171" lon="11.366898506880135"><ele>267.0</ele><time>2026-04-25T09:02:20Z</time></trkpt><trkpt lat="43.32112264821494" lon="11.36673742252208"><ele>267.8</ele><time>2026-04-25T09:02:21Z</time></trkpt><trkpt lat="43.32111152086247" lon="11.366585108216897"><ele>268.6</ele><time>2026-04-25T09:02:22Z</time></trkpt><trkpt lat="43.321089504145256" lon="11.366428925808595"><ele>269.40000000000003</ele><time>2026-04-25T09:02:23Z</time></trkpt><trkpt lat="43.32106511871188" lon="11.366281730897324"><ele>270.2</ele><time>2026-04-25T09:02:24Z</time></trkpt><trkpt lat="43.32104234665245" lon="11.366141744385258"><ele>271.0</ele><time>2026-04-25T09:02:25Z</time></trkpt><trkpt lat="43.32101858223139" lon="11.365995344365807"><ele>271.0</ele><time>2026-04-25T09:02:26Z</time></trkpt><trkpt lat="43.32098790444918" lon="11.365838009238804"><ele>271.0</ele><time>2026-04-25T09:02:27Z</time></trkpt><trkpt lat="43.320946095283276" lon="11.365669581883305"><ele>271.0</ele><time>2026-04-25T09:02:28Z</time></trkpt><trkpt lat="43.32088665378031" lon="11.36549298020659"><ele>271.0</ele><time>2026-04-25T09:02:29Z</time></trkpt><trkpt lat="43.3208203161923" lon="11.365318699901374"><ele>271.25</ele><time>2026-04-25T09:02:30Z</time></trkpt><trkpt lat="43.320755852132095" lon="11.365154596284054"><ele>271.5</ele><time>2026-04-25T09:02:31Z</time></trkpt><trkpt lat="43.32069839498181" lon="11.365003983796615"><ele>271.75</ele><time>2026-04-25T09:02:32Z</time></trkpt><trkpt lat="43.32063752357835" lon="11.364862919007624"><ele>272.0</ele><time>2026-04-25T09:02:33Z</time></trkpt><trkpt lat="43.32056922177685" lon="11.364741811167734"><ele>272.4</ele><time>2026-04-25T09:02:34Z</time></trkpt><trkpt lat="43.320503736392226" lon="11.36462747040774"><ele>272.79999999999995</ele><time>2026-04-25T09:02:35Z</time></trkpt><trkpt lat="43.320443008054525" lon="11.36451537174697"><ele>273.2</ele><time>2026-04-25T09:02:36Z</time></trkpt><trkpt lat="43.32038237679713" lon="11.364403158508516"><ele>273.59999999999997</ele><time>2026-04-25T09:02:37Z</time></trkpt><trkpt lat="43.320315367335105" lon="11.364287166840233"><ele>274.0</ele><time>2026-04-25T09:02:38Z</time></trkpt><trkpt lat="43.32024161983355" lon="11.364164629588522"><ele>274.0</ele><time>2026-04-25T09:02:39Z</time></trkpt><trkpt lat="43.320160285447876" lon="11.36403270877718"><ele>274.0</ele><time>2026-04-25T09:02:40Z</time></trkpt><trkpt lat="43.320071665090694" lon="11.363891235934005"><ele>274.0</ele><time>2026-04-25T09:02:41Z</time></trkpt><trkpt lat="43.31997801100301" lon="11.363741926100618"><ele>274.0</ele><time>2026-04-25T09:02:42Z</time></trkpt><trkpt lat="43.31988157367946" lon="11.363603168560015"><ele>274.75</ele><time>2026-04-25T09:02:43Z</time></trkpt><trkpt lat="43.31978498441106" lon="11.363476208592415"><ele>275.5</ele><time>2026-04-25T09:02:44Z</time></trkpt><trkpt lat="43.31968972738749" lon="11.36336574194782"><ele>276.25</ele><time>2026-04-25T09:02:45Z</time></trkpt><trkpt lat="43.31960805838705" lon="11.363257658647976"><ele>277.0</ele><time>2026-04-25T09:02:46Z</time></trkpt><trkpt lat="43.31953675320342" lon="11.36313816440724"><ele>275.6</ele><time>2026-04-25T09:02:47Z</time></trkpt><trkpt lat="43.3194838652005" lon="11.36301845414957"><ele>274.2</ele><time>2026-04-25T09:02:48Z</time></trkpt><trkpt lat="43.31944600010789" lon="11.362892305032865"><ele>272.8</ele><time>2026-04-25T09:02:49Z</time></trkpt><trkpt lat="43.31941698916276" lon="11.362752215294853"><ele>271.4</ele><time>2026-04-25T09:02:50Z</time></trkpt><trkpt lat="43.3193699740775" lon="11.362618465447706"><ele>270.0</ele><time>2026-04-25T09:02:51Z</time></trkpt><trkpt lat="43.3193066345502" lon="11.362495576021349"><ele>270.0</ele><time>2026-04-25T09:02:52Z</time></trkpt><trkpt lat="43.31923755708254" lon="11.362383344241607"><ele>270.0</ele><time>2026-04-25T09:02:53Z</time></trkpt><trkpt lat="43.319160711563164" lon="11.362263683416174"><ele>270.0</ele><time>2026-04-25T09:02:54Z</time></trkpt><trkpt lat="43.319075799441485" lon="11.362133649021164"><ele>270.0</ele><time>2026-04-25T09:02:55Z</time></trkpt><trkpt lat="43.31898595807482" lon="11.361996648279662"><ele>269.0</ele><time>2026-04-25T09:02:56Z</time></trkpt><trkpt lat="43.318890839257236" lon="11.361855825184339"><ele>268.0</ele><time>2026-04-25T09:02:57Z</time></trkpt><trkpt lat="43.31879546071918" lon="11.361712108770186"><ele>267.0</ele><time>2026-04-25T09:02:58Z</time></trkpt><trkpt lat="43.31871374436813" lon="11.361548204987105"><ele>266.0</ele><time>2026-04-25T09:02:59Z</time></trkpt><trkpt lat="43.31864720436141" lon="11.361356770820992"><ele>263.33333333333337</ele><time>2026-04-25T09:03:00Z</time></trkpt><trkpt lat="43.31858716553828" lon="11.361155058577053"><ele>260.6666666666667</ele><time>2026-04-25T09:03:01Z</time></trkpt><trkpt lat="43.318520431191004" lon="11.360955627226456"><ele>258.0</ele><time>2026-04-25T09:03:02Z</time></trkpt><trkpt lat="43.318438371634684" lon="11.36077478814342"><ele>258.0</ele><time>2026-04-25T09:03:03Z</time></trkpt><trkpt lat="43.318356795738424" lon="11.360601176062497"><ele>258.0</ele><time>2026-04-25T09:03:04Z</time></trkpt><trkpt lat="43.318285641632315" lon="11.360423140119709"><ele>258.0</ele><time>2026-04-25T09:03:05Z</time></trkpt><trkpt lat="43.31820639984984" lon="11.360254570511762"><ele>258.0</ele><time>2026-04-25T09:03:06Z</time></trkpt><trkpt lat="43.31811803859129" lon="11.360090924751296"><ele>256.25</ele><time>2026-04-25T09:03:07Z</time></trkpt><trkpt lat="43.31803009947642" lon="11.359938656638727"><ele>254.5</ele><time>2026-04-25T09:03:08Z</time></trkpt><trkpt lat="43.31793908498837" lon="11.359777714428255"><ele>252.75</ele><time>2026-04-25T09:03:09Z</time></trkpt><trkpt lat="43.31785916719454" lon="11.359601023887663"><ele>251.0</ele><time>2026-04-25T09:03:10Z</time></trkpt><trkpt lat="43.31775492963735" lon="11.359204587346076"><ele>248.5</ele><time>2026-04-25T09:03:12Z</time></trkpt><trkpt lat="43.31772628964016" lon="11.359006165961603"><ele>246.0</ele><time>2026-04-25T09:03:13Z</time></trkpt><trkpt lat="43.31769018993896" lon="11.358824355840962"><ele>243.5</ele><time>2026-04-25T09:03:14Z</time></trkpt><trkpt lat="43.31762692604246" lon="11.358667794700914"><ele>241.0</ele><time>2026-04-25T09:03:15Z</time></trkpt><trkpt lat="43.31754003433564" lon="11.358533550024056"><ele>240.0</ele><time>2026-04-25T09:03:16Z</time></trkpt><trkpt lat="43.317429531556186" lon="11.358414359870842"><ele>239.0</ele><time>2026-04-25T09:03:17Z</time></trkpt><trkpt lat="43.317307346696346" lon="11.35833997957752"><ele>238.0</ele><time>2026-04-25T09:03:18Z</time></trkpt><trkpt lat="43.31717584028093" lon="11.358308081804095"><ele>237.0</ele><time>2026-04-25T09:03:19Z</time></trkpt><trkpt lat="43.317041350978755" lon="11.358313103184773"><ele>235.25</ele><time>2026-04-25T09:03:20Z</time></trkpt><trkpt lat="43.31691240667417" lon="11.358313067563637"><ele>233.5</ele><time>2026-04-25T09:03:21Z</time></trkpt><trkpt lat="43.31678650799953" lon="11.35827357705713"><ele>231.75</ele><time>2026-04-25T09:03:22Z</time></trkpt><trkpt lat="43.31667833527799" lon="11.358189968265847"><ele>230.0</ele><time>2026-04-25T09:03:23Z</time></trkpt><trkpt lat="43.316584959025406" lon="11.358070902293282"><ele>230.5</ele><time>2026-04-25T09:03:24Z</time></trkpt><trkpt lat="43.316505774730466" lon="11.3579268238962"><ele>231.0</ele><time>2026-04-25T09:03:25Z</time></trkpt><trkpt lat="43.31642601161014" lon="11.357775128348306"><ele>231.5</ele><time>2026-04-25T09:03:26Z</time></trkpt><trkpt lat="43.316330266816685" lon="11.35763417396065"><ele>232.0</ele><time>2026-04-25T09:03:27Z</time></trkpt><trkpt lat="43.3162337908682" lon="11.357496554780635"><ele>230.75</ele><time>2026-04-25T09:03:28Z</time></trkpt><trkpt lat="43.31615669919649" lon="11.357341799510621"><ele>229.5</ele><time>2026-04-25T09:03:29Z</time></trkpt><trkpt lat="43.316107390569336" lon="11.35716464280493"><ele>228.25</ele><time>2026-04-25T09:03:30Z</time></trkpt><trkpt lat="43.31607719250584" lon="11.356986691879573"><ele>227.0</ele><time>2026-04-25T09:03:31Z</time></trkpt><trkpt lat="43.31606028789428" lon="11.356804740684426"><ele>226.8</ele><time>2026-04-25T09:03:32Z</time></trkpt><trkpt lat="43.316044110041204" lon="11.356645120785442"><ele>226.6</ele><time>2026-04-25T09:03:33Z</time></trkpt><trkpt lat="43.31603317414513" lon="11.356500648770442"><ele>226.40000000000003</ele><time>2026-04-25T09:03:34Z</time></trkpt><trkpt lat="43.316025743825364" lon="11.356379116361195"><ele>226.20000000000002</ele><time>2026-04-25T09:03:35Z</time></trkpt><trkpt lat="43.316021283334905" lon="11.356286152005822"><ele>226.0</ele><time>2026-04-25T09:03:36Z</time></trkpt><trkpt lat="43.316021444009706" lon="11.35616860858102"><ele>225.8</ele><time>2026-04-25T09:03:38Z</time></trkpt><trkpt lat="43.31607638795398" lon="11.356002832402341"><ele>225.60000000000002</ele><time>2026-04-25T09:03:40Z</time></trkpt><trkpt lat="43.31613030358446" lon="11.355920102257405"><ele>225.4</ele><time>2026-04-25T09:03:41Z</time></trkpt><trkpt lat="43.316190866641385" lon="11.355834235732551"><ele>225.2</ele><time>2026-04-25T09:03:42Z</time></trkpt><trkpt lat="43.316253940683595" lon="11.355756661121326"><ele>225.0</ele><time>2026-04-25T09:03:43Z</time></trkpt><trkpt lat="43.31631519127787" lon="11.355685260139317"><ele>225.0</ele><time>2026-04-25T09:03:44Z</time></trkpt><trkpt lat="43.3163698822898" lon="11.35560748988559"><ele>225.0</ele><time>2026-04-25T09:03:45Z</time></trkpt><trkpt lat="43.31640065127495" lon="11.355511440950025"><ele>225.0</ele><time>2026-04-25T09:03:46Z</time></trkpt><trkpt lat="43.31639872263498" lon="11.355411862255725"><ele>225.0</ele><time>2026-04-25T09:03:47Z</time></trkpt><trkpt lat="43.31638954877074" lon="11.355325561413022"><ele>225.0</ele><time>2026-04-25T09:03:48Z</time></trkpt><trkpt lat="43.316314331667776" lon="11.355249719115623"><ele>225.0</ele><time>2026-04-25T09:03:49Z</time></trkpt><trkpt lat="43.31623830030044" lon="11.35520878428329"><ele>225.4</ele><time>2026-04-25T09:03:50Z</time></trkpt><trkpt lat="43.31614507026026" lon="11.355185435058583"><ele>225.8</ele><time>2026-04-25T09:03:51Z</time></trkpt><trkpt lat="43.31606283936269" lon="11.355204160025869"><ele>226.2</ele><time>2026-04-25T09:03:52Z</time></trkpt><trkpt lat="43.31599423969359" lon="11.355034639248881"><ele>226.6</ele><time>2026-04-25T09:03:53Z</time></trkpt><trkpt lat="43.315945982941074" lon="11.354905378469217"><ele>227.0</ele><time>2026-04-25T09:03:54Z</time></trkpt><trkpt lat="43.315907298734125" lon="11.354756957544202"><ele>228.0</ele><time>2026-04-25T09:03:55Z</time></trkpt><trkpt lat="43.315866857132335" lon="11.354601779632194"><ele>229.0</ele><time>2026-04-25T09:03:56Z</time></trkpt><trkpt lat="43.315828093841866" lon="11.35444876284661"><ele>230.0</ele><time>2026-04-25T09:03:57Z</time></trkpt><trkpt lat="43.31578222658138" lon="11.354285077840391"><ele>231.0</ele><time>2026-04-25T09:03:58Z</time></trkpt><trkpt lat="43.31573293169605" lon="11.354115920243023"><ele>231.0</ele><time>2026-04-25T09:03:59Z</time></trkpt><trkpt lat="43.31568487328838" lon="11.353932206721618"><ele>231.0</ele><time>2026-04-25T09:04:00Z</time></trkpt><trkpt lat="43.31563404649127" lon="11.353736219475643"><ele>231.0</ele><time>2026-04-25T09:04:01Z</time></trkpt><trkpt lat="43.315579217300424" lon="11.353530983588957"><ele>232.0</ele><time>2026-04-25T09:04:02Z</time></trkpt><trkpt lat="43.31552398272319" lon="11.353324757303062"><ele>233.0</ele><time>2026-04-25T09:04:03Z</time></trkpt><trkpt lat="43.31546886678334" lon="11.353112352026502"><ele>234.0</ele><time>2026-04-25T09:04:04Z</time></trkpt><trkpt lat="43.315412655033306" lon="11.352896632445887"><ele>235.0</ele><time>2026-04-25T09:04:05Z</time></trkpt><trkpt lat="43.315355155807" lon="11.352682025441473"><ele>236.0</ele><time>2026-04-25T09:04:06Z</time></trkpt><trkpt lat="43.31529979705225" lon="11.352479082168365"><ele>237.0</ele><time>2026-04-25T09:04:07Z</time></trkpt><trkpt lat="43.31524840300589" lon="11.352282651657369"><ele>239.33333333333331</ele><time>2026-04-25T09:04:08Z</time></trkpt><trkpt lat="43.31520150624112" lon="11.352084418810554"><ele>241.66666666666666</ele><time>2026-04-25T09:04:09Z</time></trkpt><trkpt lat="43.315147656285426" lon="11.351887695418897"><ele>244.0</ele><time>2026-04-25T09:04:10Z</time></trkpt><trkpt lat="43.31507973128314" lon="11.351693765644846"><ele>244.0</ele><time>2026-04-25T09:04:11Z</time></trkpt><trkpt lat="43.314993973367706" lon="11.351507534917946"><ele>244.0</ele><time>2026-04-25T09:04:12Z</time></trkpt><trkpt lat="43.31490227951735" lon="11.351321844072046"><ele>244.0</ele><time>2026-04-25T09:04:13Z</time></trkpt><trkpt lat="43.31480681721368" lon="11.351145091149096"><ele>243.75</ele><time>2026-04-25T09:04:14Z</time></trkpt><trkpt lat="43.314707687459695" lon="11.350980540874755"><ele>243.5</ele><time>2026-04-25T09:04:15Z</time></trkpt><trkpt lat="43.31460516963628" lon="11.350831107007311"><ele>243.25</ele><time>2026-04-25T09:04:16Z</time></trkpt><trkpt lat="43.31450695524001" lon="11.350697996043266"><ele>243.0</ele><time>2026-04-25T09:04:17Z</time></trkpt><trkpt lat="43.31443069838793" lon="11.350563761231205"><ele>243.75</ele><time>2026-04-25T09:04:18Z</time></trkpt><trkpt lat="43.314386005077786" lon="11.350418730948286"><ele>244.5</ele><time>2026-04-25T09:04:19Z</time></trkpt><trkpt lat="43.314382221804635" lon="11.350248414271253"><ele>245.25</ele><time>2026-04-25T09:04:20Z</time></trkpt><trkpt lat="43.31441268090311" lon="11.35007626746608"><ele>246.0</ele><time>2026-04-25T09:04:21Z</time></trkpt><trkpt lat="43.31447216234903" lon="11.349944814418047"><ele>246.0</ele><time>2026-04-25T09:04:22Z</time></trkpt><trkpt lat="43.31454434049261" lon="11.349879519747375"><ele>246.00000000000003</ele><time>2026-04-25T09:04:23Z</time></trkpt><trkpt lat="43.31462466446792" lon="11.349858605536763"><ele>246.00000000000003</ele><time>2026-04-25T09:04:24Z</time></trkpt><trkpt lat="43.31472128904757" lon="11.349856906296587"><ele>246.0</ele><time>2026-04-25T09:04:25Z</time></trkpt><trkpt lat="43.31483386093606" lon="11.349864851116664"><ele>246.0</ele><time>2026-04-25T09:04:26Z</time></trkpt><trkpt lat="43.31494395955113" lon="11.349823230411216"><ele>249.0</ele><time>2026-04-25T09:04:27Z</time></trkpt><trkpt lat="43.31503756455693" lon="11.349743060920261"><ele>252.00000000000003</ele><time>2026-04-25T09:04:28Z</time></trkpt><trkpt lat="43.31510267819176" lon="11.349628110812864"><ele>255.00000000000003</ele><time>2026-04-25T09:04:29Z</time></trkpt><trkpt lat="43.315133354881816" lon="11.349488506281451"><ele>258.0</ele><time>2026-04-25T09:04:30Z</time></trkpt><trkpt lat="43.315128610838265" lon="11.349345822896995"><ele>261.0</ele><time>2026-04-25T09:04:31Z</time></trkpt><trkpt lat="43.31509609999384" lon="11.349213157252821"><ele>261.6</ele><time>2026-04-25T09:04:32Z</time></trkpt><trkpt lat="43.31503779319023" lon="11.349101264386494"><ele>262.20000000000005</ele><time>2026-04-25T09:04:33Z</time></trkpt><trkpt lat="43.31496095351732" lon="11.349017674109685"><ele>262.79999999999995</ele><time>2026-04-25T09:04:34Z</time></trkpt><trkpt lat="43.3148782559802" lon="11.348960772934639"><ele>263.4</ele><time>2026-04-25T09:04:35Z</time></trkpt><trkpt lat="43.314790245326876" lon="11.348913424267483"><ele>264.0</ele><time>2026-04-25T09:04:36Z</time></trkpt><trkpt lat="43.31470710203136" lon="11.348857507870212"><ele>262.2</ele><time>2026-04-25T09:04:36.999Z</time></trkpt><trkpt lat="43.3146339455355" lon="11.348781726160269"><ele>260.4</ele><time>2026-04-25T09:04:37.999Z</time></trkpt><trkpt lat="43.31458034238974" lon="11.348681946644081"><ele>258.6</ele><time>2026-04-25T09:04:38.999Z</time></trkpt><trkpt lat="43.31455470729655" lon="11.348564576928762"><ele>256.8</ele><time>2026-04-25T09:04:39.999Z</time></trkpt><trkpt lat="43.31454795011729" lon="11.348437296752389"><ele>255.0</ele><time>2026-04-25T09:04:40.999Z</time></trkpt><trkpt lat="43.31456262841482" lon="11.34830405318545"><ele>255.0</ele><time>2026-04-25T09:04:41.999Z</time></trkpt><trkpt lat="43.31459327898671" lon="11.348170917537836"><ele>255.0</ele><time>2026-04-25T09:04:42.999Z</time></trkpt><trkpt lat="43.31463854029067" lon="11.34803936023327"><ele>255.0</ele><time>2026-04-25T09:04:43.999Z</time></trkpt><trkpt lat="43.31475564018952" lon="11.347783938165279"><ele>255.0</ele><time>2026-04-25T09:04:45.999Z</time></trkpt><trkpt lat="43.314829819080856" lon="11.347666979213187"><ele>257.6</ele><time>2026-04-25T09:04:46.999Z</time></trkpt><trkpt lat="43.31490577971642" lon="11.347550750971228"><ele>260.2</ele><time>2026-04-25T09:04:47.999Z</time></trkpt><trkpt lat="43.31497987696505" lon="11.347433944278844"><ele>262.8</ele><time>2026-04-25T09:04:48.999Z</time></trkpt><trkpt lat="43.31505146887207" lon="11.347316472865508"><ele>265.4</ele><time>2026-04-25T09:04:49.999Z</time></trkpt><trkpt lat="43.31512034449691" lon="11.347203526329396"><ele>268.0</ele><time>2026-04-25T09:04:50.999Z</time></trkpt><trkpt lat="43.31518824559651" lon="11.347092131370504"><ele>268.0</ele><time>2026-04-25T09:04:51.999Z</time></trkpt><trkpt lat="43.31525586844125" lon="11.346983569093066"><ele>268.0</ele><time>2026-04-25T09:04:52.999Z</time></trkpt><trkpt lat="43.31532130964227" lon="11.346875085124086"><ele>268.0</ele><time>2026-04-25T09:04:53.999Z</time></trkpt><trkpt lat="43.31538300206772" lon="11.346770635451012"><ele>268.0</ele><time>2026-04-25T09:04:54.999Z</time></trkpt><trkpt lat="43.31544586188833" lon="11.346666507926003"><ele>268.0</ele><time>2026-04-25T09:04:56Z</time></trkpt><trkpt lat="43.315510672814575" lon="11.346561438546235"><ele>270.4</ele><time>2026-04-25T09:04:57Z</time></trkpt><trkpt lat="43.31557654936242" lon="11.346450416122446"><ele>272.8</ele><time>2026-04-25T09:04:58Z</time></trkpt><trkpt lat="43.31564484884503" lon="11.346335430197582"><ele>275.2</ele><time>2026-04-25T09:04:59Z</time></trkpt><trkpt lat="43.31571558015455" lon="11.346220763208905"><ele>277.6</ele><time>2026-04-25T09:05:00Z</time></trkpt><trkpt lat="43.31578674398172" lon="11.346103536527817"><ele>280.0</ele><time>2026-04-25T09:05:01Z</time></trkpt><trkpt lat="43.315856122076305" lon="11.345984832942307"><ele>280.0</ele><time>2026-04-25T09:05:02Z</time></trkpt><trkpt lat="43.31592315827837" lon="11.345875858683328"><ele>280.0</ele><time>2026-04-25T09:05:03Z</time></trkpt><trkpt lat="43.31598716267578" lon="11.345766541779769"><ele>280.0</ele><time>2026-04-25T09:05:04Z</time></trkpt><trkpt lat="43.31605339513401" lon="11.34565882805625"><ele>280.0</ele><time>2026-04-25T09:05:05Z</time></trkpt><trkpt lat="43.31611974596592" lon="11.345549559009788"><ele>280.0</ele><time>2026-04-25T09:05:06Z</time></trkpt><trkpt lat="43.316184061074466" lon="11.345438070263564"><ele>281.2</ele><time>2026-04-25T09:05:07Z</time></trkpt><trkpt lat="43.31624890511777" lon="11.345328739769426"><ele>282.4</ele><time>2026-04-25T09:05:08Z</time></trkpt><trkpt lat="43.31631264470639" lon="11.34521845163597"><ele>283.6</ele><time>2026-04-25T09:05:09Z</time></trkpt><trkpt lat="43.316378178391915" lon="11.345111242250397"><ele>284.8</ele><time>2026-04-25T09:05:10Z</time></trkpt><trkpt lat="43.316438201561695" lon="11.345011235706956"><ele>286.0</ele><time>2026-04-25T09:05:11Z</time></trkpt><trkpt lat="43.31649262524511" lon="11.344919981270543"><ele>286.0</ele><time>2026-04-25T09:05:12Z</time></trkpt><trkpt lat="43.3165431839515" lon="11.344838874457874"><ele>286.0</ele><time>2026-04-25T09:05:13Z</time></trkpt><trkpt lat="43.31659109507512" lon="11.344761536026772"><ele>286.0</ele><time>2026-04-25T09:05:14Z</time></trkpt><trkpt lat="43.31663731715622" lon="11.344691906035212"><ele>286.0</ele><time>2026-04-25T09:05:15Z</time></trkpt><trkpt lat="43.31670616005911" lon="11.344584995265537"><ele>286.0</ele><time>2026-04-25T09:05:17Z</time></trkpt><trkpt lat="43.316752569931566" lon="11.344505732317941"><ele>286.0</ele><time>2026-04-25T09:05:19Z</time></trkpt><trkpt lat="43.316800570724844" lon="11.344420300137402"><ele>285.6</ele><time>2026-04-25T09:05:21Z</time></trkpt><trkpt lat="43.3168395781219" lon="11.344294922555758"><ele>285.20000000000005</ele><time>2026-04-25T09:05:23Z</time></trkpt><trkpt lat="43.31687583364869" lon="11.344217508708097"><ele>284.79999999999995</ele><time>2026-04-25T09:05:25Z</time></trkpt><trkpt lat="43.31677814629884" lon="11.344128634700263"><ele>284.4</ele><time>2026-04-25T09:05:26Z</time></trkpt><trkpt lat="43.31667897707026" lon="11.344083285513756"><ele>284.0</ele><time>2026-04-25T09:05:28Z</time></trkpt><trkpt lat="43.31660376177212" lon="11.343965881499615"><ele>283.6666666666667</ele><time>2026-04-25T09:05:30Z</time></trkpt><trkpt lat="43.316596630378655" lon="11.343876127230285"><ele>283.33333333333337</ele><time>2026-04-25T09:05:31Z</time></trkpt><trkpt lat="43.31661848427175" lon="11.343786489632766"><ele>283.0</ele><time>2026-04-25T09:05:32Z</time></trkpt><trkpt lat="43.316663624160114" lon="11.343706106097915"><ele>282.6666666666667</ele><time>2026-04-25T09:05:33Z</time></trkpt><trkpt lat="43.31671235304458" lon="11.343616738146501"><ele>282.3333333333333</ele><time>2026-04-25T09:05:34Z</time></trkpt><trkpt lat="43.31674499231135" lon="11.343502100805782"><ele>282.0</ele><time>2026-04-25T09:05:35Z</time></trkpt><trkpt lat="43.31676507094095" lon="11.343373265249598"><ele>282.0</ele><time>2026-04-25T09:05:36Z</time></trkpt><trkpt lat="43.31678487101106" lon="11.34323705202855"><ele>282.0</ele><time>2026-04-25T09:05:37Z</time></trkpt><trkpt lat="43.31680879261129" lon="11.343100269703605"><ele>282.0</ele><time>2026-04-25T09:05:38Z</time></trkpt><trkpt lat="43.316830082607076" lon="11.342975028427656"><ele>282.0</ele><time>2026-04-25T09:05:39Z</time></trkpt><trkpt lat="43.31684782502311" lon="11.34286882708816"><ele>282.0</ele><time>2026-04-25T09:05:40Z</time></trkpt><trkpt lat="43.31686600655551" lon="11.342775151691834"><ele>282.0</ele><time>2026-04-25T09:05:41Z</time></trkpt><trkpt lat="43.31688302338648" lon="11.342678833936928"><ele>281.3333333333333</ele><time>2026-04-25T09:05:42Z</time></trkpt><trkpt lat="43.31688653902884" lon="11.342574919525704"><ele>280.6666666666667</ele><time>2026-04-25T09:05:43Z</time></trkpt><trkpt lat="43.31686533448968" lon="11.342476673080204"><ele>280.0</ele><time>2026-04-25T09:05:44Z</time></trkpt><trkpt lat="43.31681626700231" lon="11.342395639268533"><ele>279.33333333333337</ele><time>2026-04-25T09:05:45Z</time></trkpt><trkpt lat="43.31674602342706" lon="11.342337320383946"><ele>278.6666666666667</ele><time>2026-04-25T09:05:46Z</time></trkpt><trkpt lat="43.316651875556474" lon="11.34229821868731"><ele>278.0</ele><time>2026-04-25T09:05:47Z</time></trkpt><trkpt lat="43.31652765841006" lon="11.342270029441345"><ele>279.0</ele><time>2026-04-25T09:05:48Z</time></trkpt><trkpt lat="43.316373592692926" lon="11.342212042039861"><ele>280.0</ele><time>2026-04-25T09:05:49Z</time></trkpt><trkpt lat="43.31619178666624" lon="11.342155544394831"><ele>281.0</ele><time>2026-04-25T09:05:50Z</time></trkpt><trkpt lat="43.31603192293296" lon="11.342119861528666"><ele>281.0</ele><time>2026-04-25T09:05:51Z</time></trkpt><trkpt lat="43.31589272472759" lon="11.342069873123933"><ele>281.0</ele><time>2026-04-25T09:05:52Z</time></trkpt><trkpt lat="43.31576005945105" lon="11.342050280205576"><ele>281.0</ele><time>2026-04-25T09:05:53Z</time></trkpt><trkpt lat="43.31562847902787" lon="11.34207785278313"><ele>281.0</ele><time>2026-04-25T09:05:54Z</time></trkpt><trkpt lat="43.31550237536523" lon="11.3421530458484"><ele>280.5</ele><time>2026-04-25T09:05:55Z</time></trkpt><trkpt lat="43.31538350474704" lon="11.342252715749924"><ele>280.0</ele><time>2026-04-25T09:05:56Z</time></trkpt><trkpt lat="43.315267700634294" lon="11.342361862806635"><ele>279.5</ele><time>2026-04-25T09:05:57Z</time></trkpt><trkpt lat="43.31514991329607" lon="11.342465759623298"><ele>279.0</ele><time>2026-04-25T09:05:58Z</time></trkpt><trkpt lat="43.315033709983545" lon="11.342560685662114"><ele>279.0</ele><time>2026-04-25T09:05:59Z</time></trkpt><trkpt lat="43.31492615765035" lon="11.342648989324216"><ele>279.0</ele><time>2026-04-25T09:06:00Z</time></trkpt><trkpt lat="43.31482571774175" lon="11.342728992616758"><ele>279.0</ele><time>2026-04-25T09:06:01Z</time></trkpt><trkpt lat="43.31472609089891" lon="11.342792009417854"><ele>279.0</ele><time>2026-04-25T09:06:02Z</time></trkpt><trkpt lat="43.314623951853925" lon="11.342825460534863"><ele>278.2</ele><time>2026-04-25T09:06:03Z</time></trkpt><trkpt lat="43.314525676022654" lon="11.34281638318436"><ele>277.4</ele><time>2026-04-25T09:06:04Z</time></trkpt><trkpt lat="43.314448650333325" lon="11.3427620114377"><ele>276.6</ele><time>2026-04-25T09:06:05Z</time></trkpt><trkpt lat="43.314399040522126" lon="11.342671739957602"><ele>275.8</ele><time>2026-04-25T09:06:06Z</time></trkpt><trkpt lat="43.31437270297742" lon="11.342555582191856"><ele>275.0</ele><time>2026-04-25T09:06:07Z</time></trkpt><trkpt lat="43.31435649269748" lon="11.34241587203809"><ele>275.0</ele><time>2026-04-25T09:06:08Z</time></trkpt><trkpt lat="43.31433287710135" lon="11.34226812148803"><ele>275.0</ele><time>2026-04-25T09:06:09Z</time></trkpt><trkpt lat="43.314302360239076" lon="11.342119262334291"><ele>275.0</ele><time>2026-04-25T09:06:10Z</time></trkpt><trkpt lat="43.314252001967645" lon="11.341981839961758"><ele>275.0</ele><time>2026-04-25T09:06:11Z</time></trkpt><trkpt lat="43.31417922785633" lon="11.341869577646385"><ele>275.0</ele><time>2026-04-25T09:06:12Z</time></trkpt><trkpt lat="43.31407369298438" lon="11.341783204171318"><ele>275.5</ele><time>2026-04-25T09:06:13Z</time></trkpt><trkpt lat="43.31395442473066" lon="11.341733353708223"><ele>276.0</ele><time>2026-04-25T09:06:14Z</time></trkpt><trkpt lat="43.313835748967705" lon="11.341704150764958"><ele>276.5</ele><time>2026-04-25T09:06:15Z</time></trkpt><trkpt lat="43.31372334585293" lon="11.34167473021026"><ele>277.0</ele><time>2026-04-25T09:06:16Z</time></trkpt><trkpt lat="43.31361966057687" lon="11.34164293291022"><ele>277.0</ele><time>2026-04-25T09:06:17Z</time></trkpt><trkpt lat="43.31352096551344" lon="11.341614640951292"><ele>277.0</ele><time>2026-04-25T09:06:18Z</time></trkpt><trkpt lat="43.31342493683807" lon="11.341588212879422"><ele>277.0</ele><time>2026-04-25T09:06:19Z</time></trkpt><trkpt lat="43.3133364501873" lon="11.341537023451465"><ele>277.0</ele><time>2026-04-25T09:06:20Z</time></trkpt><trkpt lat="43.31324697140958" lon="11.341524162391353"><ele>277.0</ele><time>2026-04-25T09:06:21Z</time></trkpt><trkpt lat="43.313163131336395" lon="11.341492640368388"><ele>277.0</ele><time>2026-04-25T09:06:22Z</time></trkpt><trkpt lat="43.3130819490246" lon="11.341466023935721"><ele>277.0</ele><time>2026-04-25T09:06:23Z</time></trkpt><trkpt lat="43.3130013676246" lon="11.341440446432424"><ele>277.0</ele><time>2026-04-25T09:06:24Z</time></trkpt><trkpt lat="43.3129208218081" lon="11.341411104789215"><ele>277.0</ele><time>2026-04-25T09:06:25Z</time></trkpt><trkpt lat="43.3128414761343" lon="11.341386648468369"><ele>277.0</ele><time>2026-04-25T09:06:26Z</time></trkpt><trkpt lat="43.312767105075274" lon="11.341357785153072"><ele>277.0</ele><time>2026-04-25T09:06:27Z</time></trkpt><trkpt lat="43.312696231138936" lon="11.341329435487125"><ele>278.16666666666663</ele><time>2026-04-25T09:06:28Z</time></trkpt><trkpt lat="43.31263903124852" lon="11.3412913560818"><ele>279.3333333333333</ele><time>2026-04-25T09:06:29Z</time></trkpt><trkpt lat="43.31257365218746" lon="11.34119671539904"><ele>280.5</ele><time>2026-04-25T09:06:31Z</time></trkpt><trkpt lat="43.31254404257782" lon="11.341102066377688"><ele>281.6666666666667</ele><time>2026-04-25T09:06:32Z</time></trkpt><trkpt lat="43.312524268219285" lon="11.340983867537927"><ele>282.83333333333337</ele><time>2026-04-25T09:06:33Z</time></trkpt><trkpt lat="43.31249413698184" lon="11.340866897010674"><ele>284.0</ele><time>2026-04-25T09:06:34Z</time></trkpt><trkpt lat="43.312432967958" lon="11.34074808672329"><ele>284.0</ele><time>2026-04-25T09:06:35Z</time></trkpt><trkpt lat="43.3123508740859" lon="11.340650569624591"><ele>284.0</ele><time>2026-04-25T09:06:36Z</time></trkpt><trkpt lat="43.31225331885587" lon="11.340567928038373"><ele>284.0</ele><time>2026-04-25T09:06:37Z</time></trkpt><trkpt lat="43.31214646558269" lon="11.34048884785037"><ele>284.0</ele><time>2026-04-25T09:06:38Z</time></trkpt><trkpt lat="43.31203917745956" lon="11.340406714465148"><ele>284.59999999999997</ele><time>2026-04-25T09:06:39Z</time></trkpt><trkpt lat="43.31195439167924" lon="11.340320743267078"><ele>285.2</ele><time>2026-04-25T09:06:40Z</time></trkpt><trkpt lat="43.31189672311537" lon="11.340241194929906"><ele>285.79999999999995</ele><time>2026-04-25T09:06:41Z</time></trkpt><trkpt lat="43.311848982108515" lon="11.340151768015634"><ele>286.4</ele><time>2026-04-25T09:06:42.999Z</time></trkpt><trkpt lat="43.31181059136338" lon="11.340051953613683"><ele>287.0</ele><time>2026-04-25T09:06:58.999Z</time></trkpt><trkpt lat="43.311767587988705" lon="11.339911838665879"><ele>287.0</ele><time>2026-04-25T09:07:00.999Z</time></trkpt><trkpt lat="43.31176424134719" lon="11.339795224039673"><ele>287.0</ele><time>2026-04-25T09:07:01.999Z</time></trkpt><trkpt lat="43.3117323850709" lon="11.33969729311985"><ele>287.0</ele><time>2026-04-25T09:07:02.999Z</time></trkpt><trkpt lat="43.31172447260431" lon="11.339586491784909"><ele>287.0</ele><time>2026-04-25T09:07:04.999Z</time></trkpt><trkpt lat="43.311737304029045" lon="11.339427671917111"><ele>287.0</ele><time>2026-04-25T09:07:06.999Z</time></trkpt><trkpt lat="43.311732870669026" lon="11.339337436834558"><ele>287.0</ele><time>2026-04-25T09:07:08.999Z</time></trkpt><trkpt lat="43.31155110571168" lon="11.339312996323478"><ele>287.0</ele><time>2026-04-25T09:07:09.999Z</time></trkpt><trkpt lat="43.311462167880514" lon="11.33931746100827"><ele>287.0</ele><time>2026-04-25T09:07:10.999Z</time></trkpt><trkpt lat="43.31136582287792" lon="11.339316960411306"><ele>287.0</ele><time>2026-04-25T09:07:11.999Z</time></trkpt><trkpt lat="43.31126578744889" lon="11.339315453242575"><ele>287.0</ele><time>2026-04-25T09:07:12.999Z</time></trkpt><trkpt lat="43.31116663784487" lon="11.339314520039533"><ele>287.0</ele><time>2026-04-25T09:07:13.999Z</time></trkpt><trkpt lat="43.31106854255257" lon="11.339314892992812"><ele>287.0</ele><time>2026-04-25T09:07:14.999Z</time></trkpt><trkpt lat="43.31097205670454" lon="11.339313357792365"><ele>287.0</ele><time>2026-04-25T09:07:15.999Z</time></trkpt><trkpt lat="43.310882447505485" lon="11.33931165241963"><ele>287.0</ele><time>2026-04-25T09:07:16.999Z</time></trkpt><trkpt lat="43.31079329829374" lon="11.339307562782253"><ele>287.0</ele><time>2026-04-25T09:07:17.999Z</time></trkpt><trkpt lat="43.310706139386106" lon="11.339298595948835"><ele>287.0</ele><time>2026-04-25T09:07:18.999Z</time></trkpt><trkpt lat="43.3106233045881" lon="11.339283123687855"><ele>287.0</ele><time>2026-04-25T09:07:19.999Z</time></trkpt><trkpt lat="43.310542131018856" lon="11.339269966734317"><ele>286.5</ele><time>2026-04-25T09:07:20.999Z</time></trkpt><trkpt lat="43.31045790812377" lon="11.339259023467342"><ele>286.0</ele><time>2026-04-25T09:07:21.999Z</time></trkpt><trkpt lat="43.31037300574443" lon="11.339247732785534"><ele>285.5</ele><time>2026-04-25T09:07:22.999Z</time></trkpt><trkpt lat="43.31028702993291" lon="11.339233639438751"><ele>285.0</ele><time>2026-04-25T09:07:24Z</time></trkpt><trkpt lat="43.310200061714355" lon="11.339219400137528"><ele>284.5</ele><time>2026-04-25T09:07:25Z</time></trkpt><trkpt lat="43.3101107979099" lon="11.33920055342902"><ele>284.0</ele><time>2026-04-25T09:07:26Z</time></trkpt><trkpt lat="43.310024555064686" lon="11.339176042076781"><ele>284.0</ele><time>2026-04-25T09:07:27Z</time></trkpt><trkpt lat="43.30993838558111" lon="11.339155695699393"><ele>284.0</ele><time>2026-04-25T09:07:28Z</time></trkpt><trkpt lat="43.3098538663925" lon="11.339140639635554"><ele>284.0</ele><time>2026-04-25T09:07:29Z</time></trkpt><trkpt lat="43.30977366900693" lon="11.339128639839242"><ele>284.0</ele><time>2026-04-25T09:07:30Z</time></trkpt><trkpt lat="43.30969646346791" lon="11.339113039822369"><ele>284.0</ele><time>2026-04-25T09:07:31Z</time></trkpt><trkpt lat="43.30961535637034" lon="11.339097431647302"><ele>284.0</ele><time>2026-04-25T09:07:32Z</time></trkpt><trkpt lat="43.30953216297053" lon="11.339082721657554"><ele>283.4</ele><time>2026-04-25T09:07:33Z</time></trkpt><trkpt lat="43.30944346619529" lon="11.339076731410072"><ele>282.79999999999995</ele><time>2026-04-25T09:07:34Z</time></trkpt><trkpt lat="43.30935485923236" lon="11.339061735741215"><ele>282.20000000000005</ele><time>2026-04-25T09:07:35Z</time></trkpt><trkpt lat="43.3092624953625" lon="11.339049687128433"><ele>281.6</ele><time>2026-04-25T09:07:36Z</time></trkpt><trkpt lat="43.309164838306764" lon="11.339041200846912"><ele>281.0</ele><time>2026-04-25T09:07:37Z</time></trkpt><trkpt lat="43.309067155043365" lon="11.339028652022073"><ele>281.0</ele><time>2026-04-25T09:07:38Z</time></trkpt><trkpt lat="43.30897223040169" lon="11.339015320664904"><ele>281.0</ele><time>2026-04-25T09:07:39Z</time></trkpt><trkpt lat="43.30888000618674" lon="11.339002523302558"><ele>281.0</ele><time>2026-04-25T09:07:40Z</time></trkpt><trkpt lat="43.30879294622381" lon="11.338992001417473"><ele>281.0</ele><time>2026-04-25T09:07:41Z</time></trkpt><trkpt lat="43.308709340263015" lon="11.338981200039052"><ele>281.0</ele><time>2026-04-25T09:07:42Z</time></trkpt><trkpt lat="43.308628913002224" lon="11.338973668478234"><ele>281.0</ele><time>2026-04-25T09:07:43Z</time></trkpt><trkpt lat="43.30855085672362" lon="11.338965369408626"><ele>281.1666666666667</ele><time>2026-04-25T09:07:44Z</time></trkpt><trkpt lat="43.308473305307295" lon="11.338958317107297"><ele>281.33333333333337</ele><time>2026-04-25T09:07:45Z</time></trkpt><trkpt lat="43.30839289187136" lon="11.338957156860516"><ele>281.5</ele><time>2026-04-25T09:07:46Z</time></trkpt><trkpt lat="43.308308881360524" lon="11.338954397282755"><ele>281.6666666666667</ele><time>2026-04-25T09:07:47Z</time></trkpt><trkpt lat="43.308219596812094" lon="11.338953821971263"><ele>281.8333333333333</ele><time>2026-04-25T09:07:48Z</time></trkpt><trkpt lat="43.30812523361571" lon="11.338961353782084"><ele>282.0</ele><time>2026-04-25T09:07:49Z</time></trkpt><trkpt lat="43.30802894737615" lon="11.338967373190464"><ele>282.0</ele><time>2026-04-25T09:07:50Z</time></trkpt><trkpt lat="43.307929396637235" lon="11.338978206033401"><ele>282.0</ele><time>2026-04-25T09:07:51Z</time></trkpt><trkpt lat="43.30782871201058" lon="11.33898891169848"><ele>282.0</ele><time>2026-04-25T09:07:52Z</time></trkpt><trkpt lat="43.30773242287371" lon="11.338999989001223"><ele>282.0</ele><time>2026-04-25T09:07:53Z</time></trkpt><trkpt lat="43.307643637782235" lon="11.339018401073426"><ele>282.0</ele><time>2026-04-25T09:07:54Z</time></trkpt><trkpt lat="43.3075617505342" lon="11.339041964209901"><ele>282.0</ele><time>2026-04-25T09:07:55Z</time></trkpt><trkpt lat="43.30748843804396" lon="11.33906288895327"><ele>282.0</ele><time>2026-04-25T09:07:56Z</time></trkpt><trkpt lat="43.307420578355455" lon="11.339081791174333"><ele>282.0</ele><time>2026-04-25T09:07:57Z</time></trkpt><trkpt lat="43.30735450710725" lon="11.339098893615345"><ele>282.0</ele><time>2026-04-25T09:07:58Z</time></trkpt><trkpt lat="43.30728907257332" lon="11.339116220135256"><ele>282.0</ele><time>2026-04-25T09:07:59Z</time></trkpt><trkpt lat="43.30722162809634" lon="11.339140985619055"><ele>282.0</ele><time>2026-04-25T09:08:00Z</time></trkpt><trkpt lat="43.30715552519755" lon="11.339166481710938"><ele>282.0</ele><time>2026-04-25T09:08:01Z</time></trkpt><trkpt lat="43.307086612083936" lon="11.339183298140993"><ele>281.8333333333333</ele><time>2026-04-25T09:08:02Z</time></trkpt><trkpt lat="43.30702368578973" lon="11.339192984523564"><ele>281.6666666666667</ele><time>2026-04-25T09:08:03Z</time></trkpt><trkpt lat="43.306960223207476" lon="11.339188399527647"><ele>281.5</ele><time>2026-04-25T09:08:04Z</time></trkpt><trkpt lat="43.30688390198566" lon="11.339180221101563"><ele>281.33333333333337</ele><time>2026-04-25T09:08:05Z</time></trkpt><trkpt lat="43.30679575100161" lon="11.339165564446892"><ele>281.1666666666667</ele><time>2026-04-25T09:08:06Z</time></trkpt><trkpt lat="43.306690817126935" lon="11.339146413457174"><ele>281.0</ele><time>2026-04-25T09:08:07Z</time></trkpt><trkpt lat="43.30657651185827" lon="11.339116954736413"><ele>281.0</ele><time>2026-04-25T09:08:08Z</time></trkpt><trkpt lat="43.30645670630158" lon="11.339065155759657"><ele>281.0</ele><time>2026-04-25T09:08:09Z</time></trkpt><trkpt lat="43.306333602010035" lon="11.33899304014449"><ele>281.0</ele><time>2026-04-25T09:08:10Z</time></trkpt><trkpt lat="43.306212010863675" lon="11.338897558816317"><ele>281.0</ele><time>2026-04-25T09:08:11Z</time></trkpt><trkpt lat="43.306096756685946" lon="11.338785041478332"><ele>280.6666666666667</ele><time>2026-04-25T09:08:12Z</time></trkpt><trkpt lat="43.30598500027992" lon="11.33864923677744"><ele>280.3333333333333</ele><time>2026-04-25T09:08:13Z</time></trkpt><trkpt lat="43.30587224393407" lon="11.338506766716279"><ele>280.0</ele><time>2026-04-25T09:08:14Z</time></trkpt><trkpt lat="43.30576585126603" lon="11.338365847573158"><ele>280.0</ele><time>2026-04-25T09:08:15Z</time></trkpt><trkpt lat="43.30566383083433" lon="11.338229586352346"><ele>280.0</ele><time>2026-04-25T09:08:16Z</time></trkpt><trkpt lat="43.30556670330012" lon="11.338100666969426"><ele>280.0</ele><time>2026-04-25T09:08:17Z</time></trkpt><trkpt lat="43.30547830325587" lon="11.3379817754512"><ele>280.0</ele><time>2026-04-25T09:08:18Z</time></trkpt><trkpt lat="43.30539449947478" lon="11.337858963529632"><ele>279.75</ele><time>2026-04-25T09:08:19Z</time></trkpt><trkpt lat="43.30531625483389" lon="11.337734677223327"><ele>279.5</ele><time>2026-04-25T09:08:20Z</time></trkpt><trkpt lat="43.305216746110204" lon="11.337635312207423"><ele>279.25</ele><time>2026-04-25T09:08:21Z</time></trkpt><trkpt lat="43.30510441658075" lon="11.33753512441959"><ele>279.0</ele><time>2026-04-25T09:08:22Z</time></trkpt><trkpt lat="43.304973218271094" lon="11.337454489089826"><ele>279.0</ele><time>2026-04-25T09:08:23Z</time></trkpt><trkpt lat="43.3048367912638" lon="11.337375186983433"><ele>279.0</ele><time>2026-04-25T09:08:24Z</time></trkpt><trkpt lat="43.3047123562679" lon="11.337283122222537"><ele>279.0</ele><time>2026-04-25T09:08:25Z</time></trkpt><trkpt lat="43.30459142866617" lon="11.337187644110282"><ele>279.0</ele><time>2026-04-25T09:08:26Z</time></trkpt><trkpt lat="43.304473800222326" lon="11.337101725146564"><ele>277.0</ele><time>2026-04-25T09:08:27Z</time></trkpt><trkpt lat="43.304354611426646" lon="11.337024413997337"><ele>275.0</ele><time>2026-04-25T09:08:28Z</time></trkpt><trkpt lat="43.30422456717495" lon="11.336985474264257"><ele>273.0</ele><time>2026-04-25T09:08:29Z</time></trkpt><trkpt lat="43.30407292914853" lon="11.33698964713887"><ele>271.0</ele><time>2026-04-25T09:08:30Z</time></trkpt><trkpt lat="43.30392957184557" lon="11.337032591318803"><ele>270.75</ele><time>2026-04-25T09:08:31Z</time></trkpt><trkpt lat="43.303787841371204" lon="11.337080169454191"><ele>270.5</ele><time>2026-04-25T09:08:32Z</time></trkpt><trkpt lat="43.303645467615645" lon="11.337141128960685"><ele>270.25</ele><time>2026-04-25T09:08:33Z</time></trkpt><trkpt lat="43.30350909943236" lon="11.337198780342044"><ele>270.0</ele><time>2026-04-25T09:08:34Z</time></trkpt><trkpt lat="43.303380960620814" lon="11.337255117450233"><ele>270.0</ele><time>2026-04-25T09:08:35Z</time></trkpt><trkpt lat="43.30325788071351" lon="11.337311245402288"><ele>270.0</ele><time>2026-04-25T09:08:36Z</time></trkpt><trkpt lat="43.303143892925995" lon="11.337369124819308"><ele>270.0</ele><time>2026-04-25T09:08:37Z</time></trkpt><trkpt lat="43.303040622496475" lon="11.337433399644958"><ele>270.0</ele><time>2026-04-25T09:08:38Z</time></trkpt><trkpt lat="43.302940293160695" lon="11.337496934627552"><ele>269.6</ele><time>2026-04-25T09:08:39Z</time></trkpt><trkpt lat="43.30284182433309" lon="11.337557538475728"><ele>269.2</ele><time>2026-04-25T09:08:40Z</time></trkpt><trkpt lat="43.302745076884456" lon="11.3376264402435"><ele>268.8</ele><time>2026-04-25T09:08:41Z</time></trkpt><trkpt lat="43.302648673623864" lon="11.337701349962074"><ele>268.4</ele><time>2026-04-25T09:08:42Z</time></trkpt><trkpt lat="43.30255112906878" lon="11.337769552945344"><ele>268.0</ele><time>2026-04-25T09:08:43Z</time></trkpt><trkpt lat="43.30245087940073" lon="11.337831112498444"><ele>268.0</ele><time>2026-04-25T09:08:44Z</time></trkpt><trkpt lat="43.30234138476235" lon="11.337868820920106"><ele>268.0</ele><time>2026-04-25T09:08:45Z</time></trkpt><trkpt lat="43.30222444199814" lon="11.337901499362252"><ele>268.0</ele><time>2026-04-25T09:08:46Z</time></trkpt><trkpt lat="43.30210081681648" lon="11.337941969228147"><ele>268.0</ele><time>2026-04-25T09:08:47Z</time></trkpt><trkpt lat="43.30197271622879" lon="11.337984472603635"><ele>265.0</ele><time>2026-04-25T09:08:48Z</time></trkpt><trkpt lat="43.30184324629385" lon="11.338019127051096"><ele>262.0</ele><time>2026-04-25T09:08:48.999Z</time></trkpt><trkpt lat="43.301713442323276" lon="11.338028221070877"><ele>259.0</ele><time>2026-04-25T09:08:49.999Z</time></trkpt><trkpt lat="43.30158238151386" lon="11.338011417611677"><ele>256.0</ele><time>2026-04-25T09:08:50.999Z</time></trkpt><trkpt lat="43.30145273990342" lon="11.337976979378638"><ele>255.25</ele><time>2026-04-25T09:08:51.999Z</time></trkpt><trkpt lat="43.30132715271197" lon="11.337931321133665"><ele>254.5</ele><time>2026-04-25T09:08:52.999Z</time></trkpt><trkpt lat="43.301207066002426" lon="11.337873691267557"><ele>253.75</ele><time>2026-04-25T09:08:53.999Z</time></trkpt><trkpt lat="43.30109649260634" lon="11.337799447868282"><ele>253.0</ele><time>2026-04-25T09:08:54.999Z</time></trkpt><trkpt lat="43.3009953470782" lon="11.337711365304637"><ele>253.0</ele><time>2026-04-25T09:08:55.999Z</time></trkpt><trkpt lat="43.30089788843431" lon="11.337626476784578"><ele>253.0</ele><time>2026-04-25T09:08:56.999Z</time></trkpt><trkpt lat="43.30080520306161" lon="11.337546201699501"><ele>253.0</ele><time>2026-04-25T09:08:57.999Z</time></trkpt><trkpt lat="43.30071163485413" lon="11.337471677453797"><ele>253.0</ele><time>2026-04-25T09:08:58.999Z</time></trkpt><trkpt lat="43.30061505902447" lon="11.33739704633893"><ele>253.0</ele><time>2026-04-25T09:08:59.999Z</time></trkpt><trkpt lat="43.30050735267454" lon="11.337331006891718"><ele>253.2</ele><time>2026-04-25T09:09:00.999Z</time></trkpt><trkpt lat="43.30039343520686" lon="11.337286661138835"><ele>253.4</ele><time>2026-04-25T09:09:01.999Z</time></trkpt><trkpt lat="43.30027829105778" lon="11.337254353922779"><ele>253.59999999999997</ele><time>2026-04-25T09:09:02.999Z</time></trkpt><trkpt lat="43.300171847736024" lon="11.337230716173753"><ele>253.79999999999998</ele><time>2026-04-25T09:09:03.999Z</time></trkpt><trkpt lat="43.30007552914714" lon="11.33720935918744"><ele>254.0</ele><time>2026-04-25T09:09:04.999Z</time></trkpt><trkpt lat="43.29998144715197" lon="11.33718819588132"><ele>252.79999999999998</ele><time>2026-04-25T09:09:05.999Z</time></trkpt><trkpt lat="43.299884454739846" lon="11.337170266137935"><ele>251.59999999999997</ele><time>2026-04-25T09:09:06.999Z</time></trkpt><trkpt lat="43.299787737915885" lon="11.337151690406618"><ele>250.4</ele><time>2026-04-25T09:09:07.999Z</time></trkpt><trkpt lat="43.2996824735156" lon="11.337141701733037"><ele>249.2</ele><time>2026-04-25T09:09:08.999Z</time></trkpt><trkpt lat="43.29957025691623" lon="11.337138826344654"><ele>248.0</ele><time>2026-04-25T09:09:09.999Z</time></trkpt><trkpt lat="43.29945508036545" lon="11.337151299268761"><ele>248.0</ele><time>2026-04-25T09:09:10.999Z</time></trkpt><trkpt lat="43.299341439231675" lon="11.337175882271122"><ele>248.0</ele><time>2026-04-25T09:09:11.999Z</time></trkpt><trkpt lat="43.2992250626144" lon="11.337205767449204"><ele>248.0</ele><time>2026-04-25T09:09:12.999Z</time></trkpt><trkpt lat="43.29911196680877" lon="11.337239666098382"><ele>248.0</ele><time>2026-04-25T09:09:13.999Z</time></trkpt><trkpt lat="43.29900062874928" lon="11.337274672047148"><ele>247.0</ele><time>2026-04-25T09:09:14.999Z</time></trkpt><trkpt lat="43.298887182411114" lon="11.337313063495369"><ele>246.0</ele><time>2026-04-25T09:09:15.999Z</time></trkpt><trkpt lat="43.2987709717115" lon="11.337360995501646"><ele>245.0</ele><time>2026-04-25T09:09:16.999Z</time></trkpt><trkpt lat="43.29865438259577" lon="11.337426692361563"><ele>244.0</ele><time>2026-04-25T09:09:17.999Z</time></trkpt><trkpt lat="43.29854244934888" lon="11.337507029975418"><ele>244.0</ele><time>2026-04-25T09:09:18.999Z</time></trkpt><trkpt lat="43.298433129023145" lon="11.337598149194726"><ele>244.0</ele><time>2026-04-25T09:09:19.999Z</time></trkpt><trkpt lat="43.29832387991619" lon="11.337690846058331"><ele>244.0</ele><time>2026-04-25T09:09:20.999Z</time></trkpt><trkpt lat="43.29821900100242" lon="11.337794639943924"><ele>244.0</ele><time>2026-04-25T09:09:21.999Z</time></trkpt><trkpt lat="43.29812327713862" lon="11.337912245870148"><ele>243.25</ele><time>2026-04-25T09:09:22.999Z</time></trkpt><trkpt lat="43.298036123707625" lon="11.338035555563168"><ele>242.5</ele><time>2026-04-25T09:09:23.999Z</time></trkpt><trkpt lat="43.29795090515317" lon="11.33816276272973"><ele>241.75</ele><time>2026-04-25T09:09:24.999Z</time></trkpt><trkpt lat="43.297862152760416" lon="11.338289503288843"><ele>241.0</ele><time>2026-04-25T09:09:25.999Z</time></trkpt><trkpt lat="43.2977702022541" lon="11.338417535939318"><ele>241.0</ele><time>2026-04-25T09:09:26.999Z</time></trkpt><trkpt lat="43.297677344398465" lon="11.338546754955102"><ele>241.0</ele><time>2026-04-25T09:09:27.999Z</time></trkpt><trkpt lat="43.297583364843845" lon="11.338673575146862"><ele>241.0</ele><time>2026-04-25T09:09:28.999Z</time></trkpt><trkpt lat="43.297488873057105" lon="11.33880205812467"><ele>241.0</ele><time>2026-04-25T09:09:29.999Z</time></trkpt><trkpt lat="43.297390919242616" lon="11.33892798108972"><ele>240.75</ele><time>2026-04-25T09:09:30.999Z</time></trkpt><trkpt lat="43.297289102916814" lon="11.339047140595635"><ele>240.5</ele><time>2026-04-25T09:09:31.999Z</time></trkpt><trkpt lat="43.2971930120815" lon="11.339168923604522"><ele>240.25</ele><time>2026-04-25T09:09:32.999Z</time></trkpt><trkpt lat="43.29708642744869" lon="11.33927620049502"><ele>240.0</ele><time>2026-04-25T09:09:34Z</time></trkpt><trkpt lat="43.29698713834978" lon="11.3393877157121"><ele>240.0</ele><time>2026-04-25T09:09:35Z</time></trkpt><trkpt lat="43.296893513121475" lon="11.339508644998793"><ele>240.0</ele><time>2026-04-25T09:09:36Z</time></trkpt><trkpt lat="43.29681078437827" lon="11.339644932081239"><ele>240.0</ele><time>2026-04-25T09:09:37Z</time></trkpt><trkpt lat="43.296736878911965" lon="11.339807278344173"><ele>240.0</ele><time>2026-04-25T09:09:38Z</time></trkpt><trkpt lat="43.2966579860485" lon="11.339934046031585"><ele>240.4</ele><time>2026-04-25T09:09:39Z</time></trkpt><trkpt lat="43.29658166389577" lon="11.340057025587312"><ele>240.8</ele><time>2026-04-25T09:09:40Z</time></trkpt><trkpt lat="43.296511945526326" lon="11.340181148637996"><ele>241.2</ele><time>2026-04-25T09:09:41Z</time></trkpt><trkpt lat="43.296449324949634" lon="11.340308133202354"><ele>241.6</ele><time>2026-04-25T09:09:42Z</time></trkpt><trkpt lat="43.29639607531616" lon="11.340429087396483"><ele>242.0</ele><time>2026-04-25T09:09:43Z</time></trkpt><trkpt lat="43.296346955797056" lon="11.340547529193872"><ele>242.50000000000003</ele><time>2026-04-25T09:09:44Z</time></trkpt><trkpt lat="43.2962957231821" lon="11.340660542140101"><ele>243.0</ele><time>2026-04-25T09:09:45Z</time></trkpt><trkpt lat="43.2962446776924" lon="11.34076477920351"><ele>243.5</ele><time>2026-04-25T09:09:46Z</time></trkpt><trkpt lat="43.29619409390354" lon="11.340868231139872"><ele>244.0</ele><time>2026-04-25T09:09:47Z</time></trkpt><trkpt lat="43.296149161817674" lon="11.340968389256886"><ele>244.50000000000003</ele><time>2026-04-25T09:09:48Z</time></trkpt><trkpt lat="43.29610979988487" lon="11.341062166036709"><ele>245.0</ele><time>2026-04-25T09:09:49Z</time></trkpt><trkpt lat="43.29607498238155" lon="11.341149737015204"><ele>245.00000000000003</ele><time>2026-04-25T09:09:50Z</time></trkpt><trkpt lat="43.296037434020434" lon="11.341241306851293"><ele>245.0</ele><time>2026-04-25T09:09:51Z</time></trkpt><trkpt lat="43.29600275797159" lon="11.34132003603134"><ele>245.0</ele><time>2026-04-25T09:09:52Z</time></trkpt><trkpt lat="43.29597055837053" lon="11.3413966176893"><ele>245.0</ele><time>2026-04-25T09:10:38Z</time></trkpt><trkpt lat="43.295909627154366" lon="11.341540530706949"><ele>245.00000000000003</ele><time>2026-04-25T09:10:40Z</time></trkpt><trkpt lat="43.29586882225982" lon="11.341640634919283"><ele>245.0</ele><time>2026-04-25T09:10:41Z</time></trkpt><trkpt lat="43.295825020677064" lon="11.341750861112255"><ele>245.0</ele><time>2026-04-25T09:10:42Z</time></trkpt><trkpt lat="43.295776486947815" lon="11.341862820002858"><ele>245.0</ele><time>2026-04-25T09:10:43Z</time></trkpt><trkpt lat="43.29570823218777" lon="11.34197090327055"><ele>245.0</ele><time>2026-04-25T09:10:44Z</time></trkpt><trkpt lat="43.2956279890539" lon="11.342078302608932"><ele>245.0</ele><time>2026-04-25T09:10:45Z</time></trkpt><trkpt lat="43.29553590617179" lon="11.342187086971878"><ele>245.0</ele><time>2026-04-25T09:10:46Z</time></trkpt><trkpt lat="43.295435211919376" lon="11.342296244986139"><ele>245.0</ele><time>2026-04-25T09:10:47Z</time></trkpt><trkpt lat="43.29532648330255" lon="11.342402455292092"><ele>245.0</ele><time>2026-04-25T09:10:48Z</time></trkpt><trkpt lat="43.295206471448225" lon="11.342496894282803"><ele>245.0</ele><time>2026-04-25T09:10:49Z</time></trkpt><trkpt lat="43.29507869761356" lon="11.342581520970121"><ele>245.0</ele><time>2026-04-25T09:10:50Z</time></trkpt><trkpt lat="43.29494925961613" lon="11.342662390230611"><ele>245.0</ele><time>2026-04-25T09:10:51Z</time></trkpt><trkpt lat="43.29481779314892" lon="11.342739939652647"><ele>245.0</ele><time>2026-04-25T09:10:52Z</time></trkpt><trkpt lat="43.29469011350162" lon="11.342809281070679"><ele>245.0</ele><time>2026-04-25T09:10:53Z</time></trkpt><trkpt lat="43.29456711570236" lon="11.3428713854636"><ele>245.0</ele><time>2026-04-25T09:10:54Z</time></trkpt><trkpt lat="43.294450162928854" lon="11.342930703027498"><ele>244.8</ele><time>2026-04-25T09:10:54.999Z</time></trkpt><trkpt lat="43.29433940112033" lon="11.342987165444573"><ele>244.6</ele><time>2026-04-25T09:10:55.999Z</time></trkpt><trkpt lat="43.294232183981094" lon="11.343034202271411"><ele>244.39999999999998</ele><time>2026-04-25T09:10:56.999Z</time></trkpt><trkpt lat="43.29413078877021" lon="11.34307190891007"><ele>244.2</ele><time>2026-04-25T09:10:57.999Z</time></trkpt><trkpt lat="43.29402991856157" lon="11.343101980160743"><ele>244.0</ele><time>2026-04-25T09:10:58.999Z</time></trkpt><trkpt lat="43.29393171949696" lon="11.343126992016764"><ele>243.79999999999998</ele><time>2026-04-25T09:10:59.999Z</time></trkpt><trkpt lat="43.29383638540389" lon="11.34315145940015"><ele>243.59999999999997</ele><time>2026-04-25T09:11:00.999Z</time></trkpt><trkpt lat="43.293738569426154" lon="11.34317424578448"><ele>243.4</ele><time>2026-04-25T09:11:01.999Z</time></trkpt><trkpt lat="43.293640345333245" lon="11.34319733197741"><ele>243.2</ele><time>2026-04-25T09:11:02.999Z</time></trkpt><trkpt lat="43.293542987507585" lon="11.343219769496129"><ele>243.0</ele><time>2026-04-25T09:11:03.999Z</time></trkpt><trkpt lat="43.293442562066886" lon="11.343243750691313"><ele>243.0</ele><time>2026-04-25T09:11:04.999Z</time></trkpt><trkpt lat="43.29333879095892" lon="11.34327039985904"><ele>243.0</ele><time>2026-04-25T09:11:05.999Z</time></trkpt><trkpt lat="43.2932359414955" lon="11.343297330888827"><ele>243.0</ele><time>2026-04-25T09:11:06.999Z</time></trkpt><trkpt lat="43.293140080263335" lon="11.343321835174716"><ele>243.0</ele><time>2026-04-25T09:11:07.999Z</time></trkpt><trkpt lat="43.29305238443513" lon="11.34334764495076"><ele>243.0</ele><time>2026-04-25T09:11:08.999Z</time></trkpt><trkpt lat="43.29296716598662" lon="11.34337510076354"><ele>243.8</ele><time>2026-04-25T09:11:09.999Z</time></trkpt><trkpt lat="43.292878520057045" lon="11.343404761946598"><ele>244.60000000000002</ele><time>2026-04-25T09:11:10.999Z</time></trkpt><trkpt lat="43.2927868631761" lon="11.343443000964369"><ele>245.39999999999998</ele><time>2026-04-25T09:11:11.999Z</time></trkpt><trkpt lat="43.29269086404672" lon="11.34348281096027"><ele>246.2</ele><time>2026-04-25T09:11:12.999Z</time></trkpt><trkpt lat="43.292589158996535" lon="11.343524435807973"><ele>247.0</ele><time>2026-04-25T09:11:13.999Z</time></trkpt><trkpt lat="43.29248302626865" lon="11.34356557749202"><ele>247.0</ele><time>2026-04-25T09:11:14.999Z</time></trkpt><trkpt lat="43.29237460080275" lon="11.343607472892907"><ele>247.0</ele><time>2026-04-25T09:11:15.999Z</time></trkpt><trkpt lat="43.292266813640126" lon="11.343649215207968"><ele>247.0</ele><time>2026-04-25T09:11:16.999Z</time></trkpt><trkpt lat="43.29215987772383" lon="11.34369466907719"><ele>247.0</ele><time>2026-04-25T09:11:17.999Z</time></trkpt><trkpt lat="43.292052320644316" lon="11.343735304707987"><ele>247.0</ele><time>2026-04-25T09:11:18.999Z</time></trkpt><trkpt lat="43.29194337280307" lon="11.343762917691492"><ele>246.6</ele><time>2026-04-25T09:11:19.999Z</time></trkpt><trkpt lat="43.29184050936812" lon="11.343790578775724"><ele>246.2</ele><time>2026-04-25T09:11:20.999Z</time></trkpt><trkpt lat="43.291741995124106" lon="11.343813747894723"><ele>245.8</ele><time>2026-04-25T09:11:21.999Z</time></trkpt><trkpt lat="43.2916326675557" lon="11.34383912097341"><ele>245.4</ele><time>2026-04-25T09:11:22.999Z</time></trkpt><trkpt lat="43.29151079260036" lon="11.343863094001492"><ele>245.0</ele><time>2026-04-25T09:11:23.999Z</time></trkpt><trkpt lat="43.291374547923425" lon="11.343873282808474"><ele>244.66666666666669</ele><time>2026-04-25T09:11:24.999Z</time></trkpt><trkpt lat="43.291239095796534" lon="11.343895570233494"><ele>244.33333333333331</ele><time>2026-04-25T09:11:25.999Z</time></trkpt><trkpt lat="43.29105783701144" lon="11.343911930851215"><ele>244.0</ele><time>2026-04-25T09:11:26.999Z</time></trkpt><trkpt lat="43.2909049313907" lon="11.343938916955262"><ele>244.0</ele><time>2026-04-25T09:11:27.999Z</time></trkpt><trkpt lat="43.29076328295676" lon="11.34394004011272"><ele>244.0</ele><time>2026-04-25T09:11:28.999Z</time></trkpt><trkpt lat="43.29063138854764" lon="11.343935414782246"><ele>244.0</ele><time>2026-04-25T09:11:29.999Z</time></trkpt><trkpt lat="43.29050823245884" lon="11.343922420241562"><ele>244.0</ele><time>2026-04-25T09:11:30.999Z</time></trkpt><trkpt lat="43.290389678263274" lon="11.343903332167823"><ele>244.75</ele><time>2026-04-25T09:11:31.999Z</time></trkpt><trkpt lat="43.29026914591141" lon="11.34387599062941"><ele>245.5</ele><time>2026-04-25T09:11:32.999Z</time></trkpt><trkpt lat="43.29014938395288" lon="11.343842213159201"><ele>246.25</ele><time>2026-04-25T09:11:33.999Z</time></trkpt><trkpt lat="43.290034820668424" lon="11.34380635076702"><ele>247.0</ele><time>2026-04-25T09:11:34.999Z</time></trkpt><trkpt lat="43.289921882310864" lon="11.34377478990225"><ele>247.0</ele><time>2026-04-25T09:11:35.999Z</time></trkpt><trkpt lat="43.28981002388348" lon="11.343748620567958"><ele>247.0</ele><time>2026-04-25T09:11:36.999Z</time></trkpt><trkpt lat="43.289702856050596" lon="11.343728247143417"><ele>247.0</ele><time>2026-04-25T09:11:37.999Z</time></trkpt><trkpt lat="43.28959206947464" lon="11.34371940174211"><ele>247.0</ele><time>2026-04-25T09:11:38.999Z</time></trkpt><trkpt lat="43.28948697577474" lon="11.343727917230472"><ele>247.0</ele><time>2026-04-25T09:11:39.999Z</time></trkpt><trkpt lat="43.28939622747424" lon="11.343745725752132"><ele>247.14285714285717</ele><time>2026-04-25T09:11:40.999Z</time></trkpt><trkpt lat="43.289310798344374" lon="11.343762568758832"><ele>247.28571428571428</ele><time>2026-04-25T09:11:41.999Z</time></trkpt><trkpt lat="43.28923572394438" lon="11.343781759860969"><ele>247.42857142857144</ele><time>2026-04-25T09:11:42.999Z</time></trkpt><trkpt lat="43.28916325187465" lon="11.343799975306256"><ele>247.57142857142858</ele><time>2026-04-25T09:11:43.999Z</time></trkpt><trkpt lat="43.28909584887664" lon="11.34381524739147"><ele>247.71428571428572</ele><time>2026-04-25T09:11:44.999Z</time></trkpt><trkpt lat="43.28902880706571" lon="11.34382799500579"><ele>247.85714285714286</ele><time>2026-04-25T09:11:45.999Z</time></trkpt><trkpt lat="43.28896051618897" lon="11.3438369201907"><ele>248.0</ele><time>2026-04-25T09:11:46.999Z</time></trkpt><trkpt lat="43.288891789282594" lon="11.343851076125414"><ele>248.00000000000003</ele><time>2026-04-25T09:11:47.999Z</time></trkpt><trkpt lat="43.28882333188255" lon="11.34387234879957"><ele>248.0</ele><time>2026-04-25T09:11:48.999Z</time></trkpt><trkpt lat="43.2887468075289" lon="11.343893325655051"><ele>248.0</ele><time>2026-04-25T09:11:50Z</time></trkpt><trkpt lat="43.28866180240994" lon="11.343909618449272"><ele>248.0</ele><time>2026-04-25T09:11:51Z</time></trkpt><trkpt lat="43.28856720401985" lon="11.343925910847297"><ele>248.00000000000003</ele><time>2026-04-25T09:11:52Z</time></trkpt><trkpt lat="43.2884712110804" lon="11.343947723381584"><ele>248.0</ele><time>2026-04-25T09:11:53Z</time></trkpt><trkpt lat="43.288371889749776" lon="11.34397399774665"><ele>248.0</ele><time>2026-04-25T09:11:54Z</time></trkpt><trkpt lat="43.2882697380659" lon="11.344003973496047"><ele>248.0</ele><time>2026-04-25T09:11:55Z</time></trkpt><trkpt lat="43.28816429390304" lon="11.344033850999475"><ele>248.0</ele><time>2026-04-25T09:11:56Z</time></trkpt><trkpt lat="43.28806111122813" lon="11.34407395020811"><ele>248.0</ele><time>2026-04-25T09:11:57Z</time></trkpt><trkpt lat="43.287965222228394" lon="11.344123919373565"><ele>248.0</ele><time>2026-04-25T09:11:58Z</time></trkpt><trkpt lat="43.28787174994341" lon="11.344178535097933"><ele>248.0</ele><time>2026-04-25T09:11:59Z</time></trkpt><trkpt lat="43.287783712219365" lon="11.34424307809613"><ele>248.0</ele><time>2026-04-25T09:12:00Z</time></trkpt><trkpt lat="43.28770228769953" lon="11.344322521705928"><ele>248.0</ele><time>2026-04-25T09:12:01Z</time></trkpt><trkpt lat="43.28762573707239" lon="11.34440651437559"><ele>248.0</ele><time>2026-04-25T09:12:02Z</time></trkpt><trkpt lat="43.28755287927194" lon="11.34449295408522"><ele>248.0</ele><time>2026-04-25T09:12:03Z</time></trkpt><trkpt lat="43.28748324888109" lon="11.344584952101748"><ele>248.0</ele><time>2026-04-25T09:12:04Z</time></trkpt><trkpt lat="43.28741457781215" lon="11.344680657873885"><ele>248.0</ele><time>2026-04-25T09:12:05Z</time></trkpt><trkpt lat="43.287343277533296" lon="11.344777577181372"><ele>248.0</ele><time>2026-04-25T09:12:06Z</time></trkpt><trkpt lat="43.28726780793448" lon="11.344879701403302"><ele>248.0</ele><time>2026-04-25T09:12:07Z</time></trkpt><trkpt lat="43.28718951820496" lon="11.344990667819955"><ele>248.0</ele><time>2026-04-25T09:12:08Z</time></trkpt><trkpt lat="43.28711166809735" lon="11.345118988277962"><ele>247.25</ele><time>2026-04-25T09:12:09Z</time></trkpt><trkpt lat="43.287034121889995" lon="11.345265767105449"><ele>246.5</ele><time>2026-04-25T09:12:10Z</time></trkpt><trkpt lat="43.286957313056284" lon="11.345427207298973"><ele>245.75</ele><time>2026-04-25T09:12:11Z</time></trkpt><trkpt lat="43.286887944857185" lon="11.34559668553659"><ele>245.0</ele><time>2026-04-25T09:12:12Z</time></trkpt><trkpt lat="43.28682634930601" lon="11.345774150436302"><ele>245.0</ele><time>2026-04-25T09:12:13Z</time></trkpt><trkpt lat="43.28677933238394" lon="11.34596013995047"><ele>245.0</ele><time>2026-04-25T09:12:14Z</time></trkpt><trkpt lat="43.286745026265784" lon="11.3461493611731"><ele>245.0</ele><time>2026-04-25T09:12:15Z</time></trkpt><trkpt lat="43.286715114257106" lon="11.3463376502672"><ele>245.0</ele><time>2026-04-25T09:12:16Z</time></trkpt><trkpt lat="43.28669338547237" lon="11.346524982448635"><ele>244.0</ele><time>2026-04-25T09:12:17Z</time></trkpt><trkpt lat="43.28667802358171" lon="11.346712169041925"><ele>243.0</ele><time>2026-04-25T09:12:18Z</time></trkpt><trkpt lat="43.28666615090097" lon="11.346903987896681"><ele>242.0</ele><time>2026-04-25T09:12:19Z</time></trkpt><trkpt lat="43.28665132097194" lon="11.347098427331499"><ele>241.0</ele><time>2026-04-25T09:12:20Z</time></trkpt><trkpt lat="43.286627458127555" lon="11.347292576086428"><ele>241.0</ele><time>2026-04-25T09:12:21Z</time></trkpt><trkpt lat="43.28659049415292" lon="11.347484963749013"><ele>241.0</ele><time>2026-04-25T09:12:22Z</time></trkpt><trkpt lat="43.286543522642624" lon="11.347670816998118"><ele>241.0</ele><time>2026-04-25T09:12:23Z</time></trkpt><trkpt lat="43.28649086918633" lon="11.347854557372662"><ele>241.0</ele><time>2026-04-25T09:12:24Z</time></trkpt><trkpt lat="43.28643821171519" lon="11.348042464575272"><ele>237.66666666666666</ele><time>2026-04-25T09:12:25Z</time></trkpt><trkpt lat="43.28638365731916" lon="11.348232658333323"><ele>234.33333333333331</ele><time>2026-04-25T09:12:26Z</time></trkpt><trkpt lat="43.28631854749882" lon="11.348419519234556"><ele>231.0</ele><time>2026-04-25T09:12:27Z</time></trkpt><trkpt lat="43.28624394268268" lon="11.348605677721151"><ele>231.0</ele><time>2026-04-25T09:12:28Z</time></trkpt><trkpt lat="43.28616571977425" lon="11.34879198361769"><ele>231.0</ele><time>2026-04-25T09:12:29Z</time></trkpt><trkpt lat="43.286090572982935" lon="11.3489777008539"><ele>231.0</ele><time>2026-04-25T09:12:30Z</time></trkpt><trkpt lat="43.28601834007942" lon="11.3491626554487"><ele>231.75</ele><time>2026-04-25T09:12:31Z</time></trkpt><trkpt lat="43.285945383175786" lon="11.349339383689125"><ele>232.5</ele><time>2026-04-25T09:12:32Z</time></trkpt><trkpt lat="43.28587237971753" lon="11.34951023793284"><ele>233.25</ele><time>2026-04-25T09:12:33Z</time></trkpt><trkpt lat="43.285803887534094" lon="11.349678436855354"><ele>234.0</ele><time>2026-04-25T09:12:34Z</time></trkpt><trkpt lat="43.28574165679634" lon="11.349844229538611"><ele>234.25</ele><time>2026-04-25T09:12:35Z</time></trkpt><trkpt lat="43.28568304793295" lon="11.350007915627224"><ele>234.5</ele><time>2026-04-25T09:12:36Z</time></trkpt><trkpt lat="43.28563059136543" lon="11.350167278319617"><ele>234.75</ele><time>2026-04-25T09:12:37Z</time></trkpt><trkpt lat="43.285580730323325" lon="11.350325890953007"><ele>235.0</ele><time>2026-04-25T09:12:38Z</time></trkpt><trkpt lat="43.2855304808922" lon="11.350484703859927"><ele>235.75</ele><time>2026-04-25T09:12:39Z</time></trkpt><trkpt lat="43.28548051230636" lon="11.35064874273268"><ele>236.5</ele><time>2026-04-25T09:12:40Z</time></trkpt><trkpt lat="43.28543118349322" lon="11.350819306903352"><ele>237.25</ele><time>2026-04-25T09:12:41Z</time></trkpt><trkpt lat="43.285383774397886" lon="11.3509908721307"><ele>238.0</ele><time>2026-04-25T09:12:42Z</time></trkpt><trkpt lat="43.285305525021286" lon="11.351185124781287"><ele>237.0</ele><time>2026-04-25T09:12:43Z</time></trkpt><trkpt lat="43.28523191535132" lon="11.351416479366748"><ele>236.0</ele><time>2026-04-25T09:12:44Z</time></trkpt><trkpt lat="43.28515344991819" lon="11.35166373626659"><ele>235.0</ele><time>2026-04-25T09:12:45Z</time></trkpt><trkpt lat="43.2850837108638" lon="11.351924295599662"><ele>235.0</ele><time>2026-04-25T09:12:46Z</time></trkpt><trkpt lat="43.28499615009027" lon="11.352164436748993"><ele>235.0</ele><time>2026-04-25T09:12:47Z</time></trkpt><trkpt lat="43.28491326296245" lon="11.352392501990677"><ele>235.0</ele><time>2026-04-25T09:12:48Z</time></trkpt><trkpt lat="43.28482821902724" lon="11.352605831018451"><ele>235.25</ele><time>2026-04-25T09:12:49Z</time></trkpt><trkpt lat="43.28473916379344" lon="11.352786569078521"><ele>235.5</ele><time>2026-04-25T09:12:50Z</time></trkpt><trkpt lat="43.28464727574253" lon="11.352939255665076"><ele>235.75</ele><time>2026-04-25T09:12:51Z</time></trkpt><trkpt lat="43.28454925366742" lon="11.353063067999505"><ele>236.0</ele><time>2026-04-25T09:12:52Z</time></trkpt><trkpt lat="43.284443643075456" lon="11.353168818961612"><ele>236.0</ele><time>2026-04-25T09:12:53Z</time></trkpt><trkpt lat="43.28434153156383" lon="11.353261310766008"><ele>236.0</ele><time>2026-04-25T09:12:54Z</time></trkpt><trkpt lat="43.28424273334611" lon="11.353347011182455"><ele>236.0</ele><time>2026-04-25T09:12:55Z</time></trkpt><trkpt lat="43.28414685598046" lon="11.353425923463167"><ele>236.0</ele><time>2026-04-25T09:12:56Z</time></trkpt><trkpt lat="43.28404468121329" lon="11.353494746151217"><ele>236.0</ele><time>2026-04-25T09:12:57Z</time></trkpt><trkpt lat="43.2839353024408" lon="11.3535488702249"><ele>236.0</ele><time>2026-04-25T09:12:58Z</time></trkpt><trkpt lat="43.28382635007445" lon="11.353594345261488"><ele>236.0</ele><time>2026-04-25T09:12:59Z</time></trkpt><trkpt lat="43.28371606901679" lon="11.353629721126005"><ele>236.0</ele><time>2026-04-25T09:13:00Z</time></trkpt><trkpt lat="43.28360454106377" lon="11.35365334620248"><ele>236.5</ele><time>2026-04-25T09:13:00.999Z</time></trkpt><trkpt lat="43.28349366868421" lon="11.353665151672168"><ele>237.0</ele><time>2026-04-25T09:13:01.999Z</time></trkpt><trkpt lat="43.28337801803618" lon="11.353670987449167"><ele>237.5</ele><time>2026-04-25T09:13:02.999Z</time></trkpt><trkpt lat="43.28325667377317" lon="11.353667374750524"><ele>238.0</ele><time>2026-04-25T09:13:03.999Z</time></trkpt><trkpt lat="43.2831316448519" lon="11.353650589361775"><ele>238.0</ele><time>2026-04-25T09:13:04.999Z</time></trkpt><trkpt lat="43.283007737753785" lon="11.35362277225858"><ele>238.0</ele><time>2026-04-25T09:13:06Z</time></trkpt><trkpt lat="43.28288592823096" lon="11.35359496931015"><ele>238.0</ele><time>2026-04-25T09:13:07Z</time></trkpt><trkpt lat="43.28276750139401" lon="11.353571254784557"><ele>238.0</ele><time>2026-04-25T09:13:08Z</time></trkpt><trkpt lat="43.28265652100143" lon="11.353548835195348"><ele>238.0</ele><time>2026-04-25T09:13:09Z</time></trkpt><trkpt lat="43.28254479268182" lon="11.353524480645305"><ele>238.0</ele><time>2026-04-25T09:13:10Z</time></trkpt><trkpt lat="43.28243048057685" lon="11.353497006982597"><ele>238.0</ele><time>2026-04-25T09:13:11Z</time></trkpt><trkpt lat="43.282315554387964" lon="11.353467912688187"><ele>238.0</ele><time>2026-04-25T09:13:12Z</time></trkpt><trkpt lat="43.28219642973015" lon="11.353441755859269"><ele>238.0</ele><time>2026-04-25T09:13:13Z</time></trkpt><trkpt lat="43.282075059877236" lon="11.353417382455106"><ele>238.0</ele><time>2026-04-25T09:13:14Z</time></trkpt><trkpt lat="43.28194965522774" lon="11.353391979520925"><ele>238.0</ele><time>2026-04-25T09:13:15Z</time></trkpt><trkpt lat="43.28182547834733" lon="11.353364297637244"><ele>238.0</ele><time>2026-04-25T09:13:16Z</time></trkpt><trkpt lat="43.28170181141355" lon="11.353334859823557"><ele>238.0</ele><time>2026-04-25T09:13:17Z</time></trkpt><trkpt lat="43.28157671392125" lon="11.353302222658026"><ele>238.0</ele><time>2026-04-25T09:13:18Z</time></trkpt><trkpt lat="43.28145518352946" lon="11.353271593025655"><ele>238.0</ele><time>2026-04-25T09:13:19Z</time></trkpt><trkpt lat="43.281337789555955" lon="11.35324239716384"><ele>238.0</ele><time>2026-04-25T09:13:20Z</time></trkpt><trkpt lat="43.28122287040713" lon="11.353213184741492"><ele>238.0</ele><time>2026-04-25T09:13:21Z</time></trkpt><trkpt lat="43.28110845629532" lon="11.353177529202723"><ele>238.0</ele><time>2026-04-25T09:13:22Z</time></trkpt><trkpt lat="43.280989761730005" lon="11.353139915936655"><ele>238.0</ele><time>2026-04-25T09:13:23Z</time></trkpt><trkpt lat="43.28086713469351" lon="11.353095857205357"><ele>238.0</ele><time>2026-04-25T09:13:24Z</time></trkpt><trkpt lat="43.28074118125981" lon="11.353047958955786"><ele>237.25</ele><time>2026-04-25T09:13:25Z</time></trkpt><trkpt lat="43.28061150691432" lon="11.3530017791909"><ele>236.5</ele><time>2026-04-25T09:13:26Z</time></trkpt><trkpt lat="43.28048176857511" lon="11.352959237650238"><ele>235.75</ele><time>2026-04-25T09:13:27Z</time></trkpt><trkpt lat="43.280352712179145" lon="11.352908094948509"><ele>235.0</ele><time>2026-04-25T09:13:28Z</time></trkpt><trkpt lat="43.28021946639279" lon="11.352864669514958"><ele>233.75</ele><time>2026-04-25T09:13:29Z</time></trkpt><trkpt lat="43.28008770170373" lon="11.352823807748486"><ele>232.5</ele><time>2026-04-25T09:13:30Z</time></trkpt><trkpt lat="43.279953292432594" lon="11.352783073286133"><ele>231.25</ele><time>2026-04-25T09:13:31Z</time></trkpt><trkpt lat="43.279814373350206" lon="11.352743824767318"><ele>230.0</ele><time>2026-04-25T09:13:32Z</time></trkpt><trkpt lat="43.279673257738004" lon="11.352708930783521"><ele>229.25</ele><time>2026-04-25T09:13:33Z</time></trkpt><trkpt lat="43.279532251183646" lon="11.35267946529667"><ele>228.5</ele><time>2026-04-25T09:13:34Z</time></trkpt><trkpt lat="43.279392602253374" lon="11.352658013721847"><ele>227.75</ele><time>2026-04-25T09:13:35Z</time></trkpt><trkpt lat="43.27925513491826" lon="11.352640840815756"><ele>227.0</ele><time>2026-04-25T09:13:36Z</time></trkpt><trkpt lat="43.279119266715924" lon="11.3526248297693"><ele>227.0</ele><time>2026-04-25T09:13:37Z</time></trkpt><trkpt lat="43.27898579266754" lon="11.3526154994419"><ele>227.0</ele><time>2026-04-25T09:13:38Z</time></trkpt><trkpt lat="43.278856332834515" lon="11.35262105881941"><ele>227.0</ele><time>2026-04-25T09:13:39Z</time></trkpt><trkpt lat="43.27873029688471" lon="11.352635958429124"><ele>227.0</ele><time>2026-04-25T09:13:40Z</time></trkpt><trkpt lat="43.27860692451538" lon="11.352665373109303"><ele>227.0</ele><time>2026-04-25T09:13:41Z</time></trkpt><trkpt lat="43.27848531852802" lon="11.35270304225612"><ele>227.0</ele><time>2026-04-25T09:13:42Z</time></trkpt><trkpt lat="43.27834988621246" lon="11.35286517519137"><ele>227.0</ele><time>2026-04-25T09:13:43Z</time></trkpt><trkpt lat="43.27822175905615" lon="11.352952257349338"><ele>227.0</ele><time>2026-04-25T09:13:44Z</time></trkpt><trkpt lat="43.278088912768006" lon="11.353038032304093"><ele>228.0</ele><time>2026-04-25T09:13:45Z</time></trkpt><trkpt lat="43.277955378785755" lon="11.353119227963258"><ele>229.0</ele><time>2026-04-25T09:13:46Z</time></trkpt><trkpt lat="43.27782001774012" lon="11.353200514041069"><ele>230.0</ele><time>2026-04-25T09:13:47Z</time></trkpt><trkpt lat="43.277688129933644" lon="11.353280288366815"><ele>231.0</ele><time>2026-04-25T09:13:48Z</time></trkpt><trkpt lat="43.27755743747463" lon="11.353359611001325"><ele>231.0</ele><time>2026-04-25T09:13:49Z</time></trkpt><trkpt lat="43.27743177225504" lon="11.353438287482614"><ele>231.0</ele><time>2026-04-25T09:13:50Z</time></trkpt><trkpt lat="43.277308731094436" lon="11.353510223533888"><ele>231.0</ele><time>2026-04-25T09:13:51Z</time></trkpt><trkpt lat="43.27718504171693" lon="11.353574638055264"><ele>231.0</ele><time>2026-04-25T09:13:52Z</time></trkpt><trkpt lat="43.27705366205144" lon="11.353626184418323"><ele>231.25</ele><time>2026-04-25T09:13:53Z</time></trkpt><trkpt lat="43.276918227810775" lon="11.35366524165211"><ele>231.5</ele><time>2026-04-25T09:13:54Z</time></trkpt><trkpt lat="43.276771534264405" lon="11.35369919854569"><ele>231.75</ele><time>2026-04-25T09:13:55Z</time></trkpt><trkpt lat="43.276623222681216" lon="11.353738417994554"><ele>232.0</ele><time>2026-04-25T09:13:56Z</time></trkpt><trkpt lat="43.276474611390995" lon="11.353768415203001"><ele>230.75</ele><time>2026-04-25T09:13:57Z</time></trkpt><trkpt lat="43.276329031792294" lon="11.353794322439068"><ele>229.5</ele><time>2026-04-25T09:13:58Z</time></trkpt><trkpt lat="43.27618680449615" lon="11.353820742456715"><ele>228.25</ele><time>2026-04-25T09:13:59Z</time></trkpt><trkpt lat="43.276042605717095" lon="11.35385391788468"><ele>227.0</ele><time>2026-04-25T09:14:00Z</time></trkpt><trkpt lat="43.275894579604476" lon="11.353876128559284"><ele>225.66666666666669</ele><time>2026-04-25T09:14:01Z</time></trkpt><trkpt lat="43.27573943917216" lon="11.35390090495181"><ele>224.33333333333331</ele><time>2026-04-25T09:14:02Z</time></trkpt><trkpt lat="43.275582682547906" lon="11.353932570806835"><ele>223.0</ele><time>2026-04-25T09:14:03Z</time></trkpt><trkpt lat="43.27543410696097" lon="11.353962887180037"><ele>222.66666666666666</ele><time>2026-04-25T09:14:04Z</time></trkpt><trkpt lat="43.2752861378017" lon="11.3539919750496"><ele>222.33333333333331</ele><time>2026-04-25T09:14:05Z</time></trkpt><trkpt lat="43.27513872539502" lon="11.354019516430014"><ele>222.0</ele><time>2026-04-25T09:14:06Z</time></trkpt><trkpt lat="43.27498839585773" lon="11.354049610843415"><ele>222.0</ele><time>2026-04-25T09:14:07Z</time></trkpt><trkpt lat="43.274841094104715" lon="11.354089158401873"><ele>222.0</ele><time>2026-04-25T09:14:08Z</time></trkpt><trkpt lat="43.274698319763765" lon="11.354142486060962"><ele>222.0</ele><time>2026-04-25T09:14:09Z</time></trkpt><trkpt lat="43.27456793602157" lon="11.354224749587702"><ele>222.0</ele><time>2026-04-25T09:14:10Z</time></trkpt><trkpt lat="43.27445160554152" lon="11.354339985936718"><ele>222.0</ele><time>2026-04-25T09:14:11Z</time></trkpt><trkpt lat="43.274352408068296" lon="11.354477324305966"><ele>222.0</ele><time>2026-04-25T09:14:12Z</time></trkpt><trkpt lat="43.27426426658529" lon="11.354615992515658"><ele>222.0</ele><time>2026-04-25T09:14:13Z</time></trkpt><trkpt lat="43.27417677807533" lon="11.354753088707994"><ele>222.0</ele><time>2026-04-25T09:14:14Z</time></trkpt><trkpt lat="43.27409071451731" lon="11.354895226364327"><ele>222.0</ele><time>2026-04-25T09:14:15Z</time></trkpt><trkpt lat="43.27399659450512" lon="11.35503512128828"><ele>222.0</ele><time>2026-04-25T09:14:16Z</time></trkpt><trkpt lat="43.273887530482305" lon="11.355166327671611"><ele>222.0</ele><time>2026-04-25T09:14:17Z</time></trkpt><trkpt lat="43.273769168489" lon="11.355288037444978"><ele>222.0</ele><time>2026-04-25T09:14:18Z</time></trkpt><trkpt lat="43.27365003412862" lon="11.355411943383315"><ele>222.25</ele><time>2026-04-25T09:14:19Z</time></trkpt><trkpt lat="43.27353398282822" lon="11.355540512455036"><ele>222.5</ele><time>2026-04-25T09:14:20Z</time></trkpt><trkpt lat="43.273420914209346" lon="11.355673007489274"><ele>222.75</ele><time>2026-04-25T09:14:21Z</time></trkpt><trkpt lat="43.27330930870913" lon="11.35580019751603"><ele>223.0</ele><time>2026-04-25T09:14:22Z</time></trkpt><trkpt lat="43.27320193964957" lon="11.355924065006457"><ele>224.0</ele><time>2026-04-25T09:14:23Z</time></trkpt><trkpt lat="43.27309280468846" lon="11.356037373410201"><ele>225.0</ele><time>2026-04-25T09:14:24Z</time></trkpt><trkpt lat="43.27298757029887" lon="11.356149601068015"><ele>226.0</ele><time>2026-04-25T09:14:25Z</time></trkpt><trkpt lat="43.272888114070504" lon="11.356264963015994"><ele>227.0</ele><time>2026-04-25T09:14:26Z</time></trkpt><trkpt lat="43.27279018133802" lon="11.356375695228643"><ele>227.0</ele><time>2026-04-25T09:14:27Z</time></trkpt><trkpt lat="43.27269457092173" lon="11.356486164756076"><ele>227.0</ele><time>2026-04-25T09:14:28Z</time></trkpt><trkpt lat="43.27259670746774" lon="11.356595730529367"><ele>227.0</ele><time>2026-04-25T09:14:29Z</time></trkpt><trkpt lat="43.272498592657016" lon="11.35670659744303"><ele>227.0</ele><time>2026-04-25T09:14:30Z</time></trkpt><trkpt lat="43.272400791316926" lon="11.356819591232243"><ele>227.0</ele><time>2026-04-25T09:14:31Z</time></trkpt><trkpt lat="43.27229980289803" lon="11.356929075231635"><ele>227.0</ele><time>2026-04-25T09:14:32Z</time></trkpt><trkpt lat="43.27219917318369" lon="11.357039426058872"><ele>227.0</ele><time>2026-04-25T09:14:33Z</time></trkpt><trkpt lat="43.272101887354154" lon="11.357142125128146"><ele>227.0</ele><time>2026-04-25T09:14:34Z</time></trkpt><trkpt lat="43.27201009858137" lon="11.35724144846444"><ele>226.2</ele><time>2026-04-25T09:14:35Z</time></trkpt><trkpt lat="43.27192759819367" lon="11.357332357984342"><ele>225.39999999999998</ele><time>2026-04-25T09:14:36Z</time></trkpt><trkpt lat="43.27185848596634" lon="11.357398320480566"><ele>224.60000000000002</ele><time>2026-04-25T09:14:37Z</time></trkpt><trkpt lat="43.27176191412934" lon="11.35741797573379"><ele>223.8</ele><time>2026-04-25T09:14:39Z</time></trkpt><trkpt lat="43.27168632011972" lon="11.357281565955612"><ele>223.0</ele><time>2026-04-25T09:14:40Z</time></trkpt><trkpt lat="43.27159303144588" lon="11.357204737196428"><ele>223.0</ele><time>2026-04-25T09:14:41.001Z</time></trkpt><trkpt lat="43.271497660513646" lon="11.357094845756652"><ele>223.0</ele><time>2026-04-25T09:14:42.001Z</time></trkpt><trkpt lat="43.27139991654139" lon="11.35696552366826"><ele>223.0</ele><time>2026-04-25T09:14:43.001Z</time></trkpt><trkpt lat="43.271290445574955" lon="11.35684342889794"><ele>223.0</ele><time>2026-04-25T09:14:44.001Z</time></trkpt><trkpt lat="43.271181274479815" lon="11.35672698754098"><ele>222.75</ele><time>2026-04-25T09:14:45.001Z</time></trkpt><trkpt lat="43.27106792064119" lon="11.356635167171536"><ele>222.5</ele><time>2026-04-25T09:14:46.001Z</time></trkpt><trkpt lat="43.270967739196124" lon="11.356529500737636"><ele>222.25</ele><time>2026-04-25T09:14:47.001Z</time></trkpt><trkpt lat="43.27086757087508" lon="11.3564314871225"><ele>222.0</ele><time>2026-04-25T09:14:48.001Z</time></trkpt><trkpt lat="43.27077060996633" lon="11.356333944271057"><ele>220.0</ele><time>2026-04-25T09:14:49.001Z</time></trkpt><trkpt lat="43.27068749837737" lon="11.356217511764555"><ele>218.0</ele><time>2026-04-25T09:14:50.001Z</time></trkpt><trkpt lat="43.27058868420027" lon="11.356143975019316"><ele>216.0</ele><time>2026-04-25T09:14:51.001Z</time></trkpt><trkpt lat="43.27051325503073" lon="11.356059608544246"><ele>214.0</ele><time>2026-04-25T09:14:52.001Z</time></trkpt><trkpt lat="43.27044795445288" lon="11.355991586336415"><ele>212.0</ele><time>2026-04-25T09:14:53.001Z</time></trkpt><trkpt lat="43.27038682380454" lon="11.35594569470542"><ele>211.6</ele><time>2026-04-25T09:14:54.001Z</time></trkpt><trkpt lat="43.270316882250015" lon="11.355914408012383"><ele>211.2</ele><time>2026-04-25T09:14:55.001Z</time></trkpt><trkpt lat="43.27023113050459" lon="11.35589322072256"><ele>210.8</ele><time>2026-04-25T09:14:56.001Z</time></trkpt><trkpt lat="43.27013486197304" lon="11.355884675463033"><ele>210.4</ele><time>2026-04-25T09:14:57.001Z</time></trkpt><trkpt lat="43.270032454771325" lon="11.355887127956668"><ele>210.0</ele><time>2026-04-25T09:14:58.001Z</time></trkpt><trkpt lat="43.26993197111228" lon="11.35589840250448"><ele>210.0</ele><time>2026-04-25T09:14:59.001Z</time></trkpt><trkpt lat="43.26983863013715" lon="11.355916350603762"><ele>210.0</ele><time>2026-04-25T09:15:00.001Z</time></trkpt><trkpt lat="43.269747275404875" lon="11.355945136897283"><ele>210.0</ele><time>2026-04-25T09:15:01.001Z</time></trkpt><trkpt lat="43.269654370896205" lon="11.355984636331565"><ele>210.0</ele><time>2026-04-25T09:15:02.001Z</time></trkpt><trkpt lat="43.26956482697954" lon="11.356039364496578"><ele>210.0</ele><time>2026-04-25T09:15:03.001Z</time></trkpt><trkpt lat="43.269478495110235" lon="11.356109660322948"><ele>208.4</ele><time>2026-04-25T09:15:04.001Z</time></trkpt><trkpt lat="43.26939409999991" lon="11.35619237638063"><ele>206.8</ele><time>2026-04-25T09:15:05.001Z</time></trkpt><trkpt lat="43.269313122703174" lon="11.356286620296574"><ele>205.2</ele><time>2026-04-25T09:15:06.001Z</time></trkpt><trkpt lat="43.26923400390345" lon="11.35638801507029"><ele>203.6</ele><time>2026-04-25T09:15:07Z</time></trkpt><trkpt lat="43.26916194813236" lon="11.356495240021877"><ele>202.0</ele><time>2026-04-25T09:15:08Z</time></trkpt><trkpt lat="43.26909884578989" lon="11.356613446501976"><ele>202.0</ele><time>2026-04-25T09:15:09Z</time></trkpt><trkpt lat="43.269044895551225" lon="11.356733425001753"><ele>202.0</ele><time>2026-04-25T09:15:10Z</time></trkpt><trkpt lat="43.26900326224153" lon="11.35685818947279"><ele>202.0</ele><time>2026-04-25T09:15:11Z</time></trkpt><trkpt lat="43.268968016526394" lon="11.356994370125896"><ele>202.0</ele><time>2026-04-25T09:15:12Z</time></trkpt><trkpt lat="43.268942031235774" lon="11.35713566525023"><ele>202.0</ele><time>2026-04-25T09:15:13Z</time></trkpt><trkpt lat="43.2689244285573" lon="11.357281016395392"><ele>198.75</ele><time>2026-04-25T09:15:14Z</time></trkpt><trkpt lat="43.26891748803957" lon="11.357429013930991"><ele>195.5</ele><time>2026-04-25T09:15:15Z</time></trkpt><trkpt lat="43.26891803261345" lon="11.35758233012084"><ele>192.25</ele><time>2026-04-25T09:15:16Z</time></trkpt><trkpt lat="43.26892281187544" lon="11.357742536369745"><ele>189.0</ele><time>2026-04-25T09:15:17Z</time></trkpt><trkpt lat="43.268923736018124" lon="11.357901153065171"><ele>189.0</ele><time>2026-04-25T09:15:18Z</time></trkpt><trkpt lat="43.26892373685909" lon="11.358053840505633"><ele>189.0</ele><time>2026-04-25T09:15:19Z</time></trkpt><trkpt lat="43.268918307355406" lon="11.358209318390912"><ele>189.0</ele><time>2026-04-25T09:15:20Z</time></trkpt><trkpt lat="43.26890052922439" lon="11.358366838573003"><ele>189.0</ele><time>2026-04-25T09:15:21Z</time></trkpt><trkpt lat="43.26886589473935" lon="11.358525227821684"><ele>189.0</ele><time>2026-04-25T09:15:22Z</time></trkpt><trkpt lat="43.26882333271245" lon="11.358678465364978"><ele>189.0</ele><time>2026-04-25T09:15:23Z</time></trkpt><trkpt lat="43.26876737385122" lon="11.35882130134107"><ele>189.0</ele><time>2026-04-25T09:15:24Z</time></trkpt><trkpt lat="43.26869882364874" lon="11.358952289928695"><ele>189.0</ele><time>2026-04-25T09:15:25Z</time></trkpt><trkpt lat="43.268613917305935" lon="11.35907359087206"><ele>189.25</ele><time>2026-04-25T09:15:26Z</time></trkpt><trkpt lat="43.26851520813912" lon="11.359182440219348"><ele>189.5</ele><time>2026-04-25T09:15:27Z</time></trkpt><trkpt lat="43.26840058604627" lon="11.359270109488834"><ele>189.75</ele><time>2026-04-25T09:15:28Z</time></trkpt><trkpt lat="43.268274916771894" lon="11.359320448314902"><ele>190.0</ele><time>2026-04-25T09:15:29Z</time></trkpt><trkpt lat="43.26814551835534" lon="11.359370793098828"><ele>189.0</ele><time>2026-04-25T09:15:30Z</time></trkpt><trkpt lat="43.26801529066064" lon="11.359416590730678"><ele>188.0</ele><time>2026-04-25T09:15:31Z</time></trkpt><trkpt lat="43.26788499469566" lon="11.359378792515649"><ele>187.0</ele><time>2026-04-25T09:15:32Z</time></trkpt><trkpt lat="43.2677555196994" lon="11.359340508515883"><ele>186.0</ele><time>2026-04-25T09:15:33Z</time></trkpt><trkpt lat="43.267615960198256" lon="11.359292551082824"><ele>186.0</ele><time>2026-04-25T09:15:34Z</time></trkpt><trkpt lat="43.267460009386056" lon="11.359254782544525"><ele>186.0</ele><time>2026-04-25T09:15:35Z</time></trkpt><trkpt lat="43.26730396232408" lon="11.359178817019389"><ele>186.0</ele><time>2026-04-25T09:15:36Z</time></trkpt><trkpt lat="43.267145825008264" lon="11.359109311014445"><ele>185.66666666666666</ele><time>2026-04-25T09:15:37Z</time></trkpt><trkpt lat="43.266991577794364" lon="11.359042832601613"><ele>185.33333333333331</ele><time>2026-04-25T09:15:38Z</time></trkpt><trkpt lat="43.2668375596212" lon="11.35897767710189"><ele>185.0</ele><time>2026-04-25T09:15:39Z</time></trkpt><trkpt lat="43.26669031744538" lon="11.358922325303354"><ele>185.0</ele><time>2026-04-25T09:15:40Z</time></trkpt><trkpt lat="43.26655342211691" lon="11.358862662077632"><ele>185.0</ele><time>2026-04-25T09:15:41Z</time></trkpt><trkpt lat="43.266417639017654" lon="11.358797901090115"><ele>185.0</ele><time>2026-04-25T09:15:42Z</time></trkpt><trkpt lat="43.26627431852671" lon="11.358737081306515"><ele>185.0</ele><time>2026-04-25T09:15:43Z</time></trkpt><trkpt lat="43.2661134782312" lon="11.358670381208094"><ele>185.0</ele><time>2026-04-25T09:15:44Z</time></trkpt><trkpt lat="43.26594611082713" lon="11.358601533522643"><ele>185.0</ele><time>2026-04-25T09:15:45Z</time></trkpt><trkpt lat="43.26579377758986" lon="11.358536384874904"><ele>185.0</ele><time>2026-04-25T09:15:46Z</time></trkpt><trkpt lat="43.26564893165087" lon="11.358476390432267"><ele>184.75</ele><time>2026-04-25T09:15:47Z</time></trkpt><trkpt lat="43.265510851822604" lon="11.358416496768442"><ele>184.5</ele><time>2026-04-25T09:15:48Z</time></trkpt><trkpt lat="43.26537644477197" lon="11.358350775389347"><ele>184.25</ele><time>2026-04-25T09:15:49Z</time></trkpt><trkpt lat="43.2652521266486" lon="11.358292913572416"><ele>184.0</ele><time>2026-04-25T09:15:50Z</time></trkpt><trkpt lat="43.26514076884985" lon="11.358250113507056"><ele>184.0</ele><time>2026-04-25T09:15:51Z</time></trkpt><trkpt lat="43.265050782493475" lon="11.358213590967756"><ele>184.0</ele><time>2026-04-25T09:15:52Z</time></trkpt><trkpt lat="43.26497261541079" lon="11.358187132302055"><ele>184.0</ele><time>2026-04-25T09:15:53Z</time></trkpt><trkpt lat="43.2648908425951" lon="11.358178519080168"><ele>184.0</ele><time>2026-04-25T09:15:54Z</time></trkpt><trkpt lat="43.26480739711844" lon="11.358193599905986"><ele>184.0</ele><time>2026-04-25T09:15:55Z</time></trkpt><trkpt lat="43.26471676774095" lon="11.358232934166713"><ele>184.0</ele><time>2026-04-25T09:15:56Z</time></trkpt><trkpt lat="43.2646362292271" lon="11.358288968273028"><ele>184.6</ele><time>2026-04-25T09:15:57Z</time></trkpt><trkpt lat="43.26457095975897" lon="11.358362492003666"><ele>185.2</ele><time>2026-04-25T09:15:58Z</time></trkpt><trkpt lat="43.26452532474816" lon="11.358441553292417"><ele>185.79999999999998</ele><time>2026-04-25T09:15:59Z</time></trkpt><trkpt lat="43.26448245783873" lon="11.35854708125692"><ele>186.39999999999998</ele><time>2026-04-25T09:16:00Z</time></trkpt><trkpt lat="43.26442842152027" lon="11.358680022920915"><ele>187.0</ele><time>2026-04-25T09:16:01Z</time></trkpt><trkpt lat="43.26434508352761" lon="11.358820007493845"><ele>186.25</ele><time>2026-04-25T09:16:02Z</time></trkpt><trkpt lat="43.26426566580024" lon="11.358958423519395"><ele>185.5</ele><time>2026-04-25T09:16:03Z</time></trkpt><trkpt lat="43.26417323343085" lon="11.35908097269424"><ele>184.75</ele><time>2026-04-25T09:16:04Z</time></trkpt><trkpt lat="43.26407400363802" lon="11.359190063978952"><ele>184.0</ele><time>2026-04-25T09:16:05Z</time></trkpt><trkpt lat="43.26396987258828" lon="11.359279907231326"><ele>183.75</ele><time>2026-04-25T09:16:06Z</time></trkpt><trkpt lat="43.263858449991254" lon="11.359362709640687"><ele>183.5</ele><time>2026-04-25T09:16:07Z</time></trkpt><trkpt lat="43.26374731701483" lon="11.359438434171091"><ele>183.25</ele><time>2026-04-25T09:16:08Z</time></trkpt><trkpt lat="43.26363366226378" lon="11.359514830394742"><ele>183.0</ele><time>2026-04-25T09:16:09Z</time></trkpt><trkpt lat="43.2635153716046" lon="11.359583259937226"><ele>183.0</ele><time>2026-04-25T09:16:10Z</time></trkpt><trkpt lat="43.26340930446375" lon="11.359679669093286"><ele>183.0</ele><time>2026-04-25T09:16:11Z</time></trkpt><trkpt lat="43.263305551810426" lon="11.359777482789648"><ele>183.0</ele><time>2026-04-25T09:16:12Z</time></trkpt><trkpt lat="43.263204532129336" lon="11.359880316722204"><ele>183.0</ele><time>2026-04-25T09:16:13Z</time></trkpt><trkpt lat="43.26309835602251" lon="11.359996821528727"><ele>183.75</ele><time>2026-04-25T09:16:14Z</time></trkpt><trkpt lat="43.26299949627351" lon="11.360127392657272"><ele>184.5</ele><time>2026-04-25T09:16:15Z</time></trkpt><trkpt lat="43.26288084199263" lon="11.36024272590344"><ele>185.25</ele><time>2026-04-25T09:16:16Z</time></trkpt><trkpt lat="43.26277386641349" lon="11.360358612500134"><ele>186.0</ele><time>2026-04-25T09:16:17Z</time></trkpt><trkpt lat="43.26265856168235" lon="11.360492931665854"><ele>185.0</ele><time>2026-04-25T09:16:18Z</time></trkpt><trkpt lat="43.26254059334487" lon="11.360632801087085"><ele>184.0</ele><time>2026-04-25T09:16:19Z</time></trkpt><trkpt lat="43.26242267179874" lon="11.36078068069084"><ele>183.0</ele><time>2026-04-25T09:16:20Z</time></trkpt><trkpt lat="43.262310212051645" lon="11.360934851830494"><ele>182.75</ele><time>2026-04-25T09:16:21Z</time></trkpt><trkpt lat="43.26220479506751" lon="11.361075853328922"><ele>182.5</ele><time>2026-04-25T09:16:22Z</time></trkpt><trkpt lat="43.26210032123936" lon="11.361208662773743"><ele>182.25</ele><time>2026-04-25T09:16:23Z</time></trkpt><trkpt lat="43.26197156605722" lon="11.361319661184632"><ele>182.0</ele><time>2026-04-25T09:16:24Z</time></trkpt><trkpt lat="43.261832345431976" lon="11.361447939955584"><ele>182.0</ele><time>2026-04-25T09:16:25Z</time></trkpt><trkpt lat="43.261686627215724" lon="11.361584111783204"><ele>182.0</ele><time>2026-04-25T09:16:26Z</time></trkpt><trkpt lat="43.26152988154045" lon="11.361689070176604"><ele>182.0</ele><time>2026-04-25T09:16:27Z</time></trkpt><trkpt lat="43.26137304704349" lon="11.361753127531156"><ele>182.0</ele><time>2026-04-25T09:16:28Z</time></trkpt><trkpt lat="43.26122939981799" lon="11.361823974412436"><ele>182.0</ele><time>2026-04-25T09:16:29Z</time></trkpt><trkpt lat="43.2610863912197" lon="11.361885551055215"><ele>182.0</ele><time>2026-04-25T09:16:30Z</time></trkpt><trkpt lat="43.26093588671267" lon="11.361946932997476"><ele>182.0</ele><time>2026-04-25T09:16:31Z</time></trkpt><trkpt lat="43.260785486732296" lon="11.361961709810654"><ele>182.0</ele><time>2026-04-25T09:16:32Z</time></trkpt><trkpt lat="43.26063592681272" lon="11.36195849456043"><ele>182.0</ele><time>2026-04-25T09:16:33Z</time></trkpt><trkpt lat="43.260480671824" lon="11.361935740417227"><ele>183.0</ele><time>2026-04-25T09:16:34Z</time></trkpt><trkpt lat="43.26030378008433" lon="11.361892642611407"><ele>184.0</ele><time>2026-04-25T09:16:35Z</time></trkpt><trkpt lat="43.26012374701768" lon="11.361839809512556"><ele>185.0</ele><time>2026-04-25T09:16:36Z</time></trkpt><trkpt lat="43.25994443783812" lon="11.361780747644268"><ele>187.66666666666666</ele><time>2026-04-25T09:16:37Z</time></trkpt><trkpt lat="43.259770605137376" lon="11.361722154776476"><ele>190.33333333333331</ele><time>2026-04-25T09:16:38Z</time></trkpt><trkpt lat="43.25958000780817" lon="11.361650575142527"><ele>193.0</ele><time>2026-04-25T09:16:39.001Z</time></trkpt><trkpt lat="43.25938983636279" lon="11.361561440291858"><ele>193.0</ele><time>2026-04-25T09:16:40.001Z</time></trkpt><trkpt lat="43.25921863667489" lon="11.361464319984703"><ele>193.0</ele><time>2026-04-25T09:16:41.001Z</time></trkpt><trkpt lat="43.25906191999399" lon="11.361383339736076"><ele>193.0</ele><time>2026-04-25T09:16:42.001Z</time></trkpt><trkpt lat="43.25890831942776" lon="11.361287771661932"><ele>193.66666666666666</ele><time>2026-04-25T09:16:43.001Z</time></trkpt><trkpt lat="43.258754555141635" lon="11.361168994227224"><ele>194.33333333333331</ele><time>2026-04-25T09:16:44.001Z</time></trkpt><trkpt lat="43.2585929721303" lon="11.361025902268553"><ele>195.0</ele><time>2026-04-25T09:16:45.001Z</time></trkpt><trkpt lat="43.258428350659145" lon="11.360864860843435"><ele>195.0</ele><time>2026-04-25T09:16:46.001Z</time></trkpt><trkpt lat="43.25828245086035" lon="11.360723069133527"><ele>195.0</ele><time>2026-04-25T09:16:47.001Z</time></trkpt><trkpt lat="43.258155924145676" lon="11.360604040150035"><ele>195.0</ele><time>2026-04-25T09:16:48.001Z</time></trkpt><trkpt lat="43.25804521022578" lon="11.360497320561496"><ele>195.0</ele><time>2026-04-25T09:16:49.001Z</time></trkpt><trkpt lat="43.257934373089064" lon="11.360413541229798"><ele>195.0</ele><time>2026-04-25T09:16:50.001Z</time></trkpt><trkpt lat="43.257805440895055" lon="11.360343743724611"><ele>195.0</ele><time>2026-04-25T09:16:51.001Z</time></trkpt><trkpt lat="43.25766160199503" lon="11.360279878892328"><ele>195.0</ele><time>2026-04-25T09:16:52.001Z</time></trkpt><trkpt lat="43.2575233459601" lon="11.3602192787053"><ele>195.0</ele><time>2026-04-25T09:16:53.001Z</time></trkpt><trkpt lat="43.25738806419512" lon="11.360165706559185"><ele>195.0</ele><time>2026-04-25T09:16:54.001Z</time></trkpt><trkpt lat="43.25724967233254" lon="11.36011255430082"><ele>195.0</ele><time>2026-04-25T09:16:55.001Z</time></trkpt><trkpt lat="43.25710667836748" lon="11.360078307489394"><ele>195.0</ele><time>2026-04-25T09:16:56.001Z</time></trkpt><trkpt lat="43.256963269320025" lon="11.360062162949408"><ele>196.0</ele><time>2026-04-25T09:16:57.001Z</time></trkpt><trkpt lat="43.25682200065947" lon="11.360062016479064"><ele>197.0</ele><time>2026-04-25T09:16:58.001Z</time></trkpt><trkpt lat="43.256672226408035" lon="11.360079383333877"><ele>198.0</ele><time>2026-04-25T09:16:59.001Z</time></trkpt><trkpt lat="43.25651571567716" lon="11.360106292815612"><ele>199.0</ele><time>2026-04-25T09:17:00.001Z</time></trkpt><trkpt lat="43.256368874302034" lon="11.3601367895571"><ele>200.0</ele><time>2026-04-25T09:17:01.001Z</time></trkpt><trkpt lat="43.25623426632911" lon="11.360172859500342"><ele>201.0</ele><time>2026-04-25T09:17:02.001Z</time></trkpt><trkpt lat="43.2561166925015" lon="11.360224732817917"><ele>202.0</ele><time>2026-04-25T09:17:03.001Z</time></trkpt><trkpt lat="43.256002537005536" lon="11.360297974568997"><ele>203.0</ele><time>2026-04-25T09:17:04.001Z</time></trkpt><trkpt lat="43.25588083845493" lon="11.36038587491066"><ele>203.0</ele><time>2026-04-25T09:17:05.001Z</time></trkpt><trkpt lat="43.255763290076544" lon="11.360472188018491"><ele>203.0</ele><time>2026-04-25T09:17:06.001Z</time></trkpt><trkpt lat="43.25565488715162" lon="11.36054545477723"><ele>203.0</ele><time>2026-04-25T09:17:07.001Z</time></trkpt><trkpt lat="43.25555561669637" lon="11.36060811803885"><ele>203.0</ele><time>2026-04-25T09:17:08.001Z</time></trkpt><trkpt lat="43.25546739862154" lon="11.36066769839931"><ele>205.2</ele><time>2026-04-25T09:17:09.001Z</time></trkpt><trkpt lat="43.25538106711446" lon="11.360733703695276"><ele>207.4</ele><time>2026-04-25T09:17:10.001Z</time></trkpt><trkpt lat="43.25529332548199" lon="11.360806891175045"><ele>209.59999999999997</ele><time>2026-04-25T09:17:11.001Z</time></trkpt><trkpt lat="43.25520518255191" lon="11.360897080467163"><ele>211.79999999999998</ele><time>2026-04-25T09:17:12.001Z</time></trkpt><trkpt lat="43.255117158907076" lon="11.361017825771537"><ele>214.0</ele><time>2026-04-25T09:17:13Z</time></trkpt><trkpt lat="43.255028105656045" lon="11.36116267194011"><ele>214.0</ele><time>2026-04-25T09:17:14Z</time></trkpt><trkpt lat="43.25493944094695" lon="11.361326960345103"><ele>214.0</ele><time>2026-04-25T09:17:15Z</time></trkpt><trkpt lat="43.2548512536037" lon="11.361505701000135"><ele>214.0</ele><time>2026-04-25T09:17:16Z</time></trkpt><trkpt lat="43.25477397040857" lon="11.361673389048187"><ele>216.75</ele><time>2026-04-25T09:17:17Z</time></trkpt><trkpt lat="43.254704176139164" lon="11.361814876650692"><ele>219.5</ele><time>2026-04-25T09:17:18Z</time></trkpt><trkpt lat="43.25461752211567" lon="11.361965815577946"><ele>222.25</ele><time>2026-04-25T09:17:19Z</time></trkpt><trkpt lat="43.254519179133496" lon="11.362071033193978"><ele>225.0</ele><time>2026-04-25T09:17:20Z</time></trkpt><trkpt lat="43.25440521676246" lon="11.362166396956988"><ele>225.0</ele><time>2026-04-25T09:17:21Z</time></trkpt><trkpt lat="43.25428581555319" lon="11.362244058943608"><ele>225.0</ele><time>2026-04-25T09:17:22Z</time></trkpt><trkpt lat="43.254161425694306" lon="11.36230493152525"><ele>225.0</ele><time>2026-04-25T09:17:23Z</time></trkpt><trkpt lat="43.25402508728545" lon="11.362351695042967"><ele>225.0</ele><time>2026-04-25T09:17:24Z</time></trkpt><trkpt lat="43.25387247777252" lon="11.362375233235696"><ele>225.0</ele><time>2026-04-25T09:17:25Z</time></trkpt><trkpt lat="43.25371145513793" lon="11.362394269248068"><ele>225.0</ele><time>2026-04-25T09:17:26Z</time></trkpt><trkpt lat="43.25355275340188" lon="11.362414761324699"><ele>225.0</ele><time>2026-04-25T09:17:27Z</time></trkpt><trkpt lat="43.253403729692714" lon="11.36244919494602"><ele>225.0</ele><time>2026-04-25T09:17:28Z</time></trkpt><trkpt lat="43.25326719412987" lon="11.362496225739987"><ele>225.0</ele><time>2026-04-25T09:17:29Z</time></trkpt><trkpt lat="43.25314236065191" lon="11.362546137166941"><ele>225.0</ele><time>2026-04-25T09:17:30Z</time></trkpt><trkpt lat="43.25303383340952" lon="11.36260173905791"><ele>225.0</ele><time>2026-04-25T09:17:31Z</time></trkpt><trkpt lat="43.252941150477476" lon="11.362654787171737"><ele>225.5</ele><time>2026-04-25T09:17:32Z</time></trkpt><trkpt lat="43.25286290047085" lon="11.362697973177015"><ele>226.0</ele><time>2026-04-25T09:17:33Z</time></trkpt><trkpt lat="43.252802870788976" lon="11.36273212444679"><ele>226.5</ele><time>2026-04-25T09:17:34Z</time></trkpt><trkpt lat="43.25273004849186" lon="11.36277893523542"><ele>227.0</ele><time>2026-04-25T09:17:35Z</time></trkpt><trkpt lat="43.25264410542513" lon="11.362825675499993"><ele>227.5</ele><time>2026-04-25T09:17:36Z</time></trkpt><trkpt lat="43.25255528855353" lon="11.362876747516228"><ele>228.0</ele><time>2026-04-25T09:17:37Z</time></trkpt><trkpt lat="43.252468710849506" lon="11.362940124085535"><ele>228.0</ele><time>2026-04-25T09:17:38Z</time></trkpt><trkpt lat="43.252388158639874" lon="11.363017991351066"><ele>228.0</ele><time>2026-04-25T09:17:39Z</time></trkpt><trkpt lat="43.25231451526866" lon="11.363097648416424"><ele>228.0</ele><time>2026-04-25T09:17:40Z</time></trkpt><trkpt lat="43.25224426669458" lon="11.363174908790162"><ele>228.0</ele><time>2026-04-25T09:17:41Z</time></trkpt><trkpt lat="43.25217945826313" lon="11.36324627187593"><ele>228.0</ele><time>2026-04-25T09:17:42Z</time></trkpt><trkpt lat="43.25212858091563" lon="11.3632988268979"><ele>228.0</ele><time>2026-04-25T09:17:43Z</time></trkpt><trkpt lat="43.25207245558618" lon="11.363348256059332"><ele>228.0</ele><time>2026-04-25T09:17:46Z</time></trkpt><trkpt lat="43.25215617352468" lon="11.363266484783717"><ele>228.0</ele><time>2026-04-25T09:17:55.001Z</time></trkpt><trkpt lat="43.25226107195891" lon="11.36314998530888"><ele>228.0</ele><time>2026-04-25T09:17:57.001Z</time></trkpt><trkpt lat="43.25232797032856" lon="11.363083522480613"><ele>228.0</ele><time>2026-04-25T09:17:58.001Z</time></trkpt><trkpt lat="43.252395117348776" lon="11.36301529425956"><ele>228.0</ele><time>2026-04-25T09:17:59.001Z</time></trkpt><trkpt lat="43.25248003493533" lon="11.362929008919444"><ele>228.0</ele><time>2026-04-25T09:18:00.001Z</time></trkpt><trkpt lat="43.25264359385591" lon="11.362866667617597"><ele>228.0</ele><time>2026-04-25T09:18:01.001Z</time></trkpt><trkpt lat="43.25276308184047" lon="11.362793179109245"><ele>228.0</ele><time>2026-04-25T09:18:02.001Z</time></trkpt><trkpt lat="43.25289419340143" lon="11.362713212130737"><ele>228.0</ele><time>2026-04-25T09:18:03.001Z</time></trkpt><trkpt lat="43.253032663459095" lon="11.362636461353555"><ele>227.25</ele><time>2026-04-25T09:18:04.001Z</time></trkpt><trkpt lat="43.253175847853356" lon="11.362566906264568"><ele>226.5</ele><time>2026-04-25T09:18:05.001Z</time></trkpt><trkpt lat="43.25331396128317" lon="11.362513232092953"><ele>225.75</ele><time>2026-04-25T09:18:06.001Z</time></trkpt><trkpt lat="43.25345441476882" lon="11.362474901116082"><ele>225.0</ele><time>2026-04-25T09:18:07.001Z</time></trkpt><trkpt lat="43.25359372468042" lon="11.362447283503789"><ele>225.0</ele><time>2026-04-25T09:18:08.001Z</time></trkpt><trkpt lat="43.25372540550753" lon="11.362425306666323"><ele>225.0</ele><time>2026-04-25T09:18:09.001Z</time></trkpt><trkpt lat="43.25383341510557" lon="11.362407995255323"><ele>225.0</ele><time>2026-04-25T09:18:10.001Z</time></trkpt><trkpt lat="43.25391864711323" lon="11.362400213905273"><ele>225.0</ele><time>2026-04-25T09:18:11.001Z</time></trkpt><trkpt lat="43.25399349520429" lon="11.362401931508728"><ele>225.0</ele><time>2026-04-25T09:18:12.001Z</time></trkpt><trkpt lat="43.2540632184309" lon="11.36236857259945"><ele>225.0</ele><time>2026-04-25T09:18:14.001Z</time></trkpt><trkpt lat="43.25398356649874" lon="11.362355358340059"><ele>225.0</ele><time>2026-04-25T09:18:30.001Z</time></trkpt><trkpt lat="43.25387027488077" lon="11.362366670934938"><ele>225.0</ele><time>2026-04-25T09:18:32.001Z</time></trkpt><trkpt lat="43.25377319080042" lon="11.362375375586845"><ele>225.0</ele><time>2026-04-25T09:18:33.001Z</time></trkpt><trkpt lat="43.25366885710794" lon="11.36238668975149"><ele>225.0</ele><time>2026-04-25T09:18:34.001Z</time></trkpt><trkpt lat="43.25354289966458" lon="11.362412302954324"><ele>225.0</ele><time>2026-04-25T09:18:35.001Z</time></trkpt><trkpt lat="43.25342201605472" lon="11.362448038852953"><ele>225.0</ele><time>2026-04-25T09:18:36.001Z</time></trkpt><trkpt lat="43.25329624365935" lon="11.362491204901785"><ele>225.0</ele><time>2026-04-25T09:18:37.001Z</time></trkpt><trkpt lat="43.25316901186499" lon="11.362539415311634"><ele>225.0</ele><time>2026-04-25T09:18:38.001Z</time></trkpt><trkpt lat="43.25304079235298" lon="11.36259853962731"><ele>225.75</ele><time>2026-04-25T09:18:39.001Z</time></trkpt><trkpt lat="43.25290655792688" lon="11.36266866132386"><ele>226.5</ele><time>2026-04-25T09:18:40.001Z</time></trkpt><trkpt lat="43.252769139491896" lon="11.362744237035553"><ele>227.25</ele><time>2026-04-25T09:18:41.001Z</time></trkpt><trkpt lat="43.2526425026983" lon="11.362822505698503"><ele>228.0</ele><time>2026-04-25T09:18:42.001Z</time></trkpt><trkpt lat="43.252531435282044" lon="11.362896930500396"><ele>228.0</ele><time>2026-04-25T09:18:43.001Z</time></trkpt><trkpt lat="43.252428416816855" lon="11.362970318571373"><ele>228.0</ele><time>2026-04-25T09:18:44.001Z</time></trkpt><trkpt lat="43.252336421723534" lon="11.363059469350905"><ele>228.0</ele><time>2026-04-25T09:18:45.001Z</time></trkpt><trkpt lat="43.25224278593422" lon="11.363172386205258"><ele>228.0</ele><time>2026-04-25T09:18:46.002Z</time></trkpt><trkpt lat="43.252141543842285" lon="11.363296436464626"><ele>229.25</ele><time>2026-04-25T09:18:47.002Z</time></trkpt><trkpt lat="43.252040830448074" lon="11.363399471253445"><ele>230.5</ele><time>2026-04-25T09:18:48.002Z</time></trkpt><trkpt lat="43.251945705114686" lon="11.363484986564798"><ele>231.75</ele><time>2026-04-25T09:18:49.002Z</time></trkpt><trkpt lat="43.251848331716666" lon="11.3635508549444"><ele>233.0</ele><time>2026-04-25T09:18:50.002Z</time></trkpt><trkpt lat="43.251743355548726" lon="11.363592444865388"><ele>233.0</ele><time>2026-04-25T09:18:51.002Z</time></trkpt><trkpt lat="43.251627997378165" lon="11.363618671352699"><ele>233.0</ele><time>2026-04-25T09:18:52.002Z</time></trkpt><trkpt lat="43.25150659172768" lon="11.363596515766506"><ele>233.0</ele><time>2026-04-25T09:18:53.002Z</time></trkpt><trkpt lat="43.251382811913025" lon="11.363596757840018"><ele>233.0</ele><time>2026-04-25T09:18:54.002Z</time></trkpt><trkpt lat="43.2512535385293" lon="11.363556587027341"><ele>231.0</ele><time>2026-04-25T09:18:55.002Z</time></trkpt><trkpt lat="43.25112183209918" lon="11.363501185438807"><ele>229.0</ele><time>2026-04-25T09:18:56.002Z</time></trkpt><trkpt lat="43.25098313350402" lon="11.363435009200732"><ele>227.0</ele><time>2026-04-25T09:18:57.002Z</time></trkpt><trkpt lat="43.2508401821789" lon="11.363373713060033"><ele>225.0</ele><time>2026-04-25T09:18:58.002Z</time></trkpt><trkpt lat="43.25069313344987" lon="11.363317877413218"><ele>224.33333333333331</ele><time>2026-04-25T09:18:59.002Z</time></trkpt><trkpt lat="43.250541116049945" lon="11.36327266348151"><ele>223.66666666666666</ele><time>2026-04-25T09:19:00.002Z</time></trkpt><trkpt lat="43.25037980578575" lon="11.363237724643303"><ele>223.0</ele><time>2026-04-25T09:19:01.002Z</time></trkpt><trkpt lat="43.25022758421488" lon="11.363197064072889"><ele>223.0</ele><time>2026-04-25T09:19:02.002Z</time></trkpt><trkpt lat="43.250084694776305" lon="11.363159626058312"><ele>223.0</ele><time>2026-04-25T09:19:03.002Z</time></trkpt><trkpt lat="43.24995463021213" lon="11.363118111828909"><ele>223.0</ele><time>2026-04-25T09:19:04.002Z</time></trkpt><trkpt lat="43.24983336763791" lon="11.363077362502146"><ele>223.0</ele><time>2026-04-25T09:19:05.002Z</time></trkpt><trkpt lat="43.249715528112795" lon="11.363047567835803"><ele>224.25</ele><time>2026-04-25T09:19:06.002Z</time></trkpt><trkpt lat="43.249592216107125" lon="11.363037757183276"><ele>225.5</ele><time>2026-04-25T09:19:07.002Z</time></trkpt><trkpt lat="43.24947731459399" lon="11.363052626647706"><ele>226.75</ele><time>2026-04-25T09:19:08.002Z</time></trkpt><trkpt lat="43.249374507397015" lon="11.36308785174494"><ele>228.0</ele><time>2026-04-25T09:19:09.002Z</time></trkpt><trkpt lat="43.24926892066204" lon="11.36314704404395"><ele>228.0</ele><time>2026-04-25T09:19:10.002Z</time></trkpt><trkpt lat="43.24915828586282" lon="11.363230515783808"><ele>228.0</ele><time>2026-04-25T09:19:11.002Z</time></trkpt><trkpt lat="43.249047047605764" lon="11.363337570741786"><ele>228.0</ele><time>2026-04-25T09:19:12.002Z</time></trkpt><trkpt lat="43.24893651069904" lon="11.36346578265337"><ele>228.0</ele><time>2026-04-25T09:19:13.002Z</time></trkpt><trkpt lat="43.24882774232207" lon="11.363622772102673"><ele>228.0</ele><time>2026-04-25T09:19:14.002Z</time></trkpt><trkpt lat="43.24872342324575" lon="11.363790431515715"><ele>228.0</ele><time>2026-04-25T09:19:15.002Z</time></trkpt><trkpt lat="43.24861835361692" lon="11.363957150027186"><ele>228.0</ele><time>2026-04-25T09:19:16.002Z</time></trkpt><trkpt lat="43.24850769808414" lon="11.36411416767064"><ele>227.8</ele><time>2026-04-25T09:19:17.002Z</time></trkpt><trkpt lat="43.24840815538497" lon="11.364244829736398"><ele>227.60000000000002</ele><time>2026-04-25T09:19:18.002Z</time></trkpt><trkpt lat="43.24833059821842" lon="11.364348615197192"><ele>227.39999999999998</ele><time>2026-04-25T09:19:19.001Z</time></trkpt><trkpt lat="43.24828107533669" lon="11.364459127335648"><ele>227.2</ele><time>2026-04-25T09:19:20.001Z</time></trkpt><trkpt lat="43.24824998604039" lon="11.364591492266745"><ele>227.0</ele><time>2026-04-25T09:19:21.001Z</time></trkpt><trkpt lat="43.24823596450456" lon="11.364750785991822"><ele>226.5</ele><time>2026-04-25T09:19:22.001Z</time></trkpt><trkpt lat="43.24823814977902" lon="11.364934205557976"><ele>226.0</ele><time>2026-04-25T09:19:23.001Z</time></trkpt><trkpt lat="43.24824437430223" lon="11.365118979944564"><ele>225.5</ele><time>2026-04-25T09:19:24.001Z</time></trkpt><trkpt lat="43.2482334666045" lon="11.365277685136508"><ele>225.0</ele><time>2026-04-25T09:19:25.001Z</time></trkpt><trkpt lat="43.248193305272444" lon="11.365417320207644"><ele>224.5</ele><time>2026-04-25T09:19:26.001Z</time></trkpt><trkpt lat="43.24812775160965" lon="11.3655512998425"><ele>224.0</ele><time>2026-04-25T09:19:27.001Z</time></trkpt><trkpt lat="43.248045246150404" lon="11.365684949415575"><ele>223.5</ele><time>2026-04-25T09:19:28.001Z</time></trkpt><trkpt lat="43.24794606698442" lon="11.365816842527597"><ele>223.0</ele><time>2026-04-25T09:19:29.001Z</time></trkpt><trkpt lat="43.24784280977379" lon="11.36592752075878"><ele>223.0</ele><time>2026-04-25T09:19:30.001Z</time></trkpt><trkpt lat="43.24773594024166" lon="11.366005714921988"><ele>223.0</ele><time>2026-04-25T09:19:31.001Z</time></trkpt><trkpt lat="43.24760868314696" lon="11.36602517422831"><ele>223.0</ele><time>2026-04-25T09:19:32.001Z</time></trkpt><trkpt lat="43.24746821836925" lon="11.36605817495508"><ele>223.0</ele><time>2026-04-25T09:19:33.001Z</time></trkpt><trkpt lat="43.24731905301775" lon="11.366101544464401"><ele>222.33333333333331</ele><time>2026-04-25T09:19:34.001Z</time></trkpt><trkpt lat="43.24716261607617" lon="11.366131644541428"><ele>221.66666666666669</ele><time>2026-04-25T09:19:35.001Z</time></trkpt><trkpt lat="43.24699702247385" lon="11.366182338272973"><ele>221.0</ele><time>2026-04-25T09:19:36.001Z</time></trkpt><trkpt lat="43.24682242793634" lon="11.366248561171073"><ele>221.0</ele><time>2026-04-25T09:19:37.001Z</time></trkpt><trkpt lat="43.24665217808873" lon="11.366319311141279"><ele>221.0</ele><time>2026-04-25T09:19:38.001Z</time></trkpt><trkpt lat="43.2464905475725" lon="11.3664010396719"><ele>221.0</ele><time>2026-04-25T09:19:39.001Z</time></trkpt><trkpt lat="43.24633945548439" lon="11.366488522253539"><ele>221.75</ele><time>2026-04-25T09:19:40.001Z</time></trkpt><trkpt lat="43.246224746691745" lon="11.366566172690083"><ele>222.5</ele><time>2026-04-25T09:19:41.001Z</time></trkpt><trkpt lat="43.246130754966444" lon="11.366651315533206"><ele>223.25</ele><time>2026-04-25T09:19:42.001Z</time></trkpt><trkpt lat="43.246032328651424" lon="11.36676801536688"><ele>224.0</ele><time>2026-04-25T09:19:43.001Z</time></trkpt><trkpt lat="43.245924770929605" lon="11.366908334059609"><ele>224.0</ele><time>2026-04-25T09:19:44.001Z</time></trkpt><trkpt lat="43.24580348391107" lon="11.367020364089491"><ele>224.0</ele><time>2026-04-25T09:19:45.001Z</time></trkpt><trkpt lat="43.24569051290988" lon="11.36715556918604"><ele>224.0</ele><time>2026-04-25T09:19:46.001Z</time></trkpt><trkpt lat="43.245550260526535" lon="11.367261434618143"><ele>222.66666666666669</ele><time>2026-04-25T09:19:47.001Z</time></trkpt><trkpt lat="43.245395508817616" lon="11.367351910083583"><ele>221.33333333333331</ele><time>2026-04-25T09:19:48.001Z</time></trkpt><trkpt lat="43.24523101023898" lon="11.367422566409376"><ele>220.0</ele><time>2026-04-25T09:19:49.001Z</time></trkpt><trkpt lat="43.24505373907317" lon="11.367484108308016"><ele>220.0</ele><time>2026-04-25T09:19:50.001Z</time></trkpt><trkpt lat="43.24487077644663" lon="11.36753804442061"><ele>220.0</ele><time>2026-04-25T09:19:51.001Z</time></trkpt><trkpt lat="43.24468840585928" lon="11.367589001852412"><ele>220.0</ele><time>2026-04-25T09:19:52.001Z</time></trkpt><trkpt lat="43.24450146930307" lon="11.36764116687059"><ele>221.0</ele><time>2026-04-25T09:19:53.001Z</time></trkpt><trkpt lat="43.244323183679406" lon="11.367697394957347"><ele>222.0</ele><time>2026-04-25T09:19:54.001Z</time></trkpt><trkpt lat="43.24414493409665" lon="11.367762040732952"><ele>223.0</ele><time>2026-04-25T09:19:55.001Z</time></trkpt><trkpt lat="43.243976492389386" lon="11.367822557126635"><ele>223.75</ele><time>2026-04-25T09:19:56.001Z</time></trkpt><trkpt lat="43.24382664089693" lon="11.367874840208488"><ele>224.5</ele><time>2026-04-25T09:19:57.001Z</time></trkpt><trkpt lat="43.2436942106305" lon="11.367913035034915"><ele>225.25</ele><time>2026-04-25T09:19:58.001Z</time></trkpt><trkpt lat="43.24356052811977" lon="11.36794559527106"><ele>226.0</ele><time>2026-04-25T09:19:59.001Z</time></trkpt><trkpt lat="43.243425693781205" lon="11.367971785872903"><ele>226.0</ele><time>2026-04-25T09:20:00.001Z</time></trkpt><trkpt lat="43.2432982217679" lon="11.367995605022523"><ele>226.0</ele><time>2026-04-25T09:20:01.001Z</time></trkpt><trkpt lat="43.24316989446378" lon="11.368016010170498"><ele>226.0</ele><time>2026-04-25T09:20:02.001Z</time></trkpt><trkpt lat="43.243042064962346" lon="11.36805533023651"><ele>226.0</ele><time>2026-04-25T09:20:03.001Z</time></trkpt><trkpt lat="43.242913014991416" lon="11.368106439445969"><ele>225.0</ele><time>2026-04-25T09:20:04.001Z</time></trkpt><trkpt lat="43.24279123798984" lon="11.368171762359625"><ele>224.0</ele><time>2026-04-25T09:20:05.001Z</time></trkpt><trkpt lat="43.242678644782536" lon="11.36825410855761"><ele>223.0</ele><time>2026-04-25T09:20:06.001Z</time></trkpt><trkpt lat="43.24257022223692" lon="11.368350061139292"><ele>222.0</ele><time>2026-04-25T09:20:07.001Z</time></trkpt><trkpt lat="43.24245889250916" lon="11.368467512656487"><ele>222.0</ele><time>2026-04-25T09:20:08.001Z</time></trkpt><trkpt lat="43.24234872799116" lon="11.368610251173015"><ele>222.0</ele><time>2026-04-25T09:20:09.001Z</time></trkpt><trkpt lat="43.242237331938085" lon="11.368767024300446"><ele>222.0</ele><time>2026-04-25T09:20:10.001Z</time></trkpt><trkpt lat="43.24212426999646" lon="11.368923290397095"><ele>221.5</ele><time>2026-04-25T09:20:11.001Z</time></trkpt><trkpt lat="43.24201540085407" lon="11.369071240147699"><ele>221.0</ele><time>2026-04-25T09:20:12.001Z</time></trkpt><trkpt lat="43.24191124385592" lon="11.369216582878634"><ele>220.5</ele><time>2026-04-25T09:20:13.001Z</time></trkpt><trkpt lat="43.241805215615024" lon="11.369354133799813"><ele>220.0</ele><time>2026-04-25T09:20:14.001Z</time></trkpt><trkpt lat="43.24169151670975" lon="11.369497242166213"><ele>220.0</ele><time>2026-04-25T09:20:15.001Z</time></trkpt><trkpt lat="43.24156916619864" lon="11.369646131298465"><ele>220.0</ele><time>2026-04-25T09:20:16.001Z</time></trkpt><trkpt lat="43.24143247424839" lon="11.36979747186129"><ele>220.0</ele><time>2026-04-25T09:20:17.001Z</time></trkpt><trkpt lat="43.2412902600081" lon="11.36994440649509"><ele>218.33333333333331</ele><time>2026-04-25T09:20:18.001Z</time></trkpt><trkpt lat="43.24114587292517" lon="11.37008264068792"><ele>216.66666666666669</ele><time>2026-04-25T09:20:19.001Z</time></trkpt><trkpt lat="43.241010831112874" lon="11.37020516374235"><ele>215.0</ele><time>2026-04-25T09:20:20.001Z</time></trkpt><trkpt lat="43.240888495480306" lon="11.370316961546754"><ele>215.0</ele><time>2026-04-25T09:20:21.001Z</time></trkpt><trkpt lat="43.240774486953775" lon="11.370422122019882"><ele>215.0</ele><time>2026-04-25T09:20:22.001Z</time></trkpt><trkpt lat="43.240670390646095" lon="11.370517738948552"><ele>215.0</ele><time>2026-04-25T09:20:23.001Z</time></trkpt><trkpt lat="43.240573141000745" lon="11.370607710936627"><ele>215.0</ele><time>2026-04-25T09:20:24.001Z</time></trkpt><trkpt lat="43.240396473551876" lon="11.370860095270752"><ele>214.66666666666669</ele><time>2026-04-25T09:20:26.001Z</time></trkpt><trkpt lat="43.240298305811606" lon="11.371022445028986"><ele>214.33333333333331</ele><time>2026-04-25T09:20:27.001Z</time></trkpt><trkpt lat="43.240196707095016" lon="11.371200339720763"><ele>214.0</ele><time>2026-04-25T09:20:28.001Z</time></trkpt><trkpt lat="43.240096354884855" lon="11.371386584864581"><ele>214.0</ele><time>2026-04-25T09:20:29.001Z</time></trkpt><trkpt lat="43.239996959442635" lon="11.371568334883008"><ele>214.0</ele><time>2026-04-25T09:20:30.001Z</time></trkpt><trkpt lat="43.23990645675242" lon="11.371738805172996"><ele>214.0</ele><time>2026-04-25T09:20:31.001Z</time></trkpt><trkpt lat="43.23983105379174" lon="11.371898722135507"><ele>213.75</ele><time>2026-04-25T09:20:32.001Z</time></trkpt><trkpt lat="43.23975812812449" lon="11.372053272127745"><ele>213.5</ele><time>2026-04-25T09:20:33.001Z</time></trkpt><trkpt lat="43.23969287391425" lon="11.37220154189773"><ele>213.25</ele><time>2026-04-25T09:20:34.001Z</time></trkpt><trkpt lat="43.23962836499548" lon="11.372334342459292"><ele>213.0</ele><time>2026-04-25T09:20:35.001Z</time></trkpt><trkpt lat="43.23956728518108" lon="11.372458412075938"><ele>213.0</ele><time>2026-04-25T09:20:36.001Z</time></trkpt><trkpt lat="43.23950360508124" lon="11.372572744976145"><ele>213.0</ele><time>2026-04-25T09:20:37.001Z</time></trkpt><trkpt lat="43.23941962683798" lon="11.372647044742413"><ele>213.0</ele><time>2026-04-25T09:20:38.001Z</time></trkpt><trkpt lat="43.23931841071738" lon="11.37268203133152"><ele>213.0</ele><time>2026-04-25T09:20:39.001Z</time></trkpt><trkpt lat="43.239191656236606" lon="11.372697805667983"><ele>213.0</ele><time>2026-04-25T09:20:40.001Z</time></trkpt><trkpt lat="43.23904790311915" lon="11.372688269305705"><ele>213.0</ele><time>2026-04-25T09:20:41.001Z</time></trkpt><trkpt lat="43.23890709918488" lon="11.37268073566634"><ele>213.0</ele><time>2026-04-25T09:20:42.001Z</time></trkpt><trkpt lat="43.23877123839629" lon="11.372697854105176"><ele>213.0</ele><time>2026-04-25T09:20:43.001Z</time></trkpt><trkpt lat="43.23864267900316" lon="11.372744273517464"><ele>213.0</ele><time>2026-04-25T09:20:44.001Z</time></trkpt><trkpt lat="43.23852189578013" lon="11.372821669767765"><ele>213.0</ele><time>2026-04-25T09:20:45.001Z</time></trkpt><trkpt lat="43.238419273860025" lon="11.372892400360175"><ele>213.0</ele><time>2026-04-25T09:20:46.001Z</time></trkpt><trkpt lat="43.23833881237086" lon="11.372950555734645"><ele>213.0</ele><time>2026-04-25T09:20:47.001Z</time></trkpt><trkpt lat="43.23828651670585" lon="11.373013440651713"><ele>213.0</ele><time>2026-04-25T09:20:48.001Z</time></trkpt><trkpt lat="43.23822719953929" lon="11.373149209511759"><ele>213.0</ele><time>2026-04-25T09:20:50.001Z</time></trkpt><trkpt lat="43.23820629120875" lon="11.373259337457622"><ele>211.0</ele><time>2026-04-25T09:20:51.001Z</time></trkpt><trkpt lat="43.23820430379279" lon="11.373383851613204"><ele>209.0</ele><time>2026-04-25T09:20:52.001Z</time></trkpt><trkpt lat="43.23821249550951" lon="11.373528637037175"><ele>207.0</ele><time>2026-04-25T09:20:53.001Z</time></trkpt><trkpt lat="43.23822453798638" lon="11.37369874471658"><ele>205.0</ele><time>2026-04-25T09:20:54.001Z</time></trkpt><trkpt lat="43.23824061709249" lon="11.373878482784653"><ele>204.75</ele><time>2026-04-25T09:20:55.001Z</time></trkpt><trkpt lat="43.23825401373615" lon="11.374070713208551"><ele>204.5</ele><time>2026-04-25T09:20:56.001Z</time></trkpt><trkpt lat="43.23826636136883" lon="11.374261931398502"><ele>204.25</ele><time>2026-04-25T09:20:57.001Z</time></trkpt><trkpt lat="43.23828001664445" lon="11.37445208942713"><ele>204.0</ele><time>2026-04-25T09:20:58.001Z</time></trkpt><trkpt lat="43.238286448209834" lon="11.374636186314335"><ele>204.0</ele><time>2026-04-25T09:20:59.001Z</time></trkpt><trkpt lat="43.238273657703054" lon="11.37480868672424"><ele>204.0</ele><time>2026-04-25T09:21:00.001Z</time></trkpt><trkpt lat="43.23824413149324" lon="11.374949866470386"><ele>204.0</ele><time>2026-04-25T09:21:01.001Z</time></trkpt><trkpt lat="43.23819601019088" lon="11.37506010575309"><ele>204.0</ele><time>2026-04-25T09:21:02.001Z</time></trkpt><trkpt lat="43.23813166824208" lon="11.37514610321718"><ele>204.0</ele><time>2026-04-25T09:21:03.001Z</time></trkpt><trkpt lat="43.23804897296218" lon="11.375217684731178"><ele>204.0</ele><time>2026-04-25T09:21:04.001Z</time></trkpt><trkpt lat="43.23794258547485" lon="11.375299051073691"><ele>204.0</ele><time>2026-04-25T09:21:05.001Z</time></trkpt><trkpt lat="43.237822605285906" lon="11.375395225525729"><ele>204.0</ele><time>2026-04-25T09:21:06.001Z</time></trkpt><trkpt lat="43.237702516084575" lon="11.375510000214843"><ele>204.0</ele><time>2026-04-25T09:21:07.001Z</time></trkpt><trkpt lat="43.237584840516284" lon="11.375639981160555"><ele>202.75</ele><time>2026-04-25T09:21:08.001Z</time></trkpt><trkpt lat="43.237469586360625" lon="11.375768837198212"><ele>201.5</ele><time>2026-04-25T09:21:09.001Z</time></trkpt><trkpt lat="43.23736310408598" lon="11.375893931036318"><ele>200.25</ele><time>2026-04-25T09:21:10.001Z</time></trkpt><trkpt lat="43.23726475384395" lon="11.376005292990802"><ele>199.0</ele><time>2026-04-25T09:21:11.001Z</time></trkpt><trkpt lat="43.23717489432358" lon="11.376107657303274"><ele>198.39999999999998</ele><time>2026-04-25T09:21:12.001Z</time></trkpt><trkpt lat="43.2370917228251" lon="11.376196824309709"><ele>197.8</ele><time>2026-04-25T09:21:13.001Z</time></trkpt><trkpt lat="43.23700959291131" lon="11.376276440205038"><ele>197.2</ele><time>2026-04-25T09:21:14.001Z</time></trkpt><trkpt lat="43.23691500788244" lon="11.376330370622597"><ele>196.60000000000002</ele><time>2026-04-25T09:21:15.001Z</time></trkpt><trkpt lat="43.236810926060315" lon="11.376357964156679"><ele>196.0</ele><time>2026-04-25T09:21:16.001Z</time></trkpt><trkpt lat="43.236702288879684" lon="11.376369914320291"><ele>196.0</ele><time>2026-04-25T09:21:17.002Z</time></trkpt><trkpt lat="43.23659245210211" lon="11.376360985884077"><ele>196.0</ele><time>2026-04-25T09:21:18.002Z</time></trkpt><trkpt lat="43.23649734714998" lon="11.376320576250821"><ele>196.0</ele><time>2026-04-25T09:21:19.002Z</time></trkpt><trkpt lat="43.23641249788628" lon="11.376249412399865"><ele>196.0</ele><time>2026-04-25T09:21:20.002Z</time></trkpt><trkpt lat="43.23633677455387" lon="11.376149512871795"><ele>196.0</ele><time>2026-04-25T09:21:21.002Z</time></trkpt><trkpt lat="43.23628747913283" lon="11.376050150270176"><ele>194.0</ele><time>2026-04-25T09:21:22.002Z</time></trkpt><trkpt lat="43.2362423915484" lon="11.375937841326056"><ele>192.0</ele><time>2026-04-25T09:21:23.002Z</time></trkpt><trkpt lat="43.23620807786545" lon="11.375811809725704"><ele>190.0</ele><time>2026-04-25T09:21:24.002Z</time></trkpt><trkpt lat="43.23619000007779" lon="11.375677882690017"><ele>188.0</ele><time>2026-04-25T09:21:25.001Z</time></trkpt><trkpt lat="43.236187165624706" lon="11.375533142660744"><ele>186.0</ele><time>2026-04-25T09:21:26.001Z</time></trkpt><trkpt lat="43.23619440854597" lon="11.375387480066761"><ele>185.0</ele><time>2026-04-25T09:21:27.001Z</time></trkpt><trkpt lat="43.236218378873694" lon="11.375246173936375"><ele>184.0</ele><time>2026-04-25T09:21:28.001Z</time></trkpt><trkpt lat="43.236290889843396" lon="11.375125465511895"><ele>183.0</ele><time>2026-04-25T09:21:29.001Z</time></trkpt><trkpt lat="43.23633842238222" lon="11.374980381050213"><ele>182.0</ele><time>2026-04-25T09:21:30.001Z</time></trkpt><trkpt lat="43.236405928740346" lon="11.37485021289789"><ele>182.0</ele><time>2026-04-25T09:21:31.001Z</time></trkpt><trkpt lat="43.23645831423691" lon="11.374699094218352"><ele>182.0</ele><time>2026-04-25T09:21:32.001Z</time></trkpt><trkpt lat="43.23651214667661" lon="11.374545385499518"><ele>182.0</ele><time>2026-04-25T09:21:33.001Z</time></trkpt><trkpt lat="43.23654638371795" lon="11.37438552958832"><ele>182.0</ele><time>2026-04-25T09:21:34.001Z</time></trkpt><trkpt lat="43.23656848679879" lon="11.374234867620327"><ele>183.0</ele><time>2026-04-25T09:21:35.001Z</time></trkpt><trkpt lat="43.23658383218853" lon="11.374095668301305"><ele>184.0</ele><time>2026-04-25T09:21:36.001Z</time></trkpt><trkpt lat="43.23658883290911" lon="11.373957168997945"><ele>185.0</ele><time>2026-04-25T09:21:37.001Z</time></trkpt><trkpt lat="43.23657681991129" lon="11.37381950820659"><ele>186.0</ele><time>2026-04-25T09:21:38.001Z</time></trkpt><trkpt lat="43.23654366105212" lon="11.373690271954727"><ele>187.0</ele><time>2026-04-25T09:21:39.001Z</time></trkpt><trkpt lat="43.236489974172926" lon="11.37356666408376"><ele>186.0</ele><time>2026-04-25T09:21:40.001Z</time></trkpt><trkpt lat="43.23640317458353" lon="11.373466756990268"><ele>185.0</ele><time>2026-04-25T09:21:41.001Z</time></trkpt><trkpt lat="43.23631558654817" lon="11.373400394959377"><ele>184.0</ele><time>2026-04-25T09:21:42.001Z</time></trkpt><trkpt lat="43.23622100712549" lon="11.37340005786349"><ele>183.0</ele><time>2026-04-25T09:21:43.001Z</time></trkpt><trkpt lat="43.23613074475904" lon="11.373395452422159"><ele>182.0</ele><time>2026-04-25T09:21:44.001Z</time></trkpt><trkpt lat="43.23601625519673" lon="11.37337836677348"><ele>182.0</ele><time>2026-04-25T09:21:45.001Z</time></trkpt><trkpt lat="43.2358854748415" lon="11.373390584632789"><ele>182.0</ele><time>2026-04-25T09:21:46.001Z</time></trkpt><trkpt lat="43.23574291352359" lon="11.373406780071198"><ele>182.0</ele><time>2026-04-25T09:21:47.001Z</time></trkpt><trkpt lat="43.235588451848066" lon="11.373426612445812"><ele>182.0</ele><time>2026-04-25T09:21:48.001Z</time></trkpt><trkpt lat="43.235426027317374" lon="11.373445308207394"><ele>180.33333333333331</ele><time>2026-04-25T09:21:49.001Z</time></trkpt><trkpt lat="43.23525281075819" lon="11.373461544533347"><ele>178.66666666666666</ele><time>2026-04-25T09:21:50.001Z</time></trkpt><trkpt lat="43.23507281302992" lon="11.373486229972805"><ele>177.0</ele><time>2026-04-25T09:21:51.001Z</time></trkpt><trkpt lat="43.234887012422966" lon="11.373495832421945"><ele>177.33333333333334</ele><time>2026-04-25T09:21:52.001Z</time></trkpt><trkpt lat="43.234696276468135" lon="11.373513670091997"><ele>177.66666666666669</ele><time>2026-04-25T09:21:53.001Z</time></trkpt><trkpt lat="43.2345062349148" lon="11.373528374576157"><ele>178.0</ele><time>2026-04-25T09:21:54.001Z</time></trkpt><trkpt lat="43.234322094105266" lon="11.373542065156684"><ele>178.0</ele><time>2026-04-25T09:21:55.001Z</time></trkpt><trkpt lat="43.234157318826455" lon="11.37357869593985"><ele>178.0</ele><time>2026-04-25T09:21:56.001Z</time></trkpt><trkpt lat="43.23401043811005" lon="11.373587770279643"><ele>178.0</ele><time>2026-04-25T09:21:57.001Z</time></trkpt><trkpt lat="43.233879255824235" lon="11.373595718371694"><ele>178.0</ele><time>2026-04-25T09:21:58.001Z</time></trkpt><trkpt lat="43.2337508266171" lon="11.373625262626454"><ele>178.33333333333334</ele><time>2026-04-25T09:21:59.001Z</time></trkpt><trkpt lat="43.23361135347226" lon="11.373690685682824"><ele>178.66666666666666</ele><time>2026-04-25T09:22:00.001Z</time></trkpt><trkpt lat="43.23345721057552" lon="11.373784358229596"><ele>179.0</ele><time>2026-04-25T09:22:01.001Z</time></trkpt><trkpt lat="43.23328919278764" lon="11.373898291477522"><ele>179.0</ele><time>2026-04-25T09:22:02.001Z</time></trkpt><trkpt lat="43.233121923083836" lon="11.374020927738822"><ele>179.0</ele><time>2026-04-25T09:22:03.001Z</time></trkpt><trkpt lat="43.23294797339226" lon="11.374151364936358"><ele>179.0</ele><time>2026-04-25T09:22:04.001Z</time></trkpt><trkpt lat="43.232765663926614" lon="11.374279636031435"><ele>179.0</ele><time>2026-04-25T09:22:05.001Z</time></trkpt><trkpt lat="43.232572604951635" lon="11.374411888454878"><ele>179.0</ele><time>2026-04-25T09:22:06.001Z</time></trkpt><trkpt lat="43.23237379480498" lon="11.374551552630034"><ele>179.0</ele><time>2026-04-25T09:22:07.001Z</time></trkpt><trkpt lat="43.232171655222736" lon="11.37469417848545"><ele>179.0</ele><time>2026-04-25T09:22:08.001Z</time></trkpt><trkpt lat="43.231955362440246" lon="11.374852757628718"><ele>179.0</ele><time>2026-04-25T09:22:09.001Z</time></trkpt><trkpt lat="43.23173713211273" lon="11.375012103603353"><ele>179.0</ele><time>2026-04-25T09:22:10.001Z</time></trkpt><trkpt lat="43.231525543699085" lon="11.375163704848188"><ele>179.0</ele><time>2026-04-25T09:22:11.001Z</time></trkpt><trkpt lat="43.231321462581725" lon="11.375309539523935"><ele>179.0</ele><time>2026-04-25T09:22:12.001Z</time></trkpt><trkpt lat="43.23113130602932" lon="11.375440084282095"><ele>179.0</ele><time>2026-04-25T09:22:13.001Z</time></trkpt><trkpt lat="43.23094993972426" lon="11.375568267155638"><ele>179.0</ele><time>2026-04-25T09:22:14.001Z</time></trkpt><trkpt lat="43.23077792391117" lon="11.37568775549769"><ele>180.66666666666666</ele><time>2026-04-25T09:22:15.001Z</time></trkpt><trkpt lat="43.23061430070553" lon="11.375799155156079"><ele>182.33333333333334</ele><time>2026-04-25T09:22:16.001Z</time></trkpt><trkpt lat="43.23045361407395" lon="11.375920435553985"><ele>184.0</ele><time>2026-04-25T09:22:17.001Z</time></trkpt><trkpt lat="43.23028631937749" lon="11.3760449487844"><ele>184.0</ele><time>2026-04-25T09:22:18.001Z</time></trkpt><trkpt lat="43.230113387313786" lon="11.376164522699904"><ele>184.0</ele><time>2026-04-25T09:22:19.001Z</time></trkpt><trkpt lat="43.22993927096264" lon="11.376288401015799"><ele>184.0</ele><time>2026-04-25T09:22:20.001Z</time></trkpt><trkpt lat="43.22977661965742" lon="11.3764214776198"><ele>184.66666666666669</ele><time>2026-04-25T09:22:21.001Z</time></trkpt><trkpt lat="43.229619877944415" lon="11.37655493525083"><ele>185.33333333333334</ele><time>2026-04-25T09:22:22.001Z</time></trkpt><trkpt lat="43.22946987186725" lon="11.376680244221436"><ele>186.0</ele><time>2026-04-25T09:22:23.001Z</time></trkpt><trkpt lat="43.22933500722402" lon="11.376795349971822"><ele>186.0</ele><time>2026-04-25T09:22:24.001Z</time></trkpt><trkpt lat="43.229211390828375" lon="11.376902791560745"><ele>186.0</ele><time>2026-04-25T09:22:25.001Z</time></trkpt><trkpt lat="43.22908782361789" lon="11.37700310999611"><ele>186.0</ele><time>2026-04-25T09:22:26.001Z</time></trkpt><trkpt lat="43.228950888045475" lon="11.377089674223525"><ele>186.0</ele><time>2026-04-25T09:22:27.001Z</time></trkpt><trkpt lat="43.228807354323706" lon="11.37716270136374"><ele>183.33333333333334</ele><time>2026-04-25T09:22:28.001Z</time></trkpt><trkpt lat="43.22866684917969" lon="11.377210591593046"><ele>180.66666666666669</ele><time>2026-04-25T09:22:29.001Z</time></trkpt><trkpt lat="43.22851799794987" lon="11.37724624790368"><ele>178.0</ele><time>2026-04-25T09:22:30.001Z</time></trkpt><trkpt lat="43.228354526848065" lon="11.377245999646945"><ele>178.0</ele><time>2026-04-25T09:22:31.001Z</time></trkpt><trkpt lat="43.2281848462577" lon="11.377279073807866"><ele>178.0</ele><time>2026-04-25T09:22:32.001Z</time></trkpt><trkpt lat="43.22802201699964" lon="11.377286196422222"><ele>178.0</ele><time>2026-04-25T09:22:33.001Z</time></trkpt><trkpt lat="43.227871270902696" lon="11.377292191531776"><ele>178.0</ele><time>2026-04-25T09:22:34.001Z</time></trkpt><trkpt lat="43.227721782531844" lon="11.377306856826808"><ele>178.0</ele><time>2026-04-25T09:22:35.001Z</time></trkpt><trkpt lat="43.227568908192275" lon="11.377309128309529"><ele>178.0</ele><time>2026-04-25T09:22:36.001Z</time></trkpt><trkpt lat="43.227412277907135" lon="11.377300408106949"><ele>177.75</ele><time>2026-04-25T09:22:37.001Z</time></trkpt><trkpt lat="43.22725921163806" lon="11.377272771288872"><ele>177.5</ele><time>2026-04-25T09:22:38.001Z</time></trkpt><trkpt lat="43.22711951819828" lon="11.377216400659412"><ele>177.25</ele><time>2026-04-25T09:22:39.001Z</time></trkpt><trkpt lat="43.22698834188145" lon="11.377138165432616"><ele>177.0</ele><time>2026-04-25T09:22:40.001Z</time></trkpt><trkpt lat="43.22685068647466" lon="11.377045965255387"><ele>177.0</ele><time>2026-04-25T09:22:41.001Z</time></trkpt><trkpt lat="43.22671300065038" lon="11.376940685470943"><ele>177.0</ele><time>2026-04-25T09:22:42.001Z</time></trkpt><trkpt lat="43.22658069249104" lon="11.376823133857899"><ele>177.0</ele><time>2026-04-25T09:22:43.001Z</time></trkpt><trkpt lat="43.2264656447028" lon="11.376690793696962"><ele>177.0</ele><time>2026-04-25T09:22:44.001Z</time></trkpt><trkpt lat="43.22635352791557" lon="11.376544658506399"><ele>177.0</ele><time>2026-04-25T09:22:45.001Z</time></trkpt><trkpt lat="43.22626269145745" lon="11.376390416934965"><ele>177.0</ele><time>2026-04-25T09:22:46.001Z</time></trkpt><trkpt lat="43.226188752924934" lon="11.376225635680438"><ele>177.0</ele><time>2026-04-25T09:22:47.001Z</time></trkpt><trkpt lat="43.226124392232414" lon="11.376038042141856"><ele>177.25</ele><time>2026-04-25T09:22:48.001Z</time></trkpt><trkpt lat="43.226069870201236" lon="11.375847013648"><ele>177.5</ele><time>2026-04-25T09:22:49.001Z</time></trkpt><trkpt lat="43.22603209628455" lon="11.375652193993773"><ele>177.75</ele><time>2026-04-25T09:22:50.001Z</time></trkpt><trkpt lat="43.226010259976704" lon="11.375465118541355"><ele>178.0</ele><time>2026-04-25T09:22:51.001Z</time></trkpt><trkpt lat="43.226030332830284" lon="11.3752848931766"><ele>178.0</ele><time>2026-04-25T09:22:52.001Z</time></trkpt><trkpt lat="43.226046411719544" lon="11.375082555864957"><ele>178.0</ele><time>2026-04-25T09:22:53.001Z</time></trkpt><trkpt lat="43.22605701561084" lon="11.374856198003075"><ele>178.0</ele><time>2026-04-25T09:22:54.001Z</time></trkpt><trkpt lat="43.22608034186639" lon="11.374629650767945"><ele>177.66666666666669</ele><time>2026-04-25T09:22:55.001Z</time></trkpt><trkpt lat="43.22611729852783" lon="11.374417433169883"><ele>177.33333333333334</ele><time>2026-04-25T09:22:56.001Z</time></trkpt><trkpt lat="43.22613462643513" lon="11.37420916001725"><ele>177.0</ele><time>2026-04-25T09:22:57.001Z</time></trkpt><trkpt lat="43.22614775204769" lon="11.374014072646032"><ele>177.25</ele><time>2026-04-25T09:22:58.001Z</time></trkpt><trkpt lat="43.22614865884859" lon="11.373828174227645"><ele>177.5</ele><time>2026-04-25T09:22:59.001Z</time></trkpt><trkpt lat="43.22612459311567" lon="11.373636642212276"><ele>177.75</ele><time>2026-04-25T09:23:00.001Z</time></trkpt><trkpt lat="43.22606696257525" lon="11.373458110338253"><ele>178.0</ele><time>2026-04-25T09:23:01.001Z</time></trkpt><trkpt lat="43.22603325225244" lon="11.373264273078908"><ele>178.0</ele><time>2026-04-25T09:23:02.001Z</time></trkpt><trkpt lat="43.22597742388568" lon="11.373076112283997"><ele>178.0</ele><time>2026-04-25T09:23:03.001Z</time></trkpt><trkpt lat="43.22592061307846" lon="11.37289750910241"><ele>178.0</ele><time>2026-04-25T09:23:04.001Z</time></trkpt><trkpt lat="43.22586803894706" lon="11.37273222528359"><ele>178.0</ele><time>2026-04-25T09:23:05.001Z</time></trkpt><trkpt lat="43.22582177010983" lon="11.37257985754977"><ele>178.33333333333334</ele><time>2026-04-25T09:23:06.001Z</time></trkpt><trkpt lat="43.225778977556935" lon="11.372441723409128"><ele>178.66666666666669</ele><time>2026-04-25T09:23:07.001Z</time></trkpt><trkpt lat="43.22573431821544" lon="11.372329934819273"><ele>179.0</ele><time>2026-04-25T09:23:08.001Z</time></trkpt><trkpt lat="43.22569329253066" lon="11.372243316892416"><ele>179.33333333333334</ele><time>2026-04-25T09:23:09.001Z</time></trkpt><trkpt lat="43.22562838399499" lon="11.372193933771939"><ele>179.66666666666666</ele><time>2026-04-25T09:23:10.001Z</time></trkpt><trkpt lat="43.22557073449815" lon="11.372152853994965"><ele>180.0</ele><time>2026-04-25T09:23:11.001Z</time></trkpt><trkpt lat="43.22550124517588" lon="11.37214953862796"><ele>180.0</ele><time>2026-04-25T09:23:12.001Z</time></trkpt><trkpt lat="43.22542997579419" lon="11.37216938804339"><ele>180.0</ele><time>2026-04-25T09:23:13.001Z</time></trkpt><trkpt lat="43.225360894556495" lon="11.372223414852549"><ele>180.0</ele><time>2026-04-25T09:23:14.001Z</time></trkpt><trkpt lat="43.22530515473965" lon="11.372304631090874"><ele>180.0</ele><time>2026-04-25T09:23:15.001Z</time></trkpt><trkpt lat="43.22526071592306" lon="11.37240827240896"><ele>180.0</ele><time>2026-04-25T09:23:16.001Z</time></trkpt><trkpt lat="43.22520077560987" lon="11.372532854489421"><ele>180.0</ele><time>2026-04-25T09:23:17.001Z</time></trkpt><trkpt lat="43.22516240061545" lon="11.372692190471792"><ele>180.0</ele><time>2026-04-25T09:23:18.001Z</time></trkpt><trkpt lat="43.22510040157967" lon="11.372856369040734"><ele>180.0</ele><time>2026-04-25T09:23:19.001Z</time></trkpt><trkpt lat="43.22502414411025" lon="11.373004930491193"><ele>180.0</ele><time>2026-04-25T09:23:20.001Z</time></trkpt><trkpt lat="43.224953728540896" lon="11.373145586814813"><ele>180.0</ele><time>2026-04-25T09:23:21.001Z</time></trkpt><trkpt lat="43.224879618462616" lon="11.373264769986882"><ele>181.6</ele><time>2026-04-25T09:23:22.001Z</time></trkpt><trkpt lat="43.22479446915903" lon="11.37335926671137"><ele>183.2</ele><time>2026-04-25T09:23:23.001Z</time></trkpt><trkpt lat="43.22469508602819" lon="11.373429391797005"><ele>184.8</ele><time>2026-04-25T09:23:24.001Z</time></trkpt><trkpt lat="43.224588104454305" lon="11.37348270821256"><ele>186.4</ele><time>2026-04-25T09:23:25.001Z</time></trkpt><trkpt lat="43.2244842841062" lon="11.373533760030197"><ele>188.0</ele><time>2026-04-25T09:23:26.001Z</time></trkpt><trkpt lat="43.224383410181574" lon="11.37352986921744"><ele>188.0</ele><time>2026-04-25T09:23:27.001Z</time></trkpt><trkpt lat="43.22427409312958" lon="11.373530184526299"><ele>188.0</ele><time>2026-04-25T09:23:28.001Z</time></trkpt><trkpt lat="43.22417986399562" lon="11.37348119328345"><ele>188.0</ele><time>2026-04-25T09:23:29.001Z</time></trkpt><trkpt lat="43.22408288561223" lon="11.373440240706131"><ele>188.0</ele><time>2026-04-25T09:23:30.001Z</time></trkpt><trkpt lat="43.22398701630232" lon="11.373403218041066"><ele>188.0</ele><time>2026-04-25T09:23:31.001Z</time></trkpt><trkpt lat="43.22390194369993" lon="11.373327434970134"><ele>191.60000000000002</ele><time>2026-04-25T09:23:32.001Z</time></trkpt><trkpt lat="43.22382659470465" lon="11.373244215957126"><ele>195.20000000000002</ele><time>2026-04-25T09:23:33.001Z</time></trkpt><trkpt lat="43.22375682297763" lon="11.373157924861289"><ele>198.8</ele><time>2026-04-25T09:23:34.001Z</time></trkpt><trkpt lat="43.22369511128393" lon="11.373050546955094"><ele>202.4</ele><time>2026-04-25T09:23:35.001Z</time></trkpt><trkpt lat="43.22364664100069" lon="11.372935361958445"><ele>206.0</ele><time>2026-04-25T09:23:36.001Z</time></trkpt><trkpt lat="43.223609143682864" lon="11.372811530204782"><ele>206.0</ele><time>2026-04-25T09:23:37.001Z</time></trkpt><trkpt lat="43.22358552749603" lon="11.372683201293954"><ele>206.0</ele><time>2026-04-25T09:23:38.001Z</time></trkpt><trkpt lat="43.223598916042896" lon="11.372558112096534"><ele>206.0</ele><time>2026-04-25T09:23:39.001Z</time></trkpt><trkpt lat="43.22359302668162" lon="11.372432570599155"><ele>206.0</ele><time>2026-04-25T09:23:40.001Z</time></trkpt><trkpt lat="43.223620328704676" lon="11.372292505541715"><ele>206.0</ele><time>2026-04-25T09:23:41.001Z</time></trkpt><trkpt lat="43.22364029914631" lon="11.372162928639998"><ele>206.0</ele><time>2026-04-25T09:23:42.001Z</time></trkpt><trkpt lat="43.22364705113218" lon="11.372039992228503"><ele>206.0</ele><time>2026-04-25T09:23:43.001Z</time></trkpt><trkpt lat="43.22364678492496" lon="11.37190418044959"><ele>206.0</ele><time>2026-04-25T09:23:44.001Z</time></trkpt><trkpt lat="43.22363056132801" lon="11.371774648008596"><ele>206.0</ele><time>2026-04-25T09:23:45.001Z</time></trkpt><trkpt lat="43.22361672456536" lon="11.37164172318399"><ele>206.0</ele><time>2026-04-25T09:23:46.001Z</time></trkpt><trkpt lat="43.22356076366752" lon="11.371508331473674"><ele>206.0</ele><time>2026-04-25T09:23:47.001Z</time></trkpt><trkpt lat="43.22348654868414" lon="11.371384721862002"><ele>206.0</ele><time>2026-04-25T09:23:48.001Z</time></trkpt><trkpt lat="43.22340593219281" lon="11.371279352981661"><ele>206.0</ele><time>2026-04-25T09:23:49.001Z</time></trkpt><trkpt lat="43.223312740754885" lon="11.371213080056572"><ele>206.0</ele><time>2026-04-25T09:23:50.001Z</time></trkpt><trkpt lat="43.2232303926236" lon="11.371164985143665"><ele>206.0</ele><time>2026-04-25T09:23:51.001Z</time></trkpt><trkpt lat="43.22314910314529" lon="11.37115105696711"><ele>206.33333333333334</ele><time>2026-04-25T09:23:52.001Z</time></trkpt><trkpt lat="43.223067348280445" lon="11.371167453202665"><ele>206.66666666666669</ele><time>2026-04-25T09:23:53.001Z</time></trkpt><trkpt lat="43.22298814695672" lon="11.37120689221994"><ele>207.0</ele><time>2026-04-25T09:23:54.001Z</time></trkpt><trkpt lat="43.222916035143164" lon="11.371271357089528"><ele>207.33333333333331</ele><time>2026-04-25T09:23:55.001Z</time></trkpt><trkpt lat="43.222853833621926" lon="11.37135361072437"><ele>207.66666666666666</ele><time>2026-04-25T09:23:56.001Z</time></trkpt><trkpt lat="43.22279411220999" lon="11.371453231558386"><ele>208.0</ele><time>2026-04-25T09:23:57.001Z</time></trkpt><trkpt lat="43.22272741748407" lon="11.371578540581211"><ele>208.0</ele><time>2026-04-25T09:23:58.001Z</time></trkpt><trkpt lat="43.22264979401253" lon="11.371726926373078"><ele>208.0</ele><time>2026-04-25T09:23:59.001Z</time></trkpt><trkpt lat="43.222566249023025" lon="11.371883832351577"><ele>208.0</ele><time>2026-04-25T09:24:00.001Z</time></trkpt><trkpt lat="43.222472787186106" lon="11.372042544695352"><ele>208.0</ele><time>2026-04-25T09:24:01.001Z</time></trkpt><trkpt lat="43.22236724357616" lon="11.372192929109987"><ele>211.25</ele><time>2026-04-25T09:24:02.001Z</time></trkpt><trkpt lat="43.22225175836305" lon="11.372326623475168"><ele>214.5</ele><time>2026-04-25T09:24:03.001Z</time></trkpt><trkpt lat="43.222129416906114" lon="11.372442108072399"><ele>217.75</ele><time>2026-04-25T09:24:04.001Z</time></trkpt><trkpt lat="43.222005168320194" lon="11.372536194304187"><ele>221.0</ele><time>2026-04-25T09:24:05.001Z</time></trkpt><trkpt lat="43.221875661492085" lon="11.372605462998706"><ele>221.0</ele><time>2026-04-25T09:24:06.001Z</time></trkpt><trkpt lat="43.22174287519193" lon="11.372646231264458"><ele>221.0</ele><time>2026-04-25T09:24:07.001Z</time></trkpt><trkpt lat="43.22160179424494" lon="11.37267920016255"><ele>221.0</ele><time>2026-04-25T09:24:08.001Z</time></trkpt><trkpt lat="43.221449873005234" lon="11.372715720061905"><ele>221.0</ele><time>2026-04-25T09:24:09.001Z</time></trkpt><trkpt lat="43.22127812274057" lon="11.372754811173573"><ele>223.0</ele><time>2026-04-25T09:24:10.001Z</time></trkpt><trkpt lat="43.22108984362554" lon="11.372800179069886"><ele>225.0</ele><time>2026-04-25T09:24:11.001Z</time></trkpt><trkpt lat="43.22090095649867" lon="11.372840647760844"><ele>227.0</ele><time>2026-04-25T09:24:12.001Z</time></trkpt><trkpt lat="43.22070864013362" lon="11.37287977620097"><ele>229.66666666666669</ele><time>2026-04-25T09:24:13.001Z</time></trkpt><trkpt lat="43.220521243642615" lon="11.372914248482163"><ele>232.33333333333331</ele><time>2026-04-25T09:24:14.001Z</time></trkpt><trkpt lat="43.22034559054697" lon="11.372950455353187"><ele>235.0</ele><time>2026-04-25T09:24:15.001Z</time></trkpt><trkpt lat="43.22019003879017" lon="11.372984160798783"><ele>235.0</ele><time>2026-04-25T09:24:16.001Z</time></trkpt><trkpt lat="43.22004814451225" lon="11.37301574246992"><ele>235.0</ele><time>2026-04-25T09:24:17.001Z</time></trkpt><trkpt lat="43.219907674347446" lon="11.3730456073492"><ele>235.0</ele><time>2026-04-25T09:24:18.001Z</time></trkpt><trkpt lat="43.21977376501306" lon="11.37305158284702"><ele>235.0</ele><time>2026-04-25T09:24:19.001Z</time></trkpt><trkpt lat="43.219651381192335" lon="11.373084752309747"><ele>237.25</ele><time>2026-04-25T09:24:20.001Z</time></trkpt><trkpt lat="43.21953010804961" lon="11.373091411515107"><ele>239.5</ele><time>2026-04-25T09:24:21.001Z</time></trkpt><trkpt lat="43.21940799921318" lon="11.373083082865497"><ele>241.75</ele><time>2026-04-25T09:24:22.001Z</time></trkpt><trkpt lat="43.219287216167714" lon="11.373066196286015"><ele>244.0</ele><time>2026-04-25T09:24:23.001Z</time></trkpt><trkpt lat="43.21917117778694" lon="11.373045895649565"><ele>244.0</ele><time>2026-04-25T09:24:24.001Z</time></trkpt><trkpt lat="43.21906000768417" lon="11.373025259176424"><ele>243.99999999999997</ele><time>2026-04-25T09:24:25.001Z</time></trkpt><trkpt lat="43.21896119232658" lon="11.372976238611093"><ele>243.99999999999997</ele><time>2026-04-25T09:24:26.001Z</time></trkpt><trkpt lat="43.2188563584763" lon="11.372932630451977"><ele>244.0</ele><time>2026-04-25T09:24:27.001Z</time></trkpt><trkpt lat="43.2187408126729" lon="11.372879783918679"><ele>244.0</ele><time>2026-04-25T09:24:28.001Z</time></trkpt><trkpt lat="43.21861865386449" lon="11.372822375609616"><ele>243.5</ele><time>2026-04-25T09:24:29.001Z</time></trkpt><trkpt lat="43.218492724607415" lon="11.372761508884196"><ele>243.0</ele><time>2026-04-25T09:24:30.001Z</time></trkpt><trkpt lat="43.21835819380067" lon="11.372716779581284"><ele>242.5</ele><time>2026-04-25T09:24:31.001Z</time></trkpt><trkpt lat="43.218232092960946" lon="11.372651201559396"><ele>242.0</ele><time>2026-04-25T09:24:32.001Z</time></trkpt><trkpt lat="43.21810903978564" lon="11.372583209287885"><ele>242.0</ele><time>2026-04-25T09:24:33.001Z</time></trkpt><trkpt lat="43.21798747977856" lon="11.372528466642889"><ele>242.0</ele><time>2026-04-25T09:24:34.001Z</time></trkpt><trkpt lat="43.21787609378008" lon="11.372470941715253"><ele>242.0</ele><time>2026-04-25T09:24:35.001Z</time></trkpt><trkpt lat="43.21777700440429" lon="11.372396991165704"><ele>242.0</ele><time>2026-04-25T09:24:36.001Z</time></trkpt><trkpt lat="43.21767354413276" lon="11.37236688676257"><ele>242.0</ele><time>2026-04-25T09:24:37.001Z</time></trkpt><trkpt lat="43.21758248470951" lon="11.372315235772563"><ele>242.0</ele><time>2026-04-25T09:24:38.001Z</time></trkpt><trkpt lat="43.21749425115597" lon="11.372268793705953"><ele>242.0</ele><time>2026-04-25T09:24:39.001Z</time></trkpt><trkpt lat="43.217397866107376" lon="11.37221987110808"><ele>242.0</ele><time>2026-04-25T09:24:40.001Z</time></trkpt><trkpt lat="43.21729303377553" lon="11.37216929384331"><ele>242.0</ele><time>2026-04-25T09:24:41.001Z</time></trkpt><trkpt lat="43.217178215450375" lon="11.372108596911147"><ele>241.0</ele><time>2026-04-25T09:24:42.001Z</time></trkpt><trkpt lat="43.2170567654126" lon="11.372039004736681"><ele>240.0</ele><time>2026-04-25T09:24:43.001Z</time></trkpt><trkpt lat="43.216928429171006" lon="11.37196897653806"><ele>239.0</ele><time>2026-04-25T09:24:44.001Z</time></trkpt><trkpt lat="43.21679943635381" lon="11.371901417659084"><ele>238.0</ele><time>2026-04-25T09:24:45.001Z</time></trkpt><trkpt lat="43.21667146530091" lon="11.371835894094266"><ele>238.0</ele><time>2026-04-25T09:24:46.001Z</time></trkpt><trkpt lat="43.216546891496634" lon="11.371771339081857"><ele>238.0</ele><time>2026-04-25T09:24:47.001Z</time></trkpt><trkpt lat="43.21643083985495" lon="11.371703511548798"><ele>238.0</ele><time>2026-04-25T09:24:48.001Z</time></trkpt><trkpt lat="43.2163279225084" lon="11.371621604315491"><ele>238.0</ele><time>2026-04-25T09:24:49.001Z</time></trkpt><trkpt lat="43.21622804006526" lon="11.371539320026914"><ele>238.4</ele><time>2026-04-25T09:24:50.001Z</time></trkpt><trkpt lat="43.21611732110694" lon="11.371501189410932"><ele>238.8</ele><time>2026-04-25T09:24:51.001Z</time></trkpt><trkpt lat="43.21597779532624" lon="11.37150402387903"><ele>239.2</ele><time>2026-04-25T09:24:52.001Z</time></trkpt><trkpt lat="43.21588964228762" lon="11.371423472278089"><ele>239.6</ele><time>2026-04-25T09:24:53.001Z</time></trkpt><trkpt lat="43.21581372544208" lon="11.371366294748572"><ele>240.0</ele><time>2026-04-25T09:24:54.001Z</time></trkpt><trkpt lat="43.215755476166585" lon="11.37130999020369"><ele>240.0</ele><time>2026-04-25T09:24:55.001Z</time></trkpt><trkpt lat="43.21570452107109" lon="11.371246712811763"><ele>240.0</ele><time>2026-04-25T09:24:56.001Z</time></trkpt><trkpt lat="43.21565267840647" lon="11.371183763574345"><ele>240.0</ele><time>2026-04-25T09:24:57.001Z</time></trkpt><trkpt lat="43.21558153238601" lon="11.371112832050484"><ele>240.0</ele><time>2026-04-25T09:24:58.001Z</time></trkpt><trkpt lat="43.21549567117939" lon="11.371027546768238"><ele>240.0</ele><time>2026-04-25T09:24:59.001Z</time></trkpt><trkpt lat="43.215403564275555" lon="11.37093682563884"><ele>240.0</ele><time>2026-04-25T09:25:00.001Z</time></trkpt><trkpt lat="43.215303308504474" lon="11.370839062018684"><ele>240.0</ele><time>2026-04-25T09:25:01.001Z</time></trkpt><trkpt lat="43.21518871307242" lon="11.370756793600227"><ele>240.0</ele><time>2026-04-25T09:25:02.001Z</time></trkpt><trkpt lat="43.215057136785596" lon="11.370697293653869"><ele>240.0</ele><time>2026-04-25T09:25:03.001Z</time></trkpt><trkpt lat="43.214931584723125" lon="11.3706598146074"><ele>240.0</ele><time>2026-04-25T09:25:04.001Z</time></trkpt><trkpt lat="43.21480210098199" lon="11.370644665246719"><ele>237.0</ele><time>2026-04-25T09:25:05.001Z</time></trkpt><trkpt lat="43.21467371158275" lon="11.3706632933444"><ele>234.0</ele><time>2026-04-25T09:25:06.001Z</time></trkpt><trkpt lat="43.21454638331205" lon="11.370725226037209"><ele>231.0</ele><time>2026-04-25T09:25:07.001Z</time></trkpt><trkpt lat="43.214410168108785" lon="11.370820144133079"><ele>228.0</ele><time>2026-04-25T09:25:08.001Z</time></trkpt><trkpt lat="43.21426765453035" lon="11.370919339636599"><ele>228.0</ele><time>2026-04-25T09:25:09.001Z</time></trkpt><trkpt lat="43.214120978616045" lon="11.371014729169762"><ele>228.0</ele><time>2026-04-25T09:25:10.001Z</time></trkpt><trkpt lat="43.21397936479075" lon="11.371114322979729"><ele>228.0</ele><time>2026-04-25T09:25:11.001Z</time></trkpt><trkpt lat="43.21384294935467" lon="11.371213627149434"><ele>226.5</ele><time>2026-04-25T09:25:12.001Z</time></trkpt><trkpt lat="43.2137059150356" lon="11.37130146035799"><ele>225.0</ele><time>2026-04-25T09:25:13.001Z</time></trkpt><trkpt lat="43.213585571575905" lon="11.371366967209632"><ele>223.5</ele><time>2026-04-25T09:25:14.001Z</time></trkpt><trkpt lat="43.213475272890975" lon="11.371397918225433"><ele>222.0</ele><time>2026-04-25T09:25:15.001Z</time></trkpt><trkpt lat="43.21337749480573" lon="11.371381535092459"><ele>222.0</ele><time>2026-04-25T09:25:16.001Z</time></trkpt><trkpt lat="43.21330423800192" lon="11.371286668426857"><ele>222.0</ele><time>2026-04-25T09:25:17.001Z</time></trkpt><trkpt lat="43.21323553718275" lon="11.371195550325554"><ele>222.0</ele><time>2026-04-25T09:25:18.001Z</time></trkpt><trkpt lat="43.213167729685935" lon="11.371072235922027"><ele>222.0</ele><time>2026-04-25T09:25:19.001Z</time></trkpt><trkpt lat="43.21307883529651" lon="11.370943928455203"><ele>222.0</ele><time>2026-04-25T09:25:20.001Z</time></trkpt><trkpt lat="43.212998381321874" lon="11.370779919078116"><ele>222.0</ele><time>2026-04-25T09:25:21.001Z</time></trkpt><trkpt lat="43.212916469774264" lon="11.370602387055545"><ele>222.0</ele><time>2026-04-25T09:25:22.001Z</time></trkpt><trkpt lat="43.21283507508551" lon="11.370422387677012"><ele>222.0</ele><time>2026-04-25T09:25:23.001Z</time></trkpt><trkpt lat="43.21274878677831" lon="11.370247764703691"><ele>222.75</ele><time>2026-04-25T09:25:24.001Z</time></trkpt><trkpt lat="43.212663551632524" lon="11.370082504280447"><ele>223.5</ele><time>2026-04-25T09:25:25.001Z</time></trkpt><trkpt lat="43.212579072861224" lon="11.369923443884932"><ele>224.25</ele><time>2026-04-25T09:25:26.001Z</time></trkpt><trkpt lat="43.21248765399915" lon="11.369767488583587"><ele>225.0</ele><time>2026-04-25T09:25:27.001Z</time></trkpt><trkpt lat="43.21238765619398" lon="11.369618988118994"><ele>227.25</ele><time>2026-04-25T09:25:28.001Z</time></trkpt><trkpt lat="43.21229127124774" lon="11.369473510016377"><ele>229.5</ele><time>2026-04-25T09:25:29.001Z</time></trkpt><trkpt lat="43.21220160949596" lon="11.369337610118013"><ele>231.75</ele><time>2026-04-25T09:25:30.001Z</time></trkpt><trkpt lat="43.21212316048544" lon="11.369225226396928"><ele>234.0</ele><time>2026-04-25T09:25:31.001Z</time></trkpt><trkpt lat="43.212045252102726" lon="11.369129400275114"><ele>234.0</ele><time>2026-04-25T09:25:32.001Z</time></trkpt><trkpt lat="43.21195698225008" lon="11.369048221283972"><ele>234.0</ele><time>2026-04-25T09:25:33.001Z</time></trkpt><trkpt lat="43.21185687560236" lon="11.368975715476356"><ele>234.0</ele><time>2026-04-25T09:25:34.001Z</time></trkpt><trkpt lat="43.2117393713987" lon="11.368898874160728"><ele>234.0</ele><time>2026-04-25T09:25:35.001Z</time></trkpt><trkpt lat="43.211610971705824" lon="11.368819010376706"><ele>233.66666666666669</ele><time>2026-04-25T09:25:36.001Z</time></trkpt><trkpt lat="43.211474391406085" lon="11.368749610771063"><ele>233.33333333333334</ele><time>2026-04-25T09:25:37.001Z</time></trkpt><trkpt lat="43.211331438043196" lon="11.368691483427892"><ele>233.0</ele><time>2026-04-25T09:25:38.001Z</time></trkpt><trkpt lat="43.211179373171476" lon="11.368645005084415"><ele>233.0</ele><time>2026-04-25T09:25:39.001Z</time></trkpt><trkpt lat="43.211020212345154" lon="11.368595754154393"><ele>233.0</ele><time>2026-04-25T09:25:40.001Z</time></trkpt><trkpt lat="43.210865260505436" lon="11.368544798620086"><ele>233.0</ele><time>2026-04-25T09:25:41.001Z</time></trkpt><trkpt lat="43.210712246184315" lon="11.368488024814377"><ele>232.33333333333334</ele><time>2026-04-25T09:25:42.001Z</time></trkpt><trkpt lat="43.21055604486155" lon="11.368440213168276"><ele>231.66666666666669</ele><time>2026-04-25T09:25:43.001Z</time></trkpt><trkpt lat="43.21039930700402" lon="11.368396191507912"><ele>231.0</ele><time>2026-04-25T09:25:44.001Z</time></trkpt><trkpt lat="43.21024759341359" lon="11.368343754814685"><ele>231.0</ele><time>2026-04-25T09:25:45.001Z</time></trkpt><trkpt lat="43.21011554942031" lon="11.368300551201761"><ele>231.0</ele><time>2026-04-25T09:25:46.001Z</time></trkpt><trkpt lat="43.21000100807914" lon="11.368260763238453"><ele>231.0</ele><time>2026-04-25T09:25:47.001Z</time></trkpt><trkpt lat="43.20989898414623" lon="11.368223517091367"><ele>231.0</ele><time>2026-04-25T09:25:48.001Z</time></trkpt><trkpt lat="43.20980514090773" lon="11.368198818614303"><ele>233.8</ele><time>2026-04-25T09:25:49.001Z</time></trkpt><trkpt lat="43.209728082740966" lon="11.368198410471207"><ele>236.60000000000002</ele><time>2026-04-25T09:25:50.001Z</time></trkpt><trkpt lat="43.209614131414725" lon="11.368247266102443"><ele>239.4</ele><time>2026-04-25T09:25:52.001Z</time></trkpt><trkpt lat="43.209525682179525" lon="11.368363751811499"><ele>242.2</ele><time>2026-04-25T09:25:54.001Z</time></trkpt><trkpt lat="43.20945550338929" lon="11.36843737687617"><ele>245.0</ele><time>2026-04-25T09:25:55.001Z</time></trkpt><trkpt lat="43.20938728893836" lon="11.368545983659438"><ele>245.0</ele><time>2026-04-25T09:25:56.001Z</time></trkpt><trkpt lat="43.20931300403731" lon="11.3686680359484"><ele>245.0</ele><time>2026-04-25T09:25:57.001Z</time></trkpt><trkpt lat="43.209237723290265" lon="11.368821064374258"><ele>245.0</ele><time>2026-04-25T09:25:58.001Z</time></trkpt><trkpt lat="43.209137833076994" lon="11.36895572400005"><ele>245.0</ele><time>2026-04-25T09:25:59.001Z</time></trkpt><trkpt lat="43.20903017689184" lon="11.369095531824312"><ele>251.33333333333334</ele><time>2026-04-25T09:26:00.001Z</time></trkpt><trkpt lat="43.20893379404869" lon="11.369264117152674"><ele>257.6666666666667</ele><time>2026-04-25T09:26:01.001Z</time></trkpt><trkpt lat="43.208815463761276" lon="11.36939771776963"><ele>264.0</ele><time>2026-04-25T09:26:02.001Z</time></trkpt><trkpt lat="43.208700220082484" lon="11.369554583255299"><ele>260.3333333333333</ele><time>2026-04-25T09:26:03.001Z</time></trkpt><trkpt lat="43.208578740468575" lon="11.36971793331636"><ele>256.66666666666663</ele><time>2026-04-25T09:26:04.001Z</time></trkpt><trkpt lat="43.20845029676749" lon="11.369890649097389"><ele>253.0</ele><time>2026-04-25T09:26:05.001Z</time></trkpt><trkpt lat="43.20832446135766" lon="11.370061670498345"><ele>253.0</ele><time>2026-04-25T09:26:06.001Z</time></trkpt><trkpt lat="43.20820582960994" lon="11.370225245631374"><ele>253.0</ele><time>2026-04-25T09:26:07.001Z</time></trkpt><trkpt lat="43.208089556962314" lon="11.370387551418977"><ele>253.0</ele><time>2026-04-25T09:26:08.001Z</time></trkpt><trkpt lat="43.20797279263184" lon="11.370551230014295"><ele>258.66666666666663</ele><time>2026-04-25T09:26:09.001Z</time></trkpt><trkpt lat="43.20786102123539" lon="11.370707435700972"><ele>264.3333333333333</ele><time>2026-04-25T09:26:10.001Z</time></trkpt><trkpt lat="43.20775211704111" lon="11.37085901189445"><ele>270.0</ele><time>2026-04-25T09:26:11.001Z</time></trkpt><trkpt lat="43.20764046359846" lon="11.371014443314204"><ele>270.0</ele><time>2026-04-25T09:26:12.001Z</time></trkpt><trkpt lat="43.207531252909675" lon="11.3711626275205"><ele>270.0</ele><time>2026-04-25T09:26:13.001Z</time></trkpt><trkpt lat="43.20742713820178" lon="11.371306570478938"><ele>270.0</ele><time>2026-04-25T09:26:14.001Z</time></trkpt><trkpt lat="43.207331886743816" lon="11.371448904625971"><ele>270.0</ele><time>2026-04-25T09:26:15.001Z</time></trkpt><trkpt lat="43.20725751506621" lon="11.371585247206463"><ele>274.25</ele><time>2026-04-25T09:26:16.001Z</time></trkpt><trkpt lat="43.207180834109636" lon="11.371697244317566"><ele>278.5</ele><time>2026-04-25T09:26:17.001Z</time></trkpt><trkpt lat="43.207112333832335" lon="11.371811266041329"><ele>282.75</ele><time>2026-04-25T09:26:18.001Z</time></trkpt><trkpt lat="43.20704224017083" lon="11.37194955237554"><ele>287.0</ele><time>2026-04-25T09:26:19.001Z</time></trkpt><trkpt lat="43.20697417778613" lon="11.372097589874064"><ele>283.0</ele><time>2026-04-25T09:26:20.001Z</time></trkpt><trkpt lat="43.206884928557145" lon="11.372225009721753"><ele>279.0</ele><time>2026-04-25T09:26:21.001Z</time></trkpt><trkpt lat="43.206806067116325" lon="11.372357039326696"><ele>275.0</ele><time>2026-04-25T09:26:22.001Z</time></trkpt><trkpt lat="43.206730491477906" lon="11.372482338716996"><ele>271.0</ele><time>2026-04-25T09:26:23.001Z</time></trkpt><trkpt lat="43.20665468271438" lon="11.372599220881105"><ele>271.0</ele><time>2026-04-25T09:26:24.001Z</time></trkpt><trkpt lat="43.20657251777536" lon="11.372711844398772"><ele>271.0</ele><time>2026-04-25T09:26:25.001Z</time></trkpt><trkpt lat="43.20647855208269" lon="11.372840745559273"><ele>271.0</ele><time>2026-04-25T09:26:26.001Z</time></trkpt><trkpt lat="43.20634184376078" lon="11.372916021778412"><ele>271.0</ele><time>2026-04-25T09:26:27.001Z</time></trkpt><trkpt lat="43.20620724544938" lon="11.373013006343257"><ele>270.0</ele><time>2026-04-25T09:26:28.001Z</time></trkpt><trkpt lat="43.20608319430433" lon="11.37311856381347"><ele>269.0</ele><time>2026-04-25T09:26:29.001Z</time></trkpt><trkpt lat="43.205962651427896" lon="11.373192033513705"><ele>268.0</ele><time>2026-04-25T09:26:30.001Z</time></trkpt><trkpt lat="43.20584770308684" lon="11.37327187031083"><ele>267.0</ele><time>2026-04-25T09:26:31.001Z</time></trkpt><trkpt lat="43.205739472582316" lon="11.373360884114902"><ele>267.2</ele><time>2026-04-25T09:26:32.001Z</time></trkpt><trkpt lat="43.20563963021711" lon="11.37345488736605"><ele>267.4</ele><time>2026-04-25T09:26:33.001Z</time></trkpt><trkpt lat="43.205555305637205" lon="11.373552715493426"><ele>267.6</ele><time>2026-04-25T09:26:34.001Z</time></trkpt><trkpt lat="43.20547955858894" lon="11.37363699392981"><ele>267.8</ele><time>2026-04-25T09:26:35.001Z</time></trkpt><trkpt lat="43.20539912565603" lon="11.373701259980118"><ele>268.0</ele><time>2026-04-25T09:26:36.001Z</time></trkpt><trkpt lat="43.205306717657535" lon="11.373727511724237"><ele>268.0</ele><time>2026-04-25T09:26:37.001Z</time></trkpt><trkpt lat="43.20521452571653" lon="11.37373938873105"><ele>268.0</ele><time>2026-04-25T09:26:38.001Z</time></trkpt><trkpt lat="43.20510430376404" lon="11.37373675717125"><ele>268.0</ele><time>2026-04-25T09:26:39.001Z</time></trkpt><trkpt lat="43.20497917059309" lon="11.373759235112146"><ele>268.0</ele><time>2026-04-25T09:26:40.001Z</time></trkpt><trkpt lat="43.204844908442645" lon="11.373748840679161"><ele>267.75</ele><time>2026-04-25T09:26:41.001Z</time></trkpt><trkpt lat="43.20471359155559" lon="11.373748814908273"><ele>267.5</ele><time>2026-04-25T09:26:42.001Z</time></trkpt><trkpt lat="43.20457306055171" lon="11.373783247713046"><ele>267.25</ele><time>2026-04-25T09:26:43.001Z</time></trkpt><trkpt lat="43.204430292162094" lon="11.37383124135512"><ele>267.0</ele><time>2026-04-25T09:26:44.001Z</time></trkpt><trkpt lat="43.20428462984307" lon="11.37387914577408"><ele>264.75</ele><time>2026-04-25T09:26:45.001Z</time></trkpt><trkpt lat="43.20413851231226" lon="11.373914063097157"><ele>262.5</ele><time>2026-04-25T09:26:46.001Z</time></trkpt><trkpt lat="43.204005279392526" lon="11.373985408226014"><ele>260.25</ele><time>2026-04-25T09:26:47.001Z</time></trkpt><trkpt lat="43.203875950446786" lon="11.374029441517013"><ele>258.0</ele><time>2026-04-25T09:26:48.001Z</time></trkpt><trkpt lat="43.20375421941335" lon="11.374072058090944"><ele>258.0</ele><time>2026-04-25T09:26:49.001Z</time></trkpt><trkpt lat="43.20363845474643" lon="11.37414369035534"><ele>258.0</ele><time>2026-04-25T09:26:50.001Z</time></trkpt><trkpt lat="43.203522987875" lon="11.374239242956229"><ele>258.0</ele><time>2026-04-25T09:26:51.001Z</time></trkpt><trkpt lat="43.203420315868016" lon="11.374353172931972"><ele>258.0</ele><time>2026-04-25T09:26:52.001Z</time></trkpt><trkpt lat="43.20331867263986" lon="11.374440108124544"><ele>258.0</ele><time>2026-04-25T09:26:53.001Z</time></trkpt><trkpt lat="43.203210444779195" lon="11.374505256619038"><ele>258.0</ele><time>2026-04-25T09:26:54.001Z</time></trkpt><trkpt lat="43.20308597668091" lon="11.374548836716182"><ele>258.0</ele><time>2026-04-25T09:26:55.001Z</time></trkpt><trkpt lat="43.202948464141734" lon="11.374580416045148"><ele>258.0</ele><time>2026-04-25T09:26:56.001Z</time></trkpt><trkpt lat="43.202806424749234" lon="11.374613538203015"><ele>256.5</ele><time>2026-04-25T09:26:57.001Z</time></trkpt><trkpt lat="43.20266212021125" lon="11.374649097363928"><ele>255.0</ele><time>2026-04-25T09:26:58.001Z</time></trkpt><trkpt lat="43.20251622575334" lon="11.3746793195321"><ele>253.5</ele><time>2026-04-25T09:26:59.001Z</time></trkpt><trkpt lat="43.20236910859971" lon="11.374714744448921"><ele>252.0</ele><time>2026-04-25T09:27:00.001Z</time></trkpt><trkpt lat="43.20224004765564" lon="11.37473576443716"><ele>254.33333333333334</ele><time>2026-04-25T09:27:01.001Z</time></trkpt><trkpt lat="43.20213636279873" lon="11.374784447511528"><ele>256.6666666666667</ele><time>2026-04-25T09:27:02.001Z</time></trkpt><trkpt lat="43.20204663689785" lon="11.374791449282466"><ele>259.0</ele><time>2026-04-25T09:27:03.001Z</time></trkpt><trkpt lat="43.2019729680918" lon="11.374815990400556"><ele>261.33333333333337</ele><time>2026-04-25T09:27:04.001Z</time></trkpt><trkpt lat="43.20190905806837" lon="11.374855623446216"><ele>263.6666666666667</ele><time>2026-04-25T09:27:05.001Z</time></trkpt><trkpt lat="43.201840096064096" lon="11.374868882462252"><ele>266.0</ele><time>2026-04-25T09:27:06.001Z</time></trkpt><trkpt lat="43.20176807536223" lon="11.374899008178582"><ele>266.0</ele><time>2026-04-25T09:27:07.001Z</time></trkpt><trkpt lat="43.201698752980064" lon="11.374951676969024"><ele>266.0</ele><time>2026-04-25T09:27:08.001Z</time></trkpt><trkpt lat="43.20161754397999" lon="11.37501368865651"><ele>266.0</ele><time>2026-04-25T09:27:09.001Z</time></trkpt><trkpt lat="43.20152918029842" lon="11.37508651337077"><ele>266.0</ele><time>2026-04-25T09:27:10.001Z</time></trkpt><trkpt lat="43.20142812699421" lon="11.375163421160032"><ele>266.0</ele><time>2026-04-25T09:27:11.001Z</time></trkpt><trkpt lat="43.20131709987018" lon="11.375234642105642"><ele>267.0</ele><time>2026-04-25T09:27:12.001Z</time></trkpt><trkpt lat="43.20121992216929" lon="11.375304673486216"><ele>268.0</ele><time>2026-04-25T09:27:13.001Z</time></trkpt><trkpt lat="43.201134305780236" lon="11.375339130330854"><ele>269.0</ele><time>2026-04-25T09:27:14.001Z</time></trkpt><trkpt lat="43.20107331307692" lon="11.375373108293006"><ele>270.0</ele><time>2026-04-25T09:27:15.001Z</time></trkpt><trkpt lat="43.200981297024924" lon="11.375381993910434"><ele>271.0</ele><time>2026-04-25T09:27:17.001Z</time></trkpt><trkpt lat="43.2008666369521" lon="11.37534388530539"><ele>271.0</ele><time>2026-04-25T09:27:19.001Z</time></trkpt><trkpt lat="43.20078268198213" lon="11.375299350730327"><ele>271.0</ele><time>2026-04-25T09:27:20.001Z</time></trkpt><trkpt lat="43.200684687970075" lon="11.375263289992299"><ele>271.0</ele><time>2026-04-25T09:27:21.001Z</time></trkpt><trkpt lat="43.200589478538184" lon="11.375184525056362"><ele>271.0</ele><time>2026-04-25T09:27:22.001Z</time></trkpt><trkpt lat="43.200485944528495" lon="11.375122935400437"><ele>271.0</ele><time>2026-04-25T09:27:23.001Z</time></trkpt><trkpt lat="43.200396804715545" lon="11.375087873601757"><ele>268.5</ele><time>2026-04-25T09:27:24.001Z</time></trkpt><trkpt lat="43.20031454673195" lon="11.375035933694415"><ele>266.0</ele><time>2026-04-25T09:27:25.001Z</time></trkpt><trkpt lat="43.200245803814646" lon="11.375001456324753"><ele>263.5</ele><time>2026-04-25T09:27:26.001Z</time></trkpt><trkpt lat="43.20017590649062" lon="11.374972134635167"><ele>261.0</ele><time>2026-04-25T09:27:27.001Z</time></trkpt><trkpt lat="43.20006436256773" lon="11.374978603921743"><ele>258.5</ele><time>2026-04-25T09:27:29.001Z</time></trkpt><trkpt lat="43.200009445095816" lon="11.375030528445325"><ele>256.0</ele><time>2026-04-25T09:27:30.001Z</time></trkpt><trkpt lat="43.19995947560068" lon="11.375114107072518"><ele>256.0</ele><time>2026-04-25T09:27:31.001Z</time></trkpt><trkpt lat="43.19991384033156" lon="11.375230247650869"><ele>256.0</ele><time>2026-04-25T09:27:32.001Z</time></trkpt><trkpt lat="43.19986711099742" lon="11.375362505448766"><ele>256.0</ele><time>2026-04-25T09:27:33.001Z</time></trkpt><trkpt lat="43.19980052148291" lon="11.375500875848328"><ele>256.0</ele><time>2026-04-25T09:27:34.001Z</time></trkpt><trkpt lat="43.19970713122294" lon="11.375618864495372"><ele>253.0</ele><time>2026-04-25T09:27:35.001Z</time></trkpt><trkpt lat="43.19960614635695" lon="11.375734727629448"><ele>250.0</ele><time>2026-04-25T09:27:36.001Z</time></trkpt><trkpt lat="43.199511759554" lon="11.375842335454008"><ele>247.0</ele><time>2026-04-25T09:27:37.001Z</time></trkpt><trkpt lat="43.19941634996723" lon="11.37595569184151"><ele>244.0</ele><time>2026-04-25T09:27:38.001Z</time></trkpt><trkpt lat="43.19931834525639" lon="11.376055800820543"><ele>244.0</ele><time>2026-04-25T09:27:39.001Z</time></trkpt><trkpt lat="43.19920638710629" lon="11.376145511565031"><ele>244.0</ele><time>2026-04-25T09:27:40.001Z</time></trkpt><trkpt lat="43.19907584020688" lon="11.376196277229711"><ele>244.0</ele><time>2026-04-25T09:27:41.001Z</time></trkpt><trkpt lat="43.19892313535485" lon="11.376228598149593"><ele>244.0</ele><time>2026-04-25T09:27:42.001Z</time></trkpt><trkpt lat="43.198775314319825" lon="11.376258211679968"><ele>243.0</ele><time>2026-04-25T09:27:43.001Z</time></trkpt><trkpt lat="43.19862838283861" lon="11.37629445112542"><ele>242.0</ele><time>2026-04-25T09:27:44.001Z</time></trkpt><trkpt lat="43.19850103381138" lon="11.376337528893242"><ele>241.0</ele><time>2026-04-25T09:27:45.001Z</time></trkpt><trkpt lat="43.198386167672744" lon="11.376399464386315"><ele>240.0</ele><time>2026-04-25T09:27:46.001Z</time></trkpt><trkpt lat="43.19828115762152" lon="11.37647531467767"><ele>240.0</ele><time>2026-04-25T09:27:47.001Z</time></trkpt><trkpt lat="43.19817162057353" lon="11.376580242236825"><ele>240.0</ele><time>2026-04-25T09:27:48.001Z</time></trkpt><trkpt lat="43.198063790359186" lon="11.376715773543944"><ele>240.0</ele><time>2026-04-25T09:27:49.001Z</time></trkpt><trkpt lat="43.19794434761194" lon="11.37685556222583"><ele>240.0</ele><time>2026-04-25T09:27:50.001Z</time></trkpt><trkpt lat="43.197810448952644" lon="11.376989759869689"><ele>240.0</ele><time>2026-04-25T09:27:51.001Z</time></trkpt><trkpt lat="43.19765045640865" lon="11.377089241175131"><ele>240.0</ele><time>2026-04-25T09:27:52.001Z</time></trkpt><trkpt lat="43.19748816060509" lon="11.377201796466561"><ele>240.0</ele><time>2026-04-25T09:27:53.001Z</time></trkpt><trkpt lat="43.197330556582706" lon="11.377331896180731"><ele>237.33333333333331</ele><time>2026-04-25T09:27:54.001Z</time></trkpt><trkpt lat="43.197166232901516" lon="11.377436799883483"><ele>234.66666666666666</ele><time>2026-04-25T09:27:55.001Z</time></trkpt><trkpt lat="43.19700852537525" lon="11.377541253809959"><ele>232.0</ele><time>2026-04-25T09:27:56.001Z</time></trkpt><trkpt lat="43.19684008175151" lon="11.377628052067884"><ele>232.0</ele><time>2026-04-25T09:27:57.001Z</time></trkpt><trkpt lat="43.19667915252891" lon="11.377768836568523"><ele>232.0</ele><time>2026-04-25T09:27:58.001Z</time></trkpt><trkpt lat="43.19650671505728" lon="11.377886344013902"><ele>232.0</ele><time>2026-04-25T09:27:59.001Z</time></trkpt><trkpt lat="43.1963321411566" lon="11.378007910028172"><ele>232.66666666666666</ele><time>2026-04-25T09:28:00.001Z</time></trkpt><trkpt lat="43.19615964647323" lon="11.37812702180841"><ele>233.33333333333331</ele><time>2026-04-25T09:28:01.001Z</time></trkpt><trkpt lat="43.19598624328759" lon="11.378232882520791"><ele>234.0</ele><time>2026-04-25T09:28:02.001Z</time></trkpt><trkpt lat="43.19581829078153" lon="11.378317632478636"><ele>233.0</ele><time>2026-04-25T09:28:03.001Z</time></trkpt><trkpt lat="43.19566215204853" lon="11.378379027611704"><ele>232.0</ele><time>2026-04-25T09:28:04.001Z</time></trkpt><trkpt lat="43.195517889563" lon="11.378444765805307"><ele>231.0</ele><time>2026-04-25T09:28:05.001Z</time></trkpt><trkpt lat="43.19539324171176" lon="11.378508348119093"><ele>230.0</ele><time>2026-04-25T09:28:06.001Z</time></trkpt><trkpt lat="43.19528824372349" lon="11.378570675171964"><ele>230.0</ele><time>2026-04-25T09:28:07.001Z</time></trkpt><trkpt lat="43.19518095244904" lon="11.37866363943988"><ele>230.0</ele><time>2026-04-25T09:28:08.001Z</time></trkpt><trkpt lat="43.195076400528386" lon="11.37878128960985"><ele>230.0</ele><time>2026-04-25T09:28:09.001Z</time></trkpt><trkpt lat="43.19497318112636" lon="11.378921078020769"><ele>230.0</ele><time>2026-04-25T09:28:10.001Z</time></trkpt><trkpt lat="43.19487204039678" lon="11.379073873674061"><ele>229.25</ele><time>2026-04-25T09:28:11.001Z</time></trkpt><trkpt lat="43.194785135085176" lon="11.379223103045963"><ele>228.5</ele><time>2026-04-25T09:28:12.001Z</time></trkpt><trkpt lat="43.194708952963474" lon="11.379364259062774"><ele>227.75</ele><time>2026-04-25T09:28:13.001Z</time></trkpt><trkpt lat="43.194653276443766" lon="11.379498902302094"><ele>227.0</ele><time>2026-04-25T09:28:14.001Z</time></trkpt><trkpt lat="43.19461343386072" lon="11.379638959496873"><ele>227.0</ele><time>2026-04-25T09:28:15.001Z</time></trkpt><trkpt lat="43.19457509827883" lon="11.37981286970211"><ele>227.0</ele><time>2026-04-25T09:28:16.001Z</time></trkpt><trkpt lat="43.19454077345921" lon="11.38002137054216"><ele>227.0</ele><time>2026-04-25T09:28:17.001Z</time></trkpt><trkpt lat="43.194517104128636" lon="11.380248351663965"><ele>227.0</ele><time>2026-04-25T09:28:18.001Z</time></trkpt><trkpt lat="43.194504488746084" lon="11.380473880413884"><ele>227.0</ele><time>2026-04-25T09:28:19.001Z</time></trkpt><trkpt lat="43.194494292626445" lon="11.380679780524904"><ele>227.0</ele><time>2026-04-25T09:28:20.001Z</time></trkpt><trkpt lat="43.19447681604357" lon="11.380874101207775"><ele>227.33333333333334</ele><time>2026-04-25T09:28:21.001Z</time></trkpt><trkpt lat="43.19441635954814" lon="11.381047146425743"><ele>227.66666666666669</ele><time>2026-04-25T09:28:22.001Z</time></trkpt><trkpt lat="43.194351060617514" lon="11.381236671098103"><ele>228.0</ele><time>2026-04-25T09:28:23.001Z</time></trkpt><trkpt lat="43.194288172037695" lon="11.381454203404328"><ele>228.0</ele><time>2026-04-25T09:28:24.001Z</time></trkpt><trkpt lat="43.19420845477456" lon="11.38166893691973"><ele>228.0</ele><time>2026-04-25T09:28:25.001Z</time></trkpt><trkpt lat="43.19413386542279" lon="11.381896833285879"><ele>228.0</ele><time>2026-04-25T09:28:26.001Z</time></trkpt><trkpt lat="43.1940503447992" lon="11.382130348297242"><ele>225.66666666666669</ele><time>2026-04-25T09:28:27.001Z</time></trkpt><trkpt lat="43.19396555478531" lon="11.382360827053319"><ele>223.33333333333334</ele><time>2026-04-25T09:28:28.001Z</time></trkpt><trkpt lat="43.19388688402314" lon="11.38257730895929"><ele>221.0</ele><time>2026-04-25T09:28:29.001Z</time></trkpt><trkpt lat="43.193818729777554" lon="11.382780416458871"><ele>221.0</ele><time>2026-04-25T09:28:30.001Z</time></trkpt><trkpt lat="43.19375314223017" lon="11.382963948658585"><ele>221.0</ele><time>2026-04-25T09:28:31.001Z</time></trkpt><trkpt lat="43.19369178380064" lon="11.383120763537931"><ele>221.0</ele><time>2026-04-25T09:28:32.001Z</time></trkpt><trkpt lat="43.19362801023759" lon="11.383250183288684"><ele>221.0</ele><time>2026-04-25T09:28:33.001Z</time></trkpt><trkpt lat="43.19354892906" lon="11.383362495722015"><ele>221.0</ele><time>2026-04-25T09:28:34.001Z</time></trkpt><trkpt lat="43.193449973632305" lon="11.383453468540742"><ele>221.0</ele><time>2026-04-25T09:28:35.001Z</time></trkpt><trkpt lat="43.19333760458013" lon="11.383515418282608"><ele>221.0</ele><time>2026-04-25T09:28:36.001Z</time></trkpt><trkpt lat="43.193205757873336" lon="11.383566125060458"><ele>221.0</ele><time>2026-04-25T09:28:37.001Z</time></trkpt><trkpt lat="43.19306026754119" lon="11.383623012683808"><ele>221.0</ele><time>2026-04-25T09:28:38.001Z</time></trkpt><trkpt lat="43.1929192216509" lon="11.383691209555705"><ele>221.0</ele><time>2026-04-25T09:28:39.001Z</time></trkpt><trkpt lat="43.19278627504914" lon="11.383771061302623"><ele>221.0</ele><time>2026-04-25T09:28:40.001Z</time></trkpt><trkpt lat="43.19265428170363" lon="11.383846703859325"><ele>221.0</ele><time>2026-04-25T09:28:41.001Z</time></trkpt><trkpt lat="43.192519535518045" lon="11.383899011585612"><ele>221.75</ele><time>2026-04-25T09:28:42.001Z</time></trkpt><trkpt lat="43.19238711908175" lon="11.383935723005518"><ele>222.5</ele><time>2026-04-25T09:28:43.001Z</time></trkpt><trkpt lat="43.19226009688992" lon="11.38395195542499"><ele>223.25</ele><time>2026-04-25T09:28:44.001Z</time></trkpt><trkpt lat="43.192142312235454" lon="11.383945153718582"><ele>224.0</ele><time>2026-04-25T09:28:45.001Z</time></trkpt><trkpt lat="43.19203118599756" lon="11.383923479464725"><ele>224.2</ele><time>2026-04-25T09:28:46.001Z</time></trkpt><trkpt lat="43.19193967967828" lon="11.383919273081213"><ele>224.39999999999998</ele><time>2026-04-25T09:28:47.001Z</time></trkpt><trkpt lat="43.19184910198055" lon="11.383923373595477"><ele>224.6</ele><time>2026-04-25T09:28:49.001Z</time></trkpt><trkpt lat="43.191748194256235" lon="11.38396383035527"><ele>224.8</ele><time>2026-04-25T09:28:52.001Z</time></trkpt><trkpt lat="43.19164325018514" lon="11.384094496971006"><ele>225.0</ele><time>2026-04-25T09:28:54.001Z</time></trkpt><trkpt lat="43.191576504259515" lon="11.384183407459725"><ele>227.75</ele><time>2026-04-25T09:28:55.001Z</time></trkpt><trkpt lat="43.19150237540654" lon="11.384286195718682"><ele>230.5</ele><time>2026-04-25T09:28:56.001Z</time></trkpt><trkpt lat="43.19142422021087" lon="11.384403053079819"><ele>233.25</ele><time>2026-04-25T09:28:57.001Z</time></trkpt><trkpt lat="43.19135073086713" lon="11.384526575454226"><ele>236.0</ele><time>2026-04-25T09:28:58.001Z</time></trkpt><trkpt lat="43.19125603704314" lon="11.384627941121188"><ele>234.0</ele><time>2026-04-25T09:28:59.001Z</time></trkpt><trkpt lat="43.191168437893815" lon="11.384747874020764"><ele>232.0</ele><time>2026-04-25T09:29:00.001Z</time></trkpt><trkpt lat="43.1910721017894" lon="11.384870133418579"><ele>230.0</ele><time>2026-04-25T09:29:01.001Z</time></trkpt><trkpt lat="43.19096883604191" lon="11.384983178419267"><ele>228.0</ele><time>2026-04-25T09:29:02.001Z</time></trkpt><trkpt lat="43.19085747516964" lon="11.385094274729221"><ele>228.0</ele><time>2026-04-25T09:29:03.001Z</time></trkpt><trkpt lat="43.19073485867063" lon="11.385204541087553"><ele>228.0</ele><time>2026-04-25T09:29:04.001Z</time></trkpt><trkpt lat="43.190613159542856" lon="11.385318304191756"><ele>228.0</ele><time>2026-04-25T09:29:05.001Z</time></trkpt><trkpt lat="43.19047559683354" lon="11.38540599248428"><ele>228.0</ele><time>2026-04-25T09:29:06.001Z</time></trkpt><trkpt lat="43.19033249027073" lon="11.385476734486298"><ele>226.0</ele><time>2026-04-25T09:29:07.001Z</time></trkpt><trkpt lat="43.19018416226975" lon="11.385539906117206"><ele>224.0</ele><time>2026-04-25T09:29:08.001Z</time></trkpt><trkpt lat="43.19002116400234" lon="11.385588524702628"><ele>222.0</ele><time>2026-04-25T09:29:09.001Z</time></trkpt><trkpt lat="43.18984471703132" lon="11.385630768199833"><ele>221.0</ele><time>2026-04-25T09:29:10.001Z</time></trkpt><trkpt lat="43.18966103110303" lon="11.385672158098636"><ele>220.0</ele><time>2026-04-25T09:29:11.001Z</time></trkpt><trkpt lat="43.18947868508319" lon="11.385721396363273"><ele>219.0</ele><time>2026-04-25T09:29:12.001Z</time></trkpt><trkpt lat="43.189302674171806" lon="11.385779031352502"><ele>219.0</ele><time>2026-04-25T09:29:13.001Z</time></trkpt><trkpt lat="43.18913398778994" lon="11.38580947041576"><ele>219.0</ele><time>2026-04-25T09:29:14.001Z</time></trkpt><trkpt lat="43.18898479200283" lon="11.385881458207706"><ele>219.0</ele><time>2026-04-25T09:29:15.001Z</time></trkpt><trkpt lat="43.18885459310149" lon="11.385918053153594"><ele>220.39999999999998</ele><time>2026-04-25T09:29:16.001Z</time></trkpt><trkpt lat="43.188741109545646" lon="11.38593690723075"><ele>221.79999999999998</ele><time>2026-04-25T09:29:17.001Z</time></trkpt><trkpt lat="43.18863284764359" lon="11.38592500397804"><ele>223.20000000000002</ele><time>2026-04-25T09:29:18.001Z</time></trkpt><trkpt lat="43.18852526905756" lon="11.38588892274635"><ele>224.60000000000002</ele><time>2026-04-25T09:29:19.001Z</time></trkpt><trkpt lat="43.188425070345126" lon="11.385824999293646"><ele>226.0</ele><time>2026-04-25T09:29:20.001Z</time></trkpt><trkpt lat="43.18831390427413" lon="11.385737399391829"><ele>226.0</ele><time>2026-04-25T09:29:21.001Z</time></trkpt><trkpt lat="43.18822072256854" lon="11.385631115995292"><ele>226.00000000000003</ele><time>2026-04-25T09:29:22.001Z</time></trkpt><trkpt lat="43.18812596719799" lon="11.385554233639128"><ele>226.00000000000003</ele><time>2026-04-25T09:29:23.001Z</time></trkpt><trkpt lat="43.188032897470414" lon="11.385483094068752"><ele>226.0</ele><time>2026-04-25T09:29:24.001Z</time></trkpt><trkpt lat="43.187935645872244" lon="11.385435115070022"><ele>226.0</ele><time>2026-04-25T09:29:25.001Z</time></trkpt><trkpt lat="43.187836686922026" lon="11.385397530194036"><ele>228.8</ele><time>2026-04-25T09:29:26.001Z</time></trkpt><trkpt lat="43.187732438180355" lon="11.385350831443379"><ele>231.60000000000002</ele><time>2026-04-25T09:29:27.001Z</time></trkpt><trkpt lat="43.18762766508553" lon="11.385305308819836"><ele>234.4</ele><time>2026-04-25T09:29:28.001Z</time></trkpt><trkpt lat="43.187528007904156" lon="11.385255227645683"><ele>237.2</ele><time>2026-04-25T09:29:29.001Z</time></trkpt><trkpt lat="43.187436032621235" lon="11.385222528626391"><ele>240.0</ele><time>2026-04-25T09:29:30.001Z</time></trkpt><trkpt lat="43.18734467911254" lon="11.385207466551536"><ele>241.6</ele><time>2026-04-25T09:29:31.001Z</time></trkpt><trkpt lat="43.18725401021708" lon="11.385208290378587"><ele>243.2</ele><time>2026-04-25T09:29:32.001Z</time></trkpt><trkpt lat="43.18716156921286" lon="11.385225896370983"><ele>244.8</ele><time>2026-04-25T09:29:33.001Z</time></trkpt><trkpt lat="43.18706471145064" lon="11.385250321895803"><ele>246.4</ele><time>2026-04-25T09:29:34.001Z</time></trkpt><trkpt lat="43.18696517563839" lon="11.385270725050779"><ele>248.0</ele><time>2026-04-25T09:29:35.001Z</time></trkpt><trkpt lat="43.18685935155748" lon="11.385292684557585"><ele>248.0</ele><time>2026-04-25T09:29:36.001Z</time></trkpt><trkpt lat="43.18675041470588" lon="11.385313458994233"><ele>248.0</ele><time>2026-04-25T09:29:37.001Z</time></trkpt><trkpt lat="43.18662905873741" lon="11.385339810080119"><ele>248.0</ele><time>2026-04-25T09:29:38.001Z</time></trkpt><trkpt lat="43.18649509762318" lon="11.385375484493549"><ele>248.0</ele><time>2026-04-25T09:29:39.001Z</time></trkpt><trkpt lat="43.18634804140702" lon="11.38540136535267"><ele>250.66666666666669</ele><time>2026-04-25T09:29:40.001Z</time></trkpt><trkpt lat="43.186178330078356" lon="11.385413031716368"><ele>253.33333333333331</ele><time>2026-04-25T09:29:41.001Z</time></trkpt><trkpt lat="43.18600400902012" lon="11.385414205403933"><ele>256.0</ele><time>2026-04-25T09:29:42.001Z</time></trkpt><trkpt lat="43.18583590501216" lon="11.38541321149118"><ele>256.0</ele><time>2026-04-25T09:29:43.001Z</time></trkpt><trkpt lat="43.18568657945134" lon="11.385416226580682"><ele>256.0</ele><time>2026-04-25T09:29:44.001Z</time></trkpt><trkpt lat="43.185562167382535" lon="11.385410001671845"><ele>256.0</ele><time>2026-04-25T09:29:45.001Z</time></trkpt><trkpt lat="43.18545875568807" lon="11.385380101993523"><ele>256.0</ele><time>2026-04-25T09:29:46.001Z</time></trkpt><trkpt lat="43.18537677710923" lon="11.385327259509069"><ele>257.8333333333333</ele><time>2026-04-25T09:29:47.001Z</time></trkpt><trkpt lat="43.18530778217358" lon="11.385240615907612"><ele>259.66666666666663</ele><time>2026-04-25T09:29:48.001Z</time></trkpt><trkpt lat="43.185241263436524" lon="11.385156401924704"><ele>261.5</ele><time>2026-04-25T09:29:49.001Z</time></trkpt><trkpt lat="43.18516930369863" lon="11.385087637796817"><ele>263.3333333333333</ele><time>2026-04-25T09:29:50.001Z</time></trkpt><trkpt lat="43.18511280621292" lon="11.385007679081376"><ele>265.1666666666667</ele><time>2026-04-25T09:29:51.001Z</time></trkpt><trkpt lat="43.18506249615873" lon="11.384903336866977"><ele>267.0</ele><time>2026-04-25T09:29:52.001Z</time></trkpt><trkpt lat="43.185006913792535" lon="11.384819124902428"><ele>267.0</ele><time>2026-04-25T09:29:53.001Z</time></trkpt><trkpt lat="43.184937550003454" lon="11.38473709090975"><ele>267.0</ele><time>2026-04-25T09:29:54.001Z</time></trkpt><trkpt lat="43.18487841981117" lon="11.384629508367357"><ele>267.0</ele><time>2026-04-25T09:29:55.001Z</time></trkpt><trkpt lat="43.18481274087303" lon="11.384530073255739"><ele>267.0</ele><time>2026-04-25T09:29:56.001Z</time></trkpt><trkpt lat="43.18473961601543" lon="11.384443929762623"><ele>267.0</ele><time>2026-04-25T09:29:57.001Z</time></trkpt><trkpt lat="43.18465535524436" lon="11.384363311161328"><ele>269.0</ele><time>2026-04-25T09:29:58.001Z</time></trkpt><trkpt lat="43.18456341249427" lon="11.384260589980228"><ele>271.0</ele><time>2026-04-25T09:29:59Z</time></trkpt><trkpt lat="43.184465429499355" lon="11.384169028176085"><ele>273.0</ele><time>2026-04-25T09:30:00Z</time></trkpt><trkpt lat="43.18436718274549" lon="11.384076234676321"><ele>275.0</ele><time>2026-04-25T09:30:01Z</time></trkpt><trkpt lat="43.1842618798628" lon="11.38398747203281"><ele>275.0</ele><time>2026-04-25T09:30:02Z</time></trkpt><trkpt lat="43.18415187960547" lon="11.383916224407805"><ele>275.0</ele><time>2026-04-25T09:30:03Z</time></trkpt><trkpt lat="43.184033497681895" lon="11.383859392354642"><ele>275.0</ele><time>2026-04-25T09:30:04Z</time></trkpt><trkpt lat="43.183911911189725" lon="11.383807398097307"><ele>275.0</ele><time>2026-04-25T09:30:05Z</time></trkpt><trkpt lat="43.18378112060909" lon="11.383774397660945"><ele>274.75</ele><time>2026-04-25T09:30:06Z</time></trkpt><trkpt lat="43.18365237582855" lon="11.383730545712078"><ele>274.5</ele><time>2026-04-25T09:30:07Z</time></trkpt><trkpt lat="43.18352814804389" lon="11.383682240732682"><ele>274.25</ele><time>2026-04-25T09:30:08Z</time></trkpt><trkpt lat="43.18341624285039" lon="11.38363912166495"><ele>274.0</ele><time>2026-04-25T09:30:09Z</time></trkpt><trkpt lat="43.18332033760577" lon="11.383599753565743"><ele>274.0</ele><time>2026-04-25T09:30:10Z</time></trkpt><trkpt lat="43.183225196531694" lon="11.383557001584911"><ele>274.0</ele><time>2026-04-25T09:30:11Z</time></trkpt><trkpt lat="43.18312219315522" lon="11.383510603155353"><ele>274.0</ele><time>2026-04-25T09:30:12Z</time></trkpt><trkpt lat="43.18301278094321" lon="11.38345468412762"><ele>274.0</ele><time>2026-04-25T09:30:13Z</time></trkpt><trkpt lat="43.182898093482684" lon="11.383405633114895"><ele>274.0</ele><time>2026-04-25T09:30:14Z</time></trkpt><trkpt lat="43.182782263799666" lon="11.383357553102398"><ele>273.25</ele><time>2026-04-25T09:30:15Z</time></trkpt><trkpt lat="43.18267107073556" lon="11.383307988105956"><ele>272.5</ele><time>2026-04-25T09:30:16Z</time></trkpt><trkpt lat="43.1825606899377" lon="11.383250797214176"><ele>271.75</ele><time>2026-04-25T09:30:17Z</time></trkpt><trkpt lat="43.18244565060331" lon="11.383203939274921"><ele>271.0</ele><time>2026-04-25T09:30:18Z</time></trkpt><trkpt lat="43.1823212638061" lon="11.383168730917959"><ele>270.5</ele><time>2026-04-25T09:30:19Z</time></trkpt><trkpt lat="43.1821908004017" lon="11.383131994534038"><ele>270.0</ele><time>2026-04-25T09:30:20Z</time></trkpt><trkpt lat="43.182047298465434" lon="11.383084348509806"><ele>269.5</ele><time>2026-04-25T09:30:21Z</time></trkpt><trkpt lat="43.18189038050832" lon="11.383047361667922"><ele>269.0</ele><time>2026-04-25T09:30:22Z</time></trkpt><trkpt lat="43.181746041657455" lon="11.383011208449132"><ele>268.4</ele><time>2026-04-25T09:30:23Z</time></trkpt><trkpt lat="43.1816118912877" lon="11.382975178466763"><ele>267.79999999999995</ele><time>2026-04-25T09:30:24Z</time></trkpt><trkpt lat="43.18149715152842" lon="11.382950177499568"><ele>267.20000000000005</ele><time>2026-04-25T09:30:25Z</time></trkpt><trkpt lat="43.18139466289659" lon="11.382927172534444"><ele>266.6</ele><time>2026-04-25T09:30:26Z</time></trkpt><trkpt lat="43.18130391568298" lon="11.382905477540573"><ele>266.0</ele><time>2026-04-25T09:30:27Z</time></trkpt><trkpt lat="43.18122183137915" lon="11.382882289648805"><ele>266.0</ele><time>2026-04-25T09:30:28Z</time></trkpt><trkpt lat="43.18115082282364" lon="11.382849627374117"><ele>266.0</ele><time>2026-04-25T09:30:29Z</time></trkpt><trkpt lat="43.18108786812561" lon="11.382810233844083"><ele>266.0</ele><time>2026-04-25T09:30:30Z</time></trkpt><trkpt lat="43.18102542480359" lon="11.382766170842391"><ele>266.0</ele><time>2026-04-25T09:30:31Z</time></trkpt><trkpt lat="43.180965244031654" lon="11.382718672037761"><ele>266.0</ele><time>2026-04-25T09:30:32Z</time></trkpt><trkpt lat="43.18089544347555" lon="11.382669914348908"><ele>266.0</ele><time>2026-04-25T09:30:34Z</time></trkpt><trkpt lat="43.180783126746086" lon="11.382649712424195"><ele>266.0</ele><time>2026-04-25T09:30:37Z</time></trkpt><trkpt lat="43.18070934608802" lon="11.38274312655538"><ele>266.0</ele><time>2026-04-25T09:30:38Z</time></trkpt><trkpt lat="43.180639561981856" lon="11.382823578320375"><ele>266.0</ele><time>2026-04-25T09:30:39Z</time></trkpt><trkpt lat="43.180551409718895" lon="11.382915583733263"><ele>266.0</ele><time>2026-04-25T09:30:40Z</time></trkpt><trkpt lat="43.18044290074218" lon="11.383015551952141"><ele>266.0</ele><time>2026-04-25T09:30:41Z</time></trkpt><trkpt lat="43.180331722145596" lon="11.383121736239966"><ele>266.0</ele><time>2026-04-25T09:30:42Z</time></trkpt><trkpt lat="43.180213022785544" lon="11.38324000337029"><ele>266.0</ele><time>2026-04-25T09:30:43Z</time></trkpt><trkpt lat="43.180078341802876" lon="11.383347613243215"><ele>266.0</ele><time>2026-04-25T09:30:44Z</time></trkpt><trkpt lat="43.17992805785905" lon="11.383440374029478"><ele>265.0</ele><time>2026-04-25T09:30:45Z</time></trkpt><trkpt lat="43.179769112038564" lon="11.383530284990641"><ele>264.0</ele><time>2026-04-25T09:30:46Z</time></trkpt><trkpt lat="43.17960288268564" lon="11.383616302203468"><ele>263.0</ele><time>2026-04-25T09:30:47Z</time></trkpt><trkpt lat="43.179429536702365" lon="11.383705619348895"><ele>263.0</ele><time>2026-04-25T09:30:48Z</time></trkpt><trkpt lat="43.17925245085129" lon="11.383799150375292"><ele>263.0</ele><time>2026-04-25T09:30:49Z</time></trkpt><trkpt lat="43.17908410867743" lon="11.383891822949677"><ele>263.0</ele><time>2026-04-25T09:30:50Z</time></trkpt><trkpt lat="43.17892626101439" lon="11.383986656198886"><ele>265.0</ele><time>2026-04-25T09:30:51Z</time></trkpt><trkpt lat="43.17877360561525" lon="11.384106895762818"><ele>267.0</ele><time>2026-04-25T09:30:52Z</time></trkpt><trkpt lat="43.178626290774076" lon="11.384266748300032"><ele>269.0</ele><time>2026-04-25T09:30:53Z</time></trkpt><trkpt lat="43.17848225503068" lon="11.38445174970607"><ele>269.0</ele><time>2026-04-25T09:30:54Z</time></trkpt><trkpt lat="43.17833834253874" lon="11.38463670691084"><ele>269.0</ele><time>2026-04-25T09:30:55Z</time></trkpt><trkpt lat="43.17818476070253" lon="11.384810011662484"><ele>269.0</ele><time>2026-04-25T09:30:56Z</time></trkpt><trkpt lat="43.17801443874071" lon="11.38495972582232"><ele>269.0</ele><time>2026-04-25T09:30:57Z</time></trkpt><trkpt lat="43.17783764042802" lon="11.385099821841074"><ele>269.0</ele><time>2026-04-25T09:30:58Z</time></trkpt><trkpt lat="43.17766832174939" lon="11.385237320746555"><ele>269.0</ele><time>2026-04-25T09:30:59Z</time></trkpt><trkpt lat="43.17751495896458" lon="11.385376558469549"><ele>270.6666666666667</ele><time>2026-04-25T09:31:00Z</time></trkpt><trkpt lat="43.17737882521746" lon="11.385539351499087"><ele>272.3333333333333</ele><time>2026-04-25T09:31:01Z</time></trkpt><trkpt lat="43.1772543774513" lon="11.385742472435979"><ele>274.0</ele><time>2026-04-25T09:31:02Z</time></trkpt><trkpt lat="43.17715024700326" lon="11.385981201217048"><ele>274.0</ele><time>2026-04-25T09:31:03Z</time></trkpt><trkpt lat="43.177050630151626" lon="11.386227450055223"><ele>274.0</ele><time>2026-04-25T09:31:04Z</time></trkpt><trkpt lat="43.176950505630444" lon="11.386468014839721"><ele>274.0</ele><time>2026-04-25T09:31:05Z</time></trkpt><trkpt lat="43.17685039883109" lon="11.386705500918028"><ele>273.3333333333333</ele><time>2026-04-25T09:31:06Z</time></trkpt><trkpt lat="43.17675413372941" lon="11.386938046650542"><ele>272.6666666666667</ele><time>2026-04-25T09:31:07Z</time></trkpt><trkpt lat="43.176666116904094" lon="11.387156835114382"><ele>272.0</ele><time>2026-04-25T09:31:08Z</time></trkpt><trkpt lat="43.17658302207607" lon="11.387357475593234"><ele>272.6666666666667</ele><time>2026-04-25T09:31:09Z</time></trkpt><trkpt lat="43.176501958377756" lon="11.387546302907518"><ele>273.3333333333333</ele><time>2026-04-25T09:31:10Z</time></trkpt><trkpt lat="43.17640825119436" lon="11.387731970695578"><ele>274.0</ele><time>2026-04-25T09:31:11Z</time></trkpt><trkpt lat="43.176170645087836" lon="11.388044294573147"><ele>274.0</ele><time>2026-04-25T09:31:13Z</time></trkpt><trkpt lat="43.176046288664395" lon="11.388175723966146"><ele>274.0</ele><time>2026-04-25T09:31:14Z</time></trkpt><trkpt lat="43.175918536747574" lon="11.388276042473276"><ele>274.0</ele><time>2026-04-25T09:31:15Z</time></trkpt><trkpt lat="43.17578617553571" lon="11.388359173802947"><ele>273.66666666666663</ele><time>2026-04-25T09:31:16Z</time></trkpt><trkpt lat="43.17563452040936" lon="11.388442542918524"><ele>273.3333333333333</ele><time>2026-04-25T09:31:17Z</time></trkpt><trkpt lat="43.1754539205349" lon="11.388528552648177"><ele>273.0</ele><time>2026-04-25T09:31:18Z</time></trkpt><trkpt lat="43.17526306028136" lon="11.388609573190147"><ele>273.0</ele><time>2026-04-25T09:31:19Z</time></trkpt><trkpt lat="43.175069129975086" lon="11.388686405506638"><ele>273.0</ele><time>2026-04-25T09:31:20Z</time></trkpt><trkpt lat="43.17487362050536" lon="11.388763314662738"><ele>273.0</ele><time>2026-04-25T09:31:21Z</time></trkpt><trkpt lat="43.17468928389774" lon="11.388837027499099"><ele>275.0</ele><time>2026-04-25T09:31:22Z</time></trkpt><trkpt lat="43.17451325223042" lon="11.388911605396384"><ele>277.0</ele><time>2026-04-25T09:31:23Z</time></trkpt><trkpt lat="43.1743399260053" lon="11.388986308447215"><ele>279.0</ele><time>2026-04-25T09:31:24Z</time></trkpt><trkpt lat="43.174180691248665" lon="11.389058770570287"><ele>279.0</ele><time>2026-04-25T09:31:25Z</time></trkpt><trkpt lat="43.17403615228644" lon="11.389147551446746"><ele>279.0</ele><time>2026-04-25T09:31:26.001Z</time></trkpt><trkpt lat="43.1739094265605" lon="11.389262879656401"><ele>279.0</ele><time>2026-04-25T09:31:27Z</time></trkpt><trkpt lat="43.173800000550735" lon="11.389388256637162"><ele>280.75</ele><time>2026-04-25T09:31:28Z</time></trkpt><trkpt lat="43.17370681223549" lon="11.389519240993623"><ele>282.5</ele><time>2026-04-25T09:31:29Z</time></trkpt><trkpt lat="43.173627638355775" lon="11.389650208450343"><ele>284.25</ele><time>2026-04-25T09:31:30Z</time></trkpt><trkpt lat="43.17355588603742" lon="11.389768773530744"><ele>286.0</ele><time>2026-04-25T09:31:31Z</time></trkpt><trkpt lat="43.17349461851036" lon="11.389873262925628"><ele>286.0</ele><time>2026-04-25T09:31:32Z</time></trkpt><trkpt lat="43.173471382082" lon="11.389980804416393"><ele>286.0</ele><time>2026-04-25T09:31:33Z</time></trkpt><trkpt lat="43.173381517067035" lon="11.390059817324213"><ele>286.0</ele><time>2026-04-25T09:31:34Z</time></trkpt><trkpt lat="43.17332449272847" lon="11.390158638208137"><ele>286.0</ele><time>2026-04-25T09:31:35Z</time></trkpt><trkpt lat="43.17327341051428" lon="11.390255301740465"><ele>286.0</ele><time>2026-04-25T09:31:36Z</time></trkpt><trkpt lat="43.173228337391755" lon="11.39033980557369"><ele>286.0</ele><time>2026-04-25T09:31:37Z</time></trkpt><trkpt lat="43.17316935470463" lon="11.390437826680767"><ele>289.0</ele><time>2026-04-25T09:31:38Z</time></trkpt><trkpt lat="43.173085451520905" lon="11.39051770895161"><ele>292.0</ele><time>2026-04-25T09:31:39Z</time></trkpt><trkpt lat="43.173008703056475" lon="11.390624645001791"><ele>295.0</ele><time>2026-04-25T09:31:40Z</time></trkpt><trkpt lat="43.17290368119204" lon="11.390699773301458"><ele>298.0</ele><time>2026-04-25T09:31:41Z</time></trkpt><trkpt lat="43.172784543936714" lon="11.390759005128004"><ele>298.0</ele><time>2026-04-25T09:31:42Z</time></trkpt><trkpt lat="43.172657137688006" lon="11.390814714409665"><ele>298.0</ele><time>2026-04-25T09:31:43Z</time></trkpt><trkpt lat="43.172528411348395" lon="11.390874694267684"><ele>298.0</ele><time>2026-04-25T09:31:44Z</time></trkpt><trkpt lat="43.17240205719761" lon="11.390939240187965"><ele>298.0</ele><time>2026-04-25T09:31:45Z</time></trkpt><trkpt lat="43.17228084050812" lon="11.390997109051778"><ele>299.75</ele><time>2026-04-25T09:31:46Z</time></trkpt><trkpt lat="43.17216832915899" lon="11.39105018061365"><ele>301.5</ele><time>2026-04-25T09:31:47Z</time></trkpt><trkpt lat="43.17206287428072" lon="11.391107944436964"><ele>303.25</ele><time>2026-04-25T09:31:48Z</time></trkpt><trkpt lat="43.17195887165798" lon="11.391162783047424"><ele>305.0</ele><time>2026-04-25T09:31:49Z</time></trkpt><trkpt lat="43.17185364971189" lon="11.391212355663072"><ele>305.0</ele><time>2026-04-25T09:31:50Z</time></trkpt><trkpt lat="43.17174621140118" lon="11.391254375441566"><ele>305.0</ele><time>2026-04-25T09:31:51Z</time></trkpt><trkpt lat="43.17163968837231" lon="11.391285225371172"><ele>305.0</ele><time>2026-04-25T09:31:52Z</time></trkpt><trkpt lat="43.17153149138552" lon="11.391302586999396"><ele>305.0</ele><time>2026-04-25T09:31:53Z</time></trkpt><trkpt lat="43.17142795627351" lon="11.391310949247726"><ele>305.0</ele><time>2026-04-25T09:31:54Z</time></trkpt><trkpt lat="43.17131227266873" lon="11.391306909531915"><ele>304.25</ele><time>2026-04-25T09:31:55Z</time></trkpt><trkpt lat="43.171195268499076" lon="11.391284828659936"><ele>303.5</ele><time>2026-04-25T09:31:56Z</time></trkpt><trkpt lat="43.171079088466136" lon="11.391226208334151"><ele>302.75</ele><time>2026-04-25T09:31:57Z</time></trkpt><trkpt lat="43.17096906762167" lon="11.391178201649364"><ele>302.0</ele><time>2026-04-25T09:31:58Z</time></trkpt><trkpt lat="43.170859816594174" lon="11.39111162850591"><ele>302.0</ele><time>2026-04-25T09:31:59Z</time></trkpt><trkpt lat="43.17075038158248" lon="11.391051457068365"><ele>302.0</ele><time>2026-04-25T09:32:00Z</time></trkpt><trkpt lat="43.17064676580565" lon="11.390998093349525"><ele>302.0</ele><time>2026-04-25T09:32:01Z</time></trkpt><trkpt lat="43.17055573522804" lon="11.390947043016787"><ele>302.0</ele><time>2026-04-25T09:32:02Z</time></trkpt><trkpt lat="43.170476308509954" lon="11.390898418847394"><ele>302.0</ele><time>2026-04-25T09:32:03Z</time></trkpt><trkpt lat="43.170401935737765" lon="11.390846064613616"><ele>302.0</ele><time>2026-04-25T09:32:04Z</time></trkpt><trkpt lat="43.17032131654081" lon="11.390784734302418"><ele>302.0</ele><time>2026-04-25T09:32:05Z</time></trkpt><trkpt lat="43.170234575011996" lon="11.390710294410987"><ele>302.0</ele><time>2026-04-25T09:32:06Z</time></trkpt><trkpt lat="43.17014196817778" lon="11.390635075593332"><ele>302.0</ele><time>2026-04-25T09:32:07Z</time></trkpt><trkpt lat="43.170044045551066" lon="11.390555719315014"><ele>302.0</ele><time>2026-04-25T09:32:08Z</time></trkpt><trkpt lat="43.16994519477682" lon="11.390467563216616"><ele>299.0</ele><time>2026-04-25T09:32:09Z</time></trkpt><trkpt lat="43.16984139927234" lon="11.390377486662109"><ele>296.0</ele><time>2026-04-25T09:32:10Z</time></trkpt><trkpt lat="43.16973080057421" lon="11.390294760229313"><ele>293.0</ele><time>2026-04-25T09:32:11Z</time></trkpt><trkpt lat="43.16961709644486" lon="11.390220359332131"><ele>290.0</ele><time>2026-04-25T09:32:12Z</time></trkpt><trkpt lat="43.16950200464448" lon="11.390148349419524"><ele>290.0</ele><time>2026-04-25T09:32:13Z</time></trkpt><trkpt lat="43.1693841727639" lon="11.390090419221234"><ele>290.0</ele><time>2026-04-25T09:32:14Z</time></trkpt><trkpt lat="43.16926368154494" lon="11.390055699529837"><ele>290.0</ele><time>2026-04-25T09:32:15Z</time></trkpt><trkpt lat="43.16914302538434" lon="11.39003145567255"><ele>290.0</ele><time>2026-04-25T09:32:16Z</time></trkpt><trkpt lat="43.16902323704446" lon="11.390003822478773"><ele>287.25</ele><time>2026-04-25T09:32:17Z</time></trkpt><trkpt lat="43.16890206788026" lon="11.389985184740073"><ele>284.5</ele><time>2026-04-25T09:32:18Z</time></trkpt><trkpt lat="43.16877765830131" lon="11.389969860468666"><ele>281.75</ele><time>2026-04-25T09:32:19Z</time></trkpt><trkpt lat="43.168647456414234" lon="11.38996065397883"><ele>279.0</ele><time>2026-04-25T09:32:20Z</time></trkpt><trkpt lat="43.16851129233644" lon="11.389948467201709"><ele>279.0</ele><time>2026-04-25T09:32:21Z</time></trkpt><trkpt lat="43.168366498315734" lon="11.38993879901818"><ele>279.0</ele><time>2026-04-25T09:32:22Z</time></trkpt><trkpt lat="43.16821689956017" lon="11.389922090366417"><ele>279.0</ele><time>2026-04-25T09:32:23Z</time></trkpt><trkpt lat="43.16806391110236" lon="11.389907660334012"><ele>279.0</ele><time>2026-04-25T09:32:24Z</time></trkpt><trkpt lat="43.16791572647137" lon="11.389893659396202"><ele>277.75</ele><time>2026-04-25T09:32:25Z</time></trkpt><trkpt lat="43.167768797997084" lon="11.38988269941727"><ele>276.5</ele><time>2026-04-25T09:32:26Z</time></trkpt><trkpt lat="43.16762441096959" lon="11.389871423234702"><ele>275.25</ele><time>2026-04-25T09:32:27Z</time></trkpt><trkpt lat="43.16748132551274" lon="11.389860012553001"><ele>274.0</ele><time>2026-04-25T09:32:28Z</time></trkpt><trkpt lat="43.167341636588255" lon="11.389849910518455"><ele>274.0</ele><time>2026-04-25T09:32:29Z</time></trkpt><trkpt lat="43.167205537166474" lon="11.389841913485967"><ele>274.0</ele><time>2026-04-25T09:32:30Z</time></trkpt><trkpt lat="43.167072765993616" lon="11.389843130606327"><ele>274.0</ele><time>2026-04-25T09:32:31Z</time></trkpt><trkpt lat="43.16694120399275" lon="11.389862496389185"><ele>274.0</ele><time>2026-04-25T09:32:32Z</time></trkpt><trkpt lat="43.16681715637421" lon="11.389907577381566"><ele>274.0</ele><time>2026-04-25T09:32:33Z</time></trkpt><trkpt lat="43.16670129523742" lon="11.389977734091158"><ele>274.0</ele><time>2026-04-25T09:32:34Z</time></trkpt><trkpt lat="43.16659209708805" lon="11.390066273710003"><ele>274.0</ele><time>2026-04-25T09:32:35Z</time></trkpt><trkpt lat="43.16649422848021" lon="11.390170906530594"><ele>274.0</ele><time>2026-04-25T09:32:36Z</time></trkpt><trkpt lat="43.16641276969646" lon="11.390291006467066"><ele>274.59999999999997</ele><time>2026-04-25T09:32:37Z</time></trkpt><trkpt lat="43.166335682410185" lon="11.390420305030059"><ele>275.2</ele><time>2026-04-25T09:32:38Z</time></trkpt><trkpt lat="43.16626579659239" lon="11.390509032110653"><ele>275.79999999999995</ele><time>2026-04-25T09:32:39Z</time></trkpt><trkpt lat="43.166192801324655" lon="11.390576881783968"><ele>276.4</ele><time>2026-04-25T09:32:40Z</time></trkpt><trkpt lat="43.1661084341189" lon="11.39063333582603"><ele>277.0</ele><time>2026-04-25T09:32:41Z</time></trkpt><trkpt lat="43.166005775642596" lon="11.390708103476031"><ele>276.0</ele><time>2026-04-25T09:32:42Z</time></trkpt><trkpt lat="43.1658790673016" lon="11.390776510019162"><ele>275.0</ele><time>2026-04-25T09:32:43Z</time></trkpt><trkpt lat="43.16572846817003" lon="11.390834026239292"><ele>274.0</ele><time>2026-04-25T09:32:44Z</time></trkpt><trkpt lat="43.165567301893596" lon="11.39088656197692"><ele>274.0</ele><time>2026-04-25T09:32:45Z</time></trkpt><trkpt lat="43.16540455193049" lon="11.390928454922623"><ele>274.0</ele><time>2026-04-25T09:32:46Z</time></trkpt><trkpt lat="43.1652505589989" lon="11.390970299477846"><ele>274.0</ele><time>2026-04-25T09:32:47Z</time></trkpt><trkpt lat="43.16508953863789" lon="11.391016238052641"><ele>274.0</ele><time>2026-04-25T09:32:48Z</time></trkpt><trkpt lat="43.16492338098992" lon="11.391063319245722"><ele>274.0</ele><time>2026-04-25T09:32:49Z</time></trkpt><trkpt lat="43.16475447247149" lon="11.391106166150509"><ele>274.0</ele><time>2026-04-25T09:32:50Z</time></trkpt><trkpt lat="43.164586447667645" lon="11.391147505022225"><ele>274.3333333333333</ele><time>2026-04-25T09:32:51Z</time></trkpt><trkpt lat="43.164416412286776" lon="11.39118755315413"><ele>274.6666666666667</ele><time>2026-04-25T09:32:52Z</time></trkpt><trkpt lat="43.1642432135154" lon="11.39122621929272"><ele>275.0</ele><time>2026-04-25T09:32:53Z</time></trkpt><trkpt lat="43.164070372580476" lon="11.391267783549818"><ele>275.6666666666667</ele><time>2026-04-25T09:32:54Z</time></trkpt><trkpt lat="43.16389827356923" lon="11.391314514067288"><ele>276.3333333333333</ele><time>2026-04-25T09:32:55Z</time></trkpt><trkpt lat="43.163734235958565" lon="11.39135393123905"><ele>277.0</ele><time>2026-04-25T09:32:56Z</time></trkpt><trkpt lat="43.163582267276944" lon="11.39139108269351"><ele>277.0</ele><time>2026-04-25T09:32:57Z</time></trkpt><trkpt lat="43.163443856030135" lon="11.39142369849151"><ele>277.0</ele><time>2026-04-25T09:32:58Z</time></trkpt><trkpt lat="43.163314393128424" lon="11.391456458797633"><ele>277.0</ele><time>2026-04-25T09:32:59Z</time></trkpt><trkpt lat="43.16318526343851" lon="11.391487736059076"><ele>277.0</ele><time>2026-04-25T09:33:00Z</time></trkpt><trkpt lat="43.163051723354734" lon="11.391516844372111"><ele>278.25</ele><time>2026-04-25T09:33:01Z</time></trkpt><trkpt lat="43.162918405994894" lon="11.391546910990359"><ele>279.5</ele><time>2026-04-25T09:33:02Z</time></trkpt><trkpt lat="43.16279007303259" lon="11.391571299891941"><ele>280.75</ele><time>2026-04-25T09:33:03Z</time></trkpt><trkpt lat="43.16266337110032" lon="11.391595480680252"><ele>282.0</ele><time>2026-04-25T09:33:04Z</time></trkpt><trkpt lat="43.16253936938152" lon="11.391611029266958"><ele>282.0</ele><time>2026-04-25T09:33:05Z</time></trkpt><trkpt lat="43.16241679668546" lon="11.391623418436843"><ele>282.0</ele><time>2026-04-25T09:33:06Z</time></trkpt><trkpt lat="43.16229744816379" lon="11.391635766025804"><ele>282.0</ele><time>2026-04-25T09:33:07Z</time></trkpt><trkpt lat="43.16218255665242" lon="11.391647923710739"><ele>282.0</ele><time>2026-04-25T09:33:08Z</time></trkpt><trkpt lat="43.16207122823479" lon="11.39166949301826"><ele>283.0</ele><time>2026-04-25T09:33:09Z</time></trkpt><trkpt lat="43.16196277233086" lon="11.39171191493173"><ele>284.0</ele><time>2026-04-25T09:33:10Z</time></trkpt><trkpt lat="43.161856952949194" lon="11.391783920767246"><ele>285.0</ele><time>2026-04-25T09:33:11Z</time></trkpt><trkpt lat="43.16175962396099" lon="11.391898267790559"><ele>286.0</ele><time>2026-04-25T09:33:12Z</time></trkpt><trkpt lat="43.16168516824065" lon="11.392049621405636"><ele>285.0</ele><time>2026-04-25T09:33:13Z</time></trkpt><trkpt lat="43.16163008192656" lon="11.392229576876653"><ele>284.0</ele><time>2026-04-25T09:33:14Z</time></trkpt><trkpt lat="43.161586433945004" lon="11.392415017959719"><ele>283.0</ele><time>2026-04-25T09:33:15Z</time></trkpt><trkpt lat="43.16154218793367" lon="11.392584764399324"><ele>282.0</ele><time>2026-04-25T09:33:16Z</time></trkpt><trkpt lat="43.16148802530916" lon="11.392741880467955"><ele>281.25</ele><time>2026-04-25T09:33:17Z</time></trkpt><trkpt lat="43.161396758278606" lon="11.392880454152237"><ele>280.5</ele><time>2026-04-25T09:33:18Z</time></trkpt><trkpt lat="43.16127907425879" lon="11.392993692247721"><ele>279.75</ele><time>2026-04-25T09:33:19Z</time></trkpt><trkpt lat="43.16114307211805" lon="11.393083686300745"><ele>279.0</ele><time>2026-04-25T09:33:20Z</time></trkpt><trkpt lat="43.16099954131628" lon="11.393148732634597"><ele>279.0</ele><time>2026-04-25T09:33:21Z</time></trkpt><trkpt lat="43.160858768922026" lon="11.393206884385197"><ele>279.0</ele><time>2026-04-25T09:33:22Z</time></trkpt><trkpt lat="43.160724950918855" lon="11.393261494403365"><ele>279.0</ele><time>2026-04-25T09:33:23Z</time></trkpt><trkpt lat="43.160590778101565" lon="11.393319607421093"><ele>279.0</ele><time>2026-04-25T09:33:24Z</time></trkpt><trkpt lat="43.16045503734605" lon="11.393376817855277"><ele>278.5</ele><time>2026-04-25T09:33:25Z</time></trkpt><trkpt lat="43.16031639031604" lon="11.393437423192688"><ele>278.0</ele><time>2026-04-25T09:33:26Z</time></trkpt><trkpt lat="43.160176708534436" lon="11.393501108387289"><ele>277.5</ele><time>2026-04-25T09:33:27Z</time></trkpt><trkpt lat="43.16003725971547" lon="11.393565814892325"><ele>277.0</ele><time>2026-04-25T09:33:28Z</time></trkpt><trkpt lat="43.159901910090454" lon="11.393639840193783"><ele>276.75</ele><time>2026-04-25T09:33:29Z</time></trkpt><trkpt lat="43.15976888012606" lon="11.39371785881058"><ele>276.5</ele><time>2026-04-25T09:33:30Z</time></trkpt><trkpt lat="43.15963607633686" lon="11.39380494225498"><ele>276.25</ele><time>2026-04-25T09:33:31Z</time></trkpt><trkpt lat="43.15950800784727" lon="11.393902045061667"><ele>276.0</ele><time>2026-04-25T09:33:32Z</time></trkpt><trkpt lat="43.15938401688557" lon="11.394020920074658"><ele>276.0</ele><time>2026-04-25T09:33:33Z</time></trkpt><trkpt lat="43.159264902532556" lon="11.394156532846058"><ele>276.0</ele><time>2026-04-25T09:33:34Z</time></trkpt><trkpt lat="43.15914889843842" lon="11.39430171685046"><ele>276.0</ele><time>2026-04-25T09:33:35Z</time></trkpt><trkpt lat="43.15903903901184" lon="11.394460972545701"><ele>277.0</ele><time>2026-04-25T09:33:36Z</time></trkpt><trkpt lat="43.15893687617166" lon="11.394634853163703"><ele>278.0</ele><time>2026-04-25T09:33:37Z</time></trkpt><trkpt lat="43.15884450834296" lon="11.394818846150276"><ele>279.0</ele><time>2026-04-25T09:33:38Z</time></trkpt><trkpt lat="43.15877405817493" lon="11.39501060842667"><ele>279.0</ele><time>2026-04-25T09:33:39Z</time></trkpt><trkpt lat="43.15872961739678" lon="11.395208081508159"><ele>279.0</ele><time>2026-04-25T09:33:40Z</time></trkpt><trkpt lat="43.158698478928116" lon="11.395408160003738"><ele>279.0</ele><time>2026-04-25T09:33:41Z</time></trkpt><trkpt lat="43.158680195973005" lon="11.39561872261909"><ele>279.0</ele><time>2026-04-25T09:33:42Z</time></trkpt><trkpt lat="43.158674821927015" lon="11.395835457199153"><ele>279.0</ele><time>2026-04-25T09:33:43Z</time></trkpt><trkpt lat="43.15867209955127" lon="11.396054896062621"><ele>279.0</ele><time>2026-04-25T09:33:44Z</time></trkpt><trkpt lat="43.15866851434632" lon="11.396274643435111"><ele>279.3333333333333</ele><time>2026-04-25T09:33:45Z</time></trkpt><trkpt lat="43.15866533251987" lon="11.39649756062411"><ele>279.66666666666663</ele><time>2026-04-25T09:33:46Z</time></trkpt><trkpt lat="43.158662182386756" lon="11.39672245854661"><ele>280.0</ele><time>2026-04-25T09:33:47Z</time></trkpt><trkpt lat="43.15865606180107" lon="11.396946531787544"><ele>280.0</ele><time>2026-04-25T09:33:48Z</time></trkpt><trkpt lat="43.158655134916145" lon="11.397169504120383"><ele>280.0</ele><time>2026-04-25T09:33:49Z</time></trkpt><trkpt lat="43.15865508748032" lon="11.397387761613524"><ele>280.0</ele><time>2026-04-25T09:33:50Z</time></trkpt><trkpt lat="43.158660676710326" lon="11.397607081843647"><ele>280.0</ele><time>2026-04-25T09:33:51Z</time></trkpt><trkpt lat="43.15868256706191" lon="11.397831965566322"><ele>280.0</ele><time>2026-04-25T09:33:52Z</time></trkpt><trkpt lat="43.15871943948926" lon="11.398059589893032"><ele>280.0</ele><time>2026-04-25T09:33:53Z</time></trkpt><trkpt lat="43.15876556161043" lon="11.39828963734421"><ele>280.66666666666663</ele><time>2026-04-25T09:33:54Z</time></trkpt><trkpt lat="43.158821754444446" lon="11.398521624125966"><ele>281.3333333333333</ele><time>2026-04-25T09:33:55Z</time></trkpt><trkpt lat="43.15887904623783" lon="11.398745189308482"><ele>282.0</ele><time>2026-04-25T09:33:56Z</time></trkpt><trkpt lat="43.1589121039284" lon="11.398955322316093"><ele>282.5</ele><time>2026-04-25T09:33:57Z</time></trkpt><trkpt lat="43.15891933286976" lon="11.399146681414871"><ele>283.0</ele><time>2026-04-25T09:33:58Z</time></trkpt><trkpt lat="43.158905307527114" lon="11.399318519884376"><ele>283.5</ele><time>2026-04-25T09:33:59Z</time></trkpt><trkpt lat="43.15886639997296" lon="11.39946657873363"><ele>284.0</ele><time>2026-04-25T09:34:00Z</time></trkpt><trkpt lat="43.15879944580396" lon="11.399573146855795"><ele>284.0</ele><time>2026-04-25T09:34:01Z</time></trkpt><trkpt lat="43.15870800552528" lon="11.399625406024029"><ele>284.0</ele><time>2026-04-25T09:34:02Z</time></trkpt><trkpt lat="43.158603340827874" lon="11.399640633188634"><ele>284.0</ele><time>2026-04-25T09:34:03Z</time></trkpt><trkpt lat="43.15847933297908" lon="11.399618756023068"><ele>284.0</ele><time>2026-04-25T09:34:04Z</time></trkpt><trkpt lat="43.158353387138504" lon="11.399587765522243"><ele>284.0</ele><time>2026-04-25T09:34:05Z</time></trkpt><trkpt lat="43.15822038328893" lon="11.399601319510381"><ele>284.0</ele><time>2026-04-25T09:34:06Z</time></trkpt><trkpt lat="43.15808589022227" lon="11.399625843491332"><ele>284.0</ele><time>2026-04-25T09:34:07Z</time></trkpt><trkpt lat="43.15795393051545" lon="11.39968385566511"><ele>284.0</ele><time>2026-04-25T09:34:08Z</time></trkpt><trkpt lat="43.157821358236546" lon="11.399785890808513"><ele>285.5</ele><time>2026-04-25T09:34:09Z</time></trkpt><trkpt lat="43.15769756800378" lon="11.399911226924743"><ele>287.0</ele><time>2026-04-25T09:34:10Z</time></trkpt><trkpt lat="43.15757518051583" lon="11.400022408177664"><ele>288.5</ele><time>2026-04-25T09:34:11Z</time></trkpt><trkpt lat="43.15744469296872" lon="11.400114668837753"><ele>290.0</ele><time>2026-04-25T09:34:12Z</time></trkpt><trkpt lat="43.15730308506537" lon="11.400170228761151"><ele>291.0</ele><time>2026-04-25T09:34:13Z</time></trkpt><trkpt lat="43.15715541183429" lon="11.400181096027726"><ele>292.0</ele><time>2026-04-25T09:34:14Z</time></trkpt><trkpt lat="43.15701157622518" lon="11.40013997848134"><ele>293.0</ele><time>2026-04-25T09:34:15Z</time></trkpt><trkpt lat="43.15687324391358" lon="11.400079078540678"><ele>294.0</ele><time>2026-04-25T09:34:16Z</time></trkpt><trkpt lat="43.156746358458506" lon="11.400028461753"><ele>294.0</ele><time>2026-04-25T09:34:17Z</time></trkpt><trkpt lat="43.156628949264025" lon="11.399986098912802"><ele>294.0</ele><time>2026-04-25T09:34:18Z</time></trkpt><trkpt lat="43.15652068557274" lon="11.39996773756658"><ele>294.0</ele><time>2026-04-25T09:34:19Z</time></trkpt><trkpt lat="43.15641979763859" lon="11.399991698402536"><ele>294.0</ele><time>2026-04-25T09:34:20Z</time></trkpt><trkpt lat="43.15634346017132" lon="11.400062632102092"><ele>294.0</ele><time>2026-04-25T09:34:21Z</time></trkpt><trkpt lat="43.15628982967438" lon="11.400182382838176"><ele>297.25</ele><time>2026-04-25T09:34:22Z</time></trkpt><trkpt lat="43.15626841613976" lon="11.400326794708386"><ele>300.5</ele><time>2026-04-25T09:34:23Z</time></trkpt><trkpt lat="43.15628771793555" lon="11.400478882006922"><ele>303.75</ele><time>2026-04-25T09:34:24Z</time></trkpt><trkpt lat="43.15634414805153" lon="11.400628773542362"><ele>307.0</ele><time>2026-04-25T09:34:25Z</time></trkpt><trkpt lat="43.15642439067187" lon="11.400791396553645"><ele>307.3333333333333</ele><time>2026-04-25T09:34:26Z</time></trkpt><trkpt lat="43.15650450647221" lon="11.400966308459195"><ele>307.6666666666667</ele><time>2026-04-25T09:34:27Z</time></trkpt><trkpt lat="43.15657953178704" lon="11.40114655692726"><ele>308.0</ele><time>2026-04-25T09:34:28Z</time></trkpt><trkpt lat="43.15665016756981" lon="11.401328729864069"><ele>302.25</ele><time>2026-04-25T09:34:29Z</time></trkpt><trkpt lat="43.156692640020445" lon="11.401516131812873"><ele>296.5</ele><time>2026-04-25T09:34:30Z</time></trkpt><trkpt lat="43.15669792981033" lon="11.401711322355927"><ele>290.75</ele><time>2026-04-25T09:34:31Z</time></trkpt><trkpt lat="43.15667005980785" lon="11.401923748585643"><ele>285.0</ele><time>2026-04-25T09:34:32Z</time></trkpt><trkpt lat="43.15663118069075" lon="11.402143229208768"><ele>284.3333333333333</ele><time>2026-04-25T09:34:33Z</time></trkpt><trkpt lat="43.15658954131643" lon="11.402371514584965"><ele>283.66666666666663</ele><time>2026-04-25T09:34:34Z</time></trkpt><trkpt lat="43.15654864462819" lon="11.402608619546855"><ele>283.0</ele><time>2026-04-25T09:34:35Z</time></trkpt><trkpt lat="43.15651170278041" lon="11.402850921422067"><ele>288.0</ele><time>2026-04-25T09:34:36Z</time></trkpt><trkpt lat="43.15647774274452" lon="11.40310050253518"><ele>293.0</ele><time>2026-04-25T09:34:37Z</time></trkpt><trkpt lat="43.156453533308444" lon="11.403349035484888"><ele>298.0</ele><time>2026-04-25T09:34:38Z</time></trkpt><trkpt lat="43.15643281799706" lon="11.40357967699182"><ele>298.0</ele><time>2026-04-25T09:34:39Z</time></trkpt><trkpt lat="43.15641716830186" lon="11.403794604704922"><ele>298.0</ele><time>2026-04-25T09:34:40Z</time></trkpt><trkpt lat="43.15639650783262" lon="11.403993591150375"><ele>298.0</ele><time>2026-04-25T09:34:41Z</time></trkpt><trkpt lat="43.156354966476144" lon="11.404180481794002"><ele>298.0</ele><time>2026-04-25T09:34:42Z</time></trkpt><trkpt lat="43.15627691798579" lon="11.404351664847868"><ele>296.0</ele><time>2026-04-25T09:34:43Z</time></trkpt><trkpt lat="43.15616359897567" lon="11.404506490163666"><ele>294.0</ele><time>2026-04-25T09:34:44Z</time></trkpt><trkpt lat="43.156024818928095" lon="11.404633224054548"><ele>292.0</ele><time>2026-04-25T09:34:45Z</time></trkpt><trkpt lat="43.155877057744526" lon="11.404740814031578"><ele>289.66666666666663</ele><time>2026-04-25T09:34:46Z</time></trkpt><trkpt lat="43.15573155469588" lon="11.404831336658052"><ele>287.3333333333333</ele><time>2026-04-25T09:34:47Z</time></trkpt><trkpt lat="43.15556822293921" lon="11.404877974850535"><ele>285.0</ele><time>2026-04-25T09:34:48Z</time></trkpt><trkpt lat="43.15538587042905" lon="11.404878565163596"><ele>285.0</ele><time>2026-04-25T09:34:49Z</time></trkpt><trkpt lat="43.155221512822145" lon="11.404918078862595"><ele>285.0</ele><time>2026-04-25T09:34:50Z</time></trkpt><trkpt lat="43.155073500519585" lon="11.404996403153993"><ele>285.0</ele><time>2026-04-25T09:34:51Z</time></trkpt><trkpt lat="43.154926176294886" lon="11.405061722399457"><ele>288.0</ele><time>2026-04-25T09:34:52Z</time></trkpt><trkpt lat="43.15477946856598" lon="11.405122606060157"><ele>291.0</ele><time>2026-04-25T09:34:53Z</time></trkpt><trkpt lat="43.15463338223476" lon="11.405187593871233"><ele>294.0</ele><time>2026-04-25T09:34:54Z</time></trkpt><trkpt lat="43.15448914822314" lon="11.405261941736212"><ele>294.0</ele><time>2026-04-25T09:34:55Z</time></trkpt><trkpt lat="43.15435570557432" lon="11.405353027860343"><ele>294.0</ele><time>2026-04-25T09:34:56Z</time></trkpt><trkpt lat="43.15423206923471" lon="11.405457830967022"><ele>294.0</ele><time>2026-04-25T09:34:57Z</time></trkpt><trkpt lat="43.15410865588091" lon="11.405559697222055"><ele>294.0</ele><time>2026-04-25T09:34:58Z</time></trkpt><trkpt lat="43.153976060857936" lon="11.405630635592944"><ele>292.0</ele><time>2026-04-25T09:34:59Z</time></trkpt><trkpt lat="43.15383237458327" lon="11.405666812676493"><ele>290.0</ele><time>2026-04-25T09:35:00Z</time></trkpt><trkpt lat="43.15369127107847" lon="11.405671159660102"><ele>288.0</ele><time>2026-04-25T09:35:01Z</time></trkpt><trkpt lat="43.15356337200374" lon="11.40567284316585"><ele>286.0</ele><time>2026-04-25T09:35:02Z</time></trkpt><trkpt lat="43.153444676670574" lon="11.405693747337633"><ele>286.0</ele><time>2026-04-25T09:35:03Z</time></trkpt><trkpt lat="43.15332607891793" lon="11.40574388152711"><ele>286.0</ele><time>2026-04-25T09:35:04Z</time></trkpt><trkpt lat="43.15321047507283" lon="11.405818500765545"><ele>286.0</ele><time>2026-04-25T09:35:05Z</time></trkpt><trkpt lat="43.15310474386803" lon="11.405916940281333"><ele>286.0</ele><time>2026-04-25T09:35:06Z</time></trkpt><trkpt lat="43.153002841130586" lon="11.406027858090239"><ele>285.25</ele><time>2026-04-25T09:35:07Z</time></trkpt><trkpt lat="43.15289688283765" lon="11.406139089460568"><ele>284.5</ele><time>2026-04-25T09:35:08Z</time></trkpt><trkpt lat="43.15278460956175" lon="11.406246795546638"><ele>283.75</ele><time>2026-04-25T09:35:09Z</time></trkpt><trkpt lat="43.152663156342015" lon="11.406343070060109"><ele>283.0</ele><time>2026-04-25T09:35:10Z</time></trkpt><trkpt lat="43.15253133916938" lon="11.406425422137074"><ele>283.0</ele><time>2026-04-25T09:35:11Z</time></trkpt><trkpt lat="43.152391416674114" lon="11.406496388303232"><ele>283.0</ele><time>2026-04-25T09:35:12Z</time></trkpt><trkpt lat="43.15224536550944" lon="11.406548425231795"><ele>283.0</ele><time>2026-04-25T09:35:13Z</time></trkpt><trkpt lat="43.15209554924089" lon="11.406584041823653"><ele>283.0</ele><time>2026-04-25T09:35:14Z</time></trkpt><trkpt lat="43.15193975184109" lon="11.406604243728783"><ele>283.0</ele><time>2026-04-25T09:35:15Z</time></trkpt><trkpt lat="43.15177683938281" lon="11.40661345585285"><ele>283.0</ele><time>2026-04-25T09:35:16Z</time></trkpt><trkpt lat="43.151608187218365" lon="11.406620594130835"><ele>284.0</ele><time>2026-04-25T09:35:17Z</time></trkpt><trkpt lat="43.151435558145195" lon="11.406648267889475"><ele>285.0</ele><time>2026-04-25T09:35:18Z</time></trkpt><trkpt lat="43.15126532164202" lon="11.40670314223556"><ele>286.0</ele><time>2026-04-25T09:35:19Z</time></trkpt><trkpt lat="43.15109995963786" lon="11.406764604120697"><ele>286.0</ele><time>2026-04-25T09:35:20Z</time></trkpt><trkpt lat="43.150935462385235" lon="11.406802043361113"><ele>286.0</ele><time>2026-04-25T09:35:21Z</time></trkpt><trkpt lat="43.150771125029664" lon="11.406802819785877"><ele>286.0</ele><time>2026-04-25T09:35:22Z</time></trkpt><trkpt lat="43.1506040807758" lon="11.406776851036811"><ele>284.3333333333333</ele><time>2026-04-25T09:35:23Z</time></trkpt><trkpt lat="43.150443198936024" lon="11.40673895403364"><ele>282.6666666666667</ele><time>2026-04-25T09:35:24Z</time></trkpt><trkpt lat="43.15030186312579" lon="11.406666017902916"><ele>281.0</ele><time>2026-04-25T09:35:25Z</time></trkpt><trkpt lat="43.150178210406864" lon="11.40654608080444"><ele>281.0</ele><time>2026-04-25T09:35:26Z</time></trkpt><trkpt lat="43.15008152142604" lon="11.406379110249892"><ele>281.0</ele><time>2026-04-25T09:35:27Z</time></trkpt><trkpt lat="43.14996611525927" lon="11.406244252970435"><ele>281.0</ele><time>2026-04-25T09:35:28Z</time></trkpt><trkpt lat="43.14986539405238" lon="11.406246263077405"><ele>281.0</ele><time>2026-04-25T09:35:29Z</time></trkpt><trkpt lat="43.14976780383" lon="11.406159266544469"><ele>282.0</ele><time>2026-04-25T09:35:30Z</time></trkpt><trkpt lat="43.149647295161365" lon="11.406136808390213"><ele>283.0</ele><time>2026-04-25T09:35:31Z</time></trkpt><trkpt lat="43.1495187832735" lon="11.406172916931675"><ele>284.0</ele><time>2026-04-25T09:35:32Z</time></trkpt><trkpt lat="43.14940072710538" lon="11.406271467235015"><ele>285.0</ele><time>2026-04-25T09:35:33Z</time></trkpt><trkpt lat="43.1493043586173" lon="11.406413372229476"><ele>285.0</ele><time>2026-04-25T09:35:34Z</time></trkpt><trkpt lat="43.14922478253073" lon="11.406566268274428"><ele>285.0</ele><time>2026-04-25T09:35:35Z</time></trkpt><trkpt lat="43.149140918447465" lon="11.406690887583737"><ele>285.0</ele><time>2026-04-25T09:35:36Z</time></trkpt><trkpt lat="43.14903066327076" lon="11.406713684658376"><ele>285.0</ele><time>2026-04-25T09:35:37Z</time></trkpt><trkpt lat="43.148916937374345" lon="11.406730784930927"><ele>286.0</ele><time>2026-04-25T09:35:38Z</time></trkpt><trkpt lat="43.14879507101568" lon="11.406769383873783"><ele>287.0</ele><time>2026-04-25T09:35:39Z</time></trkpt><trkpt lat="43.14866983746911" lon="11.406782206521877"><ele>288.0</ele><time>2026-04-25T09:35:40Z</time></trkpt><trkpt lat="43.148542254864964" lon="11.406822936573613"><ele>289.0</ele><time>2026-04-25T09:35:41Z</time></trkpt><trkpt lat="43.14842041326032" lon="11.40691148107818"><ele>289.0</ele><time>2026-04-25T09:35:42Z</time></trkpt><trkpt lat="43.14832092067259" lon="11.4070445093605"><ele>289.0</ele><time>2026-04-25T09:35:43Z</time></trkpt><trkpt lat="43.14824594394236" lon="11.407209270478385"><ele>289.0</ele><time>2026-04-25T09:35:44Z</time></trkpt><trkpt lat="43.14817775426203" lon="11.40737576170778"><ele>289.0</ele><time>2026-04-25T09:35:45Z</time></trkpt><trkpt lat="43.1481116096171" lon="11.407535154427213"><ele>289.75</ele><time>2026-04-25T09:35:46Z</time></trkpt><trkpt lat="43.148043099117764" lon="11.407689506567117"><ele>290.5</ele><time>2026-04-25T09:35:47Z</time></trkpt><trkpt lat="43.147975392795395" lon="11.407855203855533"><ele>291.25</ele><time>2026-04-25T09:35:48Z</time></trkpt><trkpt lat="43.147914793160965" lon="11.408017978402576"><ele>292.0</ele><time>2026-04-25T09:35:49Z</time></trkpt><trkpt lat="43.14787424253924" lon="11.40819404380292"><ele>290.0</ele><time>2026-04-25T09:35:50Z</time></trkpt><trkpt lat="43.14787640222693" lon="11.408399770405808"><ele>288.0</ele><time>2026-04-25T09:35:51Z</time></trkpt><trkpt lat="43.14786056676163" lon="11.408607966976925"><ele>286.0</ele><time>2026-04-25T09:35:52Z</time></trkpt><trkpt lat="43.147843550631016" lon="11.408816148721545"><ele>284.0</ele><time>2026-04-25T09:35:53Z</time></trkpt><trkpt lat="43.14781922441045" lon="11.409026211191014"><ele>282.0</ele><time>2026-04-25T09:35:54Z</time></trkpt><trkpt lat="43.14778961785939" lon="11.409239442026239"><ele>280.0</ele><time>2026-04-25T09:35:55Z</time></trkpt><trkpt lat="43.14775580944404" lon="11.40944450656746"><ele>280.0</ele><time>2026-04-25T09:35:56Z</time></trkpt><trkpt lat="43.14772533357185" lon="11.409643537911512"><ele>280.0</ele><time>2026-04-25T09:35:57Z</time></trkpt><trkpt lat="43.14769654537448" lon="11.409833388659509"><ele>280.0</ele><time>2026-04-25T09:35:58Z</time></trkpt><trkpt lat="43.14765936892399" lon="11.410012620411575"><ele>280.0</ele><time>2026-04-25T09:35:59Z</time></trkpt><trkpt lat="43.14760615910781" lon="11.41019002118072"><ele>278.25</ele><time>2026-04-25T09:36:00Z</time></trkpt><trkpt lat="43.14752358513726" lon="11.41034997527739"><ele>276.5</ele><time>2026-04-25T09:36:01Z</time></trkpt><trkpt lat="43.14741529861457" lon="11.410488514579779"><ele>274.75</ele><time>2026-04-25T09:36:02Z</time></trkpt><trkpt lat="43.1472961093665" lon="11.410596847164571"><ele>273.0</ele><time>2026-04-25T09:36:03Z</time></trkpt><trkpt lat="43.14716383569233" lon="11.41067495558681"><ele>270.6666666666667</ele><time>2026-04-25T09:36:04Z</time></trkpt><trkpt lat="43.14702891338487" lon="11.410746304813259"><ele>268.33333333333337</ele><time>2026-04-25T09:36:05Z</time></trkpt><trkpt lat="43.14689326180073" lon="11.410832410721474"><ele>266.0</ele><time>2026-04-25T09:36:06Z</time></trkpt><trkpt lat="43.14676031717754" lon="11.410946812614764"><ele>266.0</ele><time>2026-04-25T09:36:07Z</time></trkpt><trkpt lat="43.146638600418804" lon="11.411094608830348"><ele>266.0</ele><time>2026-04-25T09:36:08Z</time></trkpt><trkpt lat="43.146530003493154" lon="11.411270004338377"><ele>266.0</ele><time>2026-04-25T09:36:09Z</time></trkpt><trkpt lat="43.14642940139372" lon="11.41145132682445"><ele>264.33333333333337</ele><time>2026-04-25T09:36:10Z</time></trkpt><trkpt lat="43.146331075528295" lon="11.411628139517102"><ele>262.6666666666667</ele><time>2026-04-25T09:36:11Z</time></trkpt><trkpt lat="43.14622878477557" lon="11.411799006363548"><ele>261.0</ele><time>2026-04-25T09:36:12Z</time></trkpt><trkpt lat="43.1461306196485" lon="11.411970214844766"><ele>261.0</ele><time>2026-04-25T09:36:13Z</time></trkpt><trkpt lat="43.14604329302895" lon="11.412150985990527"><ele>261.0</ele><time>2026-04-25T09:36:14Z</time></trkpt><trkpt lat="43.14597123600842" lon="11.412339031121565"><ele>261.0</ele><time>2026-04-25T09:36:15Z</time></trkpt><trkpt lat="43.14591649810124" lon="11.412531119485013"><ele>259.0</ele><time>2026-04-25T09:36:16Z</time></trkpt><trkpt lat="43.14587790359309" lon="11.412727614202359"><ele>257.0</ele><time>2026-04-25T09:36:17Z</time></trkpt><trkpt lat="43.14584621397557" lon="11.41292265691107"><ele>255.0</ele><time>2026-04-25T09:36:18Z</time></trkpt><trkpt lat="43.14580741853436" lon="11.413107329175363"><ele>253.0</ele><time>2026-04-25T09:36:19Z</time></trkpt><trkpt lat="43.14575113195577" lon="11.413276907268644"><ele>251.25</ele><time>2026-04-25T09:36:20Z</time></trkpt><trkpt lat="43.14568122534228" lon="11.413429539506053"><ele>249.5</ele><time>2026-04-25T09:36:21Z</time></trkpt><trkpt lat="43.14559736225117" lon="11.413562406440793"><ele>247.75</ele><time>2026-04-25T09:36:22Z</time></trkpt><trkpt lat="43.14550455921219" lon="11.413678112171704"><ele>246.0</ele><time>2026-04-25T09:36:23Z</time></trkpt><trkpt lat="43.14540968059204" lon="11.413797248535626"><ele>245.0</ele><time>2026-04-25T09:36:24Z</time></trkpt><trkpt lat="43.14531968491428" lon="11.413927501342275"><ele>244.0</ele><time>2026-04-25T09:36:25Z</time></trkpt><trkpt lat="43.14524937095783" lon="11.414072217907622"><ele>243.0</ele><time>2026-04-25T09:36:26Z</time></trkpt><trkpt lat="43.145205711021326" lon="11.41423663138297"><ele>242.0</ele><time>2026-04-25T09:36:27Z</time></trkpt><trkpt lat="43.1451922254893" lon="11.414425474727286"><ele>242.0</ele><time>2026-04-25T09:36:28Z</time></trkpt><trkpt lat="43.145212525951635" lon="11.414617280973648"><ele>242.0</ele><time>2026-04-25T09:36:29Z</time></trkpt><trkpt lat="43.145268658105486" lon="11.41479074896588"><ele>242.0</ele><time>2026-04-25T09:36:30Z</time></trkpt><trkpt lat="43.14535935951536" lon="11.414939223008545"><ele>242.0</ele><time>2026-04-25T09:36:31Z</time></trkpt><trkpt lat="43.14546770443642" lon="11.415078446823886"><ele>241.0</ele><time>2026-04-25T09:36:32Z</time></trkpt><trkpt lat="43.14557973335994" lon="11.415230852046193"><ele>240.0</ele><time>2026-04-25T09:36:33Z</time></trkpt><trkpt lat="43.145676422956186" lon="11.415394657839718"><ele>239.0</ele><time>2026-04-25T09:36:34Z</time></trkpt><trkpt lat="43.14572508673091" lon="11.415582755547902"><ele>239.0</ele><time>2026-04-25T09:36:35Z</time></trkpt><trkpt lat="43.145782191471234" lon="11.415769354409294"><ele>239.0</ele><time>2026-04-25T09:36:36Z</time></trkpt><trkpt lat="43.14577583477803" lon="11.41598414019082"><ele>239.0</ele><time>2026-04-25T09:36:37Z</time></trkpt><trkpt lat="43.1457590121098" lon="11.416212502927968"><ele>238.0</ele><time>2026-04-25T09:36:38Z</time></trkpt><trkpt lat="43.14574569174333" lon="11.416451072265115"><ele>237.0</ele><time>2026-04-25T09:36:39Z</time></trkpt><trkpt lat="43.14571238352731" lon="11.416694264371472"><ele>236.0</ele><time>2026-04-25T09:36:40Z</time></trkpt><trkpt lat="43.14568764758052" lon="11.416929162836569"><ele>229.66666666666669</ele><time>2026-04-25T09:36:41Z</time></trkpt><trkpt lat="43.14565670657478" lon="11.417156109144518"><ele>223.33333333333331</ele><time>2026-04-25T09:36:42Z</time></trkpt><trkpt lat="43.14558731843708" lon="11.417372113104577"><ele>217.0</ele><time>2026-04-25T09:36:43Z</time></trkpt><trkpt lat="43.14545466332146" lon="11.417830509262007"><ele>216.0</ele><time>2026-04-25T09:36:45Z</time></trkpt><trkpt lat="43.14538814501022" lon="11.41805516515312"><ele>215.0</ele><time>2026-04-25T09:36:46Z</time></trkpt><trkpt lat="43.145341128506786" lon="11.418291498107115"><ele>214.0</ele><time>2026-04-25T09:36:47Z</time></trkpt><trkpt lat="43.14532896328136" lon="11.418546963068414"><ele>214.0</ele><time>2026-04-25T09:36:48Z</time></trkpt><trkpt lat="43.14533857238762" lon="11.418797426928005"><ele>214.0</ele><time>2026-04-25T09:36:49Z</time></trkpt><trkpt lat="43.145323305023744" lon="11.419040695758508"><ele>214.0</ele><time>2026-04-25T09:36:50Z</time></trkpt><trkpt lat="43.14531699876862" lon="11.419280466199899"><ele>213.66666666666666</ele><time>2026-04-25T09:36:51Z</time></trkpt><trkpt lat="43.14526063549345" lon="11.419510543289633"><ele>213.33333333333331</ele><time>2026-04-25T09:36:52Z</time></trkpt><trkpt lat="43.14521944910493" lon="11.41974364590256"><ele>213.0</ele><time>2026-04-25T09:36:53Z</time></trkpt><trkpt lat="43.14516259170085" lon="11.41996106964035"><ele>212.0</ele><time>2026-04-25T09:36:54Z</time></trkpt><trkpt lat="43.145132458856594" lon="11.420181486975421"><ele>211.0</ele><time>2026-04-25T09:36:55Z</time></trkpt><trkpt lat="43.14513573849523" lon="11.420400322903202"><ele>210.0</ele><time>2026-04-25T09:36:56Z</time></trkpt><trkpt lat="43.14515125102545" lon="11.420604194286282"><ele>209.25</ele><time>2026-04-25T09:36:57Z</time></trkpt><trkpt lat="43.1451592836887" lon="11.420787180217582"><ele>208.5</ele><time>2026-04-25T09:36:58Z</time></trkpt><trkpt lat="43.145147600842016" lon="11.42095839738912"><ele>207.75</ele><time>2026-04-25T09:36:59Z</time></trkpt><trkpt lat="43.14512388518684" lon="11.421127287684367"><ele>207.0</ele><time>2026-04-25T09:37:00Z</time></trkpt><trkpt lat="43.14506880653101" lon="11.421287369467537"><ele>206.66666666666669</ele><time>2026-04-25T09:37:01Z</time></trkpt><trkpt lat="43.14498382423361" lon="11.421434190735544"><ele>206.33333333333334</ele><time>2026-04-25T09:37:02Z</time></trkpt><trkpt lat="43.144867241198064" lon="11.421562059810867"><ele>206.0</ele><time>2026-04-25T09:37:03Z</time></trkpt><trkpt lat="43.144719427627564" lon="11.421666483142996"><ele>205.0</ele><time>2026-04-25T09:37:04Z</time></trkpt><trkpt lat="43.14455455336569" lon="11.421737368088142"><ele>204.0</ele><time>2026-04-25T09:37:05Z</time></trkpt><trkpt lat="43.14436786991839" lon="11.42178777874255"><ele>203.0</ele><time>2026-04-25T09:37:06Z</time></trkpt><trkpt lat="43.144170936806994" lon="11.421815563567835"><ele>201.66666666666669</ele><time>2026-04-25T09:37:07Z</time></trkpt><trkpt lat="43.143965945612756" lon="11.421826644032722"><ele>200.33333333333331</ele><time>2026-04-25T09:37:08Z</time></trkpt><trkpt lat="43.14375843330365" lon="11.421817671525622"><ele>199.0</ele><time>2026-04-25T09:37:09Z</time></trkpt><trkpt lat="43.143548384638684" lon="11.421773235490297"><ele>199.0</ele><time>2026-04-25T09:37:10Z</time></trkpt><trkpt lat="43.143337222040564" lon="11.421697579531887"><ele>199.0</ele><time>2026-04-25T09:37:11Z</time></trkpt><trkpt lat="43.14312583962551" lon="11.421615582361468"><ele>199.0</ele><time>2026-04-25T09:37:12Z</time></trkpt><trkpt lat="43.14292881979208" lon="11.421544410758093"><ele>198.66666666666666</ele><time>2026-04-25T09:37:13Z</time></trkpt><trkpt lat="43.14274676539995" lon="11.421480583968926"><ele>198.33333333333331</ele><time>2026-04-25T09:37:14Z</time></trkpt><trkpt lat="43.14257784181748" lon="11.421420480720998"><ele>198.0</ele><time>2026-04-25T09:37:15Z</time></trkpt><trkpt lat="43.14240809948872" lon="11.421383199206566"><ele>196.33333333333331</ele><time>2026-04-25T09:37:16Z</time></trkpt><trkpt lat="43.14223481727793" lon="11.42139108147078"><ele>194.66666666666666</ele><time>2026-04-25T09:37:17Z</time></trkpt><trkpt lat="43.142057754405734" lon="11.421448540630317"><ele>193.0</ele><time>2026-04-25T09:37:18Z</time></trkpt><trkpt lat="43.14189228769181" lon="11.421537200071608"><ele>193.0</ele><time>2026-04-25T09:37:19Z</time></trkpt><trkpt lat="43.141735692577065" lon="11.421619167800806"><ele>193.0</ele><time>2026-04-25T09:37:20Z</time></trkpt><trkpt lat="43.14158666282874" lon="11.421663513025186"><ele>193.0</ele><time>2026-04-25T09:37:21Z</time></trkpt><trkpt lat="43.14143999516573" lon="11.421657806784342"><ele>192.0</ele><time>2026-04-25T09:37:22Z</time></trkpt><trkpt lat="43.14130076555029" lon="11.42161056385017"><ele>191.0</ele><time>2026-04-25T09:37:23Z</time></trkpt><trkpt lat="43.141171319327455" lon="11.421519482922951"><ele>190.0</ele><time>2026-04-25T09:37:24Z</time></trkpt><trkpt lat="43.14104671505649" lon="11.42138972625265"><ele>189.0</ele><time>2026-04-25T09:37:25Z</time></trkpt><trkpt lat="43.14092711856405" lon="11.421237027766992"><ele>189.0</ele><time>2026-04-25T09:37:26Z</time></trkpt><trkpt lat="43.14080323517675" lon="11.421084555042153"><ele>189.0</ele><time>2026-04-25T09:37:27Z</time></trkpt><trkpt lat="43.140667013142206" lon="11.4209435561896"><ele>189.0</ele><time>2026-04-25T09:37:28Z</time></trkpt><trkpt lat="43.1405141615171" lon="11.42081822522867"><ele>192.33333333333331</ele><time>2026-04-25T09:37:29Z</time></trkpt><trkpt lat="43.14034464624425" lon="11.420734576068007"><ele>195.66666666666666</ele><time>2026-04-25T09:37:30Z</time></trkpt><trkpt lat="43.14016022584507" lon="11.420686372323312"><ele>199.0</ele><time>2026-04-25T09:37:31Z</time></trkpt><trkpt lat="43.13996276772054" lon="11.420684229500175"><ele>199.33333333333331</ele><time>2026-04-25T09:37:32Z</time></trkpt><trkpt lat="43.139762721937906" lon="11.420721906689815"><ele>199.66666666666669</ele><time>2026-04-25T09:37:33Z</time></trkpt><trkpt lat="43.13956409295778" lon="11.420776519944033"><ele>200.0</ele><time>2026-04-25T09:37:34Z</time></trkpt><trkpt lat="43.13937178828001" lon="11.420854075402241"><ele>200.0</ele><time>2026-04-25T09:37:35Z</time></trkpt><trkpt lat="43.139184485465265" lon="11.42097707713658"><ele>200.0</ele><time>2026-04-25T09:37:36Z</time></trkpt><trkpt lat="43.13899932682079" lon="11.421114123029787"><ele>200.0</ele><time>2026-04-25T09:37:37Z</time></trkpt><trkpt lat="43.13880986910499" lon="11.421191892081369"><ele>200.33333333333334</ele><time>2026-04-25T09:37:38Z</time></trkpt><trkpt lat="43.13863947195544" lon="11.421270146743256"><ele>200.66666666666669</ele><time>2026-04-25T09:37:39Z</time></trkpt><trkpt lat="43.13847490487597" lon="11.42131326489166"><ele>201.0</ele><time>2026-04-25T09:37:40Z</time></trkpt><trkpt lat="43.138320801787884" lon="11.421382567910497"><ele>201.0</ele><time>2026-04-25T09:37:41Z</time></trkpt><trkpt lat="43.138174864429025" lon="11.421497746120213"><ele>201.0</ele><time>2026-04-25T09:37:42Z</time></trkpt><trkpt lat="43.1380530168817" lon="11.42165335624279"><ele>201.0</ele><time>2026-04-25T09:37:43Z</time></trkpt><trkpt lat="43.13795958545583" lon="11.42184958870813"><ele>201.0</ele><time>2026-04-25T09:37:44Z</time></trkpt><trkpt lat="43.13788898301802" lon="11.422055184765654"><ele>201.0</ele><time>2026-04-25T09:37:45Z</time></trkpt><trkpt lat="43.13778982947064" lon="11.422208717118286"><ele>201.0</ele><time>2026-04-25T09:37:46Z</time></trkpt><trkpt lat="43.137674612244" lon="11.422339401709221"><ele>203.33333333333331</ele><time>2026-04-25T09:37:47Z</time></trkpt><trkpt lat="43.13754221115057" lon="11.422449785534166"><ele>205.66666666666666</ele><time>2026-04-25T09:37:48Z</time></trkpt><trkpt lat="43.137391034382986" lon="11.42252671125513"><ele>208.0</ele><time>2026-04-25T09:37:49Z</time></trkpt><trkpt lat="43.137219272531595" lon="11.42258562652163"><ele>208.0</ele><time>2026-04-25T09:37:50Z</time></trkpt><trkpt lat="43.13704160492816" lon="11.42263524867357"><ele>208.0</ele><time>2026-04-25T09:37:51Z</time></trkpt><trkpt lat="43.136875939063664" lon="11.422695550234959"><ele>208.0</ele><time>2026-04-25T09:37:52Z</time></trkpt><trkpt lat="43.13672276622326" lon="11.422778714149155"><ele>208.0</ele><time>2026-04-25T09:37:53Z</time></trkpt><trkpt lat="43.1365854944356" lon="11.422911148475066"><ele>208.0</ele><time>2026-04-25T09:37:54Z</time></trkpt><trkpt lat="43.136464061922815" lon="11.42308678072437"><ele>208.0</ele><time>2026-04-25T09:37:55Z</time></trkpt><trkpt lat="43.13637301642903" lon="11.423290863093593"><ele>208.33333333333331</ele><time>2026-04-25T09:37:56Z</time></trkpt><trkpt lat="43.13629984235058" lon="11.423516822096612"><ele>208.66666666666669</ele><time>2026-04-25T09:37:57Z</time></trkpt><trkpt lat="43.13622343122906" lon="11.423735934909125"><ele>209.0</ele><time>2026-04-25T09:37:58Z</time></trkpt><trkpt lat="43.13609734972726" lon="11.423920299846108"><ele>211.0</ele><time>2026-04-25T09:37:59Z</time></trkpt><trkpt lat="43.13594731828367" lon="11.42410007315484"><ele>213.0</ele><time>2026-04-25T09:38:00Z</time></trkpt><trkpt lat="43.135779130667586" lon="11.424290730825549"><ele>215.0</ele><time>2026-04-25T09:38:01Z</time></trkpt><trkpt lat="43.13560784893073" lon="11.424477562939767"><ele>218.66666666666669</ele><time>2026-04-25T09:38:02Z</time></trkpt><trkpt lat="43.13543450064356" lon="11.424663796051794"><ele>222.33333333333331</ele><time>2026-04-25T09:38:03Z</time></trkpt><trkpt lat="43.135255125822496" lon="11.424847863819314"><ele>226.0</ele><time>2026-04-25T09:38:04Z</time></trkpt><trkpt lat="43.13507343320306" lon="11.42503606939718"><ele>226.0</ele><time>2026-04-25T09:38:05Z</time></trkpt><trkpt lat="43.13489333567586" lon="11.425221951802317"><ele>226.0</ele><time>2026-04-25T09:38:06Z</time></trkpt><trkpt lat="43.134713277947775" lon="11.425410345055388"><ele>232.0</ele><time>2026-04-25T09:38:07Z</time></trkpt><trkpt lat="43.13453417858653" lon="11.425605001732468"><ele>238.0</ele><time>2026-04-25T09:38:08Z</time></trkpt><trkpt lat="43.13436261875987" lon="11.425790310415241"><ele>244.0</ele><time>2026-04-25T09:38:09Z</time></trkpt><trkpt lat="43.1342057138852" lon="11.425954540105357"><ele>244.0</ele><time>2026-04-25T09:38:10Z</time></trkpt><trkpt lat="43.1340613492479" lon="11.426102505541657"><ele>244.0</ele><time>2026-04-25T09:38:11Z</time></trkpt><trkpt lat="43.13392510827134" lon="11.426238901044501"><ele>244.0</ele><time>2026-04-25T09:38:12Z</time></trkpt><trkpt lat="43.13378543208748" lon="11.426351206414068"><ele>245.66666666666666</ele><time>2026-04-25T09:38:13Z</time></trkpt><trkpt lat="43.133638590364654" lon="11.42642537239891"><ele>247.33333333333331</ele><time>2026-04-25T09:38:14Z</time></trkpt><trkpt lat="43.133478950770446" lon="11.426467413498477"><ele>249.0</ele><time>2026-04-25T09:38:15Z</time></trkpt><trkpt lat="43.133307225735955" lon="11.426485927417332"><ele>248.66666666666669</ele><time>2026-04-25T09:38:16Z</time></trkpt><trkpt lat="43.13311870523106" lon="11.426497477738446"><ele>248.33333333333334</ele><time>2026-04-25T09:38:17Z</time></trkpt><trkpt lat="43.132912508998444" lon="11.426504213670757"><ele>248.0</ele><time>2026-04-25T09:38:18Z</time></trkpt><trkpt lat="43.132710648844416" lon="11.42651592804411"><ele>248.0</ele><time>2026-04-25T09:38:19Z</time></trkpt><trkpt lat="43.13249081452845" lon="11.426532519886798"><ele>248.0</ele><time>2026-04-25T09:38:20Z</time></trkpt><trkpt lat="43.13227633003338" lon="11.426540185090754"><ele>248.0</ele><time>2026-04-25T09:38:21Z</time></trkpt><trkpt lat="43.132068052364694" lon="11.426543735127797"><ele>248.33333333333334</ele><time>2026-04-25T09:38:22Z</time></trkpt><trkpt lat="43.131873954368636" lon="11.426556028807408"><ele>248.66666666666669</ele><time>2026-04-25T09:38:23Z</time></trkpt><trkpt lat="43.13170076943981" lon="11.426573075082553"><ele>249.0</ele><time>2026-04-25T09:38:24Z</time></trkpt><trkpt lat="43.13153798928157" lon="11.426571241521266"><ele>249.33333333333331</ele><time>2026-04-25T09:38:25Z</time></trkpt><trkpt lat="43.13137947736017" lon="11.426580174924577"><ele>249.66666666666666</ele><time>2026-04-25T09:38:26Z</time></trkpt><trkpt lat="43.13122381429054" lon="11.426619353425606"><ele>250.0</ele><time>2026-04-25T09:38:27Z</time></trkpt><trkpt lat="43.13108351510699" lon="11.426699456138751"><ele>250.0</ele><time>2026-04-25T09:38:28Z</time></trkpt><trkpt lat="43.130945920397146" lon="11.426813590879636"><ele>250.0</ele><time>2026-04-25T09:38:29Z</time></trkpt><trkpt lat="43.130808371769994" lon="11.426964800598741"><ele>250.0</ele><time>2026-04-25T09:38:30Z</time></trkpt><trkpt lat="43.130663295646784" lon="11.427142485561957"><ele>249.0</ele><time>2026-04-25T09:38:31Z</time></trkpt><trkpt lat="43.13051373013594" lon="11.42732590637594"><ele>248.0</ele><time>2026-04-25T09:38:32Z</time></trkpt><trkpt lat="43.13035299717844" lon="11.427518657232747"><ele>247.0</ele><time>2026-04-25T09:38:33Z</time></trkpt><trkpt lat="43.13018829083502" lon="11.427721700378711"><ele>247.0</ele><time>2026-04-25T09:38:34Z</time></trkpt><trkpt lat="43.13002943820551" lon="11.42791946870071"><ele>247.0</ele><time>2026-04-25T09:38:35Z</time></trkpt><trkpt lat="43.12987846525805" lon="11.428095246881954"><ele>247.0</ele><time>2026-04-25T09:38:36Z</time></trkpt><trkpt lat="43.12973594226234" lon="11.428269407981126"><ele>247.0</ele><time>2026-04-25T09:38:37Z</time></trkpt><trkpt lat="43.12960618544159" lon="11.428467332076396"><ele>247.0</ele><time>2026-04-25T09:38:38Z</time></trkpt><trkpt lat="43.129492774454505" lon="11.428693492716839"><ele>247.0</ele><time>2026-04-25T09:38:39Z</time></trkpt><trkpt lat="43.129398387339656" lon="11.428950163269668"><ele>247.0</ele><time>2026-04-25T09:38:40Z</time></trkpt><trkpt lat="43.12931994944517" lon="11.429233251829583"><ele>247.0</ele><time>2026-04-25T09:38:41Z</time></trkpt><trkpt lat="43.12923930795576" lon="11.429522397996987"><ele>247.0</ele><time>2026-04-25T09:38:42Z</time></trkpt><trkpt lat="43.12914732081178" lon="11.429804661429378"><ele>247.0</ele><time>2026-04-25T09:38:43Z</time></trkpt><trkpt lat="43.12905807954" lon="11.430090219262254"><ele>247.0</ele><time>2026-04-25T09:38:44Z</time></trkpt><trkpt lat="43.128965893980876" lon="11.430371033166663"><ele>250.33333333333331</ele><time>2026-04-25T09:38:45Z</time></trkpt><trkpt lat="43.128865952335325" lon="11.430637360473058"><ele>253.66666666666669</ele><time>2026-04-25T09:38:46Z</time></trkpt><trkpt lat="43.12884123413419" lon="11.430939035547722"><ele>257.0</ele><time>2026-04-25T09:38:47Z</time></trkpt><trkpt lat="43.128776188960636" lon="11.431195819011196"><ele>258.33333333333337</ele><time>2026-04-25T09:38:48Z</time></trkpt><trkpt lat="43.12872096370865" lon="11.431458525346759"><ele>259.6666666666667</ele><time>2026-04-25T09:38:49Z</time></trkpt><trkpt lat="43.128667625584235" lon="11.431713369345037"><ele>261.0</ele><time>2026-04-25T09:38:50Z</time></trkpt><trkpt lat="43.128616886752475" lon="11.43194252338489"><ele>261.0</ele><time>2026-04-25T09:38:51Z</time></trkpt><trkpt lat="43.128573297898576" lon="11.432159748529987"><ele>261.0</ele><time>2026-04-25T09:38:52Z</time></trkpt><trkpt lat="43.128552293399046" lon="11.43238431659464"><ele>261.0</ele><time>2026-04-25T09:38:53Z</time></trkpt><trkpt lat="43.12856231518394" lon="11.432629130501336"><ele>261.0</ele><time>2026-04-25T09:38:54Z</time></trkpt><trkpt lat="43.128603509307986" lon="11.432890004734203"><ele>261.0</ele><time>2026-04-25T09:38:55Z</time></trkpt><trkpt lat="43.128637946513685" lon="11.433158708255899"><ele>261.0</ele><time>2026-04-25T09:38:56Z</time></trkpt><trkpt lat="43.12866258223914" lon="11.433426351949345"><ele>261.0</ele><time>2026-04-25T09:38:57Z</time></trkpt><trkpt lat="43.128693030763" lon="11.433678979041682"><ele>261.0</ele><time>2026-04-25T09:38:58Z</time></trkpt><trkpt lat="43.12873959200007" lon="11.43390251014111"><ele>261.0</ele><time>2026-04-25T09:38:59Z</time></trkpt><trkpt lat="43.128808746268675" lon="11.434121252648932"><ele>261.0</ele><time>2026-04-25T09:39:00Z</time></trkpt><trkpt lat="43.12890361297079" lon="11.434328357910932"><ele>261.0</ele><time>2026-04-25T09:39:01Z</time></trkpt><trkpt lat="43.12900559678065" lon="11.434506610727322"><ele>261.0</ele><time>2026-04-25T09:39:02Z</time></trkpt><trkpt lat="43.12910231563252" lon="11.43467138365529"><ele>259.0</ele><time>2026-04-25T09:39:03Z</time></trkpt><trkpt lat="43.129194400944" lon="11.43483955593423"><ele>257.0</ele><time>2026-04-25T09:39:04Z</time></trkpt><trkpt lat="43.12929133644507" lon="11.435003996709224"><ele>255.0</ele><time>2026-04-25T09:39:05Z</time></trkpt><trkpt lat="43.129387044326855" lon="11.435168601547446"><ele>255.0</ele><time>2026-04-25T09:39:06Z</time></trkpt><trkpt lat="43.12946090371776" lon="11.435341666248647"><ele>255.0</ele><time>2026-04-25T09:39:07Z</time></trkpt><trkpt lat="43.12954265495022" lon="11.4354929039394"><ele>255.0</ele><time>2026-04-25T09:39:08Z</time></trkpt><trkpt lat="43.1296165163246" lon="11.435630643663147"><ele>255.0</ele><time>2026-04-25T09:39:09Z</time></trkpt><trkpt lat="43.12969731675779" lon="11.43579014973436"><ele>253.66666666666669</ele><time>2026-04-25T09:39:10Z</time></trkpt><trkpt lat="43.129776817757495" lon="11.435971728220952"><ele>252.33333333333334</ele><time>2026-04-25T09:39:11Z</time></trkpt><trkpt lat="43.129843815348984" lon="11.436173113910915"><ele>251.0</ele><time>2026-04-25T09:39:12Z</time></trkpt><trkpt lat="43.129908271669635" lon="11.436399944651471"><ele>250.0</ele><time>2026-04-25T09:39:13Z</time></trkpt><trkpt lat="43.129939584591746" lon="11.43664697409785"><ele>249.0</ele><time>2026-04-25T09:39:14Z</time></trkpt><trkpt lat="43.129960742434115" lon="11.436906790381391"><ele>248.0</ele><time>2026-04-25T09:39:15Z</time></trkpt><trkpt lat="43.12996960815889" lon="11.437182810468974"><ele>247.66666666666669</ele><time>2026-04-25T09:39:16Z</time></trkpt><trkpt lat="43.129973081894306" lon="11.437475442491714"><ele>247.33333333333331</ele><time>2026-04-25T09:39:17Z</time></trkpt><trkpt lat="43.129982894643845" lon="11.43778079455687"><ele>247.0</ele><time>2026-04-25T09:39:18Z</time></trkpt><trkpt lat="43.129981576114254" lon="11.438098638151466"><ele>247.0</ele><time>2026-04-25T09:39:19Z</time></trkpt><trkpt lat="43.129992757117634" lon="11.438415386984182"><ele>247.0</ele><time>2026-04-25T09:39:20Z</time></trkpt><trkpt lat="43.13001816078539" lon="11.438721090491217"><ele>247.66666666666666</ele><time>2026-04-25T09:39:21Z</time></trkpt><trkpt lat="43.13002706096932" lon="11.439018274606"><ele>248.33333333333331</ele><time>2026-04-25T09:39:22Z</time></trkpt><trkpt lat="43.130038347075946" lon="11.439299592584613"><ele>249.0</ele><time>2026-04-25T09:39:23Z</time></trkpt><trkpt lat="43.130053584243015" lon="11.439567621435858"><ele>250.0</ele><time>2026-04-25T09:39:24Z</time></trkpt><trkpt lat="43.13007263599884" lon="11.439834237011866"><ele>251.0</ele><time>2026-04-25T09:39:25Z</time></trkpt><trkpt lat="43.13009063636894" lon="11.44011055392982"><ele>252.0</ele><time>2026-04-25T09:39:26Z</time></trkpt><trkpt lat="43.13010112471184" lon="11.440393586423141"><ele>253.0</ele><time>2026-04-25T09:39:27Z</time></trkpt><trkpt lat="43.130112695441596" lon="11.440670291201343"><ele>254.0</ele><time>2026-04-25T09:39:28Z</time></trkpt><trkpt lat="43.130126047195326" lon="11.440930060991455"><ele>255.0</ele><time>2026-04-25T09:39:29Z</time></trkpt><trkpt lat="43.13013663617035" lon="11.44116700133853"><ele>254.0</ele><time>2026-04-25T09:39:30Z</time></trkpt><trkpt lat="43.130140543580666" lon="11.441381924829193"><ele>253.0</ele><time>2026-04-25T09:39:31Z</time></trkpt><trkpt lat="43.130130385490446" lon="11.441593040440782"><ele>252.0</ele><time>2026-04-25T09:39:32Z</time></trkpt><trkpt lat="43.13009887899822" lon="11.441793019862551"><ele>252.0</ele><time>2026-04-25T09:39:33Z</time></trkpt><trkpt lat="43.13003735667949" lon="11.441996858996736"><ele>252.0</ele><time>2026-04-25T09:39:34Z</time></trkpt><trkpt lat="43.1299267540264" lon="11.44217958426386"><ele>252.0</ele><time>2026-04-25T09:39:35Z</time></trkpt><trkpt lat="43.12980122555411" lon="11.442360395138506"><ele>251.33333333333331</ele><time>2026-04-25T09:39:36Z</time></trkpt><trkpt lat="43.12966075921351" lon="11.442542650287473"><ele>250.66666666666666</ele><time>2026-04-25T09:39:37Z</time></trkpt><trkpt lat="43.12952433790203" lon="11.442742010770324"><ele>250.0</ele><time>2026-04-25T09:39:38Z</time></trkpt><trkpt lat="43.129370652550385" lon="11.442927704069367"><ele>250.0</ele><time>2026-04-25T09:39:39Z</time></trkpt><trkpt lat="43.129216988857934" lon="11.443121924291853"><ele>250.0</ele><time>2026-04-25T09:39:40Z</time></trkpt><trkpt lat="43.12906606588297" lon="11.44330796539545"><ele>250.0</ele><time>2026-04-25T09:39:41Z</time></trkpt><trkpt lat="43.12891364133951" lon="11.443488901005578"><ele>250.0</ele><time>2026-04-25T09:39:42Z</time></trkpt><trkpt lat="43.12875536586952" lon="11.443650521666342"><ele>250.0</ele><time>2026-04-25T09:39:43Z</time></trkpt><trkpt lat="43.128594992039105" lon="11.443818412205477"><ele>250.0</ele><time>2026-04-25T09:39:44Z</time></trkpt><trkpt lat="43.128429021405914" lon="11.443984795990447"><ele>248.0</ele><time>2026-04-25T09:39:45Z</time></trkpt><trkpt lat="43.128062771645915" lon="11.444318068212098"><ele>246.0</ele><time>2026-04-25T09:39:47Z</time></trkpt><trkpt lat="43.12788187061496" lon="11.444481875711103"><ele>245.0</ele><time>2026-04-25T09:39:48Z</time></trkpt><trkpt lat="43.12771422841847" lon="11.444647659844062"><ele>244.0</ele><time>2026-04-25T09:39:49Z</time></trkpt><trkpt lat="43.12755413546985" lon="11.444808715668268"><ele>243.0</ele><time>2026-04-25T09:39:50Z</time></trkpt><trkpt lat="43.12740096926129" lon="11.44495309377445"><ele>243.0</ele><time>2026-04-25T09:39:51Z</time></trkpt><trkpt lat="43.12725591938334" lon="11.445099220531214"><ele>243.0</ele><time>2026-04-25T09:39:52Z</time></trkpt><trkpt lat="43.127128881266835" lon="11.44527247510934"><ele>243.0</ele><time>2026-04-25T09:39:53Z</time></trkpt><trkpt lat="43.127036147447114" lon="11.44548779592708"><ele>242.66666666666669</ele><time>2026-04-25T09:39:54Z</time></trkpt><trkpt lat="43.1269740297924" lon="11.445726106011705"><ele>242.33333333333334</ele><time>2026-04-25T09:39:55Z</time></trkpt><trkpt lat="43.12693530762887" lon="11.445957867369579"><ele>242.0</ele><time>2026-04-25T09:39:56Z</time></trkpt><trkpt lat="43.12689457487557" lon="11.44616660401817"><ele>240.33333333333334</ele><time>2026-04-25T09:39:57Z</time></trkpt><trkpt lat="43.12680869310225" lon="11.446328442022654"><ele>238.66666666666669</ele><time>2026-04-25T09:39:58Z</time></trkpt><trkpt lat="43.12671973044982" lon="11.446510757417787"><ele>237.0</ele><time>2026-04-25T09:39:59Z</time></trkpt><trkpt lat="43.126584448476954" lon="11.446670724656373"><ele>236.33333333333331</ele><time>2026-04-25T09:40:00Z</time></trkpt><trkpt lat="43.12642927975872" lon="11.446828095114645"><ele>235.66666666666666</ele><time>2026-04-25T09:40:01Z</time></trkpt><trkpt lat="43.1262657444748" lon="11.446999456894387"><ele>235.0</ele><time>2026-04-25T09:40:02Z</time></trkpt><trkpt lat="43.12610283573603" lon="11.447178985117992"><ele>235.0</ele><time>2026-04-25T09:40:03Z</time></trkpt><trkpt lat="43.12594092814199" lon="11.447356141374641"><ele>235.0</ele><time>2026-04-25T09:40:04Z</time></trkpt><trkpt lat="43.125781215651706" lon="11.447529255089675"><ele>235.0</ele><time>2026-04-25T09:40:05Z</time></trkpt><trkpt lat="43.125621960765095" lon="11.447697550815649"><ele>234.66666666666666</ele><time>2026-04-25T09:40:06Z</time></trkpt><trkpt lat="43.12546890505366" lon="11.447859446226659"><ele>234.33333333333331</ele><time>2026-04-25T09:40:07Z</time></trkpt><trkpt lat="43.12532631325109" lon="11.448010088095371"><ele>234.0</ele><time>2026-04-25T09:40:08Z</time></trkpt><trkpt lat="43.12519412450173" lon="11.448151437825462"><ele>235.25</ele><time>2026-04-25T09:40:09Z</time></trkpt><trkpt lat="43.12507282933996" lon="11.448276758883864"><ele>236.5</ele><time>2026-04-25T09:40:10Z</time></trkpt><trkpt lat="43.124962821249184" lon="11.448395865062771"><ele>237.75</ele><time>2026-04-25T09:40:11Z</time></trkpt><trkpt lat="43.12486603329038" lon="11.448502283833792"><ele>239.0</ele><time>2026-04-25T09:40:12Z</time></trkpt><trkpt lat="43.12478511811731" lon="11.448593472456091"><ele>239.2</ele><time>2026-04-25T09:40:13Z</time></trkpt><trkpt lat="43.12472056607008" lon="11.448662280194858"><ele>239.39999999999998</ele><time>2026-04-25T09:40:14Z</time></trkpt><trkpt lat="43.12465193573348" lon="11.448729061164434"><ele>239.6</ele><time>2026-04-25T09:40:16Z</time></trkpt><trkpt lat="43.124556242580944" lon="11.448845217555313"><ele>239.8</ele><time>2026-04-25T09:40:18Z</time></trkpt><trkpt lat="43.124485635351014" lon="11.448937010004821"><ele>240.0</ele><time>2026-04-25T09:40:19Z</time></trkpt><trkpt lat="43.124421240488694" lon="11.449040362026818"><ele>239.25</ele><time>2026-04-25T09:40:20Z</time></trkpt><trkpt lat="43.124350248238606" lon="11.44914169923747"><ele>238.5</ele><time>2026-04-25T09:40:21Z</time></trkpt><trkpt lat="43.124256154841135" lon="11.449222666346227"><ele>237.75</ele><time>2026-04-25T09:40:22Z</time></trkpt><trkpt lat="43.1241421981599" lon="11.449261721363712"><ele>237.0</ele><time>2026-04-25T09:40:23Z</time></trkpt><trkpt lat="43.12401541205937" lon="11.449251719608604"><ele>236.25</ele><time>2026-04-25T09:40:24Z</time></trkpt><trkpt lat="43.123881346125785" lon="11.449211159945945"><ele>235.5</ele><time>2026-04-25T09:40:25Z</time></trkpt><trkpt lat="43.12374088538692" lon="11.44915027453871"><ele>234.75</ele><time>2026-04-25T09:40:26Z</time></trkpt><trkpt lat="43.12358513457191" lon="11.449092503439696"><ele>234.0</ele><time>2026-04-25T09:40:27Z</time></trkpt><trkpt lat="43.12341885731589" lon="11.449033507242307"><ele>234.0</ele><time>2026-04-25T09:40:28Z</time></trkpt><trkpt lat="43.12324309743786" lon="11.448979583875872"><ele>234.0</ele><time>2026-04-25T09:40:29Z</time></trkpt><trkpt lat="43.12306562856628" lon="11.448923932469768"><ele>234.0</ele><time>2026-04-25T09:40:30Z</time></trkpt><trkpt lat="43.12289024550664" lon="11.448864625976162"><ele>233.0</ele><time>2026-04-25T09:40:31Z</time></trkpt><trkpt lat="43.12272272674818" lon="11.448808677857835"><ele>232.0</ele><time>2026-04-25T09:40:32Z</time></trkpt><trkpt lat="43.12256535231759" lon="11.448749419044171"><ele>231.0</ele><time>2026-04-25T09:40:33Z</time></trkpt><trkpt lat="43.12239990493518" lon="11.448692839107945"><ele>228.66666666666669</ele><time>2026-04-25T09:40:34Z</time></trkpt><trkpt lat="43.12222499446093" lon="11.448635216574528"><ele>226.33333333333334</ele><time>2026-04-25T09:40:35Z</time></trkpt><trkpt lat="43.12204795697291" lon="11.448567262209213"><ele>224.0</ele><time>2026-04-25T09:40:36Z</time></trkpt><trkpt lat="43.12188149798864" lon="11.44850562933658"><ele>224.0</ele><time>2026-04-25T09:40:37Z</time></trkpt><trkpt lat="43.12172856069426" lon="11.44844870697152"><ele>224.0</ele><time>2026-04-25T09:40:38Z</time></trkpt><trkpt lat="43.121598155172464" lon="11.448393463656512"><ele>224.0</ele><time>2026-04-25T09:40:39Z</time></trkpt><trkpt lat="43.12149273130542" lon="11.448325721166691"><ele>224.0</ele><time>2026-04-25T09:40:40Z</time></trkpt><trkpt lat="43.12140143961251" lon="11.448226159102882"><ele>221.66666666666669</ele><time>2026-04-25T09:40:41Z</time></trkpt><trkpt lat="43.12133467614175" lon="11.448061192688787"><ele>219.33333333333331</ele><time>2026-04-25T09:40:42Z</time></trkpt><trkpt lat="43.12124891180798" lon="11.4478801963556"><ele>217.0</ele><time>2026-04-25T09:40:43Z</time></trkpt><trkpt lat="43.12118120730371" lon="11.44766738000459"><ele>217.0</ele><time>2026-04-25T09:40:44Z</time></trkpt><trkpt lat="43.1211119571455" lon="11.447444341785907"><ele>217.0</ele><time>2026-04-25T09:40:45Z</time></trkpt><trkpt lat="43.121042675172035" lon="11.447216129400472"><ele>217.0</ele><time>2026-04-25T09:40:46Z</time></trkpt><trkpt lat="43.120977658464085" lon="11.446991854903901"><ele>215.66666666666666</ele><time>2026-04-25T09:40:47Z</time></trkpt><trkpt lat="43.12091031495726" lon="11.446779784719801"><ele>214.33333333333331</ele><time>2026-04-25T09:40:48Z</time></trkpt><trkpt lat="43.12084407896763" lon="11.446578600803617"><ele>213.0</ele><time>2026-04-25T09:40:49Z</time></trkpt><trkpt lat="43.12078807234855" lon="11.446394959539226"><ele>212.5</ele><time>2026-04-25T09:40:50Z</time></trkpt><trkpt lat="43.12073973129578" lon="11.44623313102323"><ele>212.0</ele><time>2026-04-25T09:40:51Z</time></trkpt><trkpt lat="43.12070077184097" lon="11.44608426826791"><ele>211.5</ele><time>2026-04-25T09:40:52Z</time></trkpt><trkpt lat="43.12068497933389" lon="11.445928795509461"><ele>211.0</ele><time>2026-04-25T09:40:53Z</time></trkpt><trkpt lat="43.1207034142209" lon="11.445763185266248"><ele>211.0</ele><time>2026-04-25T09:40:54Z</time></trkpt><trkpt lat="43.12075821700431" lon="11.445587664949638"><ele>211.0</ele><time>2026-04-25T09:40:55Z</time></trkpt><trkpt lat="43.1208195103295" lon="11.445416750690665"><ele>211.0</ele><time>2026-04-25T09:40:56Z</time></trkpt><trkpt lat="43.12088220838485" lon="11.44529064806039"><ele>211.0</ele><time>2026-04-25T09:40:57Z</time></trkpt><trkpt lat="43.12091530732742" lon="11.445113787278201"><ele>211.0</ele><time>2026-04-25T09:40:58Z</time></trkpt><trkpt lat="43.12091596698776" lon="11.444950731715265"><ele>211.0</ele><time>2026-04-25T09:40:59Z</time></trkpt><trkpt lat="43.120887175231566" lon="11.444786378133868"><ele>211.0</ele><time>2026-04-25T09:41:00Z</time></trkpt><trkpt lat="43.12082082111019" lon="11.444635985939003"><ele>211.0</ele><time>2026-04-25T09:41:01Z</time></trkpt><trkpt lat="43.12072669241066" lon="11.44454300278243"><ele>209.25</ele><time>2026-04-25T09:41:02Z</time></trkpt><trkpt lat="43.120614181022084" lon="11.444462178405523"><ele>207.5</ele><time>2026-04-25T09:41:03Z</time></trkpt><trkpt lat="43.12048897169359" lon="11.44438405930248"><ele>205.75</ele><time>2026-04-25T09:41:04Z</time></trkpt><trkpt lat="43.120349804260314" lon="11.444292667209545"><ele>204.0</ele><time>2026-04-25T09:41:05Z</time></trkpt><trkpt lat="43.12020252407805" lon="11.444191812442396"><ele>204.0</ele><time>2026-04-25T09:41:06Z</time></trkpt><trkpt lat="43.12004426486505" lon="11.44408285478871"><ele>204.0</ele><time>2026-04-25T09:41:07Z</time></trkpt><trkpt lat="43.11988856724145" lon="11.443974393001398"><ele>204.0</ele><time>2026-04-25T09:41:08Z</time></trkpt><trkpt lat="43.11972262952853" lon="11.443856423063833"><ele>199.66666666666666</ele><time>2026-04-25T09:41:09Z</time></trkpt><trkpt lat="43.11955506684416" lon="11.443747232498033"><ele>195.33333333333331</ele><time>2026-04-25T09:41:10Z</time></trkpt><trkpt lat="43.1193944358526" lon="11.443639449060706"><ele>191.0</ele><time>2026-04-25T09:41:11Z</time></trkpt><trkpt lat="43.1192414842557" lon="11.443529603311752"><ele>191.0</ele><time>2026-04-25T09:41:12Z</time></trkpt><trkpt lat="43.11910983411427" lon="11.443412283452009"><ele>191.0</ele><time>2026-04-25T09:41:13Z</time></trkpt><trkpt lat="43.118994127233876" lon="11.443303558861176"><ele>191.0</ele><time>2026-04-25T09:41:14Z</time></trkpt><trkpt lat="43.118876074929595" lon="11.443189721565183"><ele>191.0</ele><time>2026-04-25T09:41:15Z</time></trkpt><trkpt lat="43.11877668561901" lon="11.443039046907195"><ele>187.25</ele><time>2026-04-25T09:41:16Z</time></trkpt><trkpt lat="43.11868432790639" lon="11.442901420334923"><ele>183.5</ele><time>2026-04-25T09:41:17Z</time></trkpt><trkpt lat="43.11859163460121" lon="11.442797274010571"><ele>179.75</ele><time>2026-04-25T09:41:18Z</time></trkpt><trkpt lat="43.11850780350423" lon="11.442713665056418"><ele>176.0</ele><time>2026-04-25T09:41:19Z</time></trkpt><trkpt lat="43.1184118292019" lon="11.44263006105214"><ele>176.0</ele><time>2026-04-25T09:41:20Z</time></trkpt><trkpt lat="43.118304817935424" lon="11.442532216810243"><ele>176.0</ele><time>2026-04-25T09:41:21Z</time></trkpt><trkpt lat="43.118190522566344" lon="11.44243792372344"><ele>176.0</ele><time>2026-04-25T09:41:22Z</time></trkpt><trkpt lat="43.118071433830735" lon="11.442347795830926"><ele>176.0</ele><time>2026-04-25T09:41:23Z</time></trkpt><trkpt lat="43.11795785198243" lon="11.44226157803634"><ele>176.0</ele><time>2026-04-25T09:41:24Z</time></trkpt><trkpt lat="43.117851929168594" lon="11.442177443662857"><ele>176.0</ele><time>2026-04-25T09:41:25Z</time></trkpt><trkpt lat="43.11775970791541" lon="11.442100950806678"><ele>176.0</ele><time>2026-04-25T09:41:26Z</time></trkpt><trkpt lat="43.11767477267691" lon="11.442023943403242"><ele>176.0</ele><time>2026-04-25T09:41:27Z</time></trkpt><trkpt lat="43.11758722787087" lon="11.441979592308435"><ele>176.0</ele><time>2026-04-25T09:41:28Z</time></trkpt><trkpt lat="43.11749471117181" lon="11.441950593053232"><ele>171.5</ele><time>2026-04-25T09:41:29Z</time></trkpt><trkpt lat="43.11739402311896" lon="11.441950656428126"><ele>167.0</ele><time>2026-04-25T09:41:30Z</time></trkpt><trkpt lat="43.117281324848555" lon="11.44198650848563"><ele>162.5</ele><time>2026-04-25T09:41:31Z</time></trkpt><trkpt lat="43.11716608575673" lon="11.442053634858471"><ele>158.0</ele><time>2026-04-25T09:41:32Z</time></trkpt><trkpt lat="43.11704178350614" lon="11.44211474270174"><ele>160.0</ele><time>2026-04-25T09:41:33Z</time></trkpt><trkpt lat="43.116926686041154" lon="11.44218049128108"><ele>162.0</ele><time>2026-04-25T09:41:34Z</time></trkpt><trkpt lat="43.116832835962505" lon="11.442251724649944"><ele>164.0</ele><time>2026-04-25T09:41:35Z</time></trkpt><trkpt lat="43.11673668817051" lon="11.44226962170207"><ele>166.0</ele><time>2026-04-25T09:41:36Z</time></trkpt><trkpt lat="43.11665713624923" lon="11.442264498513481"><ele>168.0</ele><time>2026-04-25T09:41:37Z</time></trkpt><trkpt lat="43.1165776216581" lon="11.44223521667806"><ele>168.0</ele><time>2026-04-25T09:41:38Z</time></trkpt><trkpt lat="43.11649368834446" lon="11.442183268623532"><ele>168.0</ele><time>2026-04-25T09:41:39Z</time></trkpt><trkpt lat="43.11641465785845" lon="11.442074002461522"><ele>168.0</ele><time>2026-04-25T09:41:40Z</time></trkpt><trkpt lat="43.11632641316959" lon="11.441938426769655"><ele>168.0</ele><time>2026-04-25T09:41:41Z</time></trkpt><trkpt lat="43.11622625529358" lon="11.441805879273351"><ele>165.75</ele><time>2026-04-25T09:41:42Z</time></trkpt><trkpt lat="43.116118480458" lon="11.441684011225494"><ele>163.5</ele><time>2026-04-25T09:41:43Z</time></trkpt><trkpt lat="43.11601034232606" lon="11.441573360323213"><ele>161.25</ele><time>2026-04-25T09:41:44Z</time></trkpt><trkpt lat="43.11590949188492" lon="11.441471049058354"><ele>159.0</ele><time>2026-04-25T09:41:45Z</time></trkpt><trkpt lat="43.1158162103852" lon="11.441372326271075"><ele>156.6</ele><time>2026-04-25T09:41:46Z</time></trkpt><trkpt lat="43.11573457974505" lon="11.441265421074052"><ele>154.2</ele><time>2026-04-25T09:41:47Z</time></trkpt><trkpt lat="43.115636338895904" lon="11.441216790008175"><ele>151.79999999999998</ele><time>2026-04-25T09:41:48Z</time></trkpt><trkpt lat="43.115530134229836" lon="11.441197275133792"><ele>149.4</ele><time>2026-04-25T09:41:49Z</time></trkpt><trkpt lat="43.115412288592594" lon="11.441209305323998"><ele>147.0</ele><time>2026-04-25T09:41:50Z</time></trkpt><trkpt lat="43.11527441577848" lon="11.441242744130113"><ele>147.0</ele><time>2026-04-25T09:41:51Z</time></trkpt><trkpt lat="43.11512480791744" lon="11.44128055342483"><ele>147.0</ele><time>2026-04-25T09:41:52Z</time></trkpt><trkpt lat="43.11495835341724" lon="11.441311417009455"><ele>147.0</ele><time>2026-04-25T09:41:53Z</time></trkpt><trkpt lat="43.114789121315205" lon="11.441322802495938"><ele>145.0</ele><time>2026-04-25T09:41:54Z</time></trkpt><trkpt lat="43.11461551026506" lon="11.441332236830174"><ele>143.0</ele><time>2026-04-25T09:41:55Z</time></trkpt><trkpt lat="43.114433412410776" lon="11.441348116021073"><ele>141.0</ele><time>2026-04-25T09:41:56Z</time></trkpt><trkpt lat="43.11424755857375" lon="11.441362915333196"><ele>140.0</ele><time>2026-04-25T09:41:57Z</time></trkpt><trkpt lat="43.11406085931543" lon="11.441377586084643"><ele>139.0</ele><time>2026-04-25T09:41:58Z</time></trkpt><trkpt lat="43.11388045654704" lon="11.441392367117027"><ele>138.0</ele><time>2026-04-25T09:41:59Z</time></trkpt><trkpt lat="43.11369848969065" lon="11.441408573729513"><ele>138.0</ele><time>2026-04-25T09:42:00Z</time></trkpt><trkpt lat="43.11351471307289" lon="11.441426823970838"><ele>138.0</ele><time>2026-04-25T09:42:01Z</time></trkpt><trkpt lat="43.11333171213025" lon="11.441445840850836"><ele>138.0</ele><time>2026-04-25T09:42:02Z</time></trkpt><trkpt lat="43.11315483462657" lon="11.441464165193429"><ele>137.66666666666666</ele><time>2026-04-25T09:42:03Z</time></trkpt><trkpt lat="43.112980304446666" lon="11.441483931021573"><ele>137.33333333333331</ele><time>2026-04-25T09:42:04Z</time></trkpt><trkpt lat="43.112809334717134" lon="11.441500198977787"><ele>137.0</ele><time>2026-04-25T09:42:05Z</time></trkpt><trkpt lat="43.11264181864934" lon="11.441513857227632"><ele>137.0</ele><time>2026-04-25T09:42:06Z</time></trkpt><trkpt lat="43.11247308629772" lon="11.441515741703547"><ele>137.0</ele><time>2026-04-25T09:42:07Z</time></trkpt><trkpt lat="43.11230324327385" lon="11.441543997559265"><ele>137.0</ele><time>2026-04-25T09:42:08Z</time></trkpt><trkpt lat="43.11213902794168" lon="11.44156004334084"><ele>136.66666666666666</ele><time>2026-04-25T09:42:09Z</time></trkpt><trkpt lat="43.11197540349306" lon="11.441575175362775"><ele>136.33333333333334</ele><time>2026-04-25T09:42:10Z</time></trkpt><trkpt lat="43.1118249005457" lon="11.441591251313644"><ele>136.0</ele><time>2026-04-25T09:42:11Z</time></trkpt><trkpt lat="43.11168703621178" lon="11.44160204378438"><ele>135.8</ele><time>2026-04-25T09:42:12Z</time></trkpt><trkpt lat="43.11156797288147" lon="11.441610247134356"><ele>135.6</ele><time>2026-04-25T09:42:13Z</time></trkpt><trkpt lat="43.11146335263225" lon="11.4416206787567"><ele>135.4</ele><time>2026-04-25T09:42:14Z</time></trkpt><trkpt lat="43.11137352829297" lon="11.44163758073593"><ele>135.2</ele><time>2026-04-25T09:42:15Z</time></trkpt><trkpt lat="43.111275645103504" lon="11.441646373617877"><ele>135.0</ele><time>2026-04-25T09:42:16Z</time></trkpt><trkpt lat="43.111173461232035" lon="11.441664137394447"><ele>135.0</ele><time>2026-04-25T09:42:17Z</time></trkpt><trkpt lat="43.11104604998712" lon="11.441705797902099"><ele>135.0</ele><time>2026-04-25T09:42:18Z</time></trkpt><trkpt lat="43.11089597776745" lon="11.441722411775594"><ele>135.0</ele><time>2026-04-25T09:42:19Z</time></trkpt><trkpt lat="43.110736333715074" lon="11.441731436634202"><ele>135.0</ele><time>2026-04-25T09:42:20Z</time></trkpt><trkpt lat="43.11057471567965" lon="11.441732772852808"><ele>134.33333333333334</ele><time>2026-04-25T09:42:21Z</time></trkpt><trkpt lat="43.1104143083858" lon="11.441728962639234"><ele>133.66666666666669</ele><time>2026-04-25T09:42:22Z</time></trkpt><trkpt lat="43.11024652599432" lon="11.441736815527989"><ele>133.0</ele><time>2026-04-25T09:42:23Z</time></trkpt><trkpt lat="43.1100874359589" lon="11.441771584107924"><ele>133.0</ele><time>2026-04-25T09:42:24Z</time></trkpt><trkpt lat="43.10992121578322" lon="11.441825578599174"><ele>133.0</ele><time>2026-04-25T09:42:25Z</time></trkpt><trkpt lat="43.109746189870954" lon="11.441896321122313"><ele>133.0</ele><time>2026-04-25T09:42:26Z</time></trkpt><trkpt lat="43.10956754042064" lon="11.441991573028957"><ele>133.0</ele><time>2026-04-25T09:42:27Z</time></trkpt><trkpt lat="43.1093793988907" lon="11.442080945139367"><ele>133.0</ele><time>2026-04-25T09:42:28Z</time></trkpt><trkpt lat="43.10918160565156" lon="11.442124329814275"><ele>133.0</ele><time>2026-04-25T09:42:29Z</time></trkpt><trkpt lat="43.10898590165062" lon="11.442199400543556"><ele>133.0</ele><time>2026-04-25T09:42:30Z</time></trkpt><trkpt lat="43.1087927607257" lon="11.442243654667992"><ele>133.0</ele><time>2026-04-25T09:42:31Z</time></trkpt><trkpt lat="43.108602110821224" lon="11.442279997396525"><ele>133.0</ele><time>2026-04-25T09:42:32Z</time></trkpt><trkpt lat="43.10842282775072" lon="11.44231136606168"><ele>133.0</ele><time>2026-04-25T09:42:33Z</time></trkpt><trkpt lat="43.10825850442694" lon="11.442344913109114"><ele>133.0</ele><time>2026-04-25T09:42:34Z</time></trkpt><trkpt lat="43.10810817484765" lon="11.442378743550455"><ele>133.0</ele><time>2026-04-25T09:42:35Z</time></trkpt><trkpt lat="43.107964289350654" lon="11.442408991729234"><ele>133.20000000000002</ele><time>2026-04-25T09:42:36Z</time></trkpt><trkpt lat="43.107841334017465" lon="11.442434848450599"><ele>133.4</ele><time>2026-04-25T09:42:37Z</time></trkpt><trkpt lat="43.10772998198619" lon="11.442456111611584"><ele>133.60000000000002</ele><time>2026-04-25T09:42:38Z</time></trkpt><trkpt lat="43.10763300731411" lon="11.442464939296336"><ele>133.8</ele><time>2026-04-25T09:42:39Z</time></trkpt><trkpt lat="43.107535746786574" lon="11.4424512351937"><ele>134.0</ele><time>2026-04-25T09:42:40Z</time></trkpt><trkpt lat="43.10744424001953" lon="11.442410918509784"><ele>133.5</ele><time>2026-04-25T09:42:41Z</time></trkpt><trkpt lat="43.107375968561065" lon="11.442320643946507"><ele>133.0</ele><time>2026-04-25T09:42:42Z</time></trkpt><trkpt lat="43.107309258131544" lon="11.442246148547767"><ele>132.5</ele><time>2026-04-25T09:42:43Z</time></trkpt><trkpt lat="43.10726383340708" lon="11.442160443320407"><ele>132.0</ele><time>2026-04-25T09:42:44Z</time></trkpt><trkpt lat="43.107208414555465" lon="11.442078357148022"><ele>131.5</ele><time>2026-04-25T09:42:45Z</time></trkpt><trkpt lat="43.10713596611389" lon="11.441995735127456"><ele>131.0</ele><time>2026-04-25T09:42:46Z</time></trkpt><trkpt lat="43.107069005132736" lon="11.441885379281581"><ele>131.0</ele><time>2026-04-25T09:42:47Z</time></trkpt><trkpt lat="43.1069966403091" lon="11.441779055055848"><ele>131.0</ele><time>2026-04-25T09:42:48Z</time></trkpt><trkpt lat="43.10692788865827" lon="11.441680247691057"><ele>131.0</ele><time>2026-04-25T09:42:49Z</time></trkpt><trkpt lat="43.1068590130509" lon="11.441587899988336"><ele>131.0</ele><time>2026-04-25T09:42:50Z</time></trkpt><trkpt lat="43.10678384059439" lon="11.441485393371186"><ele>131.0</ele><time>2026-04-25T09:42:51Z</time></trkpt><trkpt lat="43.10670611847827" lon="11.4413742857753"><ele>131.0</ele><time>2026-04-25T09:42:52Z</time></trkpt><trkpt lat="43.106626469930895" lon="11.441263536146327"><ele>131.0</ele><time>2026-04-25T09:42:53Z</time></trkpt><trkpt lat="43.106547884125085" lon="11.441154571628536"><ele>131.0</ele><time>2026-04-25T09:42:54Z</time></trkpt><trkpt lat="43.10647752706191" lon="11.441050727586326"><ele>131.0</ele><time>2026-04-25T09:42:55Z</time></trkpt><trkpt lat="43.106411618770274" lon="11.440950265635875"><ele>131.0</ele><time>2026-04-25T09:42:56Z</time></trkpt><trkpt lat="43.106348726038725" lon="11.440858730287129"><ele>131.0</ele><time>2026-04-25T09:42:57Z</time></trkpt><trkpt lat="43.10628416609369" lon="11.440767327331296"><ele>131.0</ele><time>2026-04-25T09:42:58Z</time></trkpt><trkpt lat="43.106222245362716" lon="11.440683306532224"><ele>131.0</ele><time>2026-04-25T09:42:59Z</time></trkpt><trkpt lat="43.10615577439268" lon="11.440590947045315"><ele>131.0</ele><time>2026-04-25T09:43:00Z</time></trkpt><trkpt lat="43.10607702037137" lon="11.440480998830013"><ele>131.0</ele><time>2026-04-25T09:43:01Z</time></trkpt><trkpt lat="43.105982572025255" lon="11.440349957794643"><ele>131.0</ele><time>2026-04-25T09:43:02Z</time></trkpt><trkpt lat="43.10587896914569" lon="11.440203462867178"><ele>131.0</ele><time>2026-04-25T09:43:03Z</time></trkpt><trkpt lat="43.105772279153655" lon="11.440067518137228"><ele>131.0</ele><time>2026-04-25T09:43:04Z</time></trkpt><trkpt lat="43.105669501329814" lon="11.439937713100166"><ele>131.0</ele><time>2026-04-25T09:43:05Z</time></trkpt><trkpt lat="43.10557500486626" lon="11.439822544264759"><ele>130.75</ele><time>2026-04-25T09:43:06Z</time></trkpt><trkpt lat="43.105483077750776" lon="11.439717466118308"><ele>130.5</ele><time>2026-04-25T09:43:07Z</time></trkpt><trkpt lat="43.10539618705979" lon="11.439610459804332"><ele>130.25</ele><time>2026-04-25T09:43:08Z</time></trkpt><trkpt lat="43.105323408330875" lon="11.439479108304972"><ele>130.0</ele><time>2026-04-25T09:43:09Z</time></trkpt><trkpt lat="43.105241330846326" lon="11.439352827704083"><ele>129.75</ele><time>2026-04-25T09:43:10Z</time></trkpt><trkpt lat="43.10515251000706" lon="11.439228474307793"><ele>129.5</ele><time>2026-04-25T09:43:11Z</time></trkpt><trkpt lat="43.10507640633352" lon="11.439081619717985"><ele>129.25</ele><time>2026-04-25T09:43:12Z</time></trkpt><trkpt lat="43.10499383197785" lon="11.438934517404723"><ele>129.0</ele><time>2026-04-25T09:43:13Z</time></trkpt><trkpt lat="43.10490353711368" lon="11.438793859360295"><ele>129.66666666666666</ele><time>2026-04-25T09:43:14Z</time></trkpt><trkpt lat="43.10480290304855" lon="11.438651604818203"><ele>130.33333333333331</ele><time>2026-04-25T09:43:15Z</time></trkpt><trkpt lat="43.104698628036424" lon="11.438491976821293"><ele>131.0</ele><time>2026-04-25T09:43:16Z</time></trkpt><trkpt lat="43.1045859361441" lon="11.438319949376366"><ele>131.0</ele><time>2026-04-25T09:43:17Z</time></trkpt><trkpt lat="43.104457644355435" lon="11.438153967186276"><ele>131.0</ele><time>2026-04-25T09:43:18Z</time></trkpt><trkpt lat="43.10433439433506" lon="11.437983293145946"><ele>131.0</ele><time>2026-04-25T09:43:19Z</time></trkpt><trkpt lat="43.10421460773255" lon="11.437818824896564"><ele>131.0</ele><time>2026-04-25T09:43:20Z</time></trkpt><trkpt lat="43.10409867875755" lon="11.437660632602462"><ele>131.0</ele><time>2026-04-25T09:43:21Z</time></trkpt><trkpt lat="43.10398325485239" lon="11.437500140819846"><ele>131.0</ele><time>2026-04-25T09:43:22Z</time></trkpt><trkpt lat="43.103867459921915" lon="11.437336878350935"><ele>131.25</ele><time>2026-04-25T09:43:23Z</time></trkpt><trkpt lat="43.103753243838526" lon="11.437179400556172"><ele>131.5</ele><time>2026-04-25T09:43:24Z</time></trkpt><trkpt lat="43.10364757524593" lon="11.43704286238166"><ele>131.75</ele><time>2026-04-25T09:43:25Z</time></trkpt><trkpt lat="43.10355909078565" lon="11.436916589999182"><ele>132.0</ele><time>2026-04-25T09:43:26Z</time></trkpt><trkpt lat="43.10348404527691" lon="11.436812531752915"><ele>132.33333333333334</ele><time>2026-04-25T09:43:27Z</time></trkpt><trkpt lat="43.103420769660175" lon="11.436718897150993"><ele>132.66666666666666</ele><time>2026-04-25T09:43:28Z</time></trkpt><trkpt lat="43.10336376886049" lon="11.436634245513245"><ele>133.0</ele><time>2026-04-25T09:43:29Z</time></trkpt><trkpt lat="43.10330798077463" lon="11.436556077446738"><ele>133.33333333333331</ele><time>2026-04-25T09:43:30Z</time></trkpt><trkpt lat="43.103259670189" lon="11.43647967217153"><ele>133.66666666666666</ele><time>2026-04-25T09:43:31Z</time></trkpt><trkpt lat="43.103215133115064" lon="11.436417481102344"><ele>134.0</ele><time>2026-04-25T09:43:32Z</time></trkpt><trkpt lat="43.103125598484496" lon="11.436281393045236"><ele>134.5</ele><time>2026-04-25T09:43:34Z</time></trkpt><trkpt lat="43.103058692850226" lon="11.436193690082511"><ele>135.0</ele><time>2026-04-25T09:43:35Z</time></trkpt><trkpt lat="43.10298159877843" lon="11.436091766012487"><ele>135.5</ele><time>2026-04-25T09:43:36Z</time></trkpt><trkpt lat="43.10289687304713" lon="11.435976250580763"><ele>136.0</ele><time>2026-04-25T09:43:37Z</time></trkpt><trkpt lat="43.10280230158747" lon="11.435843493927031"><ele>136.0</ele><time>2026-04-25T09:43:38Z</time></trkpt><trkpt lat="43.102691911981466" lon="11.435710060637506"><ele>136.0</ele><time>2026-04-25T09:43:39Z</time></trkpt><trkpt lat="43.10259352047927" lon="11.435554218782016"><ele>136.0</ele><time>2026-04-25T09:43:40Z</time></trkpt><trkpt lat="43.1024889839069" lon="11.43540705533139"><ele>136.0</ele><time>2026-04-25T09:43:41Z</time></trkpt><trkpt lat="43.10239664459156" lon="11.435263795747359"><ele>136.75</ele><time>2026-04-25T09:43:42Z</time></trkpt><trkpt lat="43.1023189141205" lon="11.43512930116181"><ele>137.5</ele><time>2026-04-25T09:43:43Z</time></trkpt><trkpt lat="43.10225574617284" lon="11.434992820542401"><ele>138.25</ele><time>2026-04-25T09:43:44Z</time></trkpt><trkpt lat="43.10221497998083" lon="11.434847712019021"><ele>139.0</ele><time>2026-04-25T09:43:45Z</time></trkpt><trkpt lat="43.10218671750132" lon="11.434701307165174"><ele>140.5</ele><time>2026-04-25T09:43:46Z</time></trkpt><trkpt lat="43.10220861165972" lon="11.434555203455686"><ele>142.0</ele><time>2026-04-25T09:43:47Z</time></trkpt><trkpt lat="43.102219395158095" lon="11.434398639426309"><ele>143.5</ele><time>2026-04-25T09:43:48Z</time></trkpt><trkpt lat="43.10225763059164" lon="11.43423503526021"><ele>145.0</ele><time>2026-04-25T09:43:49Z</time></trkpt><trkpt lat="43.10229232064518" lon="11.434068453752605"><ele>145.0</ele><time>2026-04-25T09:43:50Z</time></trkpt><trkpt lat="43.10232402585768" lon="11.433891560751889"><ele>145.0</ele><time>2026-04-25T09:43:51Z</time></trkpt><trkpt lat="43.10234547279292" lon="11.433707353302017"><ele>145.0</ele><time>2026-04-25T09:43:52Z</time></trkpt><trkpt lat="43.10235659512387" lon="11.4335269958558"><ele>145.0</ele><time>2026-04-25T09:43:53Z</time></trkpt><trkpt lat="43.10235170597318" lon="11.43335633655906"><ele>145.2</ele><time>2026-04-25T09:43:54Z</time></trkpt><trkpt lat="43.102332215386674" lon="11.433197133735398"><ele>145.4</ele><time>2026-04-25T09:43:55Z</time></trkpt><trkpt lat="43.10230183565003" lon="11.433055329949985"><ele>145.6</ele><time>2026-04-25T09:43:56Z</time></trkpt><trkpt lat="43.10226050056157" lon="11.432916949103566"><ele>145.8</ele><time>2026-04-25T09:43:57Z</time></trkpt><trkpt lat="43.10220894972514" lon="11.432791467786426"><ele>146.0</ele><time>2026-04-25T09:43:58Z</time></trkpt><trkpt lat="43.10214839710981" lon="11.432683155935184"><ele>146.0</ele><time>2026-04-25T09:43:59Z</time></trkpt><trkpt lat="43.10208006809481" lon="11.432596271219982"><ele>146.0</ele><time>2026-04-25T09:44:00Z</time></trkpt><trkpt lat="43.102001403440944" lon="11.432537693214659"><ele>146.0</ele><time>2026-04-25T09:44:01Z</time></trkpt><trkpt lat="43.1019248328307" lon="11.432495483335126"><ele>146.0</ele><time>2026-04-25T09:44:02Z</time></trkpt><trkpt lat="43.10183683177932" lon="11.43245568005552"><ele>146.0</ele><time>2026-04-25T09:44:03Z</time></trkpt><trkpt lat="43.10172198188144" lon="11.432431425927"><ele>146.0</ele><time>2026-04-25T09:44:04Z</time></trkpt><trkpt lat="43.101582515209095" lon="11.432429363104957"><ele>146.0</ele><time>2026-04-25T09:44:05Z</time></trkpt><trkpt lat="43.10142949245887" lon="11.43242420101832"><ele>146.0</ele><time>2026-04-25T09:44:06Z</time></trkpt><trkpt lat="43.101270952283684" lon="11.432401671514388"><ele>148.0</ele><time>2026-04-25T09:44:07Z</time></trkpt><trkpt lat="43.10110077651258" lon="11.432382964047038"><ele>150.0</ele><time>2026-04-25T09:44:08Z</time></trkpt><trkpt lat="43.100928570155055" lon="11.43237213364981"><ele>152.0</ele><time>2026-04-25T09:44:09Z</time></trkpt><trkpt lat="43.100757696507436" lon="11.432352761825273"><ele>154.0</ele><time>2026-04-25T09:44:10Z</time></trkpt><trkpt lat="43.10058006612956" lon="11.432338721366612"><ele>156.0</ele><time>2026-04-25T09:44:11Z</time></trkpt><trkpt lat="43.100397950134926" lon="11.43232459125895"><ele>158.0</ele><time>2026-04-25T09:44:12Z</time></trkpt><trkpt lat="43.10021186388141" lon="11.432310012327958"><ele>158.0</ele><time>2026-04-25T09:44:13Z</time></trkpt><trkpt lat="43.10001566376107" lon="11.432289285156372"><ele>158.0</ele><time>2026-04-25T09:44:14Z</time></trkpt><trkpt lat="43.09982510711597" lon="11.432268958536445"><ele>158.0</ele><time>2026-04-25T09:44:15Z</time></trkpt><trkpt lat="43.09963604101153" lon="11.432252100569569"><ele>159.0</ele><time>2026-04-25T09:44:16Z</time></trkpt><trkpt lat="43.09945107055441" lon="11.432237454724794"><ele>160.0</ele><time>2026-04-25T09:44:17Z</time></trkpt><trkpt lat="43.09927877923338" lon="11.432225688562191"><ele>161.0</ele><time>2026-04-25T09:44:18Z</time></trkpt><trkpt lat="43.09911813747946" lon="11.432211893190361"><ele>160.0</ele><time>2026-04-25T09:44:19Z</time></trkpt><trkpt lat="43.09897510679771" lon="11.432200062576275"><ele>159.0</ele><time>2026-04-25T09:44:20Z</time></trkpt><trkpt lat="43.0988463223332" lon="11.432181724423886"><ele>158.0</ele><time>2026-04-25T09:44:21Z</time></trkpt><trkpt lat="43.09871677648771" lon="11.432150021927441"><ele>157.0</ele><time>2026-04-25T09:44:22Z</time></trkpt><trkpt lat="43.09858193301513" lon="11.432092887095472"><ele>159.0</ele><time>2026-04-25T09:44:23Z</time></trkpt><trkpt lat="43.09845536786603" lon="11.431983407306483"><ele>161.0</ele><time>2026-04-25T09:44:24Z</time></trkpt><trkpt lat="43.098320802084146" lon="11.43187163475973"><ele>163.0</ele><time>2026-04-25T09:44:25Z</time></trkpt><trkpt lat="43.09817701255509" lon="11.431746665851218"><ele>163.0</ele><time>2026-04-25T09:44:26Z</time></trkpt><trkpt lat="43.098018981299504" lon="11.43163700048696"><ele>163.0</ele><time>2026-04-25T09:44:27Z</time></trkpt><trkpt lat="43.09786539667775" lon="11.431504476434041"><ele>163.0</ele><time>2026-04-25T09:44:28Z</time></trkpt><trkpt lat="43.097704206906826" lon="11.43137517525556"><ele>164.33333333333334</ele><time>2026-04-25T09:44:29Z</time></trkpt><trkpt lat="43.09754950335386" lon="11.431245542892892"><ele>165.66666666666666</ele><time>2026-04-25T09:44:30Z</time></trkpt><trkpt lat="43.09741093285634" lon="11.43112185965159"><ele>167.0</ele><time>2026-04-25T09:44:31Z</time></trkpt><trkpt lat="43.097287741055126" lon="11.431014911192914"><ele>167.0</ele><time>2026-04-25T09:44:32Z</time></trkpt><trkpt lat="43.09717518540062" lon="11.430921758569033"><ele>167.0</ele><time>2026-04-25T09:44:33Z</time></trkpt><trkpt lat="43.097068182083255" lon="11.430835459793819"><ele>167.0</ele><time>2026-04-25T09:44:34Z</time></trkpt><trkpt lat="43.096966555622714" lon="11.430757727129935"><ele>167.0</ele><time>2026-04-25T09:44:35Z</time></trkpt><trkpt lat="43.09686567815514" lon="11.430679742803848"><ele>167.0</ele><time>2026-04-25T09:44:36Z</time></trkpt><trkpt lat="43.09676430376288" lon="11.430585169731323"><ele>167.0</ele><time>2026-04-25T09:44:37Z</time></trkpt><trkpt lat="43.0966625515735" lon="11.430466559637008"><ele>167.0</ele><time>2026-04-25T09:44:38Z</time></trkpt><trkpt lat="43.09656138481894" lon="11.430331500458516"><ele>167.0</ele><time>2026-04-25T09:44:39Z</time></trkpt><trkpt lat="43.09645107696338" lon="11.430186436496284"><ele>168.33333333333331</ele><time>2026-04-25T09:44:40Z</time></trkpt><trkpt lat="43.09633442818859" lon="11.430034389889506"><ele>169.66666666666666</ele><time>2026-04-25T09:44:41Z</time></trkpt><trkpt lat="43.09621503269712" lon="11.429889120992073"><ele>171.0</ele><time>2026-04-25T09:44:42Z</time></trkpt><trkpt lat="43.096093168446025" lon="11.429747125119876"><ele>172.33333333333334</ele><time>2026-04-25T09:44:43Z</time></trkpt><trkpt lat="43.09595844996984" lon="11.429613907250506"><ele>173.66666666666669</ele><time>2026-04-25T09:44:44Z</time></trkpt><trkpt lat="43.09580407427825" lon="11.429495385934606"><ele>175.0</ele><time>2026-04-25T09:44:45Z</time></trkpt><trkpt lat="43.09564553891546" lon="11.429379998018666"><ele>176.33333333333334</ele><time>2026-04-25T09:44:46Z</time></trkpt><trkpt lat="43.09548412595114" lon="11.42925792548475"><ele>177.66666666666666</ele><time>2026-04-25T09:44:47Z</time></trkpt><trkpt lat="43.095327999593145" lon="11.429140057734823"><ele>179.0</ele><time>2026-04-25T09:44:48Z</time></trkpt><trkpt lat="43.09516869886911" lon="11.429026847291059"><ele>179.0</ele><time>2026-04-25T09:44:49Z</time></trkpt><trkpt lat="43.095011545468836" lon="11.428914287012068"><ele>179.0</ele><time>2026-04-25T09:44:50Z</time></trkpt><trkpt lat="43.09485298975301" lon="11.428801165170432"><ele>179.0</ele><time>2026-04-25T09:44:51Z</time></trkpt><trkpt lat="43.09469631222598" lon="11.428689903114797"><ele>181.33333333333331</ele><time>2026-04-25T09:44:52Z</time></trkpt><trkpt lat="43.094541044987736" lon="11.428581674700867"><ele>183.66666666666666</ele><time>2026-04-25T09:44:53Z</time></trkpt><trkpt lat="43.094396202739844" lon="11.428470512221393"><ele>186.0</ele><time>2026-04-25T09:44:54Z</time></trkpt><trkpt lat="43.09425518574572" lon="11.428362763844534"><ele>186.0</ele><time>2026-04-25T09:44:55Z</time></trkpt><trkpt lat="43.094117082015934" lon="11.428261479058698"><ele>186.0</ele><time>2026-04-25T09:44:56Z</time></trkpt><trkpt lat="43.09397919023836" lon="11.428157211008847"><ele>186.0</ele><time>2026-04-25T09:44:57Z</time></trkpt><trkpt lat="43.09384052305469" lon="11.428051650170465"><ele>187.66666666666666</ele><time>2026-04-25T09:44:58Z</time></trkpt><trkpt lat="43.09369770182804" lon="11.427946175519077"><ele>189.33333333333331</ele><time>2026-04-25T09:44:59Z</time></trkpt><trkpt lat="43.093548105521116" lon="11.427839933321234"><ele>191.0</ele><time>2026-04-25T09:45:00Z</time></trkpt><trkpt lat="43.093392678768254" lon="11.427734793373485"><ele>192.0</ele><time>2026-04-25T09:45:01Z</time></trkpt><trkpt lat="43.093240793170324" lon="11.427629435906029"><ele>193.0</ele><time>2026-04-25T09:45:02Z</time></trkpt><trkpt lat="43.0931054690503" lon="11.427532085152809"><ele>194.0</ele><time>2026-04-25T09:45:03Z</time></trkpt><trkpt lat="43.092982892608745" lon="11.427442773885874"><ele>194.0</ele><time>2026-04-25T09:45:04Z</time></trkpt><trkpt lat="43.0928798044565" lon="11.427361519577177"><ele>194.0</ele><time>2026-04-25T09:45:05Z</time></trkpt><trkpt lat="43.092781176537024" lon="11.42728842695725"><ele>194.0</ele><time>2026-04-25T09:45:06Z</time></trkpt><trkpt lat="43.09269184546243" lon="11.427224048617859"><ele>194.0</ele><time>2026-04-25T09:45:07Z</time></trkpt><trkpt lat="43.09259965821892" lon="11.427158243619774"><ele>194.0</ele><time>2026-04-25T09:45:08Z</time></trkpt><trkpt lat="43.09250204159694" lon="11.427085248620713"><ele>195.5</ele><time>2026-04-25T09:45:09Z</time></trkpt><trkpt lat="43.092395814270475" lon="11.427009751718723"><ele>197.0</ele><time>2026-04-25T09:45:10Z</time></trkpt><trkpt lat="43.09228579187999" lon="11.426931877204268"><ele>198.5</ele><time>2026-04-25T09:45:11Z</time></trkpt><trkpt lat="43.09217103187675" lon="11.426847738527938"><ele>200.0</ele><time>2026-04-25T09:45:12Z</time></trkpt><trkpt lat="43.09205127229452" lon="11.426757631505113"><ele>200.0</ele><time>2026-04-25T09:45:13Z</time></trkpt><trkpt lat="43.09192432251945" lon="11.426663347668576"><ele>200.0</ele><time>2026-04-25T09:45:14Z</time></trkpt><trkpt lat="43.09179122937908" lon="11.426571729455668"><ele>200.0</ele><time>2026-04-25T09:45:15Z</time></trkpt><trkpt lat="43.09165892687483" lon="11.426479423415106"><ele>200.0</ele><time>2026-04-25T09:45:16Z</time></trkpt><trkpt lat="43.09152679816877" lon="11.42638294864449"><ele>200.75</ele><time>2026-04-25T09:45:17Z</time></trkpt><trkpt lat="43.09139641144627" lon="11.426281790744616"><ele>201.5</ele><time>2026-04-25T09:45:18Z</time></trkpt><trkpt lat="43.09127424710737" lon="11.426160331468079"><ele>202.25</ele><time>2026-04-25T09:45:19Z</time></trkpt><trkpt lat="43.091144615868146" lon="11.42607050576089"><ele>203.0</ele><time>2026-04-25T09:45:20Z</time></trkpt><trkpt lat="43.09100404564391" lon="11.425990869225716"><ele>203.0</ele><time>2026-04-25T09:45:21Z</time></trkpt><trkpt lat="43.0908425348899" lon="11.425951715880124"><ele>203.0</ele><time>2026-04-25T09:45:22Z</time></trkpt><trkpt lat="43.09067064865649" lon="11.425897809713186"><ele>203.0</ele><time>2026-04-25T09:45:23Z</time></trkpt><trkpt lat="43.09049239311463" lon="11.425847819490926"><ele>205.0</ele><time>2026-04-25T09:45:24Z</time></trkpt><trkpt lat="43.09030702316697" lon="11.425797915840935"><ele>207.0</ele><time>2026-04-25T09:45:25Z</time></trkpt><trkpt lat="43.09012374132653" lon="11.425747048739154"><ele>209.0</ele><time>2026-04-25T09:45:26Z</time></trkpt><trkpt lat="43.08994380208354" lon="11.425700722277158"><ele>210.66666666666669</ele><time>2026-04-25T09:45:27Z</time></trkpt><trkpt lat="43.089769277826086" lon="11.425655449570801"><ele>212.33333333333331</ele><time>2026-04-25T09:45:28Z</time></trkpt><trkpt lat="43.089602238974194" lon="11.425607748051151"><ele>214.0</ele><time>2026-04-25T09:45:29Z</time></trkpt><trkpt lat="43.08944472736229" lon="11.42556090559184"><ele>214.0</ele><time>2026-04-25T09:45:30Z</time></trkpt><trkpt lat="43.08930553769326" lon="11.425521649065358"><ele>214.0</ele><time>2026-04-25T09:45:31Z</time></trkpt><trkpt lat="43.08918490751004" lon="11.425482180565055"><ele>214.0</ele><time>2026-04-25T09:45:32Z</time></trkpt><trkpt lat="43.089080336513554" lon="11.425435456856283"><ele>214.0</ele><time>2026-04-25T09:45:33Z</time></trkpt><trkpt lat="43.08899902277755" lon="11.42535912180123"><ele>219.2</ele><time>2026-04-25T09:45:34Z</time></trkpt><trkpt lat="43.088966233466664" lon="11.425252024948195"><ele>224.39999999999998</ele><time>2026-04-25T09:45:35Z</time></trkpt><trkpt lat="43.088936403077724" lon="11.42515047602269"><ele>229.6</ele><time>2026-04-25T09:45:36Z</time></trkpt><trkpt lat="43.088944137669216" lon="11.425015635015402"><ele>234.8</ele><time>2026-04-25T09:45:37Z</time></trkpt><trkpt lat="43.088953423621675" lon="11.424882914930857"><ele>240.0</ele><time>2026-04-25T09:45:38Z</time></trkpt><trkpt lat="43.08897132177678" lon="11.42472870189118"><ele>237.75</ele><time>2026-04-25T09:45:39Z</time></trkpt><trkpt lat="43.08899889106647" lon="11.424558962604152"><ele>235.5</ele><time>2026-04-25T09:45:40Z</time></trkpt><trkpt lat="43.08903306088154" lon="11.42437543341761"><ele>233.25</ele><time>2026-04-25T09:45:41Z</time></trkpt><trkpt lat="43.08907145494355" lon="11.4241826109238"><ele>231.0</ele><time>2026-04-25T09:45:42Z</time></trkpt><trkpt lat="43.08910336007738" lon="11.423986603324396"><ele>232.75</ele><time>2026-04-25T09:45:43Z</time></trkpt><trkpt lat="43.089143303535074" lon="11.423791721484829"><ele>234.5</ele><time>2026-04-25T09:45:44Z</time></trkpt><trkpt lat="43.08916967355704" lon="11.423604037872602"><ele>236.25</ele><time>2026-04-25T09:45:45Z</time></trkpt><trkpt lat="43.089182783352676" lon="11.423444182311613"><ele>238.0</ele><time>2026-04-25T09:45:46Z</time></trkpt><trkpt lat="43.089181944377955" lon="11.423313670697672"><ele>238.0</ele><time>2026-04-25T09:45:47Z</time></trkpt><trkpt lat="43.08916375530037" lon="11.423195207332792"><ele>238.0</ele><time>2026-04-25T09:45:48Z</time></trkpt><trkpt lat="43.089129896145245" lon="11.423086165463664"><ele>238.0</ele><time>2026-04-25T09:45:49Z</time></trkpt><trkpt lat="43.08908143615808" lon="11.422975927931134"><ele>238.0</ele><time>2026-04-25T09:45:50Z</time></trkpt><trkpt lat="43.089025265160444" lon="11.422850649451306"><ele>238.0</ele><time>2026-04-25T09:45:51Z</time></trkpt><trkpt lat="43.08896942183404" lon="11.42270662656222"><ele>244.25</ele><time>2026-04-25T09:45:52Z</time></trkpt><trkpt lat="43.088910775284454" lon="11.422561745774578"><ele>250.5</ele><time>2026-04-25T09:45:53Z</time></trkpt><trkpt lat="43.088854752016815" lon="11.422430389574798"><ele>256.75</ele><time>2026-04-25T09:45:54Z</time></trkpt><trkpt lat="43.08880124244287" lon="11.422294479727084"><ele>263.0</ele><time>2026-04-25T09:45:55Z</time></trkpt><trkpt lat="43.08874775726877" lon="11.422149812515087"><ele>261.8</ele><time>2026-04-25T09:45:56Z</time></trkpt><trkpt lat="43.08869509875115" lon="11.422008966195113"><ele>260.6</ele><time>2026-04-25T09:45:57Z</time></trkpt><trkpt lat="43.088646574008195" lon="11.421884859112708"><ele>259.4</ele><time>2026-04-25T09:45:58Z</time></trkpt><trkpt lat="43.08859618741036" lon="11.421790017802811"><ele>258.2</ele><time>2026-04-25T09:45:59Z</time></trkpt><trkpt lat="43.08854644087747" lon="11.42172486034536"><ele>257.0</ele><time>2026-04-25T09:46:00Z</time></trkpt><trkpt lat="43.08841818297624" lon="11.421662273091833"><ele>257.0</ele><time>2026-04-25T09:46:02Z</time></trkpt><trkpt lat="43.0883381918462" lon="11.421657565549001"><ele>257.0</ele><time>2026-04-25T09:46:03Z</time></trkpt><trkpt lat="43.08825907856721" lon="11.421685583789499"><ele>257.0</ele><time>2026-04-25T09:46:04Z</time></trkpt><trkpt lat="43.08819383946339" lon="11.421744799730616"><ele>257.0</ele><time>2026-04-25T09:46:05Z</time></trkpt><trkpt lat="43.08815562561657" lon="11.421820665044395"><ele>257.0</ele><time>2026-04-25T09:46:06Z</time></trkpt><trkpt lat="43.08813109186393" lon="11.421909185214478"><ele>257.0</ele><time>2026-04-25T09:46:07Z</time></trkpt><trkpt lat="43.08810793332551" lon="11.422023922463747"><ele>261.4</ele><time>2026-04-25T09:46:08Z</time></trkpt><trkpt lat="43.08808478233263" lon="11.422129683628231"><ele>265.79999999999995</ele><time>2026-04-25T09:46:09Z</time></trkpt><trkpt lat="43.08806101798711" lon="11.422244077816849"><ele>270.2</ele><time>2026-04-25T09:46:10Z</time></trkpt><trkpt lat="43.08803627256141" lon="11.42237091156473"><ele>274.59999999999997</ele><time>2026-04-25T09:46:11Z</time></trkpt><trkpt lat="43.08801055217191" lon="11.422512928173527"><ele>279.0</ele><time>2026-04-25T09:46:12Z</time></trkpt><trkpt lat="43.08797881854999" lon="11.422656459869776"><ele>279.59999999999997</ele><time>2026-04-25T09:46:13Z</time></trkpt><trkpt lat="43.08794239080906" lon="11.422795214044411"><ele>280.2</ele><time>2026-04-25T09:46:14Z</time></trkpt><trkpt lat="43.08790414860749" lon="11.422933702890626"><ele>280.79999999999995</ele><time>2026-04-25T09:46:15Z</time></trkpt><trkpt lat="43.08786585757352" lon="11.423061932978989"><ele>281.4</ele><time>2026-04-25T09:46:16Z</time></trkpt><trkpt lat="43.08782433050666" lon="11.423189222927482"><ele>282.0</ele><time>2026-04-25T09:46:17Z</time></trkpt><trkpt lat="43.087772291241" lon="11.42330580498854"><ele>282.1666666666667</ele><time>2026-04-25T09:46:18Z</time></trkpt><trkpt lat="43.08771740249432" lon="11.423401621973541"><ele>282.3333333333333</ele><time>2026-04-25T09:46:19Z</time></trkpt><trkpt lat="43.08767502401949" lon="11.423467741054916"><ele>282.5</ele><time>2026-04-25T09:46:20Z</time></trkpt><trkpt lat="43.087604865345355" lon="11.423514573271154"><ele>282.66666666666663</ele><time>2026-04-25T09:46:22Z</time></trkpt><trkpt lat="43.087537151706115" lon="11.423474739144934"><ele>282.8333333333333</ele><time>2026-04-25T09:46:24Z</time></trkpt><trkpt lat="43.087486855185354" lon="11.423365623757531"><ele>283.0</ele><time>2026-04-25T09:46:26Z</time></trkpt><trkpt lat="43.087470576509666" lon="11.42327944909325"><ele>283.0</ele><time>2026-04-25T09:46:27Z</time></trkpt><trkpt lat="43.0874495379834" lon="11.423177494549178"><ele>283.0</ele><time>2026-04-25T09:46:28Z</time></trkpt><trkpt lat="43.08742533743996" lon="11.4230638354201"><ele>283.0</ele><time>2026-04-25T09:46:29Z</time></trkpt><trkpt lat="43.08740878674614" lon="11.422955158082909"><ele>283.0</ele><time>2026-04-25T09:46:30Z</time></trkpt><trkpt lat="43.08738933928662" lon="11.422849588238195"><ele>283.0</ele><time>2026-04-25T09:46:31Z</time></trkpt><trkpt lat="43.08738312596783" lon="11.422748414096498"><ele>283.0</ele><time>2026-04-25T09:46:32Z</time></trkpt><trkpt lat="43.08735958357824" lon="11.422663632549398"><ele>288.4</ele><time>2026-04-25T09:46:33Z</time></trkpt><trkpt lat="43.087285272778836" lon="11.422572837150543"><ele>293.8</ele><time>2026-04-25T09:46:35Z</time></trkpt><trkpt lat="43.08718476392071" lon="11.422617548745675"><ele>299.2</ele><time>2026-04-25T09:46:37Z</time></trkpt><trkpt lat="43.08713727473426" lon="11.422731572885647"><ele>304.6</ele><time>2026-04-25T09:46:39Z</time></trkpt><trkpt lat="43.08711463701504" lon="11.422923479664037"><ele>310.0</ele><time>2026-04-25T09:46:41Z</time></trkpt><trkpt lat="43.087097673506605" lon="11.423044868099787"><ele>310.0</ele><time>2026-04-25T09:46:42Z</time></trkpt><trkpt lat="43.0870749559586" lon="11.423177696724789"><ele>310.0</ele><time>2026-04-25T09:46:43Z</time></trkpt><trkpt lat="43.0870439963589" lon="11.423314352910106"><ele>310.0</ele><time>2026-04-25T09:46:44Z</time></trkpt><trkpt lat="43.08701489720394" lon="11.423463922311791"><ele>310.0</ele><time>2026-04-25T09:46:45Z</time></trkpt><trkpt lat="43.08698400901666" lon="11.423589383747787"><ele>310.0</ele><time>2026-04-25T09:46:46Z</time></trkpt><trkpt lat="43.08694941105693" lon="11.423686951373575"><ele>310.0</ele><time>2026-04-25T09:46:47Z</time></trkpt><trkpt lat="43.08690417436391" lon="11.423768186269484"><ele>310.0</ele><time>2026-04-25T09:46:48Z</time></trkpt><trkpt lat="43.086847198452716" lon="11.42383013031964"><ele>310.0</ele><time>2026-04-25T09:46:49Z</time></trkpt><trkpt lat="43.08678219370924" lon="11.423867588020675"><ele>310.0</ele><time>2026-04-25T09:46:50Z</time></trkpt><trkpt lat="43.08671242549434" lon="11.423876482046696"><ele>310.0</ele><time>2026-04-25T09:46:51Z</time></trkpt><trkpt lat="43.08664663244228" lon="11.423867992805606"><ele>310.0</ele><time>2026-04-25T09:46:52Z</time></trkpt><trkpt lat="43.086587151556444" lon="11.423833008805"><ele>310.0</ele><time>2026-04-25T09:46:53Z</time></trkpt><trkpt lat="43.08652348611011" lon="11.423788679704984"><ele>313.16666666666663</ele><time>2026-04-25T09:46:54Z</time></trkpt><trkpt lat="43.086459385765245" lon="11.423731999432375"><ele>316.3333333333333</ele><time>2026-04-25T09:46:55Z</time></trkpt><trkpt lat="43.08640816451086" lon="11.423668345972066"><ele>319.5</ele><time>2026-04-25T09:46:56Z</time></trkpt><trkpt lat="43.086377371783236" lon="11.423531700233026"><ele>322.6666666666667</ele><time>2026-04-25T09:46:58Z</time></trkpt><trkpt lat="43.086405776070826" lon="11.423386747733261"><ele>325.83333333333337</ele><time>2026-04-25T09:47:00Z</time></trkpt><trkpt lat="43.08643981460956" lon="11.423297114084814"><ele>329.0</ele><time>2026-04-25T09:47:01Z</time></trkpt><trkpt lat="43.08648264050557" lon="11.423191743456147"><ele>329.0</ele><time>2026-04-25T09:47:02Z</time></trkpt><trkpt lat="43.08651634570374" lon="11.423081439989518"><ele>329.0</ele><time>2026-04-25T09:47:03Z</time></trkpt><trkpt lat="43.08653487305609" lon="11.422972505196718"><ele>329.0</ele><time>2026-04-25T09:47:04Z</time></trkpt><trkpt lat="43.08653197658562" lon="11.422865664048283"><ele>329.0</ele><time>2026-04-25T09:47:05Z</time></trkpt><trkpt lat="43.08651024916185" lon="11.422753646846099"><ele>329.0</ele><time>2026-04-25T09:47:06Z</time></trkpt><trkpt lat="43.08647195990561" lon="11.422662077176362"><ele>329.0</ele><time>2026-04-25T09:47:07Z</time></trkpt><trkpt lat="43.08641953385451" lon="11.422607212992132"><ele>328.79999999999995</ele><time>2026-04-25T09:47:08Z</time></trkpt><trkpt lat="43.08634782240083" lon="11.422597134249814"><ele>328.59999999999997</ele><time>2026-04-25T09:47:09Z</time></trkpt><trkpt lat="43.08628268377634" lon="11.422601533874092"><ele>328.4</ele><time>2026-04-25T09:47:10Z</time></trkpt><trkpt lat="43.086181378325406" lon="11.42271886272242"><ele>328.2</ele><time>2026-04-25T09:47:12Z</time></trkpt><trkpt lat="43.086132310889674" lon="11.422813218912395"><ele>328.0</ele><time>2026-04-25T09:47:13Z</time></trkpt><trkpt lat="43.086071431103264" lon="11.422927335328708"><ele>328.2</ele><time>2026-04-25T09:47:14Z</time></trkpt><trkpt lat="43.086006309990985" lon="11.42305653224373"><ele>328.4</ele><time>2026-04-25T09:47:15Z</time></trkpt><trkpt lat="43.085937818401405" lon="11.423184206852625"><ele>328.59999999999997</ele><time>2026-04-25T09:47:16Z</time></trkpt><trkpt lat="43.08586528420041" lon="11.423256748077305"><ele>328.79999999999995</ele><time>2026-04-25T09:47:17Z</time></trkpt><trkpt lat="43.085784577784516" lon="11.423280699871327"><ele>329.0</ele><time>2026-04-25T09:47:18Z</time></trkpt><trkpt lat="43.08569884275491" lon="11.423245714495105"><ele>332.2</ele><time>2026-04-25T09:47:19Z</time></trkpt><trkpt lat="43.085637460916615" lon="11.423152442579502"><ele>335.4</ele><time>2026-04-25T09:47:20Z</time></trkpt><trkpt lat="43.08559123215689" lon="11.423023484560419"><ele>338.6</ele><time>2026-04-25T09:47:21Z</time></trkpt><trkpt lat="43.08555838877642" lon="11.422886193246441"><ele>341.8</ele><time>2026-04-25T09:47:22Z</time></trkpt><trkpt lat="43.08552151320912" lon="11.422750048669696"><ele>345.0</ele><time>2026-04-25T09:47:23Z</time></trkpt><trkpt lat="43.08548079561849" lon="11.422601452858226"><ele>346.0</ele><time>2026-04-25T09:47:24Z</time></trkpt><trkpt lat="43.0854263412282" lon="11.422463218185094"><ele>347.0</ele><time>2026-04-25T09:47:25Z</time></trkpt><trkpt lat="43.085396088880444" lon="11.42229598463675"><ele>348.0</ele><time>2026-04-25T09:47:26Z</time></trkpt><trkpt lat="43.0853497134162" lon="11.422138528760268"><ele>349.0</ele><time>2026-04-25T09:47:27Z</time></trkpt><trkpt lat="43.08526563371492" lon="11.422007467570849"><ele>348.0</ele><time>2026-04-25T09:47:28Z</time></trkpt><trkpt lat="43.08517111124765" lon="11.421878706173944"><ele>347.0</ele><time>2026-04-25T09:47:29Z</time></trkpt><trkpt lat="43.08505185951891" lon="11.421769388945574"><ele>346.0</ele><time>2026-04-25T09:47:30Z</time></trkpt><trkpt lat="43.08491032441485" lon="11.421681724428018"><ele>345.0</ele><time>2026-04-25T09:47:31Z</time></trkpt><trkpt lat="43.084750427700456" lon="11.421621306595467"><ele>345.0</ele><time>2026-04-25T09:47:32Z</time></trkpt><trkpt lat="43.08457927822417" lon="11.421572325186128"><ele>345.0</ele><time>2026-04-25T09:47:33Z</time></trkpt><trkpt lat="43.08440996470678" lon="11.421496191917972"><ele>345.0</ele><time>2026-04-25T09:47:34Z</time></trkpt><trkpt lat="43.08424044627223" lon="11.421385274237338"><ele>345.6666666666667</ele><time>2026-04-25T09:47:35Z</time></trkpt><trkpt lat="43.084083237005984" lon="11.421260261048069"><ele>346.33333333333337</ele><time>2026-04-25T09:47:36Z</time></trkpt><trkpt lat="43.083938136698116" lon="11.421139334602557"><ele>347.0</ele><time>2026-04-25T09:47:37Z</time></trkpt><trkpt lat="43.083797833993124" lon="11.421036538200608"><ele>347.0</ele><time>2026-04-25T09:47:38Z</time></trkpt><trkpt lat="43.08364492682536" lon="11.420949131481802"><ele>347.0</ele><time>2026-04-25T09:47:39Z</time></trkpt><trkpt lat="43.083482151432776" lon="11.420883243508932"><ele>347.0</ele><time>2026-04-25T09:47:40Z</time></trkpt><trkpt lat="43.083317762515485" lon="11.42083047101036"><ele>349.6666666666667</ele><time>2026-04-25T09:47:41Z</time></trkpt><trkpt lat="43.08315728341892" lon="11.420781136520775"><ele>352.3333333333333</ele><time>2026-04-25T09:47:42Z</time></trkpt><trkpt lat="43.08300133173733" lon="11.42072871592917"><ele>355.0</ele><time>2026-04-25T09:47:43Z</time></trkpt><trkpt lat="43.08284814365202" lon="11.420677867848315"><ele>355.0</ele><time>2026-04-25T09:47:44Z</time></trkpt><trkpt lat="43.08270243076132" lon="11.420630899360269"><ele>355.0</ele><time>2026-04-25T09:47:45Z</time></trkpt><trkpt lat="43.08256940276219" lon="11.420591127014834"><ele>355.0</ele><time>2026-04-25T09:47:46Z</time></trkpt><trkpt lat="43.08244270151161" lon="11.420561820319522"><ele>355.0</ele><time>2026-04-25T09:47:47Z</time></trkpt><trkpt lat="43.08230834138562" lon="11.420538933984304"><ele>354.75</ele><time>2026-04-25T09:47:48Z</time></trkpt><trkpt lat="43.08216841118788" lon="11.420534518327303"><ele>354.5</ele><time>2026-04-25T09:47:49Z</time></trkpt><trkpt lat="43.08203106702061" lon="11.420549884108421"><ele>354.25</ele><time>2026-04-25T09:47:50Z</time></trkpt><trkpt lat="43.081893290591864" lon="11.420531118665108"><ele>354.0</ele><time>2026-04-25T09:47:51Z</time></trkpt><trkpt lat="43.08175915848302" lon="11.420467856934035"><ele>355.6666666666667</ele><time>2026-04-25T09:47:52Z</time></trkpt><trkpt lat="43.08163510252354" lon="11.420362101926747"><ele>357.33333333333337</ele><time>2026-04-25T09:47:53Z</time></trkpt><trkpt lat="43.08151950542641" lon="11.420230485587606"><ele>359.0</ele><time>2026-04-25T09:47:54Z</time></trkpt><trkpt lat="43.081406298879074" lon="11.420075066489533"><ele>360.75</ele><time>2026-04-25T09:47:55Z</time></trkpt><trkpt lat="43.081308400990494" lon="11.419914357842346"><ele>362.5</ele><time>2026-04-25T09:47:56Z</time></trkpt><trkpt lat="43.081238436559545" lon="11.41977364813861"><ele>364.25</ele><time>2026-04-25T09:47:57Z</time></trkpt><trkpt lat="43.08118031618308" lon="11.419665815887003"><ele>366.0</ele><time>2026-04-25T09:47:58Z</time></trkpt><trkpt lat="43.081101795693655" lon="11.419585415730737"><ele>366.0</ele><time>2026-04-25T09:47:59Z</time></trkpt><trkpt lat="43.0809960439" lon="11.419509667982279"><ele>366.0</ele><time>2026-04-25T09:48:00Z</time></trkpt><trkpt lat="43.08088575039022" lon="11.41945009394133"><ele>366.0</ele><time>2026-04-25T09:48:01Z</time></trkpt><trkpt lat="43.08076679553178" lon="11.419409033804762"><ele>366.0</ele><time>2026-04-25T09:48:02Z</time></trkpt><trkpt lat="43.0806386846373" lon="11.41938369279455"><ele>369.8</ele><time>2026-04-25T09:48:03Z</time></trkpt><trkpt lat="43.08052508614564" lon="11.41933978948109"><ele>373.6</ele><time>2026-04-25T09:48:04Z</time></trkpt><trkpt lat="43.08041892072375" lon="11.419309599541657"><ele>377.4</ele><time>2026-04-25T09:48:05Z</time></trkpt><trkpt lat="43.08033124223483" lon="11.419266526483572"><ele>381.2</ele><time>2026-04-25T09:48:06Z</time></trkpt><trkpt lat="43.080263094487314" lon="11.419189728632379"><ele>385.0</ele><time>2026-04-25T09:48:07Z</time></trkpt><trkpt lat="43.08022477392032" lon="11.419091568840768"><ele>385.00000000000006</ele><time>2026-04-25T09:48:08Z</time></trkpt><trkpt lat="43.08017209903595" lon="11.418994703505097"><ele>385.0</ele><time>2026-04-25T09:48:09Z</time></trkpt><trkpt lat="43.08011767102601" lon="11.418906365505242"><ele>385.0</ele><time>2026-04-25T09:48:10Z</time></trkpt><trkpt lat="43.08007041902913" lon="11.418809944261657"><ele>385.0</ele><time>2026-04-25T09:48:11Z</time></trkpt><trkpt lat="43.080007513673465" lon="11.418738282581119"><ele>385.00000000000006</ele><time>2026-04-25T09:48:12Z</time></trkpt><trkpt lat="43.07993228223445" lon="11.4186722467333"><ele>385.0</ele><time>2026-04-25T09:48:13Z</time></trkpt><trkpt lat="43.07985023262063" lon="11.418617062196594"><ele>387.4</ele><time>2026-04-25T09:48:14Z</time></trkpt><trkpt lat="43.07976204522873" lon="11.418572333139059"><ele>389.8</ele><time>2026-04-25T09:48:15Z</time></trkpt><trkpt lat="43.0796750205939" lon="11.418511371853953"><ele>392.20000000000005</ele><time>2026-04-25T09:48:16Z</time></trkpt><trkpt lat="43.07958347143663" lon="11.418471986847425"><ele>394.6</ele><time>2026-04-25T09:48:17Z</time></trkpt><trkpt lat="43.07948852339569" lon="11.418434420546134"><ele>397.0</ele><time>2026-04-25T09:48:18Z</time></trkpt><trkpt lat="43.07939129375857" lon="11.418389288265208"><ele>397.0</ele><time>2026-04-25T09:48:19Z</time></trkpt><trkpt lat="43.07929584682005" lon="11.418336995867048"><ele>397.0</ele><time>2026-04-25T09:48:20Z</time></trkpt><trkpt lat="43.079207590859724" lon="11.418277956585271"><ele>397.0</ele><time>2026-04-25T09:48:21Z</time></trkpt><trkpt lat="43.0791333477154" lon="11.418207133818482"><ele>397.0</ele><time>2026-04-25T09:48:22Z</time></trkpt><trkpt lat="43.07906061746556" lon="11.41815052090633"><ele>397.0</ele><time>2026-04-25T09:48:23Z</time></trkpt><trkpt lat="43.07900915093561" lon="11.41807508212605"><ele>396.6666666666667</ele><time>2026-04-25T09:48:24Z</time></trkpt><trkpt lat="43.07895462247172" lon="11.41802281201778"><ele>396.33333333333337</ele><time>2026-04-25T09:48:25Z</time></trkpt><trkpt lat="43.0788935600794" lon="11.417989533007644"><ele>396.0</ele><time>2026-04-25T09:48:26Z</time></trkpt><trkpt lat="43.078819696781856" lon="11.417970316029555"><ele>395.66666666666663</ele><time>2026-04-25T09:48:27Z</time></trkpt><trkpt lat="43.07873417247605" lon="11.41795995407871"><ele>395.3333333333333</ele><time>2026-04-25T09:48:28Z</time></trkpt><trkpt lat="43.07863591497602" lon="11.417948244947738"><ele>395.0</ele><time>2026-04-25T09:48:29Z</time></trkpt><trkpt lat="43.078535534500475" lon="11.417932871558305"><ele>395.0</ele><time>2026-04-25T09:48:30Z</time></trkpt><trkpt lat="43.07843680897185" lon="11.417933547658821"><ele>395.0</ele><time>2026-04-25T09:48:31Z</time></trkpt><trkpt lat="43.078334249316754" lon="11.417925967190813"><ele>395.0</ele><time>2026-04-25T09:48:32Z</time></trkpt><trkpt lat="43.07822530442706" lon="11.41791482351038"><ele>395.0</ele><time>2026-04-25T09:48:33Z</time></trkpt><trkpt lat="43.07811565065469" lon="11.417898109353937"><ele>395.0</ele><time>2026-04-25T09:48:34Z</time></trkpt><trkpt lat="43.07801215417861" lon="11.417884677398774"><ele>397.8</ele><time>2026-04-25T09:48:35Z</time></trkpt><trkpt lat="43.077917472824126" lon="11.417876782292531"><ele>400.6</ele><time>2026-04-25T09:48:36Z</time></trkpt><trkpt lat="43.077822381672405" lon="11.417883318022916"><ele>403.4</ele><time>2026-04-25T09:48:37Z</time></trkpt><trkpt lat="43.07772676850344" lon="11.417896464714866"><ele>406.2</ele><time>2026-04-25T09:48:38Z</time></trkpt><trkpt lat="43.077632244378606" lon="11.41790895757142"><ele>409.0</ele><time>2026-04-25T09:48:39Z</time></trkpt><trkpt lat="43.077541685261366" lon="11.417901685051671"><ele>409.0</ele><time>2026-04-25T09:48:40Z</time></trkpt><trkpt lat="43.07745366274408" lon="11.417866377814294"><ele>409.0</ele><time>2026-04-25T09:48:41Z</time></trkpt><trkpt lat="43.07736392789986" lon="11.417813128900931"><ele>409.0</ele><time>2026-04-25T09:48:41.999Z</time></trkpt><trkpt lat="43.07726595658721" lon="11.417736731661826"><ele>409.0</ele><time>2026-04-25T09:48:42.999Z</time></trkpt><trkpt lat="43.0771672297732" lon="11.417664582077451"><ele>409.0</ele><time>2026-04-25T09:48:43.999Z</time></trkpt><trkpt lat="43.07707288316406" lon="11.417599844933397"><ele>410.2</ele><time>2026-04-25T09:48:44.999Z</time></trkpt><trkpt lat="43.07699476680733" lon="11.417533053927807"><ele>411.4</ele><time>2026-04-25T09:48:45.999Z</time></trkpt><trkpt lat="43.076932652392884" lon="11.41745910934042"><ele>412.6</ele><time>2026-04-25T09:48:46.999Z</time></trkpt><trkpt lat="43.076887033176824" lon="11.417360889675397"><ele>413.8</ele><time>2026-04-25T09:48:47.999Z</time></trkpt><trkpt lat="43.0768687111084" lon="11.417227239949852"><ele>415.0</ele><time>2026-04-25T09:48:48.999Z</time></trkpt><trkpt lat="43.07681250117246" lon="11.417117915056695"><ele>415.0</ele><time>2026-04-25T09:48:49.999Z</time></trkpt><trkpt lat="43.07678289973375" lon="11.417012402782001"><ele>415.0</ele><time>2026-04-25T09:48:50.999Z</time></trkpt><trkpt lat="43.07670206993704" lon="11.416901486137965"><ele>415.0</ele><time>2026-04-25T09:48:52.999Z</time></trkpt><trkpt lat="43.07658078714812" lon="11.416846868944537"><ele>415.0</ele><time>2026-04-25T09:48:54.999Z</time></trkpt><trkpt lat="43.076502573621774" lon="11.4168251518343"><ele>415.0</ele><time>2026-04-25T09:48:55.999Z</time></trkpt><trkpt lat="43.07641696024827" lon="11.41680526981367"><ele>418.0</ele><time>2026-04-25T09:48:56.999Z</time></trkpt><trkpt lat="43.0763246744135" lon="11.416778543921058"><ele>421.0</ele><time>2026-04-25T09:48:57.999Z</time></trkpt><trkpt lat="43.07623633079531" lon="11.41675043605042"><ele>424.0</ele><time>2026-04-25T09:48:58.999Z</time></trkpt><trkpt lat="43.076149903129675" lon="11.416719983333822"><ele>427.0</ele><time>2026-04-25T09:48:59.999Z</time></trkpt><trkpt lat="43.076059161569724" lon="11.416682305663373"><ele>430.0</ele><time>2026-04-25T09:49:00.999Z</time></trkpt><trkpt lat="43.07596546193767" lon="11.416632023712083"><ele>430.0</ele><time>2026-04-25T09:49:01.999Z</time></trkpt><trkpt lat="43.07588235801896" lon="11.416549689407285"><ele>430.0</ele><time>2026-04-25T09:49:02.999Z</time></trkpt><trkpt lat="43.07579856679577" lon="11.416484219198509"><ele>430.0</ele><time>2026-04-25T09:49:04Z</time></trkpt><trkpt lat="43.07571638766146" lon="11.416418733393783"><ele>430.0</ele><time>2026-04-25T09:49:05Z</time></trkpt><trkpt lat="43.07563467600496" lon="11.416353621490876"><ele>430.0</ele><time>2026-04-25T09:49:06Z</time></trkpt><trkpt lat="43.07554479345219" lon="11.416309351270558"><ele>431.0</ele><time>2026-04-25T09:49:07Z</time></trkpt><trkpt lat="43.075460632470346" lon="11.41623304590939"><ele>432.0</ele><time>2026-04-25T09:49:08Z</time></trkpt><trkpt lat="43.07537187507312" lon="11.416159342141427"><ele>433.0</ele><time>2026-04-25T09:49:09Z</time></trkpt><trkpt lat="43.075278376414786" lon="11.416088976950912"><ele>434.0</ele><time>2026-04-25T09:49:10Z</time></trkpt><trkpt lat="43.07518368082392" lon="11.416028650941795"><ele>435.0</ele><time>2026-04-25T09:49:11Z</time></trkpt><trkpt lat="43.0750937541278" lon="11.415967613897138"><ele>435.0</ele><time>2026-04-25T09:49:12Z</time></trkpt><trkpt lat="43.075006728667134" lon="11.415893128253632"><ele>435.0</ele><time>2026-04-25T09:49:13Z</time></trkpt><trkpt lat="43.07491113453654" lon="11.415842452032296"><ele>435.0</ele><time>2026-04-25T09:49:14Z</time></trkpt><trkpt lat="43.07480452139831" lon="11.415814559277633"><ele>435.0</ele><time>2026-04-25T09:49:15Z</time></trkpt><trkpt lat="43.074699969376475" lon="11.415773992034332"><ele>435.0</ele><time>2026-04-25T09:49:16Z</time></trkpt><trkpt lat="43.07459797156252" lon="11.415748416933894"><ele>435.8333333333333</ele><time>2026-04-25T09:49:17Z</time></trkpt><trkpt lat="43.074505658842746" lon="11.4157362810934"><ele>436.66666666666663</ele><time>2026-04-25T09:49:18Z</time></trkpt><trkpt lat="43.074437122526284" lon="11.415715368837622"><ele>437.5</ele><time>2026-04-25T09:49:19Z</time></trkpt><trkpt lat="43.07440281024503" lon="11.415640250837107"><ele>438.3333333333333</ele><time>2026-04-25T09:49:20Z</time></trkpt><trkpt lat="43.07434799794984" lon="11.41549358201075"><ele>439.16666666666663</ele><time>2026-04-25T09:49:22Z</time></trkpt><trkpt lat="43.0743435014486" lon="11.415394381818606"><ele>440.0</ele><time>2026-04-25T09:49:23Z</time></trkpt><trkpt lat="43.07434735596836" lon="11.415291210529709"><ele>441.66666666666663</ele><time>2026-04-25T09:49:24Z</time></trkpt><trkpt lat="43.07435108526615" lon="11.415176774314778"><ele>443.3333333333333</ele><time>2026-04-25T09:49:25Z</time></trkpt><trkpt lat="43.074347873843074" lon="11.415060085752295"><ele>445.0</ele><time>2026-04-25T09:49:26Z</time></trkpt><trkpt lat="43.07432712960681" lon="11.414957530331451"><ele>446.66666666666663</ele><time>2026-04-25T09:49:27Z</time></trkpt><trkpt lat="43.07429520245247" lon="11.414852012331059"><ele>448.3333333333333</ele><time>2026-04-25T09:49:28Z</time></trkpt><trkpt lat="43.07426109584279" lon="11.414759796476655"><ele>450.0</ele><time>2026-04-25T09:49:29Z</time></trkpt><trkpt lat="43.07425065777779" lon="11.414657988384505"><ele>451.1666666666667</ele><time>2026-04-25T09:49:30Z</time></trkpt><trkpt lat="43.074226587007665" lon="11.414575811172124"><ele>452.33333333333337</ele><time>2026-04-25T09:49:31Z</time></trkpt><trkpt lat="43.07417550133552" lon="11.414515245837139"><ele>453.5</ele><time>2026-04-25T09:49:32Z</time></trkpt><trkpt lat="43.07407876297952" lon="11.414411130260149"><ele>454.6666666666667</ele><time>2026-04-25T09:49:34Z</time></trkpt><trkpt lat="43.07401568546314" lon="11.414373603021847"><ele>455.83333333333337</ele><time>2026-04-25T09:49:35Z</time></trkpt><trkpt lat="43.07394665041186" lon="11.414358452023354"><ele>457.0</ele><time>2026-04-25T09:49:36Z</time></trkpt><trkpt lat="43.073868274200315" lon="11.414345866749885"><ele>459.20000000000005</ele><time>2026-04-25T09:49:37Z</time></trkpt><trkpt lat="43.07377976355013" lon="11.414341071718253"><ele>461.40000000000003</ele><time>2026-04-25T09:49:38Z</time></trkpt><trkpt lat="43.073688373587515" lon="11.414338975623739"><ele>463.59999999999997</ele><time>2026-04-25T09:49:39Z</time></trkpt><trkpt lat="43.0735900122569" lon="11.414351820007463"><ele>465.79999999999995</ele><time>2026-04-25T09:49:40Z</time></trkpt><trkpt lat="43.07348856593991" lon="11.41432670988855"><ele>468.0</ele><time>2026-04-25T09:49:41Z</time></trkpt><trkpt lat="43.07338541673542" lon="11.414297543380176"><ele>468.0</ele><time>2026-04-25T09:49:42Z</time></trkpt><trkpt lat="43.07327514588051" lon="11.414266047022842"><ele>468.0</ele><time>2026-04-25T09:49:43Z</time></trkpt><trkpt lat="43.07315867170463" lon="11.414246746039293"><ele>468.0</ele><time>2026-04-25T09:49:44Z</time></trkpt><trkpt lat="43.073035132962445" lon="11.414249104048398"><ele>468.0</ele><time>2026-04-25T09:49:45Z</time></trkpt><trkpt lat="43.072911303199795" lon="11.414267748372492"><ele>469.4</ele><time>2026-04-25T09:49:46Z</time></trkpt><trkpt lat="43.07279932322091" lon="11.414254261331621"><ele>470.79999999999995</ele><time>2026-04-25T09:49:47Z</time></trkpt><trkpt lat="43.072692720329734" lon="11.414248552843803"><ele>472.2</ele><time>2026-04-25T09:49:48Z</time></trkpt><trkpt lat="43.07258897352969" lon="11.414245659678992"><ele>473.6</ele><time>2026-04-25T09:49:49Z</time></trkpt><trkpt lat="43.07248538925404" lon="11.414193361433865"><ele>475.0</ele><time>2026-04-25T09:49:50Z</time></trkpt><trkpt lat="43.07238637189934" lon="11.414132237701988"><ele>475.0</ele><time>2026-04-25T09:49:51Z</time></trkpt><trkpt lat="43.072294974463645" lon="11.414068774185463"><ele>475.0</ele><time>2026-04-25T09:49:52Z</time></trkpt><trkpt lat="43.072209893787075" lon="11.414006413655779"><ele>475.0</ele><time>2026-04-25T09:49:53Z</time></trkpt><trkpt lat="43.072123674552365" lon="11.413924794069013"><ele>475.0</ele><time>2026-04-25T09:49:54Z</time></trkpt><trkpt lat="43.07201130195374" lon="11.413895442374328"><ele>475.0</ele><time>2026-04-25T09:49:55Z</time></trkpt><trkpt lat="43.07190547275156" lon="11.41386179942793"><ele>475.0</ele><time>2026-04-25T09:49:56Z</time></trkpt><trkpt lat="43.071810077108914" lon="11.413822688070471"><ele>475.0</ele><time>2026-04-25T09:49:57Z</time></trkpt><trkpt lat="43.0717174286411" lon="11.413753915717864"><ele>475.0</ele><time>2026-04-25T09:49:58Z</time></trkpt><trkpt lat="43.071627055077805" lon="11.413666577226657"><ele>475.0</ele><time>2026-04-25T09:49:59Z</time></trkpt><trkpt lat="43.07154203436208" lon="11.413593229553804"><ele>475.0</ele><time>2026-04-25T09:50:00Z</time></trkpt><trkpt lat="43.07145049998712" lon="11.413541837796874"><ele>477.2</ele><time>2026-04-25T09:50:01Z</time></trkpt><trkpt lat="43.071351711127754" lon="11.413494174732199"><ele>479.4</ele><time>2026-04-25T09:50:02Z</time></trkpt><trkpt lat="43.071238675164146" lon="11.413548728256721"><ele>481.6</ele><time>2026-04-25T09:50:03Z</time></trkpt><trkpt lat="43.07113524576224" lon="11.413597211416969"><ele>483.8</ele><time>2026-04-25T09:50:04Z</time></trkpt><trkpt lat="43.07104287177918" lon="11.413587033257642"><ele>486.0</ele><time>2026-04-25T09:50:05Z</time></trkpt><trkpt lat="43.070951523384174" lon="11.413574765142199"><ele>486.0</ele><time>2026-04-25T09:50:06Z</time></trkpt><trkpt lat="43.07087088274969" lon="11.41348651919679"><ele>486.0</ele><time>2026-04-25T09:50:07Z</time></trkpt><trkpt lat="43.07078382193659" lon="11.413389933762474"><ele>486.0</ele><time>2026-04-25T09:50:08Z</time></trkpt><trkpt lat="43.07069530300431" lon="11.413275907843373"><ele>486.0</ele><time>2026-04-25T09:50:09Z</time></trkpt><trkpt lat="43.070607698588546" lon="11.413160015145966"><ele>487.5</ele><time>2026-04-25T09:50:10Z</time></trkpt><trkpt lat="43.0705298932186" lon="11.413055605819645"><ele>489.0</ele><time>2026-04-25T09:50:11Z</time></trkpt><trkpt lat="43.07046418409211" lon="11.412979638571693"><ele>490.5</ele><time>2026-04-25T09:50:12Z</time></trkpt><trkpt lat="43.0704088957889" lon="11.412916267051049"><ele>492.0</ele><time>2026-04-25T09:50:13Z</time></trkpt><trkpt lat="43.070347175346896" lon="11.412873130355695"><ele>493.5</ele><time>2026-04-25T09:50:14Z</time></trkpt><trkpt lat="43.07028279723337" lon="11.412859238731308"><ele>495.0</ele><time>2026-04-25T09:50:15Z</time></trkpt><trkpt lat="43.07022000929667" lon="11.412888885351263"><ele>495.0</ele><time>2026-04-25T09:50:16Z</time></trkpt><trkpt lat="43.0701481085729" lon="11.4129415531916"><ele>495.0</ele><time>2026-04-25T09:50:17Z</time></trkpt><trkpt lat="43.07010488241488" lon="11.41306463148064"><ele>495.0</ele><time>2026-04-25T09:50:18Z</time></trkpt><trkpt lat="43.07006596496608" lon="11.41318232967823"><ele>495.0</ele><time>2026-04-25T09:50:19Z</time></trkpt><trkpt lat="43.070021140039884" lon="11.413302733947537"><ele>495.0</ele><time>2026-04-25T09:50:20Z</time></trkpt><trkpt lat="43.06998242352414" lon="11.413432752693621"><ele>495.0</ele><time>2026-04-25T09:50:21Z</time></trkpt><trkpt lat="43.069967312598564" lon="11.413579254697646"><ele>495.0</ele><time>2026-04-25T09:50:22Z</time></trkpt><trkpt lat="43.06997298226098" lon="11.413721772814199"><ele>495.0</ele><time>2026-04-25T09:50:23Z</time></trkpt><trkpt lat="43.06998433120498" lon="11.413877142782683"><ele>495.0</ele><time>2026-04-25T09:50:24Z</time></trkpt><trkpt lat="43.0699985249224" lon="11.414037455156503"><ele>495.0</ele><time>2026-04-25T09:50:25Z</time></trkpt><trkpt lat="43.070005446328516" lon="11.41417073594285"><ele>494.8</ele><time>2026-04-25T09:50:26Z</time></trkpt><trkpt lat="43.07000586993244" lon="11.414288931355854"><ele>494.6</ele><time>2026-04-25T09:50:27Z</time></trkpt><trkpt lat="43.06999549708246" lon="11.414405345984962"><ele>494.4</ele><time>2026-04-25T09:50:28Z</time></trkpt><trkpt lat="43.06998326538399" lon="11.414545230190305"><ele>494.2</ele><time>2026-04-25T09:50:29Z</time></trkpt><trkpt lat="43.069919667137015" lon="11.414662935789194"><ele>494.0</ele><time>2026-04-25T09:50:30Z</time></trkpt><trkpt lat="43.06985493609268" lon="11.414796069416324"><ele>495.0</ele><time>2026-04-25T09:50:31Z</time></trkpt><trkpt lat="43.0697994760423" lon="11.414918149852067"><ele>496.0</ele><time>2026-04-25T09:50:32Z</time></trkpt><trkpt lat="43.06971961575145" lon="11.414998005314427"><ele>497.0</ele><time>2026-04-25T09:50:33Z</time></trkpt><trkpt lat="43.069617741120894" lon="11.415036295387708"><ele>498.0</ele><time>2026-04-25T09:50:34Z</time></trkpt><trkpt lat="43.069516964087725" lon="11.415102764931925"><ele>499.0</ele><time>2026-04-25T09:50:35Z</time></trkpt><trkpt lat="43.0694214777688" lon="11.415199832171496"><ele>499.0</ele><time>2026-04-25T09:50:36Z</time></trkpt><trkpt lat="43.06932287504008" lon="11.415297340728511"><ele>499.0</ele><time>2026-04-25T09:50:37Z</time></trkpt><trkpt lat="43.06923320983741" lon="11.415394744279542"><ele>499.0</ele><time>2026-04-25T09:50:38Z</time></trkpt><trkpt lat="43.069149151539094" lon="11.415470176109086"><ele>499.0</ele><time>2026-04-25T09:50:39Z</time></trkpt><trkpt lat="43.06905048494607" lon="11.415520321389664"><ele>499.0</ele><time>2026-04-25T09:50:40Z</time></trkpt><trkpt lat="43.06894192603459" lon="11.415543579748249"><ele>496.25</ele><time>2026-04-25T09:50:41Z</time></trkpt><trkpt lat="43.06882442402107" lon="11.415543509020864"><ele>493.5</ele><time>2026-04-25T09:50:42Z</time></trkpt><trkpt lat="43.06871397714709" lon="11.415604734855668"><ele>490.75</ele><time>2026-04-25T09:50:43Z</time></trkpt><trkpt lat="43.068603020467364" lon="11.415678950494154"><ele>488.0</ele><time>2026-04-25T09:50:44Z</time></trkpt><trkpt lat="43.06850105302108" lon="11.415774682893176"><ele>488.0</ele><time>2026-04-25T09:50:45Z</time></trkpt><trkpt lat="43.06840136928917" lon="11.415860349483802"><ele>487.99999999999994</ele><time>2026-04-25T09:50:46Z</time></trkpt><trkpt lat="43.068326516039555" lon="11.415979630636723"><ele>487.99999999999994</ele><time>2026-04-25T09:50:47Z</time></trkpt><trkpt lat="43.06824513374948" lon="11.416076672071249"><ele>488.0</ele><time>2026-04-25T09:50:48Z</time></trkpt><trkpt lat="43.06816761304233" lon="11.416154997540142"><ele>488.0</ele><time>2026-04-25T09:50:49Z</time></trkpt><trkpt lat="43.068093742850245" lon="11.416218702212772"><ele>487.8571428571428</ele><time>2026-04-25T09:50:50Z</time></trkpt><trkpt lat="43.06802499361444" lon="11.416268606654334"><ele>487.71428571428567</ele><time>2026-04-25T09:50:51Z</time></trkpt><trkpt lat="43.06795645661727" lon="11.416313016766273"><ele>487.57142857142856</ele><time>2026-04-25T09:50:52Z</time></trkpt><trkpt lat="43.06789209021013" lon="11.416356064769055"><ele>487.4285714285714</ele><time>2026-04-25T09:50:53Z</time></trkpt><trkpt lat="43.067835337937645" lon="11.416405307223847"><ele>487.2857142857142</ele><time>2026-04-25T09:50:54Z</time></trkpt><trkpt lat="43.06778363416978" lon="11.41647209110474"><ele>487.14285714285717</ele><time>2026-04-25T09:50:55Z</time></trkpt><trkpt lat="43.067748677082314" lon="11.416559697530232"><ele>487.0</ele><time>2026-04-25T09:50:56Z</time></trkpt><trkpt lat="43.06771720974623" lon="11.416659692663155"><ele>488.1666666666667</ele><time>2026-04-25T09:50:57Z</time></trkpt><trkpt lat="43.06769241872647" lon="11.416764634232619"><ele>489.33333333333337</ele><time>2026-04-25T09:50:58Z</time></trkpt><trkpt lat="43.06766027310474" lon="11.416881548463616"><ele>490.5</ele><time>2026-04-25T09:50:59Z</time></trkpt><trkpt lat="43.06760001487106" lon="11.416979378069664"><ele>491.66666666666663</ele><time>2026-04-25T09:51:00Z</time></trkpt><trkpt lat="43.0675453247764" lon="11.417081992650795"><ele>492.8333333333333</ele><time>2026-04-25T09:51:01Z</time></trkpt><trkpt lat="43.067490846843285" lon="11.417178405005737"><ele>494.0</ele><time>2026-04-25T09:51:02Z</time></trkpt><trkpt lat="43.06744048038378" lon="11.417262457644584"><ele>495.66666666666663</ele><time>2026-04-25T09:51:03Z</time></trkpt><trkpt lat="43.06739555387887" lon="11.417332608214535"><ele>497.3333333333333</ele><time>2026-04-25T09:51:04Z</time></trkpt><trkpt lat="43.06734303813529" lon="11.417403453267145"><ele>499.0</ele><time>2026-04-25T09:51:05Z</time></trkpt><trkpt lat="43.067275673645625" lon="11.417470509194018"><ele>500.66666666666663</ele><time>2026-04-25T09:51:06Z</time></trkpt><trkpt lat="43.067187802376374" lon="11.417527977628788"><ele>502.3333333333333</ele><time>2026-04-25T09:51:07Z</time></trkpt><trkpt lat="43.06709176148083" lon="11.417569493126045"><ele>504.0</ele><time>2026-04-25T09:51:08Z</time></trkpt><trkpt lat="43.066995859880755" lon="11.417597243456946"><ele>504.0</ele><time>2026-04-25T09:51:09Z</time></trkpt><trkpt lat="43.066903713736025" lon="11.41763236226234"><ele>504.0</ele><time>2026-04-25T09:51:10Z</time></trkpt><trkpt lat="43.066835901475564" lon="11.41768170137252"><ele>504.0</ele><time>2026-04-25T09:51:11Z</time></trkpt><trkpt lat="43.06675915085756" lon="11.417773978734266"><ele>504.0</ele><time>2026-04-25T09:51:12Z</time></trkpt><trkpt lat="43.066710569108345" lon="11.417907083112869"><ele>504.0</ele><time>2026-04-25T09:51:13Z</time></trkpt><trkpt lat="43.06666638227557" lon="11.41804114704222"><ele>502.25</ele><time>2026-04-25T09:51:14Z</time></trkpt><trkpt lat="43.06663488177787" lon="11.418215940210356"><ele>500.5</ele><time>2026-04-25T09:51:15Z</time></trkpt><trkpt lat="43.0665887612268" lon="11.418403048159837"><ele>498.75</ele><time>2026-04-25T09:51:16Z</time></trkpt><trkpt lat="43.066562361119" lon="11.418586696696359"><ele>497.0</ele><time>2026-04-25T09:51:17Z</time></trkpt><trkpt lat="43.06655049934407" lon="11.418762181149887"><ele>493.0</ele><time>2026-04-25T09:51:18Z</time></trkpt><trkpt lat="43.06654716119515" lon="11.418932410191854"><ele>489.0</ele><time>2026-04-25T09:51:19Z</time></trkpt><trkpt lat="43.066552622828965" lon="11.41910361320166"><ele>485.0</ele><time>2026-04-25T09:51:20Z</time></trkpt><trkpt lat="43.066541566292535" lon="11.419279895824578"><ele>481.0</ele><time>2026-04-25T09:51:21.001Z</time></trkpt><trkpt lat="43.06656481946384" lon="11.419438134146384"><ele>481.0</ele><time>2026-04-25T09:51:22.001Z</time></trkpt><trkpt lat="43.06657137595052" lon="11.419584731305047"><ele>481.0</ele><time>2026-04-25T09:51:23.001Z</time></trkpt><trkpt lat="43.066571800596954" lon="11.419723251946579"><ele>481.0</ele><time>2026-04-25T09:51:24.001Z</time></trkpt><trkpt lat="43.066543478349374" lon="11.419853950982175"><ele>481.0</ele><time>2026-04-25T09:51:25.001Z</time></trkpt><trkpt lat="43.06651674820038" lon="11.419979780197295"><ele>481.0</ele><time>2026-04-25T09:51:26.001Z</time></trkpt><trkpt lat="43.06646891737242" lon="11.420089789332346"><ele>482.0</ele><time>2026-04-25T09:51:27.001Z</time></trkpt><trkpt lat="43.06639475410671" lon="11.420213889814047"><ele>483.0</ele><time>2026-04-25T09:51:28.001Z</time></trkpt><trkpt lat="43.06632811308439" lon="11.420372101475008"><ele>484.0</ele><time>2026-04-25T09:51:29.001Z</time></trkpt><trkpt lat="43.06625658044104" lon="11.420528985076432"><ele>485.0</ele><time>2026-04-25T09:51:30.001Z</time></trkpt><trkpt lat="43.06616919873909" lon="11.420703397056425"><ele>487.3333333333333</ele><time>2026-04-25T09:51:31.001Z</time></trkpt><trkpt lat="43.06607666139283" lon="11.42087559741905"><ele>489.66666666666663</ele><time>2026-04-25T09:51:32.001Z</time></trkpt><trkpt lat="43.06597652913945" lon="11.421048021947835"><ele>492.0</ele><time>2026-04-25T09:51:33.001Z</time></trkpt><trkpt lat="43.0658799492127" lon="11.421211497104517"><ele>493.25</ele><time>2026-04-25T09:51:34.001Z</time></trkpt><trkpt lat="43.06581289118748" lon="11.421384424962836"><ele>494.5</ele><time>2026-04-25T09:51:35.001Z</time></trkpt><trkpt lat="43.06573984722688" lon="11.421540272490889"><ele>495.75</ele><time>2026-04-25T09:51:36.001Z</time></trkpt><trkpt lat="43.065680364345226" lon="11.421666958867409"><ele>497.0</ele><time>2026-04-25T09:51:37.001Z</time></trkpt><trkpt lat="43.06561461514024" lon="11.421762923166446"><ele>494.8</ele><time>2026-04-25T09:51:38.001Z</time></trkpt><trkpt lat="43.06552978598769" lon="11.421847838974672"><ele>492.6</ele><time>2026-04-25T09:51:39.001Z</time></trkpt><trkpt lat="43.0654404369725" lon="11.421927854889677"><ele>490.40000000000003</ele><time>2026-04-25T09:51:40.001Z</time></trkpt><trkpt lat="43.06535609651769" lon="11.422015309583145"><ele>488.20000000000005</ele><time>2026-04-25T09:51:41.001Z</time></trkpt><trkpt lat="43.06526453920182" lon="11.422080538363705"><ele>486.0</ele><time>2026-04-25T09:51:42.001Z</time></trkpt><trkpt lat="43.0651764465314" lon="11.422144646529276"><ele>486.0</ele><time>2026-04-25T09:51:43.001Z</time></trkpt><trkpt lat="43.065084832733476" lon="11.422203903692669"><ele>486.0</ele><time>2026-04-25T09:51:44.001Z</time></trkpt><trkpt lat="43.06496932909385" lon="11.422217144259404"><ele>486.0</ele><time>2026-04-25T09:51:45.001Z</time></trkpt><trkpt lat="43.064854299812964" lon="11.422223524156925"><ele>486.0</ele><time>2026-04-25T09:51:46.001Z</time></trkpt><trkpt lat="43.064738986820146" lon="11.422202745215566"><ele>486.0</ele><time>2026-04-25T09:51:47.001Z</time></trkpt><trkpt lat="43.0646147334138" lon="11.422190574417822"><ele>486.0</ele><time>2026-04-25T09:51:48.001Z</time></trkpt><trkpt lat="43.06448980093757" lon="11.422156651260865"><ele>486.0</ele><time>2026-04-25T09:51:49.001Z</time></trkpt><trkpt lat="43.06435507021839" lon="11.422124547799491"><ele>486.0</ele><time>2026-04-25T09:51:50.001Z</time></trkpt><trkpt lat="43.064241568685745" lon="11.422051749963904"><ele>486.0</ele><time>2026-04-25T09:51:51.001Z</time></trkpt><trkpt lat="43.06413986209027" lon="11.422002309292417"><ele>483.20000000000005</ele><time>2026-04-25T09:51:52.001Z</time></trkpt><trkpt lat="43.06404389125555" lon="11.421972310225014"><ele>480.40000000000003</ele><time>2026-04-25T09:51:53.001Z</time></trkpt><trkpt lat="43.06395243969917" lon="11.421945884106224"><ele>477.6</ele><time>2026-04-25T09:51:54.001Z</time></trkpt><trkpt lat="43.06386228212569" lon="11.421955448707148"><ele>474.8</ele><time>2026-04-25T09:51:55.001Z</time></trkpt><trkpt lat="43.063761199710086" lon="11.421976566855475"><ele>472.0</ele><time>2026-04-25T09:51:56.001Z</time></trkpt><trkpt lat="43.06367210328766" lon="11.421971627445316"><ele>472.00000000000006</ele><time>2026-04-25T09:51:57.001Z</time></trkpt><trkpt lat="43.0635956113264" lon="11.421993652802483"><ele>472.0</ele><time>2026-04-25T09:51:58.001Z</time></trkpt><trkpt lat="43.063530802136746" lon="11.422040258235281"><ele>472.0</ele><time>2026-04-25T09:51:59.001Z</time></trkpt><trkpt lat="43.06347667093081" lon="11.422106980833398"><ele>472.0</ele><time>2026-04-25T09:52:00.001Z</time></trkpt><trkpt lat="43.06345240546261" lon="11.422199168390682"><ele>472.00000000000006</ele><time>2026-04-25T09:52:01.001Z</time></trkpt><trkpt lat="43.0634729434897" lon="11.422312522017014"><ele>472.0</ele><time>2026-04-25T09:52:02.001Z</time></trkpt><trkpt lat="43.063501876695014" lon="11.422432959248955"><ele>472.0</ele><time>2026-04-25T09:52:03.001Z</time></trkpt><trkpt lat="43.06354298388865" lon="11.422560285893695"><ele>472.00000000000006</ele><time>2026-04-25T09:52:04.001Z</time></trkpt><trkpt lat="43.063571796878776" lon="11.422681562718157"><ele>472.00000000000006</ele><time>2026-04-25T09:52:05.001Z</time></trkpt><trkpt lat="43.06356695790215" lon="11.422804968767485"><ele>472.0</ele><time>2026-04-25T09:52:06.001Z</time></trkpt><trkpt lat="43.06351640571674" lon="11.42293453912274"><ele>472.0</ele><time>2026-04-25T09:52:07.001Z</time></trkpt><trkpt lat="43.063446179023074" lon="11.423054137272057"><ele>471.40000000000003</ele><time>2026-04-25T09:52:08.001Z</time></trkpt><trkpt lat="43.06340583700002" lon="11.423189182716524"><ele>470.80000000000007</ele><time>2026-04-25T09:52:09.001Z</time></trkpt><trkpt lat="43.06335007128483" lon="11.423297206186588"><ele>470.2</ele><time>2026-04-25T09:52:10.001Z</time></trkpt><trkpt lat="43.06331987762694" lon="11.423413194996584"><ele>469.6</ele><time>2026-04-25T09:52:11.001Z</time></trkpt><trkpt lat="43.06331101086366" lon="11.423532520156412"><ele>469.0</ele><time>2026-04-25T09:52:12.001Z</time></trkpt><trkpt lat="43.063343281658824" lon="11.42364773497907"><ele>469.00000000000006</ele><time>2026-04-25T09:52:13.001Z</time></trkpt><trkpt lat="43.06337174215062" lon="11.423758954373398"><ele>469.0</ele><time>2026-04-25T09:52:14.001Z</time></trkpt><trkpt lat="43.063395215980336" lon="11.423865047292756"><ele>469.0</ele><time>2026-04-25T09:52:15.001Z</time></trkpt><trkpt lat="43.0634114889898" lon="11.42397032806775"><ele>469.0</ele><time>2026-04-25T09:52:16.001Z</time></trkpt><trkpt lat="43.063392911566865" lon="11.424067494868993"><ele>469.00000000000006</ele><time>2026-04-25T09:52:17.001Z</time></trkpt><trkpt lat="43.063361725275826" lon="11.424182691288248"><ele>469.0</ele><time>2026-04-25T09:52:18.001Z</time></trkpt><trkpt lat="43.063304504643874" lon="11.424322692687776"><ele>467.25</ele><time>2026-04-25T09:52:19.001Z</time></trkpt><trkpt lat="43.06326212113649" lon="11.424497576880906"><ele>465.5</ele><time>2026-04-25T09:52:20.001Z</time></trkpt><trkpt lat="43.06324646268612" lon="11.424668788441346"><ele>463.75</ele><time>2026-04-25T09:52:21.001Z</time></trkpt><trkpt lat="43.06323504224089" lon="11.424823236197856"><ele>462.0</ele><time>2026-04-25T09:52:22.001Z</time></trkpt><trkpt lat="43.06319784646961" lon="11.42495691905536"><ele>462.0</ele><time>2026-04-25T09:52:23.001Z</time></trkpt><trkpt lat="43.06315889222763" lon="11.425087609469577"><ele>462.0</ele><time>2026-04-25T09:52:24.001Z</time></trkpt><trkpt lat="43.063090808984704" lon="11.425225079629662"><ele>462.0</ele><time>2026-04-25T09:52:25.001Z</time></trkpt><trkpt lat="43.06300607998455" lon="11.425354949038844"><ele>462.0</ele><time>2026-04-25T09:52:26.001Z</time></trkpt><trkpt lat="43.062935211900665" lon="11.425489150537883"><ele>463.0</ele><time>2026-04-25T09:52:27.001Z</time></trkpt><trkpt lat="43.06287106856272" lon="11.425609790015315"><ele>464.0</ele><time>2026-04-25T09:52:28.001Z</time></trkpt><trkpt lat="43.06283514214431" lon="11.425749863004386"><ele>465.0</ele><time>2026-04-25T09:52:29.001Z</time></trkpt><trkpt lat="43.06281832582529" lon="11.425915407944467"><ele>466.0</ele><time>2026-04-25T09:52:30.001Z</time></trkpt><trkpt lat="43.06281789002913" lon="11.426085770282516"><ele>466.0</ele><time>2026-04-25T09:52:31.001Z</time></trkpt><trkpt lat="43.06282015546013" lon="11.42625172965965"><ele>466.0</ele><time>2026-04-25T09:52:32.001Z</time></trkpt><trkpt lat="43.062834504925604" lon="11.426418252937177"><ele>466.0</ele><time>2026-04-25T09:52:33.001Z</time></trkpt><trkpt lat="43.06285817802877" lon="11.426594001460135"><ele>466.0</ele><time>2026-04-25T09:52:34.001Z</time></trkpt><trkpt lat="43.06288809791263" lon="11.426759344593151"><ele>466.0</ele><time>2026-04-25T09:52:35.001Z</time></trkpt><trkpt lat="43.06290990510693" lon="11.42691707981425"><ele>466.0</ele><time>2026-04-25T09:52:36.001Z</time></trkpt><trkpt lat="43.062907265224545" lon="11.427057829078034"><ele>466.0</ele><time>2026-04-25T09:52:37.001Z</time></trkpt><trkpt lat="43.06285692417131" lon="11.427163576940154"><ele>466.0</ele><time>2026-04-25T09:52:38.001Z</time></trkpt><trkpt lat="43.06280904781821" lon="11.427255799435656"><ele>466.0</ele><time>2026-04-25T09:52:39.001Z</time></trkpt><trkpt lat="43.06272438888853" lon="11.427343964938176"><ele>466.0</ele><time>2026-04-25T09:52:40.001Z</time></trkpt><trkpt lat="43.06261614252771" lon="11.427411922117978"><ele>466.0</ele><time>2026-04-25T09:52:41.001Z</time></trkpt><trkpt lat="43.062505464670565" lon="11.427456478214689"><ele>466.0</ele><time>2026-04-25T09:52:42.001Z</time></trkpt><trkpt lat="43.062387344715084" lon="11.427498841771552"><ele>466.0</ele><time>2026-04-25T09:52:43.001Z</time></trkpt><trkpt lat="43.06226041200263" lon="11.427552199414915"><ele>467.0</ele><time>2026-04-25T09:52:44.001Z</time></trkpt><trkpt lat="43.062132540560484" lon="11.427597605995443"><ele>468.0</ele><time>2026-04-25T09:52:45.001Z</time></trkpt><trkpt lat="43.06200366895626" lon="11.427600131958394"><ele>469.0</ele><time>2026-04-25T09:52:46.001Z</time></trkpt><trkpt lat="43.061899951474985" lon="11.427592514631236"><ele>470.0</ele><time>2026-04-25T09:52:47.001Z</time></trkpt><trkpt lat="43.06180258433811" lon="11.427583824861006"><ele>470.0</ele><time>2026-04-25T09:52:48.001Z</time></trkpt><trkpt lat="43.061707754699306" lon="11.427519628910765"><ele>470.0</ele><time>2026-04-25T09:52:49.001Z</time></trkpt><trkpt lat="43.061618870577384" lon="11.42743469516561"><ele>470.0</ele><time>2026-04-25T09:52:50.001Z</time></trkpt><trkpt lat="43.06153064792431" lon="11.427362187543322"><ele>470.0</ele><time>2026-04-25T09:52:51.001Z</time></trkpt><trkpt lat="43.061423692882464" lon="11.427333659740706"><ele>470.0</ele><time>2026-04-25T09:52:52.001Z</time></trkpt><trkpt lat="43.0613086270786" lon="11.42734791376833"><ele>470.2</ele><time>2026-04-25T09:52:53.001Z</time></trkpt><trkpt lat="43.061189628816116" lon="11.427405064362514"><ele>470.4</ele><time>2026-04-25T09:52:54Z</time></trkpt><trkpt lat="43.06106955992295" lon="11.427427788471798"><ele>470.6</ele><time>2026-04-25T09:52:55Z</time></trkpt><trkpt lat="43.0609710006082" lon="11.427487867946784"><ele>470.8</ele><time>2026-04-25T09:52:56Z</time></trkpt><trkpt lat="43.06088009837228" lon="11.427493745136136"><ele>471.0</ele><time>2026-04-25T09:52:57Z</time></trkpt><trkpt lat="43.06080328493667" lon="11.427462822966653"><ele>472.3333333333333</ele><time>2026-04-25T09:52:58Z</time></trkpt><trkpt lat="43.06072186895479" lon="11.427401098606692"><ele>473.66666666666663</ele><time>2026-04-25T09:52:59Z</time></trkpt><trkpt lat="43.06063664167835" lon="11.42732952330179"><ele>475.0</ele><time>2026-04-25T09:53:00Z</time></trkpt><trkpt lat="43.06055549804218" lon="11.427271264296103"><ele>476.3333333333333</ele><time>2026-04-25T09:53:01Z</time></trkpt><trkpt lat="43.0604851085241" lon="11.427212358490314"><ele>477.66666666666663</ele><time>2026-04-25T09:53:02Z</time></trkpt><trkpt lat="43.06041982748365" lon="11.427195714233582"><ele>479.0</ele><time>2026-04-25T09:53:03Z</time></trkpt><trkpt lat="43.06030652863953" lon="11.427293288838479"><ele>478.99999999999994</ele><time>2026-04-25T09:53:05Z</time></trkpt><trkpt lat="43.06029316836922" lon="11.427407619590312"><ele>479.0</ele><time>2026-04-25T09:53:06Z</time></trkpt><trkpt lat="43.06028850196455" lon="11.427520519479138"><ele>479.0</ele><time>2026-04-25T09:53:07Z</time></trkpt><trkpt lat="43.06027639258644" lon="11.427616053650363"><ele>479.0</ele><time>2026-04-25T09:53:08Z</time></trkpt><trkpt lat="43.060240616503116" lon="11.42769273217712"><ele>478.99999999999994</ele><time>2026-04-25T09:53:09Z</time></trkpt><trkpt lat="43.060177510714766" lon="11.427751986317116"><ele>479.0</ele><time>2026-04-25T09:53:10Z</time></trkpt><trkpt lat="43.060107342168706" lon="11.427792540684612"><ele>478.99999999999994</ele><time>2026-04-25T09:53:11Z</time></trkpt><trkpt lat="43.06003313241723" lon="11.427834494042886"><ele>479.0</ele><time>2026-04-25T09:53:12Z</time></trkpt><trkpt lat="43.0599570488504" lon="11.427875048107317"><ele>479.0</ele><time>2026-04-25T09:53:13.001Z</time></trkpt><trkpt lat="43.05988453518682" lon="11.427894257690571"><ele>479.0</ele><time>2026-04-25T09:53:14Z</time></trkpt><trkpt lat="43.05976273579217" lon="11.427860127775908"><ele>478.99999999999994</ele><time>2026-04-25T09:53:16Z</time></trkpt><trkpt lat="43.05972020088777" lon="11.42776930764294"><ele>479.0</ele><time>2026-04-25T09:53:17Z</time></trkpt><trkpt lat="43.05964239650691" lon="11.427687538498347"><ele>480.0</ele><time>2026-04-25T09:53:18Z</time></trkpt><trkpt lat="43.05957011004299" lon="11.427561182936303"><ele>481.0</ele><time>2026-04-25T09:53:19Z</time></trkpt><trkpt lat="43.05949591249685" lon="11.42744051894284"><ele>482.0</ele><time>2026-04-25T09:53:20Z</time></trkpt><trkpt lat="43.05942737131313" lon="11.427347261799863"><ele>483.0</ele><time>2026-04-25T09:53:21.001Z</time></trkpt><trkpt lat="43.05936387313003" lon="11.42728547402008"><ele>484.0</ele><time>2026-04-25T09:53:22.001Z</time></trkpt><trkpt lat="43.05931812999835" lon="11.427218678105644"><ele>484.00000000000006</ele><time>2026-04-25T09:53:23.001Z</time></trkpt><trkpt lat="43.059251300642245" lon="11.42719043075568"><ele>484.0</ele><time>2026-04-25T09:53:24.001Z</time></trkpt><trkpt lat="43.059173923990166" lon="11.427194505758992"><ele>484.0</ele><time>2026-04-25T09:53:25.001Z</time></trkpt><trkpt lat="43.05910762219455" lon="11.427276368119895"><ele>484.0</ele><time>2026-04-25T09:53:26.001Z</time></trkpt><trkpt lat="43.059028428728915" lon="11.4273989635753"><ele>484.00000000000006</ele><time>2026-04-25T09:53:28.001Z</time></trkpt><trkpt lat="43.05899575874989" lon="11.427485302340166"><ele>484.0</ele><time>2026-04-25T09:53:29.001Z</time></trkpt><trkpt lat="43.059028097575606" lon="11.42758952974726"><ele>484.0</ele><time>2026-04-25T09:53:30.001Z</time></trkpt><trkpt lat="43.05906664291769" lon="11.42769734783149"><ele>484.0</ele><time>2026-04-25T09:53:31.001Z</time></trkpt><trkpt lat="43.0591069873191" lon="11.427825791578027"><ele>484.0</ele><time>2026-04-25T09:53:32.001Z</time></trkpt><trkpt lat="43.059155839194844" lon="11.427964456385183"><ele>484.0</ele><time>2026-04-25T09:53:33.001Z</time></trkpt><trkpt lat="43.059190922234315" lon="11.428089240202233"><ele>484.0</ele><time>2026-04-25T09:53:34.001Z</time></trkpt><trkpt lat="43.059197497391686" lon="11.428200278120109"><ele>483.2857142857143</ele><time>2026-04-25T09:53:35.001Z</time></trkpt><trkpt lat="43.05917342664121" lon="11.428287591029559"><ele>482.57142857142856</ele><time>2026-04-25T09:53:36.001Z</time></trkpt><trkpt lat="43.05912602286539" lon="11.428350561655375"><ele>481.85714285714283</ele><time>2026-04-25T09:53:37.001Z</time></trkpt><trkpt lat="43.05906391761713" lon="11.428386523410152"><ele>481.1428571428571</ele><time>2026-04-25T09:53:38.001Z</time></trkpt><trkpt lat="43.05898961552291" lon="11.42835906366326"><ele>480.42857142857144</ele><time>2026-04-25T09:53:39.001Z</time></trkpt><trkpt lat="43.05891814066201" lon="11.428402184325876"><ele>479.71428571428567</ele><time>2026-04-25T09:53:40.001Z</time></trkpt><trkpt lat="43.05885316005098" lon="11.428445904755955"><ele>479.0</ele><time>2026-04-25T09:53:41.001Z</time></trkpt><trkpt lat="43.05878458491167" lon="11.428525967312808"><ele>480.75</ele><time>2026-04-25T09:53:42.001Z</time></trkpt><trkpt lat="43.05870893314247" lon="11.428618443034077"><ele>482.5</ele><time>2026-04-25T09:53:43.001Z</time></trkpt><trkpt lat="43.05863789017684" lon="11.428737210839115"><ele>484.25</ele><time>2026-04-25T09:53:44.001Z</time></trkpt><trkpt lat="43.05857887956555" lon="11.428887378029575"><ele>486.0</ele><time>2026-04-25T09:53:45.001Z</time></trkpt><trkpt lat="43.05852005224369" lon="11.429061305161479"><ele>486.0</ele><time>2026-04-25T09:53:46.001Z</time></trkpt><trkpt lat="43.05845818624857" lon="11.429250891685177"><ele>486.0</ele><time>2026-04-25T09:53:47.001Z</time></trkpt><trkpt lat="43.05839776880066" lon="11.429451792315305"><ele>486.0</ele><time>2026-04-25T09:53:48.001Z</time></trkpt><trkpt lat="43.05834737491051" lon="11.429676135203675"><ele>486.0</ele><time>2026-04-25T09:53:49.001Z</time></trkpt><trkpt lat="43.058306696128895" lon="11.429898509809403"><ele>486.0</ele><time>2026-04-25T09:53:50.001Z</time></trkpt><trkpt lat="43.05827753247875" lon="11.430068719059088"><ele>486.0</ele><time>2026-04-25T09:53:51.001Z</time></trkpt><trkpt lat="43.05826047338161" lon="11.430199079231567"><ele>486.0</ele><time>2026-04-25T09:53:52.001Z</time></trkpt><trkpt lat="43.05826284243882" lon="11.430344327261375"><ele>485.8333333333333</ele><time>2026-04-25T09:53:53.001Z</time></trkpt><trkpt lat="43.0582819367418" lon="11.430485008279744"><ele>485.66666666666663</ele><time>2026-04-25T09:53:54.001Z</time></trkpt><trkpt lat="43.05829606938003" lon="11.430610275397568"><ele>485.5</ele><time>2026-04-25T09:53:55.001Z</time></trkpt><trkpt lat="43.05828582564628" lon="11.430720141008182"><ele>485.3333333333333</ele><time>2026-04-25T09:53:56.001Z</time></trkpt><trkpt lat="43.05825546078389" lon="11.430820960884104"><ele>485.16666666666663</ele><time>2026-04-25T09:53:57.001Z</time></trkpt><trkpt lat="43.05820190315981" lon="11.430908164190694"><ele>485.0</ele><time>2026-04-25T09:53:58.001Z</time></trkpt><trkpt lat="43.05812374315018" lon="11.430983609170823"><ele>483.75</ele><time>2026-04-25T09:53:59.001Z</time></trkpt><trkpt lat="43.05802232115122" lon="11.431050515718852"><ele>482.5</ele><time>2026-04-25T09:54:00.001Z</time></trkpt><trkpt lat="43.057907205056125" lon="11.431126673915049"><ele>481.25</ele><time>2026-04-25T09:54:01.001Z</time></trkpt><trkpt lat="43.0577834304926" lon="11.431208953046186"><ele>480.0</ele><time>2026-04-25T09:54:02.001Z</time></trkpt><trkpt lat="43.05764851351854" lon="11.431270815315727"><ele>482.0</ele><time>2026-04-25T09:54:03.001Z</time></trkpt><trkpt lat="43.05753185932419" lon="11.431370733699367"><ele>484.0</ele><time>2026-04-25T09:54:04.001Z</time></trkpt><trkpt lat="43.05743685100881" lon="11.431507008796299"><ele>486.0</ele><time>2026-04-25T09:54:05.001Z</time></trkpt><trkpt lat="43.05734067009848" lon="11.431629494360818"><ele>488.0</ele><time>2026-04-25T09:54:06.001Z</time></trkpt><trkpt lat="43.05725330833334" lon="11.431752571689515"><ele>488.25</ele><time>2026-04-25T09:54:07.001Z</time></trkpt><trkpt lat="43.05717797886637" lon="11.431873430248352"><ele>488.5</ele><time>2026-04-25T09:54:08.001Z</time></trkpt><trkpt lat="43.05710395583395" lon="11.432010643671388"><ele>488.75</ele><time>2026-04-25T09:54:09.001Z</time></trkpt><trkpt lat="43.057024852195" lon="11.43217362443052"><ele>489.0</ele><time>2026-04-25T09:54:10.001Z</time></trkpt><trkpt lat="43.05693556966084" lon="11.4323558830975"><ele>489.33333333333337</ele><time>2026-04-25T09:54:11.001Z</time></trkpt><trkpt lat="43.056835012372595" lon="11.432537962048185"><ele>489.6666666666667</ele><time>2026-04-25T09:54:12.001Z</time></trkpt><trkpt lat="43.05671600621311" lon="11.432714671730631"><ele>490.0</ele><time>2026-04-25T09:54:13.001Z</time></trkpt><trkpt lat="43.05660872963036" lon="11.432860576184538"><ele>491.4</ele><time>2026-04-25T09:54:14.001Z</time></trkpt><trkpt lat="43.05652534847746" lon="11.432992424092983"><ele>492.8</ele><time>2026-04-25T09:54:15.001Z</time></trkpt><trkpt lat="43.05645959793637" lon="11.433091552209223"><ele>494.20000000000005</ele><time>2026-04-25T09:54:16.001Z</time></trkpt><trkpt lat="43.056381469398886" lon="11.433134669154455"><ele>495.6</ele><time>2026-04-25T09:54:17.001Z</time></trkpt><trkpt lat="43.05629103311641" lon="11.433209744443264"><ele>497.0</ele><time>2026-04-25T09:54:18.001Z</time></trkpt><trkpt lat="43.056173592954316" lon="11.433261510038909"><ele>497.0</ele><time>2026-04-25T09:54:19.001Z</time></trkpt><trkpt lat="43.056041321944235" lon="11.433318901939424"><ele>497.0</ele><time>2026-04-25T09:54:20.001Z</time></trkpt><trkpt lat="43.05590161159431" lon="11.433369795040795"><ele>497.0</ele><time>2026-04-25T09:54:21.001Z</time></trkpt><trkpt lat="43.05577737650987" lon="11.433412294649546"><ele>497.0</ele><time>2026-04-25T09:54:22.001Z</time></trkpt><trkpt lat="43.05567789076427" lon="11.43342853591688"><ele>496.8333333333333</ele><time>2026-04-25T09:54:23.001Z</time></trkpt><trkpt lat="43.055609756471185" lon="11.433486474233984"><ele>496.66666666666663</ele><time>2026-04-25T09:54:24.001Z</time></trkpt><trkpt lat="43.05553930431241" lon="11.433527607377426"><ele>496.5</ele><time>2026-04-25T09:54:25.001Z</time></trkpt><trkpt lat="43.05547272225967" lon="11.433578782965181"><ele>496.33333333333337</ele><time>2026-04-25T09:54:26.001Z</time></trkpt><trkpt lat="43.0553898153146" lon="11.433633397904336"><ele>496.1666666666667</ele><time>2026-04-25T09:54:27.001Z</time></trkpt><trkpt lat="43.055286655210494" lon="11.43367852781522"><ele>496.0</ele><time>2026-04-25T09:54:28.001Z</time></trkpt><trkpt lat="43.05516876343442" lon="11.433709430956712"><ele>496.0</ele><time>2026-04-25T09:54:29.001Z</time></trkpt><trkpt lat="43.055044049489716" lon="11.433738708005915"><ele>496.0</ele><time>2026-04-25T09:54:30.001Z</time></trkpt><trkpt lat="43.05490704992474" lon="11.433793795926348"><ele>496.0</ele><time>2026-04-25T09:54:31.001Z</time></trkpt><trkpt lat="43.05478065355462" lon="11.433878601098003"><ele>496.0</ele><time>2026-04-25T09:54:32.001Z</time></trkpt><trkpt lat="43.05465686511541" lon="11.433977775100992"><ele>493.5</ele><time>2026-04-25T09:54:33.001Z</time></trkpt><trkpt lat="43.054526028600705" lon="11.43405810436818"><ele>491.0</ele><time>2026-04-25T09:54:34.001Z</time></trkpt><trkpt lat="43.05439569737564" lon="11.434122907952862"><ele>488.5</ele><time>2026-04-25T09:54:35.001Z</time></trkpt><trkpt lat="43.05427118499486" lon="11.434182366501467"><ele>486.0</ele><time>2026-04-25T09:54:36.001Z</time></trkpt><trkpt lat="43.05416313947519" lon="11.434233625778985"><ele>485.6</ele><time>2026-04-25T09:54:37.001Z</time></trkpt><trkpt lat="43.05405704595516" lon="11.43426622118553"><ele>485.20000000000005</ele><time>2026-04-25T09:54:38.001Z</time></trkpt><trkpt lat="43.053947779777396" lon="11.434286376238816"><ele>484.79999999999995</ele><time>2026-04-25T09:54:39.001Z</time></trkpt><trkpt lat="43.05385378773099" lon="11.434306495495921"><ele>484.4</ele><time>2026-04-25T09:54:40.001Z</time></trkpt><trkpt lat="43.05376620598163" lon="11.434336204936866"><ele>484.0</ele><time>2026-04-25T09:54:41.001Z</time></trkpt><trkpt lat="43.053680659740856" lon="11.434379033917974"><ele>484.0</ele><time>2026-04-25T09:54:42.001Z</time></trkpt><trkpt lat="43.05359400188015" lon="11.43444762196628"><ele>484.0</ele><time>2026-04-25T09:54:43.001Z</time></trkpt><trkpt lat="43.05350463714825" lon="11.43454229717401"><ele>484.0</ele><time>2026-04-25T09:54:44.001Z</time></trkpt><trkpt lat="43.05341883472839" lon="11.434655906180694"><ele>484.0</ele><time>2026-04-25T09:54:45.001Z</time></trkpt><trkpt lat="43.05333970284043" lon="11.434788038229582"><ele>482.25</ele><time>2026-04-25T09:54:46.001Z</time></trkpt><trkpt lat="43.05328024451983" lon="11.434919528600108"><ele>480.5</ele><time>2026-04-25T09:54:47.001Z</time></trkpt><trkpt lat="43.053231647994494" lon="11.435061967750888"><ele>478.75</ele><time>2026-04-25T09:54:48.001Z</time></trkpt><trkpt lat="43.05318820037166" lon="11.435214766526883"><ele>477.0</ele><time>2026-04-25T09:54:49.001Z</time></trkpt><trkpt lat="43.05314694033945" lon="11.43536702164238"><ele>474.6</ele><time>2026-04-25T09:54:50.001Z</time></trkpt><trkpt lat="43.05312092380153" lon="11.435517940699013"><ele>472.20000000000005</ele><time>2026-04-25T09:54:51.001Z</time></trkpt><trkpt lat="43.05308636728334" lon="11.43565523231172"><ele>469.8</ele><time>2026-04-25T09:54:52.001Z</time></trkpt><trkpt lat="43.053071318199144" lon="11.435790001288355"><ele>467.4</ele><time>2026-04-25T09:54:53.001Z</time></trkpt><trkpt lat="43.053055635781284" lon="11.435922886584622"><ele>465.0</ele><time>2026-04-25T09:54:54.001Z</time></trkpt><trkpt lat="43.053039011662996" lon="11.436050593687646"><ele>465.0</ele><time>2026-04-25T09:54:55.001Z</time></trkpt><trkpt lat="43.05302270953651" lon="11.436175827569159"><ele>465.0</ele><time>2026-04-25T09:54:56.001Z</time></trkpt><trkpt lat="43.05301688909176" lon="11.436293937260443"><ele>465.0</ele><time>2026-04-25T09:54:57.001Z</time></trkpt><trkpt lat="43.05297838519371" lon="11.436400289200325"><ele>465.0</ele><time>2026-04-25T09:54:58.001Z</time></trkpt><trkpt lat="43.0529273902691" lon="11.436499812443829"><ele>465.0</ele><time>2026-04-25T09:54:59.001Z</time></trkpt><trkpt lat="43.05286315648033" lon="11.436594153713246"><ele>465.0</ele><time>2026-04-25T09:55:00Z</time></trkpt><trkpt lat="43.05278985611324" lon="11.436682665141772"><ele>465.6</ele><time>2026-04-25T09:55:01Z</time></trkpt><trkpt lat="43.05270909698838" lon="11.43675237272718"><ele>466.2</ele><time>2026-04-25T09:55:02Z</time></trkpt><trkpt lat="43.05262020813161" lon="11.43679318640308"><ele>466.79999999999995</ele><time>2026-04-25T09:55:03Z</time></trkpt><trkpt lat="43.052529927648926" lon="11.436802903018325"><ele>467.4</ele><time>2026-04-25T09:55:04Z</time></trkpt><trkpt lat="43.052439020388555" lon="11.436782189304655"><ele>468.0</ele><time>2026-04-25T09:55:05Z</time></trkpt><trkpt lat="43.05234809144323" lon="11.436754570289873"><ele>468.2</ele><time>2026-04-25T09:55:06Z</time></trkpt><trkpt lat="43.05225487510325" lon="11.43673194293797"><ele>468.4</ele><time>2026-04-25T09:55:07Z</time></trkpt><trkpt lat="43.05216944784489" lon="11.43672934413842"><ele>468.59999999999997</ele><time>2026-04-25T09:55:08Z</time></trkpt><trkpt lat="43.05208522433566" lon="11.436749917687708"><ele>468.79999999999995</ele><time>2026-04-25T09:55:09Z</time></trkpt><trkpt lat="43.05199000945646" lon="11.436784929518991"><ele>469.0</ele><time>2026-04-25T09:55:10Z</time></trkpt><trkpt lat="43.05187937110635" lon="11.436820993762657"><ele>469.00000000000006</ele><time>2026-04-25T09:55:11Z</time></trkpt><trkpt lat="43.05176376677065" lon="11.436856762581774"><ele>469.0</ele><time>2026-04-25T09:55:12Z</time></trkpt><trkpt lat="43.0516636288797" lon="11.436889103336348"><ele>469.0</ele><time>2026-04-25T09:55:13Z</time></trkpt><trkpt lat="43.05159081991211" lon="11.436930532012672"><ele>469.0</ele><time>2026-04-25T09:55:14Z</time></trkpt><trkpt lat="43.0515336218157" lon="11.43698736036246"><ele>469.00000000000006</ele><time>2026-04-25T09:55:15Z</time></trkpt><trkpt lat="43.05148743168767" lon="11.437058738377768"><ele>469.0</ele><time>2026-04-25T09:55:16Z</time></trkpt><trkpt lat="43.05144122384384" lon="11.43715124990515"><ele>469.2</ele><time>2026-04-25T09:55:17Z</time></trkpt><trkpt lat="43.05138639805233" lon="11.437257138636685"><ele>469.4</ele><time>2026-04-25T09:55:18Z</time></trkpt><trkpt lat="43.05130334433445" lon="11.437348691326266"><ele>469.6</ele><time>2026-04-25T09:55:19Z</time></trkpt><trkpt lat="43.05123056605456" lon="11.437453111289512"><ele>469.8</ele><time>2026-04-25T09:55:20Z</time></trkpt><trkpt lat="43.051125085181106" lon="11.437538293050482"><ele>470.0</ele><time>2026-04-25T09:55:21Z</time></trkpt><trkpt lat="43.051016946895466" lon="11.437627188681637"><ele>470.0</ele><time>2026-04-25T09:55:22Z</time></trkpt><trkpt lat="43.05089847742979" lon="11.43770495745358"><ele>470.0</ele><time>2026-04-25T09:55:23Z</time></trkpt><trkpt lat="43.0507860276251" lon="11.437767608446686"><ele>470.0</ele><time>2026-04-25T09:55:24Z</time></trkpt><trkpt lat="43.05069373518038" lon="11.437824371658511"><ele>470.0</ele><time>2026-04-25T09:55:25Z</time></trkpt><trkpt lat="43.050619114540716" lon="11.437890601706332"><ele>470.0</ele><time>2026-04-25T09:55:26.001Z</time></trkpt><trkpt lat="43.05055621166788" lon="11.437967966931804"><ele>472.4</ele><time>2026-04-25T09:55:27.001Z</time></trkpt><trkpt lat="43.050491709846966" lon="11.438041155621809"><ele>474.8</ele><time>2026-04-25T09:55:28.001Z</time></trkpt><trkpt lat="43.05046687468899" lon="11.438160854278724"><ele>477.20000000000005</ele><time>2026-04-25T09:55:29.001Z</time></trkpt><trkpt lat="43.05044710882984" lon="11.438285494900162"><ele>479.6</ele><time>2026-04-25T09:55:30.001Z</time></trkpt><trkpt lat="43.050431997960686" lon="11.438432759533466"><ele>482.0</ele><time>2026-04-25T09:55:31.001Z</time></trkpt><trkpt lat="43.05040705886622" lon="11.438577877350879"><ele>482.0</ele><time>2026-04-25T09:55:32.001Z</time></trkpt><trkpt lat="43.05037815394371" lon="11.438700981503604"><ele>482.00000000000006</ele><time>2026-04-25T09:55:33.001Z</time></trkpt><trkpt lat="43.05036993070987" lon="11.438816391878406"><ele>482.00000000000006</ele><time>2026-04-25T09:55:34.001Z</time></trkpt><trkpt lat="43.050394781934415" lon="11.438928237632878"><ele>482.0</ele><time>2026-04-25T09:55:35.001Z</time></trkpt><trkpt lat="43.0504497016711" lon="11.439041219927653"><ele>482.0</ele><time>2026-04-25T09:55:36.001Z</time></trkpt><trkpt lat="43.05052241941043" lon="11.439159389856618"><ele>481.8</ele><time>2026-04-25T09:55:37.001Z</time></trkpt><trkpt lat="43.05059497833033" lon="11.439276737556332"><ele>481.6</ele><time>2026-04-25T09:55:38.001Z</time></trkpt><trkpt lat="43.05065022392115" lon="11.439394396372638"><ele>481.40000000000003</ele><time>2026-04-25T09:55:39.001Z</time></trkpt><trkpt lat="43.05068917334626" lon="11.439526951463217"><ele>481.20000000000005</ele><time>2026-04-25T09:55:40.001Z</time></trkpt><trkpt lat="43.05071204717695" lon="11.439673972959328"><ele>481.0</ele><time>2026-04-25T09:55:41.001Z</time></trkpt><trkpt lat="43.05071771627919" lon="11.43983709587127"><ele>481.0</ele><time>2026-04-25T09:55:42.001Z</time></trkpt><trkpt lat="43.050705227684325" lon="11.439998893657984"><ele>481.0</ele><time>2026-04-25T09:55:43.001Z</time></trkpt><trkpt lat="43.05067114734204" lon="11.440160511922587"><ele>481.0</ele><time>2026-04-25T09:55:44.001Z</time></trkpt><trkpt lat="43.05061546871588" lon="11.440301413262377"><ele>481.0</ele><time>2026-04-25T09:55:45.001Z</time></trkpt><trkpt lat="43.0505482196475" lon="11.440419810854163"><ele>478.20000000000005</ele><time>2026-04-25T09:55:46.001Z</time></trkpt><trkpt lat="43.05047258245432" lon="11.440515405118528"><ele>475.40000000000003</ele><time>2026-04-25T09:55:47.001Z</time></trkpt><trkpt lat="43.05037259456724" lon="11.440557803851842"><ele>472.6</ele><time>2026-04-25T09:55:48.001Z</time></trkpt><trkpt lat="43.05028376917231" lon="11.440642992533233"><ele>469.8</ele><time>2026-04-25T09:55:49.001Z</time></trkpt><trkpt lat="43.05019448849802" lon="11.44071733312962"><ele>467.0</ele><time>2026-04-25T09:55:50.001Z</time></trkpt><trkpt lat="43.05013104330103" lon="11.440819942599546"><ele>467.0</ele><time>2026-04-25T09:55:51.001Z</time></trkpt><trkpt lat="43.05006966224997" lon="11.440939891602202"><ele>467.0</ele><time>2026-04-25T09:55:52.001Z</time></trkpt><trkpt lat="43.050047055927664" lon="11.44109790846148"><ele>467.0</ele><time>2026-04-25T09:55:53.001Z</time></trkpt><trkpt lat="43.050057696705345" lon="11.441269112956645"><ele>467.0</ele><time>2026-04-25T09:55:54.001Z</time></trkpt><trkpt lat="43.05006353796832" lon="11.441448054083814"><ele>466.25</ele><time>2026-04-25T09:55:55.001Z</time></trkpt><trkpt lat="43.05007428388872" lon="11.441630602330926"><ele>465.5</ele><time>2026-04-25T09:55:56.001Z</time></trkpt><trkpt lat="43.05008229149268" lon="11.44181947639909"><ele>464.75</ele><time>2026-04-25T09:55:57.001Z</time></trkpt><trkpt lat="43.05008815301035" lon="11.441996050750095"><ele>464.0</ele><time>2026-04-25T09:55:58.001Z</time></trkpt><trkpt lat="43.05009870447741" lon="11.44216073613039"><ele>464.0</ele><time>2026-04-25T09:55:59.001Z</time></trkpt><trkpt lat="43.05010402389481" lon="11.442310979020384"><ele>464.0</ele><time>2026-04-25T09:56:00.001Z</time></trkpt><trkpt lat="43.05010641414928" lon="11.442443374027278"><ele>464.0</ele><time>2026-04-25T09:56:01.001Z</time></trkpt><trkpt lat="43.05010821539925" lon="11.442561121066742"><ele>464.0</ele><time>2026-04-25T09:56:02.001Z</time></trkpt><trkpt lat="43.05011316940332" lon="11.442669965013257"><ele>464.0</ele><time>2026-04-25T09:56:03.001Z</time></trkpt><trkpt lat="43.050116528451824" lon="11.442784235175576"><ele>464.00000000000006</ele><time>2026-04-25T09:56:04.001Z</time></trkpt><trkpt lat="43.050122940863965" lon="11.442886164299926"><ele>464.0</ele><time>2026-04-25T09:56:05.001Z</time></trkpt><trkpt lat="43.05013433783094" lon="11.442981393862455"><ele>464.00000000000006</ele><time>2026-04-25T09:56:06.001Z</time></trkpt><trkpt lat="43.05012495250836" lon="11.443072705836624"><ele>464.00000000000006</ele><time>2026-04-25T09:56:07.001Z</time></trkpt><trkpt lat="43.0501292823788" lon="11.443170589560328"><ele>464.0</ele><time>2026-04-25T09:56:08.001Z</time></trkpt><trkpt lat="43.05013008761547" lon="11.443272139514324"><ele>464.00000000000006</ele><time>2026-04-25T09:56:09.001Z</time></trkpt><trkpt lat="43.05013844815163" lon="11.443372533704666"><ele>464.00000000000006</ele><time>2026-04-25T09:56:10.001Z</time></trkpt><trkpt lat="43.05012005019975" lon="11.443492280982177"><ele>465.2</ele><time>2026-04-25T09:56:11.001Z</time></trkpt><trkpt lat="43.05007362721114" lon="11.443613399719899"><ele>466.4</ele><time>2026-04-25T09:56:12.001Z</time></trkpt><trkpt lat="43.05003851429631" lon="11.443763569008041"><ele>467.6</ele><time>2026-04-25T09:56:13.001Z</time></trkpt><trkpt lat="43.05000474610784" lon="11.443912796774118"><ele>468.8</ele><time>2026-04-25T09:56:14.001Z</time></trkpt><trkpt lat="43.049971634529896" lon="11.44406256027538"><ele>470.0</ele><time>2026-04-25T09:56:15.001Z</time></trkpt><trkpt lat="43.04994763951988" lon="11.444201746659308"><ele>470.0</ele><time>2026-04-25T09:56:16.001Z</time></trkpt><trkpt lat="43.049942397140136" lon="11.444328372549943"><ele>470.0</ele><time>2026-04-25T09:56:17.001Z</time></trkpt><trkpt lat="43.04992644560604" lon="11.444465199215589"><ele>470.0</ele><time>2026-04-25T09:56:18.001Z</time></trkpt><trkpt lat="43.049923982358926" lon="11.444607458581766"><ele>470.0</ele><time>2026-04-25T09:56:19.001Z</time></trkpt><trkpt lat="43.04992835392429" lon="11.444763470164277"><ele>470.0</ele><time>2026-04-25T09:56:20.001Z</time></trkpt><trkpt lat="43.04993037725583" lon="11.444922709492248"><ele>468.2</ele><time>2026-04-25T09:56:21.001Z</time></trkpt><trkpt lat="43.049929775481736" lon="11.445062336589835"><ele>466.4</ele><time>2026-04-25T09:56:22.001Z</time></trkpt><trkpt lat="43.049914747078425" lon="11.445194561548654"><ele>464.6</ele><time>2026-04-25T09:56:23.001Z</time></trkpt><trkpt lat="43.04987474535989" lon="11.445339048597399"><ele>462.8</ele><time>2026-04-25T09:56:24.001Z</time></trkpt><trkpt lat="43.04981397570781" lon="11.445481681585122"><ele>461.0</ele><time>2026-04-25T09:56:25.001Z</time></trkpt><trkpt lat="43.04975134123148" lon="11.44560848333643"><ele>461.0</ele><time>2026-04-25T09:56:26.001Z</time></trkpt><trkpt lat="43.049701177060065" lon="11.44573420540827"><ele>461.0</ele><time>2026-04-25T09:56:27.001Z</time></trkpt><trkpt lat="43.04967018489331" lon="11.445874044393348"><ele>461.0</ele><time>2026-04-25T09:56:28.001Z</time></trkpt><trkpt lat="43.04964796384405" lon="11.446016925453227"><ele>461.0</ele><time>2026-04-25T09:56:29.001Z</time></trkpt><trkpt lat="43.04962885170329" lon="11.446152902869823"><ele>461.0</ele><time>2026-04-25T09:56:30.001Z</time></trkpt><trkpt lat="43.04961376023689" lon="11.446295204362404"><ele>461.8</ele><time>2026-04-25T09:56:31.001Z</time></trkpt><trkpt lat="43.04960682085738" lon="11.446435768701278"><ele>462.6</ele><time>2026-04-25T09:56:32.001Z</time></trkpt><trkpt lat="43.049605101418756" lon="11.446580920998366"><ele>463.4</ele><time>2026-04-25T09:56:33.001Z</time></trkpt><trkpt lat="43.049603846787456" lon="11.446738864036305"><ele>464.2</ele><time>2026-04-25T09:56:34.001Z</time></trkpt><trkpt lat="43.049599519877205" lon="11.44690617320538"><ele>465.0</ele><time>2026-04-25T09:56:35.001Z</time></trkpt><trkpt lat="43.049595754037774" lon="11.447083585091537"><ele>465.2</ele><time>2026-04-25T09:56:36.001Z</time></trkpt><trkpt lat="43.04959429956405" lon="11.447248372572417"><ele>465.4</ele><time>2026-04-25T09:56:37.001Z</time></trkpt><trkpt lat="43.049595411982274" lon="11.447390109654146"><ele>465.6</ele><time>2026-04-25T09:56:38.001Z</time></trkpt><trkpt lat="43.04957537317123" lon="11.447517325821407"><ele>465.8</ele><time>2026-04-25T09:56:39.001Z</time></trkpt><trkpt lat="43.04956937071172" lon="11.447651967231057"><ele>466.0</ele><time>2026-04-25T09:56:40.001Z</time></trkpt><trkpt lat="43.04958152038938" lon="11.447794959782852"><ele>466.0</ele><time>2026-04-25T09:56:41.001Z</time></trkpt><trkpt lat="43.04964219622486" lon="11.447922770401819"><ele>466.0</ele><time>2026-04-25T09:56:42.001Z</time></trkpt><trkpt lat="43.04967684868555" lon="11.448041042102247"><ele>466.0</ele><time>2026-04-25T09:56:43.001Z</time></trkpt><trkpt lat="43.049700913977816" lon="11.448140754955148"><ele>466.0</ele><time>2026-04-25T09:56:44.001Z</time></trkpt><trkpt lat="43.049704596649406" lon="11.448256197354164"><ele>466.0</ele><time>2026-04-25T09:56:45.001Z</time></trkpt><trkpt lat="43.04967452384267" lon="11.448367267842661"><ele>466.6</ele><time>2026-04-25T09:56:46.001Z</time></trkpt><trkpt lat="43.04962359442115" lon="11.448459086735552"><ele>467.20000000000005</ele><time>2026-04-25T09:56:47.001Z</time></trkpt><trkpt lat="43.049534537481684" lon="11.448532652697619"><ele>467.79999999999995</ele><time>2026-04-25T09:56:48.001Z</time></trkpt><trkpt lat="43.0494550897189" lon="11.448644478591978"><ele>468.4</ele><time>2026-04-25T09:56:49.001Z</time></trkpt><trkpt lat="43.049363692293845" lon="11.44878402951305"><ele>469.0</ele><time>2026-04-25T09:56:50.001Z</time></trkpt><trkpt lat="43.04925861267533" lon="11.448929486332505"><ele>469.6666666666667</ele><time>2026-04-25T09:56:51.001Z</time></trkpt><trkpt lat="43.0491446748582" lon="11.449081924033132"><ele>470.33333333333337</ele><time>2026-04-25T09:56:52.001Z</time></trkpt><trkpt lat="43.04902391604889" lon="11.449244634709768"><ele>471.0</ele><time>2026-04-25T09:56:53.001Z</time></trkpt><trkpt lat="43.048907531880936" lon="11.449418063410622"><ele>471.0</ele><time>2026-04-25T09:56:54.001Z</time></trkpt><trkpt lat="43.04879813843971" lon="11.449577849917095"><ele>471.0</ele><time>2026-04-25T09:56:55.001Z</time></trkpt><trkpt lat="43.04869390467717" lon="11.449728291332443"><ele>471.0</ele><time>2026-04-25T09:56:56.001Z</time></trkpt><trkpt lat="43.048593844382985" lon="11.44987336675699"><ele>472.0</ele><time>2026-04-25T09:56:57.001Z</time></trkpt><trkpt lat="43.048497415066926" lon="11.450000157315259"><ele>473.0</ele><time>2026-04-25T09:56:58.001Z</time></trkpt><trkpt lat="43.04840190274349" lon="11.45011853997507"><ele>474.0</ele><time>2026-04-25T09:56:59.001Z</time></trkpt><trkpt lat="43.04830756104559" lon="11.450214589163897"><ele>475.0</ele><time>2026-04-25T09:57:00.001Z</time></trkpt><trkpt lat="43.048226123966955" lon="11.450280867733897"><ele>475.0</ele><time>2026-04-25T09:57:01.001Z</time></trkpt><trkpt lat="43.04815477465843" lon="11.450360252893052"><ele>475.0</ele><time>2026-04-25T09:57:02.001Z</time></trkpt><trkpt lat="43.04810541510788" lon="11.45046093858982"><ele>475.0</ele><time>2026-04-25T09:57:03.001Z</time></trkpt><trkpt lat="43.04807090188916" lon="11.45057317279281"><ele>475.0</ele><time>2026-04-25T09:57:04.001Z</time></trkpt><trkpt lat="43.048047582153394" lon="11.450691519389476"><ele>475.0</ele><time>2026-04-25T09:57:05.001Z</time></trkpt><trkpt lat="43.0480318998656" lon="11.45081844798277"><ele>476.5</ele><time>2026-04-25T09:57:06.001Z</time></trkpt><trkpt lat="43.04801244192481" lon="11.450966122936453"><ele>478.0</ele><time>2026-04-25T09:57:07.001Z</time></trkpt><trkpt lat="43.047992520839664" lon="11.45112669569293"><ele>479.5</ele><time>2026-04-25T09:57:08.001Z</time></trkpt><trkpt lat="43.04796777653473" lon="11.451287980067498"><ele>481.0</ele><time>2026-04-25T09:57:09.001Z</time></trkpt><trkpt lat="43.04794488470947" lon="11.45144330997982"><ele>481.8</ele><time>2026-04-25T09:57:10.001Z</time></trkpt><trkpt lat="43.04788193545058" lon="11.451578439906703"><ele>482.6</ele><time>2026-04-25T09:57:11.001Z</time></trkpt><trkpt lat="43.04783573800061" lon="11.451720665230278"><ele>483.4</ele><time>2026-04-25T09:57:12Z</time></trkpt><trkpt lat="43.047794403320445" lon="11.451858930644125"><ele>484.2</ele><time>2026-04-25T09:57:13Z</time></trkpt><trkpt lat="43.04775444063592" lon="11.451980018848072"><ele>485.0</ele><time>2026-04-25T09:57:14Z</time></trkpt><trkpt lat="43.047702768162466" lon="11.452092855756764"><ele>486.25</ele><time>2026-04-25T09:57:15Z</time></trkpt><trkpt lat="43.047688648307215" lon="11.452254543324637"><ele>487.5</ele><time>2026-04-25T09:57:16Z</time></trkpt><trkpt lat="43.04765953367054" lon="11.452436270051672"><ele>488.75</ele><time>2026-04-25T09:57:17Z</time></trkpt><trkpt lat="43.04762726687305" lon="11.452634113718789"><ele>490.0</ele><time>2026-04-25T09:57:18Z</time></trkpt><trkpt lat="43.04759013341277" lon="11.452841593308012"><ele>490.75</ele><time>2026-04-25T09:57:19Z</time></trkpt><trkpt lat="43.04755617406154" lon="11.453047055841239"><ele>491.5</ele><time>2026-04-25T09:57:20Z</time></trkpt><trkpt lat="43.04752572884918" lon="11.453225179471497"><ele>492.25</ele><time>2026-04-25T09:57:21Z</time></trkpt><trkpt lat="43.04750627716975" lon="11.453398828347558"><ele>493.0</ele><time>2026-04-25T09:57:22Z</time></trkpt><trkpt lat="43.04749217686672" lon="11.453542368310341"><ele>493.00000000000006</ele><time>2026-04-25T09:57:23Z</time></trkpt><trkpt lat="43.04747446469921" lon="11.45366930362912"><ele>493.0</ele><time>2026-04-25T09:57:24Z</time></trkpt><trkpt lat="43.04744101295656" lon="11.453760657947203"><ele>493.0</ele><time>2026-04-25T09:57:25Z</time></trkpt><trkpt lat="43.047391208859" lon="11.453840340501218"><ele>493.0</ele><time>2026-04-25T09:57:26Z</time></trkpt><trkpt lat="43.04732469574719" lon="11.45390685015088"><ele>493.00000000000006</ele><time>2026-04-25T09:57:27Z</time></trkpt><trkpt lat="43.047250651989174" lon="11.453957830988362"><ele>493.0</ele><time>2026-04-25T09:57:28Z</time></trkpt><trkpt lat="43.04715929464783" lon="11.454012034899028"><ele>495.25</ele><time>2026-04-25T09:57:29Z</time></trkpt><trkpt lat="43.04705916093901" lon="11.454071247307416"><ele>497.5</ele><time>2026-04-25T09:57:30Z</time></trkpt><trkpt lat="43.04693830040841" lon="11.454118739853621"><ele>499.75</ele><time>2026-04-25T09:57:31Z</time></trkpt><trkpt lat="43.046806117296" lon="11.454196005531754"><ele>502.0</ele><time>2026-04-25T09:57:32Z</time></trkpt><trkpt lat="43.046686347684734" lon="11.454272261998904"><ele>503.25</ele><time>2026-04-25T09:57:33Z</time></trkpt><trkpt lat="43.04657210704108" lon="11.454357935567593"><ele>504.5</ele><time>2026-04-25T09:57:34Z</time></trkpt><trkpt lat="43.04646779926313" lon="11.45447836360687"><ele>505.75</ele><time>2026-04-25T09:57:35Z</time></trkpt><trkpt lat="43.04635275453551" lon="11.454588117944633"><ele>507.0</ele><time>2026-04-25T09:57:36Z</time></trkpt><trkpt lat="43.0462384467214" lon="11.454694167441394"><ele>507.0</ele><time>2026-04-25T09:57:37Z</time></trkpt><trkpt lat="43.04612665985756" lon="11.454778224393403"><ele>507.0</ele><time>2026-04-25T09:57:38Z</time></trkpt><trkpt lat="43.04600820855759" lon="11.454853547076887"><ele>507.0</ele><time>2026-04-25T09:57:39Z</time></trkpt><trkpt lat="43.04588822726066" lon="11.45492332339935"><ele>507.0</ele><time>2026-04-25T09:57:40Z</time></trkpt><trkpt lat="43.045775161734774" lon="11.454989532610746"><ele>506.8</ele><time>2026-04-25T09:57:41Z</time></trkpt><trkpt lat="43.045678142639964" lon="11.4550550832738"><ele>506.6</ele><time>2026-04-25T09:57:42Z</time></trkpt><trkpt lat="43.04558919964882" lon="11.455123263599802"><ele>506.40000000000003</ele><time>2026-04-25T09:57:43Z</time></trkpt><trkpt lat="43.045524032055766" lon="11.45519355180087"><ele>506.20000000000005</ele><time>2026-04-25T09:57:44Z</time></trkpt><trkpt lat="43.04546481030855" lon="11.455279290023213"><ele>506.0</ele><time>2026-04-25T09:57:45Z</time></trkpt><trkpt lat="43.045409426338985" lon="11.455394498324404"><ele>505.5</ele><time>2026-04-25T09:57:46Z</time></trkpt><trkpt lat="43.045340966730365" lon="11.455546750985008"><ele>505.0</ele><time>2026-04-25T09:57:47Z</time></trkpt><trkpt lat="43.045266480228776" lon="11.45570734595196"><ele>504.5</ele><time>2026-04-25T09:57:48Z</time></trkpt><trkpt lat="43.0451760624798" lon="11.455867828551048"><ele>504.0</ele><time>2026-04-25T09:57:49Z</time></trkpt><trkpt lat="43.04509374451231" lon="11.456030606832824"><ele>504.0</ele><time>2026-04-25T09:57:50Z</time></trkpt><trkpt lat="43.04501465771742" lon="11.456179928967119"><ele>504.0</ele><time>2026-04-25T09:57:51Z</time></trkpt><trkpt lat="43.04494592693598" lon="11.456314460262378"><ele>504.0</ele><time>2026-04-25T09:57:52Z</time></trkpt><trkpt lat="43.044882886690054" lon="11.456434007340103"><ele>504.0</ele><time>2026-04-25T09:57:53Z</time></trkpt><trkpt lat="43.044814248361774" lon="11.456534095045598"><ele>503.6</ele><time>2026-04-25T09:57:54Z</time></trkpt><trkpt lat="43.04477588020646" lon="11.45666607745276"><ele>503.2</ele><time>2026-04-25T09:57:55Z</time></trkpt><trkpt lat="43.04477623127447" lon="11.456824052334172"><ele>502.80000000000007</ele><time>2026-04-25T09:57:56Z</time></trkpt><trkpt lat="43.044764672354226" lon="11.456975086519021"><ele>502.40000000000003</ele><time>2026-04-25T09:57:57Z</time></trkpt><trkpt lat="43.04475082813757" lon="11.457116828203711"><ele>502.0</ele><time>2026-04-25T09:57:58Z</time></trkpt><trkpt lat="43.04472646966139" lon="11.457242240086247"><ele>503.6</ele><time>2026-04-25T09:57:59Z</time></trkpt><trkpt lat="43.04468035877974" lon="11.457352639940064"><ele>505.20000000000005</ele><time>2026-04-25T09:58:00Z</time></trkpt><trkpt lat="43.044590253195345" lon="11.457405751708274"><ele>506.8</ele><time>2026-04-25T09:58:01Z</time></trkpt><trkpt lat="43.04450093456472" lon="11.45748848463911"><ele>508.4</ele><time>2026-04-25T09:58:02Z</time></trkpt><trkpt lat="43.04439402436594" lon="11.457580862678403"><ele>510.0</ele><time>2026-04-25T09:58:03Z</time></trkpt><trkpt lat="43.04429981033491" lon="11.457694217805392"><ele>510.0</ele><time>2026-04-25T09:58:04Z</time></trkpt><trkpt lat="43.04420007550811" lon="11.457793874759119"><ele>510.0</ele><time>2026-04-25T09:58:05Z</time></trkpt><trkpt lat="43.044101203392124" lon="11.45789529691673"><ele>510.0</ele><time>2026-04-25T09:58:06Z</time></trkpt><trkpt lat="43.04402402263186" lon="11.45805812800381"><ele>510.0</ele><time>2026-04-25T09:58:07Z</time></trkpt><trkpt lat="43.04391224203465" lon="11.458208911672799"><ele>509.0</ele><time>2026-04-25T09:58:08.001Z</time></trkpt><trkpt lat="43.04379887797683" lon="11.458385848225204"><ele>508.0</ele><time>2026-04-25T09:58:09.001Z</time></trkpt><trkpt lat="43.043681014053725" lon="11.458569807989322"><ele>507.0</ele><time>2026-04-25T09:58:10.001Z</time></trkpt><trkpt lat="43.0435661932321" lon="11.45875262670512"><ele>507.0</ele><time>2026-04-25T09:58:11.001Z</time></trkpt><trkpt lat="43.04346920913502" lon="11.458931769374809"><ele>507.0</ele><time>2026-04-25T09:58:12.001Z</time></trkpt><trkpt lat="43.04334498899443" lon="11.459033987481643"><ele>507.0</ele><time>2026-04-25T09:58:13.001Z</time></trkpt><trkpt lat="43.0432347495301" lon="11.459123611824898"><ele>507.0</ele><time>2026-04-25T09:58:14.001Z</time></trkpt><trkpt lat="43.04312684119012" lon="11.459187570292597"><ele>507.0</ele><time>2026-04-25T09:58:15.001Z</time></trkpt><trkpt lat="43.04303685793842" lon="11.4592675822396"><ele>507.00000000000006</ele><time>2026-04-25T09:58:16.001Z</time></trkpt><trkpt lat="43.04294608542484" lon="11.459307993377998"><ele>507.00000000000006</ele><time>2026-04-25T09:58:17.001Z</time></trkpt><trkpt lat="43.04287136432721" lon="11.459405716440106"><ele>507.0</ele><time>2026-04-25T09:58:18.001Z</time></trkpt><trkpt lat="43.04283227284561" lon="11.459571124622729"><ele>507.0</ele><time>2026-04-25T09:58:19.001Z</time></trkpt><trkpt lat="43.04278534006235" lon="11.459732692762143"><ele>507.8</ele><time>2026-04-25T09:58:20.001Z</time></trkpt><trkpt lat="43.04275130314251" lon="11.459883585357911"><ele>508.6</ele><time>2026-04-25T09:58:21.001Z</time></trkpt><trkpt lat="43.042722632006" lon="11.460021188732707"><ele>509.40000000000003</ele><time>2026-04-25T09:58:22.001Z</time></trkpt><trkpt lat="43.042691312716244" lon="11.460155284463209"><ele>510.20000000000005</ele><time>2026-04-25T09:58:23.001Z</time></trkpt><trkpt lat="43.04269948791509" lon="11.460294636015064"><ele>511.0</ele><time>2026-04-25T09:58:24.001Z</time></trkpt><trkpt lat="43.04276497895763" lon="11.460417982423513"><ele>510.75</ele><time>2026-04-25T09:58:25.001Z</time></trkpt><trkpt lat="43.042826414961674" lon="11.46054242123582"><ele>510.5</ele><time>2026-04-25T09:58:26.001Z</time></trkpt><trkpt lat="43.04290230287113" lon="11.460671565205159"><ele>510.25</ele><time>2026-04-25T09:58:27.001Z</time></trkpt><trkpt lat="43.042977919489736" lon="11.460819429865976"><ele>510.0</ele><time>2026-04-25T09:58:28.001Z</time></trkpt><trkpt lat="43.04305013479227" lon="11.46098509892008"><ele>510.0</ele><time>2026-04-25T09:58:29.001Z</time></trkpt><trkpt lat="43.04311850215471" lon="11.461160362585481"><ele>510.0</ele><time>2026-04-25T09:58:30.001Z</time></trkpt><trkpt lat="43.04319045841637" lon="11.461341595695549"><ele>510.0</ele><time>2026-04-25T09:58:31.001Z</time></trkpt><trkpt lat="43.043272450175614" lon="11.461533743065951"><ele>506.66666666666663</ele><time>2026-04-25T09:58:32.001Z</time></trkpt><trkpt lat="43.04335487507927" lon="11.461727203641031"><ele>503.3333333333333</ele><time>2026-04-25T09:58:33.001Z</time></trkpt><trkpt lat="43.043429703197276" lon="11.46191899003199"><ele>500.0</ele><time>2026-04-25T09:58:34.001Z</time></trkpt><trkpt lat="43.0435007872034" lon="11.462098709075718"><ele>500.2</ele><time>2026-04-25T09:58:35.001Z</time></trkpt><trkpt lat="43.043565081291874" lon="11.46226074276872"><ele>500.4</ele><time>2026-04-25T09:58:36.001Z</time></trkpt><trkpt lat="43.0436158970347" lon="11.462405141667398"><ele>500.6</ele><time>2026-04-25T09:58:37.001Z</time></trkpt><trkpt lat="43.04363552068944" lon="11.462536060082444"><ele>500.8</ele><time>2026-04-25T09:58:38.001Z</time></trkpt><trkpt lat="43.04364366401226" lon="11.462646628131136"><ele>501.0</ele><time>2026-04-25T09:58:39.001Z</time></trkpt><trkpt lat="43.04362005953597" lon="11.462742508527535"><ele>501.0</ele><time>2026-04-25T09:58:40.001Z</time></trkpt><trkpt lat="43.043580372668195" lon="11.462839039328838"><ele>501.0</ele><time>2026-04-25T09:58:41.001Z</time></trkpt><trkpt lat="43.04351796880417" lon="11.462929743841356"><ele>501.0</ele><time>2026-04-25T09:58:42.001Z</time></trkpt><trkpt lat="43.04345239047251" lon="11.463049580385372"><ele>501.0</ele><time>2026-04-25T09:58:43.001Z</time></trkpt><trkpt lat="43.04336678569592" lon="11.463149039652968"><ele>501.0</ele><time>2026-04-25T09:58:44.001Z</time></trkpt><trkpt lat="43.04329061550611" lon="11.463255621346295"><ele>500.6</ele><time>2026-04-25T09:58:45.001Z</time></trkpt><trkpt lat="43.04323316805527" lon="11.463370071469074"><ele>500.20000000000005</ele><time>2026-04-25T09:58:46.001Z</time></trkpt><trkpt lat="43.043188405875355" lon="11.463490832749889"><ele>499.79999999999995</ele><time>2026-04-25T09:58:47.001Z</time></trkpt><trkpt lat="43.043158971221175" lon="11.46361984425766"><ele>499.4</ele><time>2026-04-25T09:58:48.001Z</time></trkpt><trkpt lat="43.043141305158755" lon="11.463759453367645"><ele>499.0</ele><time>2026-04-25T09:58:49.001Z</time></trkpt><trkpt lat="43.04312872142594" lon="11.463915673434983"><ele>499.0</ele><time>2026-04-25T09:58:50.001Z</time></trkpt><trkpt lat="43.043110695514684" lon="11.464086311743447"><ele>499.0</ele><time>2026-04-25T09:58:51.001Z</time></trkpt><trkpt lat="43.04308551351967" lon="11.46425909381494"><ele>499.0</ele><time>2026-04-25T09:58:52.001Z</time></trkpt><trkpt lat="43.04305601452596" lon="11.464431632737536"><ele>499.0</ele><time>2026-04-25T09:58:53.001Z</time></trkpt><trkpt lat="43.043021203536746" lon="11.464607397783805"><ele>500.0</ele><time>2026-04-25T09:58:54.001Z</time></trkpt><trkpt lat="43.0429844890129" lon="11.464783579532813"><ele>501.0</ele><time>2026-04-25T09:58:55.001Z</time></trkpt><trkpt lat="43.042937194517194" lon="11.464953504889996"><ele>502.0</ele><time>2026-04-25T09:58:56.001Z</time></trkpt><trkpt lat="43.042870161266755" lon="11.465111149255483"><ele>503.0</ele><time>2026-04-25T09:58:57.001Z</time></trkpt><trkpt lat="43.042794658460586" lon="11.46524080704103"><ele>503.0</ele><time>2026-04-25T09:58:58.001Z</time></trkpt><trkpt lat="43.042755198086425" lon="11.465394309254004"><ele>503.0</ele><time>2026-04-25T09:58:59.001Z</time></trkpt><trkpt lat="43.042716269640636" lon="11.465541037913699"><ele>503.0</ele><time>2026-04-25T09:59:00.001Z</time></trkpt><trkpt lat="43.04269428397376" lon="11.465721285469268"><ele>503.0</ele><time>2026-04-25T09:59:01.001Z</time></trkpt><trkpt lat="43.042678625385726" lon="11.465918425546178"><ele>502.66666666666663</ele><time>2026-04-25T09:59:02.001Z</time></trkpt><trkpt lat="43.04266590156368" lon="11.466123770461571"><ele>502.33333333333337</ele><time>2026-04-25T09:59:03.001Z</time></trkpt><trkpt lat="43.04265235305054" lon="11.466336960290745"><ele>502.0</ele><time>2026-04-25T09:59:04.001Z</time></trkpt><trkpt lat="43.04263770008425" lon="11.466538412947923"><ele>501.8</ele><time>2026-04-25T09:59:05.001Z</time></trkpt><trkpt lat="43.04262976340573" lon="11.4667177620857"><ele>501.6</ele><time>2026-04-25T09:59:06.001Z</time></trkpt><trkpt lat="43.04262486727824" lon="11.466871247273655"><ele>501.40000000000003</ele><time>2026-04-25T09:59:07.001Z</time></trkpt><trkpt lat="43.04261035449152" lon="11.467008589723141"><ele>501.20000000000005</ele><time>2026-04-25T09:59:08.001Z</time></trkpt><trkpt lat="43.042581034815704" lon="11.467145619128791"><ele>501.0</ele><time>2026-04-25T09:59:09.001Z</time></trkpt><trkpt lat="43.04253689560734" lon="11.467288501362217"><ele>500.75</ele><time>2026-04-25T09:59:10.001Z</time></trkpt><trkpt lat="43.04247938135484" lon="11.467446879096418"><ele>500.5</ele><time>2026-04-25T09:59:11.001Z</time></trkpt><trkpt lat="43.04241403977744" lon="11.467616326125304"><ele>500.25</ele><time>2026-04-25T09:59:12Z</time></trkpt><trkpt lat="43.042349333045415" lon="11.467806481149648"><ele>500.0</ele><time>2026-04-25T09:59:13Z</time></trkpt><trkpt lat="43.042295405768954" lon="11.468007598361098"><ele>501.66666666666663</ele><time>2026-04-25T09:59:14Z</time></trkpt><trkpt lat="43.04224807180828" lon="11.468217317079949"><ele>503.33333333333337</ele><time>2026-04-25T09:59:15Z</time></trkpt><trkpt lat="43.04220390084605" lon="11.468422660101696"><ele>505.0</ele><time>2026-04-25T09:59:16Z</time></trkpt><trkpt lat="43.042162442320254" lon="11.46861341267906"><ele>505.25</ele><time>2026-04-25T09:59:17Z</time></trkpt><trkpt lat="43.04212119947271" lon="11.468785546412223"><ele>505.5</ele><time>2026-04-25T09:59:18Z</time></trkpt><trkpt lat="43.04207832334381" lon="11.468934744796497"><ele>505.75</ele><time>2026-04-25T09:59:19Z</time></trkpt><trkpt lat="43.042014917205684" lon="11.469061138456292"><ele>506.0</ele><time>2026-04-25T09:59:20Z</time></trkpt><trkpt lat="43.04192459742645" lon="11.469179731654398"><ele>506.0</ele><time>2026-04-25T09:59:21Z</time></trkpt><trkpt lat="43.04181149049056" lon="11.469271354410989"><ele>506.0</ele><time>2026-04-25T09:59:22Z</time></trkpt><trkpt lat="43.041671507641595" lon="11.469344595827451"><ele>506.0</ele><time>2026-04-25T09:59:23Z</time></trkpt><trkpt lat="43.04151782016228" lon="11.469419414154137"><ele>506.0</ele><time>2026-04-25T09:59:24Z</time></trkpt><trkpt lat="43.04136092023384" lon="11.469505249887813"><ele>508.0</ele><time>2026-04-25T09:59:25Z</time></trkpt><trkpt lat="43.04120652478849" lon="11.469605189446868"><ele>510.0</ele><time>2026-04-25T09:59:26Z</time></trkpt><trkpt lat="43.041055886634815" lon="11.469730996448675"><ele>512.0</ele><time>2026-04-25T09:59:27Z</time></trkpt><trkpt lat="43.040911249370694" lon="11.469873606411012"><ele>515.0</ele><time>2026-04-25T09:59:28Z</time></trkpt><trkpt lat="43.04077092840979" lon="11.470025779994158"><ele>518.0</ele><time>2026-04-25T09:59:29Z</time></trkpt><trkpt lat="43.04065237266424" lon="11.470181650970273"><ele>521.0</ele><time>2026-04-25T09:59:30Z</time></trkpt><trkpt lat="43.04055162841847" lon="11.470346611437913"><ele>522.75</ele><time>2026-04-25T09:59:31Z</time></trkpt><trkpt lat="43.04045508650093" lon="11.47050277054169"><ele>524.5</ele><time>2026-04-25T09:59:32Z</time></trkpt><trkpt lat="43.040347688995254" lon="11.470627791674598"><ele>526.25</ele><time>2026-04-25T09:59:33Z</time></trkpt><trkpt lat="43.04023464826669" lon="11.470702392987455"><ele>528.0</ele><time>2026-04-25T09:59:34Z</time></trkpt><trkpt lat="43.04012171484967" lon="11.470723782603903"><ele>528.0</ele><time>2026-04-25T09:59:35Z</time></trkpt><trkpt lat="43.04000014817063" lon="11.470744963521382"><ele>528.0</ele><time>2026-04-25T09:59:36Z</time></trkpt><trkpt lat="43.03987069999142" lon="11.470803674345273"><ele>528.0</ele><time>2026-04-25T09:59:37Z</time></trkpt><trkpt lat="43.039731646859074" lon="11.470888887769478"><ele>528.0</ele><time>2026-04-25T09:59:38Z</time></trkpt><trkpt lat="43.03958327450001" lon="11.470975550749001"><ele>529.3333333333334</ele><time>2026-04-25T09:59:39Z</time></trkpt><trkpt lat="43.03942407814676" lon="11.471063627675363"><ele>530.6666666666667</ele><time>2026-04-25T09:59:40Z</time></trkpt><trkpt lat="43.03926147019797" lon="11.471160468592734"><ele>532.0</ele><time>2026-04-25T09:59:41Z</time></trkpt><trkpt lat="43.039104578230834" lon="11.471278807928698"><ele>532.3333333333334</ele><time>2026-04-25T09:59:42Z</time></trkpt><trkpt lat="43.038965247514454" lon="11.471441331434937"><ele>532.6666666666666</ele><time>2026-04-25T09:59:43Z</time></trkpt><trkpt lat="43.038846057298" lon="11.471630599070027"><ele>533.0</ele><time>2026-04-25T09:59:44Z</time></trkpt><trkpt lat="43.03875297035385" lon="11.471834541376074"><ele>533.0</ele><time>2026-04-25T09:59:45Z</time></trkpt><trkpt lat="43.038688848210654" lon="11.472054907294002"><ele>533.0</ele><time>2026-04-25T09:59:46Z</time></trkpt><trkpt lat="43.03865720404119" lon="11.472288630367633"><ele>533.0</ele><time>2026-04-25T09:59:47Z</time></trkpt><trkpt lat="43.03866223780308" lon="11.472522621007483"><ele>538.0</ele><time>2026-04-25T09:59:48Z</time></trkpt><trkpt lat="43.03868020070868" lon="11.47276434969057"><ele>543.0</ele><time>2026-04-25T09:59:49Z</time></trkpt><trkpt lat="43.03870884300928" lon="11.472981471466717"><ele>548.0</ele><time>2026-04-25T09:59:50Z</time></trkpt><trkpt lat="43.03873029917572" lon="11.473174102498632"><ele>551.0</ele><time>2026-04-25T09:59:51Z</time></trkpt><trkpt lat="43.03872774635709" lon="11.473347100909683"><ele>554.0</ele><time>2026-04-25T09:59:52Z</time></trkpt><trkpt lat="43.03870517111463" lon="11.47352252981081"><ele>557.0</ele><time>2026-04-25T09:59:53Z</time></trkpt><trkpt lat="43.03861985832" lon="11.47368089180501"><ele>560.0</ele><time>2026-04-25T09:59:54Z</time></trkpt><trkpt lat="43.03850142891298" lon="11.473808606006902"><ele>563.0</ele><time>2026-04-25T09:59:55Z</time></trkpt><trkpt lat="43.03835514822926" lon="11.473900771532417"><ele>566.0</ele><time>2026-04-25T09:59:56Z</time></trkpt><trkpt lat="43.03818799293054" lon="11.473980714318913"><ele>569.0</ele><time>2026-04-25T09:59:57Z</time></trkpt><trkpt lat="43.03802880314057" lon="11.47406759078165"><ele>569.0</ele><time>2026-04-25T09:59:58Z</time></trkpt><trkpt lat="43.03788777382241" lon="11.474149750873407"><ele>569.0</ele><time>2026-04-25T09:59:59Z</time></trkpt><trkpt lat="43.037778883396996" lon="11.474249713175173"><ele>569.0</ele><time>2026-04-25T10:00:00Z</time></trkpt><trkpt lat="43.03770869524626" lon="11.474390240533992"><ele>569.0</ele><time>2026-04-25T10:00:01Z</time></trkpt><trkpt lat="43.03767792754509" lon="11.47456750830727"><ele>573.0</ele><time>2026-04-25T10:00:02Z</time></trkpt><trkpt lat="43.0376784503602" lon="11.47477425574871"><ele>577.0</ele><time>2026-04-25T10:00:03Z</time></trkpt><trkpt lat="43.03769227349331" lon="11.475003869838824"><ele>581.0</ele><time>2026-04-25T10:00:04Z</time></trkpt><trkpt lat="43.03770577115191" lon="11.475253875100874"><ele>583.6666666666666</ele><time>2026-04-25T10:00:05Z</time></trkpt><trkpt lat="43.03771868707904" lon="11.47551515835422"><ele>586.3333333333334</ele><time>2026-04-25T10:00:06Z</time></trkpt><trkpt lat="43.037728237210814" lon="11.475781400047635"><ele>589.0</ele><time>2026-04-25T10:00:07Z</time></trkpt><trkpt lat="43.03773747381323" lon="11.476064559820749"><ele>590.0</ele><time>2026-04-25T10:00:08Z</time></trkpt><trkpt lat="43.03774979773514" lon="11.47635460916329"><ele>591.0</ele><time>2026-04-25T10:00:09Z</time></trkpt><trkpt lat="43.037762287685894" lon="11.476640017172098"><ele>592.0</ele><time>2026-04-25T10:00:10Z</time></trkpt><trkpt lat="43.037771266235225" lon="11.476905025229287"><ele>594.0</ele><time>2026-04-25T10:00:11Z</time></trkpt><trkpt lat="43.03777652386926" lon="11.477151986055858"><ele>596.0</ele><time>2026-04-25T10:00:12Z</time></trkpt><trkpt lat="43.037772478612936" lon="11.47740137048276"><ele>598.0</ele><time>2026-04-25T10:00:13Z</time></trkpt><trkpt lat="43.03774783575852" lon="11.477658038909933"><ele>598.0</ele><time>2026-04-25T10:00:14Z</time></trkpt><trkpt lat="43.03770757651498" lon="11.477917319058955"><ele>598.0</ele><time>2026-04-25T10:00:15Z</time></trkpt><trkpt lat="43.03766230816847" lon="11.478167055052417"><ele>598.0</ele><time>2026-04-25T10:00:16Z</time></trkpt><trkpt lat="43.037603864241106" lon="11.478391254700625"><ele>598.0</ele><time>2026-04-25T10:00:17Z</time></trkpt><trkpt lat="43.03751541351849" lon="11.47860331605007"><ele>598.0</ele><time>2026-04-25T10:00:18Z</time></trkpt><trkpt lat="43.03739205133097" lon="11.478813109258914"><ele>598.0</ele><time>2026-04-25T10:00:19Z</time></trkpt><trkpt lat="43.03725986236447" lon="11.479017338500794"><ele>598.3333333333334</ele><time>2026-04-25T10:00:20Z</time></trkpt><trkpt lat="43.03713384841659" lon="11.479203202781223"><ele>598.6666666666666</ele><time>2026-04-25T10:00:21Z</time></trkpt><trkpt lat="43.03702405486698" lon="11.4793731255442"><ele>599.0</ele><time>2026-04-25T10:00:22Z</time></trkpt><trkpt lat="43.036939723157474" lon="11.479512656943108"><ele>599.4</ele><time>2026-04-25T10:00:23Z</time></trkpt><trkpt lat="43.03688201862779" lon="11.479610876402884"><ele>599.8</ele><time>2026-04-25T10:00:24Z</time></trkpt><trkpt lat="43.03683640523039" lon="11.47970912688894"><ele>600.2</ele><time>2026-04-25T10:00:26Z</time></trkpt><trkpt lat="43.03690255274216" lon="11.479874690813826"><ele>600.6</ele><time>2026-04-25T10:00:30Z</time></trkpt><trkpt lat="43.03697350992184" lon="11.479946125126922"><ele>601.0</ele><time>2026-04-25T10:00:31Z</time></trkpt><trkpt lat="43.03706045049957" lon="11.480008470070391"><ele>601.0</ele><time>2026-04-25T10:00:32Z</time></trkpt><trkpt lat="43.03716377505115" lon="11.480064937422691"><ele>601.0</ele><time>2026-04-25T10:00:33Z</time></trkpt><trkpt lat="43.03726746557035" lon="11.48014761506043"><ele>601.0</ele><time>2026-04-25T10:00:34Z</time></trkpt><trkpt lat="43.037377356908806" lon="11.480261800071228"><ele>601.0</ele><time>2026-04-25T10:00:35Z</time></trkpt><trkpt lat="43.037522132684785" lon="11.480387991108985"><ele>598.0</ele><time>2026-04-25T10:00:36Z</time></trkpt><trkpt lat="43.03769834145705" lon="11.480542362871741"><ele>595.0</ele><time>2026-04-25T10:00:37Z</time></trkpt><trkpt lat="43.03788475972603" lon="11.480705680212177"><ele>592.0</ele><time>2026-04-25T10:00:38Z</time></trkpt><trkpt lat="43.03808075916606" lon="11.480877196956708"><ele>592.0</ele><time>2026-04-25T10:00:39Z</time></trkpt><trkpt lat="43.038279990985245" lon="11.481052951464457"><ele>592.0</ele><time>2026-04-25T10:00:40Z</time></trkpt><trkpt lat="43.038484223133366" lon="11.481232507400359"><ele>590.5</ele><time>2026-04-25T10:00:41Z</time></trkpt><trkpt lat="43.038688970279495" lon="11.481414557521394"><ele>589.0</ele><time>2026-04-25T10:00:42Z</time></trkpt><trkpt lat="43.038899185389525" lon="11.48160197149814"><ele>589.0</ele><time>2026-04-25T10:00:43Z</time></trkpt><trkpt lat="43.03911251086199" lon="11.481792158496129"><ele>589.0</ele><time>2026-04-25T10:00:44Z</time></trkpt><trkpt lat="43.039327480396146" lon="11.481980490310205"><ele>597.0</ele><time>2026-04-25T10:00:45Z</time></trkpt><trkpt lat="43.03954228708478" lon="11.482168360766092"><ele>605.0</ele><time>2026-04-25T10:00:46Z</time></trkpt><trkpt lat="43.03974593906861" lon="11.48234668415334"><ele>605.0</ele><time>2026-04-25T10:00:47Z</time></trkpt><trkpt lat="43.039945792589684" lon="11.482498316169925"><ele>605.0</ele><time>2026-04-25T10:00:48Z</time></trkpt><trkpt lat="43.040133948949205" lon="11.482646656529134"><ele>605.0</ele><time>2026-04-25T10:00:49Z</time></trkpt><trkpt lat="43.04033467573127" lon="11.482767589205332"><ele>606.6666666666666</ele><time>2026-04-25T10:00:50Z</time></trkpt><trkpt lat="43.040540425414996" lon="11.482864154342643"><ele>608.3333333333334</ele><time>2026-04-25T10:00:51Z</time></trkpt><trkpt lat="43.040745892713176" lon="11.482940809555712"><ele>610.0</ele><time>2026-04-25T10:00:52Z</time></trkpt><trkpt lat="43.040946423493764" lon="11.483006805680843"><ele>612.6666666666667</ele><time>2026-04-25T10:00:53Z</time></trkpt><trkpt lat="43.04113915199777" lon="11.483066261828803"><ele>615.3333333333334</ele><time>2026-04-25T10:00:54Z</time></trkpt><trkpt lat="43.04133330844594" lon="11.483121150094398"><ele>618.0</ele><time>2026-04-25T10:00:55Z</time></trkpt><trkpt lat="43.04153196097356" lon="11.483184155991198"><ele>616.0</ele><time>2026-04-25T10:00:56Z</time></trkpt><trkpt lat="43.0417241101778" lon="11.483237488820912"><ele>614.0</ele><time>2026-04-25T10:00:57Z</time></trkpt><trkpt lat="43.041905824105264" lon="11.483285071426083"><ele>612.0</ele><time>2026-04-25T10:00:58Z</time></trkpt><trkpt lat="43.042074476621664" lon="11.483333711060824"><ele>612.0</ele><time>2026-04-25T10:00:59Z</time></trkpt><trkpt lat="43.04223502761712" lon="11.483383068578402"><ele>612.0</ele><time>2026-04-25T10:01:00Z</time></trkpt><trkpt lat="43.04238737220673" lon="11.483431596972126"><ele>612.0</ele><time>2026-04-25T10:01:01Z</time></trkpt><trkpt lat="43.04253005203018" lon="11.483474231804099"><ele>612.25</ele><time>2026-04-25T10:01:02Z</time></trkpt><trkpt lat="43.04266446272918" lon="11.48351692286795"><ele>612.5</ele><time>2026-04-25T10:01:03Z</time></trkpt><trkpt lat="43.042793278904526" lon="11.48355482116252"><ele>612.75</ele><time>2026-04-25T10:01:04Z</time></trkpt><trkpt lat="43.042919586484004" lon="11.483586945584998"><ele>613.0</ele><time>2026-04-25T10:01:05Z</time></trkpt><trkpt lat="43.04304154724206" lon="11.483619001896537"><ele>613.0</ele><time>2026-04-25T10:01:06.001Z</time></trkpt><trkpt lat="43.043166921902724" lon="11.483652542939081"><ele>613.0</ele><time>2026-04-25T10:01:07.001Z</time></trkpt><trkpt lat="43.04329652453407" lon="11.483692270837446"><ele>613.0</ele><time>2026-04-25T10:01:08.001Z</time></trkpt><trkpt lat="43.043432706754785" lon="11.483737685732914"><ele>613.0</ele><time>2026-04-25T10:01:09.001Z</time></trkpt><trkpt lat="43.04356941194193" lon="11.483797460529306"><ele>612.3333333333334</ele><time>2026-04-25T10:01:10.001Z</time></trkpt><trkpt lat="43.0437071815711" lon="11.48388291818152"><ele>611.6666666666666</ele><time>2026-04-25T10:01:11.001Z</time></trkpt><trkpt lat="43.043839287418145" lon="11.484002635033795"><ele>611.0</ele><time>2026-04-25T10:01:12.001Z</time></trkpt><trkpt lat="43.0439656938842" lon="11.484126606029857"><ele>611.0</ele><time>2026-04-25T10:01:13.001Z</time></trkpt><trkpt lat="43.04409319480727" lon="11.484253102106896"><ele>611.0</ele><time>2026-04-25T10:01:14.001Z</time></trkpt><trkpt lat="43.0442177410896" lon="11.484380079107975"><ele>611.0</ele><time>2026-04-25T10:01:15.001Z</time></trkpt><trkpt lat="43.044332384102546" lon="11.484509244822473"><ele>611.3333333333333</ele><time>2026-04-25T10:01:16.001Z</time></trkpt><trkpt lat="43.04443207191618" lon="11.484651656557022"><ele>611.6666666666666</ele><time>2026-04-25T10:01:17.001Z</time></trkpt><trkpt lat="43.04451721827594" lon="11.48482494649038"><ele>612.0</ele><time>2026-04-25T10:01:18Z</time></trkpt><trkpt lat="43.044582446229946" lon="11.485022316478918"><ele>612.0</ele><time>2026-04-25T10:01:19Z</time></trkpt><trkpt lat="43.04464093620827" lon="11.485231154368156"><ele>612.0</ele><time>2026-04-25T10:01:20Z</time></trkpt><trkpt lat="43.04470230955072" lon="11.48544415340229"><ele>612.0</ele><time>2026-04-25T10:01:21Z</time></trkpt><trkpt lat="43.044765718287934" lon="11.485654992287811"><ele>612.5</ele><time>2026-04-25T10:01:22Z</time></trkpt><trkpt lat="43.044807409768055" lon="11.485867326306375"><ele>613.0</ele><time>2026-04-25T10:01:23Z</time></trkpt><trkpt lat="43.04485855750456" lon="11.48605225108192"><ele>613.5</ele><time>2026-04-25T10:01:24Z</time></trkpt><trkpt lat="43.04490919611353" lon="11.486235439665972"><ele>614.0</ele><time>2026-04-25T10:01:25Z</time></trkpt><trkpt lat="43.04496294939155" lon="11.486424739614986"><ele>614.25</ele><time>2026-04-25T10:01:26Z</time></trkpt><trkpt lat="43.0450249634207" lon="11.486605036652003"><ele>614.5</ele><time>2026-04-25T10:01:27Z</time></trkpt><trkpt lat="43.04508249656809" lon="11.486780920240975"><ele>614.75</ele><time>2026-04-25T10:01:28Z</time></trkpt><trkpt lat="43.04516580553013" lon="11.486925447338793"><ele>615.0</ele><time>2026-04-25T10:01:29Z</time></trkpt><trkpt lat="43.04527213935968" lon="11.487022163601045"><ele>615.0</ele><time>2026-04-25T10:01:30Z</time></trkpt><trkpt lat="43.04539969009378" lon="11.48706814325143"><ele>615.0</ele><time>2026-04-25T10:01:31Z</time></trkpt><trkpt lat="43.045539002313745" lon="11.487080527376508"><ele>615.0</ele><time>2026-04-25T10:01:32Z</time></trkpt><trkpt lat="43.04568533946833" lon="11.487095512313752"><ele>615.0</ele><time>2026-04-25T10:01:33Z</time></trkpt><trkpt lat="43.04581579927503" lon="11.487124922344822"><ele>614.5</ele><time>2026-04-25T10:01:34Z</time></trkpt><trkpt lat="43.045927913389065" lon="11.487215686737738"><ele>614.0</ele><time>2026-04-25T10:01:35Z</time></trkpt><trkpt lat="43.0460239551589" lon="11.487347201306509"><ele>613.5</ele><time>2026-04-25T10:01:36Z</time></trkpt><trkpt lat="43.046112122677016" lon="11.487515116750112"><ele>613.0</ele><time>2026-04-25T10:01:37Z</time></trkpt><trkpt lat="43.046182531210476" lon="11.487712420184382"><ele>609.3333333333334</ele><time>2026-04-25T10:01:38Z</time></trkpt><trkpt lat="43.046239177065395" lon="11.487930880202738"><ele>605.6666666666666</ele><time>2026-04-25T10:01:39Z</time></trkpt><trkpt lat="43.046294659754096" lon="11.488166855082854"><ele>602.0</ele><time>2026-04-25T10:01:40Z</time></trkpt><trkpt lat="43.04634269088008" lon="11.488416139673134"><ele>602.0</ele><time>2026-04-25T10:01:41Z</time></trkpt><trkpt lat="43.04639314632862" lon="11.488662731616927"><ele>602.0</ele><time>2026-04-25T10:01:42Z</time></trkpt><trkpt lat="43.04644370003424" lon="11.488886798699989"><ele>602.0</ele><time>2026-04-25T10:01:43Z</time></trkpt><trkpt lat="43.04650598183811" lon="11.489083394239092"><ele>599.3333333333333</ele><time>2026-04-25T10:01:44Z</time></trkpt><trkpt lat="43.04658133923622" lon="11.489271301931398"><ele>596.6666666666666</ele><time>2026-04-25T10:01:45Z</time></trkpt><trkpt lat="43.04670313442536" lon="11.489417310876268"><ele>594.0</ele><time>2026-04-25T10:01:46Z</time></trkpt><trkpt lat="43.04685066470245" lon="11.48951522257471"><ele>594.75</ele><time>2026-04-25T10:01:47Z</time></trkpt><trkpt lat="43.04700661968228" lon="11.489545171888745"><ele>595.5</ele><time>2026-04-25T10:01:48Z</time></trkpt><trkpt lat="43.04714135470177" lon="11.489555367221636"><ele>596.25</ele><time>2026-04-25T10:01:49Z</time></trkpt><trkpt lat="43.04727020114833" lon="11.489572624252094"><ele>597.0</ele><time>2026-04-25T10:01:50Z</time></trkpt><trkpt lat="43.04740435256861" lon="11.489634017839235"><ele>599.0</ele><time>2026-04-25T10:01:51Z</time></trkpt><trkpt lat="43.04754045511727" lon="11.489750222535646"><ele>601.0</ele><time>2026-04-25T10:01:52Z</time></trkpt><trkpt lat="43.04766827961539" lon="11.489876576474485"><ele>603.0</ele><time>2026-04-25T10:01:53Z</time></trkpt><trkpt lat="43.04778988069777" lon="11.489995826434797"><ele>603.0</ele><time>2026-04-25T10:01:54Z</time></trkpt><trkpt lat="43.04792181189426" lon="11.490067075957366"><ele>603.0</ele><time>2026-04-25T10:01:55Z</time></trkpt><trkpt lat="43.04806986625446" lon="11.490080523597483"><ele>603.0</ele><time>2026-04-25T10:01:56Z</time></trkpt><trkpt lat="43.048232710905474" lon="11.490045723451168"><ele>603.0</ele><time>2026-04-25T10:01:57Z</time></trkpt><trkpt lat="43.04839453315003" lon="11.489986324328374"><ele>603.0</ele><time>2026-04-25T10:01:58Z</time></trkpt><trkpt lat="43.04852956282785" lon="11.489946830498575"><ele>603.0</ele><time>2026-04-25T10:01:59Z</time></trkpt><trkpt lat="43.04865358352699" lon="11.48994520099865"><ele>603.0</ele><time>2026-04-25T10:02:00Z</time></trkpt><trkpt lat="43.048769352341466" lon="11.490005325388031"><ele>603.0</ele><time>2026-04-25T10:02:01Z</time></trkpt><trkpt lat="43.04885199128766" lon="11.490129367185602"><ele>603.0</ele><time>2026-04-25T10:02:02Z</time></trkpt><trkpt lat="43.04890510028046" lon="11.490282955978257"><ele>603.0</ele><time>2026-04-25T10:02:03Z</time></trkpt><trkpt lat="43.04894139119408" lon="11.490455526379186"><ele>603.0</ele><time>2026-04-25T10:02:04Z</time></trkpt><trkpt lat="43.04897866152794" lon="11.490620142038136"><ele>601.4</ele><time>2026-04-25T10:02:05Z</time></trkpt><trkpt lat="43.04901537005471" lon="11.490800173795803"><ele>599.8</ele><time>2026-04-25T10:02:06Z</time></trkpt><trkpt lat="43.049077557768065" lon="11.490866118162064"><ele>598.2</ele><time>2026-04-25T10:02:07Z</time></trkpt><trkpt lat="43.04914249550943" lon="11.490979835725298"><ele>596.6</ele><time>2026-04-25T10:02:08Z</time></trkpt><trkpt lat="43.04923889438052" lon="11.491078933623115"><ele>595.0</ele><time>2026-04-25T10:02:09Z</time></trkpt><trkpt lat="43.049371764472546" lon="11.49107273690512"><ele>595.0</ele><time>2026-04-25T10:02:10Z</time></trkpt><trkpt lat="43.049499989414066" lon="11.491029603476496"><ele>595.0</ele><time>2026-04-25T10:02:11Z</time></trkpt><trkpt lat="43.0496396734291" lon="11.491011626970158"><ele>595.0</ele><time>2026-04-25T10:02:12Z</time></trkpt><trkpt lat="43.04976267078372" lon="11.490995531650123"><ele>595.0</ele><time>2026-04-25T10:02:13Z</time></trkpt><trkpt lat="43.04989269916483" lon="11.49099781444305"><ele>595.5</ele><time>2026-04-25T10:02:14Z</time></trkpt><trkpt lat="43.05001507441394" lon="11.491018791812014"><ele>596.0</ele><time>2026-04-25T10:02:15Z</time></trkpt><trkpt lat="43.050139877097116" lon="11.490996269134069"><ele>596.5</ele><time>2026-04-25T10:02:16Z</time></trkpt><trkpt lat="43.05025054382344" lon="11.49091478335805"><ele>597.0</ele><time>2026-04-25T10:02:17Z</time></trkpt><trkpt lat="43.05033297868705" lon="11.490784390649287"><ele>597.0</ele><time>2026-04-25T10:02:18Z</time></trkpt><trkpt lat="43.05039558897127" lon="11.490617182116283"><ele>597.0</ele><time>2026-04-25T10:02:19Z</time></trkpt><trkpt lat="43.05047592104714" lon="11.490429164399856"><ele>597.0</ele><time>2026-04-25T10:02:20Z</time></trkpt><trkpt lat="43.05057117724598" lon="11.490237034682202"><ele>595.0</ele><time>2026-04-25T10:02:21Z</time></trkpt><trkpt lat="43.05064786180487" lon="11.490049674115696"><ele>593.0</ele><time>2026-04-25T10:02:22Z</time></trkpt><trkpt lat="43.05071855256447" lon="11.489886632386458"><ele>591.0</ele><time>2026-04-25T10:02:23Z</time></trkpt><trkpt lat="43.050783026309645" lon="11.48974617323011"><ele>589.0</ele><time>2026-04-25T10:02:24Z</time></trkpt><trkpt lat="43.05084650534947" lon="11.489622796951256"><ele>589.0</ele><time>2026-04-25T10:02:25Z</time></trkpt><trkpt lat="43.05094296001246" lon="11.489550650125985"><ele>589.0</ele><time>2026-04-25T10:02:26Z</time></trkpt><trkpt lat="43.051038494032895" lon="11.489490899114935"><ele>589.0</ele><time>2026-04-25T10:02:27Z</time></trkpt><trkpt lat="43.051138041731605" lon="11.489532564982479"><ele>589.0</ele><time>2026-04-25T10:02:28Z</time></trkpt><trkpt lat="43.05123494646142" lon="11.48959381022008"><ele>589.0</ele><time>2026-04-25T10:02:29Z</time></trkpt><trkpt lat="43.05129359968288" lon="11.489732195096025"><ele>589.0</ele><time>2026-04-25T10:02:30Z</time></trkpt><trkpt lat="43.051370520657905" lon="11.489873635061246"><ele>589.0</ele><time>2026-04-25T10:02:31Z</time></trkpt><trkpt lat="43.05143999884981" lon="11.49004847650532"><ele>589.0</ele><time>2026-04-25T10:02:32Z</time></trkpt><trkpt lat="43.05151728342147" lon="11.49022346201938"><ele>589.0</ele><time>2026-04-25T10:02:33Z</time></trkpt><trkpt lat="43.05159127249957" lon="11.490394725095422"><ele>583.6666666666667</ele><time>2026-04-25T10:02:34Z</time></trkpt><trkpt lat="43.05167879689597" lon="11.490556609325077"><ele>578.3333333333334</ele><time>2026-04-25T10:02:35Z</time></trkpt><trkpt lat="43.05180210293359" lon="11.4907058281568"><ele>573.0</ele><time>2026-04-25T10:02:36Z</time></trkpt><trkpt lat="43.05194334787884" lon="11.490839888481577"><ele>573.0</ele><time>2026-04-25T10:02:37Z</time></trkpt><trkpt lat="43.052085825992926" lon="11.490942207146672"><ele>573.0</ele><time>2026-04-25T10:02:38Z</time></trkpt><trkpt lat="43.052228517727364" lon="11.490993546451444"><ele>573.0</ele><time>2026-04-25T10:02:39Z</time></trkpt><trkpt lat="43.05237142542908" lon="11.490984122031495"><ele>574.0</ele><time>2026-04-25T10:02:40Z</time></trkpt><trkpt lat="43.05250707215842" lon="11.490931800392795"><ele>575.0</ele><time>2026-04-25T10:02:41Z</time></trkpt><trkpt lat="43.05264329182016" lon="11.490849649891901"><ele>576.0</ele><time>2026-04-25T10:02:42Z</time></trkpt><trkpt lat="43.05277533046974" lon="11.490770734070608"><ele>577.0</ele><time>2026-04-25T10:02:43Z</time></trkpt><trkpt lat="43.0529028586156" lon="11.490694039578994"><ele>577.0</ele><time>2026-04-25T10:02:44Z</time></trkpt><trkpt lat="43.05301619021502" lon="11.49059405392041"><ele>577.0</ele><time>2026-04-25T10:02:45Z</time></trkpt><trkpt lat="43.05310108627237" lon="11.490451329178942"><ele>577.0</ele><time>2026-04-25T10:02:46Z</time></trkpt><trkpt lat="43.05315762046236" lon="11.490284539289103"><ele>577.0</ele><time>2026-04-25T10:02:47Z</time></trkpt><trkpt lat="43.05319780820084" lon="11.490109048857677"><ele>575.0</ele><time>2026-04-25T10:02:48Z</time></trkpt><trkpt lat="43.05322639940613" lon="11.489945188429887"><ele>573.0</ele><time>2026-04-25T10:02:49Z</time></trkpt><trkpt lat="43.053256275918464" lon="11.48978309629941"><ele>571.0</ele><time>2026-04-25T10:02:50Z</time></trkpt><trkpt lat="43.05329011931716" lon="11.489629396976252"><ele>569.0</ele><time>2026-04-25T10:02:51Z</time></trkpt><trkpt lat="43.05332000231405" lon="11.48948170344216"><ele>569.0</ele><time>2026-04-25T10:02:52Z</time></trkpt><trkpt lat="43.05334624646291" lon="11.48933762327777"><ele>569.0</ele><time>2026-04-25T10:02:53Z</time></trkpt><trkpt lat="43.053379501454074" lon="11.489202225860849"><ele>569.0</ele><time>2026-04-25T10:02:54Z</time></trkpt><trkpt lat="43.05342987299819" lon="11.489081026366929"><ele>569.0</ele><time>2026-04-25T10:02:55Z</time></trkpt><trkpt lat="43.05350255996836" lon="11.488986096335758"><ele>569.0</ele><time>2026-04-25T10:02:56Z</time></trkpt><trkpt lat="43.053589345291506" lon="11.488926895790476"><ele>569.0</ele><time>2026-04-25T10:02:57Z</time></trkpt><trkpt lat="43.05367990875062" lon="11.48888620817139"><ele>569.0</ele><time>2026-04-25T10:02:58Z</time></trkpt><trkpt lat="43.05377178555638" lon="11.488853098428127"><ele>569.0</ele><time>2026-04-25T10:02:59Z</time></trkpt><trkpt lat="43.05386596523867" lon="11.488824014814938"><ele>569.0</ele><time>2026-04-25T10:03:00Z</time></trkpt><trkpt lat="43.05396322882904" lon="11.48879355908998"><ele>569.0</ele><time>2026-04-25T10:03:01Z</time></trkpt><trkpt lat="43.054060649380006" lon="11.488759146538033"><ele>568.2</ele><time>2026-04-25T10:03:02Z</time></trkpt><trkpt lat="43.0541598043498" lon="11.488725894194951"><ele>567.4</ele><time>2026-04-25T10:03:03Z</time></trkpt><trkpt lat="43.054256367517404" lon="11.488696084310929"><ele>566.6</ele><time>2026-04-25T10:03:04Z</time></trkpt><trkpt lat="43.05435297723633" lon="11.488674456224253"><ele>565.8</ele><time>2026-04-25T10:03:05Z</time></trkpt><trkpt lat="43.05445208560187" lon="11.488677658319988"><ele>565.0</ele><time>2026-04-25T10:03:06Z</time></trkpt><trkpt lat="43.05455349559298" lon="11.488705916725086"><ele>565.0</ele><time>2026-04-25T10:03:07Z</time></trkpt><trkpt lat="43.054647173879566" lon="11.48874488816632"><ele>565.0</ele><time>2026-04-25T10:03:08Z</time></trkpt><trkpt lat="43.05472932603185" lon="11.4888112403697"><ele>565.0</ele><time>2026-04-25T10:03:09Z</time></trkpt><trkpt lat="43.05480303516409" lon="11.488858763631187"><ele>565.0</ele><time>2026-04-25T10:03:10Z</time></trkpt><trkpt lat="43.05486327235461" lon="11.488898312481366"><ele>565.0</ele><time>2026-04-25T10:03:11Z</time></trkpt><trkpt lat="43.054932596915876" lon="11.488952412915385"><ele>565.0</ele><time>2026-04-25T10:03:13Z</time></trkpt><trkpt lat="43.05498601397225" lon="11.489018996835531"><ele>563.0</ele><time>2026-04-25T10:03:16Z</time></trkpt><trkpt lat="43.054921066647985" lon="11.489178748129296"><ele>561.0</ele><time>2026-04-25T10:03:20Z</time></trkpt><trkpt lat="43.054814719490864" lon="11.489104735323052"><ele>559.0</ele><time>2026-04-25T10:03:21Z</time></trkpt><trkpt lat="43.054726497358224" lon="11.489113357038583"><ele>557.0</ele><time>2026-04-25T10:03:22Z</time></trkpt><trkpt lat="43.05462647887297" lon="11.489124053675004"><ele>555.0</ele><time>2026-04-25T10:03:23Z</time></trkpt><trkpt lat="43.054517927649286" lon="11.489178487035126"><ele>555.0</ele><time>2026-04-25T10:03:24Z</time></trkpt><trkpt lat="43.05440716894791" lon="11.48914498451874"><ele>555.0</ele><time>2026-04-25T10:03:25Z</time></trkpt><trkpt lat="43.054294821013826" lon="11.489155832182199"><ele>555.0</ele><time>2026-04-25T10:03:26Z</time></trkpt><trkpt lat="43.054181200898014" lon="11.489172138334506"><ele>555.0</ele><time>2026-04-25T10:03:27Z</time></trkpt><trkpt lat="43.05407163966853" lon="11.489191007223093"><ele>557.0</ele><time>2026-04-25T10:03:28Z</time></trkpt><trkpt lat="43.05396822057995" lon="11.489238574937557"><ele>559.0</ele><time>2026-04-25T10:03:29Z</time></trkpt><trkpt lat="43.05387871003291" lon="11.489319197605374"><ele>561.0</ele><time>2026-04-25T10:03:30Z</time></trkpt><trkpt lat="43.05381218353111" lon="11.489432714234542"><ele>563.0</ele><time>2026-04-25T10:03:31Z</time></trkpt><trkpt lat="43.05377325012965" lon="11.489573885744205"><ele>565.0</ele><time>2026-04-25T10:03:32Z</time></trkpt><trkpt lat="43.05375852421862" lon="11.489728984589574"><ele>565.0</ele><time>2026-04-25T10:03:33Z</time></trkpt><trkpt lat="43.053756165682955" lon="11.489884708949356"><ele>565.0</ele><time>2026-04-25T10:03:34Z</time></trkpt><trkpt lat="43.05375543854474" lon="11.490029928962743"><ele>565.0</ele><time>2026-04-25T10:03:35Z</time></trkpt><trkpt lat="43.053748586162676" lon="11.4901611763356"><ele>565.0</ele><time>2026-04-25T10:03:36Z</time></trkpt><trkpt lat="43.0537429877673" lon="11.490289807566501"><ele>565.0</ele><time>2026-04-25T10:03:37Z</time></trkpt><trkpt lat="43.05373491245459" lon="11.490417290136026"><ele>564.6</ele><time>2026-04-25T10:03:38Z</time></trkpt><trkpt lat="43.05373227954449" lon="11.49054825972974"><ele>564.2</ele><time>2026-04-25T10:03:39Z</time></trkpt><trkpt lat="43.053730072291415" lon="11.490680020215509"><ele>563.8</ele><time>2026-04-25T10:03:40Z</time></trkpt><trkpt lat="43.05372498166978" lon="11.490812601264373"><ele>563.4</ele><time>2026-04-25T10:03:41Z</time></trkpt><trkpt lat="43.053723151755825" lon="11.490946417289999"><ele>563.0</ele><time>2026-04-25T10:03:42Z</time></trkpt><trkpt lat="43.053720195714355" lon="11.491085394734993"><ele>563.0</ele><time>2026-04-25T10:03:43Z</time></trkpt><trkpt lat="43.05371314679819" lon="11.49122587316819"><ele>563.0</ele><time>2026-04-25T10:03:44Z</time></trkpt><trkpt lat="43.053708461690064" lon="11.491367088585953"><ele>563.0</ele><time>2026-04-25T10:03:45Z</time></trkpt><trkpt lat="43.053707937049225" lon="11.49150481553116"><ele>563.0</ele><time>2026-04-25T10:03:46Z</time></trkpt><trkpt lat="43.05370578236546" lon="11.491631296219994"><ele>563.0</ele><time>2026-04-25T10:03:47Z</time></trkpt><trkpt lat="43.05369502372013" lon="11.491737482289821"><ele>559.75</ele><time>2026-04-25T10:03:48Z</time></trkpt><trkpt lat="43.05365451417104" lon="11.49186162935834"><ele>556.5</ele><time>2026-04-25T10:03:50Z</time></trkpt><trkpt lat="43.05369817873887" lon="11.491729321055562"><ele>553.25</ele><time>2026-04-25T10:04:17Z</time></trkpt><trkpt lat="43.05372802091632" lon="11.491858416989858"><ele>550.0</ele><time>2026-04-25T10:04:18Z</time></trkpt><trkpt lat="43.053740812006346" lon="11.491534908039274"><ele>550.0</ele><time>2026-04-25T10:04:19Z</time></trkpt><trkpt lat="43.05375009275432" lon="11.491426935568732"><ele>550.0</ele><time>2026-04-25T10:04:20Z</time></trkpt><trkpt lat="43.05374802214315" lon="11.491308294304131"><ele>550.0</ele><time>2026-04-25T10:04:21Z</time></trkpt><trkpt lat="43.05374415333393" lon="11.491184305243092"><ele>550.0</ele><time>2026-04-25T10:04:22Z</time></trkpt><trkpt lat="43.05374388689122" lon="11.491048730018525"><ele>550.0</ele><time>2026-04-25T10:04:23Z</time></trkpt><trkpt lat="43.053750042000175" lon="11.49090893547674"><ele>553.25</ele><time>2026-04-25T10:04:24Z</time></trkpt><trkpt lat="43.053758563333616" lon="11.490758756413602"><ele>556.5</ele><time>2026-04-25T10:04:25Z</time></trkpt><trkpt lat="43.05376445529949" lon="11.490600560497604"><ele>559.75</ele><time>2026-04-25T10:04:26Z</time></trkpt><trkpt lat="43.05376900022583" lon="11.490432862519704"><ele>563.0</ele><time>2026-04-25T10:04:27Z</time></trkpt><trkpt lat="43.05377178642069" lon="11.49026627959222"><ele>563.4</ele><time>2026-04-25T10:04:28Z</time></trkpt><trkpt lat="43.05377796354189" lon="11.490098855233557"><ele>563.8</ele><time>2026-04-25T10:04:29Z</time></trkpt><trkpt lat="43.05378633810514" lon="11.489940437336264"><ele>564.2</ele><time>2026-04-25T10:04:30Z</time></trkpt><trkpt lat="43.05378659364953" lon="11.489797649971635"><ele>564.6</ele><time>2026-04-25T10:04:31Z</time></trkpt><trkpt lat="43.05379327668173" lon="11.489664861206355"><ele>565.0</ele><time>2026-04-25T10:04:32Z</time></trkpt><trkpt lat="43.05381157442936" lon="11.48955501919045"><ele>565.5714285714286</ele><time>2026-04-25T10:04:33Z</time></trkpt><trkpt lat="43.053840205554216" lon="11.48946280695745"><ele>566.1428571428571</ele><time>2026-04-25T10:04:34Z</time></trkpt><trkpt lat="43.05387647706372" lon="11.489383818764349"><ele>566.7142857142858</ele><time>2026-04-25T10:04:35Z</time></trkpt><trkpt lat="43.053924904770454" lon="11.489321555098737"><ele>567.2857142857142</ele><time>2026-04-25T10:04:36Z</time></trkpt><trkpt lat="43.0539837885198" lon="11.489279895771874"><ele>567.8571428571429</ele><time>2026-04-25T10:04:37Z</time></trkpt><trkpt lat="43.05404893975693" lon="11.489249749140672"><ele>568.4285714285714</ele><time>2026-04-25T10:04:38Z</time></trkpt><trkpt lat="43.05411622226701" lon="11.48922529576465"><ele>569.0</ele><time>2026-04-25T10:04:39Z</time></trkpt><trkpt lat="43.05418778784969" lon="11.489207842872359"><ele>566.2</ele><time>2026-04-25T10:04:40Z</time></trkpt><trkpt lat="43.05426019308924" lon="11.4892024288084"><ele>563.4</ele><time>2026-04-25T10:04:41Z</time></trkpt><trkpt lat="43.05433147607549" lon="11.489195759676514"><ele>560.6</ele><time>2026-04-25T10:04:42Z</time></trkpt><trkpt lat="43.054449874256456" lon="11.489188988300223"><ele>557.8</ele><time>2026-04-25T10:04:44Z</time></trkpt><trkpt lat="43.054562016964255" lon="11.489190243206442"><ele>555.0</ele><time>2026-04-25T10:04:46Z</time></trkpt><trkpt lat="43.05467707009915" lon="11.489176151217055"><ele>555.0000000000001</ele><time>2026-04-25T10:04:48Z</time></trkpt><trkpt lat="43.05476936604292" lon="11.489157926927872"><ele>555.0</ele><time>2026-04-25T10:04:50Z</time></trkpt><trkpt lat="43.05484473395763" lon="11.48915071859458"><ele>555.0</ele><time>2026-04-25T10:04:52Z</time></trkpt><trkpt lat="43.054914888336874" lon="11.489146020777444"><ele>555.0</ele><time>2026-04-25T10:04:58Z</time></trkpt><trkpt lat="43.054976996724754" lon="11.489127170291216"><ele>555.0</ele><time>2026-04-25T10:05:15Z</time></trkpt><trkpt lat="43.055042856850065" lon="11.48914171062522"><ele>555.0000000000001</ele><time>2026-04-25T10:05:19Z</time></trkpt><trkpt lat="43.055001157783956" lon="11.489209815260306"><ele>555.0</ele><time>2026-04-25T10:05:22Z</time></trkpt><trkpt lat="43.054879872185786" lon="11.489210712774241"><ele>555.0</ele><time>2026-04-25T10:05:24Z</time></trkpt><trkpt lat="43.054737412785386" lon="11.489226107040036"><ele>555.0</ele><time>2026-04-25T10:05:25Z</time></trkpt><trkpt lat="43.054617049017395" lon="11.489240781199031"><ele>555.0</ele><time>2026-04-25T10:05:26Z</time></trkpt><trkpt lat="43.054508764032185" lon="11.489251395603926"><ele>555.0</ele><time>2026-04-25T10:05:27Z</time></trkpt><trkpt lat="43.05440243047539" lon="11.489261555913332"><ele>555.0</ele><time>2026-04-25T10:05:28Z</time></trkpt><trkpt lat="43.05430864662062" lon="11.48929149211778"><ele>555.0</ele><time>2026-04-25T10:05:29Z</time></trkpt><trkpt lat="43.05423254623825" lon="11.489347144299671"><ele>555.0</ele><time>2026-04-25T10:05:30Z</time></trkpt><trkpt lat="43.054179876238706" lon="11.489422858733464"><ele>555.0</ele><time>2026-04-25T10:05:31Z</time></trkpt><trkpt lat="43.054142054812914" lon="11.48950280318124"><ele>555.0</ele><time>2026-04-25T10:05:32Z</time></trkpt><trkpt lat="43.0541234205385" lon="11.489594819065601"><ele>555.0</ele><time>2026-04-25T10:05:33Z</time></trkpt><trkpt lat="43.054112544627806" lon="11.489688977928108"><ele>553.5</ele><time>2026-04-25T10:05:34Z</time></trkpt><trkpt lat="43.054121726914126" lon="11.489792352081823"><ele>552.0</ele><time>2026-04-25T10:05:35Z</time></trkpt><trkpt lat="43.05415597429" lon="11.48989221281482"><ele>550.5</ele><time>2026-04-25T10:05:36Z</time></trkpt><trkpt lat="43.05420513730006" lon="11.489984399932212"><ele>549.0</ele><time>2026-04-25T10:05:37Z</time></trkpt><trkpt lat="43.05427009352814" lon="11.490062906685912"><ele>547.5</ele><time>2026-04-25T10:05:38Z</time></trkpt><trkpt lat="43.0543452322295" lon="11.490131482904753"><ele>546.0</ele><time>2026-04-25T10:05:39Z</time></trkpt><trkpt lat="43.05441287226236" lon="11.490221867021425"><ele>546.0</ele><time>2026-04-25T10:05:40Z</time></trkpt><trkpt lat="43.05448406213732" lon="11.490289335113497"><ele>546.0</ele><time>2026-04-25T10:05:41Z</time></trkpt><trkpt lat="43.0545511223962" lon="11.49035525968608"><ele>546.0</ele><time>2026-04-25T10:05:42Z</time></trkpt><trkpt lat="43.05462045946434" lon="11.49041137476955"><ele>546.0</ele><time>2026-04-25T10:05:43Z</time></trkpt><trkpt lat="43.054675834899264" lon="11.490486901117196"><ele>546.0</ele><time>2026-04-25T10:05:44Z</time></trkpt><trkpt lat="43.05473467752114" lon="11.490554602608496"><ele>546.0</ele><time>2026-04-25T10:05:45Z</time></trkpt><trkpt lat="43.05479363181429" lon="11.490627918323005"><ele>544.6666666666666</ele><time>2026-04-25T10:05:46Z</time></trkpt><trkpt lat="43.054848977805925" lon="11.490709433763975"><ele>543.3333333333334</ele><time>2026-04-25T10:05:47Z</time></trkpt><trkpt lat="43.05490684223616" lon="11.490792894764287"><ele>542.0</ele><time>2026-04-25T10:05:48Z</time></trkpt><trkpt lat="43.05495103452247" lon="11.490892876072841"><ele>540.6666666666667</ele><time>2026-04-25T10:05:49Z</time></trkpt><trkpt lat="43.05499911002014" lon="11.49098553643169"><ele>539.3333333333334</ele><time>2026-04-25T10:05:50Z</time></trkpt><trkpt lat="43.05504030406566" lon="11.491071754686967"><ele>538.0</ele><time>2026-04-25T10:05:51Z</time></trkpt><trkpt lat="43.05507708678278" lon="11.491153392782932"><ele>537.8333333333334</ele><time>2026-04-25T10:05:52Z</time></trkpt><trkpt lat="43.05512292087656" lon="11.491222229870258"><ele>537.6666666666667</ele><time>2026-04-25T10:05:53Z</time></trkpt><trkpt lat="43.05514141073016" lon="11.491314777855322"><ele>537.5</ele><time>2026-04-25T10:05:54Z</time></trkpt><trkpt lat="43.0551769085584" lon="11.491395657233467"><ele>537.3333333333334</ele><time>2026-04-25T10:05:55Z</time></trkpt><trkpt lat="43.05521137511905" lon="11.491469558018062"><ele>537.1666666666666</ele><time>2026-04-25T10:05:56Z</time></trkpt><trkpt lat="43.05526863976123" lon="11.491582618652561"><ele>537.0</ele><time>2026-04-25T10:05:58Z</time></trkpt><trkpt lat="43.05532573365245" lon="11.49168192757015"><ele>533.6666666666666</ele><time>2026-04-25T10:06:00Z</time></trkpt><trkpt lat="43.0553724800167" lon="11.491746714701732"><ele>530.3333333333334</ele><time>2026-04-25T10:06:02Z</time></trkpt><trkpt lat="43.05543547507581" lon="11.491821507836946"><ele>527.0</ele><time>2026-04-25T10:06:05Z</time></trkpt><trkpt lat="43.055402468376926" lon="11.491902104136042"><ele>523.6666666666667</ele><time>2026-04-25T10:06:10Z</time></trkpt><trkpt lat="43.05532087453775" lon="11.49179938104707"><ele>520.3333333333334</ele><time>2026-04-25T10:06:12Z</time></trkpt><trkpt lat="43.055259034252664" lon="11.491714575997895"><ele>517.0</ele><time>2026-04-25T10:06:13Z</time></trkpt><trkpt lat="43.05516075666336" lon="11.491592470707573"><ele>517.0</ele><time>2026-04-25T10:06:14Z</time></trkpt><trkpt lat="43.05506587767007" lon="11.491449938403692"><ele>517.0</ele><time>2026-04-25T10:06:15Z</time></trkpt><trkpt lat="43.05498569613715" lon="11.491307892504036"><ele>517.0</ele><time>2026-04-25T10:06:16Z</time></trkpt><trkpt lat="43.05490903593256" lon="11.491179060217547"><ele>517.0</ele><time>2026-04-25T10:06:17Z</time></trkpt><trkpt lat="43.05483479864604" lon="11.491068396382763"><ele>521.2</ele><time>2026-04-25T10:06:18Z</time></trkpt><trkpt lat="43.05476565885811" lon="11.490967642333155"><ele>525.4000000000001</ele><time>2026-04-25T10:06:19Z</time></trkpt><trkpt lat="43.054688993174175" lon="11.490906423020814"><ele>529.5999999999999</ele><time>2026-04-25T10:06:20Z</time></trkpt><trkpt lat="43.05459998217119" lon="11.49089495748734"><ele>533.8</ele><time>2026-04-25T10:06:21Z</time></trkpt><trkpt lat="43.054506844005026" lon="11.490931976117372"><ele>538.0</ele><time>2026-04-25T10:06:22Z</time></trkpt><trkpt lat="43.05443046171417" lon="11.49101586019677"><ele>538.0</ele><time>2026-04-25T10:06:23Z</time></trkpt><trkpt lat="43.0543785344529" lon="11.491136227249296"><ele>538.0</ele><time>2026-04-25T10:06:24Z</time></trkpt><trkpt lat="43.05435814816586" lon="11.491280408178167"><ele>538.0</ele><time>2026-04-25T10:06:25Z</time></trkpt><trkpt lat="43.05436254029713" lon="11.491439879000088"><ele>538.0</ele><time>2026-04-25T10:06:26Z</time></trkpt><trkpt lat="43.05437036620666" lon="11.49162025840501"><ele>537.3333333333334</ele><time>2026-04-25T10:06:27Z</time></trkpt><trkpt lat="43.054394154012634" lon="11.491812377116608"><ele>536.6666666666666</ele><time>2026-04-25T10:06:28Z</time></trkpt><trkpt lat="43.054414774403725" lon="11.49202300996864"><ele>536.0</ele><time>2026-04-25T10:06:29Z</time></trkpt><trkpt lat="43.05442969689679" lon="11.492233285322095"><ele>533.0</ele><time>2026-04-25T10:06:30Z</time></trkpt><trkpt lat="43.054449049448216" lon="11.492438779461512"><ele>530.0</ele><time>2026-04-25T10:06:31Z</time></trkpt><trkpt lat="43.05443212316574" lon="11.492638070997291"><ele>527.0</ele><time>2026-04-25T10:06:32Z</time></trkpt><trkpt lat="43.05439675889181" lon="11.492835388203828"><ele>524.0</ele><time>2026-04-25T10:06:33Z</time></trkpt><trkpt lat="43.0543420673969" lon="11.493013644012414"><ele>521.5</ele><time>2026-04-25T10:06:34Z</time></trkpt><trkpt lat="43.054266267700335" lon="11.493176224226023"><ele>519.0</ele><time>2026-04-25T10:06:35Z</time></trkpt><trkpt lat="43.05416797742756" lon="11.49331813045923"><ele>516.5</ele><time>2026-04-25T10:06:36Z</time></trkpt><trkpt lat="43.054054220932066" lon="11.49344856307444"><ele>514.0</ele><time>2026-04-25T10:06:37Z</time></trkpt><trkpt lat="43.05391738430445" lon="11.493564337478725"><ele>514.0</ele><time>2026-04-25T10:06:38Z</time></trkpt><trkpt lat="43.05378438954455" lon="11.493689117884063"><ele>514.0</ele><time>2026-04-25T10:06:39Z</time></trkpt><trkpt lat="43.053671481545834" lon="11.493847122795163"><ele>514.0</ele><time>2026-04-25T10:06:40Z</time></trkpt><trkpt lat="43.05358963058541" lon="11.49403171841777"><ele>512.0</ele><time>2026-04-25T10:06:41Z</time></trkpt><trkpt lat="43.05351144126223" lon="11.494221643543339"><ele>510.0</ele><time>2026-04-25T10:06:42Z</time></trkpt><trkpt lat="43.05349847149546" lon="11.49445013239016"><ele>508.0</ele><time>2026-04-25T10:06:43Z</time></trkpt><trkpt lat="43.05349970999083" lon="11.494664813391022"><ele>507.25</ele><time>2026-04-25T10:06:44Z</time></trkpt><trkpt lat="43.053492863440106" lon="11.494866134990346"><ele>506.5</ele><time>2026-04-25T10:06:45Z</time></trkpt><trkpt lat="43.05351811719854" lon="11.495057880851748"><ele>505.75</ele><time>2026-04-25T10:06:46Z</time></trkpt><trkpt lat="43.053530150365454" lon="11.495242037524742"><ele>505.0</ele><time>2026-04-25T10:06:47Z</time></trkpt><trkpt lat="43.053541950907444" lon="11.495428246184018"><ele>504.75</ele><time>2026-04-25T10:06:48Z</time></trkpt><trkpt lat="43.05354943084805" lon="11.495619971774786"><ele>504.5</ele><time>2026-04-25T10:06:49Z</time></trkpt><trkpt lat="43.05354735915859" lon="11.495822190027823"><ele>504.25</ele><time>2026-04-25T10:06:50Z</time></trkpt><trkpt lat="43.0535331381068" lon="11.496028505039458"><ele>504.0</ele><time>2026-04-25T10:06:51Z</time></trkpt><trkpt lat="43.0535073660446" lon="11.496232409848503"><ele>502.75</ele><time>2026-04-25T10:06:52Z</time></trkpt><trkpt lat="43.05348146379564" lon="11.496429766413726"><ele>501.5</ele><time>2026-04-25T10:06:53Z</time></trkpt><trkpt lat="43.05345794370655" lon="11.496623881535841"><ele>500.25</ele><time>2026-04-25T10:06:54Z</time></trkpt><trkpt lat="43.05343163423789" lon="11.496820400508023"><ele>499.0</ele><time>2026-04-25T10:06:55Z</time></trkpt><trkpt lat="43.05339869221034" lon="11.497014461224115"><ele>498.25</ele><time>2026-04-25T10:06:56Z</time></trkpt><trkpt lat="43.05335651041125" lon="11.49719862366485"><ele>497.5</ele><time>2026-04-25T10:06:57Z</time></trkpt><trkpt lat="43.053301471443106" lon="11.497375479691058"><ele>496.75</ele><time>2026-04-25T10:06:58Z</time></trkpt><trkpt lat="43.05324255895771" lon="11.497544643918047"><ele>496.0</ele><time>2026-04-25T10:06:59Z</time></trkpt><trkpt lat="43.053176739111514" lon="11.49771054606531"><ele>497.0</ele><time>2026-04-25T10:07:00Z</time></trkpt><trkpt lat="43.053104904940525" lon="11.497875118549404"><ele>498.0</ele><time>2026-04-25T10:07:01Z</time></trkpt><trkpt lat="43.05303049169341" lon="11.49803942417049"><ele>499.0</ele><time>2026-04-25T10:07:02Z</time></trkpt><trkpt lat="43.05295106516258" lon="11.498209146988778"><ele>500.0</ele><time>2026-04-25T10:07:03Z</time></trkpt><trkpt lat="43.05287260964067" lon="11.498383458525364"><ele>500.0</ele><time>2026-04-25T10:07:04Z</time></trkpt><trkpt lat="43.05279913704135" lon="11.498563577454043"><ele>500.0</ele><time>2026-04-25T10:07:05Z</time></trkpt><trkpt lat="43.0527239487589" lon="11.498746341001366"><ele>500.0</ele><time>2026-04-25T10:07:06Z</time></trkpt><trkpt lat="43.052648689073784" lon="11.498928438861816"><ele>497.66666666666663</ele><time>2026-04-25T10:07:07Z</time></trkpt><trkpt lat="43.05257235067324" lon="11.49911235201295"><ele>495.33333333333337</ele><time>2026-04-25T10:07:08Z</time></trkpt><trkpt lat="43.052494423911966" lon="11.49930168933803"><ele>493.0</ele><time>2026-04-25T10:07:09Z</time></trkpt><trkpt lat="43.05241687872001" lon="11.499490079086053"><ele>488.33333333333337</ele><time>2026-04-25T10:07:10Z</time></trkpt><trkpt lat="43.052338225509686" lon="11.49967871312574"><ele>483.66666666666663</ele><time>2026-04-25T10:07:11Z</time></trkpt><trkpt lat="43.052262007255415" lon="11.499867393739487"><ele>479.0</ele><time>2026-04-25T10:07:12Z</time></trkpt><trkpt lat="43.05218806368617" lon="11.500053628238593"><ele>479.0</ele><time>2026-04-25T10:07:13Z</time></trkpt><trkpt lat="43.05211417216355" lon="11.500230025552733"><ele>479.0</ele><time>2026-04-25T10:07:14Z</time></trkpt><trkpt lat="43.052045582887004" lon="11.500401027280693"><ele>479.0</ele><time>2026-04-25T10:07:15Z</time></trkpt><trkpt lat="43.05199398425555" lon="11.500574338185112"><ele>479.0</ele><time>2026-04-25T10:07:16Z</time></trkpt><trkpt lat="43.0519550712559" lon="11.500749852208177"><ele>477.75</ele><time>2026-04-25T10:07:17Z</time></trkpt><trkpt lat="43.051933379650606" lon="11.50092757749758"><ele>476.5</ele><time>2026-04-25T10:07:18Z</time></trkpt><trkpt lat="43.0519259126448" lon="11.501112370015575"><ele>475.25</ele><time>2026-04-25T10:07:19Z</time></trkpt><trkpt lat="43.05192963856429" lon="11.501298649575842"><ele>474.0</ele><time>2026-04-25T10:07:20Z</time></trkpt><trkpt lat="43.051936327701455" lon="11.501488349324534"><ele>472.33333333333337</ele><time>2026-04-25T10:07:21Z</time></trkpt><trkpt lat="43.05194556870737" lon="11.501672742005871"><ele>470.6666666666667</ele><time>2026-04-25T10:07:22Z</time></trkpt><trkpt lat="43.051944634294244" lon="11.501853255883399"><ele>469.0</ele><time>2026-04-25T10:07:23Z</time></trkpt><trkpt lat="43.05189345862849" lon="11.502181886154832"><ele>468.25</ele><time>2026-04-25T10:07:25Z</time></trkpt><trkpt lat="43.051865235088115" lon="11.502335557354774"><ele>467.5</ele><time>2026-04-25T10:07:26Z</time></trkpt><trkpt lat="43.05181592698563" lon="11.502483187356967"><ele>466.75</ele><time>2026-04-25T10:07:27Z</time></trkpt><trkpt lat="43.051778239169415" lon="11.502636106281363"><ele>466.0</ele><time>2026-04-25T10:07:28Z</time></trkpt><trkpt lat="43.05174529596271" lon="11.502789082305968"><ele>465.5</ele><time>2026-04-25T10:07:29Z</time></trkpt><trkpt lat="43.05172938604774" lon="11.502944903752372"><ele>465.0</ele><time>2026-04-25T10:07:30Z</time></trkpt><trkpt lat="43.05173816565738" lon="11.503100289130806"><ele>464.5</ele><time>2026-04-25T10:07:31Z</time></trkpt><trkpt lat="43.051767644267784" lon="11.503247827994683"><ele>464.0</ele><time>2026-04-25T10:07:32Z</time></trkpt><trkpt lat="43.051814742964126" lon="11.503385683600037"><ele>464.0</ele><time>2026-04-25T10:07:33Z</time></trkpt><trkpt lat="43.05186189501953" lon="11.503536360054774"><ele>464.0</ele><time>2026-04-25T10:07:34Z</time></trkpt><trkpt lat="43.05193767255549" lon="11.50366835068406"><ele>464.0</ele><time>2026-04-25T10:07:35Z</time></trkpt><trkpt lat="43.05199843257317" lon="11.503815533275555"><ele>464.0</ele><time>2026-04-25T10:07:35.999Z</time></trkpt><trkpt lat="43.05205802988351" lon="11.503963587295138"><ele>462.0</ele><time>2026-04-25T10:07:36.999Z</time></trkpt><trkpt lat="43.052118515375376" lon="11.50411350290032"><ele>460.0</ele><time>2026-04-25T10:07:37.999Z</time></trkpt><trkpt lat="43.05217934756753" lon="11.50426444197538"><ele>458.0</ele><time>2026-04-25T10:07:38.999Z</time></trkpt><trkpt lat="43.05222352974695" lon="11.504411682680201"><ele>456.0</ele><time>2026-04-25T10:07:39.999Z</time></trkpt><trkpt lat="43.05225887943372" lon="11.504534127858445"><ele>454.4</ele><time>2026-04-25T10:07:40.999Z</time></trkpt><trkpt lat="43.0522816926623" lon="11.504636340171285"><ele>452.8</ele><time>2026-04-25T10:07:41.999Z</time></trkpt><trkpt lat="43.052292329019515" lon="11.504754346175583"><ele>451.19999999999993</ele><time>2026-04-25T10:07:43.999Z</time></trkpt><trkpt lat="43.05227028904583" lon="11.504883147344978"><ele>449.59999999999997</ele><time>2026-04-25T10:07:45.999Z</time></trkpt><trkpt lat="43.052251405513665" lon="11.50505243173853"><ele>448.0</ele><time>2026-04-25T10:07:47.999Z</time></trkpt><trkpt lat="43.05223593142557" lon="11.50514865452677"><ele>448.0</ele><time>2026-04-25T10:07:48.999Z</time></trkpt><trkpt lat="43.05220529431368" lon="11.505257344670982"><ele>447.99999999999994</ele><time>2026-04-25T10:07:49.999Z</time></trkpt><trkpt lat="43.05216703050444" lon="11.50537587248448"><ele>447.99999999999994</ele><time>2026-04-25T10:07:50.999Z</time></trkpt><trkpt lat="43.05212583601278" lon="11.5055085935222"><ele>448.0</ele><time>2026-04-25T10:07:51.999Z</time></trkpt><trkpt lat="43.05208190883255" lon="11.505647409045952"><ele>448.0</ele><time>2026-04-25T10:07:52.999Z</time></trkpt><trkpt lat="43.052035069879736" lon="11.505791535851587"><ele>448.0</ele><time>2026-04-25T10:07:53.999Z</time></trkpt><trkpt lat="43.05198559857801" lon="11.505941639218623"><ele>448.0</ele><time>2026-04-25T10:07:55Z</time></trkpt><trkpt lat="43.05193510042024" lon="11.506096524931746"><ele>448.0</ele><time>2026-04-25T10:07:56Z</time></trkpt><trkpt lat="43.051886991958604" lon="11.50625663205341"><ele>448.0</ele><time>2026-04-25T10:07:57Z</time></trkpt><trkpt lat="43.05184307261029" lon="11.506421233876372"><ele>449.25</ele><time>2026-04-25T10:07:58Z</time></trkpt><trkpt lat="43.05181395214691" lon="11.506594088072434"><ele>450.5</ele><time>2026-04-25T10:07:59Z</time></trkpt><trkpt lat="43.051805928748706" lon="11.50677581652172"><ele>451.75</ele><time>2026-04-25T10:08:00Z</time></trkpt><trkpt lat="43.051816888881085" lon="11.506959471380855"><ele>453.0</ele><time>2026-04-25T10:08:01Z</time></trkpt><trkpt lat="43.05182763820355" lon="11.507143517618855"><ele>453.5</ele><time>2026-04-25T10:08:02Z</time></trkpt><trkpt lat="43.051822398660256" lon="11.507321910457339"><ele>454.0</ele><time>2026-04-25T10:08:03Z</time></trkpt><trkpt lat="43.05180133258835" lon="11.507495560117698"><ele>454.5</ele><time>2026-04-25T10:08:04Z</time></trkpt><trkpt lat="43.051775847932035" lon="11.507669064204777"><ele>455.0</ele><time>2026-04-25T10:08:05Z</time></trkpt><trkpt lat="43.05173785568675" lon="11.507841939348143"><ele>454.5</ele><time>2026-04-25T10:08:06Z</time></trkpt><trkpt lat="43.05169621699094" lon="11.508023571110167"><ele>454.0</ele><time>2026-04-25T10:08:07Z</time></trkpt><trkpt lat="43.051685127338565" lon="11.50819047936998"><ele>453.5</ele><time>2026-04-25T10:08:08Z</time></trkpt><trkpt lat="43.05160287585053" lon="11.508324880730893"><ele>453.0</ele><time>2026-04-25T10:08:09Z</time></trkpt><trkpt lat="43.05152956611953" lon="11.508461317167576"><ele>453.0</ele><time>2026-04-25T10:08:10Z</time></trkpt><trkpt lat="43.05144168557952" lon="11.508580151870596"><ele>453.0</ele><time>2026-04-25T10:08:11Z</time></trkpt><trkpt lat="43.05135516047742" lon="11.508693902172903"><ele>453.0</ele><time>2026-04-25T10:08:12Z</time></trkpt><trkpt lat="43.051266846748874" lon="11.508808525110062"><ele>453.0</ele><time>2026-04-25T10:08:13Z</time></trkpt><trkpt lat="43.051185398732976" lon="11.508922091689284"><ele>449.5</ele><time>2026-04-25T10:08:14Z</time></trkpt><trkpt lat="43.05110435251837" lon="11.509031923180158"><ele>446.0</ele><time>2026-04-25T10:08:15Z</time></trkpt><trkpt lat="43.05101714185238" lon="11.509133061111983"><ele>442.5</ele><time>2026-04-25T10:08:16Z</time></trkpt><trkpt lat="43.050927583906095" lon="11.509218563088677"><ele>439.0</ele><time>2026-04-25T10:08:17Z</time></trkpt><trkpt lat="43.05083766058287" lon="11.509310119324551"><ele>439.25</ele><time>2026-04-25T10:08:18Z</time></trkpt><trkpt lat="43.05075102013944" lon="11.509400324050018"><ele>439.5</ele><time>2026-04-25T10:08:19Z</time></trkpt><trkpt lat="43.05066581571847" lon="11.50948850944499"><ele>439.75</ele><time>2026-04-25T10:08:20Z</time></trkpt><trkpt lat="43.05057320099685" lon="11.509590174325858"><ele>440.0</ele><time>2026-04-25T10:08:21Z</time></trkpt><trkpt lat="43.0504760591047" lon="11.509702924064506"><ele>437.5</ele><time>2026-04-25T10:08:22Z</time></trkpt><trkpt lat="43.050378831965574" lon="11.509807722023226"><ele>435.0</ele><time>2026-04-25T10:08:23Z</time></trkpt><trkpt lat="43.05027894326227" lon="11.509905808731697"><ele>432.5</ele><time>2026-04-25T10:08:24Z</time></trkpt><trkpt lat="43.05018565886343" lon="11.510003405377988"><ele>430.0</ele><time>2026-04-25T10:08:25Z</time></trkpt><trkpt lat="43.050094987400335" lon="11.510096156495818"><ele>430.0</ele><time>2026-04-25T10:08:26Z</time></trkpt><trkpt lat="43.05000389442363" lon="11.51018953291242"><ele>430.0</ele><time>2026-04-25T10:08:27Z</time></trkpt><trkpt lat="43.0499093522663" lon="11.510280221507317"><ele>430.0</ele><time>2026-04-25T10:08:28Z</time></trkpt><trkpt lat="43.04980515653245" lon="11.510385430005009"><ele>430.0</ele><time>2026-04-25T10:08:29Z</time></trkpt><trkpt lat="43.04968639858371" lon="11.510511252790499"><ele>425.33333333333337</ele><time>2026-04-25T10:08:30Z</time></trkpt><trkpt lat="43.04958116777974" lon="11.510657520962983"><ele>420.66666666666663</ele><time>2026-04-25T10:08:31Z</time></trkpt><trkpt lat="43.04948379390223" lon="11.510821542677382"><ele>416.0</ele><time>2026-04-25T10:08:32Z</time></trkpt><trkpt lat="43.04938541924954" lon="11.51098837971601"><ele>416.0</ele><time>2026-04-25T10:08:33Z</time></trkpt><trkpt lat="43.049292082061626" lon="11.51115520824155"><ele>416.0</ele><time>2026-04-25T10:08:34Z</time></trkpt><trkpt lat="43.04921590765913" lon="11.511331259963999"><ele>416.0</ele><time>2026-04-25T10:08:35Z</time></trkpt><trkpt lat="43.049161106508095" lon="11.5115231625255"><ele>413.0</ele><time>2026-04-25T10:08:36Z</time></trkpt><trkpt lat="43.04911524214918" lon="11.511721041544561"><ele>410.0</ele><time>2026-04-25T10:08:37Z</time></trkpt><trkpt lat="43.04906876561024" lon="11.511916729852148"><ele>407.0</ele><time>2026-04-25T10:08:38Z</time></trkpt><trkpt lat="43.04901047507975" lon="11.512105237932081"><ele>407.0</ele><time>2026-04-25T10:08:39Z</time></trkpt><trkpt lat="43.04894735815052" lon="11.512288859380964"><ele>407.0</ele><time>2026-04-25T10:08:40Z</time></trkpt><trkpt lat="43.048882408596604" lon="11.512466050827912"><ele>407.0</ele><time>2026-04-25T10:08:41Z</time></trkpt><trkpt lat="43.04881463863536" lon="11.512630281568862"><ele>407.0</ele><time>2026-04-25T10:08:42Z</time></trkpt><trkpt lat="43.04874885393307" lon="11.512778973326922"><ele>407.0</ele><time>2026-04-25T10:08:43Z</time></trkpt><trkpt lat="43.04870912783453" lon="11.512919675677935"><ele>407.0</ele><time>2026-04-25T10:08:44Z</time></trkpt><trkpt lat="43.048686749681245" lon="11.513058138990964"><ele>407.0</ele><time>2026-04-25T10:08:45Z</time></trkpt><trkpt lat="43.04873992661866" lon="11.513211442589144"><ele>407.0</ele><time>2026-04-25T10:08:46Z</time></trkpt><trkpt lat="43.04880114440919" lon="11.513359455451338"><ele>407.0</ele><time>2026-04-25T10:08:47Z</time></trkpt><trkpt lat="43.0488657980096" lon="11.513511959268016"><ele>407.0</ele><time>2026-04-25T10:08:48Z</time></trkpt><trkpt lat="43.04890862284592" lon="11.513677754638614"><ele>407.0</ele><time>2026-04-25T10:08:49Z</time></trkpt><trkpt lat="43.048894912597255" lon="11.513852115348435"><ele>407.0</ele><time>2026-04-25T10:08:50Z</time></trkpt><trkpt lat="43.04886979000521" lon="11.514024789517869"><ele>406.25</ele><time>2026-04-25T10:08:51Z</time></trkpt><trkpt lat="43.04884863910912" lon="11.514207790146207"><ele>405.5</ele><time>2026-04-25T10:08:52Z</time></trkpt><trkpt lat="43.04880568402139" lon="11.51437867613561"><ele>404.75</ele><time>2026-04-25T10:08:53Z</time></trkpt><trkpt lat="43.048768644296324" lon="11.514545747135998"><ele>404.0</ele><time>2026-04-25T10:08:54Z</time></trkpt><trkpt lat="43.04874310437868" lon="11.514697909580072"><ele>403.0</ele><time>2026-04-25T10:08:55Z</time></trkpt><trkpt lat="43.04873723773253" lon="11.514847448905149"><ele>402.0</ele><time>2026-04-25T10:08:56Z</time></trkpt><trkpt lat="43.04876506415341" lon="11.514995915160643"><ele>401.0</ele><time>2026-04-25T10:08:57Z</time></trkpt><trkpt lat="43.04882944094463" lon="11.515124851405249"><ele>400.0</ele><time>2026-04-25T10:08:58Z</time></trkpt><trkpt lat="43.048923337424945" lon="11.51521290116174"><ele>399.0</ele><time>2026-04-25T10:08:59Z</time></trkpt><trkpt lat="43.04903095070137" lon="11.515258017147413"><ele>399.0</ele><time>2026-04-25T10:09:00Z</time></trkpt><trkpt lat="43.04913491890088" lon="11.515275859700848"><ele>399.0</ele><time>2026-04-25T10:09:01Z</time></trkpt><trkpt lat="43.04923899699124" lon="11.515294202809773"><ele>399.0</ele><time>2026-04-25T10:09:02Z</time></trkpt><trkpt lat="43.04934258684584" lon="11.515318401329765"><ele>399.0</ele><time>2026-04-25T10:09:03Z</time></trkpt><trkpt lat="43.04944754603082" lon="11.51534128367341"><ele>399.0</ele><time>2026-04-25T10:09:04Z</time></trkpt><trkpt lat="43.04954842410679" lon="11.515406543358704"><ele>397.25</ele><time>2026-04-25T10:09:05Z</time></trkpt><trkpt lat="43.04965944026245" lon="11.515452081193901"><ele>395.5</ele><time>2026-04-25T10:09:06Z</time></trkpt><trkpt lat="43.049728805953535" lon="11.515598213105317"><ele>393.75</ele><time>2026-04-25T10:09:07Z</time></trkpt><trkpt lat="43.04979687419949" lon="11.515756330707317"><ele>392.0</ele><time>2026-04-25T10:09:08Z</time></trkpt><trkpt lat="43.04982889513559" lon="11.515938184798658"><ele>392.0</ele><time>2026-04-25T10:09:09Z</time></trkpt><trkpt lat="43.04982784840693" lon="11.516128290953398"><ele>392.0</ele><time>2026-04-25T10:09:10Z</time></trkpt><trkpt lat="43.04983212382418" lon="11.516318109219176"><ele>392.0</ele><time>2026-04-25T10:09:11Z</time></trkpt><trkpt lat="43.04981480412717" lon="11.516510031055656"><ele>392.0</ele><time>2026-04-25T10:09:12Z</time></trkpt><trkpt lat="43.04980383279766" lon="11.51670040658365"><ele>390.0</ele><time>2026-04-25T10:09:13Z</time></trkpt><trkpt lat="43.04979130815247" lon="11.516887035385523"><ele>388.0</ele><time>2026-04-25T10:09:14Z</time></trkpt><trkpt lat="43.04978072452823" lon="11.517072826580375"><ele>386.0</ele><time>2026-04-25T10:09:15Z</time></trkpt><trkpt lat="43.04977302282165" lon="11.517261685881344"><ele>384.0</ele><time>2026-04-25T10:09:16Z</time></trkpt><trkpt lat="43.04977423848476" lon="11.517454854170527"><ele>382.0</ele><time>2026-04-25T10:09:17Z</time></trkpt><trkpt lat="43.0498009664462" lon="11.517656961046471"><ele>380.0</ele><time>2026-04-25T10:09:18Z</time></trkpt><trkpt lat="43.049848031215305" lon="11.51785884796085"><ele>378.0</ele><time>2026-04-25T10:09:19Z</time></trkpt><trkpt lat="43.04987418907518" lon="11.518066297788858"><ele>376.6666666666667</ele><time>2026-04-25T10:09:20Z</time></trkpt><trkpt lat="43.04991080678443" lon="11.518273588023801"><ele>375.33333333333337</ele><time>2026-04-25T10:09:21Z</time></trkpt><trkpt lat="43.04997200380873" lon="11.518471814526386"><ele>374.0</ele><time>2026-04-25T10:09:22Z</time></trkpt><trkpt lat="43.05002331134838" lon="11.518678296618736"><ele>372.0</ele><time>2026-04-25T10:09:23Z</time></trkpt><trkpt lat="43.05008549717994" lon="11.518855980342357"><ele>370.0</ele><time>2026-04-25T10:09:24Z</time></trkpt><trkpt lat="43.05016011642089" lon="11.519004394332214"><ele>368.0</ele><time>2026-04-25T10:09:25Z</time></trkpt><trkpt lat="43.05025420701667" lon="11.519124621232145"><ele>366.0</ele><time>2026-04-25T10:09:26Z</time></trkpt><trkpt lat="43.05037460682419" lon="11.519214968641627"><ele>366.0</ele><time>2026-04-25T10:09:27Z</time></trkpt><trkpt lat="43.05050186570247" lon="11.519283987486888"><ele>366.0</ele><time>2026-04-25T10:09:28Z</time></trkpt><trkpt lat="43.05063025102926" lon="11.519361064796922"><ele>366.0</ele><time>2026-04-25T10:09:29Z</time></trkpt><trkpt lat="43.05075666187229" lon="11.51945227825606"><ele>366.0</ele><time>2026-04-25T10:09:30Z</time></trkpt><trkpt lat="43.050887662666455" lon="11.519544361129991"><ele>364.5</ele><time>2026-04-25T10:09:31Z</time></trkpt><trkpt lat="43.05102150985667" lon="11.519632818590246"><ele>363.0</ele><time>2026-04-25T10:09:32Z</time></trkpt><trkpt lat="43.05115388607033" lon="11.519723674467206"><ele>361.5</ele><time>2026-04-25T10:09:33Z</time></trkpt><trkpt lat="43.05128375372018" lon="11.519828523388309"><ele>360.0</ele><time>2026-04-25T10:09:34Z</time></trkpt><trkpt lat="43.05142926535255" lon="11.519887056925628"><ele>360.0</ele><time>2026-04-25T10:09:35Z</time></trkpt><trkpt lat="43.051576859228916" lon="11.519948911362228"><ele>360.0</ele><time>2026-04-25T10:09:36Z</time></trkpt><trkpt lat="43.05173607829009" lon="11.519995668351239"><ele>360.0</ele><time>2026-04-25T10:09:37Z</time></trkpt><trkpt lat="43.05190254692023" lon="11.520048327397719"><ele>358.0</ele><time>2026-04-25T10:09:38Z</time></trkpt><trkpt lat="43.05207083359554" lon="11.520099634401138"><ele>356.0</ele><time>2026-04-25T10:09:39Z</time></trkpt><trkpt lat="43.052238857055954" lon="11.520149632292284"><ele>354.0</ele><time>2026-04-25T10:09:40Z</time></trkpt><trkpt lat="43.052401794056834" lon="11.520203304194343"><ele>353.3333333333333</ele><time>2026-04-25T10:09:41Z</time></trkpt><trkpt lat="43.05255913522225" lon="11.520261925710477"><ele>352.66666666666663</ele><time>2026-04-25T10:09:41.999Z</time></trkpt><trkpt lat="43.05271236438934" lon="11.520315288695567"><ele>352.0</ele><time>2026-04-25T10:09:42.999Z</time></trkpt><trkpt lat="43.0528624293738" lon="11.52036733552982"><ele>349.5</ele><time>2026-04-25T10:09:43.999Z</time></trkpt><trkpt lat="43.05300892056135" lon="11.520419572048336"><ele>347.0</ele><time>2026-04-25T10:09:44.999Z</time></trkpt><trkpt lat="43.05315281637514" lon="11.520464655260664"><ele>344.5</ele><time>2026-04-25T10:09:45.999Z</time></trkpt><trkpt lat="43.05329600452416" lon="11.520506580839015"><ele>342.0</ele><time>2026-04-25T10:09:46.999Z</time></trkpt><trkpt lat="43.05343658130428" lon="11.520549508080284"><ele>341.0</ele><time>2026-04-25T10:09:47.999Z</time></trkpt><trkpt lat="43.0535744490158" lon="11.520596404480813"><ele>340.0</ele><time>2026-04-25T10:09:48.999Z</time></trkpt><trkpt lat="43.0537116676467" lon="11.520641718822919"><ele>339.0</ele><time>2026-04-25T10:09:49.999Z</time></trkpt><trkpt lat="43.05385486523227" lon="11.520688888696137"><ele>338.0</ele><time>2026-04-25T10:09:50.999Z</time></trkpt><trkpt lat="43.05400126864188" lon="11.520732821989627"><ele>336.6666666666667</ele><time>2026-04-25T10:09:51.999Z</time></trkpt><trkpt lat="43.05414547544488" lon="11.520774649387644"><ele>335.3333333333333</ele><time>2026-04-25T10:09:52.999Z</time></trkpt><trkpt lat="43.05429570766887" lon="11.520787473342017"><ele>334.0</ele><time>2026-04-25T10:09:53.999Z</time></trkpt><trkpt lat="43.05446508102323" lon="11.520741794425476"><ele>334.0</ele><time>2026-04-25T10:09:54.999Z</time></trkpt><trkpt lat="43.05463108433281" lon="11.520638722902808"><ele>334.0</ele><time>2026-04-25T10:09:55.999Z</time></trkpt><trkpt lat="43.0547924720383" lon="11.520528659656364"><ele>334.0</ele><time>2026-04-25T10:09:56.999Z</time></trkpt><trkpt lat="43.05494899098891" lon="11.520449798148958"><ele>331.66666666666663</ele><time>2026-04-25T10:09:57.999Z</time></trkpt><trkpt lat="43.05510454509919" lon="11.520400983209973"><ele>329.3333333333333</ele><time>2026-04-25T10:09:58.999Z</time></trkpt><trkpt lat="43.05526171971513" lon="11.520428216205996"><ele>327.0</ele><time>2026-04-25T10:09:59.999Z</time></trkpt><trkpt lat="43.05541546647368" lon="11.520430159639018"><ele>327.0</ele><time>2026-04-25T10:10:00.999Z</time></trkpt><trkpt lat="43.05556417997175" lon="11.520424039753197"><ele>327.0</ele><time>2026-04-25T10:10:01.999Z</time></trkpt><trkpt lat="43.05570844714847" lon="11.520433891603812"><ele>327.0</ele><time>2026-04-25T10:10:02.999Z</time></trkpt><trkpt lat="43.055849625745566" lon="11.520436977664296"><ele>327.0</ele><time>2026-04-25T10:10:03.999Z</time></trkpt><trkpt lat="43.055988407055466" lon="11.520443538966678"><ele>325.75</ele><time>2026-04-25T10:10:05Z</time></trkpt><trkpt lat="43.056121360938064" lon="11.5204452287901"><ele>324.5</ele><time>2026-04-25T10:10:06Z</time></trkpt><trkpt lat="43.05625321445161" lon="11.52045243844449"><ele>323.25</ele><time>2026-04-25T10:10:07Z</time></trkpt><trkpt lat="43.05638456080742" lon="11.520486123769913"><ele>322.0</ele><time>2026-04-25T10:10:08Z</time></trkpt><trkpt lat="43.056519525181656" lon="11.520557920168772"><ele>321.3333333333333</ele><time>2026-04-25T10:10:09Z</time></trkpt><trkpt lat="43.05663870096175" lon="11.52068682517462"><ele>320.6666666666667</ele><time>2026-04-25T10:10:10Z</time></trkpt><trkpt lat="43.056752162863255" lon="11.520819748090933"><ele>320.0</ele><time>2026-04-25T10:10:11Z</time></trkpt><trkpt lat="43.05682540878386" lon="11.52099843822741"><ele>320.0</ele><time>2026-04-25T10:10:12Z</time></trkpt><trkpt lat="43.056881850388685" lon="11.52119021744384"><ele>320.0</ele><time>2026-04-25T10:10:13Z</time></trkpt><trkpt lat="43.05693955650009" lon="11.521368220707856"><ele>320.0</ele><time>2026-04-25T10:10:14Z</time></trkpt><trkpt lat="43.05697184682406" lon="11.521546084162615"><ele>320.0</ele><time>2026-04-25T10:10:15Z</time></trkpt><trkpt lat="43.05700684863482" lon="11.521715288669686"><ele>319.0</ele><time>2026-04-25T10:10:16Z</time></trkpt><trkpt lat="43.05704298420287" lon="11.521882833534796"><ele>318.0</ele><time>2026-04-25T10:10:17Z</time></trkpt><trkpt lat="43.057079786677605" lon="11.522051707856024"><ele>317.0</ele><time>2026-04-25T10:10:18Z</time></trkpt><trkpt lat="43.057118220764714" lon="11.522227605906036"><ele>316.0</ele><time>2026-04-25T10:10:19Z</time></trkpt><trkpt lat="43.05715460982517" lon="11.522404741629757"><ele>315.25</ele><time>2026-04-25T10:10:20Z</time></trkpt><trkpt lat="43.05719289969281" lon="11.522579648602271"><ele>314.5</ele><time>2026-04-25T10:10:21Z</time></trkpt><trkpt lat="43.057229059671975" lon="11.522754268773731"><ele>313.75</ele><time>2026-04-25T10:10:22Z</time></trkpt><trkpt lat="43.05726868405139" lon="11.522924862178801"><ele>313.0</ele><time>2026-04-25T10:10:23Z</time></trkpt><trkpt lat="43.057330916138" lon="11.52308297617309"><ele>312.75</ele><time>2026-04-25T10:10:24Z</time></trkpt><trkpt lat="43.057424461768015" lon="11.523210129117148"><ele>312.5</ele><time>2026-04-25T10:10:25Z</time></trkpt><trkpt lat="43.057537249324476" lon="11.523292066688116"><ele>312.25</ele><time>2026-04-25T10:10:26Z</time></trkpt><trkpt lat="43.05766238303918" lon="11.523321667929157"><ele>312.0</ele><time>2026-04-25T10:10:27Z</time></trkpt><trkpt lat="43.05778836963682" lon="11.523304262098538"><ele>312.0</ele><time>2026-04-25T10:10:28Z</time></trkpt><trkpt lat="43.05790831485484" lon="11.523242167594196"><ele>312.0</ele><time>2026-04-25T10:10:29Z</time></trkpt><trkpt lat="43.05801502979154" lon="11.523149457375979"><ele>312.0</ele><time>2026-04-25T10:10:30Z</time></trkpt><trkpt lat="43.05810105071159" lon="11.523024615688373"><ele>312.0</ele><time>2026-04-25T10:10:31Z</time></trkpt><trkpt lat="43.058165740444146" lon="11.522880817606277"><ele>312.5</ele><time>2026-04-25T10:10:32Z</time></trkpt><trkpt lat="43.05823167155478" lon="11.52274540504127"><ele>313.0</ele><time>2026-04-25T10:10:33Z</time></trkpt><trkpt lat="43.058304370280716" lon="11.522616689029524"><ele>313.5</ele><time>2026-04-25T10:10:34Z</time></trkpt><trkpt lat="43.05838074443459" lon="11.522485958339244"><ele>314.0</ele><time>2026-04-25T10:10:35Z</time></trkpt><trkpt lat="43.05846132149944" lon="11.522343545264393"><ele>313.25</ele><time>2026-04-25T10:10:36Z</time></trkpt><trkpt lat="43.05854319685292" lon="11.522191216366107"><ele>312.5</ele><time>2026-04-25T10:10:37Z</time></trkpt><trkpt lat="43.05863034055802" lon="11.522033435444278"><ele>311.75</ele><time>2026-04-25T10:10:38Z</time></trkpt><trkpt lat="43.05871978384103" lon="11.52187266849707"><ele>311.0</ele><time>2026-04-25T10:10:39Z</time></trkpt><trkpt lat="43.0588041605445" lon="11.521711942213715"><ele>311.0</ele><time>2026-04-25T10:10:40Z</time></trkpt><trkpt lat="43.058882844489084" lon="11.521568905715716"><ele>311.0</ele><time>2026-04-25T10:10:41Z</time></trkpt><trkpt lat="43.05896593234726" lon="11.521448194843705"><ele>311.0</ele><time>2026-04-25T10:10:42Z</time></trkpt><trkpt lat="43.059060767090784" lon="11.521355616785563"><ele>311.0</ele><time>2026-04-25T10:10:43Z</time></trkpt><trkpt lat="43.05916960430769" lon="11.521298566618292"><ele>307.75</ele><time>2026-04-25T10:10:44Z</time></trkpt><trkpt lat="43.05928827531121" lon="11.52128481652063"><ele>304.5</ele><time>2026-04-25T10:10:45Z</time></trkpt><trkpt lat="43.05940820251136" lon="11.521311985550295"><ele>301.25</ele><time>2026-04-25T10:10:46Z</time></trkpt><trkpt lat="43.05952157933698" lon="11.521377657662676"><ele>298.0</ele><time>2026-04-25T10:10:47Z</time></trkpt><trkpt lat="43.059631409593685" lon="11.521466002246886"><ele>298.0</ele><time>2026-04-25T10:10:48Z</time></trkpt><trkpt lat="43.059738765613595" lon="11.521556261733075"><ele>298.0</ele><time>2026-04-25T10:10:49Z</time></trkpt><trkpt lat="43.05984082061193" lon="11.521647289937793"><ele>298.0</ele><time>2026-04-25T10:10:50Z</time></trkpt><trkpt lat="43.05993747760821" lon="11.521735324726563"><ele>298.0</ele><time>2026-04-25T10:10:51Z</time></trkpt><trkpt lat="43.06003224129473" lon="11.521823901475262"><ele>296.5</ele><time>2026-04-25T10:10:52Z</time></trkpt><trkpt lat="43.06012596732751" lon="11.521911128563632"><ele>295.0</ele><time>2026-04-25T10:10:53Z</time></trkpt><trkpt lat="43.06021893438363" lon="11.521996459264559"><ele>293.5</ele><time>2026-04-25T10:10:54Z</time></trkpt><trkpt lat="43.06031162675071" lon="11.522080296111628"><ele>292.0</ele><time>2026-04-25T10:10:55Z</time></trkpt><trkpt lat="43.06040554204569" lon="11.522167932851698"><ele>291.0</ele><time>2026-04-25T10:10:56Z</time></trkpt><trkpt lat="43.06050272677709" lon="11.522264245558155"><ele>290.0</ele><time>2026-04-25T10:10:57Z</time></trkpt><trkpt lat="43.060602645628826" lon="11.522361844397526"><ele>289.0</ele><time>2026-04-25T10:10:58Z</time></trkpt><trkpt lat="43.060707862852574" lon="11.522458613894132"><ele>288.0</ele><time>2026-04-25T10:10:59Z</time></trkpt><trkpt lat="43.060815879594294" lon="11.522556412074023"><ele>288.0</ele><time>2026-04-25T10:11:00Z</time></trkpt><trkpt lat="43.06092254545651" lon="11.522658943881071"><ele>288.0</ele><time>2026-04-25T10:11:01Z</time></trkpt><trkpt lat="43.061020961539704" lon="11.522776310225655"><ele>288.0</ele><time>2026-04-25T10:11:02Z</time></trkpt><trkpt lat="43.0611078224992" lon="11.522912649899482"><ele>288.0</ele><time>2026-04-25T10:11:03Z</time></trkpt><trkpt lat="43.06118781593716" lon="11.523056400808445"><ele>286.5</ele><time>2026-04-25T10:11:04Z</time></trkpt><trkpt lat="43.061265583750234" lon="11.523201793220478"><ele>285.0</ele><time>2026-04-25T10:11:05Z</time></trkpt><trkpt lat="43.06134239688463" lon="11.52335404145877"><ele>283.5</ele><time>2026-04-25T10:11:06Z</time></trkpt><trkpt lat="43.06142027078424" lon="11.523511357063198"><ele>282.0</ele><time>2026-04-25T10:11:07Z</time></trkpt><trkpt lat="43.06150193074013" lon="11.523670417048688"><ele>282.25</ele><time>2026-04-25T10:11:08Z</time></trkpt><trkpt lat="43.06157326036142" lon="11.523842859314746"><ele>282.5</ele><time>2026-04-25T10:11:09Z</time></trkpt><trkpt lat="43.06165997965022" lon="11.524006969108655"><ele>282.75</ele><time>2026-04-25T10:11:10Z</time></trkpt><trkpt lat="43.06176247724324" lon="11.524153482711007"><ele>283.0</ele><time>2026-04-25T10:11:11Z</time></trkpt><trkpt lat="43.06185673342995" lon="11.524303756424128"><ele>283.0</ele><time>2026-04-25T10:11:12Z</time></trkpt><trkpt lat="43.061950188090954" lon="11.524437184550276"><ele>283.0</ele><time>2026-04-25T10:11:13Z</time></trkpt><trkpt lat="43.06202998515416" lon="11.524575932182069"><ele>283.0</ele><time>2026-04-25T10:11:14Z</time></trkpt><trkpt lat="43.062092460432225" lon="11.524728294771258"><ele>283.0</ele><time>2026-04-25T10:11:15Z</time></trkpt><trkpt lat="43.06213531005559" lon="11.524891457690106"><ele>281.0</ele><time>2026-04-25T10:11:16Z</time></trkpt><trkpt lat="43.062171535709425" lon="11.52506478868421"><ele>279.0</ele><time>2026-04-25T10:11:17Z</time></trkpt><trkpt lat="43.06220434978073" lon="11.525244865073567"><ele>277.0</ele><time>2026-04-25T10:11:18Z</time></trkpt><trkpt lat="43.062238485941556" lon="11.52542848758636"><ele>275.0</ele><time>2026-04-25T10:11:19Z</time></trkpt><trkpt lat="43.06227297506524" lon="11.525614227085734"><ele>274.0</ele><time>2026-04-25T10:11:20Z</time></trkpt><trkpt lat="43.06230924406193" lon="11.525800569687437"><ele>273.0</ele><time>2026-04-25T10:11:21Z</time></trkpt><trkpt lat="43.062346195016154" lon="11.525986125711592"><ele>272.0</ele><time>2026-04-25T10:11:22Z</time></trkpt><trkpt lat="43.06238976314175" lon="11.526167019984625"><ele>271.0</ele><time>2026-04-25T10:11:23Z</time></trkpt><trkpt lat="43.06243581468329" lon="11.526346028348923"><ele>272.75</ele><time>2026-04-25T10:11:24Z</time></trkpt><trkpt lat="43.06252961683291" lon="11.526489355253581"><ele>274.5</ele><time>2026-04-25T10:11:25Z</time></trkpt><trkpt lat="43.06261179743747" lon="11.526635792854778"><ele>276.25</ele><time>2026-04-25T10:11:26Z</time></trkpt><trkpt lat="43.06269708725303" lon="11.52678241366086"><ele>278.0</ele><time>2026-04-25T10:11:27Z</time></trkpt><trkpt lat="43.06278524882722" lon="11.52693304492523"><ele>276.25</ele><time>2026-04-25T10:11:28Z</time></trkpt><trkpt lat="43.06287312279543" lon="11.527080853671062"><ele>274.5</ele><time>2026-04-25T10:11:29Z</time></trkpt><trkpt lat="43.06295666691944" lon="11.527223282159428"><ele>272.75</ele><time>2026-04-25T10:11:30Z</time></trkpt><trkpt lat="43.063039047374616" lon="11.52736260587384"><ele>271.0</ele><time>2026-04-25T10:11:31Z</time></trkpt><trkpt lat="43.06312207392695" lon="11.527500885055401"><ele>271.0</ele><time>2026-04-25T10:11:32Z</time></trkpt><trkpt lat="43.063201846706164" lon="11.527635258572234"><ele>271.0</ele><time>2026-04-25T10:11:33Z</time></trkpt><trkpt lat="43.06327689879914" lon="11.527767366609536"><ele>271.0</ele><time>2026-04-25T10:11:34Z</time></trkpt><trkpt lat="43.06335294830138" lon="11.527890638316007"><ele>271.0</ele><time>2026-04-25T10:11:35Z</time></trkpt><trkpt lat="43.0634223714974" lon="11.528010521302287"><ele>271.0</ele><time>2026-04-25T10:11:36Z</time></trkpt><trkpt lat="43.06348106648355" lon="11.528151811983015"><ele>271.0</ele><time>2026-04-25T10:11:37Z</time></trkpt><trkpt lat="43.063529209778444" lon="11.528322584018614"><ele>271.0</ele><time>2026-04-25T10:11:38Z</time></trkpt><trkpt lat="43.06356225194601" lon="11.528515212469422"><ele>271.0</ele><time>2026-04-25T10:11:39Z</time></trkpt><trkpt lat="43.06358317851355" lon="11.528725864011532"><ele>270.0</ele><time>2026-04-25T10:11:40Z</time></trkpt><trkpt lat="43.0635993262887" lon="11.528946336224251"><ele>269.0</ele><time>2026-04-25T10:11:41Z</time></trkpt><trkpt lat="43.0636181129055" lon="11.529172458967688"><ele>268.0</ele><time>2026-04-25T10:11:42Z</time></trkpt><trkpt lat="43.06364804393003" lon="11.529386038932453"><ele>266.75</ele><time>2026-04-25T10:11:43Z</time></trkpt><trkpt lat="43.06370133354116" lon="11.529583451130165"><ele>265.5</ele><time>2026-04-25T10:11:44Z</time></trkpt><trkpt lat="43.06377077359084" lon="11.529760235178996"><ele>264.25</ele><time>2026-04-25T10:11:45Z</time></trkpt><trkpt lat="43.063840773152684" lon="11.529921675953279"><ele>263.0</ele><time>2026-04-25T10:11:46Z</time></trkpt><trkpt lat="43.06391190416625" lon="11.530075857074632"><ele>263.0</ele><time>2026-04-25T10:11:47Z</time></trkpt><trkpt lat="43.06398406305451" lon="11.530227192103556"><ele>263.0</ele><time>2026-04-25T10:11:48Z</time></trkpt><trkpt lat="43.064052834697875" lon="11.530377434655582"><ele>263.0</ele><time>2026-04-25T10:11:49Z</time></trkpt><trkpt lat="43.064121313858536" lon="11.530531302077314"><ele>263.0</ele><time>2026-04-25T10:11:50Z</time></trkpt><trkpt lat="43.06420660459679" lon="11.530680802768043"><ele>263.25</ele><time>2026-04-25T10:11:51Z</time></trkpt><trkpt lat="43.06431759400769" lon="11.53080601404515"><ele>263.5</ele><time>2026-04-25T10:11:52Z</time></trkpt><trkpt lat="43.06444483649697" lon="11.5309066361206"><ele>263.75</ele><time>2026-04-25T10:11:53Z</time></trkpt><trkpt lat="43.06457973048061" lon="11.530995463126976"><ele>264.0</ele><time>2026-04-25T10:11:54Z</time></trkpt><trkpt lat="43.06471771121287" lon="11.5310815216601"><ele>264.0</ele><time>2026-04-25T10:11:55Z</time></trkpt><trkpt lat="43.0648412402977" lon="11.531170811074457"><ele>264.0</ele><time>2026-04-25T10:11:56Z</time></trkpt><trkpt lat="43.064945722714114" lon="11.531265603831084"><ele>264.0</ele><time>2026-04-25T10:11:57Z</time></trkpt><trkpt lat="43.06503132605558" lon="11.53138718439083"><ele>264.0</ele><time>2026-04-25T10:11:58Z</time></trkpt><trkpt lat="43.06509465118594" lon="11.53153632990554"><ele>263.0</ele><time>2026-04-25T10:11:59Z</time></trkpt><trkpt lat="43.06513445910015" lon="11.531699377142827"><ele>262.0</ele><time>2026-04-25T10:12:00Z</time></trkpt><trkpt lat="43.065165706954666" lon="11.531859239708263"><ele>261.0</ele><time>2026-04-25T10:12:01Z</time></trkpt><trkpt lat="43.06517041633537" lon="11.532022367688919"><ele>260.0</ele><time>2026-04-25T10:12:02Z</time></trkpt><trkpt lat="43.06514920560638" lon="11.532180549640286"><ele>259.2</ele><time>2026-04-25T10:12:03Z</time></trkpt><trkpt lat="43.06512189881931" lon="11.532331066483655"><ele>258.4</ele><time>2026-04-25T10:12:04Z</time></trkpt><trkpt lat="43.065098065884484" lon="11.53247609405857"><ele>257.6</ele><time>2026-04-25T10:12:05Z</time></trkpt><trkpt lat="43.06507441941031" lon="11.532611448407405"><ele>256.8</ele><time>2026-04-25T10:12:06Z</time></trkpt><trkpt lat="43.06506478249451" lon="11.532755917659555"><ele>256.0</ele><time>2026-04-25T10:12:07Z</time></trkpt><trkpt lat="43.06506517984032" lon="11.532905449076114"><ele>255.33333333333331</ele><time>2026-04-25T10:12:08Z</time></trkpt><trkpt lat="43.065083900937644" lon="11.533068380763138"><ele>254.66666666666669</ele><time>2026-04-25T10:12:09Z</time></trkpt><trkpt lat="43.065115332091494" lon="11.53327541182518"><ele>254.0</ele><time>2026-04-25T10:12:10Z</time></trkpt><trkpt lat="43.06518095700113" lon="11.533513462518627"><ele>252.66666666666669</ele><time>2026-04-25T10:12:11Z</time></trkpt><trkpt lat="43.06525934197832" lon="11.533780321446239"><ele>251.33333333333331</ele><time>2026-04-25T10:12:12Z</time></trkpt><trkpt lat="43.06533763420818" lon="11.534054277316992"><ele>250.0</ele><time>2026-04-25T10:12:13Z</time></trkpt><trkpt lat="43.065421013003714" lon="11.534346032064025"><ele>248.0</ele><time>2026-04-25T10:12:14Z</time></trkpt><trkpt lat="43.06550852536623" lon="11.534653349724335"><ele>246.0</ele><time>2026-04-25T10:12:15Z</time></trkpt><trkpt lat="43.0655994498631" lon="11.534973716454003"><ele>246.0</ele><time>2026-04-25T10:12:16Z</time></trkpt><trkpt lat="43.06569250481696" lon="11.535304821809035"><ele>246.0</ele><time>2026-04-25T10:12:17Z</time></trkpt><trkpt lat="43.06578718175838" lon="11.535651002066306"><ele>247.0</ele><time>2026-04-25T10:12:18Z</time></trkpt><trkpt lat="43.06588720964117" lon="11.536000643617909"><ele>248.0</ele><time>2026-04-25T10:12:19Z</time></trkpt><trkpt lat="43.06598536178179" lon="11.536351734864237"><ele>246.0</ele><time>2026-04-25T10:12:20Z</time></trkpt><trkpt lat="43.066089586845195" lon="11.53672454914641"><ele>244.0</ele><time>2026-04-25T10:12:21Z</time></trkpt><trkpt lat="43.06619452932742" lon="11.53709603385641"><ele>243.5</ele><time>2026-04-25T10:12:22Z</time></trkpt><trkpt lat="43.06629621226699" lon="11.53745361884326"><ele>243.0</ele><time>2026-04-25T10:12:23Z</time></trkpt><trkpt lat="43.06640029261702" lon="11.537778562143666"><ele>243.0</ele><time>2026-04-25T10:12:24Z</time></trkpt><trkpt lat="43.06648268274471" lon="11.538063326020646"><ele>243.0</ele><time>2026-04-25T10:12:25Z</time></trkpt><trkpt lat="43.06655069807306" lon="11.538309860563203"><ele>243.0</ele><time>2026-04-25T10:12:26Z</time></trkpt><trkpt lat="43.06661118908827" lon="11.538540292174588"><ele>242.33333333333331</ele><time>2026-04-25T10:12:27Z</time></trkpt><trkpt lat="43.06667055788366" lon="11.538752172320246"><ele>241.66666666666666</ele><time>2026-04-25T10:12:28Z</time></trkpt><trkpt lat="43.066726561558504" lon="11.538941969132166"><ele>241.0</ele><time>2026-04-25T10:12:29Z</time></trkpt><trkpt lat="43.06677604954051" lon="11.539118563181226"><ele>241.0</ele><time>2026-04-25T10:12:30Z</time></trkpt><trkpt lat="43.066816398072504" lon="11.539291955152384"><ele>241.0</ele><time>2026-04-25T10:12:31Z</time></trkpt><trkpt lat="43.066844629893396" lon="11.539471711362076"><ele>241.0</ele><time>2026-04-25T10:12:32Z</time></trkpt><trkpt lat="43.06685712443144" lon="11.539651804609527"><ele>241.0</ele><time>2026-04-25T10:12:33Z</time></trkpt><trkpt lat="43.0668584299811" lon="11.539833393617592"><ele>241.25</ele><time>2026-04-25T10:12:34Z</time></trkpt><trkpt lat="43.066847727865564" lon="11.540022947878455"><ele>241.5</ele><time>2026-04-25T10:12:35Z</time></trkpt><trkpt lat="43.06681719020422" lon="11.540218654090197"><ele>241.75</ele><time>2026-04-25T10:12:36Z</time></trkpt><trkpt lat="43.066774029722744" lon="11.540408901490412"><ele>242.0</ele><time>2026-04-25T10:12:37Z</time></trkpt><trkpt lat="43.0667246787637" lon="11.540594726835108"><ele>242.33333333333334</ele><time>2026-04-25T10:12:38Z</time></trkpt><trkpt lat="43.066670817914314" lon="11.540786807352935"><ele>242.66666666666669</ele><time>2026-04-25T10:12:39Z</time></trkpt><trkpt lat="43.06661602619314" lon="11.540981721403973"><ele>243.0</ele><time>2026-04-25T10:12:40Z</time></trkpt><trkpt lat="43.06656254587322" lon="11.541174911331757"><ele>241.66666666666669</ele><time>2026-04-25T10:12:41Z</time></trkpt><trkpt lat="43.06651069234234" lon="11.54137230117801"><ele>240.33333333333334</ele><time>2026-04-25T10:12:42Z</time></trkpt><trkpt lat="43.06645620605891" lon="11.541575290227728"><ele>239.0</ele><time>2026-04-25T10:12:43Z</time></trkpt><trkpt lat="43.06640103681905" lon="11.541780383829039"><ele>239.0</ele><time>2026-04-25T10:12:44Z</time></trkpt><trkpt lat="43.06634467925724" lon="11.541989241533516"><ele>239.0</ele><time>2026-04-25T10:12:45Z</time></trkpt><trkpt lat="43.066288457756485" lon="11.54219773214082"><ele>239.0</ele><time>2026-04-25T10:12:46Z</time></trkpt><trkpt lat="43.06623346225862" lon="11.542405728440661"><ele>239.0</ele><time>2026-04-25T10:12:47Z</time></trkpt><trkpt lat="43.06617834480643" lon="11.542611296578787"><ele>239.0</ele><time>2026-04-25T10:12:48Z</time></trkpt><trkpt lat="43.06612446243016" lon="11.542808087332414"><ele>239.0</ele><time>2026-04-25T10:12:49Z</time></trkpt><trkpt lat="43.06607306297161" lon="11.54299464531039"><ele>239.0</ele><time>2026-04-25T10:12:50Z</time></trkpt><trkpt lat="43.06602221550862" lon="11.543175983001888"><ele>239.0</ele><time>2026-04-25T10:12:51Z</time></trkpt><trkpt lat="43.0659756812019" lon="11.54335258625062"><ele>239.0</ele><time>2026-04-25T10:12:52Z</time></trkpt><trkpt lat="43.06593240867701" lon="11.543521107600137"><ele>239.0</ele><time>2026-04-25T10:12:53Z</time></trkpt><trkpt lat="43.06589867553033" lon="11.543686932978128"><ele>239.25</ele><time>2026-04-25T10:12:54Z</time></trkpt><trkpt lat="43.06588121407603" lon="11.543854646749416"><ele>239.5</ele><time>2026-04-25T10:12:55Z</time></trkpt><trkpt lat="43.06587849246432" lon="11.544033182888416"><ele>239.75</ele><time>2026-04-25T10:12:56Z</time></trkpt><trkpt lat="43.06586485127259" lon="11.544228067998574"><ele>240.0</ele><time>2026-04-25T10:12:57Z</time></trkpt><trkpt lat="43.06588264977472" lon="11.544420057301942"><ele>240.25</ele><time>2026-04-25T10:12:58Z</time></trkpt><trkpt lat="43.06590223578537" lon="11.544605422381018"><ele>240.5</ele><time>2026-04-25T10:12:59Z</time></trkpt><trkpt lat="43.06593333639153" lon="11.544787545243615"><ele>240.75</ele><time>2026-04-25T10:13:00Z</time></trkpt><trkpt lat="43.06595178095766" lon="11.544969733021754"><ele>241.0</ele><time>2026-04-25T10:13:01Z</time></trkpt><trkpt lat="43.065971403734785" lon="11.545152767687716"><ele>241.0</ele><time>2026-04-25T10:13:02Z</time></trkpt><trkpt lat="43.065989363263185" lon="11.545341111374197"><ele>241.0</ele><time>2026-04-25T10:13:03Z</time></trkpt><trkpt lat="43.06600837692796" lon="11.54553251434828"><ele>241.0</ele><time>2026-04-25T10:13:04Z</time></trkpt><trkpt lat="43.06602800490969" lon="11.545726985432493"><ele>241.0</ele><time>2026-04-25T10:13:05Z</time></trkpt><trkpt lat="43.066048429113756" lon="11.545923921345764"><ele>241.0</ele><time>2026-04-25T10:13:06Z</time></trkpt><trkpt lat="43.066071421969795" lon="11.54611700558234"><ele>241.0</ele><time>2026-04-25T10:13:07Z</time></trkpt><trkpt lat="43.0660913254848" lon="11.546299399730138"><ele>241.0</ele><time>2026-04-25T10:13:08Z</time></trkpt><trkpt lat="43.0661090433041" lon="11.546469575018882"><ele>241.0</ele><time>2026-04-25T10:13:09Z</time></trkpt><trkpt lat="43.066127930880356" lon="11.546629978792371"><ele>240.8</ele><time>2026-04-25T10:13:10Z</time></trkpt><trkpt lat="43.06614245453372" lon="11.546781967201095"><ele>240.60000000000002</ele><time>2026-04-25T10:13:11Z</time></trkpt><trkpt lat="43.06615281686608" lon="11.546911958498876"><ele>240.4</ele><time>2026-04-25T10:13:12Z</time></trkpt><trkpt lat="43.06616224270565" lon="11.547018065439763"><ele>240.2</ele><time>2026-04-25T10:13:13Z</time></trkpt><trkpt lat="43.06617195820129" lon="11.547107815570541"><ele>240.0</ele><time>2026-04-25T10:13:14Z</time></trkpt><trkpt lat="43.06619602099888" lon="11.547260481122322"><ele>239.8</ele><time>2026-04-25T10:13:16Z</time></trkpt><trkpt lat="43.06622540915291" lon="11.54737772847763"><ele>239.6</ele><time>2026-04-25T10:13:18Z</time></trkpt><trkpt lat="43.066249328015594" lon="11.547461200748424"><ele>239.39999999999998</ele><time>2026-04-25T10:13:20Z</time></trkpt><trkpt lat="43.06627168618291" lon="11.547558898186365"><ele>239.2</ele><time>2026-04-25T10:13:23Z</time></trkpt><trkpt lat="43.06631266338152" lon="11.547651717303308"><ele>239.0</ele><time>2026-04-25T10:13:32Z</time></trkpt><trkpt lat="43.066482629699884" lon="11.547565703911262"><ele>239.0</ele><time>2026-04-25T10:13:33Z</time></trkpt><trkpt lat="43.0665618476435" lon="11.547505401596371"><ele>239.0</ele><time>2026-04-25T10:13:34Z</time></trkpt><trkpt lat="43.066651218591836" lon="11.547422229260452"><ele>239.0</ele><time>2026-04-25T10:13:35Z</time></trkpt><trkpt lat="43.06676239285183" lon="11.5473256480788"><ele>239.0</ele><time>2026-04-25T10:13:36Z</time></trkpt><trkpt lat="43.06689544537138" lon="11.54725782453037"><ele>239.33333333333334</ele><time>2026-04-25T10:13:37Z</time></trkpt><trkpt lat="43.06703742297962" lon="11.547164045566657"><ele>239.66666666666669</ele><time>2026-04-25T10:13:38Z</time></trkpt><trkpt lat="43.06719888670089" lon="11.547057395603364"><ele>240.0</ele><time>2026-04-25T10:13:39Z</time></trkpt><trkpt lat="43.067369924360044" lon="11.546945613794279"><ele>242.0</ele><time>2026-04-25T10:13:40Z</time></trkpt><trkpt lat="43.067538817030645" lon="11.546820263459484"><ele>244.0</ele><time>2026-04-25T10:13:41Z</time></trkpt><trkpt lat="43.06772504783931" lon="11.546716550640559"><ele>246.0</ele><time>2026-04-25T10:13:42Z</time></trkpt><trkpt lat="43.06790756640571" lon="11.546605183575005"><ele>246.0</ele><time>2026-04-25T10:13:43Z</time></trkpt><trkpt lat="43.068214866498025" lon="11.54639504712709"><ele>246.0</ele><time>2026-04-25T10:13:45Z</time></trkpt><trkpt lat="43.06833011981165" lon="11.54632499844594"><ele>246.0</ele><time>2026-04-25T10:13:46Z</time></trkpt><trkpt lat="43.06844248176327" lon="11.546310555675861"><ele>246.00000000000003</ele><time>2026-04-25T10:13:47Z</time></trkpt><trkpt lat="43.068550979065556" lon="11.546361142552232"><ele>246.00000000000003</ele><time>2026-04-25T10:13:48Z</time></trkpt><trkpt lat="43.068624669888564" lon="11.546451671884588"><ele>246.0</ele><time>2026-04-25T10:13:49Z</time></trkpt><trkpt lat="43.06867327879361" lon="11.546563419626098"><ele>246.0</ele><time>2026-04-25T10:13:50Z</time></trkpt><trkpt lat="43.06868394759967" lon="11.54670682546997"><ele>246.0</ele><time>2026-04-25T10:13:51Z</time></trkpt><trkpt lat="43.06865431699257" lon="11.546849707365173"><ele>246.00000000000003</ele><time>2026-04-25T10:13:52Z</time></trkpt><trkpt lat="43.06857858187278" lon="11.54696038828283"><ele>246.00000000000003</ele><time>2026-04-25T10:13:53Z</time></trkpt><trkpt lat="43.06848604961802" lon="11.547013466292375"><ele>246.0</ele><time>2026-04-25T10:13:54Z</time></trkpt><trkpt lat="43.06836371389068" lon="11.547047167520258"><ele>246.0</ele><time>2026-04-25T10:13:55Z</time></trkpt><trkpt lat="43.06822491148444" lon="11.547113876412928"><ele>243.66666666666669</ele><time>2026-04-25T10:13:56Z</time></trkpt><trkpt lat="43.06807991197142" lon="11.547212180415215"><ele>241.33333333333334</ele><time>2026-04-25T10:13:57Z</time></trkpt><trkpt lat="43.06793227316024" lon="11.547326927903182"><ele>239.0</ele><time>2026-04-25T10:13:58Z</time></trkpt><trkpt lat="43.06778200014008" lon="11.54746740161048"><ele>239.0</ele><time>2026-04-25T10:13:59Z</time></trkpt><trkpt lat="43.067618532555166" lon="11.547607930244874"><ele>239.0</ele><time>2026-04-25T10:14:00Z</time></trkpt><trkpt lat="43.06744742742657" lon="11.547745289281298"><ele>239.0</ele><time>2026-04-25T10:14:01Z</time></trkpt><trkpt lat="43.067274872730096" lon="11.547902016162714"><ele>239.66666666666669</ele><time>2026-04-25T10:14:02Z</time></trkpt><trkpt lat="43.06710662263378" lon="11.548084165428861"><ele>240.33333333333331</ele><time>2026-04-25T10:14:03Z</time></trkpt><trkpt lat="43.06693746446508" lon="11.54827862937331"><ele>241.0</ele><time>2026-04-25T10:14:04Z</time></trkpt><trkpt lat="43.06677361469315" lon="11.54849175888323"><ele>240.0</ele><time>2026-04-25T10:14:05Z</time></trkpt><trkpt lat="43.066616334339685" lon="11.54872181634749"><ele>239.0</ele><time>2026-04-25T10:14:06Z</time></trkpt><trkpt lat="43.066462548960295" lon="11.548961044560354"><ele>238.5</ele><time>2026-04-25T10:14:07Z</time></trkpt><trkpt lat="43.066320240108574" lon="11.549212626991878"><ele>238.0</ele><time>2026-04-25T10:14:08Z</time></trkpt><trkpt lat="43.06618757288451" lon="11.549470907948434"><ele>237.5</ele><time>2026-04-25T10:14:09Z</time></trkpt><trkpt lat="43.066066137697995" lon="11.5497307513983"><ele>237.0</ele><time>2026-04-25T10:14:10Z</time></trkpt><trkpt lat="43.065956141696" lon="11.55000020055487"><ele>237.0</ele><time>2026-04-25T10:14:11Z</time></trkpt><trkpt lat="43.06585570865477" lon="11.550279704474635"><ele>237.0</ele><time>2026-04-25T10:14:12Z</time></trkpt><trkpt lat="43.065757293884396" lon="11.550564650348496"><ele>234.5</ele><time>2026-04-25T10:14:13Z</time></trkpt><trkpt lat="43.06566003200152" lon="11.550851040324218"><ele>232.0</ele><time>2026-04-25T10:14:14Z</time></trkpt><trkpt lat="43.06556631995246" lon="11.551136322835054"><ele>232.33333333333331</ele><time>2026-04-25T10:14:15Z</time></trkpt><trkpt lat="43.065477158325315" lon="11.551412937348324"><ele>232.66666666666669</ele><time>2026-04-25T10:14:16Z</time></trkpt><trkpt lat="43.065393442346725" lon="11.551681843290279"><ele>233.0</ele><time>2026-04-25T10:14:17Z</time></trkpt><trkpt lat="43.06531167558222" lon="11.551942189278062"><ele>233.66666666666669</ele><time>2026-04-25T10:14:18Z</time></trkpt><trkpt lat="43.06522879376156" lon="11.552199273300454"><ele>234.33333333333331</ele><time>2026-04-25T10:14:19Z</time></trkpt><trkpt lat="43.06514451008925" lon="11.552459622711293"><ele>235.0</ele><time>2026-04-25T10:14:20Z</time></trkpt><trkpt lat="43.065063309370444" lon="11.552719347922624"><ele>235.0</ele><time>2026-04-25T10:14:21Z</time></trkpt><trkpt lat="43.06498269608362" lon="11.552977517197462"><ele>235.0</ele><time>2026-04-25T10:14:22Z</time></trkpt><trkpt lat="43.06490193855979" lon="11.553233747070143"><ele>235.0</ele><time>2026-04-25T10:14:23Z</time></trkpt><trkpt lat="43.06482355868616" lon="11.553490438583859"><ele>237.0</ele><time>2026-04-25T10:14:24Z</time></trkpt><trkpt lat="43.06475309792394" lon="11.553751933849465"><ele>239.0</ele><time>2026-04-25T10:14:25Z</time></trkpt><trkpt lat="43.064658718139135" lon="11.553999199441433"><ele>241.0</ele><time>2026-04-25T10:14:26Z</time></trkpt><trkpt lat="43.06458340152946" lon="11.554252888610641"><ele>241.0</ele><time>2026-04-25T10:14:27Z</time></trkpt><trkpt lat="43.06450436868995" lon="11.554505034155536"><ele>241.0</ele><time>2026-04-25T10:14:28Z</time></trkpt><trkpt lat="43.06443339820123" lon="11.554758714117227"><ele>241.0</ele><time>2026-04-25T10:14:29Z</time></trkpt><trkpt lat="43.06436715398089" lon="11.555009172298414"><ele>244.0</ele><time>2026-04-25T10:14:30Z</time></trkpt><trkpt lat="43.06430956707962" lon="11.555262479911725"><ele>247.0</ele><time>2026-04-25T10:14:31Z</time></trkpt><trkpt lat="43.06426068423424" lon="11.555513499698748"><ele>250.0</ele><time>2026-04-25T10:14:32Z</time></trkpt><trkpt lat="43.06421776114876" lon="11.55577510921822"><ele>250.0</ele><time>2026-04-25T10:14:33Z</time></trkpt><trkpt lat="43.064178186215884" lon="11.556048552094124"><ele>250.0</ele><time>2026-04-25T10:14:34Z</time></trkpt><trkpt lat="43.06415098956348" lon="11.556331782806245"><ele>250.0</ele><time>2026-04-25T10:14:35Z</time></trkpt><trkpt lat="43.064132510787346" lon="11.556612618347918"><ele>249.0</ele><time>2026-04-25T10:14:36Z</time></trkpt><trkpt lat="43.06411467905146" lon="11.556884894628341"><ele>248.0</ele><time>2026-04-25T10:14:37Z</time></trkpt><trkpt lat="43.06409707781388" lon="11.557145050469876"><ele>247.0</ele><time>2026-04-25T10:14:38Z</time></trkpt><trkpt lat="43.064081339570066" lon="11.557390517295001"><ele>247.33333333333331</ele><time>2026-04-25T10:14:39Z</time></trkpt><trkpt lat="43.064064604066566" lon="11.55763117879028"><ele>247.66666666666669</ele><time>2026-04-25T10:14:40Z</time></trkpt><trkpt lat="43.064046431508515" lon="11.557873566184474"><ele>248.0</ele><time>2026-04-25T10:14:41Z</time></trkpt><trkpt lat="43.06403035113457" lon="11.558112372310426"><ele>248.0</ele><time>2026-04-25T10:14:42Z</time></trkpt><trkpt lat="43.06401381105597" lon="11.55835141315252"><ele>248.0</ele><time>2026-04-25T10:14:43Z</time></trkpt><trkpt lat="43.06399785869592" lon="11.55857879312079"><ele>248.0</ele><time>2026-04-25T10:14:44Z</time></trkpt><trkpt lat="43.06398028487007" lon="11.558803531277922"><ele>249.33333333333334</ele><time>2026-04-25T10:14:45Z</time></trkpt><trkpt lat="43.06396024851503" lon="11.559026852865946"><ele>250.66666666666669</ele><time>2026-04-25T10:14:46Z</time></trkpt><trkpt lat="43.063944941816075" lon="11.55924301774547"><ele>252.0</ele><time>2026-04-25T10:14:47Z</time></trkpt><trkpt lat="43.0639337574128" lon="11.559443022367175"><ele>254.33333333333331</ele><time>2026-04-25T10:14:48Z</time></trkpt><trkpt lat="43.063920672463546" lon="11.559632104691806"><ele>256.66666666666663</ele><time>2026-04-25T10:14:49Z</time></trkpt><trkpt lat="43.06390944818354" lon="11.559845848694474"><ele>259.0</ele><time>2026-04-25T10:14:50Z</time></trkpt><trkpt lat="43.06389699305155" lon="11.560074165532562"><ele>259.0</ele><time>2026-04-25T10:14:51Z</time></trkpt><trkpt lat="43.06388249538772" lon="11.560317185356203"><ele>259.0</ele><time>2026-04-25T10:14:52Z</time></trkpt><trkpt lat="43.06386646454191" lon="11.560564232991258"><ele>259.0</ele><time>2026-04-25T10:14:53Z</time></trkpt><trkpt lat="43.06385013420068" lon="11.560813972785425"><ele>260.0</ele><time>2026-04-25T10:14:54Z</time></trkpt><trkpt lat="43.06383202780457" lon="11.561060900427364"><ele>261.0</ele><time>2026-04-25T10:14:55Z</time></trkpt><trkpt lat="43.06381349406038" lon="11.561313838401656"><ele>262.0</ele><time>2026-04-25T10:14:56Z</time></trkpt><trkpt lat="43.06379439280878" lon="11.56157171138904"><ele>259.0</ele><time>2026-04-25T10:14:57Z</time></trkpt><trkpt lat="43.06377715145772" lon="11.561828154579587"><ele>256.0</ele><time>2026-04-25T10:14:58Z</time></trkpt><trkpt lat="43.063765565410826" lon="11.562082503685264"><ele>253.0</ele><time>2026-04-25T10:14:59Z</time></trkpt><trkpt lat="43.06375888340162" lon="11.562330254602067"><ele>250.66666666666666</ele><time>2026-04-25T10:15:00Z</time></trkpt><trkpt lat="43.063756947634616" lon="11.562573680063622"><ele>248.33333333333331</ele><time>2026-04-25T10:15:01Z</time></trkpt><trkpt lat="43.06376090992205" lon="11.562816820802329"><ele>246.0</ele><time>2026-04-25T10:15:02Z</time></trkpt><trkpt lat="43.063771824380986" lon="11.563069250470834"><ele>245.33333333333331</ele><time>2026-04-25T10:15:03Z</time></trkpt><trkpt lat="43.06378654915459" lon="11.563322621291189"><ele>244.66666666666666</ele><time>2026-04-25T10:15:04Z</time></trkpt><trkpt lat="43.06380933523094" lon="11.56358331373685"><ele>244.0</ele><time>2026-04-25T10:15:05Z</time></trkpt><trkpt lat="43.063841980761474" lon="11.563840746273943"><ele>244.0</ele><time>2026-04-25T10:15:06Z</time></trkpt><trkpt lat="43.063879391467324" lon="11.564090671336327"><ele>244.0</ele><time>2026-04-25T10:15:07Z</time></trkpt><trkpt lat="43.06392416751613" lon="11.564330481194643"><ele>244.0</ele><time>2026-04-25T10:15:08Z</time></trkpt><trkpt lat="43.063975939038045" lon="11.564568367309503"><ele>244.33333333333331</ele><time>2026-04-25T10:15:09Z</time></trkpt><trkpt lat="43.06403507949873" lon="11.564808420226116"><ele>244.66666666666669</ele><time>2026-04-25T10:15:10Z</time></trkpt><trkpt lat="43.06410125522403" lon="11.565048077843795"><ele>245.0</ele><time>2026-04-25T10:15:11Z</time></trkpt><trkpt lat="43.06417553628088" lon="11.56528635437914"><ele>247.0</ele><time>2026-04-25T10:15:12Z</time></trkpt><trkpt lat="43.06426174123656" lon="11.565522607059041"><ele>249.0</ele><time>2026-04-25T10:15:13Z</time></trkpt><trkpt lat="43.06435601013327" lon="11.565749535537023"><ele>251.0</ele><time>2026-04-25T10:15:14Z</time></trkpt><trkpt lat="43.06445679595197" lon="11.565974142307878"><ele>251.0</ele><time>2026-04-25T10:15:15Z</time></trkpt><trkpt lat="43.064564721688804" lon="11.56619352217865"><ele>251.0</ele><time>2026-04-25T10:15:16Z</time></trkpt><trkpt lat="43.06467790580869" lon="11.566412214049693"><ele>251.0</ele><time>2026-04-25T10:15:17Z</time></trkpt><trkpt lat="43.06481454143344" lon="11.566641054089235"><ele>252.0</ele><time>2026-04-25T10:15:18Z</time></trkpt><trkpt lat="43.0649687400666" lon="11.566892258190178"><ele>253.0</ele><time>2026-04-25T10:15:19Z</time></trkpt><trkpt lat="43.065137526552945" lon="11.567155659315333"><ele>249.0</ele><time>2026-04-25T10:15:20Z</time></trkpt><trkpt lat="43.06530347214491" lon="11.567424125903743"><ele>245.0</ele><time>2026-04-25T10:15:21Z</time></trkpt><trkpt lat="43.06546235363464" lon="11.567664350489604"><ele>244.66666666666669</ele><time>2026-04-25T10:15:22Z</time></trkpt><trkpt lat="43.06560889582158" lon="11.567873104414172"><ele>244.33333333333331</ele><time>2026-04-25T10:15:23Z</time></trkpt><trkpt lat="43.06574800587016" lon="11.568069284648411"><ele>244.0</ele><time>2026-04-25T10:15:24Z</time></trkpt><trkpt lat="43.06588304632179" lon="11.568260963718112"><ele>244.0</ele><time>2026-04-25T10:15:25Z</time></trkpt><trkpt lat="43.066019171818226" lon="11.568449293222578"><ele>244.0</ele><time>2026-04-25T10:15:26Z</time></trkpt><trkpt lat="43.066151055762624" lon="11.568635997229446"><ele>244.0</ele><time>2026-04-25T10:15:27Z</time></trkpt><trkpt lat="43.06627521577389" lon="11.568815470647765"><ele>243.66666666666666</ele><time>2026-04-25T10:15:28Z</time></trkpt><trkpt lat="43.06639422815736" lon="11.568989480819234"><ele>243.33333333333331</ele><time>2026-04-25T10:15:29Z</time></trkpt><trkpt lat="43.06650961319975" lon="11.569157589401414"><ele>243.0</ele><time>2026-04-25T10:15:30Z</time></trkpt><trkpt lat="43.06662753403929" lon="11.569323669822605"><ele>244.66666666666669</ele><time>2026-04-25T10:15:31Z</time></trkpt><trkpt lat="43.06675722438779" lon="11.56950644725759"><ele>246.33333333333334</ele><time>2026-04-25T10:15:32Z</time></trkpt><trkpt lat="43.0668971197131" lon="11.569700889375785"><ele>248.0</ele><time>2026-04-25T10:15:33Z</time></trkpt><trkpt lat="43.06705322789513" lon="11.569906571415876"><ele>248.0</ele><time>2026-04-25T10:15:34Z</time></trkpt><trkpt lat="43.06721780165325" lon="11.570129125045023"><ele>248.0</ele><time>2026-04-25T10:15:35Z</time></trkpt><trkpt lat="43.06739040720147" lon="11.570370274184222"><ele>248.5</ele><time>2026-04-25T10:15:36Z</time></trkpt><trkpt lat="43.067566880118946" lon="11.570626138910429"><ele>249.0</ele><time>2026-04-25T10:15:37Z</time></trkpt><trkpt lat="43.067742652358945" lon="11.57088932548104"><ele>249.0</ele><time>2026-04-25T10:15:38Z</time></trkpt><trkpt lat="43.06792046497008" lon="11.571158244875559"><ele>249.0</ele><time>2026-04-25T10:15:39Z</time></trkpt><trkpt lat="43.06810281305017" lon="11.571432206768097"><ele>248.5</ele><time>2026-04-25T10:15:40Z</time></trkpt><trkpt lat="43.06828882394237" lon="11.571709780165092"><ele>248.0</ele><time>2026-04-25T10:15:41Z</time></trkpt><trkpt lat="43.068472473882466" lon="11.571987689544263"><ele>246.5</ele><time>2026-04-25T10:15:42Z</time></trkpt><trkpt lat="43.06865134076575" lon="11.57227073949436"><ele>245.0</ele><time>2026-04-25T10:15:43Z</time></trkpt><trkpt lat="43.0688249117199" lon="11.572555950834897"><ele>245.0</ele><time>2026-04-25T10:15:44Z</time></trkpt><trkpt lat="43.06898934940389" lon="11.572846913607597"><ele>245.0</ele><time>2026-04-25T10:15:45Z</time></trkpt><trkpt lat="43.06914813807436" lon="11.573147207457552"><ele>245.5</ele><time>2026-04-25T10:15:46Z</time></trkpt><trkpt lat="43.06930220435068" lon="11.573448884947174"><ele>246.0</ele><time>2026-04-25T10:15:47Z</time></trkpt><trkpt lat="43.06944715260299" lon="11.573756193989668"><ele>245.0</ele><time>2026-04-25T10:15:48Z</time></trkpt><trkpt lat="43.069578976180225" lon="11.57407070314766"><ele>244.0</ele><time>2026-04-25T10:15:49Z</time></trkpt><trkpt lat="43.06970094644086" lon="11.574389550706472"><ele>244.5</ele><time>2026-04-25T10:15:50Z</time></trkpt><trkpt lat="43.06981175473599" lon="11.574710855858982"><ele>245.0</ele><time>2026-04-25T10:15:51Z</time></trkpt><trkpt lat="43.06991094325993" lon="11.575038157625718"><ele>246.5</ele><time>2026-04-25T10:15:52Z</time></trkpt><trkpt lat="43.06999582893819" lon="11.575366960450454"><ele>248.0</ele><time>2026-04-25T10:15:53Z</time></trkpt><trkpt lat="43.0700671537153" lon="11.57569864705599"><ele>248.0</ele><time>2026-04-25T10:15:54Z</time></trkpt><trkpt lat="43.07011640679603" lon="11.57603235242401"><ele>248.0</ele><time>2026-04-25T10:15:55Z</time></trkpt><trkpt lat="43.070157168153" lon="11.576363876375934"><ele>249.0</ele><time>2026-04-25T10:15:56Z</time></trkpt><trkpt lat="43.07019056875616" lon="11.576697091231765"><ele>250.0</ele><time>2026-04-25T10:15:57Z</time></trkpt><trkpt lat="43.07021341271399" lon="11.577031684785211"><ele>253.5</ele><time>2026-04-25T10:15:58Z</time></trkpt><trkpt lat="43.07021702859423" lon="11.577367963983567"><ele>257.0</ele><time>2026-04-25T10:15:59Z</time></trkpt><trkpt lat="43.07020333772564" lon="11.577701584953395"><ele>261.0</ele><time>2026-04-25T10:16:00Z</time></trkpt><trkpt lat="43.07017701700792" lon="11.578029636095051"><ele>265.0</ele><time>2026-04-25T10:16:01Z</time></trkpt><trkpt lat="43.07013877915088" lon="11.578353308603615"><ele>265.0</ele><time>2026-04-25T10:16:02Z</time></trkpt><trkpt lat="43.07008416968263" lon="11.578673314456196"><ele>265.0</ele><time>2026-04-25T10:16:03Z</time></trkpt><trkpt lat="43.070023135310926" lon="11.578991574454392"><ele>269.5</ele><time>2026-04-25T10:16:04Z</time></trkpt><trkpt lat="43.06995230489177" lon="11.579308615626276"><ele>274.0</ele><time>2026-04-25T10:16:05Z</time></trkpt><trkpt lat="43.069869229532785" lon="11.579617997217385"><ele>279.5</ele><time>2026-04-25T10:16:06Z</time></trkpt><trkpt lat="43.069769251037734" lon="11.579920816233091"><ele>285.0</ele><time>2026-04-25T10:16:07Z</time></trkpt><trkpt lat="43.06965381583275" lon="11.580215761113367"><ele>286.5</ele><time>2026-04-25T10:16:08Z</time></trkpt><trkpt lat="43.069528105295454" lon="11.580504488382719"><ele>288.0</ele><time>2026-04-25T10:16:09Z</time></trkpt><trkpt lat="43.06939173974601" lon="11.580785686444413"><ele>288.0</ele><time>2026-04-25T10:16:10Z</time></trkpt><trkpt lat="43.06924717667087" lon="11.581059857894775"><ele>288.0</ele><time>2026-04-25T10:16:11Z</time></trkpt><trkpt lat="43.06909202658798" lon="11.58132110339118"><ele>293.0</ele><time>2026-04-25T10:16:12Z</time></trkpt><trkpt lat="43.0689309177579" lon="11.581560479018068"><ele>298.0</ele><time>2026-04-25T10:16:13Z</time></trkpt><trkpt lat="43.06876770756037" lon="11.581781180603478"><ele>298.0</ele><time>2026-04-25T10:16:14Z</time></trkpt><trkpt lat="43.068600262472" lon="11.581996483888812"><ele>298.0</ele><time>2026-04-25T10:16:15Z</time></trkpt><trkpt lat="43.0684305966201" lon="11.582201415662187"><ele>302.0</ele><time>2026-04-25T10:16:16Z</time></trkpt><trkpt lat="43.06823727102379" lon="11.582376638505925"><ele>306.0</ele><time>2026-04-25T10:16:17Z</time></trkpt><trkpt lat="43.06804900036031" lon="11.582569252882973"><ele>306.0</ele><time>2026-04-25T10:16:18Z</time></trkpt><trkpt lat="43.06784618418491" lon="11.582739260059178"><ele>306.0</ele><time>2026-04-25T10:16:19Z</time></trkpt><trkpt lat="43.06764646857111" lon="11.582915077348291"><ele>307.5</ele><time>2026-04-25T10:16:20Z</time></trkpt><trkpt lat="43.06744299110138" lon="11.583088648411964"><ele>309.0</ele><time>2026-04-25T10:16:21Z</time></trkpt><trkpt lat="43.067231545038965" lon="11.583248436285942"><ele>309.0</ele><time>2026-04-25T10:16:22Z</time></trkpt><trkpt lat="43.06701377682312" lon="11.583394439903888"><ele>309.0</ele><time>2026-04-25T10:16:23Z</time></trkpt><trkpt lat="43.066790196625085" lon="11.583532272983865"><ele>308.0</ele><time>2026-04-25T10:16:24Z</time></trkpt><trkpt lat="43.06656235571116" lon="11.583668698045779"><ele>307.0</ele><time>2026-04-25T10:16:25Z</time></trkpt><trkpt lat="43.06633862528044" lon="11.583800979985975"><ele>307.0</ele><time>2026-04-25T10:16:26Z</time></trkpt><trkpt lat="43.06611320719099" lon="11.583931699886326"><ele>307.0</ele><time>2026-04-25T10:16:27Z</time></trkpt><trkpt lat="43.06588697773714" lon="11.584061364897108"><ele>311.5</ele><time>2026-04-25T10:16:28Z</time></trkpt><trkpt lat="43.065658654037534" lon="11.584195427191077"><ele>316.0</ele><time>2026-04-25T10:16:29Z</time></trkpt><trkpt lat="43.06542870639002" lon="11.584329413177997"><ele>316.0</ele><time>2026-04-25T10:16:30Z</time></trkpt><trkpt lat="43.065193699835866" lon="11.584463108686013"><ele>316.0</ele><time>2026-04-25T10:16:31Z</time></trkpt><trkpt lat="43.06495652028856" lon="11.584594890733978"><ele>318.0</ele><time>2026-04-25T10:16:32Z</time></trkpt><trkpt lat="43.06471636251725" lon="11.584728904852783"><ele>320.0</ele><time>2026-04-25T10:16:33Z</time></trkpt><trkpt lat="43.06447595403971" lon="11.584869120570447"><ele>320.0</ele><time>2026-04-25T10:16:34Z</time></trkpt><trkpt lat="43.06424194403528" lon="11.585022382700236"><ele>320.0</ele><time>2026-04-25T10:16:35Z</time></trkpt><trkpt lat="43.06401509298139" lon="11.585190201880874"><ele>320.0</ele><time>2026-04-25T10:16:36Z</time></trkpt><trkpt lat="43.06379510584444" lon="11.585375760537799"><ele>320.0</ele><time>2026-04-25T10:16:37Z</time></trkpt><trkpt lat="43.06358731433497" lon="11.585584419315149"><ele>320.0</ele><time>2026-04-25T10:16:38Z</time></trkpt><trkpt lat="43.063387509725196" lon="11.585808991564145"><ele>320.0</ele><time>2026-04-25T10:16:39Z</time></trkpt><trkpt lat="43.06319332626642" lon="11.58604734515952"><ele>323.5</ele><time>2026-04-25T10:16:40Z</time></trkpt><trkpt lat="43.06300765179896" lon="11.586298990077402"><ele>327.0</ele><time>2026-04-25T10:16:41Z</time></trkpt><trkpt lat="43.06283508115614" lon="11.58656952074786"><ele>327.0</ele><time>2026-04-25T10:16:42Z</time></trkpt><trkpt lat="43.06267687919214" lon="11.586855534337849"><ele>327.0</ele><time>2026-04-25T10:16:43Z</time></trkpt><trkpt lat="43.062536539321115" lon="11.587146337971081"><ele>332.5</ele><time>2026-04-25T10:16:44Z</time></trkpt><trkpt lat="43.062412408790486" lon="11.587439855640723"><ele>338.0</ele><time>2026-04-25T10:16:45Z</time></trkpt><trkpt lat="43.06229865057886" lon="11.587734536203026"><ele>339.0</ele><time>2026-04-25T10:16:46Z</time></trkpt><trkpt lat="43.062191372043266" lon="11.588032634905169"><ele>340.0</ele><time>2026-04-25T10:16:47Z</time></trkpt><trkpt lat="43.062090051075046" lon="11.588333469426447"><ele>340.0</ele><time>2026-04-25T10:16:48Z</time></trkpt><trkpt lat="43.06199037762318" lon="11.58863582244994"><ele>340.0</ele><time>2026-04-25T10:16:49Z</time></trkpt><trkpt lat="43.06189283466492" lon="11.588939088191573"><ele>339.5</ele><time>2026-04-25T10:16:50Z</time></trkpt><trkpt lat="43.06179236448345" lon="11.589237133571942"><ele>339.0</ele><time>2026-04-25T10:16:51Z</time></trkpt><trkpt lat="43.061687238846844" lon="11.5895290735263"><ele>345.5</ele><time>2026-04-25T10:16:52Z</time></trkpt><trkpt lat="43.061569481821245" lon="11.589811717470882"><ele>352.0</ele><time>2026-04-25T10:16:53Z</time></trkpt><trkpt lat="43.06144222872818" lon="11.590095335747312"><ele>349.0</ele><time>2026-04-25T10:16:54Z</time></trkpt><trkpt lat="43.061311585842695" lon="11.590369671674457"><ele>346.0</ele><time>2026-04-25T10:16:55Z</time></trkpt><trkpt lat="43.061179558351206" lon="11.59063410580059"><ele>346.0</ele><time>2026-04-25T10:16:56Z</time></trkpt><trkpt lat="43.06102514324349" lon="11.590890849968575"><ele>346.0</ele><time>2026-04-25T10:16:57Z</time></trkpt><trkpt lat="43.0608722591592" lon="11.59118140706012"><ele>344.5</ele><time>2026-04-25T10:16:58Z</time></trkpt><trkpt lat="43.060728851977856" lon="11.591484349841478"><ele>343.0</ele><time>2026-04-25T10:16:59Z</time></trkpt><trkpt lat="43.060574297149394" lon="11.59176982420916"><ele>344.5</ele><time>2026-04-25T10:17:00Z</time></trkpt><trkpt lat="43.06042905932383" lon="11.592058502831243"><ele>346.0</ele><time>2026-04-25T10:17:01Z</time></trkpt><trkpt lat="43.060301802030985" lon="11.592362885494119"><ele>346.0</ele><time>2026-04-25T10:17:02Z</time></trkpt><trkpt lat="43.06018724644734" lon="11.59267756981022"><ele>346.0</ele><time>2026-04-25T10:17:03Z</time></trkpt><trkpt lat="43.06008680316063" lon="11.592999340977807"><ele>349.5</ele><time>2026-04-25T10:17:04Z</time></trkpt><trkpt lat="43.059999768396324" lon="11.593331683484239"><ele>353.0</ele><time>2026-04-25T10:17:05Z</time></trkpt><trkpt lat="43.05992692555301" lon="11.593675219232768"><ele>361.0</ele><time>2026-04-25T10:17:06Z</time></trkpt><trkpt lat="43.059868579153225" lon="11.594025283426799"><ele>369.0</ele><time>2026-04-25T10:17:07Z</time></trkpt><trkpt lat="43.059828921651615" lon="11.594384042842897"><ele>373.0</ele><time>2026-04-25T10:17:08Z</time></trkpt><trkpt lat="43.05979733506764" lon="11.594740071737363"><ele>377.0</ele><time>2026-04-25T10:17:09Z</time></trkpt><trkpt lat="43.059781027055195" lon="11.595102083020645"><ele>378.5</ele><time>2026-04-25T10:17:10Z</time></trkpt><trkpt lat="43.05977918168965" lon="11.595464736733229"><ele>380.0</ele><time>2026-04-25T10:17:11Z</time></trkpt><trkpt lat="43.059780248397125" lon="11.595826642684028"><ele>381.5</ele><time>2026-04-25T10:17:12Z</time></trkpt><trkpt lat="43.059780181061036" lon="11.596186538935198"><ele>383.0</ele><time>2026-04-25T10:17:13Z</time></trkpt><trkpt lat="43.05978414379427" lon="11.596540996501856"><ele>383.0</ele><time>2026-04-25T10:17:14Z</time></trkpt><trkpt lat="43.05979411061349" lon="11.596893961057118"><ele>383.0</ele><time>2026-04-25T10:17:15Z</time></trkpt><trkpt lat="43.05981251000732" lon="11.597246318875467"><ele>382.0</ele><time>2026-04-25T10:17:16Z</time></trkpt><trkpt lat="43.0598430444061" lon="11.597597450430987"><ele>381.0</ele><time>2026-04-25T10:17:17Z</time></trkpt><trkpt lat="43.059888848392404" lon="11.597946430351257"><ele>378.0</ele><time>2026-04-25T10:17:18Z</time></trkpt><trkpt lat="43.05994931222769" lon="11.598292088997429"><ele>375.0</ele><time>2026-04-25T10:17:19Z</time></trkpt><trkpt lat="43.060025661516406" lon="11.598628146050702"><ele>371.0</ele><time>2026-04-25T10:17:20Z</time></trkpt><trkpt lat="43.06011537401557" lon="11.598949167384967"><ele>367.0</ele><time>2026-04-25T10:17:21Z</time></trkpt><trkpt lat="43.060218388774715" lon="11.59925886038396"><ele>372.0</ele><time>2026-04-25T10:17:22Z</time></trkpt><trkpt lat="43.0603299412203" lon="11.599556792188302"><ele>377.0</ele><time>2026-04-25T10:17:23Z</time></trkpt><trkpt lat="43.06044388458321" lon="11.599825805260767"><ele>377.0</ele><time>2026-04-25T10:17:24Z</time></trkpt><trkpt lat="43.06055255838396" lon="11.600067869763514"><ele>377.0</ele><time>2026-04-25T10:17:25Z</time></trkpt><trkpt lat="43.06065059501561" lon="11.60028881994885"><ele>377.0</ele><time>2026-04-25T10:17:26Z</time></trkpt><trkpt lat="43.060744830989634" lon="11.600498860917217"><ele>379.33333333333337</ele><time>2026-04-25T10:17:27Z</time></trkpt><trkpt lat="43.060835659084425" lon="11.600695493749884"><ele>381.6666666666667</ele><time>2026-04-25T10:17:28Z</time></trkpt><trkpt lat="43.06091893748537" lon="11.600865784242473"><ele>384.0</ele><time>2026-04-25T10:17:29Z</time></trkpt><trkpt lat="43.06099277311723" lon="11.601013132680965"><ele>384.0</ele><time>2026-04-25T10:17:30Z</time></trkpt><trkpt lat="43.06106326314292" lon="11.601157511428958"><ele>384.0</ele><time>2026-04-25T10:17:31Z</time></trkpt><trkpt lat="43.061126107238806" lon="11.601303405129649"><ele>384.0</ele><time>2026-04-25T10:17:32Z</time></trkpt><trkpt lat="43.061191888458815" lon="11.601456919578627"><ele>384.0</ele><time>2026-04-25T10:17:33Z</time></trkpt><trkpt lat="43.06125251697837" lon="11.60162297279283"><ele>387.0</ele><time>2026-04-25T10:17:34Z</time></trkpt><trkpt lat="43.06131225912363" lon="11.60180509122539"><ele>390.0</ele><time>2026-04-25T10:17:35Z</time></trkpt><trkpt lat="43.06136661372892" lon="11.60200831671898"><ele>393.0</ele><time>2026-04-25T10:17:36Z</time></trkpt><trkpt lat="43.06141546154543" lon="11.602239387406641"><ele>395.66666666666663</ele><time>2026-04-25T10:17:37Z</time></trkpt><trkpt lat="43.061455708379135" lon="11.602499678775887"><ele>398.3333333333333</ele><time>2026-04-25T10:17:38Z</time></trkpt><trkpt lat="43.06148845929025" lon="11.60278015578061"><ele>401.0</ele><time>2026-04-25T10:17:39Z</time></trkpt><trkpt lat="43.06151745279749" lon="11.603061360472019"><ele>403.3333333333333</ele><time>2026-04-25T10:17:40Z</time></trkpt><trkpt lat="43.061542951132914" lon="11.603343746893076"><ele>405.66666666666663</ele><time>2026-04-25T10:17:41Z</time></trkpt><trkpt lat="43.06155853679479" lon="11.603598942342078"><ele>408.0</ele><time>2026-04-25T10:17:42Z</time></trkpt><trkpt lat="43.06156396249111" lon="11.603828146906508"><ele>408.33333333333337</ele><time>2026-04-25T10:17:43Z</time></trkpt><trkpt lat="43.06156226461001" lon="11.604046037182256"><ele>408.6666666666667</ele><time>2026-04-25T10:17:44Z</time></trkpt><trkpt lat="43.06154063994941" lon="11.60427364361696"><ele>409.0</ele><time>2026-04-25T10:17:45Z</time></trkpt><trkpt lat="43.06150505770469" lon="11.604505196823148"><ele>409.0</ele><time>2026-04-25T10:17:46Z</time></trkpt><trkpt lat="43.061464002859175" lon="11.604727859107063"><ele>409.0</ele><time>2026-04-25T10:17:47Z</time></trkpt><trkpt lat="43.06141406513825" lon="11.604943507327354"><ele>409.0</ele><time>2026-04-25T10:17:48Z</time></trkpt><trkpt lat="43.061352094200295" lon="11.605157678133038"><ele>407.0</ele><time>2026-04-25T10:17:49Z</time></trkpt><trkpt lat="43.061273760119356" lon="11.605361832344002"><ele>405.0</ele><time>2026-04-25T10:17:50Z</time></trkpt><trkpt lat="43.061179637322866" lon="11.605548606906316"><ele>403.0</ele><time>2026-04-25T10:17:51Z</time></trkpt><trkpt lat="43.061073680451656" lon="11.605723446798558"><ele>403.0</ele><time>2026-04-25T10:17:52Z</time></trkpt><trkpt lat="43.0609641206153" lon="11.605894859749707"><ele>403.0</ele><time>2026-04-25T10:17:53Z</time></trkpt><trkpt lat="43.060854719517955" lon="11.606070399070646"><ele>403.0</ele><time>2026-04-25T10:17:54Z</time></trkpt><trkpt lat="43.060746832558536" lon="11.606250402106841"><ele>401.33333333333337</ele><time>2026-04-25T10:17:55Z</time></trkpt><trkpt lat="43.06063716367861" lon="11.60643196181388"><ele>399.66666666666663</ele><time>2026-04-25T10:17:56Z</time></trkpt><trkpt lat="43.06052577933267" lon="11.606612425440717"><ele>398.0</ele><time>2026-04-25T10:17:57Z</time></trkpt><trkpt lat="43.06040864731239" lon="11.606799560357171"><ele>398.0</ele><time>2026-04-25T10:17:58Z</time></trkpt><trkpt lat="43.06029682807533" lon="11.606978016337608"><ele>398.0</ele><time>2026-04-25T10:17:59Z</time></trkpt><trkpt lat="43.0601910165648" lon="11.607145466980386"><ele>398.0</ele><time>2026-04-25T10:18:00Z</time></trkpt><trkpt lat="43.06009078245994" lon="11.607301038428494"><ele>398.0</ele><time>2026-04-25T10:18:01Z</time></trkpt><trkpt lat="43.05999900672563" lon="11.607446704118077"><ele>398.0</ele><time>2026-04-25T10:18:02Z</time></trkpt><trkpt lat="43.05990878288596" lon="11.607593135005095"><ele>398.0</ele><time>2026-04-25T10:18:03Z</time></trkpt><trkpt lat="43.05981829372392" lon="11.607740818383688"><ele>398.0</ele><time>2026-04-25T10:18:04Z</time></trkpt><trkpt lat="43.059727075171295" lon="11.60789116515898"><ele>397.75</ele><time>2026-04-25T10:18:05Z</time></trkpt><trkpt lat="43.05963320920418" lon="11.608042212462856"><ele>397.5</ele><time>2026-04-25T10:18:06Z</time></trkpt><trkpt lat="43.05953868892218" lon="11.608191932460556"><ele>397.25</ele><time>2026-04-25T10:18:07Z</time></trkpt><trkpt lat="43.059443488233136" lon="11.608341810636919"><ele>397.0</ele><time>2026-04-25T10:18:08Z</time></trkpt><trkpt lat="43.05934795693445" lon="11.608493757158572"><ele>397.0</ele><time>2026-04-25T10:18:09Z</time></trkpt><trkpt lat="43.059250678699726" lon="11.608646759334231"><ele>397.0</ele><time>2026-04-25T10:18:10Z</time></trkpt><trkpt lat="43.059153307919225" lon="11.60880124037724"><ele>397.0</ele><time>2026-04-25T10:18:11Z</time></trkpt><trkpt lat="43.05905483846494" lon="11.608957311191043"><ele>397.0</ele><time>2026-04-25T10:18:12Z</time></trkpt><trkpt lat="43.058956027361155" lon="11.609116867019601"><ele>397.33333333333337</ele><time>2026-04-25T10:18:13Z</time></trkpt><trkpt lat="43.058856240170336" lon="11.609278848109753"><ele>397.66666666666663</ele><time>2026-04-25T10:18:14Z</time></trkpt><trkpt lat="43.058754509168345" lon="11.60944399098577"><ele>398.0</ele><time>2026-04-25T10:18:15Z</time></trkpt><trkpt lat="43.05865006355403" lon="11.609611249883628"><ele>394.3333333333333</ele><time>2026-04-25T10:18:16Z</time></trkpt><trkpt lat="43.05854205717946" lon="11.609779283652284"><ele>390.66666666666663</ele><time>2026-04-25T10:18:17Z</time></trkpt><trkpt lat="43.058432757062725" lon="11.609948953603597"><ele>387.0</ele><time>2026-04-25T10:18:18Z</time></trkpt><trkpt lat="43.05832455740309" lon="11.610120848546364"><ele>387.66666666666663</ele><time>2026-04-25T10:18:19Z</time></trkpt><trkpt lat="43.05821752634015" lon="11.610293698489087"><ele>388.3333333333333</ele><time>2026-04-25T10:18:20Z</time></trkpt><trkpt lat="43.05811053466926" lon="11.610465326942446"><ele>389.0</ele><time>2026-04-25T10:18:21Z</time></trkpt><trkpt lat="43.05799945179756" lon="11.610629621183746"><ele>385.3333333333333</ele><time>2026-04-25T10:18:22Z</time></trkpt><trkpt lat="43.05787299808435" lon="11.610768142350901"><ele>381.66666666666663</ele><time>2026-04-25T10:18:23Z</time></trkpt><trkpt lat="43.05772479633441" lon="11.610877027021417"><ele>378.0</ele><time>2026-04-25T10:18:24Z</time></trkpt><trkpt lat="43.05755881527932" lon="11.61095564986735"><ele>376.6666666666667</ele><time>2026-04-25T10:18:25Z</time></trkpt><trkpt lat="43.057387071099505" lon="11.611006979549094"><ele>375.33333333333337</ele><time>2026-04-25T10:18:26Z</time></trkpt><trkpt lat="43.05721244398798" lon="11.611020388353966"><ele>374.0</ele><time>2026-04-25T10:18:27Z</time></trkpt><trkpt lat="43.05703325838918" lon="11.610990555181713"><ele>374.0</ele><time>2026-04-25T10:18:28Z</time></trkpt><trkpt lat="43.05685879000732" lon="11.610906928061198"><ele>374.0</ele><time>2026-04-25T10:18:29Z</time></trkpt><trkpt lat="43.05669550829254" lon="11.610779487426047"><ele>374.0</ele><time>2026-04-25T10:18:30Z</time></trkpt><trkpt lat="43.05654214146214" lon="11.610645742468456"><ele>373.33333333333337</ele><time>2026-04-25T10:18:31Z</time></trkpt><trkpt lat="43.05639594650767" lon="11.610524443166046"><ele>372.6666666666667</ele><time>2026-04-25T10:18:32Z</time></trkpt><trkpt lat="43.05625415906831" lon="11.610408213532263"><ele>372.0</ele><time>2026-04-25T10:18:33Z</time></trkpt><trkpt lat="43.05611476019064" lon="11.610291764779312"><ele>370.6666666666667</ele><time>2026-04-25T10:18:34Z</time></trkpt><trkpt lat="43.0559733620424" lon="11.61017360860006"><ele>369.33333333333337</ele><time>2026-04-25T10:18:35Z</time></trkpt><trkpt lat="43.055830225654034" lon="11.610052762508596"><ele>368.0</ele><time>2026-04-25T10:18:36Z</time></trkpt><trkpt lat="43.05568559951359" lon="11.60992661043584"><ele>368.0</ele><time>2026-04-25T10:18:37Z</time></trkpt><trkpt lat="43.05553775502427" lon="11.609800098500425"><ele>368.0</ele><time>2026-04-25T10:18:38Z</time></trkpt><trkpt lat="43.05538674345956" lon="11.609671336215854"><ele>368.0</ele><time>2026-04-25T10:18:39Z</time></trkpt><trkpt lat="43.05523292284414" lon="11.609538806603807"><ele>366.33333333333337</ele><time>2026-04-25T10:18:40Z</time></trkpt><trkpt lat="43.05507766094178" lon="11.609403428075698"><ele>364.6666666666667</ele><time>2026-04-25T10:18:41Z</time></trkpt><trkpt lat="43.054923203556086" lon="11.609267951220067"><ele>363.0</ele><time>2026-04-25T10:18:42Z</time></trkpt><trkpt lat="43.05476997923236" lon="11.609135587752537"><ele>363.0</ele><time>2026-04-25T10:18:43Z</time></trkpt><trkpt lat="43.05462018800955" lon="11.609010473846546"><ele>363.0</ele><time>2026-04-25T10:18:44Z</time></trkpt><trkpt lat="43.05447485258706" lon="11.608887184168852"><ele>363.0</ele><time>2026-04-25T10:18:45Z</time></trkpt><trkpt lat="43.054335304883985" lon="11.608767737628412"><ele>363.25</ele><time>2026-04-25T10:18:46Z</time></trkpt><trkpt lat="43.05420221210763" lon="11.608651229051265"><ele>363.5</ele><time>2026-04-25T10:18:47Z</time></trkpt><trkpt lat="43.05407772907203" lon="11.608547108914426"><ele>363.75</ele><time>2026-04-25T10:18:48Z</time></trkpt><trkpt lat="43.05396537183959" lon="11.60846124071707"><ele>364.0</ele><time>2026-04-25T10:18:49Z</time></trkpt><trkpt lat="43.05386544839525" lon="11.608394432261807"><ele>364.0</ele><time>2026-04-25T10:18:50Z</time></trkpt><trkpt lat="43.05377517554467" lon="11.608360671900236"><ele>364.0</ele><time>2026-04-25T10:18:51Z</time></trkpt><trkpt lat="43.053702098222516" lon="11.608331989728068"><ele>364.0</ele><time>2026-04-25T10:18:52Z</time></trkpt><trkpt lat="43.05359738958894" lon="11.608296440562592"><ele>364.0</ele><time>2026-04-25T10:18:54Z</time></trkpt><trkpt lat="43.05348970968117" lon="11.608281485474231"><ele>364.0</ele><time>2026-04-25T10:19:53Z</time></trkpt><trkpt lat="43.05340084982871" lon="11.608284653893222"><ele>364.0</ele><time>2026-04-25T10:19:54Z</time></trkpt><trkpt lat="43.05329645197119" lon="11.608301337141713"><ele>364.0</ele><time>2026-04-25T10:19:55Z</time></trkpt><trkpt lat="43.05318271793602" lon="11.608339732836296"><ele>364.0</ele><time>2026-04-25T10:19:56Z</time></trkpt><trkpt lat="43.05306227117526" lon="11.608392662208251"><ele>364.0</ele><time>2026-04-25T10:19:57Z</time></trkpt><trkpt lat="43.05293578894188" lon="11.608465306503177"><ele>362.5</ele><time>2026-04-25T10:19:58Z</time></trkpt><trkpt lat="43.05280680537286" lon="11.60854036426611"><ele>361.0</ele><time>2026-04-25T10:19:59Z</time></trkpt><trkpt lat="43.05267510419964" lon="11.608613154504356"><ele>359.5</ele><time>2026-04-25T10:20:00Z</time></trkpt><trkpt lat="43.05254466514382" lon="11.608689612136063"><ele>358.0</ele><time>2026-04-25T10:20:01Z</time></trkpt><trkpt lat="43.05241621188497" lon="11.608766219024728"><ele>357.25</ele><time>2026-04-25T10:20:02Z</time></trkpt><trkpt lat="43.052288620594695" lon="11.608841862244331"><ele>356.5</ele><time>2026-04-25T10:20:03Z</time></trkpt><trkpt lat="43.05215880834607" lon="11.608919538654689"><ele>355.75</ele><time>2026-04-25T10:20:04Z</time></trkpt><trkpt lat="43.052021495716936" lon="11.608997694927242"><ele>355.0</ele><time>2026-04-25T10:20:05Z</time></trkpt><trkpt lat="43.05187399654647" lon="11.609073686979803"><ele>355.0</ele><time>2026-04-25T10:20:06Z</time></trkpt><trkpt lat="43.051720249640944" lon="11.609164474704276"><ele>355.0</ele><time>2026-04-25T10:20:07Z</time></trkpt><trkpt lat="43.05156055959851" lon="11.609260360065486"><ele>355.0</ele><time>2026-04-25T10:20:08Z</time></trkpt><trkpt lat="43.05139360863151" lon="11.60936282257684"><ele>357.0</ele><time>2026-04-25T10:20:09Z</time></trkpt><trkpt lat="43.0512207927965" lon="11.609471730696285"><ele>359.0</ele><time>2026-04-25T10:20:10Z</time></trkpt><trkpt lat="43.05105052356113" lon="11.609604605253066"><ele>361.0</ele><time>2026-04-25T10:20:11.001Z</time></trkpt><trkpt lat="43.050868010339144" lon="11.60977167085392"><ele>358.0</ele><time>2026-04-25T10:20:12.001Z</time></trkpt><trkpt lat="43.05069541965501" lon="11.609954491251361"><ele>355.0</ele><time>2026-04-25T10:20:13.001Z</time></trkpt><trkpt lat="43.05052007627477" lon="11.610122158465167"><ele>352.0</ele><time>2026-04-25T10:20:14.001Z</time></trkpt><trkpt lat="43.05034825995712" lon="11.610274635848459"><ele>349.3333333333333</ele><time>2026-04-25T10:20:15.001Z</time></trkpt><trkpt lat="43.050185361412744" lon="11.610423780508507"><ele>346.6666666666667</ele><time>2026-04-25T10:20:16.001Z</time></trkpt><trkpt lat="43.050022602057865" lon="11.610557237498043"><ele>344.0</ele><time>2026-04-25T10:20:17.001Z</time></trkpt><trkpt lat="43.04985887784032" lon="11.610670430377409"><ele>344.0</ele><time>2026-04-25T10:20:18.001Z</time></trkpt><trkpt lat="43.049683870274635" lon="11.610739302674379"><ele>344.0</ele><time>2026-04-25T10:20:19.001Z</time></trkpt><trkpt lat="43.049491165738935" lon="11.610767908909573"><ele>344.0</ele><time>2026-04-25T10:20:20.001Z</time></trkpt><trkpt lat="43.0492935893007" lon="11.610799010481745"><ele>345.0</ele><time>2026-04-25T10:20:21.001Z</time></trkpt><trkpt lat="43.049106375888314" lon="11.610853075163739"><ele>346.0</ele><time>2026-04-25T10:20:22Z</time></trkpt><trkpt lat="43.04892660674277" lon="11.61091410092772"><ele>347.0</ele><time>2026-04-25T10:20:23Z</time></trkpt><trkpt lat="43.04875563394764" lon="11.61098543263132"><ele>347.0</ele><time>2026-04-25T10:20:24Z</time></trkpt><trkpt lat="43.04859274983654" lon="11.611102230593453"><ele>347.0</ele><time>2026-04-25T10:20:25Z</time></trkpt><trkpt lat="43.04845330094155" lon="11.611268551686683"><ele>347.0</ele><time>2026-04-25T10:20:26Z</time></trkpt><trkpt lat="43.04832112367389" lon="11.61145595200509"><ele>347.33333333333337</ele><time>2026-04-25T10:20:27Z</time></trkpt><trkpt lat="43.04821566636541" lon="11.61168461339659"><ele>347.6666666666667</ele><time>2026-04-25T10:20:28Z</time></trkpt><trkpt lat="43.0481408716944" lon="11.611934286948406"><ele>348.0</ele><time>2026-04-25T10:20:29Z</time></trkpt><trkpt lat="43.04811672396267" lon="11.61218530125676"><ele>344.3333333333333</ele><time>2026-04-25T10:20:30Z</time></trkpt><trkpt lat="43.04810913656733" lon="11.612437775744928"><ele>340.66666666666663</ele><time>2026-04-25T10:20:31Z</time></trkpt><trkpt lat="43.04811820104125" lon="11.612708866932952"><ele>337.0</ele><time>2026-04-25T10:20:32Z</time></trkpt><trkpt lat="43.04817282793504" lon="11.612990276741264"><ele>335.3333333333333</ele><time>2026-04-25T10:20:33Z</time></trkpt><trkpt lat="43.04825408767297" lon="11.613272405230472"><ele>333.6666666666667</ele><time>2026-04-25T10:20:34Z</time></trkpt><trkpt lat="43.04835531407838" lon="11.613540843751194"><ele>332.0</ele><time>2026-04-25T10:20:35Z</time></trkpt><trkpt lat="43.04844467925322" lon="11.613818902373227"><ele>329.0</ele><time>2026-04-25T10:20:36Z</time></trkpt><trkpt lat="43.048535008878616" lon="11.61409671131106"><ele>326.0</ele><time>2026-04-25T10:20:37Z</time></trkpt><trkpt lat="43.04861971293781" lon="11.614371176192446"><ele>323.0</ele><time>2026-04-25T10:20:38Z</time></trkpt><trkpt lat="43.04870678680542" lon="11.614644737460083"><ele>322.0</ele><time>2026-04-25T10:20:39Z</time></trkpt><trkpt lat="43.04878099861973" lon="11.614927188433041"><ele>321.0</ele><time>2026-04-25T10:20:40Z</time></trkpt><trkpt lat="43.04886962429204" lon="11.615202456758357"><ele>320.0</ele><time>2026-04-25T10:20:41Z</time></trkpt><trkpt lat="43.0489561275826" lon="11.61547489018461"><ele>319.6666666666667</ele><time>2026-04-25T10:20:42Z</time></trkpt><trkpt lat="43.0490325469135" lon="11.615749199273406"><ele>319.3333333333333</ele><time>2026-04-25T10:20:43Z</time></trkpt><trkpt lat="43.049092710795804" lon="11.616028754503054"><ele>319.0</ele><time>2026-04-25T10:20:44Z</time></trkpt><trkpt lat="43.04914709275886" lon="11.61631297668113"><ele>316.66666666666663</ele><time>2026-04-25T10:20:45Z</time></trkpt><trkpt lat="43.049173298768665" lon="11.61661423742273"><ele>314.3333333333333</ele><time>2026-04-25T10:20:46Z</time></trkpt><trkpt lat="43.04919924314727" lon="11.616920536840974"><ele>312.0</ele><time>2026-04-25T10:20:47Z</time></trkpt><trkpt lat="43.04922802710313" lon="11.617231545626947"><ele>311.0</ele><time>2026-04-25T10:20:48Z</time></trkpt><trkpt lat="43.0492575812664" lon="11.6175468745033"><ele>310.0</ele><time>2026-04-25T10:20:49Z</time></trkpt><trkpt lat="43.04928459453432" lon="11.617865422080785"><ele>308.0</ele><time>2026-04-25T10:20:50Z</time></trkpt><trkpt lat="43.049311527074806" lon="11.618186263050136"><ele>306.0</ele><time>2026-04-25T10:20:51Z</time></trkpt><trkpt lat="43.04933641872591" lon="11.61850499614474"><ele>304.5</ele><time>2026-04-25T10:20:52Z</time></trkpt><trkpt lat="43.049358590618205" lon="11.6188199835839"><ele>303.0</ele><time>2026-04-25T10:20:53Z</time></trkpt><trkpt lat="43.04938648065483" lon="11.619131358685065"><ele>303.0</ele><time>2026-04-25T10:20:54Z</time></trkpt><trkpt lat="43.049418168012075" lon="11.61944358700611"><ele>303.0</ele><time>2026-04-25T10:20:55Z</time></trkpt><trkpt lat="43.04944838856795" lon="11.619755469316244"><ele>302.0</ele><time>2026-04-25T10:20:56Z</time></trkpt><trkpt lat="43.04947802222101" lon="11.620066499605686"><ele>301.0</ele><time>2026-04-25T10:20:57Z</time></trkpt><trkpt lat="43.04950702721135" lon="11.620372332974528"><ele>301.0</ele><time>2026-04-25T10:20:58Z</time></trkpt><trkpt lat="43.04953001632478" lon="11.620679211512225"><ele>301.0</ele><time>2026-04-25T10:20:59Z</time></trkpt><trkpt lat="43.04953875948204" lon="11.620991615737987"><ele>299.5</ele><time>2026-04-25T10:21:00Z</time></trkpt><trkpt lat="43.04952701679845" lon="11.621305008464292"><ele>298.0</ele><time>2026-04-25T10:21:01Z</time></trkpt><trkpt lat="43.04950137153107" lon="11.62161848631401"><ele>298.0</ele><time>2026-04-25T10:21:02Z</time></trkpt><trkpt lat="43.0494628911195" lon="11.621926950997093"><ele>298.0</ele><time>2026-04-25T10:21:03Z</time></trkpt><trkpt lat="43.04940871789694" lon="11.622228477046802"><ele>296.0</ele><time>2026-04-25T10:21:04Z</time></trkpt><trkpt lat="43.049340949749784" lon="11.622526580964044"><ele>294.0</ele><time>2026-04-25T10:21:05Z</time></trkpt><trkpt lat="43.04925794432054" lon="11.622819120814938"><ele>292.0</ele><time>2026-04-25T10:21:06Z</time></trkpt><trkpt lat="43.04915794386379" lon="11.623109278191677"><ele>290.0</ele><time>2026-04-25T10:21:07Z</time></trkpt><trkpt lat="43.04904426819235" lon="11.623395265807012"><ele>291.5</ele><time>2026-04-25T10:21:08Z</time></trkpt><trkpt lat="43.04892119220804" lon="11.623677781555605"><ele>293.0</ele><time>2026-04-25T10:21:09Z</time></trkpt><trkpt lat="43.04878877606081" lon="11.623957227222709"><ele>293.0</ele><time>2026-04-25T10:21:10Z</time></trkpt><trkpt lat="43.048655797498434" lon="11.624229372631872"><ele>293.0</ele><time>2026-04-25T10:21:11Z</time></trkpt><trkpt lat="43.04852937055066" lon="11.624490648194003"><ele>290.6666666666667</ele><time>2026-04-25T10:21:12Z</time></trkpt><trkpt lat="43.04841268909035" lon="11.624727605411746"><ele>288.3333333333333</ele><time>2026-04-25T10:21:13Z</time></trkpt><trkpt lat="43.04831080506746" lon="11.624932327243487"><ele>286.0</ele><time>2026-04-25T10:21:14Z</time></trkpt><trkpt lat="43.048217358991515" lon="11.625110765244743"><ele>285.5</ele><time>2026-04-25T10:21:15Z</time></trkpt><trkpt lat="43.04811993708192" lon="11.62526020242125"><ele>285.0</ele><time>2026-04-25T10:21:16Z</time></trkpt><trkpt lat="43.04800595563558" lon="11.625375119792832"><ele>284.5</ele><time>2026-04-25T10:21:17Z</time></trkpt><trkpt lat="43.047875737342125" lon="11.625449102806144"><ele>284.0</ele><time>2026-04-25T10:21:18Z</time></trkpt><trkpt lat="43.04773235211456" lon="11.625478552212414"><ele>282.33333333333337</ele><time>2026-04-25T10:21:19Z</time></trkpt><trkpt lat="43.047578505008126" lon="11.625471853533815"><ele>280.6666666666667</ele><time>2026-04-25T10:21:20Z</time></trkpt><trkpt lat="43.04741377699506" lon="11.625471461901014"><ele>279.0</ele><time>2026-04-25T10:21:21Z</time></trkpt><trkpt lat="43.04723119273248" lon="11.625472927819633"><ele>278.3333333333333</ele><time>2026-04-25T10:21:22Z</time></trkpt><trkpt lat="43.047038639136524" lon="11.62547124816512"><ele>277.66666666666663</ele><time>2026-04-25T10:21:23Z</time></trkpt><trkpt lat="43.04682944254828" lon="11.625467990669774"><ele>277.0</ele><time>2026-04-25T10:21:24Z</time></trkpt><trkpt lat="43.046619458159135" lon="11.625442993557867"><ele>276.3333333333333</ele><time>2026-04-25T10:21:25Z</time></trkpt><trkpt lat="43.04641846061195" lon="11.625384797319633"><ele>275.6666666666667</ele><time>2026-04-25T10:21:26Z</time></trkpt><trkpt lat="43.04621734839438" lon="11.625285544777618"><ele>275.0</ele><time>2026-04-25T10:21:27Z</time></trkpt><trkpt lat="43.046024653616755" lon="11.625184317770636"><ele>276.0</ele><time>2026-04-25T10:21:28Z</time></trkpt><trkpt lat="43.045836115490346" lon="11.625092567160744"><ele>277.0</ele><time>2026-04-25T10:21:29Z</time></trkpt><trkpt lat="43.04562341100764" lon="11.625040736774837"><ele>278.0</ele><time>2026-04-25T10:21:30Z</time></trkpt><trkpt lat="43.045390570903926" lon="11.625040966937208"><ele>278.0</ele><time>2026-04-25T10:21:31Z</time></trkpt><trkpt lat="43.04514371742912" lon="11.625069719069963"><ele>278.0</ele><time>2026-04-25T10:21:32Z</time></trkpt><trkpt lat="43.044888158339376" lon="11.625098238895898"><ele>278.5</ele><time>2026-04-25T10:21:33Z</time></trkpt><trkpt lat="43.04462243094715" lon="11.625141039540177"><ele>279.0</ele><time>2026-04-25T10:21:34Z</time></trkpt><trkpt lat="43.04444205069413" lon="11.625050202594236"><ele>279.0</ele><time>2026-04-25T10:21:35Z</time></trkpt><trkpt lat="43.04419510681389" lon="11.625105789463772"><ele>279.0</ele><time>2026-04-25T10:21:36Z</time></trkpt><trkpt lat="43.04396952611679" lon="11.625200459481011"><ele>279.0</ele><time>2026-04-25T10:21:37Z</time></trkpt><trkpt lat="43.04377619496971" lon="11.625307409359156"><ele>279.0</ele><time>2026-04-25T10:21:38Z</time></trkpt><trkpt lat="43.04360806081885" lon="11.625417038584706"><ele>279.0</ele><time>2026-04-25T10:21:39Z</time></trkpt><trkpt lat="43.04342466180137" lon="11.625536526457504"><ele>277.3333333333333</ele><time>2026-04-25T10:21:40Z</time></trkpt><trkpt lat="43.04322076013774" lon="11.625650058805856"><ele>275.66666666666663</ele><time>2026-04-25T10:21:41Z</time></trkpt><trkpt lat="43.04300650565987" lon="11.625760431079641"><ele>274.0</ele><time>2026-04-25T10:21:42Z</time></trkpt><trkpt lat="43.04278607155911" lon="11.625873455911902"><ele>274.0</ele><time>2026-04-25T10:21:43Z</time></trkpt><trkpt lat="43.04256508015991" lon="11.625983468775535"><ele>274.0</ele><time>2026-04-25T10:21:44Z</time></trkpt><trkpt lat="43.04234542340858" lon="11.626095700525434"><ele>272.66666666666663</ele><time>2026-04-25T10:21:45Z</time></trkpt><trkpt lat="43.0421317429889" lon="11.626207921741937"><ele>271.3333333333333</ele><time>2026-04-25T10:21:46Z</time></trkpt><trkpt lat="43.04192986237486" lon="11.626314434870995"><ele>270.0</ele><time>2026-04-25T10:21:47Z</time></trkpt><trkpt lat="43.041741841082384" lon="11.626414920324358"><ele>271.0</ele><time>2026-04-25T10:21:48Z</time></trkpt><trkpt lat="43.0415594551134" lon="11.626502889041522"><ele>272.0</ele><time>2026-04-25T10:21:49Z</time></trkpt><trkpt lat="43.04136689916678" lon="11.626584916546113"><ele>273.0</ele><time>2026-04-25T10:21:50Z</time></trkpt><trkpt lat="43.04116106898093" lon="11.626650510290652"><ele>273.0</ele><time>2026-04-25T10:21:51Z</time></trkpt><trkpt lat="43.04094790561839" lon="11.626694114705145"><ele>273.0</ele><time>2026-04-25T10:21:52Z</time></trkpt><trkpt lat="43.04073527509116" lon="11.626716370850472"><ele>273.0</ele><time>2026-04-25T10:21:53Z</time></trkpt><trkpt lat="43.040529164764585" lon="11.62676767148042"><ele>273.0</ele><time>2026-04-25T10:21:54Z</time></trkpt><trkpt lat="43.04032862548155" lon="11.62684029724902"><ele>273.0</ele><time>2026-04-25T10:21:55Z</time></trkpt><trkpt lat="43.040119825313575" lon="11.626882670109095"><ele>273.0</ele><time>2026-04-25T10:21:56Z</time></trkpt><trkpt lat="43.039892523543706" lon="11.626865270957172"><ele>273.0</ele><time>2026-04-25T10:21:57Z</time></trkpt><trkpt lat="43.03966170960535" lon="11.626851996950615"><ele>273.0</ele><time>2026-04-25T10:21:58Z</time></trkpt><trkpt lat="43.039431091352355" lon="11.626846157597567"><ele>273.0</ele><time>2026-04-25T10:21:59Z</time></trkpt><trkpt lat="43.0392024178765" lon="11.626844977741822"><ele>273.0</ele><time>2026-04-25T10:22:00Z</time></trkpt><trkpt lat="43.03897993029682" lon="11.626850018334896"><ele>273.0</ele><time>2026-04-25T10:22:01Z</time></trkpt><trkpt lat="43.03876293995689" lon="11.626866076620908"><ele>273.0</ele><time>2026-04-25T10:22:02Z</time></trkpt><trkpt lat="43.03854055168537" lon="11.626897077986104"><ele>273.0</ele><time>2026-04-25T10:22:03Z</time></trkpt><trkpt lat="43.03831096160724" lon="11.626939512408795"><ele>269.0</ele><time>2026-04-25T10:22:04Z</time></trkpt><trkpt lat="43.0380700990813" lon="11.626988695490578"><ele>265.0</ele><time>2026-04-25T10:22:05Z</time></trkpt><trkpt lat="43.0378230949411" lon="11.627037845757032"><ele>265.0</ele><time>2026-04-25T10:22:06Z</time></trkpt><trkpt lat="43.03757268154389" lon="11.627083508622153"><ele>265.0</ele><time>2026-04-25T10:22:07Z</time></trkpt><trkpt lat="43.0373212837704" lon="11.627126933666801"><ele>265.5</ele><time>2026-04-25T10:22:08Z</time></trkpt><trkpt lat="43.03706918610707" lon="11.62716873553894"><ele>266.0</ele><time>2026-04-25T10:22:09Z</time></trkpt><trkpt lat="43.03681937518488" lon="11.627209735042209"><ele>268.5</ele><time>2026-04-25T10:22:10Z</time></trkpt><trkpt lat="43.03657193490735" lon="11.627250407226946"><ele>271.0</ele><time>2026-04-25T10:22:11Z</time></trkpt><trkpt lat="43.036338533515824" lon="11.627289622865225"><ele>271.0</ele><time>2026-04-25T10:22:12Z</time></trkpt><trkpt lat="43.03611920499744" lon="11.627325108854608"><ele>271.0</ele><time>2026-04-25T10:22:13Z</time></trkpt><trkpt lat="43.03591125335435" lon="11.62735577335455"><ele>271.0</ele><time>2026-04-25T10:22:14Z</time></trkpt><trkpt lat="43.035714230746414" lon="11.62738790459265"><ele>270.3333333333333</ele><time>2026-04-25T10:22:15Z</time></trkpt><trkpt lat="43.03552698416549" lon="11.627418709872249"><ele>269.6666666666667</ele><time>2026-04-25T10:22:16Z</time></trkpt><trkpt lat="43.035344992176036" lon="11.62744973850488"><ele>269.0</ele><time>2026-04-25T10:22:17.001Z</time></trkpt><trkpt lat="43.035163153898964" lon="11.627480490756204"><ele>269.0</ele><time>2026-04-25T10:22:18.001Z</time></trkpt><trkpt lat="43.034983143856685" lon="11.627509452378423"><ele>269.0</ele><time>2026-04-25T10:22:19.001Z</time></trkpt><trkpt lat="43.0348026882035" lon="11.62754125520678"><ele>269.0</ele><time>2026-04-25T10:22:20.001Z</time></trkpt><trkpt lat="43.03462572557728" lon="11.627575526469371"><ele>268.33333333333337</ele><time>2026-04-25T10:22:21.001Z</time></trkpt><trkpt lat="43.03445352161316" lon="11.62761059764339"><ele>267.6666666666667</ele><time>2026-04-25T10:22:22.001Z</time></trkpt><trkpt lat="43.0342734590764" lon="11.62763563762137"><ele>267.0</ele><time>2026-04-25T10:22:23.001Z</time></trkpt><trkpt lat="43.03408575220042" lon="11.627629852279535"><ele>265.0</ele><time>2026-04-25T10:22:24.001Z</time></trkpt><trkpt lat="43.03389055061508" lon="11.627572909231361"><ele>263.0</ele><time>2026-04-25T10:22:25.001Z</time></trkpt><trkpt lat="43.03368684528113" lon="11.627480731732591"><ele>261.0</ele><time>2026-04-25T10:22:26.001Z</time></trkpt><trkpt lat="43.03348008855745" lon="11.627401715432422"><ele>259.6666666666667</ele><time>2026-04-25T10:22:27.001Z</time></trkpt><trkpt lat="43.03327188034111" lon="11.627341083456878"><ele>258.33333333333337</ele><time>2026-04-25T10:22:28.001Z</time></trkpt><trkpt lat="43.03306659038079" lon="11.627277637690177"><ele>257.0</ele><time>2026-04-25T10:22:29.001Z</time></trkpt><trkpt lat="43.032862317620996" lon="11.627210851514489"><ele>257.0</ele><time>2026-04-25T10:22:30.001Z</time></trkpt><trkpt lat="43.03265367440136" lon="11.627144581232713"><ele>257.0</ele><time>2026-04-25T10:22:31.001Z</time></trkpt><trkpt lat="43.032448197719326" lon="11.62707547604883"><ele>257.0</ele><time>2026-04-25T10:22:32.001Z</time></trkpt><trkpt lat="43.03224825072091" lon="11.627010309694182"><ele>258.6666666666667</ele><time>2026-04-25T10:22:33.001Z</time></trkpt><trkpt lat="43.03205464524683" lon="11.626949872155306"><ele>260.3333333333333</ele><time>2026-04-25T10:22:34.001Z</time></trkpt><trkpt lat="43.03186852788725" lon="11.626893890831486"><ele>262.0</ele><time>2026-04-25T10:22:35.001Z</time></trkpt><trkpt lat="43.03169343365381" lon="11.626838797164273"><ele>262.66666666666663</ele><time>2026-04-25T10:22:36Z</time></trkpt><trkpt lat="43.031527473293394" lon="11.626784712259653"><ele>263.3333333333333</ele><time>2026-04-25T10:22:37Z</time></trkpt><trkpt lat="43.03136942976788" lon="11.626736285994022"><ele>264.0</ele><time>2026-04-25T10:22:38Z</time></trkpt><trkpt lat="43.03120623616917" lon="11.626684931623318"><ele>264.0</ele><time>2026-04-25T10:22:39Z</time></trkpt><trkpt lat="43.031038668067524" lon="11.626634342583882"><ele>264.0</ele><time>2026-04-25T10:22:40Z</time></trkpt><trkpt lat="43.030863730254964" lon="11.626585369298695"><ele>264.0</ele><time>2026-04-25T10:22:41Z</time></trkpt><trkpt lat="43.030679951044746" lon="11.626532759196941"><ele>262.3333333333333</ele><time>2026-04-25T10:22:42Z</time></trkpt><trkpt lat="43.03048669224085" lon="11.626490000018785"><ele>260.66666666666663</ele><time>2026-04-25T10:22:43Z</time></trkpt><trkpt lat="43.030287325654264" lon="11.626457499828241"><ele>259.0</ele><time>2026-04-25T10:22:44Z</time></trkpt><trkpt lat="43.03008207513441" lon="11.626408625034346"><ele>258.0</ele><time>2026-04-25T10:22:45Z</time></trkpt><trkpt lat="43.029885978846465" lon="11.626297385505161"><ele>257.0</ele><time>2026-04-25T10:22:46Z</time></trkpt><trkpt lat="43.02968436366126" lon="11.626188337140855"><ele>256.0</ele><time>2026-04-25T10:22:47Z</time></trkpt><trkpt lat="43.02949944659642" lon="11.626048596284855"><ele>257.3333333333333</ele><time>2026-04-25T10:22:48Z</time></trkpt><trkpt lat="43.02931132012465" lon="11.625950613745282"><ele>258.6666666666667</ele><time>2026-04-25T10:22:49Z</time></trkpt><trkpt lat="43.02912723462615" lon="11.625895950331332"><ele>260.0</ele><time>2026-04-25T10:22:50Z</time></trkpt><trkpt lat="43.02895792337368" lon="11.625838416475206"><ele>260.0</ele><time>2026-04-25T10:22:51Z</time></trkpt><trkpt lat="43.028810587390765" lon="11.625737060765266"><ele>260.0</ele><time>2026-04-25T10:22:52Z</time></trkpt><trkpt lat="43.02868535551346" lon="11.625600907862719"><ele>260.0</ele><time>2026-04-25T10:22:53Z</time></trkpt><trkpt lat="43.02859062118425" lon="11.62544953007122"><ele>260.0</ele><time>2026-04-25T10:22:54Z</time></trkpt><trkpt lat="43.02850949522498" lon="11.625312703356474"><ele>260.0</ele><time>2026-04-25T10:22:55Z</time></trkpt><trkpt lat="43.02842419637705" lon="11.625230610071183"><ele>260.0</ele><time>2026-04-25T10:22:56Z</time></trkpt><trkpt lat="43.02834332032271" lon="11.625211283091836"><ele>260.0</ele><time>2026-04-25T10:22:57Z</time></trkpt><trkpt lat="43.02827725590071" lon="11.625237894576244"><ele>260.0</ele><time>2026-04-25T10:22:58Z</time></trkpt><trkpt lat="43.028181340117015" lon="11.625341040962917"><ele>260.6</ele><time>2026-04-25T10:23:00Z</time></trkpt><trkpt lat="43.02809809163485" lon="11.625466451036255"><ele>261.2</ele><time>2026-04-25T10:23:02Z</time></trkpt><trkpt lat="43.028033751854025" lon="11.625543618001823"><ele>261.8</ele><time>2026-04-25T10:23:03Z</time></trkpt><trkpt lat="43.0279570214051" lon="11.625624126080513"><ele>262.4</ele><time>2026-04-25T10:23:04Z</time></trkpt><trkpt lat="43.027872980026935" lon="11.625712619948878"><ele>263.0</ele><time>2026-04-25T10:23:05Z</time></trkpt><trkpt lat="43.027792346152864" lon="11.625803765996256"><ele>263.0</ele><time>2026-04-25T10:23:06Z</time></trkpt><trkpt lat="43.02771613076257" lon="11.62588744623256"><ele>263.0</ele><time>2026-04-25T10:23:07Z</time></trkpt><trkpt lat="43.027649086577945" lon="11.625968007846105"><ele>263.0</ele><time>2026-04-25T10:23:08Z</time></trkpt><trkpt lat="43.027598903258635" lon="11.626056599024443"><ele>263.0</ele><time>2026-04-25T10:23:09Z</time></trkpt><trkpt lat="43.027580282531716" lon="11.626163428703423"><ele>263.0</ele><time>2026-04-25T10:23:10Z</time></trkpt><trkpt lat="43.02758994597926" lon="11.626291275870615"><ele>263.0</ele><time>2026-04-25T10:23:11Z</time></trkpt><trkpt lat="43.027617390020595" lon="11.626440526600119"><ele>265.0</ele><time>2026-04-25T10:23:12Z</time></trkpt><trkpt lat="43.02764653374244" lon="11.626598945789254"><ele>267.0</ele><time>2026-04-25T10:23:13Z</time></trkpt><trkpt lat="43.027657985450446" lon="11.626751171468435"><ele>269.0</ele><time>2026-04-25T10:23:14Z</time></trkpt><trkpt lat="43.027625847769315" lon="11.62689913060257"><ele>271.0</ele><time>2026-04-25T10:23:15Z</time></trkpt><trkpt lat="43.02757312649484" lon="11.627044678406268"><ele>271.0</ele><time>2026-04-25T10:23:16Z</time></trkpt><trkpt lat="43.027510903101074" lon="11.627200624054872"><ele>271.0</ele><time>2026-04-25T10:23:17Z</time></trkpt><trkpt lat="43.027455224140205" lon="11.627351477414026"><ele>271.0</ele><time>2026-04-25T10:23:18Z</time></trkpt><trkpt lat="43.027391942876285" lon="11.627479529270312"><ele>271.0</ele><time>2026-04-25T10:23:19Z</time></trkpt><trkpt lat="43.02732328180708" lon="11.627586014583498"><ele>273.0</ele><time>2026-04-25T10:23:20Z</time></trkpt><trkpt lat="43.02723086532282" lon="11.627638465512756"><ele>275.0</ele><time>2026-04-25T10:23:21Z</time></trkpt><trkpt lat="43.02714450973163" lon="11.627705872024917"><ele>277.0</ele><time>2026-04-25T10:23:22Z</time></trkpt><trkpt lat="43.02703090357137" lon="11.627726406983268"><ele>279.0</ele><time>2026-04-25T10:23:23Z</time></trkpt><trkpt lat="43.026891535591844" lon="11.627740879533274"><ele>279.0</ele><time>2026-04-25T10:23:24Z</time></trkpt><trkpt lat="43.02674716612469" lon="11.627752410548817"><ele>279.0</ele><time>2026-04-25T10:23:25Z</time></trkpt><trkpt lat="43.02660277124387" lon="11.627777793341407"><ele>279.0</ele><time>2026-04-25T10:23:26Z</time></trkpt><trkpt lat="43.02646070158266" lon="11.627804816445135"><ele>279.0</ele><time>2026-04-25T10:23:27Z</time></trkpt><trkpt lat="43.026326779154346" lon="11.62781933916308"><ele>277.8</ele><time>2026-04-25T10:23:28Z</time></trkpt><trkpt lat="43.02620891259075" lon="11.6278385133109"><ele>276.59999999999997</ele><time>2026-04-25T10:23:29Z</time></trkpt><trkpt lat="43.026112495395765" lon="11.627863028363778"><ele>275.4</ele><time>2026-04-25T10:23:30Z</time></trkpt><trkpt lat="43.026035622005" lon="11.627885935699208"><ele>274.2</ele><time>2026-04-25T10:23:31Z</time></trkpt><trkpt lat="43.025927875887376" lon="11.6278912854331"><ele>273.0</ele><time>2026-04-25T10:23:33Z</time></trkpt><trkpt lat="43.02590002060399" lon="11.62781195209531"><ele>274.8</ele><time>2026-04-25T10:23:35Z</time></trkpt><trkpt lat="43.025915700333" lon="11.627709645556347"><ele>276.6</ele><time>2026-04-25T10:23:36Z</time></trkpt><trkpt lat="43.02601537981019" lon="11.627567204619313"><ele>278.4</ele><time>2026-04-25T10:23:38Z</time></trkpt><trkpt lat="43.02607258909351" lon="11.627455596997457"><ele>280.2</ele><time>2026-04-25T10:23:39Z</time></trkpt><trkpt lat="43.0261374778982" lon="11.627322678269726"><ele>282.0</ele><time>2026-04-25T10:23:40Z</time></trkpt><trkpt lat="43.02621003247068" lon="11.627177471772896"><ele>282.0</ele><time>2026-04-25T10:23:41Z</time></trkpt><trkpt lat="43.02628081190269" lon="11.627040854225518"><ele>282.0</ele><time>2026-04-25T10:23:42Z</time></trkpt><trkpt lat="43.02634386230547" lon="11.626925454887205"><ele>282.0</ele><time>2026-04-25T10:23:43Z</time></trkpt><trkpt lat="43.02638362806806" lon="11.626826412326759"><ele>282.0</ele><time>2026-04-25T10:23:44Z</time></trkpt><trkpt lat="43.02637154556136" lon="11.626700597762609"><ele>282.0</ele><time>2026-04-25T10:23:46Z</time></trkpt><trkpt lat="43.02630919325006" lon="11.626948611893106"><ele>282.0</ele><time>2026-04-25T10:24:00Z</time></trkpt><trkpt lat="43.026267725142276" lon="11.627050987464465"><ele>282.0</ele><time>2026-04-25T10:24:01Z</time></trkpt><trkpt lat="43.026194815230845" lon="11.627149505301167"><ele>282.0</ele><time>2026-04-25T10:24:02Z</time></trkpt><trkpt lat="43.02613583992123" lon="11.627253242447479"><ele>282.0</ele><time>2026-04-25T10:24:03Z</time></trkpt><trkpt lat="43.02609085638268" lon="11.627355526110911"><ele>282.0</ele><time>2026-04-25T10:24:04Z</time></trkpt><trkpt lat="43.02604932002984" lon="11.627448329649775"><ele>282.0</ele><time>2026-04-25T10:24:05Z</time></trkpt><trkpt lat="43.026007003038174" lon="11.62753127779449"><ele>282.0</ele><time>2026-04-25T10:24:06Z</time></trkpt><trkpt lat="43.02596217087532" lon="11.627599092889167"><ele>282.0</ele><time>2026-04-25T10:24:07Z</time></trkpt><trkpt lat="43.025891696315" lon="11.627706309069193"><ele>282.0</ele><time>2026-04-25T10:24:09Z</time></trkpt><trkpt lat="43.025859088025335" lon="11.627790692374605"><ele>282.0</ele><time>2026-04-25T10:24:11Z</time></trkpt><trkpt lat="43.02584546484001" lon="11.627893177785037"><ele>282.0</ele><time>2026-04-25T10:24:14Z</time></trkpt><trkpt lat="43.02589241373778" lon="11.627964667549083"><ele>280.2</ele><time>2026-04-25T10:24:16Z</time></trkpt><trkpt lat="43.02595692946766" lon="11.627967790494267"><ele>278.4</ele><time>2026-04-25T10:24:17Z</time></trkpt><trkpt lat="43.026037080207814" lon="11.62792562885798"><ele>276.6</ele><time>2026-04-25T10:24:18Z</time></trkpt><trkpt lat="43.026120031484815" lon="11.627901312195867"><ele>274.8</ele><time>2026-04-25T10:24:19Z</time></trkpt><trkpt lat="43.02622329517998" lon="11.627885056952815"><ele>273.0</ele><time>2026-04-25T10:24:20Z</time></trkpt><trkpt lat="43.026342008758746" lon="11.627869510664972"><ele>273.0</ele><time>2026-04-25T10:24:21Z</time></trkpt><trkpt lat="43.0264705403834" lon="11.62784357122515"><ele>273.0</ele><time>2026-04-25T10:24:22Z</time></trkpt><trkpt lat="43.02660464001922" lon="11.627816698080242"><ele>273.0</ele><time>2026-04-25T10:24:23.001Z</time></trkpt><trkpt lat="43.026743460239224" lon="11.627793447842762"><ele>273.0</ele><time>2026-04-25T10:24:24.001Z</time></trkpt><trkpt lat="43.02687949651042" lon="11.627769028370064"><ele>274.2</ele><time>2026-04-25T10:24:25.001Z</time></trkpt><trkpt lat="43.0270069963241" lon="11.62775303941239"><ele>275.4</ele><time>2026-04-25T10:24:26.001Z</time></trkpt><trkpt lat="43.02712121693198" lon="11.627733701548797"><ele>276.59999999999997</ele><time>2026-04-25T10:24:27.001Z</time></trkpt><trkpt lat="43.02721574946187" lon="11.627697875991773"><ele>277.8</ele><time>2026-04-25T10:24:28.001Z</time></trkpt><trkpt lat="43.027291913380296" lon="11.627649216515017"><ele>279.0</ele><time>2026-04-25T10:24:29.001Z</time></trkpt><trkpt lat="43.02734807097045" lon="11.62758779123728"><ele>279.0</ele><time>2026-04-25T10:24:30.001Z</time></trkpt><trkpt lat="43.0274038674345" lon="11.627515733865579"><ele>279.0</ele><time>2026-04-25T10:24:31.001Z</time></trkpt><trkpt lat="43.0274572403698" lon="11.627424345563833"><ele>279.0</ele><time>2026-04-25T10:24:32.001Z</time></trkpt><trkpt lat="43.02749767371067" lon="11.627311756176823"><ele>279.0</ele><time>2026-04-25T10:24:33.001Z</time></trkpt><trkpt lat="43.02753670997827" lon="11.62719947299053"><ele>279.0</ele><time>2026-04-25T10:24:34.001Z</time></trkpt><trkpt lat="43.027589429618274" lon="11.62708991293697"><ele>279.0</ele><time>2026-04-25T10:24:35.001Z</time></trkpt><trkpt lat="43.027637241663626" lon="11.626969668171139"><ele>277.59999999999997</ele><time>2026-04-25T10:24:36.001Z</time></trkpt><trkpt lat="43.02766768691803" lon="11.626832132131417"><ele>276.2</ele><time>2026-04-25T10:24:37Z</time></trkpt><trkpt lat="43.027669938274805" lon="11.626680834195422"><ele>274.79999999999995</ele><time>2026-04-25T10:24:38Z</time></trkpt><trkpt lat="43.0276588915778" lon="11.626523692639635"><ele>273.4</ele><time>2026-04-25T10:24:39Z</time></trkpt><trkpt lat="43.027642466496246" lon="11.626369037015982"><ele>272.0</ele><time>2026-04-25T10:24:40Z</time></trkpt><trkpt lat="43.02762591083508" lon="11.626221334290507"><ele>270.2</ele><time>2026-04-25T10:24:41Z</time></trkpt><trkpt lat="43.02763111103561" lon="11.626099849663781"><ele>268.4</ele><time>2026-04-25T10:24:42Z</time></trkpt><trkpt lat="43.02767203934236" lon="11.625991622146785"><ele>266.6</ele><time>2026-04-25T10:24:43Z</time></trkpt><trkpt lat="43.02774505254047" lon="11.625911127626738"><ele>264.8</ele><time>2026-04-25T10:24:44.001Z</time></trkpt><trkpt lat="43.027823659333755" lon="11.625837450920242"><ele>263.0</ele><time>2026-04-25T10:24:45.001Z</time></trkpt><trkpt lat="43.027898189994104" lon="11.625755284844097"><ele>263.0</ele><time>2026-04-25T10:24:46.001Z</time></trkpt><trkpt lat="43.0279646124094" lon="11.625659371329071"><ele>263.0</ele><time>2026-04-25T10:24:47.001Z</time></trkpt><trkpt lat="43.028032695636746" lon="11.625582099311233"><ele>263.0</ele><time>2026-04-25T10:24:48.001Z</time></trkpt><trkpt lat="43.02810047918403" lon="11.62551348781149"><ele>263.0</ele><time>2026-04-25T10:24:49.001Z</time></trkpt><trkpt lat="43.028161651963295" lon="11.62544536099926"><ele>263.0</ele><time>2026-04-25T10:24:50.001Z</time></trkpt><trkpt lat="43.02821759813662" lon="11.62538226745415"><ele>263.0</ele><time>2026-04-25T10:24:51.001Z</time></trkpt><trkpt lat="43.02831577568719" lon="11.625325303108045"><ele>262.0</ele><time>2026-04-25T10:24:53.001Z</time></trkpt><trkpt lat="43.028318725280734" lon="11.625130506956836"><ele>261.0</ele><time>2026-04-25T10:24:55.001Z</time></trkpt><trkpt lat="43.028288726779756" lon="11.625033814577609"><ele>260.0</ele><time>2026-04-25T10:24:56.001Z</time></trkpt><trkpt lat="43.02824412165382" lon="11.62492154068402"><ele>259.0</ele><time>2026-04-25T10:24:57.001Z</time></trkpt><trkpt lat="43.028196568175574" lon="11.624803848921227"><ele>258.0</ele><time>2026-04-25T10:24:58.001Z</time></trkpt><trkpt lat="43.028152391771954" lon="11.624695122642496"><ele>258.0</ele><time>2026-04-25T10:24:59.001Z</time></trkpt><trkpt lat="43.02811226982446" lon="11.624587963179321"><ele>258.0</ele><time>2026-04-25T10:25:00.001Z</time></trkpt><trkpt lat="43.02807717209599" lon="11.624484064351106"><ele>258.0</ele><time>2026-04-25T10:25:01.001Z</time></trkpt><trkpt lat="43.0280474479016" lon="11.62438613312919"><ele>258.0</ele><time>2026-04-25T10:25:02.001Z</time></trkpt><trkpt lat="43.02802187351787" lon="11.624291533322573"><ele>258.0</ele><time>2026-04-25T10:25:03.001Z</time></trkpt><trkpt lat="43.02799613718871" lon="11.624176823695489"><ele>258.0</ele><time>2026-04-25T10:25:04.001Z</time></trkpt><trkpt lat="43.02797264814982" lon="11.624041997695052"><ele>258.0</ele><time>2026-04-25T10:25:05.001Z</time></trkpt><trkpt lat="43.027953537389635" lon="11.623886048316706"><ele>258.0</ele><time>2026-04-25T10:25:06.001Z</time></trkpt><trkpt lat="43.02793895988405" lon="11.6237109999682"><ele>258.0</ele><time>2026-04-25T10:25:07.001Z</time></trkpt><trkpt lat="43.02793707686665" lon="11.623528382221474"><ele>258.0</ele><time>2026-04-25T10:25:08.001Z</time></trkpt><trkpt lat="43.027951028556295" lon="11.623346023832013"><ele>258.0</ele><time>2026-04-25T10:25:09.001Z</time></trkpt><trkpt lat="43.02798035149569" lon="11.62315541205122"><ele>258.0</ele><time>2026-04-25T10:25:10.001Z</time></trkpt><trkpt lat="43.02801917560002" lon="11.622966608161954"><ele>258.0</ele><time>2026-04-25T10:25:11.001Z</time></trkpt><trkpt lat="43.02806647100902" lon="11.622770370491157"><ele>258.0</ele><time>2026-04-25T10:25:12.001Z</time></trkpt><trkpt lat="43.02811432687323" lon="11.622565770765387"><ele>260.0</ele><time>2026-04-25T10:25:13.001Z</time></trkpt><trkpt lat="43.02816004822316" lon="11.622365469859146"><ele>262.0</ele><time>2026-04-25T10:25:14.001Z</time></trkpt><trkpt lat="43.02819804864285" lon="11.622158145315904"><ele>264.0</ele><time>2026-04-25T10:25:15.001Z</time></trkpt><trkpt lat="43.02823320659706" lon="11.62194049831111"><ele>266.0</ele><time>2026-04-25T10:25:16.001Z</time></trkpt><trkpt lat="43.02826742582912" lon="11.62172169899772"><ele>268.0</ele><time>2026-04-25T10:25:17.001Z</time></trkpt><trkpt lat="43.028303849193826" lon="11.621511892581392"><ele>270.0</ele><time>2026-04-25T10:25:18.001Z</time></trkpt><trkpt lat="43.02833857556284" lon="11.621325576863734"><ele>276.25</ele><time>2026-04-25T10:25:19.001Z</time></trkpt><trkpt lat="43.02836759441651" lon="11.621146386826396"><ele>282.5</ele><time>2026-04-25T10:25:20.001Z</time></trkpt><trkpt lat="43.02838930925547" lon="11.620963876961357"><ele>288.75</ele><time>2026-04-25T10:25:21.001Z</time></trkpt><trkpt lat="43.02840811414426" lon="11.620793194024124"><ele>295.0</ele><time>2026-04-25T10:25:22.001Z</time></trkpt><trkpt lat="43.02842528181315" lon="11.62064401590898"><ele>295.0</ele><time>2026-04-25T10:25:23.001Z</time></trkpt><trkpt lat="43.028437743967345" lon="11.620513264886723"><ele>295.0</ele><time>2026-04-25T10:25:24.001Z</time></trkpt><trkpt lat="43.02844927120915" lon="11.620399300991206"><ele>295.0</ele><time>2026-04-25T10:25:25.001Z</time></trkpt><trkpt lat="43.02845804879855" lon="11.620300112664868"><ele>295.0</ele><time>2026-04-25T10:25:26.001Z</time></trkpt><trkpt lat="43.02847372126498" lon="11.620211914667177"><ele>295.0</ele><time>2026-04-25T10:25:27.001Z</time></trkpt><trkpt lat="43.02848851254975" lon="11.620079936863242"><ele>295.0</ele><time>2026-04-25T10:25:29.001Z</time></trkpt><trkpt lat="43.02850418922715" lon="11.619938937774236"><ele>296.2</ele><time>2026-04-25T10:25:31.001Z</time></trkpt><trkpt lat="43.02852088177598" lon="11.619771771463252"><ele>297.4</ele><time>2026-04-25T10:25:33.001Z</time></trkpt><trkpt lat="43.028532096510226" lon="11.619606334257986"><ele>298.6</ele><time>2026-04-25T10:25:35.001Z</time></trkpt><trkpt lat="43.02852949700914" lon="11.619467352207232"><ele>299.8</ele><time>2026-04-25T10:25:37.001Z</time></trkpt><trkpt lat="43.028485803704015" lon="11.619344802267369"><ele>301.0</ele><time>2026-04-25T10:25:39.001Z</time></trkpt><trkpt lat="43.02840512367195" lon="11.619286657480599"><ele>302.0</ele><time>2026-04-25T10:25:41.001Z</time></trkpt><trkpt lat="43.028301698066485" lon="11.619269797155273"><ele>303.0</ele><time>2026-04-25T10:25:43.001Z</time></trkpt><trkpt lat="43.02819018645839" lon="11.619259954084054"><ele>304.0</ele><time>2026-04-25T10:25:45.001Z</time></trkpt><trkpt lat="43.02808246869393" lon="11.619245925081513"><ele>305.0</ele><time>2026-04-25T10:25:47.001Z</time></trkpt><trkpt lat="43.02800651158886" lon="11.619204374499931"><ele>306.0</ele><time>2026-04-25T10:25:50.001Z</time></trkpt><trkpt lat="43.02806194992376" lon="11.619254240675573"><ele>306.0</ele><time>2026-04-25T10:31:01Z</time></trkpt></trkseg></trk></gpx>